<?xml version="1.0" encoding="UTF-8" standalone="no" ?>
<gpx xmlns="http://www.topografix.com/GPX/1/1" xmlns:xsi="http://www.w3.org/2001/XMLSchema-instance" xsi:schemaLocation="http://www.topografix.com/GPX/1/1 http://www.topografix.com/GPX/1/1/gpx.xsd" version="1.1" creator="VisuGPX - https://www.visugpx.com">
  <metadata>
    <name>2015-12-22 Bike ride-Ain Circuit No 6</name>
    <desc><![CDATA[2015-12-22 Bike ride-Ain Circuit No 6]]></desc>
  </metadata>
  <wpt lat="45.92476" lon="4.73912">
    <ele>41.1</ele>
    <name><![CDATA[2015-12-22 10:24 (Start)]]></name>
  </wpt>
  <wpt lat="45.92463" lon="4.73707">
    <ele>168.8</ele>
    <name><![CDATA[2015-12-22 10:24 (End)]]></name>
    <desc><![CDATA[Created by Google My Tracks on Android  Name: 2015-12-22 10:24 Activity type: biking Description: - Total distance: 63.42 km (39.4 mi) Total time: 2:57:45 Moving time: 2:52:56 Average speed: 21.41 km/h (13.3 mi/h) Average moving speed: 22.00 km/h (13.7 mi/h) Max speed: 42.40 km/h (26.3 mi/h) Average pace: 2:48 min/km (4:31 min/mi) Average moving pace: 2:44 min/km (4:23 min/mi) Fastest pace: 1:25 min/km (2:17 min/mi) Max elevation: 307 m (1008 ft) Min elevation: 41 m (135 ft) Elevation gain: 783 m (2568 ft) Max grade: 46 % Min grade: -13 % Recorded: 22/12/2015 10:24]]></desc>
  </wpt>
  <trk>
    <name><![CDATA[2015-12-22 10:24]]></name>
    <trkseg>
      <trkpt lat="45.92476" lon="4.73912">
        <ele>41.099998474</ele>
        <time>2015-12-22T09:24:48.767Z</time>
      </trkpt>
      <trkpt lat="45.92476" lon="4.73912">
        <ele>41.099998474</ele>
        <time>2015-12-22T09:25:13.35Z</time>
      </trkpt>
      <trkpt lat="45.92481" lon="4.7388">
        <ele>57.099998474</ele>
        <time>2015-12-22T09:25:14.212Z</time>
      </trkpt>
      <trkpt lat="45.92481" lon="4.7388">
        <ele>57.099998474</ele>
        <time>2015-12-22T09:25:14.284Z</time>
      </trkpt>
      <trkpt lat="45.92467" lon="4.73808">
        <ele>46.200000763</ele>
        <time>2015-12-22T09:25:15.36Z</time>
      </trkpt>
      <trkpt lat="45.92467" lon="4.73808">
        <ele>46.200000763</ele>
        <time>2015-12-22T09:25:15.403Z</time>
      </trkpt>
      <trkpt lat="45.92471" lon="4.73802">
        <ele>48.799999237</ele>
        <time>2015-12-22T09:25:16.395Z</time>
      </trkpt>
      <trkpt lat="45.92474" lon="4.73791">
        <ele>42.700000763</ele>
        <time>2015-12-22T09:25:18.422Z</time>
      </trkpt>
      <trkpt lat="45.92491" lon="4.73754">
        <ele>78.099998474</ele>
        <time>2015-12-22T09:25:19.362Z</time>
      </trkpt>
      <trkpt lat="45.92491" lon="4.73754">
        <ele>78.099998474</ele>
        <time>2015-12-22T09:25:20.428Z</time>
      </trkpt>
      <trkpt lat="45.9247" lon="4.73741">
        <ele>125.900001526</ele>
        <time>2015-12-22T09:25:21.406Z</time>
      </trkpt>
      <trkpt lat="45.92464" lon="4.73734">
        <ele>137.199996948</ele>
        <time>2015-12-22T09:25:22.427Z</time>
      </trkpt>
      <trkpt lat="45.92458" lon="4.73723">
        <ele>148.399993896</ele>
        <time>2015-12-22T09:25:23.366Z</time>
      </trkpt>
      <trkpt lat="45.92455" lon="4.73721">
        <ele>152.5</ele>
        <time>2015-12-22T09:25:45.396Z</time>
      </trkpt>
      <trkpt lat="45.92451" lon="4.73713">
        <ele>163.800003052</ele>
        <time>2015-12-22T09:25:46.374Z</time>
      </trkpt>
      <trkpt lat="45.92456" lon="4.73704">
        <ele>164.800003052</ele>
        <time>2015-12-22T09:26:04.407Z</time>
      </trkpt>
      <trkpt lat="45.92458" lon="4.73703">
        <ele>165.300003052</ele>
        <time>2015-12-22T09:26:05.374Z</time>
      </trkpt>
      <trkpt lat="45.92466" lon="4.73701">
        <ele>169.199996948</ele>
        <time>2015-12-22T09:26:23.393Z</time>
      </trkpt>
      <trkpt lat="45.92466" lon="4.73697">
        <ele>169.199996948</ele>
        <time>2015-12-22T09:26:24.375Z</time>
      </trkpt>
      <trkpt lat="45.92467" lon="4.73688">
        <ele>169.300003052</ele>
        <time>2015-12-22T09:26:26.396Z</time>
      </trkpt>
      <trkpt lat="45.92467" lon="4.73682">
        <ele>169.5</ele>
        <time>2015-12-22T09:26:27.375Z</time>
      </trkpt>
      <trkpt lat="45.92468" lon="4.73671">
        <ele>170.100006104</ele>
        <time>2015-12-22T09:26:29.408Z</time>
      </trkpt>
      <trkpt lat="45.92469" lon="4.73665">
        <ele>170.300003052</ele>
        <time>2015-12-22T09:26:30.373Z</time>
      </trkpt>
      <trkpt lat="45.92471" lon="4.73654">
        <ele>169.800003052</ele>
        <time>2015-12-22T09:26:32.456Z</time>
      </trkpt>
      <trkpt lat="45.92473" lon="4.73649">
        <ele>170</ele>
        <time>2015-12-22T09:26:33.374Z</time>
      </trkpt>
      <trkpt lat="45.9248" lon="4.73645">
        <ele>170.5</ele>
        <time>2015-12-22T09:26:35.421Z</time>
      </trkpt>
      <trkpt lat="45.92485" lon="4.73644">
        <ele>170.699996948</ele>
        <time>2015-12-22T09:26:36.374Z</time>
      </trkpt>
      <trkpt lat="45.92489" lon="4.73644">
        <ele>171.100006104</ele>
        <time>2015-12-22T09:26:37.401Z</time>
      </trkpt>
      <trkpt lat="45.92494" lon="4.73644">
        <ele>171</ele>
        <time>2015-12-22T09:26:38.376Z</time>
      </trkpt>
      <trkpt lat="45.925" lon="4.73644">
        <ele>171.199996948</ele>
        <time>2015-12-22T09:26:39.393Z</time>
      </trkpt>
      <trkpt lat="45.92505" lon="4.73644">
        <ele>171.800003052</ele>
        <time>2015-12-22T09:26:40.374Z</time>
      </trkpt>
      <trkpt lat="45.9251" lon="4.73644">
        <ele>172</ele>
        <time>2015-12-22T09:26:41.395Z</time>
      </trkpt>
      <trkpt lat="45.92515" lon="4.73644">
        <ele>172.399993896</ele>
        <time>2015-12-22T09:26:42.374Z</time>
      </trkpt>
      <trkpt lat="45.92521" lon="4.73644">
        <ele>172.399993896</ele>
        <time>2015-12-22T09:26:43.401Z</time>
      </trkpt>
      <trkpt lat="45.92527" lon="4.73644">
        <ele>172.600006104</ele>
        <time>2015-12-22T09:26:44.372Z</time>
      </trkpt>
      <trkpt lat="45.92532" lon="4.73643">
        <ele>172.5</ele>
        <time>2015-12-22T09:26:45.437Z</time>
      </trkpt>
      <trkpt lat="45.92537" lon="4.73642">
        <ele>172.399993896</ele>
        <time>2015-12-22T09:26:46.373Z</time>
      </trkpt>
      <trkpt lat="45.92543" lon="4.73642">
        <ele>172.600006104</ele>
        <time>2015-12-22T09:26:47.41Z</time>
      </trkpt>
      <trkpt lat="45.92548" lon="4.73641">
        <ele>172.5</ele>
        <time>2015-12-22T09:26:48.373Z</time>
      </trkpt>
      <trkpt lat="45.92554" lon="4.7364">
        <ele>172.199996948</ele>
        <time>2015-12-22T09:26:49.417Z</time>
      </trkpt>
      <trkpt lat="45.92559" lon="4.73638">
        <ele>172.199996948</ele>
        <time>2015-12-22T09:26:50.427Z</time>
      </trkpt>
      <trkpt lat="45.92565" lon="4.73636">
        <ele>172.199996948</ele>
        <time>2015-12-22T09:26:51.394Z</time>
      </trkpt>
      <trkpt lat="45.92571" lon="4.73634">
        <ele>172.399993896</ele>
        <time>2015-12-22T09:26:52.374Z</time>
      </trkpt>
      <trkpt lat="45.92577" lon="4.73631">
        <ele>172.300003052</ele>
        <time>2015-12-22T09:26:53.393Z</time>
      </trkpt>
      <trkpt lat="45.92583" lon="4.7363">
        <ele>172.800003052</ele>
        <time>2015-12-22T09:26:54.377Z</time>
      </trkpt>
      <trkpt lat="45.9259" lon="4.73629">
        <ele>173</ele>
        <time>2015-12-22T09:26:55.461Z</time>
      </trkpt>
      <trkpt lat="45.92596" lon="4.73628">
        <ele>173.600006104</ele>
        <time>2015-12-22T09:26:56.374Z</time>
      </trkpt>
      <trkpt lat="45.92602" lon="4.73629">
        <ele>173.399993896</ele>
        <time>2015-12-22T09:26:57.394Z</time>
      </trkpt>
      <trkpt lat="45.92608" lon="4.7363">
        <ele>172.800003052</ele>
        <time>2015-12-22T09:26:58.376Z</time>
      </trkpt>
      <trkpt lat="45.92613" lon="4.73631">
        <ele>172.5</ele>
        <time>2015-12-22T09:26:59.397Z</time>
      </trkpt>
      <trkpt lat="45.92619" lon="4.73635">
        <ele>172.100006104</ele>
        <time>2015-12-22T09:27:00.376Z</time>
      </trkpt>
      <trkpt lat="45.92624" lon="4.7364">
        <ele>172</ele>
        <time>2015-12-22T09:27:01.404Z</time>
      </trkpt>
      <trkpt lat="45.92628" lon="4.73646">
        <ele>172.100006104</ele>
        <time>2015-12-22T09:27:02.431Z</time>
      </trkpt>
      <trkpt lat="45.92631" lon="4.73653">
        <ele>172.5</ele>
        <time>2015-12-22T09:27:03.462Z</time>
      </trkpt>
      <trkpt lat="45.92634" lon="4.7366">
        <ele>172.600006104</ele>
        <time>2015-12-22T09:27:04.373Z</time>
      </trkpt>
      <trkpt lat="45.92637" lon="4.73667">
        <ele>172.699996948</ele>
        <time>2015-12-22T09:27:05.395Z</time>
      </trkpt>
      <trkpt lat="45.92641" lon="4.73673">
        <ele>172.800003052</ele>
        <time>2015-12-22T09:27:06.373Z</time>
      </trkpt>
      <trkpt lat="45.92644" lon="4.7368">
        <ele>172.899993896</ele>
        <time>2015-12-22T09:27:07.399Z</time>
      </trkpt>
      <trkpt lat="45.92649" lon="4.73685">
        <ele>172.800003052</ele>
        <time>2015-12-22T09:27:08.374Z</time>
      </trkpt>
      <trkpt lat="45.92653" lon="4.7369">
        <ele>172.5</ele>
        <time>2015-12-22T09:27:09.431Z</time>
      </trkpt>
      <trkpt lat="45.92659" lon="4.73694">
        <ele>172.399993896</ele>
        <time>2015-12-22T09:27:10.373Z</time>
      </trkpt>
      <trkpt lat="45.92665" lon="4.73698">
        <ele>172.199996948</ele>
        <time>2015-12-22T09:27:11.394Z</time>
      </trkpt>
      <trkpt lat="45.9267" lon="4.73702">
        <ele>172.399993896</ele>
        <time>2015-12-22T09:27:12.377Z</time>
      </trkpt>
      <trkpt lat="45.92677" lon="4.73705">
        <ele>172.600006104</ele>
        <time>2015-12-22T09:27:13.413Z</time>
      </trkpt>
      <trkpt lat="45.92683" lon="4.73708">
        <ele>172.100006104</ele>
        <time>2015-12-22T09:27:14.372Z</time>
      </trkpt>
      <trkpt lat="45.9269" lon="4.7371">
        <ele>171.699996948</ele>
        <time>2015-12-22T09:27:15.393Z</time>
      </trkpt>
      <trkpt lat="45.92696" lon="4.73712">
        <ele>171.300003052</ele>
        <time>2015-12-22T09:27:16.437Z</time>
      </trkpt>
      <trkpt lat="45.92703" lon="4.73714">
        <ele>170.899993896</ele>
        <time>2015-12-22T09:27:17.4Z</time>
      </trkpt>
      <trkpt lat="45.9271" lon="4.73716">
        <ele>170.699996948</ele>
        <time>2015-12-22T09:27:18.373Z</time>
      </trkpt>
      <trkpt lat="45.92716" lon="4.73717">
        <ele>170.399993896</ele>
        <time>2015-12-22T09:27:19.468Z</time>
      </trkpt>
      <trkpt lat="45.92723" lon="4.73719">
        <ele>170.300003052</ele>
        <time>2015-12-22T09:27:20.453Z</time>
      </trkpt>
      <trkpt lat="45.9273" lon="4.7372">
        <ele>170.699996948</ele>
        <time>2015-12-22T09:27:21.458Z</time>
      </trkpt>
      <trkpt lat="45.92736" lon="4.73722">
        <ele>170.5</ele>
        <time>2015-12-22T09:27:22.404Z</time>
      </trkpt>
      <trkpt lat="45.92743" lon="4.73723">
        <ele>170.399993896</ele>
        <time>2015-12-22T09:27:23.512Z</time>
      </trkpt>
      <trkpt lat="45.92748" lon="4.73725">
        <ele>170.300003052</ele>
        <time>2015-12-22T09:27:24.403Z</time>
      </trkpt>
      <trkpt lat="45.92754" lon="4.73727">
        <ele>170.300003052</ele>
        <time>2015-12-22T09:27:25.448Z</time>
      </trkpt>
      <trkpt lat="45.92759" lon="4.73729">
        <ele>170.600006104</ele>
        <time>2015-12-22T09:27:26.408Z</time>
      </trkpt>
      <trkpt lat="45.92764" lon="4.73731">
        <ele>170.5</ele>
        <time>2015-12-22T09:27:27.451Z</time>
      </trkpt>
      <trkpt lat="45.92769" lon="4.73734">
        <ele>171</ele>
        <time>2015-12-22T09:27:28.407Z</time>
      </trkpt>
      <trkpt lat="45.92776" lon="4.73738">
        <ele>171.5</ele>
        <time>2015-12-22T09:27:30.447Z</time>
      </trkpt>
      <trkpt lat="45.92779" lon="4.73741">
        <ele>171.300003052</ele>
        <time>2015-12-22T09:27:31.37Z</time>
      </trkpt>
      <trkpt lat="45.92784" lon="4.73748">
        <ele>171.699996948</ele>
        <time>2015-12-22T09:27:33.393Z</time>
      </trkpt>
      <trkpt lat="45.92788" lon="4.73753">
        <ele>171.300003052</ele>
        <time>2015-12-22T09:27:34.375Z</time>
      </trkpt>
      <trkpt lat="45.92793" lon="4.73756">
        <ele>171.100006104</ele>
        <time>2015-12-22T09:27:35.392Z</time>
      </trkpt>
      <trkpt lat="45.92798" lon="4.73759">
        <ele>171.100006104</ele>
        <time>2015-12-22T09:27:36.371Z</time>
      </trkpt>
      <trkpt lat="45.92803" lon="4.73762">
        <ele>171.199996948</ele>
        <time>2015-12-22T09:27:37.398Z</time>
      </trkpt>
      <trkpt lat="45.92808" lon="4.73766">
        <ele>171.5</ele>
        <time>2015-12-22T09:27:38.372Z</time>
      </trkpt>
      <trkpt lat="45.92813" lon="4.7377">
        <ele>171.5</ele>
        <time>2015-12-22T09:27:39.42Z</time>
      </trkpt>
      <trkpt lat="45.92819" lon="4.73774">
        <ele>171.399993896</ele>
        <time>2015-12-22T09:27:40.375Z</time>
      </trkpt>
      <trkpt lat="45.92824" lon="4.73779">
        <ele>171.199996948</ele>
        <time>2015-12-22T09:27:41.393Z</time>
      </trkpt>
      <trkpt lat="45.92829" lon="4.73783">
        <ele>171.100006104</ele>
        <time>2015-12-22T09:27:42.375Z</time>
      </trkpt>
      <trkpt lat="45.92834" lon="4.73786">
        <ele>171.100006104</ele>
        <time>2015-12-22T09:27:43.395Z</time>
      </trkpt>
      <trkpt lat="45.92839" lon="4.73789">
        <ele>171.100006104</ele>
        <time>2015-12-22T09:27:44.372Z</time>
      </trkpt>
      <trkpt lat="45.92843" lon="4.73792">
        <ele>171.100006104</ele>
        <time>2015-12-22T09:27:45.392Z</time>
      </trkpt>
      <trkpt lat="45.92847" lon="4.73795">
        <ele>170.899993896</ele>
        <time>2015-12-22T09:27:46.376Z</time>
      </trkpt>
      <trkpt lat="45.92851" lon="4.738">
        <ele>170.899993896</ele>
        <time>2015-12-22T09:27:47.399Z</time>
      </trkpt>
      <trkpt lat="45.92855" lon="4.73807">
        <ele>171.199996948</ele>
        <time>2015-12-22T09:27:48.396Z</time>
      </trkpt>
      <trkpt lat="45.92857" lon="4.73814">
        <ele>171.100006104</ele>
        <time>2015-12-22T09:27:49.417Z</time>
      </trkpt>
      <trkpt lat="45.9286" lon="4.73821">
        <ele>171.199996948</ele>
        <time>2015-12-22T09:27:50.372Z</time>
      </trkpt>
      <trkpt lat="45.92862" lon="4.73829">
        <ele>171.199996948</ele>
        <time>2015-12-22T09:27:51.395Z</time>
      </trkpt>
      <trkpt lat="45.92865" lon="4.73837">
        <ele>171.600006104</ele>
        <time>2015-12-22T09:27:52.372Z</time>
      </trkpt>
      <trkpt lat="45.92868" lon="4.73846">
        <ele>171.699996948</ele>
        <time>2015-12-22T09:27:53.429Z</time>
      </trkpt>
      <trkpt lat="45.9287" lon="4.73855">
        <ele>171.800003052</ele>
        <time>2015-12-22T09:27:54.374Z</time>
      </trkpt>
      <trkpt lat="45.92873" lon="4.73863">
        <ele>172</ele>
        <time>2015-12-22T09:27:55.399Z</time>
      </trkpt>
      <trkpt lat="45.92875" lon="4.73871">
        <ele>171.800003052</ele>
        <time>2015-12-22T09:27:56.373Z</time>
      </trkpt>
      <trkpt lat="45.92878" lon="4.7388">
        <ele>172</ele>
        <time>2015-12-22T09:27:57.393Z</time>
      </trkpt>
      <trkpt lat="45.9288" lon="4.73888">
        <ele>172.199996948</ele>
        <time>2015-12-22T09:27:58.373Z</time>
      </trkpt>
      <trkpt lat="45.9288" lon="4.73898">
        <ele>172.199996948</ele>
        <time>2015-12-22T09:27:59.402Z</time>
      </trkpt>
      <trkpt lat="45.92881" lon="4.73907">
        <ele>172.199996948</ele>
        <time>2015-12-22T09:28:00.374Z</time>
      </trkpt>
      <trkpt lat="45.92882" lon="4.73916">
        <ele>172.199996948</ele>
        <time>2015-12-22T09:28:01.396Z</time>
      </trkpt>
      <trkpt lat="45.92882" lon="4.73925">
        <ele>172</ele>
        <time>2015-12-22T09:28:02.372Z</time>
      </trkpt>
      <trkpt lat="45.92882" lon="4.73935">
        <ele>172.100006104</ele>
        <time>2015-12-22T09:28:03.392Z</time>
      </trkpt>
      <trkpt lat="45.92883" lon="4.73944">
        <ele>172.300003052</ele>
        <time>2015-12-22T09:28:04.372Z</time>
      </trkpt>
      <trkpt lat="45.92883" lon="4.73953">
        <ele>172.399993896</ele>
        <time>2015-12-22T09:28:05.393Z</time>
      </trkpt>
      <trkpt lat="45.92882" lon="4.73962">
        <ele>172.800003052</ele>
        <time>2015-12-22T09:28:06.372Z</time>
      </trkpt>
      <trkpt lat="45.92882" lon="4.73971">
        <ele>173.199996948</ele>
        <time>2015-12-22T09:28:07.396Z</time>
      </trkpt>
      <trkpt lat="45.92881" lon="4.7398">
        <ele>173.399993896</ele>
        <time>2015-12-22T09:28:08.372Z</time>
      </trkpt>
      <trkpt lat="45.92879" lon="4.73988">
        <ele>173.600006104</ele>
        <time>2015-12-22T09:28:09.404Z</time>
      </trkpt>
      <trkpt lat="45.92877" lon="4.73996">
        <ele>173.699996948</ele>
        <time>2015-12-22T09:28:10.39Z</time>
      </trkpt>
      <trkpt lat="45.92875" lon="4.74005">
        <ele>173.899993896</ele>
        <time>2015-12-22T09:28:11.392Z</time>
      </trkpt>
      <trkpt lat="45.92874" lon="4.74014">
        <ele>173.800003052</ele>
        <time>2015-12-22T09:28:12.378Z</time>
      </trkpt>
      <trkpt lat="45.92872" lon="4.74023">
        <ele>173.699996948</ele>
        <time>2015-12-22T09:28:13.399Z</time>
      </trkpt>
      <trkpt lat="45.9287" lon="4.74032">
        <ele>173.600006104</ele>
        <time>2015-12-22T09:28:14.372Z</time>
      </trkpt>
      <trkpt lat="45.92868" lon="4.7404">
        <ele>173.199996948</ele>
        <time>2015-12-22T09:28:15.394Z</time>
      </trkpt>
      <trkpt lat="45.92864" lon="4.74047">
        <ele>172.899993896</ele>
        <time>2015-12-22T09:28:16.372Z</time>
      </trkpt>
      <trkpt lat="45.92859" lon="4.74054">
        <ele>172.699996948</ele>
        <time>2015-12-22T09:28:17.397Z</time>
      </trkpt>
      <trkpt lat="45.92855" lon="4.7406">
        <ele>173.100006104</ele>
        <time>2015-12-22T09:28:18.373Z</time>
      </trkpt>
      <trkpt lat="45.9285" lon="4.74066">
        <ele>172.800003052</ele>
        <time>2015-12-22T09:28:19.458Z</time>
      </trkpt>
      <trkpt lat="45.92845" lon="4.74072">
        <ele>172.600006104</ele>
        <time>2015-12-22T09:28:20.372Z</time>
      </trkpt>
      <trkpt lat="45.9284" lon="4.74079">
        <ele>172.199996948</ele>
        <time>2015-12-22T09:28:21.392Z</time>
      </trkpt>
      <trkpt lat="45.92835" lon="4.74085">
        <ele>171.899993896</ele>
        <time>2015-12-22T09:28:22.372Z</time>
      </trkpt>
      <trkpt lat="45.9283" lon="4.74091">
        <ele>171.399993896</ele>
        <time>2015-12-22T09:28:23.391Z</time>
      </trkpt>
      <trkpt lat="45.92825" lon="4.74097">
        <ele>171</ele>
        <time>2015-12-22T09:28:24.372Z</time>
      </trkpt>
      <trkpt lat="45.9282" lon="4.74103">
        <ele>170.5</ele>
        <time>2015-12-22T09:28:25.396Z</time>
      </trkpt>
      <trkpt lat="45.92814" lon="4.7411">
        <ele>170.199996948</ele>
        <time>2015-12-22T09:28:26.41Z</time>
      </trkpt>
      <trkpt lat="45.92809" lon="4.74116">
        <ele>170</ele>
        <time>2015-12-22T09:28:27.395Z</time>
      </trkpt>
      <trkpt lat="45.92804" lon="4.74122">
        <ele>169.600006104</ele>
        <time>2015-12-22T09:28:28.372Z</time>
      </trkpt>
      <trkpt lat="45.92798" lon="4.74128">
        <ele>169.199996948</ele>
        <time>2015-12-22T09:28:29.397Z</time>
      </trkpt>
      <trkpt lat="45.92793" lon="4.74133">
        <ele>169</ele>
        <time>2015-12-22T09:28:30.373Z</time>
      </trkpt>
      <trkpt lat="45.92788" lon="4.74139">
        <ele>168.800003052</ele>
        <time>2015-12-22T09:28:31.397Z</time>
      </trkpt>
      <trkpt lat="45.92782" lon="4.74144">
        <ele>168.699996948</ele>
        <time>2015-12-22T09:28:32.428Z</time>
      </trkpt>
      <trkpt lat="45.92777" lon="4.7415">
        <ele>168.600006104</ele>
        <time>2015-12-22T09:28:33.392Z</time>
      </trkpt>
      <trkpt lat="45.92772" lon="4.74156">
        <ele>168.600006104</ele>
        <time>2015-12-22T09:28:34.373Z</time>
      </trkpt>
      <trkpt lat="45.92766" lon="4.74161">
        <ele>168.5</ele>
        <time>2015-12-22T09:28:35.406Z</time>
      </trkpt>
      <trkpt lat="45.92761" lon="4.74167">
        <ele>168.5</ele>
        <time>2015-12-22T09:28:36.384Z</time>
      </trkpt>
      <trkpt lat="45.92756" lon="4.74173">
        <ele>168.399993896</ele>
        <time>2015-12-22T09:28:37.398Z</time>
      </trkpt>
      <trkpt lat="45.92751" lon="4.74178">
        <ele>168.399993896</ele>
        <time>2015-12-22T09:28:38.375Z</time>
      </trkpt>
      <trkpt lat="45.92745" lon="4.74184">
        <ele>168.300003052</ele>
        <time>2015-12-22T09:28:39.447Z</time>
      </trkpt>
      <trkpt lat="45.92741" lon="4.7419">
        <ele>168.399993896</ele>
        <time>2015-12-22T09:28:40.373Z</time>
      </trkpt>
      <trkpt lat="45.92736" lon="4.74197">
        <ele>168.399993896</ele>
        <time>2015-12-22T09:28:41.393Z</time>
      </trkpt>
      <trkpt lat="45.92731" lon="4.74203">
        <ele>168.5</ele>
        <time>2015-12-22T09:28:42.372Z</time>
      </trkpt>
      <trkpt lat="45.92727" lon="4.74209">
        <ele>168.5</ele>
        <time>2015-12-22T09:28:43.396Z</time>
      </trkpt>
      <trkpt lat="45.92722" lon="4.74216">
        <ele>168.600006104</ele>
        <time>2015-12-22T09:28:44.372Z</time>
      </trkpt>
      <trkpt lat="45.92718" lon="4.74222">
        <ele>168.600006104</ele>
        <time>2015-12-22T09:28:45.424Z</time>
      </trkpt>
      <trkpt lat="45.92714" lon="4.74229">
        <ele>168.699996948</ele>
        <time>2015-12-22T09:28:46.389Z</time>
      </trkpt>
      <trkpt lat="45.92709" lon="4.74235">
        <ele>168.800003052</ele>
        <time>2015-12-22T09:28:47.391Z</time>
      </trkpt>
      <trkpt lat="45.92705" lon="4.74242">
        <ele>168.800003052</ele>
        <time>2015-12-22T09:28:48.371Z</time>
      </trkpt>
      <trkpt lat="45.927" lon="4.74249">
        <ele>168.699996948</ele>
        <time>2015-12-22T09:28:49.397Z</time>
      </trkpt>
      <trkpt lat="45.92696" lon="4.74256">
        <ele>168.699996948</ele>
        <time>2015-12-22T09:28:50.417Z</time>
      </trkpt>
      <trkpt lat="45.92692" lon="4.74264">
        <ele>168.699996948</ele>
        <time>2015-12-22T09:28:51.392Z</time>
      </trkpt>
      <trkpt lat="45.92687" lon="4.74271">
        <ele>168.600006104</ele>
        <time>2015-12-22T09:28:52.372Z</time>
      </trkpt>
      <trkpt lat="45.92683" lon="4.74278">
        <ele>168.600006104</ele>
        <time>2015-12-22T09:28:53.391Z</time>
      </trkpt>
      <trkpt lat="45.92679" lon="4.74285">
        <ele>168.800003052</ele>
        <time>2015-12-22T09:28:54.372Z</time>
      </trkpt>
      <trkpt lat="45.92675" lon="4.74293">
        <ele>168.699996948</ele>
        <time>2015-12-22T09:28:55.402Z</time>
      </trkpt>
      <trkpt lat="45.92671" lon="4.743">
        <ele>168.600006104</ele>
        <time>2015-12-22T09:28:56.416Z</time>
      </trkpt>
      <trkpt lat="45.92667" lon="4.74307">
        <ele>168.5</ele>
        <time>2015-12-22T09:28:57.392Z</time>
      </trkpt>
      <trkpt lat="45.92662" lon="4.74314">
        <ele>168.5</ele>
        <time>2015-12-22T09:28:58.372Z</time>
      </trkpt>
      <trkpt lat="45.92658" lon="4.74321">
        <ele>168.5</ele>
        <time>2015-12-22T09:28:59.392Z</time>
      </trkpt>
      <trkpt lat="45.92654" lon="4.74329">
        <ele>168.5</ele>
        <time>2015-12-22T09:29:00.419Z</time>
      </trkpt>
      <trkpt lat="45.9265" lon="4.74337">
        <ele>168.5</ele>
        <time>2015-12-22T09:29:01.395Z</time>
      </trkpt>
      <trkpt lat="45.92646" lon="4.74345">
        <ele>168.199996948</ele>
        <time>2015-12-22T09:29:02.372Z</time>
      </trkpt>
      <trkpt lat="45.92642" lon="4.74352">
        <ele>168.199996948</ele>
        <time>2015-12-22T09:29:03.397Z</time>
      </trkpt>
      <trkpt lat="45.92638" lon="4.7436">
        <ele>168.100006104</ele>
        <time>2015-12-22T09:29:04.375Z</time>
      </trkpt>
      <trkpt lat="45.92634" lon="4.74368">
        <ele>168.100006104</ele>
        <time>2015-12-22T09:29:05.393Z</time>
      </trkpt>
      <trkpt lat="45.92629" lon="4.74376">
        <ele>168</ele>
        <time>2015-12-22T09:29:06.373Z</time>
      </trkpt>
      <trkpt lat="45.92625" lon="4.74384">
        <ele>168</ele>
        <time>2015-12-22T09:29:07.422Z</time>
      </trkpt>
      <trkpt lat="45.92621" lon="4.74392">
        <ele>167.899993896</ele>
        <time>2015-12-22T09:29:08.371Z</time>
      </trkpt>
      <trkpt lat="45.92616" lon="4.74399">
        <ele>167.899993896</ele>
        <time>2015-12-22T09:29:09.39Z</time>
      </trkpt>
      <trkpt lat="45.92612" lon="4.74407">
        <ele>167.800003052</ele>
        <time>2015-12-22T09:29:10.371Z</time>
      </trkpt>
      <trkpt lat="45.92608" lon="4.74414">
        <ele>167.899993896</ele>
        <time>2015-12-22T09:29:11.393Z</time>
      </trkpt>
      <trkpt lat="45.92604" lon="4.74422">
        <ele>167.800003052</ele>
        <time>2015-12-22T09:29:12.372Z</time>
      </trkpt>
      <trkpt lat="45.926" lon="4.74429">
        <ele>167.699996948</ele>
        <time>2015-12-22T09:29:13.395Z</time>
      </trkpt>
      <trkpt lat="45.92596" lon="4.74437">
        <ele>167.699996948</ele>
        <time>2015-12-22T09:29:14.371Z</time>
      </trkpt>
      <trkpt lat="45.92592" lon="4.74444">
        <ele>167.699996948</ele>
        <time>2015-12-22T09:29:15.393Z</time>
      </trkpt>
      <trkpt lat="45.92587" lon="4.74452">
        <ele>167.699996948</ele>
        <time>2015-12-22T09:29:16.372Z</time>
      </trkpt>
      <trkpt lat="45.92583" lon="4.74459">
        <ele>167.800003052</ele>
        <time>2015-12-22T09:29:17.39Z</time>
      </trkpt>
      <trkpt lat="45.92579" lon="4.74466">
        <ele>167.899993896</ele>
        <time>2015-12-22T09:29:18.372Z</time>
      </trkpt>
      <trkpt lat="45.92575" lon="4.74474">
        <ele>168</ele>
        <time>2015-12-22T09:29:19.397Z</time>
      </trkpt>
      <trkpt lat="45.92571" lon="4.74481">
        <ele>168.100006104</ele>
        <time>2015-12-22T09:29:20.428Z</time>
      </trkpt>
      <trkpt lat="45.92566" lon="4.74489">
        <ele>168.100006104</ele>
        <time>2015-12-22T09:29:21.394Z</time>
      </trkpt>
      <trkpt lat="45.92562" lon="4.74497">
        <ele>168.199996948</ele>
        <time>2015-12-22T09:29:22.371Z</time>
      </trkpt>
      <trkpt lat="45.92558" lon="4.74504">
        <ele>168</ele>
        <time>2015-12-22T09:29:23.406Z</time>
      </trkpt>
      <trkpt lat="45.92554" lon="4.74512">
        <ele>168</ele>
        <time>2015-12-22T09:29:24.372Z</time>
      </trkpt>
      <trkpt lat="45.9255" lon="4.7452">
        <ele>167.899993896</ele>
        <time>2015-12-22T09:29:25.394Z</time>
      </trkpt>
      <trkpt lat="45.92545" lon="4.74528">
        <ele>168</ele>
        <time>2015-12-22T09:29:26.371Z</time>
      </trkpt>
      <trkpt lat="45.92541" lon="4.74536">
        <ele>167.899993896</ele>
        <time>2015-12-22T09:29:27.391Z</time>
      </trkpt>
      <trkpt lat="45.92536" lon="4.74543">
        <ele>167.899993896</ele>
        <time>2015-12-22T09:29:28.388Z</time>
      </trkpt>
      <trkpt lat="45.92532" lon="4.74551">
        <ele>167.800003052</ele>
        <time>2015-12-22T09:29:29.392Z</time>
      </trkpt>
      <trkpt lat="45.92526" lon="4.74558">
        <ele>167.899993896</ele>
        <time>2015-12-22T09:29:30.376Z</time>
      </trkpt>
      <trkpt lat="45.92521" lon="4.74565">
        <ele>167.899993896</ele>
        <time>2015-12-22T09:29:31.395Z</time>
      </trkpt>
      <trkpt lat="45.92516" lon="4.74572">
        <ele>167.899993896</ele>
        <time>2015-12-22T09:29:32.371Z</time>
      </trkpt>
      <trkpt lat="45.92511" lon="4.74578">
        <ele>167.899993896</ele>
        <time>2015-12-22T09:29:33.4Z</time>
      </trkpt>
      <trkpt lat="45.92505" lon="4.74584">
        <ele>168</ele>
        <time>2015-12-22T09:29:34.373Z</time>
      </trkpt>
      <trkpt lat="45.925" lon="4.7459">
        <ele>168.100006104</ele>
        <time>2015-12-22T09:29:35.39Z</time>
      </trkpt>
      <trkpt lat="45.92494" lon="4.74597">
        <ele>168.100006104</ele>
        <time>2015-12-22T09:29:36.373Z</time>
      </trkpt>
      <trkpt lat="45.92489" lon="4.74603">
        <ele>168.300003052</ele>
        <time>2015-12-22T09:29:37.397Z</time>
      </trkpt>
      <trkpt lat="45.92484" lon="4.74609">
        <ele>168.199996948</ele>
        <time>2015-12-22T09:29:38.371Z</time>
      </trkpt>
      <trkpt lat="45.92479" lon="4.74616">
        <ele>168.199996948</ele>
        <time>2015-12-22T09:29:39.391Z</time>
      </trkpt>
      <trkpt lat="45.92474" lon="4.74623">
        <ele>168.199996948</ele>
        <time>2015-12-22T09:29:40.371Z</time>
      </trkpt>
      <trkpt lat="45.92469" lon="4.7463">
        <ele>168.300003052</ele>
        <time>2015-12-22T09:29:41.393Z</time>
      </trkpt>
      <trkpt lat="45.92465" lon="4.74638">
        <ele>168.399993896</ele>
        <time>2015-12-22T09:29:42.455Z</time>
      </trkpt>
      <trkpt lat="45.9246" lon="4.74645">
        <ele>168.399993896</ele>
        <time>2015-12-22T09:29:43.409Z</time>
      </trkpt>
      <trkpt lat="45.92456" lon="4.74652">
        <ele>168.5</ele>
        <time>2015-12-22T09:29:44.374Z</time>
      </trkpt>
      <trkpt lat="45.92452" lon="4.74659">
        <ele>168.5</ele>
        <time>2015-12-22T09:29:45.394Z</time>
      </trkpt>
      <trkpt lat="45.92448" lon="4.74667">
        <ele>168.600006104</ele>
        <time>2015-12-22T09:29:46.378Z</time>
      </trkpt>
      <trkpt lat="45.92443" lon="4.74674">
        <ele>168.699996948</ele>
        <time>2015-12-22T09:29:47.393Z</time>
      </trkpt>
      <trkpt lat="45.9244" lon="4.74682">
        <ele>168.899993896</ele>
        <time>2015-12-22T09:29:48.374Z</time>
      </trkpt>
      <trkpt lat="45.92436" lon="4.74691">
        <ele>168.899993896</ele>
        <time>2015-12-22T09:29:49.443Z</time>
      </trkpt>
      <trkpt lat="45.92432" lon="4.747">
        <ele>169.100006104</ele>
        <time>2015-12-22T09:29:50.371Z</time>
      </trkpt>
      <trkpt lat="45.92428" lon="4.74709">
        <ele>169.300003052</ele>
        <time>2015-12-22T09:29:51.393Z</time>
      </trkpt>
      <trkpt lat="45.92425" lon="4.74718">
        <ele>169.100006104</ele>
        <time>2015-12-22T09:29:52.37Z</time>
      </trkpt>
      <trkpt lat="45.92422" lon="4.74728">
        <ele>169.100006104</ele>
        <time>2015-12-22T09:29:53.39Z</time>
      </trkpt>
      <trkpt lat="45.92419" lon="4.74737">
        <ele>169.100006104</ele>
        <time>2015-12-22T09:29:54.37Z</time>
      </trkpt>
      <trkpt lat="45.92416" lon="4.74747">
        <ele>169.199996948</ele>
        <time>2015-12-22T09:29:55.395Z</time>
      </trkpt>
      <trkpt lat="45.92413" lon="4.74756">
        <ele>169.199996948</ele>
        <time>2015-12-22T09:29:56.376Z</time>
      </trkpt>
      <trkpt lat="45.92411" lon="4.74766">
        <ele>169</ele>
        <time>2015-12-22T09:29:57.391Z</time>
      </trkpt>
      <trkpt lat="45.92409" lon="4.74776">
        <ele>169.199996948</ele>
        <time>2015-12-22T09:29:58.37Z</time>
      </trkpt>
      <trkpt lat="45.92407" lon="4.74786">
        <ele>169.100006104</ele>
        <time>2015-12-22T09:29:59.389Z</time>
      </trkpt>
      <trkpt lat="45.92404" lon="4.74796">
        <ele>169.100006104</ele>
        <time>2015-12-22T09:30:00.371Z</time>
      </trkpt>
      <trkpt lat="45.92403" lon="4.74806">
        <ele>169.100006104</ele>
        <time>2015-12-22T09:30:01.394Z</time>
      </trkpt>
      <trkpt lat="45.92401" lon="4.74816">
        <ele>169.100006104</ele>
        <time>2015-12-22T09:30:02.371Z</time>
      </trkpt>
      <trkpt lat="45.92399" lon="4.74826">
        <ele>169.100006104</ele>
        <time>2015-12-22T09:30:03.39Z</time>
      </trkpt>
      <trkpt lat="45.92396" lon="4.74836">
        <ele>169.199996948</ele>
        <time>2015-12-22T09:30:04.371Z</time>
      </trkpt>
      <trkpt lat="45.92393" lon="4.74846">
        <ele>169.199996948</ele>
        <time>2015-12-22T09:30:05.391Z</time>
      </trkpt>
      <trkpt lat="45.9239" lon="4.74856">
        <ele>168.5</ele>
        <time>2015-12-22T09:30:06.371Z</time>
      </trkpt>
      <trkpt lat="45.92387" lon="4.74865">
        <ele>168.300003052</ele>
        <time>2015-12-22T09:30:07.394Z</time>
      </trkpt>
      <trkpt lat="45.92384" lon="4.74875">
        <ele>168</ele>
        <time>2015-12-22T09:30:08.372Z</time>
      </trkpt>
      <trkpt lat="45.9238" lon="4.74884">
        <ele>167.800003052</ele>
        <time>2015-12-22T09:30:09.393Z</time>
      </trkpt>
      <trkpt lat="45.92377" lon="4.74893">
        <ele>167.600006104</ele>
        <time>2015-12-22T09:30:10.388Z</time>
      </trkpt>
      <trkpt lat="45.92374" lon="4.74902">
        <ele>167.300003052</ele>
        <time>2015-12-22T09:30:11.396Z</time>
      </trkpt>
      <trkpt lat="45.9237" lon="4.7491">
        <ele>167.199996948</ele>
        <time>2015-12-22T09:30:12.371Z</time>
      </trkpt>
      <trkpt lat="45.92367" lon="4.74919">
        <ele>167.199996948</ele>
        <time>2015-12-22T09:30:13.394Z</time>
      </trkpt>
      <trkpt lat="45.92364" lon="4.74927">
        <ele>167.100006104</ele>
        <time>2015-12-22T09:30:14.371Z</time>
      </trkpt>
      <trkpt lat="45.92361" lon="4.74935">
        <ele>167.100006104</ele>
        <time>2015-12-22T09:30:15.391Z</time>
      </trkpt>
      <trkpt lat="45.92358" lon="4.74943">
        <ele>167</ele>
        <time>2015-12-22T09:30:16.394Z</time>
      </trkpt>
      <trkpt lat="45.92354" lon="4.74951">
        <ele>167.100006104</ele>
        <time>2015-12-22T09:30:17.39Z</time>
      </trkpt>
      <trkpt lat="45.92351" lon="4.74959">
        <ele>167.100006104</ele>
        <time>2015-12-22T09:30:18.373Z</time>
      </trkpt>
      <trkpt lat="45.92348" lon="4.74967">
        <ele>167.199996948</ele>
        <time>2015-12-22T09:30:19.401Z</time>
      </trkpt>
      <trkpt lat="45.92344" lon="4.74976">
        <ele>167.5</ele>
        <time>2015-12-22T09:30:20.372Z</time>
      </trkpt>
      <trkpt lat="45.92341" lon="4.74984">
        <ele>167.699996948</ele>
        <time>2015-12-22T09:30:21.396Z</time>
      </trkpt>
      <trkpt lat="45.92338" lon="4.74992">
        <ele>167.600006104</ele>
        <time>2015-12-22T09:30:22.376Z</time>
      </trkpt>
      <trkpt lat="45.92334" lon="4.75001">
        <ele>167.899993896</ele>
        <time>2015-12-22T09:30:23.391Z</time>
      </trkpt>
      <trkpt lat="45.92331" lon="4.75009">
        <ele>168</ele>
        <time>2015-12-22T09:30:24.371Z</time>
      </trkpt>
      <trkpt lat="45.92327" lon="4.75017">
        <ele>167.600006104</ele>
        <time>2015-12-22T09:30:25.394Z</time>
      </trkpt>
      <trkpt lat="45.92323" lon="4.75026">
        <ele>167.600006104</ele>
        <time>2015-12-22T09:30:26.371Z</time>
      </trkpt>
      <trkpt lat="45.92319" lon="4.75033">
        <ele>167.5</ele>
        <time>2015-12-22T09:30:27.445Z</time>
      </trkpt>
      <trkpt lat="45.92315" lon="4.75041">
        <ele>167.600006104</ele>
        <time>2015-12-22T09:30:28.372Z</time>
      </trkpt>
      <trkpt lat="45.9231" lon="4.75048">
        <ele>167.800003052</ele>
        <time>2015-12-22T09:30:29.391Z</time>
      </trkpt>
      <trkpt lat="45.92305" lon="4.75055">
        <ele>168</ele>
        <time>2015-12-22T09:30:30.372Z</time>
      </trkpt>
      <trkpt lat="45.923" lon="4.75062">
        <ele>168.100006104</ele>
        <time>2015-12-22T09:30:31.395Z</time>
      </trkpt>
      <trkpt lat="45.92295" lon="4.75068">
        <ele>168.100006104</ele>
        <time>2015-12-22T09:30:32.37Z</time>
      </trkpt>
      <trkpt lat="45.9229" lon="4.75074">
        <ele>168.100006104</ele>
        <time>2015-12-22T09:30:33.389Z</time>
      </trkpt>
      <trkpt lat="45.92285" lon="4.7508">
        <ele>168</ele>
        <time>2015-12-22T09:30:34.37Z</time>
      </trkpt>
      <trkpt lat="45.92279" lon="4.75086">
        <ele>167.600006104</ele>
        <time>2015-12-22T09:30:35.39Z</time>
      </trkpt>
      <trkpt lat="45.92274" lon="4.75091">
        <ele>167.300003052</ele>
        <time>2015-12-22T09:30:36.371Z</time>
      </trkpt>
      <trkpt lat="45.92269" lon="4.75097">
        <ele>167.300003052</ele>
        <time>2015-12-22T09:30:37.41Z</time>
      </trkpt>
      <trkpt lat="45.92263" lon="4.75103">
        <ele>167.300003052</ele>
        <time>2015-12-22T09:30:38.371Z</time>
      </trkpt>
      <trkpt lat="45.92258" lon="4.75108">
        <ele>167.199996948</ele>
        <time>2015-12-22T09:30:39.39Z</time>
      </trkpt>
      <trkpt lat="45.92253" lon="4.75114">
        <ele>167.199996948</ele>
        <time>2015-12-22T09:30:40.37Z</time>
      </trkpt>
      <trkpt lat="45.92248" lon="4.7512">
        <ele>167.199996948</ele>
        <time>2015-12-22T09:30:41.405Z</time>
      </trkpt>
      <trkpt lat="45.92243" lon="4.75126">
        <ele>167.399993896</ele>
        <time>2015-12-22T09:30:42.37Z</time>
      </trkpt>
      <trkpt lat="45.92238" lon="4.75133">
        <ele>167.5</ele>
        <time>2015-12-22T09:30:43.393Z</time>
      </trkpt>
      <trkpt lat="45.92234" lon="4.75139">
        <ele>167.600006104</ele>
        <time>2015-12-22T09:30:44.427Z</time>
      </trkpt>
      <trkpt lat="45.9223" lon="4.75146">
        <ele>167.699996948</ele>
        <time>2015-12-22T09:30:45.392Z</time>
      </trkpt>
      <trkpt lat="45.92226" lon="4.75153">
        <ele>167.899993896</ele>
        <time>2015-12-22T09:30:46.372Z</time>
      </trkpt>
      <trkpt lat="45.92222" lon="4.75161">
        <ele>168.199996948</ele>
        <time>2015-12-22T09:30:47.391Z</time>
      </trkpt>
      <trkpt lat="45.92219" lon="4.75168">
        <ele>168.399993896</ele>
        <time>2015-12-22T09:30:48.375Z</time>
      </trkpt>
      <trkpt lat="45.92217" lon="4.75177">
        <ele>168.300003052</ele>
        <time>2015-12-22T09:30:49.398Z</time>
      </trkpt>
      <trkpt lat="45.92215" lon="4.75185">
        <ele>168.699996948</ele>
        <time>2015-12-22T09:30:50.371Z</time>
      </trkpt>
      <trkpt lat="45.92212" lon="4.75193">
        <ele>168.899993896</ele>
        <time>2015-12-22T09:30:51.391Z</time>
      </trkpt>
      <trkpt lat="45.92211" lon="4.75202">
        <ele>169.300003052</ele>
        <time>2015-12-22T09:30:52.371Z</time>
      </trkpt>
      <trkpt lat="45.9221" lon="4.7521">
        <ele>169.399993896</ele>
        <time>2015-12-22T09:30:53.391Z</time>
      </trkpt>
      <trkpt lat="45.92209" lon="4.75219">
        <ele>169.600006104</ele>
        <time>2015-12-22T09:30:54.37Z</time>
      </trkpt>
      <trkpt lat="45.92208" lon="4.75228">
        <ele>169.800003052</ele>
        <time>2015-12-22T09:30:55.395Z</time>
      </trkpt>
      <trkpt lat="45.92207" lon="4.75237">
        <ele>170</ele>
        <time>2015-12-22T09:30:56.371Z</time>
      </trkpt>
      <trkpt lat="45.92207" lon="4.75245">
        <ele>170.300003052</ele>
        <time>2015-12-22T09:30:57.392Z</time>
      </trkpt>
      <trkpt lat="45.92207" lon="4.75254">
        <ele>170.5</ele>
        <time>2015-12-22T09:30:58.373Z</time>
      </trkpt>
      <trkpt lat="45.92207" lon="4.75263">
        <ele>170.600006104</ele>
        <time>2015-12-22T09:30:59.393Z</time>
      </trkpt>
      <trkpt lat="45.92206" lon="4.75271">
        <ele>170.699996948</ele>
        <time>2015-12-22T09:31:00.371Z</time>
      </trkpt>
      <trkpt lat="45.92206" lon="4.7528">
        <ele>170.5</ele>
        <time>2015-12-22T09:31:01.416Z</time>
      </trkpt>
      <trkpt lat="45.92206" lon="4.75288">
        <ele>170.5</ele>
        <time>2015-12-22T09:31:02.37Z</time>
      </trkpt>
      <trkpt lat="45.92205" lon="4.75297">
        <ele>170.399993896</ele>
        <time>2015-12-22T09:31:03.393Z</time>
      </trkpt>
      <trkpt lat="45.92205" lon="4.75306">
        <ele>170.300003052</ele>
        <time>2015-12-22T09:31:04.371Z</time>
      </trkpt>
      <trkpt lat="45.92205" lon="4.75315">
        <ele>170.199996948</ele>
        <time>2015-12-22T09:31:05.389Z</time>
      </trkpt>
      <trkpt lat="45.92205" lon="4.75323">
        <ele>170.399993896</ele>
        <time>2015-12-22T09:31:06.423Z</time>
      </trkpt>
      <trkpt lat="45.92203" lon="4.75331">
        <ele>170.600006104</ele>
        <time>2015-12-22T09:31:07.466Z</time>
      </trkpt>
      <trkpt lat="45.92201" lon="4.75339">
        <ele>170.899993896</ele>
        <time>2015-12-22T09:31:08.37Z</time>
      </trkpt>
      <trkpt lat="45.92199" lon="4.75348">
        <ele>171</ele>
        <time>2015-12-22T09:31:09.445Z</time>
      </trkpt>
      <trkpt lat="45.92197" lon="4.75356">
        <ele>171</ele>
        <time>2015-12-22T09:31:10.37Z</time>
      </trkpt>
      <trkpt lat="45.92195" lon="4.75363">
        <ele>171</ele>
        <time>2015-12-22T09:31:11.39Z</time>
      </trkpt>
      <trkpt lat="45.92192" lon="4.75371">
        <ele>171.199996948</ele>
        <time>2015-12-22T09:31:12.37Z</time>
      </trkpt>
      <trkpt lat="45.92189" lon="4.75378">
        <ele>171.199996948</ele>
        <time>2015-12-22T09:31:13.393Z</time>
      </trkpt>
      <trkpt lat="45.92186" lon="4.75386">
        <ele>171.399993896</ele>
        <time>2015-12-22T09:31:14.37Z</time>
      </trkpt>
      <trkpt lat="45.92183" lon="4.75395">
        <ele>171.5</ele>
        <time>2015-12-22T09:31:15.448Z</time>
      </trkpt>
      <trkpt lat="45.92181" lon="4.75403">
        <ele>171.600006104</ele>
        <time>2015-12-22T09:31:16.384Z</time>
      </trkpt>
      <trkpt lat="45.92179" lon="4.75412">
        <ele>171.699996948</ele>
        <time>2015-12-22T09:31:17.402Z</time>
      </trkpt>
      <trkpt lat="45.92175" lon="4.75419">
        <ele>172.100006104</ele>
        <time>2015-12-22T09:31:18.379Z</time>
      </trkpt>
      <trkpt lat="45.92172" lon="4.75427">
        <ele>172.5</ele>
        <time>2015-12-22T09:31:19.416Z</time>
      </trkpt>
      <trkpt lat="45.92169" lon="4.75435">
        <ele>172.800003052</ele>
        <time>2015-12-22T09:31:20.374Z</time>
      </trkpt>
      <trkpt lat="45.92166" lon="4.75443">
        <ele>173.399993896</ele>
        <time>2015-12-22T09:31:21.399Z</time>
      </trkpt>
      <trkpt lat="45.92163" lon="4.75451">
        <ele>173.100006104</ele>
        <time>2015-12-22T09:31:22.377Z</time>
      </trkpt>
      <trkpt lat="45.92159" lon="4.7546">
        <ele>173.100006104</ele>
        <time>2015-12-22T09:31:23.4Z</time>
      </trkpt>
      <trkpt lat="45.92156" lon="4.75468">
        <ele>173</ele>
        <time>2015-12-22T09:31:24.378Z</time>
      </trkpt>
      <trkpt lat="45.92152" lon="4.75477">
        <ele>172.899993896</ele>
        <time>2015-12-22T09:31:25.403Z</time>
      </trkpt>
      <trkpt lat="45.92148" lon="4.75485">
        <ele>172.800003052</ele>
        <time>2015-12-22T09:31:26.374Z</time>
      </trkpt>
      <trkpt lat="45.92145" lon="4.75494">
        <ele>173</ele>
        <time>2015-12-22T09:31:27.394Z</time>
      </trkpt>
      <trkpt lat="45.92141" lon="4.75502">
        <ele>173</ele>
        <time>2015-12-22T09:31:28.392Z</time>
      </trkpt>
      <trkpt lat="45.92137" lon="4.7551">
        <ele>173</ele>
        <time>2015-12-22T09:31:29.404Z</time>
      </trkpt>
      <trkpt lat="45.92133" lon="4.75517">
        <ele>172.899993896</ele>
        <time>2015-12-22T09:31:30.373Z</time>
      </trkpt>
      <trkpt lat="45.92129" lon="4.75524">
        <ele>172.899993896</ele>
        <time>2015-12-22T09:31:31.485Z</time>
      </trkpt>
      <trkpt lat="45.92125" lon="4.75531">
        <ele>172.699996948</ele>
        <time>2015-12-22T09:31:32.373Z</time>
      </trkpt>
      <trkpt lat="45.92121" lon="4.75539">
        <ele>172.800003052</ele>
        <time>2015-12-22T09:31:33.395Z</time>
      </trkpt>
      <trkpt lat="45.92117" lon="4.75545">
        <ele>172.800003052</ele>
        <time>2015-12-22T09:31:34.374Z</time>
      </trkpt>
      <trkpt lat="45.92114" lon="4.75552">
        <ele>173.199996948</ele>
        <time>2015-12-22T09:31:35.392Z</time>
      </trkpt>
      <trkpt lat="45.92111" lon="4.75559">
        <ele>173.399993896</ele>
        <time>2015-12-22T09:31:36.407Z</time>
      </trkpt>
      <trkpt lat="45.92109" lon="4.75567">
        <ele>173.699996948</ele>
        <time>2015-12-22T09:31:37.398Z</time>
      </trkpt>
      <trkpt lat="45.92108" lon="4.75575">
        <ele>173.600006104</ele>
        <time>2015-12-22T09:31:38.372Z</time>
      </trkpt>
      <trkpt lat="45.92109" lon="4.75583">
        <ele>173.699996948</ele>
        <time>2015-12-22T09:31:39.394Z</time>
      </trkpt>
      <trkpt lat="45.92113" lon="4.75589">
        <ele>174.100006104</ele>
        <time>2015-12-22T09:31:40.373Z</time>
      </trkpt>
      <trkpt lat="45.92118" lon="4.75594">
        <ele>174.5</ele>
        <time>2015-12-22T09:31:41.397Z</time>
      </trkpt>
      <trkpt lat="45.92123" lon="4.75599">
        <ele>173.800003052</ele>
        <time>2015-12-22T09:31:42.373Z</time>
      </trkpt>
      <trkpt lat="45.92129" lon="4.75604">
        <ele>172.600006104</ele>
        <time>2015-12-22T09:31:43.395Z</time>
      </trkpt>
      <trkpt lat="45.92134" lon="4.75609">
        <ele>172.199996948</ele>
        <time>2015-12-22T09:31:44.373Z</time>
      </trkpt>
      <trkpt lat="45.92139" lon="4.75613">
        <ele>172.300003052</ele>
        <time>2015-12-22T09:31:45.394Z</time>
      </trkpt>
      <trkpt lat="45.92144" lon="4.75618">
        <ele>172.199996948</ele>
        <time>2015-12-22T09:31:46.394Z</time>
      </trkpt>
      <trkpt lat="45.92149" lon="4.75623">
        <ele>172.300003052</ele>
        <time>2015-12-22T09:31:47.393Z</time>
      </trkpt>
      <trkpt lat="45.92154" lon="4.75627">
        <ele>172.300003052</ele>
        <time>2015-12-22T09:31:48.372Z</time>
      </trkpt>
      <trkpt lat="45.92159" lon="4.75632">
        <ele>172</ele>
        <time>2015-12-22T09:31:49.417Z</time>
      </trkpt>
      <trkpt lat="45.92164" lon="4.75637">
        <ele>171.899993896</ele>
        <time>2015-12-22T09:31:50.375Z</time>
      </trkpt>
      <trkpt lat="45.92169" lon="4.75642">
        <ele>171.899993896</ele>
        <time>2015-12-22T09:31:51.403Z</time>
      </trkpt>
      <trkpt lat="45.92174" lon="4.75648">
        <ele>172.100006104</ele>
        <time>2015-12-22T09:31:52.373Z</time>
      </trkpt>
      <trkpt lat="45.92179" lon="4.75652">
        <ele>172.100006104</ele>
        <time>2015-12-22T09:31:53.431Z</time>
      </trkpt>
      <trkpt lat="45.92184" lon="4.75657">
        <ele>172.199996948</ele>
        <time>2015-12-22T09:31:54.372Z</time>
      </trkpt>
      <trkpt lat="45.9219" lon="4.75663">
        <ele>172.199996948</ele>
        <time>2015-12-22T09:31:55.398Z</time>
      </trkpt>
      <trkpt lat="45.92195" lon="4.75668">
        <ele>172.300003052</ele>
        <time>2015-12-22T09:31:56.372Z</time>
      </trkpt>
      <trkpt lat="45.922" lon="4.75672">
        <ele>172.300003052</ele>
        <time>2015-12-22T09:31:57.477Z</time>
      </trkpt>
      <trkpt lat="45.92204" lon="4.75677">
        <ele>172.399993896</ele>
        <time>2015-12-22T09:31:58.373Z</time>
      </trkpt>
      <trkpt lat="45.92209" lon="4.75682">
        <ele>173.199996948</ele>
        <time>2015-12-22T09:31:59.395Z</time>
      </trkpt>
      <trkpt lat="45.92215" lon="4.75686">
        <ele>173.699996948</ele>
        <time>2015-12-22T09:32:00.372Z</time>
      </trkpt>
      <trkpt lat="45.92219" lon="4.75691">
        <ele>173.399993896</ele>
        <time>2015-12-22T09:32:01.399Z</time>
      </trkpt>
      <trkpt lat="45.92224" lon="4.75697">
        <ele>173.100006104</ele>
        <time>2015-12-22T09:32:02.372Z</time>
      </trkpt>
      <trkpt lat="45.92229" lon="4.75703">
        <ele>173.100006104</ele>
        <time>2015-12-22T09:32:03.393Z</time>
      </trkpt>
      <trkpt lat="45.92233" lon="4.75709">
        <ele>173.199996948</ele>
        <time>2015-12-22T09:32:04.372Z</time>
      </trkpt>
      <trkpt lat="45.92237" lon="4.75718">
        <ele>172.300003052</ele>
        <time>2015-12-22T09:32:05.392Z</time>
      </trkpt>
      <trkpt lat="45.92241" lon="4.75727">
        <ele>171.899993896</ele>
        <time>2015-12-22T09:32:06.37Z</time>
      </trkpt>
      <trkpt lat="45.92243" lon="4.75735">
        <ele>171.600006104</ele>
        <time>2015-12-22T09:32:07.4Z</time>
      </trkpt>
      <trkpt lat="45.92245" lon="4.75743">
        <ele>171.5</ele>
        <time>2015-12-22T09:32:08.372Z</time>
      </trkpt>
      <trkpt lat="45.92247" lon="4.75751">
        <ele>171.5</ele>
        <time>2015-12-22T09:32:09.393Z</time>
      </trkpt>
      <trkpt lat="45.92248" lon="4.75758">
        <ele>171.600006104</ele>
        <time>2015-12-22T09:32:10.39Z</time>
      </trkpt>
      <trkpt lat="45.9225" lon="4.75767">
        <ele>171.800003052</ele>
        <time>2015-12-22T09:32:11.391Z</time>
      </trkpt>
      <trkpt lat="45.92251" lon="4.75775">
        <ele>171.800003052</ele>
        <time>2015-12-22T09:32:12.37Z</time>
      </trkpt>
      <trkpt lat="45.92252" lon="4.75783">
        <ele>172.199996948</ele>
        <time>2015-12-22T09:32:13.393Z</time>
      </trkpt>
      <trkpt lat="45.92254" lon="4.75791">
        <ele>172.399993896</ele>
        <time>2015-12-22T09:32:14.37Z</time>
      </trkpt>
      <trkpt lat="45.92256" lon="4.75799">
        <ele>172.399993896</ele>
        <time>2015-12-22T09:32:15.443Z</time>
      </trkpt>
      <trkpt lat="45.92259" lon="4.75807">
        <ele>172</ele>
        <time>2015-12-22T09:32:16.375Z</time>
      </trkpt>
      <trkpt lat="45.92263" lon="4.75816">
        <ele>171</ele>
        <time>2015-12-22T09:32:17.396Z</time>
      </trkpt>
      <trkpt lat="45.92268" lon="4.75824">
        <ele>170.300003052</ele>
        <time>2015-12-22T09:32:18.43Z</time>
      </trkpt>
      <trkpt lat="45.92274" lon="4.75831">
        <ele>169.699996948</ele>
        <time>2015-12-22T09:32:19.406Z</time>
      </trkpt>
      <trkpt lat="45.92281" lon="4.75837">
        <ele>168.600006104</ele>
        <time>2015-12-22T09:32:20.374Z</time>
      </trkpt>
      <trkpt lat="45.92287" lon="4.75842">
        <ele>168.399993896</ele>
        <time>2015-12-22T09:32:21.394Z</time>
      </trkpt>
      <trkpt lat="45.92294" lon="4.75847">
        <ele>167.899993896</ele>
        <time>2015-12-22T09:32:22.374Z</time>
      </trkpt>
      <trkpt lat="45.923" lon="4.7585">
        <ele>167.5</ele>
        <time>2015-12-22T09:32:23.391Z</time>
      </trkpt>
      <trkpt lat="45.92307" lon="4.75855">
        <ele>167.199996948</ele>
        <time>2015-12-22T09:32:24.371Z</time>
      </trkpt>
      <trkpt lat="45.92314" lon="4.75859">
        <ele>167.100006104</ele>
        <time>2015-12-22T09:32:25.395Z</time>
      </trkpt>
      <trkpt lat="45.9232" lon="4.75863">
        <ele>166.800003052</ele>
        <time>2015-12-22T09:32:26.372Z</time>
      </trkpt>
      <trkpt lat="45.92327" lon="4.75867">
        <ele>166.5</ele>
        <time>2015-12-22T09:32:27.395Z</time>
      </trkpt>
      <trkpt lat="45.92333" lon="4.75871">
        <ele>166.199996948</ele>
        <time>2015-12-22T09:32:28.372Z</time>
      </trkpt>
      <trkpt lat="45.9234" lon="4.75875">
        <ele>166</ele>
        <time>2015-12-22T09:32:29.391Z</time>
      </trkpt>
      <trkpt lat="45.92346" lon="4.75879">
        <ele>165.699996948</ele>
        <time>2015-12-22T09:32:30.373Z</time>
      </trkpt>
      <trkpt lat="45.92353" lon="4.75884">
        <ele>165</ele>
        <time>2015-12-22T09:32:31.44Z</time>
      </trkpt>
      <trkpt lat="45.92359" lon="4.75889">
        <ele>165</ele>
        <time>2015-12-22T09:32:32.372Z</time>
      </trkpt>
      <trkpt lat="45.92365" lon="4.75892">
        <ele>165</ele>
        <time>2015-12-22T09:32:33.393Z</time>
      </trkpt>
      <trkpt lat="45.92371" lon="4.75896">
        <ele>165</ele>
        <time>2015-12-22T09:32:34.371Z</time>
      </trkpt>
      <trkpt lat="45.92377" lon="4.759">
        <ele>164.899993896</ele>
        <time>2015-12-22T09:32:35.392Z</time>
      </trkpt>
      <trkpt lat="45.92382" lon="4.75903">
        <ele>164.899993896</ele>
        <time>2015-12-22T09:32:36.371Z</time>
      </trkpt>
      <trkpt lat="45.92388" lon="4.75908">
        <ele>164.899993896</ele>
        <time>2015-12-22T09:32:37.438Z</time>
      </trkpt>
      <trkpt lat="45.92394" lon="4.75911">
        <ele>165.100006104</ele>
        <time>2015-12-22T09:32:38.37Z</time>
      </trkpt>
      <trkpt lat="45.92399" lon="4.75916">
        <ele>165.199996948</ele>
        <time>2015-12-22T09:32:39.503Z</time>
      </trkpt>
      <trkpt lat="45.92405" lon="4.7592">
        <ele>165.300003052</ele>
        <time>2015-12-22T09:32:40.37Z</time>
      </trkpt>
      <trkpt lat="45.92411" lon="4.75925">
        <ele>165.300003052</ele>
        <time>2015-12-22T09:32:41.391Z</time>
      </trkpt>
      <trkpt lat="45.92416" lon="4.75929">
        <ele>165.399993896</ele>
        <time>2015-12-22T09:32:42.459Z</time>
      </trkpt>
      <trkpt lat="45.92422" lon="4.75933">
        <ele>165.399993896</ele>
        <time>2015-12-22T09:32:43.397Z</time>
      </trkpt>
      <trkpt lat="45.92428" lon="4.75937">
        <ele>165.300003052</ele>
        <time>2015-12-22T09:32:44.371Z</time>
      </trkpt>
      <trkpt lat="45.92433" lon="4.75941">
        <ele>165.399993896</ele>
        <time>2015-12-22T09:32:45.391Z</time>
      </trkpt>
      <trkpt lat="45.92439" lon="4.75945">
        <ele>165.5</ele>
        <time>2015-12-22T09:32:46.37Z</time>
      </trkpt>
      <trkpt lat="45.92444" lon="4.75949">
        <ele>165.899993896</ele>
        <time>2015-12-22T09:32:47.465Z</time>
      </trkpt>
      <trkpt lat="45.92449" lon="4.75953">
        <ele>166</ele>
        <time>2015-12-22T09:32:48.37Z</time>
      </trkpt>
      <trkpt lat="45.92454" lon="4.75957">
        <ele>166.300003052</ele>
        <time>2015-12-22T09:32:49.397Z</time>
      </trkpt>
      <trkpt lat="45.92459" lon="4.75961">
        <ele>166.899993896</ele>
        <time>2015-12-22T09:32:50.371Z</time>
      </trkpt>
      <trkpt lat="45.92464" lon="4.75965">
        <ele>167.199996948</ele>
        <time>2015-12-22T09:32:51.39Z</time>
      </trkpt>
      <trkpt lat="45.9247" lon="4.75969">
        <ele>167.600006104</ele>
        <time>2015-12-22T09:32:52.385Z</time>
      </trkpt>
      <trkpt lat="45.92475" lon="4.75973">
        <ele>167.899993896</ele>
        <time>2015-12-22T09:32:53.393Z</time>
      </trkpt>
      <trkpt lat="45.9248" lon="4.75976">
        <ele>167.5</ele>
        <time>2015-12-22T09:32:54.37Z</time>
      </trkpt>
      <trkpt lat="45.92485" lon="4.7598">
        <ele>167.600006104</ele>
        <time>2015-12-22T09:32:55.394Z</time>
      </trkpt>
      <trkpt lat="45.9249" lon="4.75984">
        <ele>167.600006104</ele>
        <time>2015-12-22T09:32:56.371Z</time>
      </trkpt>
      <trkpt lat="45.92495" lon="4.75988">
        <ele>167.699996948</ele>
        <time>2015-12-22T09:32:57.391Z</time>
      </trkpt>
      <trkpt lat="45.925" lon="4.75992">
        <ele>167.699996948</ele>
        <time>2015-12-22T09:32:58.372Z</time>
      </trkpt>
      <trkpt lat="45.92505" lon="4.75996">
        <ele>167.600006104</ele>
        <time>2015-12-22T09:32:59.402Z</time>
      </trkpt>
      <trkpt lat="45.9251" lon="4.76">
        <ele>167.800003052</ele>
        <time>2015-12-22T09:33:00.371Z</time>
      </trkpt>
      <trkpt lat="45.92515" lon="4.76004">
        <ele>168</ele>
        <time>2015-12-22T09:33:01.397Z</time>
      </trkpt>
      <trkpt lat="45.92521" lon="4.76007">
        <ele>168.199996948</ele>
        <time>2015-12-22T09:33:02.372Z</time>
      </trkpt>
      <trkpt lat="45.92526" lon="4.76012">
        <ele>168.199996948</ele>
        <time>2015-12-22T09:33:03.391Z</time>
      </trkpt>
      <trkpt lat="45.92532" lon="4.76015">
        <ele>168.199996948</ele>
        <time>2015-12-22T09:33:04.372Z</time>
      </trkpt>
      <trkpt lat="45.92537" lon="4.76019">
        <ele>168.199996948</ele>
        <time>2015-12-22T09:33:05.39Z</time>
      </trkpt>
      <trkpt lat="45.92542" lon="4.76022">
        <ele>168.100006104</ele>
        <time>2015-12-22T09:33:06.37Z</time>
      </trkpt>
      <trkpt lat="45.92547" lon="4.76025">
        <ele>168.300003052</ele>
        <time>2015-12-22T09:33:07.45Z</time>
      </trkpt>
      <trkpt lat="45.92551" lon="4.76029">
        <ele>168.300003052</ele>
        <time>2015-12-22T09:33:08.373Z</time>
      </trkpt>
      <trkpt lat="45.92556" lon="4.76032">
        <ele>168.300003052</ele>
        <time>2015-12-22T09:33:09.413Z</time>
      </trkpt>
      <trkpt lat="45.92561" lon="4.76035">
        <ele>168.399993896</ele>
        <time>2015-12-22T09:33:10.372Z</time>
      </trkpt>
      <trkpt lat="45.92565" lon="4.76038">
        <ele>168.399993896</ele>
        <time>2015-12-22T09:33:11.392Z</time>
      </trkpt>
      <trkpt lat="45.9257" lon="4.76042">
        <ele>168.300003052</ele>
        <time>2015-12-22T09:33:12.37Z</time>
      </trkpt>
      <trkpt lat="45.92575" lon="4.76046">
        <ele>168.300003052</ele>
        <time>2015-12-22T09:33:13.394Z</time>
      </trkpt>
      <trkpt lat="45.92581" lon="4.7605">
        <ele>168.100006104</ele>
        <time>2015-12-22T09:33:14.371Z</time>
      </trkpt>
      <trkpt lat="45.92587" lon="4.76055">
        <ele>167.899993896</ele>
        <time>2015-12-22T09:33:15.391Z</time>
      </trkpt>
      <trkpt lat="45.92593" lon="4.76059">
        <ele>167.600006104</ele>
        <time>2015-12-22T09:33:16.396Z</time>
      </trkpt>
      <trkpt lat="45.92599" lon="4.76064">
        <ele>167.5</ele>
        <time>2015-12-22T09:33:17.391Z</time>
      </trkpt>
      <trkpt lat="45.92605" lon="4.76068">
        <ele>167.300003052</ele>
        <time>2015-12-22T09:33:18.371Z</time>
      </trkpt>
      <trkpt lat="45.92611" lon="4.76073">
        <ele>167.300003052</ele>
        <time>2015-12-22T09:33:19.41Z</time>
      </trkpt>
      <trkpt lat="45.92618" lon="4.76077">
        <ele>167.100006104</ele>
        <time>2015-12-22T09:33:20.401Z</time>
      </trkpt>
      <trkpt lat="45.92624" lon="4.76082">
        <ele>166.899993896</ele>
        <time>2015-12-22T09:33:21.398Z</time>
      </trkpt>
      <trkpt lat="45.92631" lon="4.76086">
        <ele>166.800003052</ele>
        <time>2015-12-22T09:33:22.37Z</time>
      </trkpt>
      <trkpt lat="45.92638" lon="4.76091">
        <ele>166</ele>
        <time>2015-12-22T09:33:23.397Z</time>
      </trkpt>
      <trkpt lat="45.92644" lon="4.76096">
        <ele>165.899993896</ele>
        <time>2015-12-22T09:33:24.371Z</time>
      </trkpt>
      <trkpt lat="45.92652" lon="4.76101">
        <ele>165.5</ele>
        <time>2015-12-22T09:33:25.396Z</time>
      </trkpt>
      <trkpt lat="45.92659" lon="4.76105">
        <ele>165.100006104</ele>
        <time>2015-12-22T09:33:26.37Z</time>
      </trkpt>
      <trkpt lat="45.92666" lon="4.7611">
        <ele>164.699996948</ele>
        <time>2015-12-22T09:33:27.393Z</time>
      </trkpt>
      <trkpt lat="45.92674" lon="4.76115">
        <ele>164.100006104</ele>
        <time>2015-12-22T09:33:28.389Z</time>
      </trkpt>
      <trkpt lat="45.92681" lon="4.7612">
        <ele>163.899993896</ele>
        <time>2015-12-22T09:33:29.391Z</time>
      </trkpt>
      <trkpt lat="45.92689" lon="4.76125">
        <ele>163.5</ele>
        <time>2015-12-22T09:33:30.373Z</time>
      </trkpt>
      <trkpt lat="45.92697" lon="4.7613">
        <ele>163.199996948</ele>
        <time>2015-12-22T09:33:31.395Z</time>
      </trkpt>
      <trkpt lat="45.92704" lon="4.76135">
        <ele>162.800003052</ele>
        <time>2015-12-22T09:33:32.37Z</time>
      </trkpt>
      <trkpt lat="45.92712" lon="4.7614">
        <ele>162.699996948</ele>
        <time>2015-12-22T09:33:33.389Z</time>
      </trkpt>
      <trkpt lat="45.92719" lon="4.76145">
        <ele>162.199996948</ele>
        <time>2015-12-22T09:33:34.373Z</time>
      </trkpt>
      <trkpt lat="45.92727" lon="4.76151">
        <ele>161.899993896</ele>
        <time>2015-12-22T09:33:35.397Z</time>
      </trkpt>
      <trkpt lat="45.92734" lon="4.76156">
        <ele>161.899993896</ele>
        <time>2015-12-22T09:33:36.37Z</time>
      </trkpt>
      <trkpt lat="45.92741" lon="4.76162">
        <ele>161.800003052</ele>
        <time>2015-12-22T09:33:37.397Z</time>
      </trkpt>
      <trkpt lat="45.92748" lon="4.76167">
        <ele>161.699996948</ele>
        <time>2015-12-22T09:33:38.371Z</time>
      </trkpt>
      <trkpt lat="45.92754" lon="4.76172">
        <ele>161.800003052</ele>
        <time>2015-12-22T09:33:39.392Z</time>
      </trkpt>
      <trkpt lat="45.9276" lon="4.76177">
        <ele>162</ele>
        <time>2015-12-22T09:33:40.417Z</time>
      </trkpt>
      <trkpt lat="45.92767" lon="4.76182">
        <ele>162</ele>
        <time>2015-12-22T09:33:41.437Z</time>
      </trkpt>
      <trkpt lat="45.92772" lon="4.76188">
        <ele>162.100006104</ele>
        <time>2015-12-22T09:33:42.366Z</time>
      </trkpt>
      <trkpt lat="45.92778" lon="4.76194">
        <ele>162.100006104</ele>
        <time>2015-12-22T09:33:43.397Z</time>
      </trkpt>
      <trkpt lat="45.92784" lon="4.76199">
        <ele>162.100006104</ele>
        <time>2015-12-22T09:33:44.37Z</time>
      </trkpt>
      <trkpt lat="45.92789" lon="4.76204">
        <ele>162.600006104</ele>
        <time>2015-12-22T09:33:45.391Z</time>
      </trkpt>
      <trkpt lat="45.92794" lon="4.7621">
        <ele>162.899993896</ele>
        <time>2015-12-22T09:33:46.372Z</time>
      </trkpt>
      <trkpt lat="45.928" lon="4.76215">
        <ele>163.300003052</ele>
        <time>2015-12-22T09:33:47.392Z</time>
      </trkpt>
      <trkpt lat="45.92805" lon="4.76221">
        <ele>163.600006104</ele>
        <time>2015-12-22T09:33:48.371Z</time>
      </trkpt>
      <trkpt lat="45.9281" lon="4.76226">
        <ele>164</ele>
        <time>2015-12-22T09:33:49.412Z</time>
      </trkpt>
      <trkpt lat="45.92816" lon="4.76231">
        <ele>164.199996948</ele>
        <time>2015-12-22T09:33:50.37Z</time>
      </trkpt>
      <trkpt lat="45.92822" lon="4.76237">
        <ele>164.100006104</ele>
        <time>2015-12-22T09:33:51.394Z</time>
      </trkpt>
      <trkpt lat="45.92827" lon="4.76242">
        <ele>164.699996948</ele>
        <time>2015-12-22T09:33:52.37Z</time>
      </trkpt>
      <trkpt lat="45.92833" lon="4.76247">
        <ele>164.5</ele>
        <time>2015-12-22T09:33:53.39Z</time>
      </trkpt>
      <trkpt lat="45.92838" lon="4.76252">
        <ele>164.699996948</ele>
        <time>2015-12-22T09:33:54.372Z</time>
      </trkpt>
      <trkpt lat="45.92843" lon="4.76257">
        <ele>164.699996948</ele>
        <time>2015-12-22T09:33:55.395Z</time>
      </trkpt>
      <trkpt lat="45.92848" lon="4.76262">
        <ele>164.800003052</ele>
        <time>2015-12-22T09:33:56.37Z</time>
      </trkpt>
      <trkpt lat="45.92852" lon="4.76266">
        <ele>165</ele>
        <time>2015-12-22T09:33:57.394Z</time>
      </trkpt>
      <trkpt lat="45.92856" lon="4.76271">
        <ele>165.199996948</ele>
        <time>2015-12-22T09:33:58.372Z</time>
      </trkpt>
      <trkpt lat="45.92861" lon="4.76275">
        <ele>165.300003052</ele>
        <time>2015-12-22T09:33:59.389Z</time>
      </trkpt>
      <trkpt lat="45.92865" lon="4.76279">
        <ele>165.5</ele>
        <time>2015-12-22T09:34:00.373Z</time>
      </trkpt>
      <trkpt lat="45.92871" lon="4.76286">
        <ele>166.399993896</ele>
        <time>2015-12-22T09:34:02.392Z</time>
      </trkpt>
      <trkpt lat="45.92873" lon="4.76289">
        <ele>166.199996948</ele>
        <time>2015-12-22T09:34:03.374Z</time>
      </trkpt>
      <trkpt lat="45.92871" lon="4.763">
        <ele>167.600006104</ele>
        <time>2015-12-22T09:34:09.391Z</time>
      </trkpt>
      <trkpt lat="45.9287" lon="4.76301">
        <ele>167.800003052</ele>
        <time>2015-12-22T09:34:10.386Z</time>
      </trkpt>
      <trkpt lat="45.9287" lon="4.76301">
        <ele>167.800003052</ele>
        <time>2015-12-22T09:34:10.42Z</time>
      </trkpt>
      <trkpt lat="45.9287" lon="4.763">
        <ele>167.600006104</ele>
        <time>2015-12-22T09:35:32.39Z</time>
      </trkpt>
      <trkpt lat="45.9287" lon="4.76298">
        <ele>167.5</ele>
        <time>2015-12-22T09:35:33.37Z</time>
      </trkpt>
      <trkpt lat="45.92876" lon="4.76291">
        <ele>167.699996948</ele>
        <time>2015-12-22T09:35:47.391Z</time>
      </trkpt>
      <trkpt lat="45.92877" lon="4.76292">
        <ele>167.699996948</ele>
        <time>2015-12-22T09:35:48.37Z</time>
      </trkpt>
      <trkpt lat="45.92879" lon="4.76294">
        <ele>167.699996948</ele>
        <time>2015-12-22T09:35:49.398Z</time>
      </trkpt>
      <trkpt lat="45.92883" lon="4.76297">
        <ele>167.600006104</ele>
        <time>2015-12-22T09:35:50.37Z</time>
      </trkpt>
      <trkpt lat="45.92888" lon="4.76303">
        <ele>167.699996948</ele>
        <time>2015-12-22T09:35:52.39Z</time>
      </trkpt>
      <trkpt lat="45.92891" lon="4.76306">
        <ele>167.600006104</ele>
        <time>2015-12-22T09:35:53.397Z</time>
      </trkpt>
      <trkpt lat="45.92897" lon="4.76313">
        <ele>167.699996948</ele>
        <time>2015-12-22T09:35:55.414Z</time>
      </trkpt>
      <trkpt lat="45.929" lon="4.76317">
        <ele>167.800003052</ele>
        <time>2015-12-22T09:35:56.37Z</time>
      </trkpt>
      <trkpt lat="45.92905" lon="4.76321">
        <ele>167.899993896</ele>
        <time>2015-12-22T09:35:57.394Z</time>
      </trkpt>
      <trkpt lat="45.92909" lon="4.76324">
        <ele>167.899993896</ele>
        <time>2015-12-22T09:35:58.369Z</time>
      </trkpt>
      <trkpt lat="45.92913" lon="4.76329">
        <ele>168.100006104</ele>
        <time>2015-12-22T09:35:59.389Z</time>
      </trkpt>
      <trkpt lat="45.92918" lon="4.76333">
        <ele>168.100006104</ele>
        <time>2015-12-22T09:36:00.369Z</time>
      </trkpt>
      <trkpt lat="45.92922" lon="4.76338">
        <ele>168</ele>
        <time>2015-12-22T09:36:01.393Z</time>
      </trkpt>
      <trkpt lat="45.92927" lon="4.76342">
        <ele>168.100006104</ele>
        <time>2015-12-22T09:36:02.371Z</time>
      </trkpt>
      <trkpt lat="45.92931" lon="4.76347">
        <ele>168.300003052</ele>
        <time>2015-12-22T09:36:03.39Z</time>
      </trkpt>
      <trkpt lat="45.92936" lon="4.76352">
        <ele>168.399993896</ele>
        <time>2015-12-22T09:36:04.37Z</time>
      </trkpt>
      <trkpt lat="45.9294" lon="4.76357">
        <ele>168.899993896</ele>
        <time>2015-12-22T09:36:05.392Z</time>
      </trkpt>
      <trkpt lat="45.92946" lon="4.76361">
        <ele>168.699996948</ele>
        <time>2015-12-22T09:36:06.371Z</time>
      </trkpt>
      <trkpt lat="45.92951" lon="4.76366">
        <ele>168.399993896</ele>
        <time>2015-12-22T09:36:07.397Z</time>
      </trkpt>
      <trkpt lat="45.92956" lon="4.76371">
        <ele>168.699996948</ele>
        <time>2015-12-22T09:36:08.369Z</time>
      </trkpt>
      <trkpt lat="45.92961" lon="4.76376">
        <ele>168.899993896</ele>
        <time>2015-12-22T09:36:09.401Z</time>
      </trkpt>
      <trkpt lat="45.92966" lon="4.76381">
        <ele>169.300003052</ele>
        <time>2015-12-22T09:36:10.371Z</time>
      </trkpt>
      <trkpt lat="45.92971" lon="4.76385">
        <ele>169.699996948</ele>
        <time>2015-12-22T09:36:11.404Z</time>
      </trkpt>
      <trkpt lat="45.92976" lon="4.7639">
        <ele>169.699996948</ele>
        <time>2015-12-22T09:36:12.369Z</time>
      </trkpt>
      <trkpt lat="45.92981" lon="4.76396">
        <ele>169.899993896</ele>
        <time>2015-12-22T09:36:13.443Z</time>
      </trkpt>
      <trkpt lat="45.92987" lon="4.76401">
        <ele>169.600006104</ele>
        <time>2015-12-22T09:36:14.369Z</time>
      </trkpt>
      <trkpt lat="45.92992" lon="4.76406">
        <ele>169.800003052</ele>
        <time>2015-12-22T09:36:15.391Z</time>
      </trkpt>
      <trkpt lat="45.92997" lon="4.7641">
        <ele>169.800003052</ele>
        <time>2015-12-22T09:36:16.37Z</time>
      </trkpt>
      <trkpt lat="45.93002" lon="4.76415">
        <ele>169.699996948</ele>
        <time>2015-12-22T09:36:17.391Z</time>
      </trkpt>
      <trkpt lat="45.93008" lon="4.76419">
        <ele>168.899993896</ele>
        <time>2015-12-22T09:36:18.369Z</time>
      </trkpt>
      <trkpt lat="45.93012" lon="4.76424">
        <ele>168.800003052</ele>
        <time>2015-12-22T09:36:19.411Z</time>
      </trkpt>
      <trkpt lat="45.93017" lon="4.76428">
        <ele>168.899993896</ele>
        <time>2015-12-22T09:36:20.396Z</time>
      </trkpt>
      <trkpt lat="45.93024" lon="4.76433">
        <ele>168.600006104</ele>
        <time>2015-12-22T09:36:21.389Z</time>
      </trkpt>
      <trkpt lat="45.93029" lon="4.76439">
        <ele>168.5</ele>
        <time>2015-12-22T09:36:22.369Z</time>
      </trkpt>
      <trkpt lat="45.93034" lon="4.76444">
        <ele>168.5</ele>
        <time>2015-12-22T09:36:23.389Z</time>
      </trkpt>
      <trkpt lat="45.93039" lon="4.76449">
        <ele>168.300003052</ele>
        <time>2015-12-22T09:36:24.369Z</time>
      </trkpt>
      <trkpt lat="45.93044" lon="4.76453">
        <ele>168.300003052</ele>
        <time>2015-12-22T09:36:25.393Z</time>
      </trkpt>
      <trkpt lat="45.93049" lon="4.76458">
        <ele>168.399993896</ele>
        <time>2015-12-22T09:36:26.369Z</time>
      </trkpt>
      <trkpt lat="45.93054" lon="4.76463">
        <ele>168.100006104</ele>
        <time>2015-12-22T09:36:27.407Z</time>
      </trkpt>
      <trkpt lat="45.93059" lon="4.76469">
        <ele>168.300003052</ele>
        <time>2015-12-22T09:36:28.369Z</time>
      </trkpt>
      <trkpt lat="45.93064" lon="4.76474">
        <ele>168.100006104</ele>
        <time>2015-12-22T09:36:29.403Z</time>
      </trkpt>
      <trkpt lat="45.93069" lon="4.76479">
        <ele>167.399993896</ele>
        <time>2015-12-22T09:36:30.369Z</time>
      </trkpt>
      <trkpt lat="45.93075" lon="4.76485">
        <ele>167.199996948</ele>
        <time>2015-12-22T09:36:31.395Z</time>
      </trkpt>
      <trkpt lat="45.93081" lon="4.7649">
        <ele>167</ele>
        <time>2015-12-22T09:36:32.37Z</time>
      </trkpt>
      <trkpt lat="45.93086" lon="4.76495">
        <ele>166.899993896</ele>
        <time>2015-12-22T09:36:33.389Z</time>
      </trkpt>
      <trkpt lat="45.93091" lon="4.76501">
        <ele>166.899993896</ele>
        <time>2015-12-22T09:36:34.371Z</time>
      </trkpt>
      <trkpt lat="45.93097" lon="4.76506">
        <ele>167</ele>
        <time>2015-12-22T09:36:35.39Z</time>
      </trkpt>
      <trkpt lat="45.93102" lon="4.76512">
        <ele>167</ele>
        <time>2015-12-22T09:36:36.483Z</time>
      </trkpt>
      <trkpt lat="45.93107" lon="4.76516">
        <ele>167</ele>
        <time>2015-12-22T09:36:37.396Z</time>
      </trkpt>
      <trkpt lat="45.93113" lon="4.76521">
        <ele>167.100006104</ele>
        <time>2015-12-22T09:36:38.37Z</time>
      </trkpt>
      <trkpt lat="45.93119" lon="4.76526">
        <ele>167.199996948</ele>
        <time>2015-12-22T09:36:39.391Z</time>
      </trkpt>
      <trkpt lat="45.93124" lon="4.76531">
        <ele>167.399993896</ele>
        <time>2015-12-22T09:36:40.371Z</time>
      </trkpt>
      <trkpt lat="45.9313" lon="4.76536">
        <ele>167.100006104</ele>
        <time>2015-12-22T09:36:41.397Z</time>
      </trkpt>
      <trkpt lat="45.93136" lon="4.76542">
        <ele>167.199996948</ele>
        <time>2015-12-22T09:36:42.367Z</time>
      </trkpt>
      <trkpt lat="45.93141" lon="4.76547">
        <ele>167.300003052</ele>
        <time>2015-12-22T09:36:43.4Z</time>
      </trkpt>
      <trkpt lat="45.93147" lon="4.76552">
        <ele>167.300003052</ele>
        <time>2015-12-22T09:36:44.37Z</time>
      </trkpt>
      <trkpt lat="45.93152" lon="4.76558">
        <ele>167.300003052</ele>
        <time>2015-12-22T09:36:45.391Z</time>
      </trkpt>
      <trkpt lat="45.93157" lon="4.76563">
        <ele>167.399993896</ele>
        <time>2015-12-22T09:36:46.369Z</time>
      </trkpt>
      <trkpt lat="45.93163" lon="4.76568">
        <ele>167.800003052</ele>
        <time>2015-12-22T09:36:47.448Z</time>
      </trkpt>
      <trkpt lat="45.93169" lon="4.76574">
        <ele>167.899993896</ele>
        <time>2015-12-22T09:36:48.387Z</time>
      </trkpt>
      <trkpt lat="45.93174" lon="4.76579">
        <ele>168.100006104</ele>
        <time>2015-12-22T09:36:49.465Z</time>
      </trkpt>
      <trkpt lat="45.9318" lon="4.76585">
        <ele>168.300003052</ele>
        <time>2015-12-22T09:36:50.37Z</time>
      </trkpt>
      <trkpt lat="45.93186" lon="4.76592">
        <ele>167.300003052</ele>
        <time>2015-12-22T09:36:51.391Z</time>
      </trkpt>
      <trkpt lat="45.93192" lon="4.76597">
        <ele>167.100006104</ele>
        <time>2015-12-22T09:36:52.37Z</time>
      </trkpt>
      <trkpt lat="45.93198" lon="4.76603">
        <ele>166.699996948</ele>
        <time>2015-12-22T09:36:53.39Z</time>
      </trkpt>
      <trkpt lat="45.93204" lon="4.76608">
        <ele>166.800003052</ele>
        <time>2015-12-22T09:36:54.369Z</time>
      </trkpt>
      <trkpt lat="45.9321" lon="4.76613">
        <ele>166.899993896</ele>
        <time>2015-12-22T09:36:55.392Z</time>
      </trkpt>
      <trkpt lat="45.93216" lon="4.76619">
        <ele>166.899993896</ele>
        <time>2015-12-22T09:36:56.369Z</time>
      </trkpt>
      <trkpt lat="45.93222" lon="4.76625">
        <ele>166.800003052</ele>
        <time>2015-12-22T09:36:57.395Z</time>
      </trkpt>
      <trkpt lat="45.93227" lon="4.7663">
        <ele>166.800003052</ele>
        <time>2015-12-22T09:36:58.37Z</time>
      </trkpt>
      <trkpt lat="45.93232" lon="4.76636">
        <ele>166.800003052</ele>
        <time>2015-12-22T09:36:59.444Z</time>
      </trkpt>
      <trkpt lat="45.93238" lon="4.76642">
        <ele>166.699996948</ele>
        <time>2015-12-22T09:37:00.371Z</time>
      </trkpt>
      <trkpt lat="45.93244" lon="4.76646">
        <ele>166.600006104</ele>
        <time>2015-12-22T09:37:01.393Z</time>
      </trkpt>
      <trkpt lat="45.93249" lon="4.76652">
        <ele>166.300003052</ele>
        <time>2015-12-22T09:37:02.37Z</time>
      </trkpt>
      <trkpt lat="45.93255" lon="4.76657">
        <ele>166.100006104</ele>
        <time>2015-12-22T09:37:03.437Z</time>
      </trkpt>
      <trkpt lat="45.9326" lon="4.76662">
        <ele>165.899993896</ele>
        <time>2015-12-22T09:37:04.369Z</time>
      </trkpt>
      <trkpt lat="45.93265" lon="4.76667">
        <ele>166.399993896</ele>
        <time>2015-12-22T09:37:05.389Z</time>
      </trkpt>
      <trkpt lat="45.9327" lon="4.76673">
        <ele>166.399993896</ele>
        <time>2015-12-22T09:37:06.369Z</time>
      </trkpt>
      <trkpt lat="45.93276" lon="4.76679">
        <ele>166.5</ele>
        <time>2015-12-22T09:37:07.396Z</time>
      </trkpt>
      <trkpt lat="45.93281" lon="4.76684">
        <ele>166.199996948</ele>
        <time>2015-12-22T09:37:08.369Z</time>
      </trkpt>
      <trkpt lat="45.93286" lon="4.7669">
        <ele>165.899993896</ele>
        <time>2015-12-22T09:37:09.415Z</time>
      </trkpt>
      <trkpt lat="45.93292" lon="4.76696">
        <ele>165.899993896</ele>
        <time>2015-12-22T09:37:10.368Z</time>
      </trkpt>
      <trkpt lat="45.93297" lon="4.76702">
        <ele>165.600006104</ele>
        <time>2015-12-22T09:37:11.396Z</time>
      </trkpt>
      <trkpt lat="45.93302" lon="4.76708">
        <ele>165.600006104</ele>
        <time>2015-12-22T09:37:12.37Z</time>
      </trkpt>
      <trkpt lat="45.93308" lon="4.76713">
        <ele>165.600006104</ele>
        <time>2015-12-22T09:37:13.394Z</time>
      </trkpt>
      <trkpt lat="45.93313" lon="4.76719">
        <ele>165.699996948</ele>
        <time>2015-12-22T09:37:14.369Z</time>
      </trkpt>
      <trkpt lat="45.93319" lon="4.76725">
        <ele>165.699996948</ele>
        <time>2015-12-22T09:37:15.39Z</time>
      </trkpt>
      <trkpt lat="45.93325" lon="4.76731">
        <ele>165.5</ele>
        <time>2015-12-22T09:37:16.369Z</time>
      </trkpt>
      <trkpt lat="45.9333" lon="4.76736">
        <ele>165.5</ele>
        <time>2015-12-22T09:37:17.391Z</time>
      </trkpt>
      <trkpt lat="45.93336" lon="4.76742">
        <ele>165.199996948</ele>
        <time>2015-12-22T09:37:18.37Z</time>
      </trkpt>
      <trkpt lat="45.93341" lon="4.76747">
        <ele>165.399993896</ele>
        <time>2015-12-22T09:37:19.409Z</time>
      </trkpt>
      <trkpt lat="45.93347" lon="4.76753">
        <ele>165.800003052</ele>
        <time>2015-12-22T09:37:20.371Z</time>
      </trkpt>
      <trkpt lat="45.93352" lon="4.7676">
        <ele>165.899993896</ele>
        <time>2015-12-22T09:37:21.39Z</time>
      </trkpt>
      <trkpt lat="45.93358" lon="4.76765">
        <ele>165.899993896</ele>
        <time>2015-12-22T09:37:22.369Z</time>
      </trkpt>
      <trkpt lat="45.93364" lon="4.76771">
        <ele>165.800003052</ele>
        <time>2015-12-22T09:37:23.391Z</time>
      </trkpt>
      <trkpt lat="45.93369" lon="4.76777">
        <ele>165.899993896</ele>
        <time>2015-12-22T09:37:24.371Z</time>
      </trkpt>
      <trkpt lat="45.93375" lon="4.76783">
        <ele>165.699996948</ele>
        <time>2015-12-22T09:37:25.392Z</time>
      </trkpt>
      <trkpt lat="45.9338" lon="4.76789">
        <ele>165.899993896</ele>
        <time>2015-12-22T09:37:26.369Z</time>
      </trkpt>
      <trkpt lat="45.93386" lon="4.76795">
        <ele>166</ele>
        <time>2015-12-22T09:37:27.392Z</time>
      </trkpt>
      <trkpt lat="45.93391" lon="4.76802">
        <ele>165.899993896</ele>
        <time>2015-12-22T09:37:28.369Z</time>
      </trkpt>
      <trkpt lat="45.93396" lon="4.76809">
        <ele>165.899993896</ele>
        <time>2015-12-22T09:37:29.44Z</time>
      </trkpt>
      <trkpt lat="45.93402" lon="4.76816">
        <ele>165.800003052</ele>
        <time>2015-12-22T09:37:30.37Z</time>
      </trkpt>
      <trkpt lat="45.93406" lon="4.76823">
        <ele>165.899993896</ele>
        <time>2015-12-22T09:37:31.394Z</time>
      </trkpt>
      <trkpt lat="45.93411" lon="4.76831">
        <ele>165.800003052</ele>
        <time>2015-12-22T09:37:32.371Z</time>
      </trkpt>
      <trkpt lat="45.93416" lon="4.76839">
        <ele>165.699996948</ele>
        <time>2015-12-22T09:37:33.523Z</time>
      </trkpt>
      <trkpt lat="45.9342" lon="4.76847">
        <ele>165.600006104</ele>
        <time>2015-12-22T09:37:34.369Z</time>
      </trkpt>
      <trkpt lat="45.93424" lon="4.76855">
        <ele>165.5</ele>
        <time>2015-12-22T09:37:35.388Z</time>
      </trkpt>
      <trkpt lat="45.93427" lon="4.76863">
        <ele>165.399993896</ele>
        <time>2015-12-22T09:37:36.369Z</time>
      </trkpt>
      <trkpt lat="45.93431" lon="4.7687">
        <ele>165.300003052</ele>
        <time>2015-12-22T09:37:37.396Z</time>
      </trkpt>
      <trkpt lat="45.93434" lon="4.76878">
        <ele>165.100006104</ele>
        <time>2015-12-22T09:37:38.369Z</time>
      </trkpt>
      <trkpt lat="45.93437" lon="4.76886">
        <ele>165.199996948</ele>
        <time>2015-12-22T09:37:39.389Z</time>
      </trkpt>
      <trkpt lat="45.93439" lon="4.76894">
        <ele>165.199996948</ele>
        <time>2015-12-22T09:37:40.369Z</time>
      </trkpt>
      <trkpt lat="45.93442" lon="4.76902">
        <ele>165.100006104</ele>
        <time>2015-12-22T09:37:41.388Z</time>
      </trkpt>
      <trkpt lat="45.93444" lon="4.76911">
        <ele>165</ele>
        <time>2015-12-22T09:37:42.37Z</time>
      </trkpt>
      <trkpt lat="45.93446" lon="4.76919">
        <ele>165.199996948</ele>
        <time>2015-12-22T09:37:43.393Z</time>
      </trkpt>
      <trkpt lat="45.93448" lon="4.76928">
        <ele>165.199996948</ele>
        <time>2015-12-22T09:37:44.392Z</time>
      </trkpt>
      <trkpt lat="45.93449" lon="4.76937">
        <ele>165.199996948</ele>
        <time>2015-12-22T09:37:45.392Z</time>
      </trkpt>
      <trkpt lat="45.9345" lon="4.76946">
        <ele>165.300003052</ele>
        <time>2015-12-22T09:37:46.369Z</time>
      </trkpt>
      <trkpt lat="45.93452" lon="4.76956">
        <ele>165.199996948</ele>
        <time>2015-12-22T09:37:47.394Z</time>
      </trkpt>
      <trkpt lat="45.93453" lon="4.76965">
        <ele>165.300003052</ele>
        <time>2015-12-22T09:37:48.369Z</time>
      </trkpt>
      <trkpt lat="45.93454" lon="4.76974">
        <ele>165.300003052</ele>
        <time>2015-12-22T09:37:49.403Z</time>
      </trkpt>
      <trkpt lat="45.93456" lon="4.76983">
        <ele>165.300003052</ele>
        <time>2015-12-22T09:37:50.39Z</time>
      </trkpt>
      <trkpt lat="45.93457" lon="4.76992">
        <ele>165.300003052</ele>
        <time>2015-12-22T09:37:51.389Z</time>
      </trkpt>
      <trkpt lat="45.93459" lon="4.77002">
        <ele>165.199996948</ele>
        <time>2015-12-22T09:37:52.369Z</time>
      </trkpt>
      <trkpt lat="45.9346" lon="4.77011">
        <ele>165.399993896</ele>
        <time>2015-12-22T09:37:53.387Z</time>
      </trkpt>
      <trkpt lat="45.93461" lon="4.77021">
        <ele>165.300003052</ele>
        <time>2015-12-22T09:37:54.369Z</time>
      </trkpt>
      <trkpt lat="45.93463" lon="4.7703">
        <ele>165.300003052</ele>
        <time>2015-12-22T09:37:55.391Z</time>
      </trkpt>
      <trkpt lat="45.93464" lon="4.77039">
        <ele>165.199996948</ele>
        <time>2015-12-22T09:37:56.368Z</time>
      </trkpt>
      <trkpt lat="45.93465" lon="4.77048">
        <ele>165.300003052</ele>
        <time>2015-12-22T09:37:57.407Z</time>
      </trkpt>
      <trkpt lat="45.93467" lon="4.77057">
        <ele>164.800003052</ele>
        <time>2015-12-22T09:37:58.369Z</time>
      </trkpt>
      <trkpt lat="45.93469" lon="4.77067">
        <ele>164.800003052</ele>
        <time>2015-12-22T09:37:59.389Z</time>
      </trkpt>
      <trkpt lat="45.93471" lon="4.77076">
        <ele>164.699996948</ele>
        <time>2015-12-22T09:38:00.373Z</time>
      </trkpt>
      <trkpt lat="45.93472" lon="4.77085">
        <ele>164.699996948</ele>
        <time>2015-12-22T09:38:01.395Z</time>
      </trkpt>
      <trkpt lat="45.93474" lon="4.77095">
        <ele>164.800003052</ele>
        <time>2015-12-22T09:38:02.37Z</time>
      </trkpt>
      <trkpt lat="45.93476" lon="4.77104">
        <ele>164.800003052</ele>
        <time>2015-12-22T09:38:03.424Z</time>
      </trkpt>
      <trkpt lat="45.93477" lon="4.77113">
        <ele>164.800003052</ele>
        <time>2015-12-22T09:38:04.369Z</time>
      </trkpt>
      <trkpt lat="45.93479" lon="4.77122">
        <ele>164.800003052</ele>
        <time>2015-12-22T09:38:05.388Z</time>
      </trkpt>
      <trkpt lat="45.93481" lon="4.77131">
        <ele>164.800003052</ele>
        <time>2015-12-22T09:38:06.369Z</time>
      </trkpt>
      <trkpt lat="45.93483" lon="4.77141">
        <ele>164.600006104</ele>
        <time>2015-12-22T09:38:07.395Z</time>
      </trkpt>
      <trkpt lat="45.93484" lon="4.7715">
        <ele>164.600006104</ele>
        <time>2015-12-22T09:38:08.369Z</time>
      </trkpt>
      <trkpt lat="45.93486" lon="4.77159">
        <ele>164.600006104</ele>
        <time>2015-12-22T09:38:09.4Z</time>
      </trkpt>
      <trkpt lat="45.93488" lon="4.77168">
        <ele>164.600006104</ele>
        <time>2015-12-22T09:38:10.369Z</time>
      </trkpt>
      <trkpt lat="45.9349" lon="4.77177">
        <ele>164.600006104</ele>
        <time>2015-12-22T09:38:11.41Z</time>
      </trkpt>
      <trkpt lat="45.93492" lon="4.77186">
        <ele>164.699996948</ele>
        <time>2015-12-22T09:38:12.369Z</time>
      </trkpt>
      <trkpt lat="45.93494" lon="4.77195">
        <ele>164.800003052</ele>
        <time>2015-12-22T09:38:13.392Z</time>
      </trkpt>
      <trkpt lat="45.93496" lon="4.77204">
        <ele>164.899993896</ele>
        <time>2015-12-22T09:38:14.369Z</time>
      </trkpt>
      <trkpt lat="45.93498" lon="4.77214">
        <ele>164.899993896</ele>
        <time>2015-12-22T09:38:15.389Z</time>
      </trkpt>
      <trkpt lat="45.935" lon="4.77223">
        <ele>164.899993896</ele>
        <time>2015-12-22T09:38:16.369Z</time>
      </trkpt>
      <trkpt lat="45.93502" lon="4.77232">
        <ele>165</ele>
        <time>2015-12-22T09:38:17.399Z</time>
      </trkpt>
      <trkpt lat="45.93504" lon="4.77241">
        <ele>164.899993896</ele>
        <time>2015-12-22T09:38:18.369Z</time>
      </trkpt>
      <trkpt lat="45.93506" lon="4.7725">
        <ele>164.800003052</ele>
        <time>2015-12-22T09:38:19.405Z</time>
      </trkpt>
      <trkpt lat="45.93508" lon="4.77259">
        <ele>164.800003052</ele>
        <time>2015-12-22T09:38:20.371Z</time>
      </trkpt>
      <trkpt lat="45.93511" lon="4.77268">
        <ele>164.800003052</ele>
        <time>2015-12-22T09:38:21.389Z</time>
      </trkpt>
      <trkpt lat="45.93513" lon="4.77278">
        <ele>165</ele>
        <time>2015-12-22T09:38:22.369Z</time>
      </trkpt>
      <trkpt lat="45.93515" lon="4.77287">
        <ele>164.899993896</ele>
        <time>2015-12-22T09:38:23.388Z</time>
      </trkpt>
      <trkpt lat="45.93517" lon="4.77296">
        <ele>164.600006104</ele>
        <time>2015-12-22T09:38:24.369Z</time>
      </trkpt>
      <trkpt lat="45.93519" lon="4.77305">
        <ele>164.800003052</ele>
        <time>2015-12-22T09:38:25.432Z</time>
      </trkpt>
      <trkpt lat="45.93521" lon="4.77314">
        <ele>164.800003052</ele>
        <time>2015-12-22T09:38:26.374Z</time>
      </trkpt>
      <trkpt lat="45.93523" lon="4.77322">
        <ele>164.800003052</ele>
        <time>2015-12-22T09:38:27.42Z</time>
      </trkpt>
      <trkpt lat="45.93525" lon="4.7733">
        <ele>164.899993896</ele>
        <time>2015-12-22T09:38:28.369Z</time>
      </trkpt>
      <trkpt lat="45.93526" lon="4.77338">
        <ele>165.199996948</ele>
        <time>2015-12-22T09:38:29.409Z</time>
      </trkpt>
      <trkpt lat="45.93528" lon="4.77347">
        <ele>165.399993896</ele>
        <time>2015-12-22T09:38:30.37Z</time>
      </trkpt>
      <trkpt lat="45.9353" lon="4.77356">
        <ele>165.5</ele>
        <time>2015-12-22T09:38:31.392Z</time>
      </trkpt>
      <trkpt lat="45.93532" lon="4.77364">
        <ele>165.5</ele>
        <time>2015-12-22T09:38:32.369Z</time>
      </trkpt>
      <trkpt lat="45.93533" lon="4.77372">
        <ele>165.600006104</ele>
        <time>2015-12-22T09:38:33.39Z</time>
      </trkpt>
      <trkpt lat="45.93535" lon="4.7738">
        <ele>165.800003052</ele>
        <time>2015-12-22T09:38:34.369Z</time>
      </trkpt>
      <trkpt lat="45.93536" lon="4.77388">
        <ele>165.899993896</ele>
        <time>2015-12-22T09:38:35.389Z</time>
      </trkpt>
      <trkpt lat="45.93538" lon="4.77396">
        <ele>165.800003052</ele>
        <time>2015-12-22T09:38:36.369Z</time>
      </trkpt>
      <trkpt lat="45.9354" lon="4.77405">
        <ele>165.800003052</ele>
        <time>2015-12-22T09:38:37.4Z</time>
      </trkpt>
      <trkpt lat="45.93542" lon="4.77413">
        <ele>165.800003052</ele>
        <time>2015-12-22T09:38:38.369Z</time>
      </trkpt>
      <trkpt lat="45.93544" lon="4.77422">
        <ele>165.199996948</ele>
        <time>2015-12-22T09:38:39.391Z</time>
      </trkpt>
      <trkpt lat="45.93546" lon="4.77431">
        <ele>164.699996948</ele>
        <time>2015-12-22T09:38:40.369Z</time>
      </trkpt>
      <trkpt lat="45.93548" lon="4.7744">
        <ele>164.600006104</ele>
        <time>2015-12-22T09:38:41.394Z</time>
      </trkpt>
      <trkpt lat="45.9355" lon="4.77449">
        <ele>164.399993896</ele>
        <time>2015-12-22T09:38:42.37Z</time>
      </trkpt>
      <trkpt lat="45.93553" lon="4.77458">
        <ele>164.300003052</ele>
        <time>2015-12-22T09:38:43.488Z</time>
      </trkpt>
      <trkpt lat="45.93555" lon="4.77467">
        <ele>164.199996948</ele>
        <time>2015-12-22T09:38:44.369Z</time>
      </trkpt>
      <trkpt lat="45.93557" lon="4.77476">
        <ele>164</ele>
        <time>2015-12-22T09:38:45.389Z</time>
      </trkpt>
      <trkpt lat="45.93559" lon="4.77485">
        <ele>164.199996948</ele>
        <time>2015-12-22T09:38:46.369Z</time>
      </trkpt>
      <trkpt lat="45.93561" lon="4.77494">
        <ele>164.300003052</ele>
        <time>2015-12-22T09:38:47.4Z</time>
      </trkpt>
      <trkpt lat="45.93563" lon="4.77503">
        <ele>164.399993896</ele>
        <time>2015-12-22T09:38:48.386Z</time>
      </trkpt>
      <trkpt lat="45.93565" lon="4.77511">
        <ele>164.5</ele>
        <time>2015-12-22T09:38:49.395Z</time>
      </trkpt>
      <trkpt lat="45.93567" lon="4.7752">
        <ele>164.800003052</ele>
        <time>2015-12-22T09:38:50.369Z</time>
      </trkpt>
      <trkpt lat="45.93569" lon="4.77529">
        <ele>164.699996948</ele>
        <time>2015-12-22T09:38:51.39Z</time>
      </trkpt>
      <trkpt lat="45.93571" lon="4.77538">
        <ele>164.5</ele>
        <time>2015-12-22T09:38:52.372Z</time>
      </trkpt>
      <trkpt lat="45.93574" lon="4.77547">
        <ele>164.399993896</ele>
        <time>2015-12-22T09:38:53.39Z</time>
      </trkpt>
      <trkpt lat="45.93576" lon="4.77556">
        <ele>164.5</ele>
        <time>2015-12-22T09:38:54.368Z</time>
      </trkpt>
      <trkpt lat="45.93578" lon="4.77565">
        <ele>164.399993896</ele>
        <time>2015-12-22T09:38:55.392Z</time>
      </trkpt>
      <trkpt lat="45.9358" lon="4.77574">
        <ele>164.5</ele>
        <time>2015-12-22T09:38:56.369Z</time>
      </trkpt>
      <trkpt lat="45.93583" lon="4.77584">
        <ele>164.5</ele>
        <time>2015-12-22T09:38:57.401Z</time>
      </trkpt>
      <trkpt lat="45.93585" lon="4.77593">
        <ele>164.600006104</ele>
        <time>2015-12-22T09:38:58.371Z</time>
      </trkpt>
      <trkpt lat="45.93588" lon="4.77601">
        <ele>164.5</ele>
        <time>2015-12-22T09:38:59.389Z</time>
      </trkpt>
      <trkpt lat="45.93591" lon="4.77609">
        <ele>164.5</ele>
        <time>2015-12-22T09:39:00.369Z</time>
      </trkpt>
      <trkpt lat="45.93594" lon="4.77617">
        <ele>165.5</ele>
        <time>2015-12-22T09:39:01.391Z</time>
      </trkpt>
      <trkpt lat="45.93597" lon="4.77626">
        <ele>165.399993896</ele>
        <time>2015-12-22T09:39:02.37Z</time>
      </trkpt>
      <trkpt lat="45.936" lon="4.77635">
        <ele>165.399993896</ele>
        <time>2015-12-22T09:39:03.399Z</time>
      </trkpt>
      <trkpt lat="45.93603" lon="4.77644">
        <ele>165.600006104</ele>
        <time>2015-12-22T09:39:04.368Z</time>
      </trkpt>
      <trkpt lat="45.93606" lon="4.77652">
        <ele>165.699996948</ele>
        <time>2015-12-22T09:39:05.389Z</time>
      </trkpt>
      <trkpt lat="45.9361" lon="4.7766">
        <ele>165.699996948</ele>
        <time>2015-12-22T09:39:06.369Z</time>
      </trkpt>
      <trkpt lat="45.93614" lon="4.77668">
        <ele>165.5</ele>
        <time>2015-12-22T09:39:07.41Z</time>
      </trkpt>
      <trkpt lat="45.93617" lon="4.77676">
        <ele>165.5</ele>
        <time>2015-12-22T09:39:08.369Z</time>
      </trkpt>
      <trkpt lat="45.93621" lon="4.77683">
        <ele>165.699996948</ele>
        <time>2015-12-22T09:39:09.483Z</time>
      </trkpt>
      <trkpt lat="45.93624" lon="4.77691">
        <ele>165.699996948</ele>
        <time>2015-12-22T09:39:10.37Z</time>
      </trkpt>
      <trkpt lat="45.93628" lon="4.77699">
        <ele>166</ele>
        <time>2015-12-22T09:39:11.388Z</time>
      </trkpt>
      <trkpt lat="45.93632" lon="4.77707">
        <ele>166.300003052</ele>
        <time>2015-12-22T09:39:12.37Z</time>
      </trkpt>
      <trkpt lat="45.93636" lon="4.77713">
        <ele>166.899993896</ele>
        <time>2015-12-22T09:39:13.392Z</time>
      </trkpt>
      <trkpt lat="45.9364" lon="4.7772">
        <ele>167</ele>
        <time>2015-12-22T09:39:14.393Z</time>
      </trkpt>
      <trkpt lat="45.93644" lon="4.77726">
        <ele>167.199996948</ele>
        <time>2015-12-22T09:39:15.389Z</time>
      </trkpt>
      <trkpt lat="45.93648" lon="4.77732">
        <ele>167.699996948</ele>
        <time>2015-12-22T09:39:16.369Z</time>
      </trkpt>
      <trkpt lat="45.93651" lon="4.77738">
        <ele>168</ele>
        <time>2015-12-22T09:39:17.542Z</time>
      </trkpt>
      <trkpt lat="45.93654" lon="4.77744">
        <ele>168.300003052</ele>
        <time>2015-12-22T09:39:18.375Z</time>
      </trkpt>
      <trkpt lat="45.93658" lon="4.7775">
        <ele>168.399993896</ele>
        <time>2015-12-22T09:39:19.398Z</time>
      </trkpt>
      <trkpt lat="45.93662" lon="4.77755">
        <ele>168.399993896</ele>
        <time>2015-12-22T09:39:20.37Z</time>
      </trkpt>
      <trkpt lat="45.93665" lon="4.7776">
        <ele>168.399993896</ele>
        <time>2015-12-22T09:39:21.39Z</time>
      </trkpt>
      <trkpt lat="45.93669" lon="4.77765">
        <ele>168.699996948</ele>
        <time>2015-12-22T09:39:22.369Z</time>
      </trkpt>
      <trkpt lat="45.93672" lon="4.7777">
        <ele>168.899993896</ele>
        <time>2015-12-22T09:39:23.387Z</time>
      </trkpt>
      <trkpt lat="45.93675" lon="4.77774">
        <ele>169.100006104</ele>
        <time>2015-12-22T09:39:24.369Z</time>
      </trkpt>
      <trkpt lat="45.93678" lon="4.77779">
        <ele>169.399993896</ele>
        <time>2015-12-22T09:39:25.407Z</time>
      </trkpt>
      <trkpt lat="45.93682" lon="4.77783">
        <ele>169.699996948</ele>
        <time>2015-12-22T09:39:26.368Z</time>
      </trkpt>
      <trkpt lat="45.93688" lon="4.77792">
        <ele>170</ele>
        <time>2015-12-22T09:39:28.389Z</time>
      </trkpt>
      <trkpt lat="45.93692" lon="4.77796">
        <ele>170.199996948</ele>
        <time>2015-12-22T09:39:29.37Z</time>
      </trkpt>
      <trkpt lat="45.93696" lon="4.77801">
        <ele>170.100006104</ele>
        <time>2015-12-22T09:39:30.458Z</time>
      </trkpt>
      <trkpt lat="45.93699" lon="4.77805">
        <ele>170</ele>
        <time>2015-12-22T09:39:31.406Z</time>
      </trkpt>
      <trkpt lat="45.93702" lon="4.7781">
        <ele>170.100006104</ele>
        <time>2015-12-22T09:39:32.388Z</time>
      </trkpt>
      <trkpt lat="45.93705" lon="4.77814">
        <ele>170.600006104</ele>
        <time>2015-12-22T09:39:33.371Z</time>
      </trkpt>
      <trkpt lat="45.93709" lon="4.77819">
        <ele>170.600006104</ele>
        <time>2015-12-22T09:39:34.388Z</time>
      </trkpt>
      <trkpt lat="45.93712" lon="4.77823">
        <ele>170.800003052</ele>
        <time>2015-12-22T09:39:35.369Z</time>
      </trkpt>
      <trkpt lat="45.93719" lon="4.77832">
        <ele>171.5</ele>
        <time>2015-12-22T09:39:37.405Z</time>
      </trkpt>
      <trkpt lat="45.93722" lon="4.77837">
        <ele>172</ele>
        <time>2015-12-22T09:39:38.368Z</time>
      </trkpt>
      <trkpt lat="45.93725" lon="4.77841">
        <ele>172.300003052</ele>
        <time>2015-12-22T09:39:39.389Z</time>
      </trkpt>
      <trkpt lat="45.93728" lon="4.77846">
        <ele>172.600006104</ele>
        <time>2015-12-22T09:39:40.368Z</time>
      </trkpt>
      <trkpt lat="45.93732" lon="4.7785">
        <ele>172.800003052</ele>
        <time>2015-12-22T09:39:41.448Z</time>
      </trkpt>
      <trkpt lat="45.93735" lon="4.77855">
        <ele>172.800003052</ele>
        <time>2015-12-22T09:39:42.369Z</time>
      </trkpt>
      <trkpt lat="45.93739" lon="4.7786">
        <ele>172.800003052</ele>
        <time>2015-12-22T09:39:43.391Z</time>
      </trkpt>
      <trkpt lat="45.93742" lon="4.77864">
        <ele>172.800003052</ele>
        <time>2015-12-22T09:39:44.375Z</time>
      </trkpt>
      <trkpt lat="45.93746" lon="4.77869">
        <ele>172.899993896</ele>
        <time>2015-12-22T09:39:45.389Z</time>
      </trkpt>
      <trkpt lat="45.9375" lon="4.77874">
        <ele>172.800003052</ele>
        <time>2015-12-22T09:39:46.385Z</time>
      </trkpt>
      <trkpt lat="45.93754" lon="4.77879">
        <ele>172.800003052</ele>
        <time>2015-12-22T09:39:47.409Z</time>
      </trkpt>
      <trkpt lat="45.93758" lon="4.77884">
        <ele>172.800003052</ele>
        <time>2015-12-22T09:39:48.369Z</time>
      </trkpt>
      <trkpt lat="45.93761" lon="4.77889">
        <ele>172.899993896</ele>
        <time>2015-12-22T09:39:49.394Z</time>
      </trkpt>
      <trkpt lat="45.93765" lon="4.77894">
        <ele>172.899993896</ele>
        <time>2015-12-22T09:39:50.368Z</time>
      </trkpt>
      <trkpt lat="45.93768" lon="4.77898">
        <ele>172.899993896</ele>
        <time>2015-12-22T09:39:51.389Z</time>
      </trkpt>
      <trkpt lat="45.93772" lon="4.77903">
        <ele>172.600006104</ele>
        <time>2015-12-22T09:39:52.368Z</time>
      </trkpt>
      <trkpt lat="45.93776" lon="4.77908">
        <ele>172.699996948</ele>
        <time>2015-12-22T09:39:53.423Z</time>
      </trkpt>
      <trkpt lat="45.9378" lon="4.77913">
        <ele>172.600006104</ele>
        <time>2015-12-22T09:39:54.37Z</time>
      </trkpt>
      <trkpt lat="45.93783" lon="4.77918">
        <ele>172.600006104</ele>
        <time>2015-12-22T09:39:55.395Z</time>
      </trkpt>
      <trkpt lat="45.93788" lon="4.77924">
        <ele>172.300003052</ele>
        <time>2015-12-22T09:39:56.37Z</time>
      </trkpt>
      <trkpt lat="45.93792" lon="4.77929">
        <ele>172.100006104</ele>
        <time>2015-12-22T09:39:57.412Z</time>
      </trkpt>
      <trkpt lat="45.93796" lon="4.77934">
        <ele>171.899993896</ele>
        <time>2015-12-22T09:39:58.37Z</time>
      </trkpt>
      <trkpt lat="45.93801" lon="4.7794">
        <ele>171.800003052</ele>
        <time>2015-12-22T09:39:59.409Z</time>
      </trkpt>
      <trkpt lat="45.93805" lon="4.77945">
        <ele>171.699996948</ele>
        <time>2015-12-22T09:40:00.369Z</time>
      </trkpt>
      <trkpt lat="45.93809" lon="4.77951">
        <ele>171.600006104</ele>
        <time>2015-12-22T09:40:01.392Z</time>
      </trkpt>
      <trkpt lat="45.93814" lon="4.77957">
        <ele>171.399993896</ele>
        <time>2015-12-22T09:40:02.369Z</time>
      </trkpt>
      <trkpt lat="45.93818" lon="4.77962">
        <ele>171.5</ele>
        <time>2015-12-22T09:40:03.39Z</time>
      </trkpt>
      <trkpt lat="45.93822" lon="4.77968">
        <ele>171.300003052</ele>
        <time>2015-12-22T09:40:04.368Z</time>
      </trkpt>
      <trkpt lat="45.93827" lon="4.77974">
        <ele>171</ele>
        <time>2015-12-22T09:40:05.387Z</time>
      </trkpt>
      <trkpt lat="45.93832" lon="4.77979">
        <ele>170.899993896</ele>
        <time>2015-12-22T09:40:06.373Z</time>
      </trkpt>
      <trkpt lat="45.93836" lon="4.77985">
        <ele>170.699996948</ele>
        <time>2015-12-22T09:40:07.434Z</time>
      </trkpt>
      <trkpt lat="45.9384" lon="4.77992">
        <ele>170.5</ele>
        <time>2015-12-22T09:40:08.37Z</time>
      </trkpt>
      <trkpt lat="45.93842" lon="4.77999">
        <ele>170.399993896</ele>
        <time>2015-12-22T09:40:09.391Z</time>
      </trkpt>
      <trkpt lat="45.93843" lon="4.78008">
        <ele>170.399993896</ele>
        <time>2015-12-22T09:40:10.373Z</time>
      </trkpt>
      <trkpt lat="45.93844" lon="4.78017">
        <ele>170.399993896</ele>
        <time>2015-12-22T09:40:11.389Z</time>
      </trkpt>
      <trkpt lat="45.93848" lon="4.78024">
        <ele>170.800003052</ele>
        <time>2015-12-22T09:40:12.368Z</time>
      </trkpt>
      <trkpt lat="45.93852" lon="4.78029">
        <ele>171</ele>
        <time>2015-12-22T09:40:13.391Z</time>
      </trkpt>
      <trkpt lat="45.93857" lon="4.78031">
        <ele>170.699996948</ele>
        <time>2015-12-22T09:40:14.368Z</time>
      </trkpt>
      <trkpt lat="45.93862" lon="4.78032">
        <ele>170.699996948</ele>
        <time>2015-12-22T09:40:15.394Z</time>
      </trkpt>
      <trkpt lat="45.93867" lon="4.7803">
        <ele>170.600006104</ele>
        <time>2015-12-22T09:40:16.37Z</time>
      </trkpt>
      <trkpt lat="45.93875" lon="4.78028">
        <ele>171.399993896</ele>
        <time>2015-12-22T09:40:18.388Z</time>
      </trkpt>
      <trkpt lat="45.9388" lon="4.78026">
        <ele>171.699996948</ele>
        <time>2015-12-22T09:40:19.373Z</time>
      </trkpt>
      <trkpt lat="45.93887" lon="4.7802">
        <ele>172.399993896</ele>
        <time>2015-12-22T09:40:21.39Z</time>
      </trkpt>
      <trkpt lat="45.9389" lon="4.78016">
        <ele>172.699996948</ele>
        <time>2015-12-22T09:40:22.369Z</time>
      </trkpt>
      <trkpt lat="45.93896" lon="4.78008">
        <ele>173.199996948</ele>
        <time>2015-12-22T09:40:24.388Z</time>
      </trkpt>
      <trkpt lat="45.93899" lon="4.78004">
        <ele>173.399993896</ele>
        <time>2015-12-22T09:40:25.372Z</time>
      </trkpt>
      <trkpt lat="45.93904" lon="4.77997">
        <ele>173.899993896</ele>
        <time>2015-12-22T09:40:27.412Z</time>
      </trkpt>
      <trkpt lat="45.93906" lon="4.77994">
        <ele>174.100006104</ele>
        <time>2015-12-22T09:40:28.385Z</time>
      </trkpt>
      <trkpt lat="45.93913" lon="4.77987">
        <ele>175.100006104</ele>
        <time>2015-12-22T09:40:31.391Z</time>
      </trkpt>
      <trkpt lat="45.93915" lon="4.77985">
        <ele>175.5</ele>
        <time>2015-12-22T09:40:32.369Z</time>
      </trkpt>
      <trkpt lat="45.93922" lon="4.77978">
        <ele>177.699996948</ele>
        <time>2015-12-22T09:40:36.391Z</time>
      </trkpt>
      <trkpt lat="45.93924" lon="4.77978">
        <ele>178.300003052</ele>
        <time>2015-12-22T09:40:37.4Z</time>
      </trkpt>
      <trkpt lat="45.93931" lon="4.77974">
        <ele>180.600006104</ele>
        <time>2015-12-22T09:40:40.389Z</time>
      </trkpt>
      <trkpt lat="45.93933" lon="4.77972">
        <ele>181</ele>
        <time>2015-12-22T09:40:41.371Z</time>
      </trkpt>
      <trkpt lat="45.93939" lon="4.77967">
        <ele>182.399993896</ele>
        <time>2015-12-22T09:40:44.429Z</time>
      </trkpt>
      <trkpt lat="45.93941" lon="4.77966">
        <ele>183</ele>
        <time>2015-12-22T09:40:45.37Z</time>
      </trkpt>
      <trkpt lat="45.93948" lon="4.77959">
        <ele>185.100006104</ele>
        <time>2015-12-22T09:40:49.407Z</time>
      </trkpt>
      <trkpt lat="45.9395" lon="4.77957">
        <ele>185.5</ele>
        <time>2015-12-22T09:40:50.368Z</time>
      </trkpt>
      <trkpt lat="45.93955" lon="4.77952">
        <ele>187</ele>
        <time>2015-12-22T09:40:53.389Z</time>
      </trkpt>
      <trkpt lat="45.93958" lon="4.7795">
        <ele>187.899993896</ele>
        <time>2015-12-22T09:40:54.369Z</time>
      </trkpt>
      <trkpt lat="45.93964" lon="4.77945">
        <ele>188.899993896</ele>
        <time>2015-12-22T09:40:57.413Z</time>
      </trkpt>
      <trkpt lat="45.93965" lon="4.77943">
        <ele>189.399993896</ele>
        <time>2015-12-22T09:40:58.37Z</time>
      </trkpt>
      <trkpt lat="45.9397" lon="4.77939">
        <ele>189.800003052</ele>
        <time>2015-12-22T09:41:00.389Z</time>
      </trkpt>
      <trkpt lat="45.93973" lon="4.77937">
        <ele>190</ele>
        <time>2015-12-22T09:41:01.373Z</time>
      </trkpt>
      <trkpt lat="45.9398" lon="4.77935">
        <ele>190.100006104</ele>
        <time>2015-12-22T09:41:03.818Z</time>
      </trkpt>
      <trkpt lat="45.93983" lon="4.77934">
        <ele>190.600006104</ele>
        <time>2015-12-22T09:41:04.688Z</time>
      </trkpt>
      <trkpt lat="45.93991" lon="4.77929">
        <ele>191.899993896</ele>
        <time>2015-12-22T09:41:08.389Z</time>
      </trkpt>
      <trkpt lat="45.93993" lon="4.77928">
        <ele>192.199996948</ele>
        <time>2015-12-22T09:41:09.37Z</time>
      </trkpt>
      <trkpt lat="45.94" lon="4.77927">
        <ele>193</ele>
        <time>2015-12-22T09:41:12.387Z</time>
      </trkpt>
      <trkpt lat="45.94003" lon="4.77928">
        <ele>192.800003052</ele>
        <time>2015-12-22T09:41:13.372Z</time>
      </trkpt>
      <trkpt lat="45.94008" lon="4.77936">
        <ele>194.699996948</ele>
        <time>2015-12-22T09:41:17.413Z</time>
      </trkpt>
      <trkpt lat="45.9401" lon="4.77939">
        <ele>195.300003052</ele>
        <time>2015-12-22T09:41:18.369Z</time>
      </trkpt>
      <trkpt lat="45.94014" lon="4.77947">
        <ele>196.100006104</ele>
        <time>2015-12-22T09:41:21.391Z</time>
      </trkpt>
      <trkpt lat="45.94015" lon="4.7795">
        <ele>196.199996948</ele>
        <time>2015-12-22T09:41:22.37Z</time>
      </trkpt>
      <trkpt lat="45.94015" lon="4.77961">
        <ele>197.199996948</ele>
        <time>2015-12-22T09:41:25.392Z</time>
      </trkpt>
      <trkpt lat="45.94015" lon="4.77965">
        <ele>197.399993896</ele>
        <time>2015-12-22T09:41:26.37Z</time>
      </trkpt>
      <trkpt lat="45.94014" lon="4.77976">
        <ele>198.5</ele>
        <time>2015-12-22T09:41:29.412Z</time>
      </trkpt>
      <trkpt lat="45.94013" lon="4.7798">
        <ele>198.800003052</ele>
        <time>2015-12-22T09:41:30.37Z</time>
      </trkpt>
      <trkpt lat="45.94012" lon="4.77991">
        <ele>199.399993896</ele>
        <time>2015-12-22T09:41:33.389Z</time>
      </trkpt>
      <trkpt lat="45.94011" lon="4.77995">
        <ele>199.600006104</ele>
        <time>2015-12-22T09:41:34.368Z</time>
      </trkpt>
      <trkpt lat="45.94009" lon="4.78003">
        <ele>200</ele>
        <time>2015-12-22T09:41:36.419Z</time>
      </trkpt>
      <trkpt lat="45.94008" lon="4.78008">
        <ele>200.300003052</ele>
        <time>2015-12-22T09:41:37.388Z</time>
      </trkpt>
      <trkpt lat="45.94007" lon="4.78017">
        <ele>200.899993896</ele>
        <time>2015-12-22T09:41:39.388Z</time>
      </trkpt>
      <trkpt lat="45.94006" lon="4.78021">
        <ele>201.199996948</ele>
        <time>2015-12-22T09:41:40.369Z</time>
      </trkpt>
      <trkpt lat="45.94005" lon="4.78029">
        <ele>201.800003052</ele>
        <time>2015-12-22T09:41:42.423Z</time>
      </trkpt>
      <trkpt lat="45.94004" lon="4.78033">
        <ele>202.100006104</ele>
        <time>2015-12-22T09:41:43.372Z</time>
      </trkpt>
      <trkpt lat="45.94003" lon="4.78042">
        <ele>202.199996948</ele>
        <time>2015-12-22T09:41:45.39Z</time>
      </trkpt>
      <trkpt lat="45.94002" lon="4.78047">
        <ele>202.399993896</ele>
        <time>2015-12-22T09:41:46.368Z</time>
      </trkpt>
      <trkpt lat="45.94" lon="4.78057">
        <ele>201.899993896</ele>
        <time>2015-12-22T09:41:48.389Z</time>
      </trkpt>
      <trkpt lat="45.93999" lon="4.78062">
        <ele>201.800003052</ele>
        <time>2015-12-22T09:41:49.376Z</time>
      </trkpt>
      <trkpt lat="45.93998" lon="4.78071">
        <ele>201.399993896</ele>
        <time>2015-12-22T09:41:51.457Z</time>
      </trkpt>
      <trkpt lat="45.93997" lon="4.78076">
        <ele>201.399993896</ele>
        <time>2015-12-22T09:41:52.369Z</time>
      </trkpt>
      <trkpt lat="45.93996" lon="4.78086">
        <ele>201.199996948</ele>
        <time>2015-12-22T09:41:54.391Z</time>
      </trkpt>
      <trkpt lat="45.93995" lon="4.78091">
        <ele>201.300003052</ele>
        <time>2015-12-22T09:41:55.373Z</time>
      </trkpt>
      <trkpt lat="45.93994" lon="4.78102">
        <ele>201.300003052</ele>
        <time>2015-12-22T09:41:57.421Z</time>
      </trkpt>
      <trkpt lat="45.93993" lon="4.78108">
        <ele>201.100006104</ele>
        <time>2015-12-22T09:41:58.373Z</time>
      </trkpt>
      <trkpt lat="45.93992" lon="4.78119">
        <ele>200.5</ele>
        <time>2015-12-22T09:42:00.391Z</time>
      </trkpt>
      <trkpt lat="45.93991" lon="4.78124">
        <ele>200.5</ele>
        <time>2015-12-22T09:42:01.378Z</time>
      </trkpt>
      <trkpt lat="45.9399" lon="4.78134">
        <ele>200.600006104</ele>
        <time>2015-12-22T09:42:03.394Z</time>
      </trkpt>
      <trkpt lat="45.93989" lon="4.78139">
        <ele>200.5</ele>
        <time>2015-12-22T09:42:04.368Z</time>
      </trkpt>
      <trkpt lat="45.93989" lon="4.7815">
        <ele>200.100006104</ele>
        <time>2015-12-22T09:42:06.388Z</time>
      </trkpt>
      <trkpt lat="45.93989" lon="4.78153">
        <ele>200.199996948</ele>
        <time>2015-12-22T09:42:07.375Z</time>
      </trkpt>
      <trkpt lat="45.93996" lon="4.78161">
        <ele>199.300003052</ele>
        <time>2015-12-22T09:42:10.389Z</time>
      </trkpt>
      <trkpt lat="45.93998" lon="4.78163">
        <ele>199.399993896</ele>
        <time>2015-12-22T09:42:11.369Z</time>
      </trkpt>
      <trkpt lat="45.94003" lon="4.78168">
        <ele>199.100006104</ele>
        <time>2015-12-22T09:42:13.392Z</time>
      </trkpt>
      <trkpt lat="45.94006" lon="4.78171">
        <ele>198.899993896</ele>
        <time>2015-12-22T09:42:14.393Z</time>
      </trkpt>
      <trkpt lat="45.94013" lon="4.78178">
        <ele>199.100006104</ele>
        <time>2015-12-22T09:42:17.426Z</time>
      </trkpt>
      <trkpt lat="45.94015" lon="4.7818">
        <ele>199.100006104</ele>
        <time>2015-12-22T09:42:18.37Z</time>
      </trkpt>
      <trkpt lat="45.94021" lon="4.78187">
        <ele>199.300003052</ele>
        <time>2015-12-22T09:42:21.43Z</time>
      </trkpt>
      <trkpt lat="45.94024" lon="4.78188">
        <ele>199.800003052</ele>
        <time>2015-12-22T09:42:22.37Z</time>
      </trkpt>
      <trkpt lat="45.94031" lon="4.78193">
        <ele>200.699996948</ele>
        <time>2015-12-22T09:42:24.398Z</time>
      </trkpt>
      <trkpt lat="45.94034" lon="4.78194">
        <ele>201.100006104</ele>
        <time>2015-12-22T09:42:25.373Z</time>
      </trkpt>
      <trkpt lat="45.94039" lon="4.78198">
        <ele>201.600006104</ele>
        <time>2015-12-22T09:42:27.412Z</time>
      </trkpt>
      <trkpt lat="45.94042" lon="4.782">
        <ele>201.5</ele>
        <time>2015-12-22T09:42:28.368Z</time>
      </trkpt>
      <trkpt lat="45.94047" lon="4.78205">
        <ele>200.800003052</ele>
        <time>2015-12-22T09:42:30.388Z</time>
      </trkpt>
      <trkpt lat="45.9405" lon="4.78206">
        <ele>201.699996948</ele>
        <time>2015-12-22T09:42:31.372Z</time>
      </trkpt>
      <trkpt lat="45.94055" lon="4.78212">
        <ele>202</ele>
        <time>2015-12-22T09:42:33.395Z</time>
      </trkpt>
      <trkpt lat="45.9406" lon="4.78214">
        <ele>203.5</ele>
        <time>2015-12-22T09:42:34.37Z</time>
      </trkpt>
      <trkpt lat="45.94066" lon="4.78222">
        <ele>201.399993896</ele>
        <time>2015-12-22T09:42:36.388Z</time>
      </trkpt>
      <trkpt lat="45.94068" lon="4.78222">
        <ele>201.300003052</ele>
        <time>2015-12-22T09:42:37.376Z</time>
      </trkpt>
      <trkpt lat="45.94076" lon="4.78225">
        <ele>201.100006104</ele>
        <time>2015-12-22T09:42:40.392Z</time>
      </trkpt>
      <trkpt lat="45.94079" lon="4.78226">
        <ele>201.199996948</ele>
        <time>2015-12-22T09:42:41.368Z</time>
      </trkpt>
      <trkpt lat="45.94085" lon="4.78229">
        <ele>201.5</ele>
        <time>2015-12-22T09:42:43.461Z</time>
      </trkpt>
      <trkpt lat="45.94088" lon="4.78231">
        <ele>201.399993896</ele>
        <time>2015-12-22T09:42:44.369Z</time>
      </trkpt>
      <trkpt lat="45.94095" lon="4.78235">
        <ele>201.899993896</ele>
        <time>2015-12-22T09:42:47.42Z</time>
      </trkpt>
      <trkpt lat="45.94097" lon="4.78237">
        <ele>201.800003052</ele>
        <time>2015-12-22T09:42:48.369Z</time>
      </trkpt>
      <trkpt lat="45.94105" lon="4.78242">
        <ele>200.899993896</ele>
        <time>2015-12-22T09:42:51.388Z</time>
      </trkpt>
      <trkpt lat="45.94108" lon="4.78244">
        <ele>200.899993896</ele>
        <time>2015-12-22T09:42:52.368Z</time>
      </trkpt>
      <trkpt lat="45.94116" lon="4.7825">
        <ele>201.199996948</ele>
        <time>2015-12-22T09:42:55.391Z</time>
      </trkpt>
      <trkpt lat="45.94118" lon="4.78252">
        <ele>201.699996948</ele>
        <time>2015-12-22T09:42:56.37Z</time>
      </trkpt>
      <trkpt lat="45.94125" lon="4.78257">
        <ele>202.199996948</ele>
        <time>2015-12-22T09:42:59.434Z</time>
      </trkpt>
      <trkpt lat="45.94128" lon="4.78258">
        <ele>202.399993896</ele>
        <time>2015-12-22T09:43:00.369Z</time>
      </trkpt>
      <trkpt lat="45.94134" lon="4.78262">
        <ele>202.5</ele>
        <time>2015-12-22T09:43:02.388Z</time>
      </trkpt>
      <trkpt lat="45.94137" lon="4.78264">
        <ele>202.899993896</ele>
        <time>2015-12-22T09:43:03.37Z</time>
      </trkpt>
      <trkpt lat="45.94144" lon="4.7827">
        <ele>203.100006104</ele>
        <time>2015-12-22T09:43:05.388Z</time>
      </trkpt>
      <trkpt lat="45.94147" lon="4.78272">
        <ele>203.199996948</ele>
        <time>2015-12-22T09:43:06.369Z</time>
      </trkpt>
      <trkpt lat="45.94153" lon="4.78276">
        <ele>204.100006104</ele>
        <time>2015-12-22T09:43:08.388Z</time>
      </trkpt>
      <trkpt lat="45.94156" lon="4.78277">
        <ele>204.800003052</ele>
        <time>2015-12-22T09:43:09.369Z</time>
      </trkpt>
      <trkpt lat="45.94163" lon="4.78279">
        <ele>205.199996948</ele>
        <time>2015-12-22T09:43:11.389Z</time>
      </trkpt>
      <trkpt lat="45.94166" lon="4.7828">
        <ele>205.100006104</ele>
        <time>2015-12-22T09:43:12.375Z</time>
      </trkpt>
      <trkpt lat="45.94174" lon="4.78285">
        <ele>203.600006104</ele>
        <time>2015-12-22T09:43:14.388Z</time>
      </trkpt>
      <trkpt lat="45.94177" lon="4.78287">
        <ele>203.5</ele>
        <time>2015-12-22T09:43:15.37Z</time>
      </trkpt>
      <trkpt lat="45.94183" lon="4.78292">
        <ele>202.300003052</ele>
        <time>2015-12-22T09:43:17.401Z</time>
      </trkpt>
      <trkpt lat="45.94185" lon="4.78293">
        <ele>202.5</ele>
        <time>2015-12-22T09:43:18.368Z</time>
      </trkpt>
      <trkpt lat="45.94192" lon="4.78295">
        <ele>203.5</ele>
        <time>2015-12-22T09:43:20.404Z</time>
      </trkpt>
      <trkpt lat="45.94196" lon="4.78296">
        <ele>204.100006104</ele>
        <time>2015-12-22T09:43:21.369Z</time>
      </trkpt>
      <trkpt lat="45.94203" lon="4.78297">
        <ele>204.800003052</ele>
        <time>2015-12-22T09:43:23.389Z</time>
      </trkpt>
      <trkpt lat="45.94206" lon="4.78298">
        <ele>205.199996948</ele>
        <time>2015-12-22T09:43:24.369Z</time>
      </trkpt>
      <trkpt lat="45.94213" lon="4.78299">
        <ele>205.100006104</ele>
        <time>2015-12-22T09:43:26.388Z</time>
      </trkpt>
      <trkpt lat="45.94216" lon="4.78299">
        <ele>205.100006104</ele>
        <time>2015-12-22T09:43:27.37Z</time>
      </trkpt>
      <trkpt lat="45.94223" lon="4.78299">
        <ele>205.399993896</ele>
        <time>2015-12-22T09:43:29.388Z</time>
      </trkpt>
      <trkpt lat="45.94227" lon="4.783">
        <ele>205.100006104</ele>
        <time>2015-12-22T09:43:30.369Z</time>
      </trkpt>
      <trkpt lat="45.94234" lon="4.78302">
        <ele>205.5</ele>
        <time>2015-12-22T09:43:32.388Z</time>
      </trkpt>
      <trkpt lat="45.94238" lon="4.78303">
        <ele>205.300003052</ele>
        <time>2015-12-22T09:43:33.371Z</time>
      </trkpt>
      <trkpt lat="45.94245" lon="4.78305">
        <ele>205.600006104</ele>
        <time>2015-12-22T09:43:35.417Z</time>
      </trkpt>
      <trkpt lat="45.94249" lon="4.78306">
        <ele>206</ele>
        <time>2015-12-22T09:43:36.37Z</time>
      </trkpt>
      <trkpt lat="45.94255" lon="4.78309">
        <ele>206.800003052</ele>
        <time>2015-12-22T09:43:38.409Z</time>
      </trkpt>
      <trkpt lat="45.94258" lon="4.78311">
        <ele>206.800003052</ele>
        <time>2015-12-22T09:43:39.371Z</time>
      </trkpt>
      <trkpt lat="45.94264" lon="4.78314">
        <ele>207</ele>
        <time>2015-12-22T09:43:41.391Z</time>
      </trkpt>
      <trkpt lat="45.94267" lon="4.78316">
        <ele>207.100006104</ele>
        <time>2015-12-22T09:43:42.368Z</time>
      </trkpt>
      <trkpt lat="45.94273" lon="4.78321">
        <ele>207.800003052</ele>
        <time>2015-12-22T09:43:44.409Z</time>
      </trkpt>
      <trkpt lat="45.94276" lon="4.78324">
        <ele>206.399993896</ele>
        <time>2015-12-22T09:43:45.369Z</time>
      </trkpt>
      <trkpt lat="45.94282" lon="4.78329">
        <ele>206.699996948</ele>
        <time>2015-12-22T09:43:47.538Z</time>
      </trkpt>
      <trkpt lat="45.94284" lon="4.78332">
        <ele>206.899993896</ele>
        <time>2015-12-22T09:43:48.369Z</time>
      </trkpt>
      <trkpt lat="45.94289" lon="4.78339">
        <ele>208.300003052</ele>
        <time>2015-12-22T09:43:50.389Z</time>
      </trkpt>
      <trkpt lat="45.94292" lon="4.78341">
        <ele>208.699996948</ele>
        <time>2015-12-22T09:43:51.371Z</time>
      </trkpt>
      <trkpt lat="45.94296" lon="4.78348">
        <ele>208.899993896</ele>
        <time>2015-12-22T09:43:53.389Z</time>
      </trkpt>
      <trkpt lat="45.94297" lon="4.78352">
        <ele>209.699996948</ele>
        <time>2015-12-22T09:43:54.368Z</time>
      </trkpt>
      <trkpt lat="45.94301" lon="4.78363">
        <ele>210.699996948</ele>
        <time>2015-12-22T09:43:57.394Z</time>
      </trkpt>
      <trkpt lat="45.94303" lon="4.78367">
        <ele>211</ele>
        <time>2015-12-22T09:43:58.369Z</time>
      </trkpt>
      <trkpt lat="45.94306" lon="4.78375">
        <ele>212</ele>
        <time>2015-12-22T09:44:00.389Z</time>
      </trkpt>
      <trkpt lat="45.94308" lon="4.78379">
        <ele>212.300003052</ele>
        <time>2015-12-22T09:44:01.372Z</time>
      </trkpt>
      <trkpt lat="45.94313" lon="4.78389">
        <ele>214.100006104</ele>
        <time>2015-12-22T09:44:04.391Z</time>
      </trkpt>
      <trkpt lat="45.94314" lon="4.78393">
        <ele>214.399993896</ele>
        <time>2015-12-22T09:44:05.369Z</time>
      </trkpt>
      <trkpt lat="45.94317" lon="4.78401">
        <ele>215</ele>
        <time>2015-12-22T09:44:07.435Z</time>
      </trkpt>
      <trkpt lat="45.94319" lon="4.78404">
        <ele>215</ele>
        <time>2015-12-22T09:44:08.368Z</time>
      </trkpt>
      <trkpt lat="45.94324" lon="4.78414">
        <ele>215.5</ele>
        <time>2015-12-22T09:44:11.388Z</time>
      </trkpt>
      <trkpt lat="45.94326" lon="4.78417">
        <ele>215.600006104</ele>
        <time>2015-12-22T09:44:12.368Z</time>
      </trkpt>
      <trkpt lat="45.9433" lon="4.78428">
        <ele>216.399993896</ele>
        <time>2015-12-22T09:44:15.389Z</time>
      </trkpt>
      <trkpt lat="45.94332" lon="4.78431">
        <ele>216.899993896</ele>
        <time>2015-12-22T09:44:16.368Z</time>
      </trkpt>
      <trkpt lat="45.94336" lon="4.78437">
        <ele>216.800003052</ele>
        <time>2015-12-22T09:44:18.387Z</time>
      </trkpt>
      <trkpt lat="45.94338" lon="4.7844">
        <ele>216.800003052</ele>
        <time>2015-12-22T09:44:19.372Z</time>
      </trkpt>
      <trkpt lat="45.94343" lon="4.78447">
        <ele>216.899993896</ele>
        <time>2015-12-22T09:44:21.388Z</time>
      </trkpt>
      <trkpt lat="45.94345" lon="4.7845">
        <ele>217</ele>
        <time>2015-12-22T09:44:22.368Z</time>
      </trkpt>
      <trkpt lat="45.94351" lon="4.78458">
        <ele>217.600006104</ele>
        <time>2015-12-22T09:44:25.392Z</time>
      </trkpt>
      <trkpt lat="45.94353" lon="4.7846">
        <ele>217.800003052</ele>
        <time>2015-12-22T09:44:26.369Z</time>
      </trkpt>
      <trkpt lat="45.94357" lon="4.78465">
        <ele>218.199996948</ele>
        <time>2015-12-22T09:44:28.403Z</time>
      </trkpt>
      <trkpt lat="45.9436" lon="4.78469">
        <ele>218.199996948</ele>
        <time>2015-12-22T09:44:29.392Z</time>
      </trkpt>
      <trkpt lat="45.94365" lon="4.78476">
        <ele>218.5</ele>
        <time>2015-12-22T09:44:31.392Z</time>
      </trkpt>
      <trkpt lat="45.94368" lon="4.78479">
        <ele>218.800003052</ele>
        <time>2015-12-22T09:44:32.364Z</time>
      </trkpt>
      <trkpt lat="45.94373" lon="4.78484">
        <ele>219.5</ele>
        <time>2015-12-22T09:44:34.392Z</time>
      </trkpt>
      <trkpt lat="45.94376" lon="4.78487">
        <ele>219.800003052</ele>
        <time>2015-12-22T09:44:35.369Z</time>
      </trkpt>
      <trkpt lat="45.94382" lon="4.78493">
        <ele>220.399993896</ele>
        <time>2015-12-22T09:44:37.391Z</time>
      </trkpt>
      <trkpt lat="45.94385" lon="4.78496">
        <ele>220.300003052</ele>
        <time>2015-12-22T09:44:38.368Z</time>
      </trkpt>
      <trkpt lat="45.94391" lon="4.78504">
        <ele>221.100006104</ele>
        <time>2015-12-22T09:44:41.387Z</time>
      </trkpt>
      <trkpt lat="45.94393" lon="4.78507">
        <ele>221.5</ele>
        <time>2015-12-22T09:44:42.368Z</time>
      </trkpt>
      <trkpt lat="45.94398" lon="4.78513">
        <ele>222.100006104</ele>
        <time>2015-12-22T09:44:44.388Z</time>
      </trkpt>
      <trkpt lat="45.944" lon="4.78516">
        <ele>222.199996948</ele>
        <time>2015-12-22T09:44:45.369Z</time>
      </trkpt>
      <trkpt lat="45.94407" lon="4.78524">
        <ele>222.800003052</ele>
        <time>2015-12-22T09:44:48.395Z</time>
      </trkpt>
      <trkpt lat="45.94409" lon="4.78527">
        <ele>222.899993896</ele>
        <time>2015-12-22T09:44:49.394Z</time>
      </trkpt>
      <trkpt lat="45.94415" lon="4.78536">
        <ele>223.699996948</ele>
        <time>2015-12-22T09:44:52.387Z</time>
      </trkpt>
      <trkpt lat="45.94417" lon="4.7854">
        <ele>224</ele>
        <time>2015-12-22T09:44:53.37Z</time>
      </trkpt>
      <trkpt lat="45.94421" lon="4.78549">
        <ele>224.600006104</ele>
        <time>2015-12-22T09:44:56.392Z</time>
      </trkpt>
      <trkpt lat="45.94423" lon="4.78552">
        <ele>224.5</ele>
        <time>2015-12-22T09:44:57.371Z</time>
      </trkpt>
      <trkpt lat="45.9443" lon="4.7856">
        <ele>224.800003052</ele>
        <time>2015-12-22T09:45:00.391Z</time>
      </trkpt>
      <trkpt lat="45.94432" lon="4.78562">
        <ele>225</ele>
        <time>2015-12-22T09:45:01.377Z</time>
      </trkpt>
      <trkpt lat="45.94438" lon="4.78572">
        <ele>225.300003052</ele>
        <time>2015-12-22T09:45:04.45Z</time>
      </trkpt>
      <trkpt lat="45.9444" lon="4.78575">
        <ele>225.800003052</ele>
        <time>2015-12-22T09:45:05.374Z</time>
      </trkpt>
      <trkpt lat="45.94445" lon="4.78582">
        <ele>225.699996948</ele>
        <time>2015-12-22T09:45:07.393Z</time>
      </trkpt>
      <trkpt lat="45.94446" lon="4.78586">
        <ele>225.399993896</ele>
        <time>2015-12-22T09:45:08.369Z</time>
      </trkpt>
      <trkpt lat="45.94451" lon="4.78594">
        <ele>225.899993896</ele>
        <time>2015-12-22T09:45:10.528Z</time>
      </trkpt>
      <trkpt lat="45.94453" lon="4.78597">
        <ele>226.100006104</ele>
        <time>2015-12-22T09:45:11.37Z</time>
      </trkpt>
      <trkpt lat="45.94457" lon="4.78606">
        <ele>227.399993896</ele>
        <time>2015-12-22T09:45:14.411Z</time>
      </trkpt>
      <trkpt lat="45.94458" lon="4.7861">
        <ele>227.399993896</ele>
        <time>2015-12-22T09:45:15.371Z</time>
      </trkpt>
      <trkpt lat="45.9446" lon="4.78618">
        <ele>227.699996948</ele>
        <time>2015-12-22T09:45:17.462Z</time>
      </trkpt>
      <trkpt lat="45.94461" lon="4.78622">
        <ele>227.699996948</ele>
        <time>2015-12-22T09:45:18.368Z</time>
      </trkpt>
      <trkpt lat="45.94463" lon="4.78631">
        <ele>227</ele>
        <time>2015-12-22T09:45:20.388Z</time>
      </trkpt>
      <trkpt lat="45.94463" lon="4.78635">
        <ele>227.100006104</ele>
        <time>2015-12-22T09:45:21.371Z</time>
      </trkpt>
      <trkpt lat="45.94465" lon="4.78647">
        <ele>227.399993896</ele>
        <time>2015-12-22T09:45:24.391Z</time>
      </trkpt>
      <trkpt lat="45.94465" lon="4.78651">
        <ele>227.300003052</ele>
        <time>2015-12-22T09:45:25.372Z</time>
      </trkpt>
      <trkpt lat="45.94468" lon="4.78662">
        <ele>228.600006104</ele>
        <time>2015-12-22T09:45:28.438Z</time>
      </trkpt>
      <trkpt lat="45.94468" lon="4.78666">
        <ele>228.899993896</ele>
        <time>2015-12-22T09:45:29.368Z</time>
      </trkpt>
      <trkpt lat="45.94469" lon="4.78677">
        <ele>229.800003052</ele>
        <time>2015-12-22T09:45:32.388Z</time>
      </trkpt>
      <trkpt lat="45.9447" lon="4.78681">
        <ele>230.199996948</ele>
        <time>2015-12-22T09:45:33.37Z</time>
      </trkpt>
      <trkpt lat="45.94472" lon="4.78691">
        <ele>231.100006104</ele>
        <time>2015-12-22T09:45:36.388Z</time>
      </trkpt>
      <trkpt lat="45.94472" lon="4.78694">
        <ele>231.399993896</ele>
        <time>2015-12-22T09:45:37.372Z</time>
      </trkpt>
      <trkpt lat="45.94476" lon="4.78705">
        <ele>232.100006104</ele>
        <time>2015-12-22T09:45:40.389Z</time>
      </trkpt>
      <trkpt lat="45.94475" lon="4.78709">
        <ele>232.100006104</ele>
        <time>2015-12-22T09:45:41.371Z</time>
      </trkpt>
      <trkpt lat="45.94476" lon="4.7872">
        <ele>233.600006104</ele>
        <time>2015-12-22T09:45:44.389Z</time>
      </trkpt>
      <trkpt lat="45.94477" lon="4.78723">
        <ele>234.100006104</ele>
        <time>2015-12-22T09:45:45.37Z</time>
      </trkpt>
      <trkpt lat="45.94478" lon="4.78734">
        <ele>235</ele>
        <time>2015-12-22T09:45:48.488Z</time>
      </trkpt>
      <trkpt lat="45.94478" lon="4.78737">
        <ele>235.600006104</ele>
        <time>2015-12-22T09:45:49.375Z</time>
      </trkpt>
      <trkpt lat="45.94478" lon="4.78747">
        <ele>236.5</ele>
        <time>2015-12-22T09:45:52.41Z</time>
      </trkpt>
      <trkpt lat="45.94478" lon="4.78751">
        <ele>237</ele>
        <time>2015-12-22T09:45:53.37Z</time>
      </trkpt>
      <trkpt lat="45.9448" lon="4.78763">
        <ele>237.199996948</ele>
        <time>2015-12-22T09:45:56.395Z</time>
      </trkpt>
      <trkpt lat="45.9448" lon="4.78766">
        <ele>237.399993896</ele>
        <time>2015-12-22T09:45:57.37Z</time>
      </trkpt>
      <trkpt lat="45.94476" lon="4.78777">
        <ele>238.300003052</ele>
        <time>2015-12-22T09:46:01.392Z</time>
      </trkpt>
      <trkpt lat="45.94475" lon="4.7878">
        <ele>238.600006104</ele>
        <time>2015-12-22T09:46:02.37Z</time>
      </trkpt>
      <trkpt lat="45.94472" lon="4.78791">
        <ele>240</ele>
        <time>2015-12-22T09:46:06.389Z</time>
      </trkpt>
      <trkpt lat="45.94471" lon="4.78794">
        <ele>240.399993896</ele>
        <time>2015-12-22T09:46:07.372Z</time>
      </trkpt>
      <trkpt lat="45.94467" lon="4.788">
        <ele>241.199996948</ele>
        <time>2015-12-22T09:46:09.389Z</time>
      </trkpt>
      <trkpt lat="45.94464" lon="4.78803">
        <ele>241.600006104</ele>
        <time>2015-12-22T09:46:10.369Z</time>
      </trkpt>
      <trkpt lat="45.94461" lon="4.78812">
        <ele>242.300003052</ele>
        <time>2015-12-22T09:46:12.388Z</time>
      </trkpt>
      <trkpt lat="45.94461" lon="4.78816">
        <ele>242.600006104</ele>
        <time>2015-12-22T09:46:13.372Z</time>
      </trkpt>
      <trkpt lat="45.94458" lon="4.78825">
        <ele>243.800003052</ele>
        <time>2015-12-22T09:46:16.388Z</time>
      </trkpt>
      <trkpt lat="45.94458" lon="4.78828">
        <ele>243.600006104</ele>
        <time>2015-12-22T09:46:17.369Z</time>
      </trkpt>
      <trkpt lat="45.94456" lon="4.78839">
        <ele>243.699996948</ele>
        <time>2015-12-22T09:46:20.389Z</time>
      </trkpt>
      <trkpt lat="45.94456" lon="4.78843">
        <ele>244</ele>
        <time>2015-12-22T09:46:21.367Z</time>
      </trkpt>
      <trkpt lat="45.94455" lon="4.78853">
        <ele>244.100006104</ele>
        <time>2015-12-22T09:46:24.389Z</time>
      </trkpt>
      <trkpt lat="45.94455" lon="4.78857">
        <ele>244.199996948</ele>
        <time>2015-12-22T09:46:25.373Z</time>
      </trkpt>
      <trkpt lat="45.94453" lon="4.78869">
        <ele>245.100006104</ele>
        <time>2015-12-22T09:46:29.386Z</time>
      </trkpt>
      <trkpt lat="45.94453" lon="4.78872">
        <ele>245.399993896</ele>
        <time>2015-12-22T09:46:30.368Z</time>
      </trkpt>
      <trkpt lat="45.94453" lon="4.78884">
        <ele>245.800003052</ele>
        <time>2015-12-22T09:46:33.389Z</time>
      </trkpt>
      <trkpt lat="45.94453" lon="4.78887">
        <ele>246.199996948</ele>
        <time>2015-12-22T09:46:34.37Z</time>
      </trkpt>
      <trkpt lat="45.94454" lon="4.78898">
        <ele>246.199996948</ele>
        <time>2015-12-22T09:46:37.538Z</time>
      </trkpt>
      <trkpt lat="45.94455" lon="4.78901">
        <ele>246.399993896</ele>
        <time>2015-12-22T09:46:38.369Z</time>
      </trkpt>
      <trkpt lat="45.94455" lon="4.78911">
        <ele>247.300003052</ele>
        <time>2015-12-22T09:46:41.392Z</time>
      </trkpt>
      <trkpt lat="45.94456" lon="4.78915">
        <ele>247.800003052</ele>
        <time>2015-12-22T09:46:42.37Z</time>
      </trkpt>
      <trkpt lat="45.94458" lon="4.78925">
        <ele>248.399993896</ele>
        <time>2015-12-22T09:46:45.39Z</time>
      </trkpt>
      <trkpt lat="45.94459" lon="4.78928">
        <ele>248.800003052</ele>
        <time>2015-12-22T09:46:46.37Z</time>
      </trkpt>
      <trkpt lat="45.94464" lon="4.78939">
        <ele>248.399993896</ele>
        <time>2015-12-22T09:46:49.395Z</time>
      </trkpt>
      <trkpt lat="45.94465" lon="4.78943">
        <ele>248.5</ele>
        <time>2015-12-22T09:46:50.369Z</time>
      </trkpt>
      <trkpt lat="45.94469" lon="4.7895">
        <ele>248.100006104</ele>
        <time>2015-12-22T09:46:52.389Z</time>
      </trkpt>
      <trkpt lat="45.94471" lon="4.78954">
        <ele>247.800003052</ele>
        <time>2015-12-22T09:46:53.37Z</time>
      </trkpt>
      <trkpt lat="45.94476" lon="4.78964">
        <ele>248.300003052</ele>
        <time>2015-12-22T09:46:56.387Z</time>
      </trkpt>
      <trkpt lat="45.94477" lon="4.78968">
        <ele>248.5</ele>
        <time>2015-12-22T09:46:57.369Z</time>
      </trkpt>
      <trkpt lat="45.9448" lon="4.78976">
        <ele>249.199996948</ele>
        <time>2015-12-22T09:46:59.389Z</time>
      </trkpt>
      <trkpt lat="45.94481" lon="4.7898">
        <ele>249.800003052</ele>
        <time>2015-12-22T09:47:00.399Z</time>
      </trkpt>
      <trkpt lat="45.94485" lon="4.78987">
        <ele>250</ele>
        <time>2015-12-22T09:47:02.388Z</time>
      </trkpt>
      <trkpt lat="45.94487" lon="4.78991">
        <ele>250.300003052</ele>
        <time>2015-12-22T09:47:03.37Z</time>
      </trkpt>
      <trkpt lat="45.94492" lon="4.79001">
        <ele>250.699996948</ele>
        <time>2015-12-22T09:47:06.392Z</time>
      </trkpt>
      <trkpt lat="45.94493" lon="4.79004">
        <ele>250.699996948</ele>
        <time>2015-12-22T09:47:07.373Z</time>
      </trkpt>
      <trkpt lat="45.94497" lon="4.79012">
        <ele>250.699996948</ele>
        <time>2015-12-22T09:47:09.388Z</time>
      </trkpt>
      <trkpt lat="45.94498" lon="4.79015">
        <ele>250.899993896</ele>
        <time>2015-12-22T09:47:10.368Z</time>
      </trkpt>
      <trkpt lat="45.94503" lon="4.79024">
        <ele>251.399993896</ele>
        <time>2015-12-22T09:47:12.457Z</time>
      </trkpt>
      <trkpt lat="45.94505" lon="4.79028">
        <ele>251.5</ele>
        <time>2015-12-22T09:47:13.372Z</time>
      </trkpt>
      <trkpt lat="45.9451" lon="4.79037">
        <ele>251.699996948</ele>
        <time>2015-12-22T09:47:15.389Z</time>
      </trkpt>
      <trkpt lat="45.94512" lon="4.79041">
        <ele>251.800003052</ele>
        <time>2015-12-22T09:47:16.37Z</time>
      </trkpt>
      <trkpt lat="45.94517" lon="4.7905">
        <ele>251.899993896</ele>
        <time>2015-12-22T09:47:18.387Z</time>
      </trkpt>
      <trkpt lat="45.94519" lon="4.79053">
        <ele>252.699996948</ele>
        <time>2015-12-22T09:47:19.372Z</time>
      </trkpt>
      <trkpt lat="45.94523" lon="4.79062">
        <ele>253</ele>
        <time>2015-12-22T09:47:21.409Z</time>
      </trkpt>
      <trkpt lat="45.94525" lon="4.79066">
        <ele>253</ele>
        <time>2015-12-22T09:47:22.368Z</time>
      </trkpt>
      <trkpt lat="45.94531" lon="4.79076">
        <ele>253.100006104</ele>
        <time>2015-12-22T09:47:24.388Z</time>
      </trkpt>
      <trkpt lat="45.94533" lon="4.79081">
        <ele>253.199996948</ele>
        <time>2015-12-22T09:47:25.522Z</time>
      </trkpt>
      <trkpt lat="45.94535" lon="4.79087">
        <ele>252.800003052</ele>
        <time>2015-12-22T09:47:26.387Z</time>
      </trkpt>
      <trkpt lat="45.94539" lon="4.79095">
        <ele>249.899993896</ele>
        <time>2015-12-22T09:47:27.371Z</time>
      </trkpt>
      <trkpt lat="45.94545" lon="4.79105">
        <ele>249.600006104</ele>
        <time>2015-12-22T09:47:29.388Z</time>
      </trkpt>
      <trkpt lat="45.94547" lon="4.7911">
        <ele>249.800003052</ele>
        <time>2015-12-22T09:47:30.37Z</time>
      </trkpt>
      <trkpt lat="45.9455" lon="4.79116">
        <ele>249.800003052</ele>
        <time>2015-12-22T09:47:31.391Z</time>
      </trkpt>
      <trkpt lat="45.94553" lon="4.79121">
        <ele>249.800003052</ele>
        <time>2015-12-22T09:47:32.376Z</time>
      </trkpt>
      <trkpt lat="45.94556" lon="4.79127">
        <ele>249.699996948</ele>
        <time>2015-12-22T09:47:33.389Z</time>
      </trkpt>
      <trkpt lat="45.94558" lon="4.79132">
        <ele>249.899993896</ele>
        <time>2015-12-22T09:47:34.369Z</time>
      </trkpt>
      <trkpt lat="45.94565" lon="4.7914">
        <ele>249.899993896</ele>
        <time>2015-12-22T09:47:36.389Z</time>
      </trkpt>
      <trkpt lat="45.94568" lon="4.79144">
        <ele>250</ele>
        <time>2015-12-22T09:47:37.371Z</time>
      </trkpt>
      <trkpt lat="45.94571" lon="4.7915">
        <ele>249.899993896</ele>
        <time>2015-12-22T09:47:38.389Z</time>
      </trkpt>
      <trkpt lat="45.94573" lon="4.79156">
        <ele>250</ele>
        <time>2015-12-22T09:47:39.371Z</time>
      </trkpt>
      <trkpt lat="45.94576" lon="4.79161">
        <ele>250.100006104</ele>
        <time>2015-12-22T09:47:40.389Z</time>
      </trkpt>
      <trkpt lat="45.94579" lon="4.79167">
        <ele>250.100006104</ele>
        <time>2015-12-22T09:47:41.369Z</time>
      </trkpt>
      <trkpt lat="45.94582" lon="4.79173">
        <ele>250</ele>
        <time>2015-12-22T09:47:42.402Z</time>
      </trkpt>
      <trkpt lat="45.94584" lon="4.79181">
        <ele>250.199996948</ele>
        <time>2015-12-22T09:47:43.372Z</time>
      </trkpt>
      <trkpt lat="45.94587" lon="4.79187">
        <ele>250.600006104</ele>
        <time>2015-12-22T09:47:44.389Z</time>
      </trkpt>
      <trkpt lat="45.9459" lon="4.79195">
        <ele>250.600006104</ele>
        <time>2015-12-22T09:47:45.369Z</time>
      </trkpt>
      <trkpt lat="45.94593" lon="4.79201">
        <ele>250.600006104</ele>
        <time>2015-12-22T09:47:46.388Z</time>
      </trkpt>
      <trkpt lat="45.94595" lon="4.79209">
        <ele>250.600006104</ele>
        <time>2015-12-22T09:47:47.369Z</time>
      </trkpt>
      <trkpt lat="45.94599" lon="4.79215">
        <ele>250.800003052</ele>
        <time>2015-12-22T09:47:48.387Z</time>
      </trkpt>
      <trkpt lat="45.94602" lon="4.79221">
        <ele>250.899993896</ele>
        <time>2015-12-22T09:47:49.375Z</time>
      </trkpt>
      <trkpt lat="45.94604" lon="4.79229">
        <ele>250.899993896</ele>
        <time>2015-12-22T09:47:50.387Z</time>
      </trkpt>
      <trkpt lat="45.94608" lon="4.79235">
        <ele>250.600006104</ele>
        <time>2015-12-22T09:47:51.369Z</time>
      </trkpt>
      <trkpt lat="45.94611" lon="4.79242">
        <ele>250.199996948</ele>
        <time>2015-12-22T09:47:52.387Z</time>
      </trkpt>
      <trkpt lat="45.94614" lon="4.79248">
        <ele>249.600006104</ele>
        <time>2015-12-22T09:47:53.369Z</time>
      </trkpt>
      <trkpt lat="45.94619" lon="4.79252">
        <ele>248.899993896</ele>
        <time>2015-12-22T09:47:54.388Z</time>
      </trkpt>
      <trkpt lat="45.94622" lon="4.79258">
        <ele>248.800003052</ele>
        <time>2015-12-22T09:47:55.371Z</time>
      </trkpt>
      <trkpt lat="45.94626" lon="4.79265">
        <ele>248.699996948</ele>
        <time>2015-12-22T09:47:56.388Z</time>
      </trkpt>
      <trkpt lat="45.94628" lon="4.79271">
        <ele>249</ele>
        <time>2015-12-22T09:47:57.371Z</time>
      </trkpt>
      <trkpt lat="45.94632" lon="4.79277">
        <ele>248.600006104</ele>
        <time>2015-12-22T09:47:58.427Z</time>
      </trkpt>
      <trkpt lat="45.94635" lon="4.79284">
        <ele>248.399993896</ele>
        <time>2015-12-22T09:47:59.37Z</time>
      </trkpt>
      <trkpt lat="45.94638" lon="4.7929">
        <ele>248.199996948</ele>
        <time>2015-12-22T09:48:00.387Z</time>
      </trkpt>
      <trkpt lat="45.94641" lon="4.79297">
        <ele>248</ele>
        <time>2015-12-22T09:48:01.372Z</time>
      </trkpt>
      <trkpt lat="45.94644" lon="4.79304">
        <ele>247.800003052</ele>
        <time>2015-12-22T09:48:02.387Z</time>
      </trkpt>
      <trkpt lat="45.94647" lon="4.79311">
        <ele>247.800003052</ele>
        <time>2015-12-22T09:48:03.37Z</time>
      </trkpt>
      <trkpt lat="45.9465" lon="4.79318">
        <ele>248</ele>
        <time>2015-12-22T09:48:04.427Z</time>
      </trkpt>
      <trkpt lat="45.94654" lon="4.79326">
        <ele>248.399993896</ele>
        <time>2015-12-22T09:48:05.37Z</time>
      </trkpt>
      <trkpt lat="45.94657" lon="4.79333">
        <ele>248.399993896</ele>
        <time>2015-12-22T09:48:06.389Z</time>
      </trkpt>
      <trkpt lat="45.94661" lon="4.79341">
        <ele>248.5</ele>
        <time>2015-12-22T09:48:07.373Z</time>
      </trkpt>
      <trkpt lat="45.94664" lon="4.79347">
        <ele>248.600006104</ele>
        <time>2015-12-22T09:48:08.387Z</time>
      </trkpt>
      <trkpt lat="45.94667" lon="4.79354">
        <ele>248.399993896</ele>
        <time>2015-12-22T09:48:09.37Z</time>
      </trkpt>
      <trkpt lat="45.94671" lon="4.79361">
        <ele>248.199996948</ele>
        <time>2015-12-22T09:48:10.494Z</time>
      </trkpt>
      <trkpt lat="45.94674" lon="4.79367">
        <ele>248.600006104</ele>
        <time>2015-12-22T09:48:11.369Z</time>
      </trkpt>
      <trkpt lat="45.94678" lon="4.79374">
        <ele>248.899993896</ele>
        <time>2015-12-22T09:48:12.388Z</time>
      </trkpt>
      <trkpt lat="45.94681" lon="4.79381">
        <ele>249.300003052</ele>
        <time>2015-12-22T09:48:13.398Z</time>
      </trkpt>
      <trkpt lat="45.94685" lon="4.7939">
        <ele>248.899993896</ele>
        <time>2015-12-22T09:48:14.402Z</time>
      </trkpt>
      <trkpt lat="45.94689" lon="4.79398">
        <ele>248.899993896</ele>
        <time>2015-12-22T09:48:15.37Z</time>
      </trkpt>
      <trkpt lat="45.94692" lon="4.79405">
        <ele>248.699996948</ele>
        <time>2015-12-22T09:48:16.511Z</time>
      </trkpt>
      <trkpt lat="45.94695" lon="4.79411">
        <ele>248.699996948</ele>
        <time>2015-12-22T09:48:17.37Z</time>
      </trkpt>
      <trkpt lat="45.94699" lon="4.79418">
        <ele>248.600006104</ele>
        <time>2015-12-22T09:48:18.394Z</time>
      </trkpt>
      <trkpt lat="45.94703" lon="4.79425">
        <ele>247.899993896</ele>
        <time>2015-12-22T09:48:19.373Z</time>
      </trkpt>
      <trkpt lat="45.94706" lon="4.79431">
        <ele>247.800003052</ele>
        <time>2015-12-22T09:48:20.387Z</time>
      </trkpt>
      <trkpt lat="45.94709" lon="4.79438">
        <ele>247.800003052</ele>
        <time>2015-12-22T09:48:21.369Z</time>
      </trkpt>
      <trkpt lat="45.94713" lon="4.79445">
        <ele>247.5</ele>
        <time>2015-12-22T09:48:22.387Z</time>
      </trkpt>
      <trkpt lat="45.94716" lon="4.79453">
        <ele>247.100006104</ele>
        <time>2015-12-22T09:48:23.368Z</time>
      </trkpt>
      <trkpt lat="45.9472" lon="4.79461">
        <ele>246.5</ele>
        <time>2015-12-22T09:48:24.398Z</time>
      </trkpt>
      <trkpt lat="45.94724" lon="4.79469">
        <ele>246.5</ele>
        <time>2015-12-22T09:48:25.372Z</time>
      </trkpt>
      <trkpt lat="45.94727" lon="4.79477">
        <ele>246.600006104</ele>
        <time>2015-12-22T09:48:26.388Z</time>
      </trkpt>
      <trkpt lat="45.9473" lon="4.79485">
        <ele>246.5</ele>
        <time>2015-12-22T09:48:27.371Z</time>
      </trkpt>
      <trkpt lat="45.94734" lon="4.79494">
        <ele>246.600006104</ele>
        <time>2015-12-22T09:48:28.426Z</time>
      </trkpt>
      <trkpt lat="45.94737" lon="4.79503">
        <ele>246.600006104</ele>
        <time>2015-12-22T09:48:29.369Z</time>
      </trkpt>
      <trkpt lat="45.9474" lon="4.79511">
        <ele>246.899993896</ele>
        <time>2015-12-22T09:48:30.387Z</time>
      </trkpt>
      <trkpt lat="45.94744" lon="4.7952">
        <ele>246.600006104</ele>
        <time>2015-12-22T09:48:31.373Z</time>
      </trkpt>
      <trkpt lat="45.94747" lon="4.79529">
        <ele>246.600006104</ele>
        <time>2015-12-22T09:48:32.428Z</time>
      </trkpt>
      <trkpt lat="45.94751" lon="4.79537">
        <ele>246.600006104</ele>
        <time>2015-12-22T09:48:33.369Z</time>
      </trkpt>
      <trkpt lat="45.94754" lon="4.79545">
        <ele>246.600006104</ele>
        <time>2015-12-22T09:48:34.388Z</time>
      </trkpt>
      <trkpt lat="45.94756" lon="4.79553">
        <ele>246.699996948</ele>
        <time>2015-12-22T09:48:35.368Z</time>
      </trkpt>
      <trkpt lat="45.94759" lon="4.79561">
        <ele>246.699996948</ele>
        <time>2015-12-22T09:48:36.388Z</time>
      </trkpt>
      <trkpt lat="45.9476" lon="4.79568">
        <ele>246.800003052</ele>
        <time>2015-12-22T09:48:37.372Z</time>
      </trkpt>
      <trkpt lat="45.94761" lon="4.79576">
        <ele>247</ele>
        <time>2015-12-22T09:48:38.388Z</time>
      </trkpt>
      <trkpt lat="45.9476" lon="4.79584">
        <ele>247</ele>
        <time>2015-12-22T09:48:39.371Z</time>
      </trkpt>
      <trkpt lat="45.9476" lon="4.79592">
        <ele>247.100006104</ele>
        <time>2015-12-22T09:48:40.404Z</time>
      </trkpt>
      <trkpt lat="45.9476" lon="4.796">
        <ele>247.199996948</ele>
        <time>2015-12-22T09:48:41.369Z</time>
      </trkpt>
      <trkpt lat="45.94762" lon="4.79609">
        <ele>246.899993896</ele>
        <time>2015-12-22T09:48:42.388Z</time>
      </trkpt>
      <trkpt lat="45.94764" lon="4.79616">
        <ele>246.600006104</ele>
        <time>2015-12-22T09:48:43.372Z</time>
      </trkpt>
      <trkpt lat="45.94766" lon="4.79624">
        <ele>246.600006104</ele>
        <time>2015-12-22T09:48:44.388Z</time>
      </trkpt>
      <trkpt lat="45.94768" lon="4.79632">
        <ele>246.5</ele>
        <time>2015-12-22T09:48:45.37Z</time>
      </trkpt>
      <trkpt lat="45.94771" lon="4.79641">
        <ele>246.5</ele>
        <time>2015-12-22T09:48:46.386Z</time>
      </trkpt>
      <trkpt lat="45.94772" lon="4.79649">
        <ele>246.5</ele>
        <time>2015-12-22T09:48:47.369Z</time>
      </trkpt>
      <trkpt lat="45.94774" lon="4.79657">
        <ele>246.699996948</ele>
        <time>2015-12-22T09:48:48.403Z</time>
      </trkpt>
      <trkpt lat="45.94776" lon="4.79665">
        <ele>246.699996948</ele>
        <time>2015-12-22T09:48:49.374Z</time>
      </trkpt>
      <trkpt lat="45.94779" lon="4.79673">
        <ele>246.600006104</ele>
        <time>2015-12-22T09:48:50.442Z</time>
      </trkpt>
      <trkpt lat="45.94782" lon="4.7968">
        <ele>246.699996948</ele>
        <time>2015-12-22T09:48:51.369Z</time>
      </trkpt>
      <trkpt lat="45.94784" lon="4.79688">
        <ele>247</ele>
        <time>2015-12-22T09:48:52.389Z</time>
      </trkpt>
      <trkpt lat="45.94787" lon="4.79696">
        <ele>247.199996948</ele>
        <time>2015-12-22T09:48:53.369Z</time>
      </trkpt>
      <trkpt lat="45.94789" lon="4.79704">
        <ele>247.199996948</ele>
        <time>2015-12-22T09:48:54.422Z</time>
      </trkpt>
      <trkpt lat="45.94791" lon="4.79712">
        <ele>247.399993896</ele>
        <time>2015-12-22T09:48:55.372Z</time>
      </trkpt>
      <trkpt lat="45.94793" lon="4.79719">
        <ele>247.399993896</ele>
        <time>2015-12-22T09:48:56.387Z</time>
      </trkpt>
      <trkpt lat="45.94796" lon="4.79728">
        <ele>247.5</ele>
        <time>2015-12-22T09:48:57.371Z</time>
      </trkpt>
      <trkpt lat="45.94799" lon="4.79737">
        <ele>247.5</ele>
        <time>2015-12-22T09:48:58.516Z</time>
      </trkpt>
      <trkpt lat="45.94801" lon="4.79745">
        <ele>247.699996948</ele>
        <time>2015-12-22T09:48:59.37Z</time>
      </trkpt>
      <trkpt lat="45.94804" lon="4.79754">
        <ele>247.699996948</ele>
        <time>2015-12-22T09:49:00.389Z</time>
      </trkpt>
      <trkpt lat="45.94807" lon="4.79762">
        <ele>247.899993896</ele>
        <time>2015-12-22T09:49:01.372Z</time>
      </trkpt>
      <trkpt lat="45.94809" lon="4.79771">
        <ele>247.699996948</ele>
        <time>2015-12-22T09:49:02.389Z</time>
      </trkpt>
      <trkpt lat="45.94812" lon="4.7978">
        <ele>247.399993896</ele>
        <time>2015-12-22T09:49:03.369Z</time>
      </trkpt>
      <trkpt lat="45.94815" lon="4.79788">
        <ele>247.600006104</ele>
        <time>2015-12-22T09:49:04.387Z</time>
      </trkpt>
      <trkpt lat="45.94816" lon="4.79797">
        <ele>247.5</ele>
        <time>2015-12-22T09:49:05.369Z</time>
      </trkpt>
      <trkpt lat="45.94818" lon="4.79806">
        <ele>247.600006104</ele>
        <time>2015-12-22T09:49:06.404Z</time>
      </trkpt>
      <trkpt lat="45.9482" lon="4.79814">
        <ele>247.399993896</ele>
        <time>2015-12-22T09:49:07.372Z</time>
      </trkpt>
      <trkpt lat="45.94821" lon="4.79821">
        <ele>247.399993896</ele>
        <time>2015-12-22T09:49:08.448Z</time>
      </trkpt>
      <trkpt lat="45.94823" lon="4.79829">
        <ele>247.399993896</ele>
        <time>2015-12-22T09:49:09.37Z</time>
      </trkpt>
      <trkpt lat="45.94824" lon="4.79838">
        <ele>247.5</ele>
        <time>2015-12-22T09:49:10.403Z</time>
      </trkpt>
      <trkpt lat="45.94826" lon="4.79845">
        <ele>247.899993896</ele>
        <time>2015-12-22T09:49:11.368Z</time>
      </trkpt>
      <trkpt lat="45.94828" lon="4.79852">
        <ele>248</ele>
        <time>2015-12-22T09:49:12.387Z</time>
      </trkpt>
      <trkpt lat="45.94831" lon="4.7986">
        <ele>248.5</ele>
        <time>2015-12-22T09:49:13.372Z</time>
      </trkpt>
      <trkpt lat="45.94833" lon="4.79867">
        <ele>249.100006104</ele>
        <time>2015-12-22T09:49:14.387Z</time>
      </trkpt>
      <trkpt lat="45.94835" lon="4.79874">
        <ele>249.600006104</ele>
        <time>2015-12-22T09:49:15.371Z</time>
      </trkpt>
      <trkpt lat="45.94837" lon="4.79881">
        <ele>249.800003052</ele>
        <time>2015-12-22T09:49:16.394Z</time>
      </trkpt>
      <trkpt lat="45.94839" lon="4.79889">
        <ele>250</ele>
        <time>2015-12-22T09:49:17.369Z</time>
      </trkpt>
      <trkpt lat="45.94841" lon="4.79896">
        <ele>250.399993896</ele>
        <time>2015-12-22T09:49:18.389Z</time>
      </trkpt>
      <trkpt lat="45.94844" lon="4.79903">
        <ele>250.600006104</ele>
        <time>2015-12-22T09:49:19.373Z</time>
      </trkpt>
      <trkpt lat="45.94847" lon="4.7991">
        <ele>250.600006104</ele>
        <time>2015-12-22T09:49:20.403Z</time>
      </trkpt>
      <trkpt lat="45.94849" lon="4.79917">
        <ele>250.800003052</ele>
        <time>2015-12-22T09:49:21.371Z</time>
      </trkpt>
      <trkpt lat="45.94852" lon="4.79923">
        <ele>251.5</ele>
        <time>2015-12-22T09:49:22.389Z</time>
      </trkpt>
      <trkpt lat="45.94855" lon="4.79929">
        <ele>251.899993896</ele>
        <time>2015-12-22T09:49:23.37Z</time>
      </trkpt>
      <trkpt lat="45.94857" lon="4.79935">
        <ele>252.300003052</ele>
        <time>2015-12-22T09:49:24.388Z</time>
      </trkpt>
      <trkpt lat="45.9486" lon="4.79941">
        <ele>252.5</ele>
        <time>2015-12-22T09:49:25.373Z</time>
      </trkpt>
      <trkpt lat="45.94863" lon="4.79947">
        <ele>252.600006104</ele>
        <time>2015-12-22T09:49:26.388Z</time>
      </trkpt>
      <trkpt lat="45.94866" lon="4.79954">
        <ele>253</ele>
        <time>2015-12-22T09:49:27.371Z</time>
      </trkpt>
      <trkpt lat="45.94869" lon="4.7996">
        <ele>253.399993896</ele>
        <time>2015-12-22T09:49:28.388Z</time>
      </trkpt>
      <trkpt lat="45.94872" lon="4.79968">
        <ele>253.699996948</ele>
        <time>2015-12-22T09:49:29.368Z</time>
      </trkpt>
      <trkpt lat="45.94875" lon="4.79975">
        <ele>253.800003052</ele>
        <time>2015-12-22T09:49:30.388Z</time>
      </trkpt>
      <trkpt lat="45.94877" lon="4.79982">
        <ele>254</ele>
        <time>2015-12-22T09:49:31.372Z</time>
      </trkpt>
      <trkpt lat="45.9488" lon="4.7999">
        <ele>254.300003052</ele>
        <time>2015-12-22T09:49:32.402Z</time>
      </trkpt>
      <trkpt lat="45.94883" lon="4.79997">
        <ele>254.5</ele>
        <time>2015-12-22T09:49:33.37Z</time>
      </trkpt>
      <trkpt lat="45.94885" lon="4.80004">
        <ele>254.399993896</ele>
        <time>2015-12-22T09:49:34.389Z</time>
      </trkpt>
      <trkpt lat="45.94888" lon="4.80012">
        <ele>254.199996948</ele>
        <time>2015-12-22T09:49:35.369Z</time>
      </trkpt>
      <trkpt lat="45.9489" lon="4.80019">
        <ele>254.5</ele>
        <time>2015-12-22T09:49:36.388Z</time>
      </trkpt>
      <trkpt lat="45.94892" lon="4.80027">
        <ele>254.600006104</ele>
        <time>2015-12-22T09:49:37.376Z</time>
      </trkpt>
      <trkpt lat="45.94895" lon="4.80034">
        <ele>254.600006104</ele>
        <time>2015-12-22T09:49:38.389Z</time>
      </trkpt>
      <trkpt lat="45.94897" lon="4.80042">
        <ele>254.600006104</ele>
        <time>2015-12-22T09:49:39.371Z</time>
      </trkpt>
      <trkpt lat="45.94899" lon="4.80049">
        <ele>254.600006104</ele>
        <time>2015-12-22T09:49:40.388Z</time>
      </trkpt>
      <trkpt lat="45.94901" lon="4.80057">
        <ele>254.399993896</ele>
        <time>2015-12-22T09:49:41.368Z</time>
      </trkpt>
      <trkpt lat="45.94903" lon="4.80065">
        <ele>254.600006104</ele>
        <time>2015-12-22T09:49:42.391Z</time>
      </trkpt>
      <trkpt lat="45.94904" lon="4.80073">
        <ele>254.899993896</ele>
        <time>2015-12-22T09:49:43.397Z</time>
      </trkpt>
      <trkpt lat="45.94906" lon="4.8008">
        <ele>255.199996948</ele>
        <time>2015-12-22T09:49:44.388Z</time>
      </trkpt>
      <trkpt lat="45.94908" lon="4.80088">
        <ele>255.800003052</ele>
        <time>2015-12-22T09:49:45.37Z</time>
      </trkpt>
      <trkpt lat="45.9491" lon="4.80095">
        <ele>255.800003052</ele>
        <time>2015-12-22T09:49:46.389Z</time>
      </trkpt>
      <trkpt lat="45.94911" lon="4.80104">
        <ele>256.100006104</ele>
        <time>2015-12-22T09:49:47.368Z</time>
      </trkpt>
      <trkpt lat="45.94912" lon="4.80113">
        <ele>256.399993896</ele>
        <time>2015-12-22T09:49:48.407Z</time>
      </trkpt>
      <trkpt lat="45.94913" lon="4.80122">
        <ele>256.799987793</ele>
        <time>2015-12-22T09:49:49.376Z</time>
      </trkpt>
      <trkpt lat="45.94916" lon="4.8013">
        <ele>256.899993896</ele>
        <time>2015-12-22T09:49:50.507Z</time>
      </trkpt>
      <trkpt lat="45.94917" lon="4.80138">
        <ele>256.799987793</ele>
        <time>2015-12-22T09:49:51.371Z</time>
      </trkpt>
      <trkpt lat="45.94919" lon="4.80145">
        <ele>257</ele>
        <time>2015-12-22T09:49:52.388Z</time>
      </trkpt>
      <trkpt lat="45.9492" lon="4.80153">
        <ele>256.899993896</ele>
        <time>2015-12-22T09:49:53.368Z</time>
      </trkpt>
      <trkpt lat="45.94922" lon="4.8016">
        <ele>256.799987793</ele>
        <time>2015-12-22T09:49:54.387Z</time>
      </trkpt>
      <trkpt lat="45.94924" lon="4.80168">
        <ele>256.600006104</ele>
        <time>2015-12-22T09:49:55.372Z</time>
      </trkpt>
      <trkpt lat="45.94925" lon="4.80176">
        <ele>256.5</ele>
        <time>2015-12-22T09:49:56.387Z</time>
      </trkpt>
      <trkpt lat="45.94926" lon="4.80184">
        <ele>256.899993896</ele>
        <time>2015-12-22T09:49:57.37Z</time>
      </trkpt>
      <trkpt lat="45.94928" lon="4.80191">
        <ele>257</ele>
        <time>2015-12-22T09:49:58.388Z</time>
      </trkpt>
      <trkpt lat="45.94929" lon="4.80199">
        <ele>256.799987793</ele>
        <time>2015-12-22T09:49:59.368Z</time>
      </trkpt>
      <trkpt lat="45.9493" lon="4.80206">
        <ele>257</ele>
        <time>2015-12-22T09:50:00.477Z</time>
      </trkpt>
      <trkpt lat="45.94931" lon="4.80213">
        <ele>257.299987793</ele>
        <time>2015-12-22T09:50:01.372Z</time>
      </trkpt>
      <trkpt lat="45.94932" lon="4.80221">
        <ele>257.100006104</ele>
        <time>2015-12-22T09:50:02.388Z</time>
      </trkpt>
      <trkpt lat="45.94933" lon="4.80228">
        <ele>257</ele>
        <time>2015-12-22T09:50:03.369Z</time>
      </trkpt>
      <trkpt lat="45.94934" lon="4.80236">
        <ele>256.700012207</ele>
        <time>2015-12-22T09:50:04.404Z</time>
      </trkpt>
      <trkpt lat="45.94935" lon="4.80243">
        <ele>256.399993896</ele>
        <time>2015-12-22T09:50:05.418Z</time>
      </trkpt>
      <trkpt lat="45.94936" lon="4.80251">
        <ele>256.299987793</ele>
        <time>2015-12-22T09:50:06.388Z</time>
      </trkpt>
      <trkpt lat="45.94936" lon="4.80259">
        <ele>256.5</ele>
        <time>2015-12-22T09:50:07.374Z</time>
      </trkpt>
      <trkpt lat="45.94937" lon="4.80266">
        <ele>256.200012207</ele>
        <time>2015-12-22T09:50:08.392Z</time>
      </trkpt>
      <trkpt lat="45.94938" lon="4.80273">
        <ele>256.200012207</ele>
        <time>2015-12-22T09:50:09.37Z</time>
      </trkpt>
      <trkpt lat="45.94938" lon="4.80281">
        <ele>256.200012207</ele>
        <time>2015-12-22T09:50:10.386Z</time>
      </trkpt>
      <trkpt lat="45.94939" lon="4.80289">
        <ele>256.299987793</ele>
        <time>2015-12-22T09:50:11.414Z</time>
      </trkpt>
      <trkpt lat="45.94939" lon="4.80296">
        <ele>256.5</ele>
        <time>2015-12-22T09:50:12.388Z</time>
      </trkpt>
      <trkpt lat="45.9494" lon="4.80304">
        <ele>256.600006104</ele>
        <time>2015-12-22T09:50:13.372Z</time>
      </trkpt>
      <trkpt lat="45.9494" lon="4.80311">
        <ele>257.100006104</ele>
        <time>2015-12-22T09:50:14.388Z</time>
      </trkpt>
      <trkpt lat="45.9494" lon="4.80319">
        <ele>257.600006104</ele>
        <time>2015-12-22T09:50:15.37Z</time>
      </trkpt>
      <trkpt lat="45.9494" lon="4.80326">
        <ele>257.600006104</ele>
        <time>2015-12-22T09:50:16.389Z</time>
      </trkpt>
      <trkpt lat="45.9494" lon="4.80333">
        <ele>257.799987793</ele>
        <time>2015-12-22T09:50:17.369Z</time>
      </trkpt>
      <trkpt lat="45.9494" lon="4.8034">
        <ele>257.799987793</ele>
        <time>2015-12-22T09:50:18.387Z</time>
      </trkpt>
      <trkpt lat="45.9494" lon="4.80348">
        <ele>258.700012207</ele>
        <time>2015-12-22T09:50:19.372Z</time>
      </trkpt>
      <trkpt lat="45.9494" lon="4.80357">
        <ele>258.799987793</ele>
        <time>2015-12-22T09:50:20.403Z</time>
      </trkpt>
      <trkpt lat="45.9494" lon="4.80364">
        <ele>259.100006104</ele>
        <time>2015-12-22T09:50:21.366Z</time>
      </trkpt>
      <trkpt lat="45.9494" lon="4.80372">
        <ele>259</ele>
        <time>2015-12-22T09:50:22.388Z</time>
      </trkpt>
      <trkpt lat="45.9494" lon="4.8038">
        <ele>259</ele>
        <time>2015-12-22T09:50:23.369Z</time>
      </trkpt>
      <trkpt lat="45.94941" lon="4.80388">
        <ele>259</ele>
        <time>2015-12-22T09:50:24.387Z</time>
      </trkpt>
      <trkpt lat="45.94941" lon="4.80396">
        <ele>259.200012207</ele>
        <time>2015-12-22T09:50:25.371Z</time>
      </trkpt>
      <trkpt lat="45.94941" lon="4.80404">
        <ele>259.5</ele>
        <time>2015-12-22T09:50:26.387Z</time>
      </trkpt>
      <trkpt lat="45.94941" lon="4.80412">
        <ele>259.5</ele>
        <time>2015-12-22T09:50:27.37Z</time>
      </trkpt>
      <trkpt lat="45.94941" lon="4.80419">
        <ele>259.600006104</ele>
        <time>2015-12-22T09:50:28.471Z</time>
      </trkpt>
      <trkpt lat="45.94941" lon="4.80426">
        <ele>260</ele>
        <time>2015-12-22T09:50:29.368Z</time>
      </trkpt>
      <trkpt lat="45.94941" lon="4.80434">
        <ele>260.5</ele>
        <time>2015-12-22T09:50:30.388Z</time>
      </trkpt>
      <trkpt lat="45.94941" lon="4.80442">
        <ele>260.799987793</ele>
        <time>2015-12-22T09:50:31.372Z</time>
      </trkpt>
      <trkpt lat="45.94942" lon="4.8045">
        <ele>260.899993896</ele>
        <time>2015-12-22T09:50:32.477Z</time>
      </trkpt>
      <trkpt lat="45.94942" lon="4.80458">
        <ele>260.799987793</ele>
        <time>2015-12-22T09:50:33.371Z</time>
      </trkpt>
      <trkpt lat="45.94942" lon="4.80466">
        <ele>260.700012207</ele>
        <time>2015-12-22T09:50:34.391Z</time>
      </trkpt>
      <trkpt lat="45.94942" lon="4.80475">
        <ele>260.700012207</ele>
        <time>2015-12-22T09:50:35.369Z</time>
      </trkpt>
      <trkpt lat="45.94943" lon="4.80484">
        <ele>261</ele>
        <time>2015-12-22T09:50:36.402Z</time>
      </trkpt>
      <trkpt lat="45.94943" lon="4.80492">
        <ele>261.5</ele>
        <time>2015-12-22T09:50:37.372Z</time>
      </trkpt>
      <trkpt lat="45.94943" lon="4.80501">
        <ele>261.5</ele>
        <time>2015-12-22T09:50:38.388Z</time>
      </trkpt>
      <trkpt lat="45.94943" lon="4.80509">
        <ele>261.399993896</ele>
        <time>2015-12-22T09:50:39.37Z</time>
      </trkpt>
      <trkpt lat="45.94943" lon="4.80517">
        <ele>261.399993896</ele>
        <time>2015-12-22T09:50:40.388Z</time>
      </trkpt>
      <trkpt lat="45.94943" lon="4.80525">
        <ele>261.399993896</ele>
        <time>2015-12-22T09:50:41.369Z</time>
      </trkpt>
      <trkpt lat="45.94943" lon="4.80534">
        <ele>261.700012207</ele>
        <time>2015-12-22T09:50:42.388Z</time>
      </trkpt>
      <trkpt lat="45.94944" lon="4.80542">
        <ele>261.700012207</ele>
        <time>2015-12-22T09:50:43.364Z</time>
      </trkpt>
      <trkpt lat="45.94945" lon="4.8055">
        <ele>261.299987793</ele>
        <time>2015-12-22T09:50:44.393Z</time>
      </trkpt>
      <trkpt lat="45.94945" lon="4.80558">
        <ele>261.299987793</ele>
        <time>2015-12-22T09:50:45.37Z</time>
      </trkpt>
      <trkpt lat="45.94945" lon="4.80566">
        <ele>261</ele>
        <time>2015-12-22T09:50:46.387Z</time>
      </trkpt>
      <trkpt lat="45.94945" lon="4.80575">
        <ele>260.899993896</ele>
        <time>2015-12-22T09:50:47.368Z</time>
      </trkpt>
      <trkpt lat="45.94946" lon="4.80582">
        <ele>261.200012207</ele>
        <time>2015-12-22T09:50:48.387Z</time>
      </trkpt>
      <trkpt lat="45.94945" lon="4.80591">
        <ele>261.200012207</ele>
        <time>2015-12-22T09:50:49.377Z</time>
      </trkpt>
      <trkpt lat="45.94946" lon="4.80599">
        <ele>261.5</ele>
        <time>2015-12-22T09:50:50.388Z</time>
      </trkpt>
      <trkpt lat="45.94947" lon="4.80607">
        <ele>261.600006104</ele>
        <time>2015-12-22T09:50:51.368Z</time>
      </trkpt>
      <trkpt lat="45.94947" lon="4.80615">
        <ele>261.299987793</ele>
        <time>2015-12-22T09:50:52.402Z</time>
      </trkpt>
      <trkpt lat="45.94947" lon="4.80623">
        <ele>260.899993896</ele>
        <time>2015-12-22T09:50:53.369Z</time>
      </trkpt>
      <trkpt lat="45.94948" lon="4.80631">
        <ele>260.700012207</ele>
        <time>2015-12-22T09:50:54.387Z</time>
      </trkpt>
      <trkpt lat="45.94948" lon="4.8064">
        <ele>260.600006104</ele>
        <time>2015-12-22T09:50:55.372Z</time>
      </trkpt>
      <trkpt lat="45.94949" lon="4.80648">
        <ele>261</ele>
        <time>2015-12-22T09:50:56.387Z</time>
      </trkpt>
      <trkpt lat="45.94949" lon="4.80656">
        <ele>261.299987793</ele>
        <time>2015-12-22T09:50:57.369Z</time>
      </trkpt>
      <trkpt lat="45.94949" lon="4.80664">
        <ele>261.100006104</ele>
        <time>2015-12-22T09:50:58.386Z</time>
      </trkpt>
      <trkpt lat="45.9495" lon="4.80672">
        <ele>261</ele>
        <time>2015-12-22T09:50:59.37Z</time>
      </trkpt>
      <trkpt lat="45.9495" lon="4.8068">
        <ele>260.899993896</ele>
        <time>2015-12-22T09:51:00.424Z</time>
      </trkpt>
      <trkpt lat="45.94951" lon="4.80689">
        <ele>260.600006104</ele>
        <time>2015-12-22T09:51:01.372Z</time>
      </trkpt>
      <trkpt lat="45.94951" lon="4.80696">
        <ele>260.5</ele>
        <time>2015-12-22T09:51:02.386Z</time>
      </trkpt>
      <trkpt lat="45.9495" lon="4.80705">
        <ele>260.5</ele>
        <time>2015-12-22T09:51:03.369Z</time>
      </trkpt>
      <trkpt lat="45.94951" lon="4.80712">
        <ele>260.399993896</ele>
        <time>2015-12-22T09:51:04.389Z</time>
      </trkpt>
      <trkpt lat="45.9495" lon="4.8072">
        <ele>260.299987793</ele>
        <time>2015-12-22T09:51:05.37Z</time>
      </trkpt>
      <trkpt lat="45.94951" lon="4.80728">
        <ele>260.5</ele>
        <time>2015-12-22T09:51:06.397Z</time>
      </trkpt>
      <trkpt lat="45.94951" lon="4.80735">
        <ele>260.700012207</ele>
        <time>2015-12-22T09:51:07.372Z</time>
      </trkpt>
      <trkpt lat="45.94951" lon="4.80743">
        <ele>260.899993896</ele>
        <time>2015-12-22T09:51:08.387Z</time>
      </trkpt>
      <trkpt lat="45.9495" lon="4.8075">
        <ele>261</ele>
        <time>2015-12-22T09:51:09.368Z</time>
      </trkpt>
      <trkpt lat="45.94949" lon="4.80758">
        <ele>261.100006104</ele>
        <time>2015-12-22T09:51:10.388Z</time>
      </trkpt>
      <trkpt lat="45.94946" lon="4.80765">
        <ele>261.100006104</ele>
        <time>2015-12-22T09:51:11.368Z</time>
      </trkpt>
      <trkpt lat="45.94945" lon="4.80771">
        <ele>261.200012207</ele>
        <time>2015-12-22T09:51:12.386Z</time>
      </trkpt>
      <trkpt lat="45.94943" lon="4.80777">
        <ele>261.100006104</ele>
        <time>2015-12-22T09:51:13.395Z</time>
      </trkpt>
      <trkpt lat="45.94941" lon="4.80789">
        <ele>261.399993896</ele>
        <time>2015-12-22T09:51:16.387Z</time>
      </trkpt>
      <trkpt lat="45.94942" lon="4.80793">
        <ele>261.299987793</ele>
        <time>2015-12-22T09:51:17.368Z</time>
      </trkpt>
      <trkpt lat="45.94944" lon="4.80802">
        <ele>261.399993896</ele>
        <time>2015-12-22T09:51:19.391Z</time>
      </trkpt>
      <trkpt lat="45.94946" lon="4.80807">
        <ele>261.299987793</ele>
        <time>2015-12-22T09:51:20.368Z</time>
      </trkpt>
      <trkpt lat="45.94949" lon="4.80815">
        <ele>260.399993896</ele>
        <time>2015-12-22T09:51:21.388Z</time>
      </trkpt>
      <trkpt lat="45.94952" lon="4.80821">
        <ele>260.100006104</ele>
        <time>2015-12-22T09:51:22.368Z</time>
      </trkpt>
      <trkpt lat="45.94954" lon="4.80828">
        <ele>259.799987793</ele>
        <time>2015-12-22T09:51:23.386Z</time>
      </trkpt>
      <trkpt lat="45.94956" lon="4.80835">
        <ele>259.600006104</ele>
        <time>2015-12-22T09:51:24.367Z</time>
      </trkpt>
      <trkpt lat="45.94958" lon="4.80843">
        <ele>259.399993896</ele>
        <time>2015-12-22T09:51:25.39Z</time>
      </trkpt>
      <trkpt lat="45.94959" lon="4.8085">
        <ele>259.5</ele>
        <time>2015-12-22T09:51:26.367Z</time>
      </trkpt>
      <trkpt lat="45.94961" lon="4.80858">
        <ele>259.399993896</ele>
        <time>2015-12-22T09:51:27.389Z</time>
      </trkpt>
      <trkpt lat="45.94962" lon="4.80866">
        <ele>259.600006104</ele>
        <time>2015-12-22T09:51:28.368Z</time>
      </trkpt>
      <trkpt lat="45.94964" lon="4.80874">
        <ele>259.700012207</ele>
        <time>2015-12-22T09:51:29.41Z</time>
      </trkpt>
      <trkpt lat="45.94965" lon="4.80883">
        <ele>260.100006104</ele>
        <time>2015-12-22T09:51:30.368Z</time>
      </trkpt>
      <trkpt lat="45.94967" lon="4.80891">
        <ele>260.200012207</ele>
        <time>2015-12-22T09:51:31.39Z</time>
      </trkpt>
      <trkpt lat="45.94969" lon="4.80899">
        <ele>260.200012207</ele>
        <time>2015-12-22T09:51:32.367Z</time>
      </trkpt>
      <trkpt lat="45.9497" lon="4.80906">
        <ele>260.200012207</ele>
        <time>2015-12-22T09:51:33.389Z</time>
      </trkpt>
      <trkpt lat="45.94971" lon="4.80914">
        <ele>260.299987793</ele>
        <time>2015-12-22T09:51:34.39Z</time>
      </trkpt>
      <trkpt lat="45.94972" lon="4.80922">
        <ele>260.5</ele>
        <time>2015-12-22T09:51:35.386Z</time>
      </trkpt>
      <trkpt lat="45.94974" lon="4.8093">
        <ele>259.600006104</ele>
        <time>2015-12-22T09:51:36.371Z</time>
      </trkpt>
      <trkpt lat="45.94976" lon="4.80938">
        <ele>260</ele>
        <time>2015-12-22T09:51:37.393Z</time>
      </trkpt>
      <trkpt lat="45.94977" lon="4.80946">
        <ele>259.700012207</ele>
        <time>2015-12-22T09:51:38.367Z</time>
      </trkpt>
      <trkpt lat="45.94978" lon="4.80953">
        <ele>259.5</ele>
        <time>2015-12-22T09:51:39.403Z</time>
      </trkpt>
      <trkpt lat="45.94978" lon="4.80961">
        <ele>259.399993896</ele>
        <time>2015-12-22T09:51:40.367Z</time>
      </trkpt>
      <trkpt lat="45.94979" lon="4.80969">
        <ele>259.799987793</ele>
        <time>2015-12-22T09:51:41.386Z</time>
      </trkpt>
      <trkpt lat="45.94981" lon="4.80976">
        <ele>259.299987793</ele>
        <time>2015-12-22T09:51:42.368Z</time>
      </trkpt>
      <trkpt lat="45.94982" lon="4.80984">
        <ele>259.299987793</ele>
        <time>2015-12-22T09:51:43.389Z</time>
      </trkpt>
      <trkpt lat="45.94982" lon="4.80993">
        <ele>259.799987793</ele>
        <time>2015-12-22T09:51:44.368Z</time>
      </trkpt>
      <trkpt lat="45.94983" lon="4.81001">
        <ele>259.899993896</ele>
        <time>2015-12-22T09:51:45.389Z</time>
      </trkpt>
      <trkpt lat="45.94983" lon="4.8101">
        <ele>260.100006104</ele>
        <time>2015-12-22T09:51:46.368Z</time>
      </trkpt>
      <trkpt lat="45.94984" lon="4.81019">
        <ele>260</ele>
        <time>2015-12-22T09:51:47.386Z</time>
      </trkpt>
      <trkpt lat="45.94984" lon="4.81028">
        <ele>260</ele>
        <time>2015-12-22T09:51:48.368Z</time>
      </trkpt>
      <trkpt lat="45.94985" lon="4.81037">
        <ele>260</ele>
        <time>2015-12-22T09:51:49.394Z</time>
      </trkpt>
      <trkpt lat="45.94985" lon="4.81047">
        <ele>260.700012207</ele>
        <time>2015-12-22T09:51:50.368Z</time>
      </trkpt>
      <trkpt lat="45.94985" lon="4.81056">
        <ele>260.600006104</ele>
        <time>2015-12-22T09:51:51.389Z</time>
      </trkpt>
      <trkpt lat="45.94986" lon="4.81065">
        <ele>260.5</ele>
        <time>2015-12-22T09:51:52.368Z</time>
      </trkpt>
      <trkpt lat="45.94987" lon="4.81075">
        <ele>259.299987793</ele>
        <time>2015-12-22T09:51:53.387Z</time>
      </trkpt>
      <trkpt lat="45.94988" lon="4.81084">
        <ele>259.700012207</ele>
        <time>2015-12-22T09:51:54.367Z</time>
      </trkpt>
      <trkpt lat="45.94988" lon="4.81093">
        <ele>259.899993896</ele>
        <time>2015-12-22T09:51:55.511Z</time>
      </trkpt>
      <trkpt lat="45.94989" lon="4.81102">
        <ele>259.700012207</ele>
        <time>2015-12-22T09:51:56.368Z</time>
      </trkpt>
      <trkpt lat="45.9499" lon="4.81111">
        <ele>259.899993896</ele>
        <time>2015-12-22T09:51:57.389Z</time>
      </trkpt>
      <trkpt lat="45.94991" lon="4.81121">
        <ele>260</ele>
        <time>2015-12-22T09:51:58.368Z</time>
      </trkpt>
      <trkpt lat="45.94992" lon="4.8113">
        <ele>260</ele>
        <time>2015-12-22T09:51:59.387Z</time>
      </trkpt>
      <trkpt lat="45.94993" lon="4.81139">
        <ele>260.100006104</ele>
        <time>2015-12-22T09:52:00.368Z</time>
      </trkpt>
      <trkpt lat="45.94994" lon="4.81148">
        <ele>260</ele>
        <time>2015-12-22T09:52:01.391Z</time>
      </trkpt>
      <trkpt lat="45.94995" lon="4.81157">
        <ele>259.799987793</ele>
        <time>2015-12-22T09:52:02.37Z</time>
      </trkpt>
      <trkpt lat="45.94997" lon="4.81167">
        <ele>259.799987793</ele>
        <time>2015-12-22T09:52:03.393Z</time>
      </trkpt>
      <trkpt lat="45.94997" lon="4.81176">
        <ele>260.200012207</ele>
        <time>2015-12-22T09:52:04.368Z</time>
      </trkpt>
      <trkpt lat="45.94999" lon="4.81187">
        <ele>258.799987793</ele>
        <time>2015-12-22T09:52:05.487Z</time>
      </trkpt>
      <trkpt lat="45.95001" lon="4.81197">
        <ele>257.5</ele>
        <time>2015-12-22T09:52:06.369Z</time>
      </trkpt>
      <trkpt lat="45.95002" lon="4.81207">
        <ele>256.899993896</ele>
        <time>2015-12-22T09:52:07.39Z</time>
      </trkpt>
      <trkpt lat="45.95003" lon="4.81217">
        <ele>256.700012207</ele>
        <time>2015-12-22T09:52:08.369Z</time>
      </trkpt>
      <trkpt lat="45.95005" lon="4.81227">
        <ele>256.200012207</ele>
        <time>2015-12-22T09:52:09.387Z</time>
      </trkpt>
      <trkpt lat="45.95006" lon="4.81236">
        <ele>255.899993896</ele>
        <time>2015-12-22T09:52:10.363Z</time>
      </trkpt>
      <trkpt lat="45.95007" lon="4.81246">
        <ele>255.699996948</ele>
        <time>2015-12-22T09:52:11.387Z</time>
      </trkpt>
      <trkpt lat="45.95009" lon="4.81255">
        <ele>255.399993896</ele>
        <time>2015-12-22T09:52:12.368Z</time>
      </trkpt>
      <trkpt lat="45.9501" lon="4.81265">
        <ele>255.5</ele>
        <time>2015-12-22T09:52:13.39Z</time>
      </trkpt>
      <trkpt lat="45.95012" lon="4.81274">
        <ele>255.800003052</ele>
        <time>2015-12-22T09:52:14.368Z</time>
      </trkpt>
      <trkpt lat="45.95013" lon="4.81282">
        <ele>256.100006104</ele>
        <time>2015-12-22T09:52:15.393Z</time>
      </trkpt>
      <trkpt lat="45.95015" lon="4.8129">
        <ele>256.200012207</ele>
        <time>2015-12-22T09:52:16.369Z</time>
      </trkpt>
      <trkpt lat="45.95017" lon="4.81297">
        <ele>256.100006104</ele>
        <time>2015-12-22T09:52:17.387Z</time>
      </trkpt>
      <trkpt lat="45.95019" lon="4.81305">
        <ele>255.600006104</ele>
        <time>2015-12-22T09:52:18.367Z</time>
      </trkpt>
      <trkpt lat="45.95021" lon="4.81312">
        <ele>254.600006104</ele>
        <time>2015-12-22T09:52:19.389Z</time>
      </trkpt>
      <trkpt lat="45.95024" lon="4.81319">
        <ele>254</ele>
        <time>2015-12-22T09:52:20.367Z</time>
      </trkpt>
      <trkpt lat="45.95026" lon="4.81327">
        <ele>253.399993896</ele>
        <time>2015-12-22T09:52:21.402Z</time>
      </trkpt>
      <trkpt lat="45.95028" lon="4.81335">
        <ele>252.699996948</ele>
        <time>2015-12-22T09:52:22.368Z</time>
      </trkpt>
      <trkpt lat="45.9503" lon="4.81344">
        <ele>251.899993896</ele>
        <time>2015-12-22T09:52:23.387Z</time>
      </trkpt>
      <trkpt lat="45.95033" lon="4.81353">
        <ele>251.199996948</ele>
        <time>2015-12-22T09:52:24.368Z</time>
      </trkpt>
      <trkpt lat="45.95036" lon="4.81361">
        <ele>250.899993896</ele>
        <time>2015-12-22T09:52:25.389Z</time>
      </trkpt>
      <trkpt lat="45.95039" lon="4.8137">
        <ele>250.600006104</ele>
        <time>2015-12-22T09:52:26.388Z</time>
      </trkpt>
      <trkpt lat="45.95041" lon="4.81379">
        <ele>250.100006104</ele>
        <time>2015-12-22T09:52:27.388Z</time>
      </trkpt>
      <trkpt lat="45.95044" lon="4.81389">
        <ele>249.800003052</ele>
        <time>2015-12-22T09:52:28.371Z</time>
      </trkpt>
      <trkpt lat="45.95047" lon="4.81398">
        <ele>249.199996948</ele>
        <time>2015-12-22T09:52:29.39Z</time>
      </trkpt>
      <trkpt lat="45.95051" lon="4.81408">
        <ele>248.5</ele>
        <time>2015-12-22T09:52:30.367Z</time>
      </trkpt>
      <trkpt lat="45.95055" lon="4.81418">
        <ele>248</ele>
        <time>2015-12-22T09:52:31.405Z</time>
      </trkpt>
      <trkpt lat="45.95058" lon="4.81428">
        <ele>247.5</ele>
        <time>2015-12-22T09:52:32.364Z</time>
      </trkpt>
      <trkpt lat="45.95062" lon="4.81437">
        <ele>247</ele>
        <time>2015-12-22T09:52:33.387Z</time>
      </trkpt>
      <trkpt lat="45.95066" lon="4.81447">
        <ele>246.5</ele>
        <time>2015-12-22T09:52:34.412Z</time>
      </trkpt>
      <trkpt lat="45.9507" lon="4.81456">
        <ele>246.199996948</ele>
        <time>2015-12-22T09:52:35.387Z</time>
      </trkpt>
      <trkpt lat="45.95073" lon="4.81466">
        <ele>245.899993896</ele>
        <time>2015-12-22T09:52:36.367Z</time>
      </trkpt>
      <trkpt lat="45.95077" lon="4.81476">
        <ele>245.800003052</ele>
        <time>2015-12-22T09:52:37.392Z</time>
      </trkpt>
      <trkpt lat="45.95081" lon="4.81486">
        <ele>245.600006104</ele>
        <time>2015-12-22T09:52:38.368Z</time>
      </trkpt>
      <trkpt lat="45.95084" lon="4.81496">
        <ele>245.600006104</ele>
        <time>2015-12-22T09:52:39.4Z</time>
      </trkpt>
      <trkpt lat="45.95088" lon="4.81505">
        <ele>245.5</ele>
        <time>2015-12-22T09:52:40.368Z</time>
      </trkpt>
      <trkpt lat="45.95091" lon="4.81515">
        <ele>245.5</ele>
        <time>2015-12-22T09:52:41.386Z</time>
      </trkpt>
      <trkpt lat="45.95095" lon="4.81525">
        <ele>245.199996948</ele>
        <time>2015-12-22T09:52:42.411Z</time>
      </trkpt>
      <trkpt lat="45.95099" lon="4.81535">
        <ele>244.800003052</ele>
        <time>2015-12-22T09:52:43.391Z</time>
      </trkpt>
      <trkpt lat="45.95103" lon="4.81545">
        <ele>244.600006104</ele>
        <time>2015-12-22T09:52:44.368Z</time>
      </trkpt>
      <trkpt lat="45.95107" lon="4.81555">
        <ele>244.5</ele>
        <time>2015-12-22T09:52:45.389Z</time>
      </trkpt>
      <trkpt lat="45.9511" lon="4.81565">
        <ele>244.300003052</ele>
        <time>2015-12-22T09:52:46.368Z</time>
      </trkpt>
      <trkpt lat="45.95114" lon="4.81576">
        <ele>244.300003052</ele>
        <time>2015-12-22T09:52:47.386Z</time>
      </trkpt>
      <trkpt lat="45.95117" lon="4.81585">
        <ele>244.300003052</ele>
        <time>2015-12-22T09:52:48.367Z</time>
      </trkpt>
      <trkpt lat="45.95119" lon="4.81594">
        <ele>244.600006104</ele>
        <time>2015-12-22T09:52:49.392Z</time>
      </trkpt>
      <trkpt lat="45.95122" lon="4.81603">
        <ele>245</ele>
        <time>2015-12-22T09:52:50.369Z</time>
      </trkpt>
      <trkpt lat="45.95125" lon="4.8161">
        <ele>245.199996948</ele>
        <time>2015-12-22T09:52:51.454Z</time>
      </trkpt>
      <trkpt lat="45.95128" lon="4.81619">
        <ele>245.699996948</ele>
        <time>2015-12-22T09:52:52.462Z</time>
      </trkpt>
      <trkpt lat="45.95131" lon="4.81627">
        <ele>245.899993896</ele>
        <time>2015-12-22T09:52:53.39Z</time>
      </trkpt>
      <trkpt lat="45.95133" lon="4.81635">
        <ele>245.899993896</ele>
        <time>2015-12-22T09:52:54.364Z</time>
      </trkpt>
      <trkpt lat="45.95136" lon="4.81642">
        <ele>246</ele>
        <time>2015-12-22T09:52:55.42Z</time>
      </trkpt>
      <trkpt lat="45.95138" lon="4.8165">
        <ele>246.100006104</ele>
        <time>2015-12-22T09:52:56.368Z</time>
      </trkpt>
      <trkpt lat="45.9514" lon="4.81656">
        <ele>246.300003052</ele>
        <time>2015-12-22T09:52:57.391Z</time>
      </trkpt>
      <trkpt lat="45.95142" lon="4.81663">
        <ele>246.300003052</ele>
        <time>2015-12-22T09:52:58.374Z</time>
      </trkpt>
      <trkpt lat="45.95143" lon="4.81669">
        <ele>246.5</ele>
        <time>2015-12-22T09:52:59.386Z</time>
      </trkpt>
      <trkpt lat="45.95145" lon="4.81675">
        <ele>246.800003052</ele>
        <time>2015-12-22T09:53:00.367Z</time>
      </trkpt>
      <trkpt lat="45.95149" lon="4.81686">
        <ele>246.600006104</ele>
        <time>2015-12-22T09:53:02.387Z</time>
      </trkpt>
      <trkpt lat="45.95151" lon="4.81691">
        <ele>246.699996948</ele>
        <time>2015-12-22T09:53:03.37Z</time>
      </trkpt>
      <trkpt lat="45.95155" lon="4.81699">
        <ele>247.399993896</ele>
        <time>2015-12-22T09:53:05.544Z</time>
      </trkpt>
      <trkpt lat="45.95156" lon="4.81703">
        <ele>247.699996948</ele>
        <time>2015-12-22T09:53:06.389Z</time>
      </trkpt>
      <trkpt lat="45.95159" lon="4.81712">
        <ele>248</ele>
        <time>2015-12-22T09:53:08.405Z</time>
      </trkpt>
      <trkpt lat="45.9516" lon="4.81716">
        <ele>248.300003052</ele>
        <time>2015-12-22T09:53:09.376Z</time>
      </trkpt>
      <trkpt lat="45.95163" lon="4.81724">
        <ele>248.800003052</ele>
        <time>2015-12-22T09:53:11.387Z</time>
      </trkpt>
      <trkpt lat="45.95164" lon="4.81727">
        <ele>249.600006104</ele>
        <time>2015-12-22T09:53:12.369Z</time>
      </trkpt>
      <trkpt lat="45.95168" lon="4.81735">
        <ele>251.199996948</ele>
        <time>2015-12-22T09:53:14.387Z</time>
      </trkpt>
      <trkpt lat="45.9517" lon="4.8174">
        <ele>251.800003052</ele>
        <time>2015-12-22T09:53:15.389Z</time>
      </trkpt>
      <trkpt lat="45.95175" lon="4.81748">
        <ele>253.100006104</ele>
        <time>2015-12-22T09:53:17.387Z</time>
      </trkpt>
      <trkpt lat="45.95177" lon="4.81752">
        <ele>253.699996948</ele>
        <time>2015-12-22T09:53:18.367Z</time>
      </trkpt>
      <trkpt lat="45.95182" lon="4.8176">
        <ele>254.600006104</ele>
        <time>2015-12-22T09:53:20.386Z</time>
      </trkpt>
      <trkpt lat="45.95184" lon="4.81764">
        <ele>254.800003052</ele>
        <time>2015-12-22T09:53:21.368Z</time>
      </trkpt>
      <trkpt lat="45.95189" lon="4.81771">
        <ele>255.300003052</ele>
        <time>2015-12-22T09:53:23.387Z</time>
      </trkpt>
      <trkpt lat="45.95192" lon="4.81775">
        <ele>255.699996948</ele>
        <time>2015-12-22T09:53:24.368Z</time>
      </trkpt>
      <trkpt lat="45.95197" lon="4.81782">
        <ele>256.100006104</ele>
        <time>2015-12-22T09:53:26.386Z</time>
      </trkpt>
      <trkpt lat="45.952" lon="4.81786">
        <ele>256.100006104</ele>
        <time>2015-12-22T09:53:27.368Z</time>
      </trkpt>
      <trkpt lat="45.95206" lon="4.81795">
        <ele>256.299987793</ele>
        <time>2015-12-22T09:53:29.402Z</time>
      </trkpt>
      <trkpt lat="45.95208" lon="4.81799">
        <ele>256.799987793</ele>
        <time>2015-12-22T09:53:30.367Z</time>
      </trkpt>
      <trkpt lat="45.95214" lon="4.81806">
        <ele>256.899993896</ele>
        <time>2015-12-22T09:53:32.386Z</time>
      </trkpt>
      <trkpt lat="45.95216" lon="4.81809">
        <ele>256.899993896</ele>
        <time>2015-12-22T09:53:33.397Z</time>
      </trkpt>
      <trkpt lat="45.95219" lon="4.81814">
        <ele>256.5</ele>
        <time>2015-12-22T09:53:34.387Z</time>
      </trkpt>
      <trkpt lat="45.95222" lon="4.81819">
        <ele>255.199996948</ele>
        <time>2015-12-22T09:53:35.368Z</time>
      </trkpt>
      <trkpt lat="45.95228" lon="4.81828">
        <ele>254.699996948</ele>
        <time>2015-12-22T09:53:37.389Z</time>
      </trkpt>
      <trkpt lat="45.95231" lon="4.81831">
        <ele>255.100006104</ele>
        <time>2015-12-22T09:53:38.367Z</time>
      </trkpt>
      <trkpt lat="45.95236" lon="4.81838">
        <ele>255.899993896</ele>
        <time>2015-12-22T09:53:40.401Z</time>
      </trkpt>
      <trkpt lat="45.95239" lon="4.81843">
        <ele>256</ele>
        <time>2015-12-22T09:53:41.367Z</time>
      </trkpt>
      <trkpt lat="45.95245" lon="4.81851">
        <ele>256.399993896</ele>
        <time>2015-12-22T09:53:43.39Z</time>
      </trkpt>
      <trkpt lat="45.95248" lon="4.81855">
        <ele>256.5</ele>
        <time>2015-12-22T09:53:44.368Z</time>
      </trkpt>
      <trkpt lat="45.95254" lon="4.81863">
        <ele>256.299987793</ele>
        <time>2015-12-22T09:53:46.402Z</time>
      </trkpt>
      <trkpt lat="45.95258" lon="4.81868">
        <ele>256.200012207</ele>
        <time>2015-12-22T09:53:47.367Z</time>
      </trkpt>
      <trkpt lat="45.95261" lon="4.81874">
        <ele>255.899993896</ele>
        <time>2015-12-22T09:53:48.386Z</time>
      </trkpt>
      <trkpt lat="45.95264" lon="4.81879">
        <ele>256.200012207</ele>
        <time>2015-12-22T09:53:49.373Z</time>
      </trkpt>
      <trkpt lat="45.95267" lon="4.81884">
        <ele>256.600006104</ele>
        <time>2015-12-22T09:53:50.388Z</time>
      </trkpt>
      <trkpt lat="45.9527" lon="4.81889">
        <ele>257.299987793</ele>
        <time>2015-12-22T09:53:51.373Z</time>
      </trkpt>
      <trkpt lat="45.95274" lon="4.81895">
        <ele>257.5</ele>
        <time>2015-12-22T09:53:52.387Z</time>
      </trkpt>
      <trkpt lat="45.95277" lon="4.819">
        <ele>257.799987793</ele>
        <time>2015-12-22T09:53:53.367Z</time>
      </trkpt>
      <trkpt lat="45.9528" lon="4.81905">
        <ele>257.799987793</ele>
        <time>2015-12-22T09:53:54.387Z</time>
      </trkpt>
      <trkpt lat="45.95284" lon="4.81911">
        <ele>257.700012207</ele>
        <time>2015-12-22T09:53:55.371Z</time>
      </trkpt>
      <trkpt lat="45.95287" lon="4.81916">
        <ele>257.5</ele>
        <time>2015-12-22T09:53:56.387Z</time>
      </trkpt>
      <trkpt lat="45.9529" lon="4.8192">
        <ele>257.399993896</ele>
        <time>2015-12-22T09:53:57.373Z</time>
      </trkpt>
      <trkpt lat="45.95293" lon="4.81925">
        <ele>257</ele>
        <time>2015-12-22T09:53:58.386Z</time>
      </trkpt>
      <trkpt lat="45.95296" lon="4.81929">
        <ele>256.600006104</ele>
        <time>2015-12-22T09:53:59.367Z</time>
      </trkpt>
      <trkpt lat="45.95301" lon="4.81936">
        <ele>254.899993896</ele>
        <time>2015-12-22T09:54:00.402Z</time>
      </trkpt>
      <trkpt lat="45.95305" lon="4.81941">
        <ele>255</ele>
        <time>2015-12-22T09:54:01.371Z</time>
      </trkpt>
      <trkpt lat="45.95308" lon="4.81946">
        <ele>255</ele>
        <time>2015-12-22T09:54:02.394Z</time>
      </trkpt>
      <trkpt lat="45.95313" lon="4.81951">
        <ele>255</ele>
        <time>2015-12-22T09:54:03.368Z</time>
      </trkpt>
      <trkpt lat="45.95317" lon="4.81956">
        <ele>255</ele>
        <time>2015-12-22T09:54:04.387Z</time>
      </trkpt>
      <trkpt lat="45.95322" lon="4.8196">
        <ele>255</ele>
        <time>2015-12-22T09:54:05.367Z</time>
      </trkpt>
      <trkpt lat="45.95326" lon="4.81965">
        <ele>254.899993896</ele>
        <time>2015-12-22T09:54:06.387Z</time>
      </trkpt>
      <trkpt lat="45.95331" lon="4.8197">
        <ele>255</ele>
        <time>2015-12-22T09:54:07.371Z</time>
      </trkpt>
      <trkpt lat="45.95335" lon="4.81974">
        <ele>254.899993896</ele>
        <time>2015-12-22T09:54:08.386Z</time>
      </trkpt>
      <trkpt lat="45.9534" lon="4.81979">
        <ele>254.899993896</ele>
        <time>2015-12-22T09:54:09.368Z</time>
      </trkpt>
      <trkpt lat="45.95344" lon="4.81984">
        <ele>254.399993896</ele>
        <time>2015-12-22T09:54:10.386Z</time>
      </trkpt>
      <trkpt lat="45.95349" lon="4.81989">
        <ele>253.899993896</ele>
        <time>2015-12-22T09:54:11.391Z</time>
      </trkpt>
      <trkpt lat="45.95353" lon="4.81993">
        <ele>254</ele>
        <time>2015-12-22T09:54:12.387Z</time>
      </trkpt>
      <trkpt lat="45.95358" lon="4.81998">
        <ele>253.699996948</ele>
        <time>2015-12-22T09:54:13.37Z</time>
      </trkpt>
      <trkpt lat="45.95362" lon="4.82003">
        <ele>253.800003052</ele>
        <time>2015-12-22T09:54:14.386Z</time>
      </trkpt>
      <trkpt lat="45.95367" lon="4.82007">
        <ele>253.699996948</ele>
        <time>2015-12-22T09:54:15.368Z</time>
      </trkpt>
      <trkpt lat="45.95371" lon="4.82012">
        <ele>253.699996948</ele>
        <time>2015-12-22T09:54:16.407Z</time>
      </trkpt>
      <trkpt lat="45.95376" lon="4.82017">
        <ele>253.399993896</ele>
        <time>2015-12-22T09:54:17.369Z</time>
      </trkpt>
      <trkpt lat="45.95381" lon="4.82023">
        <ele>253.199996948</ele>
        <time>2015-12-22T09:54:18.413Z</time>
      </trkpt>
      <trkpt lat="45.95386" lon="4.82028">
        <ele>253</ele>
        <time>2015-12-22T09:54:19.372Z</time>
      </trkpt>
      <trkpt lat="45.95391" lon="4.82033">
        <ele>252.699996948</ele>
        <time>2015-12-22T09:54:20.41Z</time>
      </trkpt>
      <trkpt lat="45.95396" lon="4.82038">
        <ele>252.600006104</ele>
        <time>2015-12-22T09:54:21.37Z</time>
      </trkpt>
      <trkpt lat="45.95401" lon="4.82044">
        <ele>252.5</ele>
        <time>2015-12-22T09:54:22.387Z</time>
      </trkpt>
      <trkpt lat="45.95407" lon="4.82049">
        <ele>252.399993896</ele>
        <time>2015-12-22T09:54:23.372Z</time>
      </trkpt>
      <trkpt lat="45.95412" lon="4.82054">
        <ele>252.399993896</ele>
        <time>2015-12-22T09:54:24.388Z</time>
      </trkpt>
      <trkpt lat="45.95417" lon="4.82059">
        <ele>252.300003052</ele>
        <time>2015-12-22T09:54:25.37Z</time>
      </trkpt>
      <trkpt lat="45.95422" lon="4.82066">
        <ele>252</ele>
        <time>2015-12-22T09:54:26.387Z</time>
      </trkpt>
      <trkpt lat="45.95426" lon="4.8207">
        <ele>252.5</ele>
        <time>2015-12-22T09:54:27.369Z</time>
      </trkpt>
      <trkpt lat="45.95431" lon="4.82076">
        <ele>253</ele>
        <time>2015-12-22T09:54:28.388Z</time>
      </trkpt>
      <trkpt lat="45.95437" lon="4.82081">
        <ele>253.300003052</ele>
        <time>2015-12-22T09:54:29.367Z</time>
      </trkpt>
      <trkpt lat="45.95442" lon="4.82085">
        <ele>253.5</ele>
        <time>2015-12-22T09:54:30.386Z</time>
      </trkpt>
      <trkpt lat="45.95447" lon="4.8209">
        <ele>253.600006104</ele>
        <time>2015-12-22T09:54:31.37Z</time>
      </trkpt>
      <trkpt lat="45.95451" lon="4.82094">
        <ele>253.600006104</ele>
        <time>2015-12-22T09:54:32.408Z</time>
      </trkpt>
      <trkpt lat="45.95456" lon="4.82099">
        <ele>253.699996948</ele>
        <time>2015-12-22T09:54:33.368Z</time>
      </trkpt>
      <trkpt lat="45.9546" lon="4.82104">
        <ele>254</ele>
        <time>2015-12-22T09:54:34.393Z</time>
      </trkpt>
      <trkpt lat="45.95465" lon="4.82109">
        <ele>254</ele>
        <time>2015-12-22T09:54:35.367Z</time>
      </trkpt>
      <trkpt lat="45.9547" lon="4.82114">
        <ele>254</ele>
        <time>2015-12-22T09:54:36.386Z</time>
      </trkpt>
      <trkpt lat="45.95475" lon="4.82119">
        <ele>254.100006104</ele>
        <time>2015-12-22T09:54:37.37Z</time>
      </trkpt>
      <trkpt lat="45.9548" lon="4.82124">
        <ele>254</ele>
        <time>2015-12-22T09:54:38.387Z</time>
      </trkpt>
      <trkpt lat="45.95485" lon="4.82129">
        <ele>253.899993896</ele>
        <time>2015-12-22T09:54:39.368Z</time>
      </trkpt>
      <trkpt lat="45.9549" lon="4.82135">
        <ele>254</ele>
        <time>2015-12-22T09:54:40.386Z</time>
      </trkpt>
      <trkpt lat="45.95496" lon="4.8214">
        <ele>253.5</ele>
        <time>2015-12-22T09:54:41.367Z</time>
      </trkpt>
      <trkpt lat="45.95501" lon="4.82146">
        <ele>253.399993896</ele>
        <time>2015-12-22T09:54:42.387Z</time>
      </trkpt>
      <trkpt lat="45.95507" lon="4.82151">
        <ele>253.600006104</ele>
        <time>2015-12-22T09:54:43.405Z</time>
      </trkpt>
      <trkpt lat="45.95512" lon="4.82156">
        <ele>253.899993896</ele>
        <time>2015-12-22T09:54:44.387Z</time>
      </trkpt>
      <trkpt lat="45.95517" lon="4.82161">
        <ele>254.199996948</ele>
        <time>2015-12-22T09:54:45.368Z</time>
      </trkpt>
      <trkpt lat="45.95522" lon="4.82167">
        <ele>254.5</ele>
        <time>2015-12-22T09:54:46.448Z</time>
      </trkpt>
      <trkpt lat="45.95528" lon="4.82173">
        <ele>254.5</ele>
        <time>2015-12-22T09:54:47.367Z</time>
      </trkpt>
      <trkpt lat="45.95534" lon="4.82178">
        <ele>254.399993896</ele>
        <time>2015-12-22T09:54:48.413Z</time>
      </trkpt>
      <trkpt lat="45.95539" lon="4.82182">
        <ele>253.899993896</ele>
        <time>2015-12-22T09:54:49.377Z</time>
      </trkpt>
      <trkpt lat="45.95545" lon="4.82188">
        <ele>253.600006104</ele>
        <time>2015-12-22T09:54:50.387Z</time>
      </trkpt>
      <trkpt lat="45.9555" lon="4.82193">
        <ele>253.5</ele>
        <time>2015-12-22T09:54:51.368Z</time>
      </trkpt>
      <trkpt lat="45.95556" lon="4.82199">
        <ele>253.399993896</ele>
        <time>2015-12-22T09:54:52.385Z</time>
      </trkpt>
      <trkpt lat="45.95562" lon="4.82203">
        <ele>253.199996948</ele>
        <time>2015-12-22T09:54:53.368Z</time>
      </trkpt>
      <trkpt lat="45.95568" lon="4.82208">
        <ele>253</ele>
        <time>2015-12-22T09:54:54.391Z</time>
      </trkpt>
      <trkpt lat="45.95574" lon="4.82213">
        <ele>252.5</ele>
        <time>2015-12-22T09:54:55.37Z</time>
      </trkpt>
      <trkpt lat="45.9558" lon="4.82217">
        <ele>252.5</ele>
        <time>2015-12-22T09:54:56.407Z</time>
      </trkpt>
      <trkpt lat="45.95586" lon="4.82221">
        <ele>252</ele>
        <time>2015-12-22T09:54:57.369Z</time>
      </trkpt>
      <trkpt lat="45.95592" lon="4.82225">
        <ele>252</ele>
        <time>2015-12-22T09:54:58.387Z</time>
      </trkpt>
      <trkpt lat="45.95599" lon="4.82228">
        <ele>251.899993896</ele>
        <time>2015-12-22T09:54:59.367Z</time>
      </trkpt>
      <trkpt lat="45.95606" lon="4.82229">
        <ele>251.699996948</ele>
        <time>2015-12-22T09:55:00.386Z</time>
      </trkpt>
      <trkpt lat="45.95613" lon="4.82229">
        <ele>251.399993896</ele>
        <time>2015-12-22T09:55:01.372Z</time>
      </trkpt>
      <trkpt lat="45.95619" lon="4.82229">
        <ele>251.5</ele>
        <time>2015-12-22T09:55:02.387Z</time>
      </trkpt>
      <trkpt lat="45.95626" lon="4.82228">
        <ele>251.399993896</ele>
        <time>2015-12-22T09:55:03.368Z</time>
      </trkpt>
      <trkpt lat="45.95634" lon="4.82227">
        <ele>251</ele>
        <time>2015-12-22T09:55:04.401Z</time>
      </trkpt>
      <trkpt lat="45.95641" lon="4.82227">
        <ele>251.100006104</ele>
        <time>2015-12-22T09:55:05.367Z</time>
      </trkpt>
      <trkpt lat="45.95649" lon="4.82228">
        <ele>251.199996948</ele>
        <time>2015-12-22T09:55:06.387Z</time>
      </trkpt>
      <trkpt lat="45.95656" lon="4.82229">
        <ele>251.399993896</ele>
        <time>2015-12-22T09:55:07.371Z</time>
      </trkpt>
      <trkpt lat="45.95663" lon="4.82231">
        <ele>251</ele>
        <time>2015-12-22T09:55:08.388Z</time>
      </trkpt>
      <trkpt lat="45.9567" lon="4.82235">
        <ele>250.5</ele>
        <time>2015-12-22T09:55:09.371Z</time>
      </trkpt>
      <trkpt lat="45.95676" lon="4.8224">
        <ele>250.5</ele>
        <time>2015-12-22T09:55:10.402Z</time>
      </trkpt>
      <trkpt lat="45.95682" lon="4.82244">
        <ele>250.399993896</ele>
        <time>2015-12-22T09:55:11.369Z</time>
      </trkpt>
      <trkpt lat="45.95688" lon="4.82249">
        <ele>250.5</ele>
        <time>2015-12-22T09:55:12.389Z</time>
      </trkpt>
      <trkpt lat="45.95693" lon="4.82255">
        <ele>250.600006104</ele>
        <time>2015-12-22T09:55:13.372Z</time>
      </trkpt>
      <trkpt lat="45.95699" lon="4.8226">
        <ele>250.699996948</ele>
        <time>2015-12-22T09:55:14.386Z</time>
      </trkpt>
      <trkpt lat="45.95704" lon="4.82266">
        <ele>250.899993896</ele>
        <time>2015-12-22T09:55:15.371Z</time>
      </trkpt>
      <trkpt lat="45.95709" lon="4.82272">
        <ele>251.100006104</ele>
        <time>2015-12-22T09:55:16.385Z</time>
      </trkpt>
      <trkpt lat="45.95713" lon="4.82277">
        <ele>250.600006104</ele>
        <time>2015-12-22T09:55:17.368Z</time>
      </trkpt>
      <trkpt lat="45.95718" lon="4.82283">
        <ele>250.5</ele>
        <time>2015-12-22T09:55:18.393Z</time>
      </trkpt>
      <trkpt lat="45.95724" lon="4.8229">
        <ele>250.5</ele>
        <time>2015-12-22T09:55:19.37Z</time>
      </trkpt>
      <trkpt lat="45.95729" lon="4.82296">
        <ele>250.199996948</ele>
        <time>2015-12-22T09:55:20.42Z</time>
      </trkpt>
      <trkpt lat="45.95735" lon="4.82303">
        <ele>249.699996948</ele>
        <time>2015-12-22T09:55:21.368Z</time>
      </trkpt>
      <trkpt lat="45.95741" lon="4.82309">
        <ele>249.399993896</ele>
        <time>2015-12-22T09:55:22.386Z</time>
      </trkpt>
      <trkpt lat="45.95746" lon="4.82314">
        <ele>248.899993896</ele>
        <time>2015-12-22T09:55:23.367Z</time>
      </trkpt>
      <trkpt lat="45.95752" lon="4.82321">
        <ele>249</ele>
        <time>2015-12-22T09:55:24.386Z</time>
      </trkpt>
      <trkpt lat="45.95757" lon="4.82327">
        <ele>249.100006104</ele>
        <time>2015-12-22T09:55:25.371Z</time>
      </trkpt>
      <trkpt lat="45.95763" lon="4.82334">
        <ele>248.5</ele>
        <time>2015-12-22T09:55:26.385Z</time>
      </trkpt>
      <trkpt lat="45.95769" lon="4.82341">
        <ele>248.600006104</ele>
        <time>2015-12-22T09:55:27.369Z</time>
      </trkpt>
      <trkpt lat="45.95775" lon="4.82347">
        <ele>248.699996948</ele>
        <time>2015-12-22T09:55:28.387Z</time>
      </trkpt>
      <trkpt lat="45.95781" lon="4.82352">
        <ele>248.600006104</ele>
        <time>2015-12-22T09:55:29.368Z</time>
      </trkpt>
      <trkpt lat="45.95789" lon="4.82357">
        <ele>248.600006104</ele>
        <time>2015-12-22T09:55:30.402Z</time>
      </trkpt>
      <trkpt lat="45.95796" lon="4.82361">
        <ele>247.600006104</ele>
        <time>2015-12-22T09:55:31.372Z</time>
      </trkpt>
      <trkpt lat="45.95804" lon="4.82363">
        <ele>246.699996948</ele>
        <time>2015-12-22T09:55:32.386Z</time>
      </trkpt>
      <trkpt lat="45.95813" lon="4.82366">
        <ele>245.699996948</ele>
        <time>2015-12-22T09:55:33.369Z</time>
      </trkpt>
      <trkpt lat="45.95821" lon="4.82368">
        <ele>244.600006104</ele>
        <time>2015-12-22T09:55:34.387Z</time>
      </trkpt>
      <trkpt lat="45.95829" lon="4.82369">
        <ele>243.800003052</ele>
        <time>2015-12-22T09:55:35.368Z</time>
      </trkpt>
      <trkpt lat="45.95829" lon="4.82369">
        <ele>243.800003052</ele>
        <time>2015-12-22T09:55:35.398Z</time>
      </trkpt>
      <trkpt lat="45.95838" lon="4.82371">
        <ele>243.199996948</ele>
        <time>2015-12-22T09:55:36.388Z</time>
      </trkpt>
      <trkpt lat="45.95838" lon="4.82371">
        <ele>243.199996948</ele>
        <time>2015-12-22T09:55:36.414Z</time>
      </trkpt>
      <trkpt lat="45.95848" lon="4.82372">
        <ele>242.600006104</ele>
        <time>2015-12-22T09:55:37.371Z</time>
      </trkpt>
      <trkpt lat="45.95848" lon="4.82372">
        <ele>242.600006104</ele>
        <time>2015-12-22T09:55:37.402Z</time>
      </trkpt>
      <trkpt lat="45.95858" lon="4.82373">
        <ele>241.5</ele>
        <time>2015-12-22T09:55:38.367Z</time>
      </trkpt>
      <trkpt lat="45.95858" lon="4.82373">
        <ele>241.5</ele>
        <time>2015-12-22T09:55:38.388Z</time>
      </trkpt>
      <trkpt lat="45.95868" lon="4.82373">
        <ele>240.199996948</ele>
        <time>2015-12-22T09:55:39.37Z</time>
      </trkpt>
      <trkpt lat="45.95868" lon="4.82373">
        <ele>240.199996948</ele>
        <time>2015-12-22T09:55:39.401Z</time>
      </trkpt>
      <trkpt lat="45.95879" lon="4.82374">
        <ele>238.800003052</ele>
        <time>2015-12-22T09:55:40.368Z</time>
      </trkpt>
      <trkpt lat="45.95879" lon="4.82374">
        <ele>238.800003052</ele>
        <time>2015-12-22T09:55:40.398Z</time>
      </trkpt>
      <trkpt lat="45.9589" lon="4.82373">
        <ele>237.699996948</ele>
        <time>2015-12-22T09:55:41.393Z</time>
      </trkpt>
      <trkpt lat="45.9589" lon="4.82373">
        <ele>237.699996948</ele>
        <time>2015-12-22T09:55:41.452Z</time>
      </trkpt>
      <trkpt lat="45.95901" lon="4.82372">
        <ele>236.199996948</ele>
        <time>2015-12-22T09:55:42.367Z</time>
      </trkpt>
      <trkpt lat="45.95901" lon="4.82372">
        <ele>236.199996948</ele>
        <time>2015-12-22T09:55:42.4Z</time>
      </trkpt>
      <trkpt lat="45.95912" lon="4.8237">
        <ele>234.899993896</ele>
        <time>2015-12-22T09:55:43.37Z</time>
      </trkpt>
      <trkpt lat="45.95912" lon="4.8237">
        <ele>234.899993896</ele>
        <time>2015-12-22T09:55:43.399Z</time>
      </trkpt>
      <trkpt lat="45.95924" lon="4.82368">
        <ele>234.5</ele>
        <time>2015-12-22T09:55:44.367Z</time>
      </trkpt>
      <trkpt lat="45.95924" lon="4.82368">
        <ele>234.5</ele>
        <time>2015-12-22T09:55:44.396Z</time>
      </trkpt>
      <trkpt lat="45.95936" lon="4.82367">
        <ele>233.699996948</ele>
        <time>2015-12-22T09:55:45.368Z</time>
      </trkpt>
      <trkpt lat="45.95936" lon="4.82367">
        <ele>233.699996948</ele>
        <time>2015-12-22T09:55:45.397Z</time>
      </trkpt>
      <trkpt lat="45.95947" lon="4.82365">
        <ele>233</ele>
        <time>2015-12-22T09:55:46.369Z</time>
      </trkpt>
      <trkpt lat="45.95947" lon="4.82365">
        <ele>233</ele>
        <time>2015-12-22T09:55:46.415Z</time>
      </trkpt>
      <trkpt lat="45.95958" lon="4.82363">
        <ele>232.300003052</ele>
        <time>2015-12-22T09:55:47.369Z</time>
      </trkpt>
      <trkpt lat="45.95958" lon="4.82363">
        <ele>232.300003052</ele>
        <time>2015-12-22T09:55:47.399Z</time>
      </trkpt>
      <trkpt lat="45.95969" lon="4.82361">
        <ele>231.399993896</ele>
        <time>2015-12-22T09:55:48.369Z</time>
      </trkpt>
      <trkpt lat="45.95969" lon="4.82361">
        <ele>231.399993896</ele>
        <time>2015-12-22T09:55:48.409Z</time>
      </trkpt>
      <trkpt lat="45.95979" lon="4.82359">
        <ele>230.600006104</ele>
        <time>2015-12-22T09:55:49.375Z</time>
      </trkpt>
      <trkpt lat="45.95979" lon="4.82359">
        <ele>230.600006104</ele>
        <time>2015-12-22T09:55:49.405Z</time>
      </trkpt>
      <trkpt lat="45.95988" lon="4.82358">
        <ele>229.800003052</ele>
        <time>2015-12-22T09:55:50.369Z</time>
      </trkpt>
      <trkpt lat="45.95996" lon="4.82358">
        <ele>229.399993896</ele>
        <time>2015-12-22T09:55:51.39Z</time>
      </trkpt>
      <trkpt lat="45.96004" lon="4.82358">
        <ele>228.899993896</ele>
        <time>2015-12-22T09:55:52.367Z</time>
      </trkpt>
      <trkpt lat="45.9601" lon="4.82358">
        <ele>228.300003052</ele>
        <time>2015-12-22T09:55:53.387Z</time>
      </trkpt>
      <trkpt lat="45.96016" lon="4.82359">
        <ele>228</ele>
        <time>2015-12-22T09:55:54.368Z</time>
      </trkpt>
      <trkpt lat="45.96021" lon="4.82361">
        <ele>227.399993896</ele>
        <time>2015-12-22T09:55:55.39Z</time>
      </trkpt>
      <trkpt lat="45.96024" lon="4.82363">
        <ele>227.800003052</ele>
        <time>2015-12-22T09:55:56.368Z</time>
      </trkpt>
      <trkpt lat="45.96032" lon="4.8237">
        <ele>227.5</ele>
        <time>2015-12-22T09:55:58.386Z</time>
      </trkpt>
      <trkpt lat="45.96036" lon="4.82375">
        <ele>228</ele>
        <time>2015-12-22T09:55:59.368Z</time>
      </trkpt>
      <trkpt lat="45.96041" lon="4.82381">
        <ele>228.300003052</ele>
        <time>2015-12-22T09:56:00.387Z</time>
      </trkpt>
      <trkpt lat="45.96046" lon="4.82386">
        <ele>228.5</ele>
        <time>2015-12-22T09:56:01.371Z</time>
      </trkpt>
      <trkpt lat="45.96051" lon="4.82389">
        <ele>228.600006104</ele>
        <time>2015-12-22T09:56:02.386Z</time>
      </trkpt>
      <trkpt lat="45.96056" lon="4.82393">
        <ele>228.600006104</ele>
        <time>2015-12-22T09:56:03.369Z</time>
      </trkpt>
      <trkpt lat="45.96062" lon="4.82395">
        <ele>228.5</ele>
        <time>2015-12-22T09:56:04.506Z</time>
      </trkpt>
      <trkpt lat="45.96069" lon="4.82397">
        <ele>228.300003052</ele>
        <time>2015-12-22T09:56:05.368Z</time>
      </trkpt>
      <trkpt lat="45.96075" lon="4.82398">
        <ele>228.300003052</ele>
        <time>2015-12-22T09:56:06.386Z</time>
      </trkpt>
      <trkpt lat="45.96081" lon="4.824">
        <ele>228</ele>
        <time>2015-12-22T09:56:07.374Z</time>
      </trkpt>
      <trkpt lat="45.96087" lon="4.824">
        <ele>228.300003052</ele>
        <time>2015-12-22T09:56:08.386Z</time>
      </trkpt>
      <trkpt lat="45.96093" lon="4.824">
        <ele>227.899993896</ele>
        <time>2015-12-22T09:56:09.368Z</time>
      </trkpt>
      <trkpt lat="45.96099" lon="4.82401">
        <ele>227.899993896</ele>
        <time>2015-12-22T09:56:10.386Z</time>
      </trkpt>
      <trkpt lat="45.96104" lon="4.82401">
        <ele>227.699996948</ele>
        <time>2015-12-22T09:56:11.367Z</time>
      </trkpt>
      <trkpt lat="45.96109" lon="4.82402">
        <ele>227.699996948</ele>
        <time>2015-12-22T09:56:12.385Z</time>
      </trkpt>
      <trkpt lat="45.96114" lon="4.82403">
        <ele>227.800003052</ele>
        <time>2015-12-22T09:56:13.37Z</time>
      </trkpt>
      <trkpt lat="45.96119" lon="4.82403">
        <ele>228.100006104</ele>
        <time>2015-12-22T09:56:14.386Z</time>
      </trkpt>
      <trkpt lat="45.96124" lon="4.82404">
        <ele>228</ele>
        <time>2015-12-22T09:56:15.369Z</time>
      </trkpt>
      <trkpt lat="45.96129" lon="4.82405">
        <ele>228.300003052</ele>
        <time>2015-12-22T09:56:16.386Z</time>
      </trkpt>
      <trkpt lat="45.96135" lon="4.82406">
        <ele>227.600006104</ele>
        <time>2015-12-22T09:56:17.368Z</time>
      </trkpt>
      <trkpt lat="45.9614" lon="4.82407">
        <ele>227.800003052</ele>
        <time>2015-12-22T09:56:18.409Z</time>
      </trkpt>
      <trkpt lat="45.96146" lon="4.82407">
        <ele>227.300003052</ele>
        <time>2015-12-22T09:56:19.37Z</time>
      </trkpt>
      <trkpt lat="45.96152" lon="4.82408">
        <ele>227.800003052</ele>
        <time>2015-12-22T09:56:20.479Z</time>
      </trkpt>
      <trkpt lat="45.96157" lon="4.82409">
        <ele>228.300003052</ele>
        <time>2015-12-22T09:56:21.368Z</time>
      </trkpt>
      <trkpt lat="45.96163" lon="4.8241">
        <ele>228.300003052</ele>
        <time>2015-12-22T09:56:22.386Z</time>
      </trkpt>
      <trkpt lat="45.96169" lon="4.8241">
        <ele>229.100006104</ele>
        <time>2015-12-22T09:56:23.367Z</time>
      </trkpt>
      <trkpt lat="45.96174" lon="4.8241">
        <ele>229.699996948</ele>
        <time>2015-12-22T09:56:24.385Z</time>
      </trkpt>
      <trkpt lat="45.96179" lon="4.82411">
        <ele>230.399993896</ele>
        <time>2015-12-22T09:56:25.37Z</time>
      </trkpt>
      <trkpt lat="45.96184" lon="4.82411">
        <ele>230.5</ele>
        <time>2015-12-22T09:56:26.387Z</time>
      </trkpt>
      <trkpt lat="45.96189" lon="4.82411">
        <ele>231</ele>
        <time>2015-12-22T09:56:27.368Z</time>
      </trkpt>
      <trkpt lat="45.96194" lon="4.82412">
        <ele>231.300003052</ele>
        <time>2015-12-22T09:56:28.387Z</time>
      </trkpt>
      <trkpt lat="45.96198" lon="4.82413">
        <ele>232.100006104</ele>
        <time>2015-12-22T09:56:29.368Z</time>
      </trkpt>
      <trkpt lat="45.96206" lon="4.82415">
        <ele>232.300003052</ele>
        <time>2015-12-22T09:56:31.39Z</time>
      </trkpt>
      <trkpt lat="45.9621" lon="4.82416">
        <ele>232.399993896</ele>
        <time>2015-12-22T09:56:32.368Z</time>
      </trkpt>
      <trkpt lat="45.96217" lon="4.82418">
        <ele>232.300003052</ele>
        <time>2015-12-22T09:56:34.401Z</time>
      </trkpt>
      <trkpt lat="45.9622" lon="4.82419">
        <ele>232.5</ele>
        <time>2015-12-22T09:56:35.368Z</time>
      </trkpt>
      <trkpt lat="45.96228" lon="4.82421">
        <ele>233.899993896</ele>
        <time>2015-12-22T09:56:39.388Z</time>
      </trkpt>
      <trkpt lat="45.96231" lon="4.82423">
        <ele>233.800003052</ele>
        <time>2015-12-22T09:56:40.368Z</time>
      </trkpt>
      <trkpt lat="45.96238" lon="4.82429">
        <ele>236.100006104</ele>
        <time>2015-12-22T09:56:44.387Z</time>
      </trkpt>
      <trkpt lat="45.96241" lon="4.8243">
        <ele>236.199996948</ele>
        <time>2015-12-22T09:56:45.369Z</time>
      </trkpt>
      <trkpt lat="45.96249" lon="4.82434">
        <ele>237.800003052</ele>
        <time>2015-12-22T09:56:49.467Z</time>
      </trkpt>
      <trkpt lat="45.9625" lon="4.82437">
        <ele>238.100006104</ele>
        <time>2015-12-22T09:56:50.368Z</time>
      </trkpt>
      <trkpt lat="45.96257" lon="4.82444">
        <ele>239.5</ele>
        <time>2015-12-22T09:56:54.444Z</time>
      </trkpt>
      <trkpt lat="45.96259" lon="4.82445">
        <ele>240</ele>
        <time>2015-12-22T09:56:55.37Z</time>
      </trkpt>
      <trkpt lat="45.96266" lon="4.82452">
        <ele>241.300003052</ele>
        <time>2015-12-22T09:56:59.39Z</time>
      </trkpt>
      <trkpt lat="45.96268" lon="4.82454">
        <ele>241.199996948</ele>
        <time>2015-12-22T09:57:00.367Z</time>
      </trkpt>
      <trkpt lat="45.96276" lon="4.82451">
        <ele>242.699996948</ele>
        <time>2015-12-22T09:57:03.386Z</time>
      </trkpt>
      <trkpt lat="45.96278" lon="4.82452">
        <ele>241.800003052</ele>
        <time>2015-12-22T09:57:04.368Z</time>
      </trkpt>
      <trkpt lat="45.96281" lon="4.82442">
        <ele>242.899993896</ele>
        <time>2015-12-22T09:57:08.386Z</time>
      </trkpt>
      <trkpt lat="45.96282" lon="4.82437">
        <ele>242.399993896</ele>
        <time>2015-12-22T09:57:09.368Z</time>
      </trkpt>
      <trkpt lat="45.96282" lon="4.82426">
        <ele>243.5</ele>
        <time>2015-12-22T09:57:12.386Z</time>
      </trkpt>
      <trkpt lat="45.96282" lon="4.82423">
        <ele>243.800003052</ele>
        <time>2015-12-22T09:57:13.37Z</time>
      </trkpt>
      <trkpt lat="45.96283" lon="4.82412">
        <ele>245</ele>
        <time>2015-12-22T09:57:16.386Z</time>
      </trkpt>
      <trkpt lat="45.96282" lon="4.82408">
        <ele>245.399993896</ele>
        <time>2015-12-22T09:57:17.367Z</time>
      </trkpt>
      <trkpt lat="45.96283" lon="4.82397">
        <ele>247.300003052</ele>
        <time>2015-12-22T09:57:20.396Z</time>
      </trkpt>
      <trkpt lat="45.96283" lon="4.82392">
        <ele>247.600006104</ele>
        <time>2015-12-22T09:57:21.368Z</time>
      </trkpt>
      <trkpt lat="45.96283" lon="4.82383">
        <ele>248.199996948</ele>
        <time>2015-12-22T09:57:23.395Z</time>
      </trkpt>
      <trkpt lat="45.96284" lon="4.82379">
        <ele>248.399993896</ele>
        <time>2015-12-22T09:57:24.368Z</time>
      </trkpt>
      <trkpt lat="45.96285" lon="4.8237">
        <ele>248.100006104</ele>
        <time>2015-12-22T09:57:26.402Z</time>
      </trkpt>
      <trkpt lat="45.96286" lon="4.82366">
        <ele>248.399993896</ele>
        <time>2015-12-22T09:57:27.37Z</time>
      </trkpt>
      <trkpt lat="45.96288" lon="4.82354">
        <ele>248.100006104</ele>
        <time>2015-12-22T09:57:30.386Z</time>
      </trkpt>
      <trkpt lat="45.96288" lon="4.82349">
        <ele>247.899993896</ele>
        <time>2015-12-22T09:57:31.37Z</time>
      </trkpt>
      <trkpt lat="45.9629" lon="4.82341">
        <ele>247.800003052</ele>
        <time>2015-12-22T09:57:33.393Z</time>
      </trkpt>
      <trkpt lat="45.9629" lon="4.82336">
        <ele>247.899993896</ele>
        <time>2015-12-22T09:57:34.367Z</time>
      </trkpt>
      <trkpt lat="45.9629" lon="4.82328">
        <ele>248.699996948</ele>
        <time>2015-12-22T09:57:36.424Z</time>
      </trkpt>
      <trkpt lat="45.9629" lon="4.82323">
        <ele>248.800003052</ele>
        <time>2015-12-22T09:57:37.37Z</time>
      </trkpt>
      <trkpt lat="45.9629" lon="4.82314">
        <ele>248.800003052</ele>
        <time>2015-12-22T09:57:39.388Z</time>
      </trkpt>
      <trkpt lat="45.96289" lon="4.8231">
        <ele>248.5</ele>
        <time>2015-12-22T09:57:40.367Z</time>
      </trkpt>
      <trkpt lat="45.96289" lon="4.82302">
        <ele>248.399993896</ele>
        <time>2015-12-22T09:57:42.386Z</time>
      </trkpt>
      <trkpt lat="45.96289" lon="4.82297">
        <ele>248.699996948</ele>
        <time>2015-12-22T09:57:43.37Z</time>
      </trkpt>
      <trkpt lat="45.96288" lon="4.82287">
        <ele>247.899993896</ele>
        <time>2015-12-22T09:57:45.388Z</time>
      </trkpt>
      <trkpt lat="45.96288" lon="4.82282">
        <ele>247.800003052</ele>
        <time>2015-12-22T09:57:46.367Z</time>
      </trkpt>
      <trkpt lat="45.96287" lon="4.82273">
        <ele>247.300003052</ele>
        <time>2015-12-22T09:57:48.387Z</time>
      </trkpt>
      <trkpt lat="45.96287" lon="4.82268">
        <ele>246.699996948</ele>
        <time>2015-12-22T09:57:49.373Z</time>
      </trkpt>
      <trkpt lat="45.96287" lon="4.82258">
        <ele>246</ele>
        <time>2015-12-22T09:57:51.387Z</time>
      </trkpt>
      <trkpt lat="45.96287" lon="4.82253">
        <ele>245.399993896</ele>
        <time>2015-12-22T09:57:52.367Z</time>
      </trkpt>
      <trkpt lat="45.96286" lon="4.82242">
        <ele>244.699996948</ele>
        <time>2015-12-22T09:57:54.386Z</time>
      </trkpt>
      <trkpt lat="45.96285" lon="4.82237">
        <ele>244.100006104</ele>
        <time>2015-12-22T09:57:55.393Z</time>
      </trkpt>
      <trkpt lat="45.96285" lon="4.82226">
        <ele>242.899993896</ele>
        <time>2015-12-22T09:57:57.388Z</time>
      </trkpt>
      <trkpt lat="45.96285" lon="4.8222">
        <ele>242.699996948</ele>
        <time>2015-12-22T09:57:58.405Z</time>
      </trkpt>
      <trkpt lat="45.96286" lon="4.82208">
        <ele>243.199996948</ele>
        <time>2015-12-22T09:58:00.386Z</time>
      </trkpt>
      <trkpt lat="45.96286" lon="4.82202">
        <ele>243.199996948</ele>
        <time>2015-12-22T09:58:01.373Z</time>
      </trkpt>
      <trkpt lat="45.96286" lon="4.82191">
        <ele>243.300003052</ele>
        <time>2015-12-22T09:58:03.457Z</time>
      </trkpt>
      <trkpt lat="45.96286" lon="4.82185">
        <ele>243.699996948</ele>
        <time>2015-12-22T09:58:04.368Z</time>
      </trkpt>
      <trkpt lat="45.96286" lon="4.82174">
        <ele>243.899993896</ele>
        <time>2015-12-22T09:58:06.386Z</time>
      </trkpt>
      <trkpt lat="45.96286" lon="4.82169">
        <ele>244</ele>
        <time>2015-12-22T09:58:07.37Z</time>
      </trkpt>
      <trkpt lat="45.96286" lon="4.82159">
        <ele>244.300003052</ele>
        <time>2015-12-22T09:58:09.387Z</time>
      </trkpt>
      <trkpt lat="45.96286" lon="4.82154">
        <ele>244.5</ele>
        <time>2015-12-22T09:58:10.368Z</time>
      </trkpt>
      <trkpt lat="45.96287" lon="4.82144">
        <ele>244.5</ele>
        <time>2015-12-22T09:58:12.386Z</time>
      </trkpt>
      <trkpt lat="45.96288" lon="4.8214">
        <ele>244.600006104</ele>
        <time>2015-12-22T09:58:13.37Z</time>
      </trkpt>
      <trkpt lat="45.96289" lon="4.8213">
        <ele>244.800003052</ele>
        <time>2015-12-22T09:58:15.387Z</time>
      </trkpt>
      <trkpt lat="45.96289" lon="4.82126">
        <ele>245</ele>
        <time>2015-12-22T09:58:16.367Z</time>
      </trkpt>
      <trkpt lat="45.9629" lon="4.82114">
        <ele>245.5</ele>
        <time>2015-12-22T09:58:19.389Z</time>
      </trkpt>
      <trkpt lat="45.9629" lon="4.8211">
        <ele>245.699996948</ele>
        <time>2015-12-22T09:58:20.368Z</time>
      </trkpt>
      <trkpt lat="45.96291" lon="4.82101">
        <ele>245.600006104</ele>
        <time>2015-12-22T09:58:22.386Z</time>
      </trkpt>
      <trkpt lat="45.96291" lon="4.82096">
        <ele>245.800003052</ele>
        <time>2015-12-22T09:58:23.366Z</time>
      </trkpt>
      <trkpt lat="45.96292" lon="4.82086">
        <ele>245.800003052</ele>
        <time>2015-12-22T09:58:25.389Z</time>
      </trkpt>
      <trkpt lat="45.96293" lon="4.82081">
        <ele>245.800003052</ele>
        <time>2015-12-22T09:58:26.366Z</time>
      </trkpt>
      <trkpt lat="45.96294" lon="4.82071">
        <ele>245.699996948</ele>
        <time>2015-12-22T09:58:28.387Z</time>
      </trkpt>
      <trkpt lat="45.96294" lon="4.82066">
        <ele>245.699996948</ele>
        <time>2015-12-22T09:58:29.368Z</time>
      </trkpt>
      <trkpt lat="45.96295" lon="4.82058">
        <ele>245.899993896</ele>
        <time>2015-12-22T09:58:31.389Z</time>
      </trkpt>
      <trkpt lat="45.96297" lon="4.82053">
        <ele>246.100006104</ele>
        <time>2015-12-22T09:58:32.366Z</time>
      </trkpt>
      <trkpt lat="45.96298" lon="4.82044">
        <ele>246.399993896</ele>
        <time>2015-12-22T09:58:34.385Z</time>
      </trkpt>
      <trkpt lat="45.96299" lon="4.82039">
        <ele>246.699996948</ele>
        <time>2015-12-22T09:58:35.368Z</time>
      </trkpt>
      <trkpt lat="45.96301" lon="4.82028">
        <ele>247.199996948</ele>
        <time>2015-12-22T09:58:37.389Z</time>
      </trkpt>
      <trkpt lat="45.96302" lon="4.82022">
        <ele>247.399993896</ele>
        <time>2015-12-22T09:58:38.376Z</time>
      </trkpt>
      <trkpt lat="45.96303" lon="4.8201">
        <ele>247.899993896</ele>
        <time>2015-12-22T09:58:40.421Z</time>
      </trkpt>
      <trkpt lat="45.96304" lon="4.82005">
        <ele>248</ele>
        <time>2015-12-22T09:58:41.368Z</time>
      </trkpt>
      <trkpt lat="45.96306" lon="4.81999">
        <ele>248.199996948</ele>
        <time>2015-12-22T09:58:42.387Z</time>
      </trkpt>
      <trkpt lat="45.96307" lon="4.81992">
        <ele>248.199996948</ele>
        <time>2015-12-22T09:58:43.37Z</time>
      </trkpt>
      <trkpt lat="45.96308" lon="4.81986">
        <ele>248.100006104</ele>
        <time>2015-12-22T09:58:44.386Z</time>
      </trkpt>
      <trkpt lat="45.96309" lon="4.81979">
        <ele>248.300003052</ele>
        <time>2015-12-22T09:58:45.369Z</time>
      </trkpt>
      <trkpt lat="45.9631" lon="4.81966">
        <ele>248</ele>
        <time>2015-12-22T09:58:47.385Z</time>
      </trkpt>
      <trkpt lat="45.96311" lon="4.8196">
        <ele>248.300003052</ele>
        <time>2015-12-22T09:58:48.366Z</time>
      </trkpt>
      <trkpt lat="45.96312" lon="4.81954">
        <ele>248.600006104</ele>
        <time>2015-12-22T09:58:49.392Z</time>
      </trkpt>
      <trkpt lat="45.96313" lon="4.81947">
        <ele>248.899993896</ele>
        <time>2015-12-22T09:58:50.366Z</time>
      </trkpt>
      <trkpt lat="45.96315" lon="4.8194">
        <ele>249.100006104</ele>
        <time>2015-12-22T09:58:51.392Z</time>
      </trkpt>
      <trkpt lat="45.96316" lon="4.81933">
        <ele>249.600006104</ele>
        <time>2015-12-22T09:58:52.368Z</time>
      </trkpt>
      <trkpt lat="45.96318" lon="4.81921">
        <ele>248.899993896</ele>
        <time>2015-12-22T09:58:54.396Z</time>
      </trkpt>
      <trkpt lat="45.9632" lon="4.81915">
        <ele>248.699996948</ele>
        <time>2015-12-22T09:58:55.37Z</time>
      </trkpt>
      <trkpt lat="45.96321" lon="4.81908">
        <ele>248.699996948</ele>
        <time>2015-12-22T09:58:56.386Z</time>
      </trkpt>
      <trkpt lat="45.96323" lon="4.81901">
        <ele>248.800003052</ele>
        <time>2015-12-22T09:58:57.368Z</time>
      </trkpt>
      <trkpt lat="45.96325" lon="4.81894">
        <ele>249.100006104</ele>
        <time>2015-12-22T09:58:58.385Z</time>
      </trkpt>
      <trkpt lat="45.96326" lon="4.81887">
        <ele>249.199996948</ele>
        <time>2015-12-22T09:58:59.367Z</time>
      </trkpt>
      <trkpt lat="45.96328" lon="4.8188">
        <ele>249</ele>
        <time>2015-12-22T09:59:00.385Z</time>
      </trkpt>
      <trkpt lat="45.96329" lon="4.81872">
        <ele>248.399993896</ele>
        <time>2015-12-22T09:59:01.368Z</time>
      </trkpt>
      <trkpt lat="45.9633" lon="4.81865">
        <ele>248.399993896</ele>
        <time>2015-12-22T09:59:02.385Z</time>
      </trkpt>
      <trkpt lat="45.9633" lon="4.81857">
        <ele>248.300003052</ele>
        <time>2015-12-22T09:59:03.369Z</time>
      </trkpt>
      <trkpt lat="45.96331" lon="4.81849">
        <ele>247.699996948</ele>
        <time>2015-12-22T09:59:04.387Z</time>
      </trkpt>
      <trkpt lat="45.96332" lon="4.81842">
        <ele>248</ele>
        <time>2015-12-22T09:59:05.368Z</time>
      </trkpt>
      <trkpt lat="45.96333" lon="4.81835">
        <ele>247.899993896</ele>
        <time>2015-12-22T09:59:06.401Z</time>
      </trkpt>
      <trkpt lat="45.96334" lon="4.81828">
        <ele>247.699996948</ele>
        <time>2015-12-22T09:59:07.371Z</time>
      </trkpt>
      <trkpt lat="45.96335" lon="4.81821">
        <ele>247.600006104</ele>
        <time>2015-12-22T09:59:08.387Z</time>
      </trkpt>
      <trkpt lat="45.96336" lon="4.81814">
        <ele>247.300003052</ele>
        <time>2015-12-22T09:59:09.37Z</time>
      </trkpt>
      <trkpt lat="45.96337" lon="4.81807">
        <ele>247.199996948</ele>
        <time>2015-12-22T09:59:10.386Z</time>
      </trkpt>
      <trkpt lat="45.96338" lon="4.818">
        <ele>247.399993896</ele>
        <time>2015-12-22T09:59:11.366Z</time>
      </trkpt>
      <trkpt lat="45.96339" lon="4.81793">
        <ele>247.199996948</ele>
        <time>2015-12-22T09:59:12.386Z</time>
      </trkpt>
      <trkpt lat="45.96341" lon="4.81787">
        <ele>247.100006104</ele>
        <time>2015-12-22T09:59:13.37Z</time>
      </trkpt>
      <trkpt lat="45.96342" lon="4.8178">
        <ele>246.899993896</ele>
        <time>2015-12-22T09:59:14.385Z</time>
      </trkpt>
      <trkpt lat="45.96344" lon="4.81773">
        <ele>246.899993896</ele>
        <time>2015-12-22T09:59:15.369Z</time>
      </trkpt>
      <trkpt lat="45.96346" lon="4.81766">
        <ele>247</ele>
        <time>2015-12-22T09:59:16.385Z</time>
      </trkpt>
      <trkpt lat="45.96348" lon="4.81759">
        <ele>246.699996948</ele>
        <time>2015-12-22T09:59:17.368Z</time>
      </trkpt>
      <trkpt lat="45.96351" lon="4.81752">
        <ele>246.800003052</ele>
        <time>2015-12-22T09:59:18.386Z</time>
      </trkpt>
      <trkpt lat="45.96353" lon="4.81745">
        <ele>246.899993896</ele>
        <time>2015-12-22T09:59:19.369Z</time>
      </trkpt>
      <trkpt lat="45.96356" lon="4.81737">
        <ele>246.699996948</ele>
        <time>2015-12-22T09:59:20.386Z</time>
      </trkpt>
      <trkpt lat="45.96359" lon="4.8173">
        <ele>246.699996948</ele>
        <time>2015-12-22T09:59:21.369Z</time>
      </trkpt>
      <trkpt lat="45.96362" lon="4.81723">
        <ele>246.600006104</ele>
        <time>2015-12-22T09:59:22.402Z</time>
      </trkpt>
      <trkpt lat="45.96365" lon="4.81716">
        <ele>246.600006104</ele>
        <time>2015-12-22T09:59:23.368Z</time>
      </trkpt>
      <trkpt lat="45.96368" lon="4.81709">
        <ele>246.600006104</ele>
        <time>2015-12-22T09:59:24.386Z</time>
      </trkpt>
      <trkpt lat="45.96371" lon="4.81702">
        <ele>246.5</ele>
        <time>2015-12-22T09:59:25.426Z</time>
      </trkpt>
      <trkpt lat="45.96374" lon="4.81695">
        <ele>246.5</ele>
        <time>2015-12-22T09:59:26.386Z</time>
      </trkpt>
      <trkpt lat="45.96376" lon="4.81688">
        <ele>246.399993896</ele>
        <time>2015-12-22T09:59:27.368Z</time>
      </trkpt>
      <trkpt lat="45.96379" lon="4.81682">
        <ele>246.600006104</ele>
        <time>2015-12-22T09:59:28.385Z</time>
      </trkpt>
      <trkpt lat="45.96382" lon="4.81675">
        <ele>246.600006104</ele>
        <time>2015-12-22T09:59:29.367Z</time>
      </trkpt>
      <trkpt lat="45.96385" lon="4.81669">
        <ele>246.699996948</ele>
        <time>2015-12-22T09:59:30.394Z</time>
      </trkpt>
      <trkpt lat="45.96387" lon="4.81662">
        <ele>246.800003052</ele>
        <time>2015-12-22T09:59:31.37Z</time>
      </trkpt>
      <trkpt lat="45.96389" lon="4.81656">
        <ele>246.899993896</ele>
        <time>2015-12-22T09:59:32.385Z</time>
      </trkpt>
      <trkpt lat="45.96391" lon="4.8165">
        <ele>247</ele>
        <time>2015-12-22T09:59:33.369Z</time>
      </trkpt>
      <trkpt lat="45.96393" lon="4.81644">
        <ele>247.199996948</ele>
        <time>2015-12-22T09:59:34.385Z</time>
      </trkpt>
      <trkpt lat="45.96395" lon="4.81638">
        <ele>247.300003052</ele>
        <time>2015-12-22T09:59:35.366Z</time>
      </trkpt>
      <trkpt lat="45.96397" lon="4.81631">
        <ele>247.300003052</ele>
        <time>2015-12-22T09:59:36.385Z</time>
      </trkpt>
      <trkpt lat="45.96399" lon="4.81626">
        <ele>247.300003052</ele>
        <time>2015-12-22T09:59:37.37Z</time>
      </trkpt>
      <trkpt lat="45.96401" lon="4.81619">
        <ele>247.399993896</ele>
        <time>2015-12-22T09:59:38.42Z</time>
      </trkpt>
      <trkpt lat="45.96403" lon="4.81613">
        <ele>247.5</ele>
        <time>2015-12-22T09:59:39.368Z</time>
      </trkpt>
      <trkpt lat="45.96406" lon="4.81606">
        <ele>247.5</ele>
        <time>2015-12-22T09:59:40.385Z</time>
      </trkpt>
      <trkpt lat="45.96408" lon="4.81599">
        <ele>247.600006104</ele>
        <time>2015-12-22T09:59:41.366Z</time>
      </trkpt>
      <trkpt lat="45.96411" lon="4.81592">
        <ele>247.600006104</ele>
        <time>2015-12-22T09:59:42.387Z</time>
      </trkpt>
      <trkpt lat="45.96414" lon="4.81585">
        <ele>247.600006104</ele>
        <time>2015-12-22T09:59:43.37Z</time>
      </trkpt>
      <trkpt lat="45.96416" lon="4.81577">
        <ele>247.199996948</ele>
        <time>2015-12-22T09:59:44.385Z</time>
      </trkpt>
      <trkpt lat="45.96419" lon="4.81569">
        <ele>246.800003052</ele>
        <time>2015-12-22T09:59:45.366Z</time>
      </trkpt>
      <trkpt lat="45.96422" lon="4.81561">
        <ele>246.5</ele>
        <time>2015-12-22T09:59:46.413Z</time>
      </trkpt>
      <trkpt lat="45.96425" lon="4.81553">
        <ele>246.199996948</ele>
        <time>2015-12-22T09:59:47.359Z</time>
      </trkpt>
      <trkpt lat="45.96428" lon="4.81545">
        <ele>245.800003052</ele>
        <time>2015-12-22T09:59:48.386Z</time>
      </trkpt>
      <trkpt lat="45.96432" lon="4.81537">
        <ele>245.399993896</ele>
        <time>2015-12-22T09:59:49.378Z</time>
      </trkpt>
      <trkpt lat="45.96435" lon="4.8153">
        <ele>245.199996948</ele>
        <time>2015-12-22T09:59:50.386Z</time>
      </trkpt>
      <trkpt lat="45.96439" lon="4.81522">
        <ele>244.899993896</ele>
        <time>2015-12-22T09:59:51.368Z</time>
      </trkpt>
      <trkpt lat="45.96444" lon="4.81516">
        <ele>244.600006104</ele>
        <time>2015-12-22T09:59:52.386Z</time>
      </trkpt>
      <trkpt lat="45.96449" lon="4.81509">
        <ele>244.399993896</ele>
        <time>2015-12-22T09:59:53.368Z</time>
      </trkpt>
      <trkpt lat="45.96454" lon="4.81503">
        <ele>244.300003052</ele>
        <time>2015-12-22T09:59:54.385Z</time>
      </trkpt>
      <trkpt lat="45.96459" lon="4.81497">
        <ele>244.300003052</ele>
        <time>2015-12-22T09:59:55.369Z</time>
      </trkpt>
      <trkpt lat="45.96464" lon="4.81491">
        <ele>244.199996948</ele>
        <time>2015-12-22T09:59:56.388Z</time>
      </trkpt>
      <trkpt lat="45.96468" lon="4.81487">
        <ele>244.300003052</ele>
        <time>2015-12-22T09:59:57.368Z</time>
      </trkpt>
      <trkpt lat="45.96473" lon="4.81482">
        <ele>244.300003052</ele>
        <time>2015-12-22T09:59:58.385Z</time>
      </trkpt>
      <trkpt lat="45.96478" lon="4.81479">
        <ele>244.800003052</ele>
        <time>2015-12-22T09:59:59.385Z</time>
      </trkpt>
      <trkpt lat="45.96483" lon="4.81475">
        <ele>245</ele>
        <time>2015-12-22T10:00:00.398Z</time>
      </trkpt>
      <trkpt lat="45.96487" lon="4.81471">
        <ele>245.199996948</ele>
        <time>2015-12-22T10:00:01.37Z</time>
      </trkpt>
      <trkpt lat="45.96492" lon="4.81467">
        <ele>245.399993896</ele>
        <time>2015-12-22T10:00:02.385Z</time>
      </trkpt>
      <trkpt lat="45.96496" lon="4.81464">
        <ele>245.5</ele>
        <time>2015-12-22T10:00:03.367Z</time>
      </trkpt>
      <trkpt lat="45.96501" lon="4.81461">
        <ele>245.699996948</ele>
        <time>2015-12-22T10:00:04.387Z</time>
      </trkpt>
      <trkpt lat="45.96505" lon="4.81458">
        <ele>246</ele>
        <time>2015-12-22T10:00:05.368Z</time>
      </trkpt>
      <trkpt lat="45.96512" lon="4.81451">
        <ele>246.399993896</ele>
        <time>2015-12-22T10:00:07.396Z</time>
      </trkpt>
      <trkpt lat="45.96516" lon="4.81448">
        <ele>246.600006104</ele>
        <time>2015-12-22T10:00:08.367Z</time>
      </trkpt>
      <trkpt lat="45.9652" lon="4.81445">
        <ele>246.800003052</ele>
        <time>2015-12-22T10:00:09.438Z</time>
      </trkpt>
      <trkpt lat="45.96524" lon="4.81442">
        <ele>246.899993896</ele>
        <time>2015-12-22T10:00:10.39Z</time>
      </trkpt>
      <trkpt lat="45.96528" lon="4.81438">
        <ele>246.899993896</ele>
        <time>2015-12-22T10:00:11.387Z</time>
      </trkpt>
      <trkpt lat="45.96533" lon="4.81435">
        <ele>247</ele>
        <time>2015-12-22T10:00:12.368Z</time>
      </trkpt>
      <trkpt lat="45.96538" lon="4.8143">
        <ele>246.899993896</ele>
        <time>2015-12-22T10:00:13.39Z</time>
      </trkpt>
      <trkpt lat="45.96543" lon="4.81426">
        <ele>246.899993896</ele>
        <time>2015-12-22T10:00:14.368Z</time>
      </trkpt>
      <trkpt lat="45.96548" lon="4.81422">
        <ele>246.899993896</ele>
        <time>2015-12-22T10:00:15.393Z</time>
      </trkpt>
      <trkpt lat="45.96553" lon="4.81418">
        <ele>247</ele>
        <time>2015-12-22T10:00:16.368Z</time>
      </trkpt>
      <trkpt lat="45.96558" lon="4.81414">
        <ele>247</ele>
        <time>2015-12-22T10:00:17.387Z</time>
      </trkpt>
      <trkpt lat="45.96563" lon="4.8141">
        <ele>247.100006104</ele>
        <time>2015-12-22T10:00:18.368Z</time>
      </trkpt>
      <trkpt lat="45.96568" lon="4.81406">
        <ele>247.300003052</ele>
        <time>2015-12-22T10:00:19.401Z</time>
      </trkpt>
      <trkpt lat="45.96573" lon="4.81401">
        <ele>247.399993896</ele>
        <time>2015-12-22T10:00:20.366Z</time>
      </trkpt>
      <trkpt lat="45.96579" lon="4.81396">
        <ele>247.5</ele>
        <time>2015-12-22T10:00:21.385Z</time>
      </trkpt>
      <trkpt lat="45.96584" lon="4.81391">
        <ele>247.5</ele>
        <time>2015-12-22T10:00:22.371Z</time>
      </trkpt>
      <trkpt lat="45.9659" lon="4.81386">
        <ele>247.399993896</ele>
        <time>2015-12-22T10:00:23.385Z</time>
      </trkpt>
      <trkpt lat="45.96594" lon="4.81381">
        <ele>247.800003052</ele>
        <time>2015-12-22T10:00:24.366Z</time>
      </trkpt>
      <trkpt lat="45.96599" lon="4.81375">
        <ele>248</ele>
        <time>2015-12-22T10:00:25.403Z</time>
      </trkpt>
      <trkpt lat="45.96604" lon="4.81369">
        <ele>248.399993896</ele>
        <time>2015-12-22T10:00:26.368Z</time>
      </trkpt>
      <trkpt lat="45.96608" lon="4.81363">
        <ele>248.399993896</ele>
        <time>2015-12-22T10:00:27.386Z</time>
      </trkpt>
      <trkpt lat="45.96612" lon="4.81357">
        <ele>248.699996948</ele>
        <time>2015-12-22T10:00:28.366Z</time>
      </trkpt>
      <trkpt lat="45.96615" lon="4.8135">
        <ele>248.699996948</ele>
        <time>2015-12-22T10:00:29.385Z</time>
      </trkpt>
      <trkpt lat="45.96619" lon="4.81344">
        <ele>248.800003052</ele>
        <time>2015-12-22T10:00:30.367Z</time>
      </trkpt>
      <trkpt lat="45.96622" lon="4.81337">
        <ele>248.800003052</ele>
        <time>2015-12-22T10:00:31.427Z</time>
      </trkpt>
      <trkpt lat="45.96626" lon="4.81329">
        <ele>248.899993896</ele>
        <time>2015-12-22T10:00:32.38Z</time>
      </trkpt>
      <trkpt lat="45.96629" lon="4.81322">
        <ele>248.800003052</ele>
        <time>2015-12-22T10:00:33.401Z</time>
      </trkpt>
      <trkpt lat="45.96632" lon="4.81315">
        <ele>248.699996948</ele>
        <time>2015-12-22T10:00:34.38Z</time>
      </trkpt>
      <trkpt lat="45.96636" lon="4.81307">
        <ele>248.800003052</ele>
        <time>2015-12-22T10:00:35.399Z</time>
      </trkpt>
      <trkpt lat="45.96639" lon="4.813">
        <ele>248.600006104</ele>
        <time>2015-12-22T10:00:36.428Z</time>
      </trkpt>
      <trkpt lat="45.96642" lon="4.81292">
        <ele>248.399993896</ele>
        <time>2015-12-22T10:00:37.468Z</time>
      </trkpt>
      <trkpt lat="45.96645" lon="4.81286">
        <ele>248.600006104</ele>
        <time>2015-12-22T10:00:38.397Z</time>
      </trkpt>
      <trkpt lat="45.96648" lon="4.81279">
        <ele>248.899993896</ele>
        <time>2015-12-22T10:00:39.432Z</time>
      </trkpt>
      <trkpt lat="45.96651" lon="4.81272">
        <ele>249</ele>
        <time>2015-12-22T10:00:40.402Z</time>
      </trkpt>
      <trkpt lat="45.96655" lon="4.81265">
        <ele>249.100006104</ele>
        <time>2015-12-22T10:00:41.438Z</time>
      </trkpt>
      <trkpt lat="45.96658" lon="4.81258">
        <ele>249.100006104</ele>
        <time>2015-12-22T10:00:42.402Z</time>
      </trkpt>
      <trkpt lat="45.96662" lon="4.81251">
        <ele>249.300003052</ele>
        <time>2015-12-22T10:00:43.44Z</time>
      </trkpt>
      <trkpt lat="45.96665" lon="4.81243">
        <ele>249.5</ele>
        <time>2015-12-22T10:00:44.396Z</time>
      </trkpt>
      <trkpt lat="45.96668" lon="4.81237">
        <ele>249.600006104</ele>
        <time>2015-12-22T10:00:45.433Z</time>
      </trkpt>
      <trkpt lat="45.96671" lon="4.8123">
        <ele>249.5</ele>
        <time>2015-12-22T10:00:46.399Z</time>
      </trkpt>
      <trkpt lat="45.96675" lon="4.81223">
        <ele>249.600006104</ele>
        <time>2015-12-22T10:00:47.385Z</time>
      </trkpt>
      <trkpt lat="45.96678" lon="4.81216">
        <ele>249.399993896</ele>
        <time>2015-12-22T10:00:48.371Z</time>
      </trkpt>
      <trkpt lat="45.96681" lon="4.8121">
        <ele>249.300003052</ele>
        <time>2015-12-22T10:00:49.393Z</time>
      </trkpt>
      <trkpt lat="45.96686" lon="4.81205">
        <ele>249.100006104</ele>
        <time>2015-12-22T10:00:50.366Z</time>
      </trkpt>
      <trkpt lat="45.9669" lon="4.81199">
        <ele>248.399993896</ele>
        <time>2015-12-22T10:00:51.386Z</time>
      </trkpt>
      <trkpt lat="45.96695" lon="4.81194">
        <ele>247.899993896</ele>
        <time>2015-12-22T10:00:52.366Z</time>
      </trkpt>
      <trkpt lat="45.967" lon="4.81189">
        <ele>247.600006104</ele>
        <time>2015-12-22T10:00:53.391Z</time>
      </trkpt>
      <trkpt lat="45.96705" lon="4.81184">
        <ele>247.399993896</ele>
        <time>2015-12-22T10:00:54.366Z</time>
      </trkpt>
      <trkpt lat="45.96709" lon="4.81179">
        <ele>246.899993896</ele>
        <time>2015-12-22T10:00:55.459Z</time>
      </trkpt>
      <trkpt lat="45.96714" lon="4.81175">
        <ele>246.5</ele>
        <time>2015-12-22T10:00:56.382Z</time>
      </trkpt>
      <trkpt lat="45.9672" lon="4.8117">
        <ele>246.100006104</ele>
        <time>2015-12-22T10:00:57.386Z</time>
      </trkpt>
      <trkpt lat="45.96725" lon="4.81164">
        <ele>245.699996948</ele>
        <time>2015-12-22T10:00:58.371Z</time>
      </trkpt>
      <trkpt lat="45.9673" lon="4.81159">
        <ele>245.600006104</ele>
        <time>2015-12-22T10:00:59.386Z</time>
      </trkpt>
      <trkpt lat="45.96736" lon="4.81154">
        <ele>245.399993896</ele>
        <time>2015-12-22T10:01:00.367Z</time>
      </trkpt>
      <trkpt lat="45.96741" lon="4.81149">
        <ele>245.5</ele>
        <time>2015-12-22T10:01:01.388Z</time>
      </trkpt>
      <trkpt lat="45.96747" lon="4.81144">
        <ele>245.100006104</ele>
        <time>2015-12-22T10:01:02.382Z</time>
      </trkpt>
      <trkpt lat="45.96754" lon="4.81138">
        <ele>244.899993896</ele>
        <time>2015-12-22T10:01:03.386Z</time>
      </trkpt>
      <trkpt lat="45.9676" lon="4.81133">
        <ele>244.800003052</ele>
        <time>2015-12-22T10:01:04.367Z</time>
      </trkpt>
      <trkpt lat="45.96767" lon="4.81127">
        <ele>244.5</ele>
        <time>2015-12-22T10:01:05.385Z</time>
      </trkpt>
      <trkpt lat="45.96774" lon="4.81123">
        <ele>244.199996948</ele>
        <time>2015-12-22T10:01:06.366Z</time>
      </trkpt>
      <trkpt lat="45.96782" lon="4.81118">
        <ele>243.300003052</ele>
        <time>2015-12-22T10:01:07.388Z</time>
      </trkpt>
      <trkpt lat="45.96789" lon="4.81113">
        <ele>242.800003052</ele>
        <time>2015-12-22T10:01:08.367Z</time>
      </trkpt>
      <trkpt lat="45.96797" lon="4.81109">
        <ele>242.399993896</ele>
        <time>2015-12-22T10:01:09.411Z</time>
      </trkpt>
      <trkpt lat="45.96806" lon="4.81104">
        <ele>241.800003052</ele>
        <time>2015-12-22T10:01:10.366Z</time>
      </trkpt>
      <trkpt lat="45.96806" lon="4.81104">
        <ele>241.800003052</ele>
        <time>2015-12-22T10:01:10.387Z</time>
      </trkpt>
      <trkpt lat="45.96814" lon="4.811">
        <ele>240.800003052</ele>
        <time>2015-12-22T10:01:11.368Z</time>
      </trkpt>
      <trkpt lat="45.96814" lon="4.811">
        <ele>240.800003052</ele>
        <time>2015-12-22T10:01:11.39Z</time>
      </trkpt>
      <trkpt lat="45.96823" lon="4.81096">
        <ele>240.100006104</ele>
        <time>2015-12-22T10:01:12.369Z</time>
      </trkpt>
      <trkpt lat="45.96823" lon="4.81096">
        <ele>240.100006104</ele>
        <time>2015-12-22T10:01:12.421Z</time>
      </trkpt>
      <trkpt lat="45.96831" lon="4.81091">
        <ele>239.5</ele>
        <time>2015-12-22T10:01:13.371Z</time>
      </trkpt>
      <trkpt lat="45.96831" lon="4.81091">
        <ele>239.5</ele>
        <time>2015-12-22T10:01:13.392Z</time>
      </trkpt>
      <trkpt lat="45.9684" lon="4.81086">
        <ele>239.100006104</ele>
        <time>2015-12-22T10:01:14.374Z</time>
      </trkpt>
      <trkpt lat="45.9684" lon="4.81086">
        <ele>239.100006104</ele>
        <time>2015-12-22T10:01:14.393Z</time>
      </trkpt>
      <trkpt lat="45.96849" lon="4.81081">
        <ele>238.5</ele>
        <time>2015-12-22T10:01:15.37Z</time>
      </trkpt>
      <trkpt lat="45.96849" lon="4.81081">
        <ele>238.5</ele>
        <time>2015-12-22T10:01:15.403Z</time>
      </trkpt>
      <trkpt lat="45.96857" lon="4.81076">
        <ele>238.199996948</ele>
        <time>2015-12-22T10:01:16.384Z</time>
      </trkpt>
      <trkpt lat="45.96865" lon="4.81072">
        <ele>237.800003052</ele>
        <time>2015-12-22T10:01:17.397Z</time>
      </trkpt>
      <trkpt lat="45.96872" lon="4.81068">
        <ele>237.399993896</ele>
        <time>2015-12-22T10:01:18.37Z</time>
      </trkpt>
      <trkpt lat="45.96877" lon="4.81065">
        <ele>237</ele>
        <time>2015-12-22T10:01:19.399Z</time>
      </trkpt>
      <trkpt lat="45.96881" lon="4.81063">
        <ele>236.600006104</ele>
        <time>2015-12-22T10:01:20.374Z</time>
      </trkpt>
      <trkpt lat="45.96889" lon="4.81059">
        <ele>236</ele>
        <time>2015-12-22T10:01:22.395Z</time>
      </trkpt>
      <trkpt lat="45.96892" lon="4.81057">
        <ele>235.699996948</ele>
        <time>2015-12-22T10:01:23.373Z</time>
      </trkpt>
      <trkpt lat="45.96897" lon="4.81055">
        <ele>235.699996948</ele>
        <time>2015-12-22T10:01:24.395Z</time>
      </trkpt>
      <trkpt lat="45.96901" lon="4.81054">
        <ele>235.600006104</ele>
        <time>2015-12-22T10:01:25.373Z</time>
      </trkpt>
      <trkpt lat="45.96906" lon="4.81053">
        <ele>235.5</ele>
        <time>2015-12-22T10:01:26.395Z</time>
      </trkpt>
      <trkpt lat="45.96912" lon="4.81052">
        <ele>235.5</ele>
        <time>2015-12-22T10:01:27.39Z</time>
      </trkpt>
      <trkpt lat="45.96918" lon="4.81052">
        <ele>235.899993896</ele>
        <time>2015-12-22T10:01:28.391Z</time>
      </trkpt>
      <trkpt lat="45.96925" lon="4.81052">
        <ele>236.199996948</ele>
        <time>2015-12-22T10:01:29.369Z</time>
      </trkpt>
      <trkpt lat="45.96931" lon="4.81051">
        <ele>236</ele>
        <time>2015-12-22T10:01:30.392Z</time>
      </trkpt>
      <trkpt lat="45.96938" lon="4.81051">
        <ele>235.699996948</ele>
        <time>2015-12-22T10:01:31.374Z</time>
      </trkpt>
      <trkpt lat="45.96945" lon="4.8105">
        <ele>235.300003052</ele>
        <time>2015-12-22T10:01:32.389Z</time>
      </trkpt>
      <trkpt lat="45.96952" lon="4.8105">
        <ele>235.399993896</ele>
        <time>2015-12-22T10:01:33.37Z</time>
      </trkpt>
      <trkpt lat="45.96959" lon="4.8105">
        <ele>235.199996948</ele>
        <time>2015-12-22T10:01:34.39Z</time>
      </trkpt>
      <trkpt lat="45.96967" lon="4.81049">
        <ele>235.399993896</ele>
        <time>2015-12-22T10:01:35.371Z</time>
      </trkpt>
      <trkpt lat="45.96974" lon="4.81048">
        <ele>235</ele>
        <time>2015-12-22T10:01:36.395Z</time>
      </trkpt>
      <trkpt lat="45.96982" lon="4.81047">
        <ele>234.899993896</ele>
        <time>2015-12-22T10:01:37.372Z</time>
      </trkpt>
      <trkpt lat="45.9699" lon="4.81046">
        <ele>234.600006104</ele>
        <time>2015-12-22T10:01:38.391Z</time>
      </trkpt>
      <trkpt lat="45.96997" lon="4.81045">
        <ele>234.399993896</ele>
        <time>2015-12-22T10:01:39.37Z</time>
      </trkpt>
      <trkpt lat="45.97006" lon="4.81043">
        <ele>234</ele>
        <time>2015-12-22T10:01:40.416Z</time>
      </trkpt>
      <trkpt lat="45.97014" lon="4.81042">
        <ele>233.399993896</ele>
        <time>2015-12-22T10:01:41.369Z</time>
      </trkpt>
      <trkpt lat="45.97014" lon="4.81042">
        <ele>233.399993896</ele>
        <time>2015-12-22T10:01:41.395Z</time>
      </trkpt>
      <trkpt lat="45.97023" lon="4.81041">
        <ele>232.800003052</ele>
        <time>2015-12-22T10:01:42.369Z</time>
      </trkpt>
      <trkpt lat="45.97023" lon="4.81041">
        <ele>232.800003052</ele>
        <time>2015-12-22T10:01:42.395Z</time>
      </trkpt>
      <trkpt lat="45.97033" lon="4.81039">
        <ele>232.600006104</ele>
        <time>2015-12-22T10:01:43.372Z</time>
      </trkpt>
      <trkpt lat="45.97033" lon="4.81039">
        <ele>232.600006104</ele>
        <time>2015-12-22T10:01:43.391Z</time>
      </trkpt>
      <trkpt lat="45.97042" lon="4.81038">
        <ele>231.899993896</ele>
        <time>2015-12-22T10:01:44.37Z</time>
      </trkpt>
      <trkpt lat="45.97051" lon="4.81039">
        <ele>231.399993896</ele>
        <time>2015-12-22T10:01:45.388Z</time>
      </trkpt>
      <trkpt lat="45.97059" lon="4.81042">
        <ele>230.5</ele>
        <time>2015-12-22T10:01:46.369Z</time>
      </trkpt>
      <trkpt lat="45.97066" lon="4.81048">
        <ele>229.699996948</ele>
        <time>2015-12-22T10:01:47.388Z</time>
      </trkpt>
      <trkpt lat="45.97071" lon="4.81054">
        <ele>229</ele>
        <time>2015-12-22T10:01:48.369Z</time>
      </trkpt>
      <trkpt lat="45.97076" lon="4.81063">
        <ele>228.5</ele>
        <time>2015-12-22T10:01:49.396Z</time>
      </trkpt>
      <trkpt lat="45.9708" lon="4.81074">
        <ele>227.699996948</ele>
        <time>2015-12-22T10:01:50.369Z</time>
      </trkpt>
      <trkpt lat="45.9708" lon="4.81074">
        <ele>227.699996948</ele>
        <time>2015-12-22T10:01:50.405Z</time>
      </trkpt>
      <trkpt lat="45.97085" lon="4.81084">
        <ele>227.199996948</ele>
        <time>2015-12-22T10:01:51.37Z</time>
      </trkpt>
      <trkpt lat="45.97091" lon="4.81093">
        <ele>226.699996948</ele>
        <time>2015-12-22T10:01:52.392Z</time>
      </trkpt>
      <trkpt lat="45.97097" lon="4.81102">
        <ele>226.199996948</ele>
        <time>2015-12-22T10:01:53.371Z</time>
      </trkpt>
      <trkpt lat="45.97103" lon="4.81111">
        <ele>225.600006104</ele>
        <time>2015-12-22T10:01:54.39Z</time>
      </trkpt>
      <trkpt lat="45.97111" lon="4.81118">
        <ele>224.899993896</ele>
        <time>2015-12-22T10:01:55.377Z</time>
      </trkpt>
      <trkpt lat="45.97111" lon="4.81118">
        <ele>224.899993896</ele>
        <time>2015-12-22T10:01:55.423Z</time>
      </trkpt>
      <trkpt lat="45.97119" lon="4.81122">
        <ele>224.100006104</ele>
        <time>2015-12-22T10:01:56.369Z</time>
      </trkpt>
      <trkpt lat="45.97128" lon="4.81126">
        <ele>223.300003052</ele>
        <time>2015-12-22T10:01:57.392Z</time>
      </trkpt>
      <trkpt lat="45.97137" lon="4.81128">
        <ele>222.899993896</ele>
        <time>2015-12-22T10:01:58.387Z</time>
      </trkpt>
      <trkpt lat="45.97145" lon="4.8113">
        <ele>222.399993896</ele>
        <time>2015-12-22T10:01:59.388Z</time>
      </trkpt>
      <trkpt lat="45.97154" lon="4.81131">
        <ele>221.699996948</ele>
        <time>2015-12-22T10:02:00.368Z</time>
      </trkpt>
      <trkpt lat="45.97162" lon="4.81131">
        <ele>221.300003052</ele>
        <time>2015-12-22T10:02:01.505Z</time>
      </trkpt>
      <trkpt lat="45.9717" lon="4.81129">
        <ele>220.899993896</ele>
        <time>2015-12-22T10:02:02.368Z</time>
      </trkpt>
      <trkpt lat="45.97178" lon="4.81128">
        <ele>220.199996948</ele>
        <time>2015-12-22T10:02:03.391Z</time>
      </trkpt>
      <trkpt lat="45.97185" lon="4.81125">
        <ele>219.600006104</ele>
        <time>2015-12-22T10:02:04.37Z</time>
      </trkpt>
      <trkpt lat="45.97193" lon="4.81122">
        <ele>218.800003052</ele>
        <time>2015-12-22T10:02:05.39Z</time>
      </trkpt>
      <trkpt lat="45.97201" lon="4.81119">
        <ele>218.5</ele>
        <time>2015-12-22T10:02:06.37Z</time>
      </trkpt>
      <trkpt lat="45.97208" lon="4.81115">
        <ele>218.199996948</ele>
        <time>2015-12-22T10:02:07.396Z</time>
      </trkpt>
      <trkpt lat="45.97216" lon="4.81111">
        <ele>217.899993896</ele>
        <time>2015-12-22T10:02:08.369Z</time>
      </trkpt>
      <trkpt lat="45.97223" lon="4.81106">
        <ele>218</ele>
        <time>2015-12-22T10:02:09.405Z</time>
      </trkpt>
      <trkpt lat="45.97229" lon="4.811">
        <ele>217.600006104</ele>
        <time>2015-12-22T10:02:10.367Z</time>
      </trkpt>
      <trkpt lat="45.97235" lon="4.81093">
        <ele>217.399993896</ele>
        <time>2015-12-22T10:02:11.387Z</time>
      </trkpt>
      <trkpt lat="45.97241" lon="4.81087">
        <ele>217.199996948</ele>
        <time>2015-12-22T10:02:12.368Z</time>
      </trkpt>
      <trkpt lat="45.97247" lon="4.81081">
        <ele>216.899993896</ele>
        <time>2015-12-22T10:02:13.391Z</time>
      </trkpt>
      <trkpt lat="45.97253" lon="4.81076">
        <ele>216.800003052</ele>
        <time>2015-12-22T10:02:14.369Z</time>
      </trkpt>
      <trkpt lat="45.97261" lon="4.81072">
        <ele>217.399993896</ele>
        <time>2015-12-22T10:02:15.389Z</time>
      </trkpt>
      <trkpt lat="45.97268" lon="4.8107">
        <ele>217.899993896</ele>
        <time>2015-12-22T10:02:16.369Z</time>
      </trkpt>
      <trkpt lat="45.97274" lon="4.81068">
        <ele>217.699996948</ele>
        <time>2015-12-22T10:02:17.388Z</time>
      </trkpt>
      <trkpt lat="45.97281" lon="4.81066">
        <ele>217.399993896</ele>
        <time>2015-12-22T10:02:18.367Z</time>
      </trkpt>
      <trkpt lat="45.97287" lon="4.81065">
        <ele>217.399993896</ele>
        <time>2015-12-22T10:02:19.406Z</time>
      </trkpt>
      <trkpt lat="45.97293" lon="4.81064">
        <ele>217.699996948</ele>
        <time>2015-12-22T10:02:20.369Z</time>
      </trkpt>
      <trkpt lat="45.973" lon="4.81064">
        <ele>217.800003052</ele>
        <time>2015-12-22T10:02:21.388Z</time>
      </trkpt>
      <trkpt lat="45.97307" lon="4.81063">
        <ele>217.600006104</ele>
        <time>2015-12-22T10:02:22.369Z</time>
      </trkpt>
      <trkpt lat="45.97314" lon="4.81062">
        <ele>217.600006104</ele>
        <time>2015-12-22T10:02:23.387Z</time>
      </trkpt>
      <trkpt lat="45.97319" lon="4.8106">
        <ele>217.399993896</ele>
        <time>2015-12-22T10:02:24.368Z</time>
      </trkpt>
      <trkpt lat="45.97325" lon="4.81059">
        <ele>217.300003052</ele>
        <time>2015-12-22T10:02:25.415Z</time>
      </trkpt>
      <trkpt lat="45.9733" lon="4.81058">
        <ele>217.600006104</ele>
        <time>2015-12-22T10:02:26.369Z</time>
      </trkpt>
      <trkpt lat="45.97335" lon="4.81057">
        <ele>217.600006104</ele>
        <time>2015-12-22T10:02:27.391Z</time>
      </trkpt>
      <trkpt lat="45.9734" lon="4.81056">
        <ele>217.800003052</ele>
        <time>2015-12-22T10:02:28.368Z</time>
      </trkpt>
      <trkpt lat="45.97349" lon="4.81054">
        <ele>217.600006104</ele>
        <time>2015-12-22T10:02:30.387Z</time>
      </trkpt>
      <trkpt lat="45.97353" lon="4.81054">
        <ele>217.800003052</ele>
        <time>2015-12-22T10:02:31.37Z</time>
      </trkpt>
      <trkpt lat="45.97359" lon="4.81053">
        <ele>218.5</ele>
        <time>2015-12-22T10:02:33.388Z</time>
      </trkpt>
      <trkpt lat="45.97362" lon="4.81053">
        <ele>218.800003052</ele>
        <time>2015-12-22T10:02:34.367Z</time>
      </trkpt>
      <trkpt lat="45.97368" lon="4.81055">
        <ele>218.5</ele>
        <time>2015-12-22T10:02:37.395Z</time>
      </trkpt>
      <trkpt lat="45.97371" lon="4.81058">
        <ele>219.199996948</ele>
        <time>2015-12-22T10:02:38.368Z</time>
      </trkpt>
      <trkpt lat="45.97374" lon="4.81068">
        <ele>220.300003052</ele>
        <time>2015-12-22T10:02:40.39Z</time>
      </trkpt>
      <trkpt lat="45.97375" lon="4.81073">
        <ele>221</ele>
        <time>2015-12-22T10:02:41.367Z</time>
      </trkpt>
      <trkpt lat="45.97379" lon="4.81082">
        <ele>222.800003052</ele>
        <time>2015-12-22T10:02:43.392Z</time>
      </trkpt>
      <trkpt lat="45.97382" lon="4.81086">
        <ele>223.800003052</ele>
        <time>2015-12-22T10:02:44.369Z</time>
      </trkpt>
      <trkpt lat="45.97388" lon="4.81091">
        <ele>224.5</ele>
        <time>2015-12-22T10:02:46.388Z</time>
      </trkpt>
      <trkpt lat="45.97391" lon="4.81091">
        <ele>225</ele>
        <time>2015-12-22T10:02:47.368Z</time>
      </trkpt>
      <trkpt lat="45.97398" lon="4.81089">
        <ele>225.100006104</ele>
        <time>2015-12-22T10:02:49.394Z</time>
      </trkpt>
      <trkpt lat="45.97402" lon="4.81087">
        <ele>225.300003052</ele>
        <time>2015-12-22T10:02:50.369Z</time>
      </trkpt>
      <trkpt lat="45.97407" lon="4.81086">
        <ele>225.600006104</ele>
        <time>2015-12-22T10:02:51.392Z</time>
      </trkpt>
      <trkpt lat="45.97412" lon="4.81082">
        <ele>226</ele>
        <time>2015-12-22T10:02:52.368Z</time>
      </trkpt>
      <trkpt lat="45.97417" lon="4.81081">
        <ele>226.800003052</ele>
        <time>2015-12-22T10:02:53.394Z</time>
      </trkpt>
      <trkpt lat="45.97422" lon="4.81078">
        <ele>227.300003052</ele>
        <time>2015-12-22T10:02:54.367Z</time>
      </trkpt>
      <trkpt lat="45.97426" lon="4.81075">
        <ele>227.5</ele>
        <time>2015-12-22T10:02:55.39Z</time>
      </trkpt>
      <trkpt lat="45.97431" lon="4.81074">
        <ele>227.300003052</ele>
        <time>2015-12-22T10:02:56.368Z</time>
      </trkpt>
      <trkpt lat="45.97437" lon="4.81072">
        <ele>227.199996948</ele>
        <time>2015-12-22T10:02:57.388Z</time>
      </trkpt>
      <trkpt lat="45.97442" lon="4.81069">
        <ele>227.100006104</ele>
        <time>2015-12-22T10:02:58.371Z</time>
      </trkpt>
      <trkpt lat="45.97448" lon="4.81066">
        <ele>227</ele>
        <time>2015-12-22T10:02:59.387Z</time>
      </trkpt>
      <trkpt lat="45.97454" lon="4.81063">
        <ele>227</ele>
        <time>2015-12-22T10:03:00.368Z</time>
      </trkpt>
      <trkpt lat="45.9746" lon="4.81059">
        <ele>226.800003052</ele>
        <time>2015-12-22T10:03:01.406Z</time>
      </trkpt>
      <trkpt lat="45.97465" lon="4.81055">
        <ele>226.600006104</ele>
        <time>2015-12-22T10:03:02.382Z</time>
      </trkpt>
      <trkpt lat="45.9747" lon="4.81051">
        <ele>226.5</ele>
        <time>2015-12-22T10:03:03.391Z</time>
      </trkpt>
      <trkpt lat="45.97475" lon="4.81048">
        <ele>226.300003052</ele>
        <time>2015-12-22T10:03:04.368Z</time>
      </trkpt>
      <trkpt lat="45.9748" lon="4.81044">
        <ele>226.100006104</ele>
        <time>2015-12-22T10:03:05.387Z</time>
      </trkpt>
      <trkpt lat="45.97486" lon="4.81041">
        <ele>226</ele>
        <time>2015-12-22T10:03:06.367Z</time>
      </trkpt>
      <trkpt lat="45.97492" lon="4.81038">
        <ele>225.699996948</ele>
        <time>2015-12-22T10:03:07.392Z</time>
      </trkpt>
      <trkpt lat="45.97497" lon="4.81034">
        <ele>225.399993896</ele>
        <time>2015-12-22T10:03:08.367Z</time>
      </trkpt>
      <trkpt lat="45.97503" lon="4.81032">
        <ele>225.300003052</ele>
        <time>2015-12-22T10:03:09.419Z</time>
      </trkpt>
      <trkpt lat="45.97509" lon="4.81031">
        <ele>224.399993896</ele>
        <time>2015-12-22T10:03:10.388Z</time>
      </trkpt>
      <trkpt lat="45.97514" lon="4.8103">
        <ele>224.199996948</ele>
        <time>2015-12-22T10:03:11.389Z</time>
      </trkpt>
      <trkpt lat="45.9752" lon="4.81027">
        <ele>224.300003052</ele>
        <time>2015-12-22T10:03:12.368Z</time>
      </trkpt>
      <trkpt lat="45.97525" lon="4.81024">
        <ele>224.300003052</ele>
        <time>2015-12-22T10:03:13.389Z</time>
      </trkpt>
      <trkpt lat="45.97531" lon="4.81021">
        <ele>224.300003052</ele>
        <time>2015-12-22T10:03:14.366Z</time>
      </trkpt>
      <trkpt lat="45.97535" lon="4.81016">
        <ele>224.100006104</ele>
        <time>2015-12-22T10:03:15.393Z</time>
      </trkpt>
      <trkpt lat="45.9754" lon="4.81012">
        <ele>224</ele>
        <time>2015-12-22T10:03:16.367Z</time>
      </trkpt>
      <trkpt lat="45.97545" lon="4.81008">
        <ele>224.399993896</ele>
        <time>2015-12-22T10:03:17.403Z</time>
      </trkpt>
      <trkpt lat="45.9755" lon="4.81005">
        <ele>224.300003052</ele>
        <time>2015-12-22T10:03:18.366Z</time>
      </trkpt>
      <trkpt lat="45.97555" lon="4.81001">
        <ele>224.199996948</ele>
        <time>2015-12-22T10:03:19.4Z</time>
      </trkpt>
      <trkpt lat="45.9756" lon="4.80998">
        <ele>224.300003052</ele>
        <time>2015-12-22T10:03:20.368Z</time>
      </trkpt>
      <trkpt lat="45.97566" lon="4.80994">
        <ele>224.5</ele>
        <time>2015-12-22T10:03:21.391Z</time>
      </trkpt>
      <trkpt lat="45.97571" lon="4.8099">
        <ele>224.399993896</ele>
        <time>2015-12-22T10:03:22.368Z</time>
      </trkpt>
      <trkpt lat="45.97576" lon="4.80985">
        <ele>224.699996948</ele>
        <time>2015-12-22T10:03:23.39Z</time>
      </trkpt>
      <trkpt lat="45.97581" lon="4.80982">
        <ele>224.899993896</ele>
        <time>2015-12-22T10:03:24.371Z</time>
      </trkpt>
      <trkpt lat="45.97586" lon="4.80978">
        <ele>225.100006104</ele>
        <time>2015-12-22T10:03:25.402Z</time>
      </trkpt>
      <trkpt lat="45.97591" lon="4.80975">
        <ele>225.300003052</ele>
        <time>2015-12-22T10:03:26.368Z</time>
      </trkpt>
      <trkpt lat="45.97596" lon="4.80971">
        <ele>225.399993896</ele>
        <time>2015-12-22T10:03:27.39Z</time>
      </trkpt>
      <trkpt lat="45.97601" lon="4.80968">
        <ele>225.5</ele>
        <time>2015-12-22T10:03:28.367Z</time>
      </trkpt>
      <trkpt lat="45.97606" lon="4.80964">
        <ele>225.5</ele>
        <time>2015-12-22T10:03:29.388Z</time>
      </trkpt>
      <trkpt lat="45.97612" lon="4.8096">
        <ele>225.699996948</ele>
        <time>2015-12-22T10:03:30.369Z</time>
      </trkpt>
      <trkpt lat="45.97617" lon="4.80956">
        <ele>225.600006104</ele>
        <time>2015-12-22T10:03:31.39Z</time>
      </trkpt>
      <trkpt lat="45.97623" lon="4.80953">
        <ele>225.399993896</ele>
        <time>2015-12-22T10:03:32.367Z</time>
      </trkpt>
      <trkpt lat="45.97628" lon="4.80949">
        <ele>225.300003052</ele>
        <time>2015-12-22T10:03:33.388Z</time>
      </trkpt>
      <trkpt lat="45.97634" lon="4.80945">
        <ele>225.199996948</ele>
        <time>2015-12-22T10:03:34.367Z</time>
      </trkpt>
      <trkpt lat="45.97639" lon="4.8094">
        <ele>225.199996948</ele>
        <time>2015-12-22T10:03:35.388Z</time>
      </trkpt>
      <trkpt lat="45.97645" lon="4.80936">
        <ele>225.199996948</ele>
        <time>2015-12-22T10:03:36.368Z</time>
      </trkpt>
      <trkpt lat="45.97651" lon="4.80932">
        <ele>225.699996948</ele>
        <time>2015-12-22T10:03:37.391Z</time>
      </trkpt>
      <trkpt lat="45.97656" lon="4.80929">
        <ele>225.899993896</ele>
        <time>2015-12-22T10:03:38.386Z</time>
      </trkpt>
      <trkpt lat="45.97661" lon="4.80925">
        <ele>226.300003052</ele>
        <time>2015-12-22T10:03:39.387Z</time>
      </trkpt>
      <trkpt lat="45.97667" lon="4.80922">
        <ele>226.399993896</ele>
        <time>2015-12-22T10:03:40.368Z</time>
      </trkpt>
      <trkpt lat="45.97673" lon="4.80918">
        <ele>226.899993896</ele>
        <time>2015-12-22T10:03:41.387Z</time>
      </trkpt>
      <trkpt lat="45.97679" lon="4.80915">
        <ele>227.300003052</ele>
        <time>2015-12-22T10:03:42.368Z</time>
      </trkpt>
      <trkpt lat="45.97685" lon="4.80912">
        <ele>227.699996948</ele>
        <time>2015-12-22T10:03:43.39Z</time>
      </trkpt>
      <trkpt lat="45.97691" lon="4.8091">
        <ele>227.5</ele>
        <time>2015-12-22T10:03:44.366Z</time>
      </trkpt>
      <trkpt lat="45.97697" lon="4.80907">
        <ele>227.899993896</ele>
        <time>2015-12-22T10:03:45.386Z</time>
      </trkpt>
      <trkpt lat="45.97702" lon="4.80904">
        <ele>228.199996948</ele>
        <time>2015-12-22T10:03:46.367Z</time>
      </trkpt>
      <trkpt lat="45.97707" lon="4.809">
        <ele>228.300003052</ele>
        <time>2015-12-22T10:03:47.389Z</time>
      </trkpt>
      <trkpt lat="45.97713" lon="4.80896">
        <ele>228.199996948</ele>
        <time>2015-12-22T10:03:48.367Z</time>
      </trkpt>
      <trkpt lat="45.97719" lon="4.80892">
        <ele>228.600006104</ele>
        <time>2015-12-22T10:03:49.408Z</time>
      </trkpt>
      <trkpt lat="45.97725" lon="4.80888">
        <ele>228.699996948</ele>
        <time>2015-12-22T10:03:50.37Z</time>
      </trkpt>
      <trkpt lat="45.9773" lon="4.80883">
        <ele>229</ele>
        <time>2015-12-22T10:03:51.387Z</time>
      </trkpt>
      <trkpt lat="45.97735" lon="4.8088">
        <ele>229.199996948</ele>
        <time>2015-12-22T10:03:52.367Z</time>
      </trkpt>
      <trkpt lat="45.9774" lon="4.80876">
        <ele>229.300003052</ele>
        <time>2015-12-22T10:03:53.386Z</time>
      </trkpt>
      <trkpt lat="45.97745" lon="4.80871">
        <ele>229.399993896</ele>
        <time>2015-12-22T10:03:54.366Z</time>
      </trkpt>
      <trkpt lat="45.9775" lon="4.80867">
        <ele>229.399993896</ele>
        <time>2015-12-22T10:03:55.409Z</time>
      </trkpt>
      <trkpt lat="45.97754" lon="4.80863">
        <ele>229.399993896</ele>
        <time>2015-12-22T10:03:56.367Z</time>
      </trkpt>
      <trkpt lat="45.97759" lon="4.80859">
        <ele>229.300003052</ele>
        <time>2015-12-22T10:03:57.396Z</time>
      </trkpt>
      <trkpt lat="45.97764" lon="4.80855">
        <ele>229.399993896</ele>
        <time>2015-12-22T10:03:58.367Z</time>
      </trkpt>
      <trkpt lat="45.97769" lon="4.8085">
        <ele>229.600006104</ele>
        <time>2015-12-22T10:03:59.4Z</time>
      </trkpt>
      <trkpt lat="45.97775" lon="4.80846">
        <ele>229.600006104</ele>
        <time>2015-12-22T10:04:00.367Z</time>
      </trkpt>
      <trkpt lat="45.9778" lon="4.80842">
        <ele>229.399993896</ele>
        <time>2015-12-22T10:04:01.39Z</time>
      </trkpt>
      <trkpt lat="45.97786" lon="4.80837">
        <ele>229.5</ele>
        <time>2015-12-22T10:04:02.367Z</time>
      </trkpt>
      <trkpt lat="45.97791" lon="4.80833">
        <ele>229.699996948</ele>
        <time>2015-12-22T10:04:03.388Z</time>
      </trkpt>
      <trkpt lat="45.97796" lon="4.80828">
        <ele>229.300003052</ele>
        <time>2015-12-22T10:04:04.429Z</time>
      </trkpt>
      <trkpt lat="45.978" lon="4.80824">
        <ele>229.300003052</ele>
        <time>2015-12-22T10:04:05.387Z</time>
      </trkpt>
      <trkpt lat="45.97805" lon="4.80819">
        <ele>229.199996948</ele>
        <time>2015-12-22T10:04:06.368Z</time>
      </trkpt>
      <trkpt lat="45.9781" lon="4.80815">
        <ele>229.100006104</ele>
        <time>2015-12-22T10:04:07.393Z</time>
      </trkpt>
      <trkpt lat="45.97816" lon="4.80811">
        <ele>229.199996948</ele>
        <time>2015-12-22T10:04:08.368Z</time>
      </trkpt>
      <trkpt lat="45.97822" lon="4.80807">
        <ele>229.399993896</ele>
        <time>2015-12-22T10:04:09.423Z</time>
      </trkpt>
      <trkpt lat="45.97827" lon="4.80804">
        <ele>228</ele>
        <time>2015-12-22T10:04:10.368Z</time>
      </trkpt>
      <trkpt lat="45.97833" lon="4.80801">
        <ele>227.100006104</ele>
        <time>2015-12-22T10:04:11.394Z</time>
      </trkpt>
      <trkpt lat="45.97838" lon="4.80796">
        <ele>227.100006104</ele>
        <time>2015-12-22T10:04:12.367Z</time>
      </trkpt>
      <trkpt lat="45.97843" lon="4.80792">
        <ele>226.399993896</ele>
        <time>2015-12-22T10:04:13.39Z</time>
      </trkpt>
      <trkpt lat="45.97849" lon="4.80788">
        <ele>226</ele>
        <time>2015-12-22T10:04:14.367Z</time>
      </trkpt>
      <trkpt lat="45.97855" lon="4.80782">
        <ele>225.800003052</ele>
        <time>2015-12-22T10:04:15.387Z</time>
      </trkpt>
      <trkpt lat="45.9786" lon="4.80778">
        <ele>225.800003052</ele>
        <time>2015-12-22T10:04:16.369Z</time>
      </trkpt>
      <trkpt lat="45.97866" lon="4.80773">
        <ele>225.600006104</ele>
        <time>2015-12-22T10:04:17.386Z</time>
      </trkpt>
      <trkpt lat="45.97871" lon="4.80769">
        <ele>224.800003052</ele>
        <time>2015-12-22T10:04:18.368Z</time>
      </trkpt>
      <trkpt lat="45.97877" lon="4.80765">
        <ele>224.899993896</ele>
        <time>2015-12-22T10:04:19.415Z</time>
      </trkpt>
      <trkpt lat="45.97883" lon="4.80761">
        <ele>224.899993896</ele>
        <time>2015-12-22T10:04:20.368Z</time>
      </trkpt>
      <trkpt lat="45.97888" lon="4.80758">
        <ele>224.899993896</ele>
        <time>2015-12-22T10:04:21.387Z</time>
      </trkpt>
      <trkpt lat="45.97894" lon="4.80755">
        <ele>224.800003052</ele>
        <time>2015-12-22T10:04:22.367Z</time>
      </trkpt>
      <trkpt lat="45.979" lon="4.80751">
        <ele>224.800003052</ele>
        <time>2015-12-22T10:04:23.386Z</time>
      </trkpt>
      <trkpt lat="45.97906" lon="4.80748">
        <ele>224.600006104</ele>
        <time>2015-12-22T10:04:24.367Z</time>
      </trkpt>
      <trkpt lat="45.97912" lon="4.80744">
        <ele>224.5</ele>
        <time>2015-12-22T10:04:25.404Z</time>
      </trkpt>
      <trkpt lat="45.97918" lon="4.80741">
        <ele>224.5</ele>
        <time>2015-12-22T10:04:26.366Z</time>
      </trkpt>
      <trkpt lat="45.97924" lon="4.80739">
        <ele>224.899993896</ele>
        <time>2015-12-22T10:04:27.388Z</time>
      </trkpt>
      <trkpt lat="45.9793" lon="4.80736">
        <ele>224.899993896</ele>
        <time>2015-12-22T10:04:28.367Z</time>
      </trkpt>
      <trkpt lat="45.97937" lon="4.80733">
        <ele>225</ele>
        <time>2015-12-22T10:04:29.405Z</time>
      </trkpt>
      <trkpt lat="45.97943" lon="4.80729">
        <ele>225.100006104</ele>
        <time>2015-12-22T10:04:30.366Z</time>
      </trkpt>
      <trkpt lat="45.9795" lon="4.80727">
        <ele>224.399993896</ele>
        <time>2015-12-22T10:04:31.426Z</time>
      </trkpt>
      <trkpt lat="45.97957" lon="4.80724">
        <ele>223.899993896</ele>
        <time>2015-12-22T10:04:32.367Z</time>
      </trkpt>
      <trkpt lat="45.97963" lon="4.8072">
        <ele>223.699996948</ele>
        <time>2015-12-22T10:04:33.388Z</time>
      </trkpt>
      <trkpt lat="45.97971" lon="4.80716">
        <ele>223.300003052</ele>
        <time>2015-12-22T10:04:34.368Z</time>
      </trkpt>
      <trkpt lat="45.97978" lon="4.80713">
        <ele>223</ele>
        <time>2015-12-22T10:04:35.387Z</time>
      </trkpt>
      <trkpt lat="45.97985" lon="4.8071">
        <ele>222.800003052</ele>
        <time>2015-12-22T10:04:36.367Z</time>
      </trkpt>
      <trkpt lat="45.97992" lon="4.80708">
        <ele>222.5</ele>
        <time>2015-12-22T10:04:37.391Z</time>
      </trkpt>
      <trkpt lat="45.97999" lon="4.80705">
        <ele>222.5</ele>
        <time>2015-12-22T10:04:38.366Z</time>
      </trkpt>
      <trkpt lat="45.98006" lon="4.80703">
        <ele>223</ele>
        <time>2015-12-22T10:04:39.404Z</time>
      </trkpt>
      <trkpt lat="45.98012" lon="4.80702">
        <ele>222.600006104</ele>
        <time>2015-12-22T10:04:40.389Z</time>
      </trkpt>
      <trkpt lat="45.98018" lon="4.80702">
        <ele>222.100006104</ele>
        <time>2015-12-22T10:04:41.403Z</time>
      </trkpt>
      <trkpt lat="45.98023" lon="4.80705">
        <ele>222.800003052</ele>
        <time>2015-12-22T10:04:42.371Z</time>
      </trkpt>
      <trkpt lat="45.98027" lon="4.80708">
        <ele>223</ele>
        <time>2015-12-22T10:04:43.394Z</time>
      </trkpt>
      <trkpt lat="45.98031" lon="4.80713">
        <ele>222.399993896</ele>
        <time>2015-12-22T10:04:44.368Z</time>
      </trkpt>
      <trkpt lat="45.98033" lon="4.80724">
        <ele>222.699996948</ele>
        <time>2015-12-22T10:04:46.385Z</time>
      </trkpt>
      <trkpt lat="45.98033" lon="4.80728">
        <ele>222.699996948</ele>
        <time>2015-12-22T10:04:47.369Z</time>
      </trkpt>
      <trkpt lat="45.98035" lon="4.80739">
        <ele>222.399993896</ele>
        <time>2015-12-22T10:04:51.387Z</time>
      </trkpt>
      <trkpt lat="45.98035" lon="4.80742">
        <ele>222.399993896</ele>
        <time>2015-12-22T10:04:52.369Z</time>
      </trkpt>
      <trkpt lat="45.98037" lon="4.8075">
        <ele>223.300003052</ele>
        <time>2015-12-22T10:04:54.436Z</time>
      </trkpt>
      <trkpt lat="45.98038" lon="4.80755">
        <ele>223.800003052</ele>
        <time>2015-12-22T10:04:55.369Z</time>
      </trkpt>
      <trkpt lat="45.98042" lon="4.80764">
        <ele>225.199996948</ele>
        <time>2015-12-22T10:04:57.392Z</time>
      </trkpt>
      <trkpt lat="45.98043" lon="4.80768">
        <ele>225.5</ele>
        <time>2015-12-22T10:04:58.366Z</time>
      </trkpt>
      <trkpt lat="45.98044" lon="4.80779">
        <ele>226.300003052</ele>
        <time>2015-12-22T10:05:00.387Z</time>
      </trkpt>
      <trkpt lat="45.98044" lon="4.80785">
        <ele>226.399993896</ele>
        <time>2015-12-22T10:05:01.372Z</time>
      </trkpt>
      <trkpt lat="45.98046" lon="4.80796">
        <ele>226.300003052</ele>
        <time>2015-12-22T10:05:03.388Z</time>
      </trkpt>
      <trkpt lat="45.98048" lon="4.80802">
        <ele>226.5</ele>
        <time>2015-12-22T10:05:04.366Z</time>
      </trkpt>
      <trkpt lat="45.98051" lon="4.80813">
        <ele>226.5</ele>
        <time>2015-12-22T10:05:06.386Z</time>
      </trkpt>
      <trkpt lat="45.98051" lon="4.80819">
        <ele>226.5</ele>
        <time>2015-12-22T10:05:07.369Z</time>
      </trkpt>
      <trkpt lat="45.98053" lon="4.8083">
        <ele>227</ele>
        <time>2015-12-22T10:05:09.39Z</time>
      </trkpt>
      <trkpt lat="45.98055" lon="4.80835">
        <ele>227.300003052</ele>
        <time>2015-12-22T10:05:10.367Z</time>
      </trkpt>
      <trkpt lat="45.98058" lon="4.80846">
        <ele>227.800003052</ele>
        <time>2015-12-22T10:05:12.394Z</time>
      </trkpt>
      <trkpt lat="45.98059" lon="4.80851">
        <ele>227.800003052</ele>
        <time>2015-12-22T10:05:13.369Z</time>
      </trkpt>
      <trkpt lat="45.98062" lon="4.80861">
        <ele>228.199996948</ele>
        <time>2015-12-22T10:05:15.387Z</time>
      </trkpt>
      <trkpt lat="45.98063" lon="4.80866">
        <ele>228.199996948</ele>
        <time>2015-12-22T10:05:16.367Z</time>
      </trkpt>
      <trkpt lat="45.98065" lon="4.80875">
        <ele>228.800003052</ele>
        <time>2015-12-22T10:05:18.387Z</time>
      </trkpt>
      <trkpt lat="45.98066" lon="4.80879">
        <ele>229.199996948</ele>
        <time>2015-12-22T10:05:19.372Z</time>
      </trkpt>
      <trkpt lat="45.98068" lon="4.80889">
        <ele>230</ele>
        <time>2015-12-22T10:05:21.388Z</time>
      </trkpt>
      <trkpt lat="45.98069" lon="4.80893">
        <ele>230.100006104</ele>
        <time>2015-12-22T10:05:22.368Z</time>
      </trkpt>
      <trkpt lat="45.98071" lon="4.80903">
        <ele>231.300003052</ele>
        <time>2015-12-22T10:05:24.386Z</time>
      </trkpt>
      <trkpt lat="45.98073" lon="4.80907">
        <ele>231.5</ele>
        <time>2015-12-22T10:05:25.37Z</time>
      </trkpt>
      <trkpt lat="45.98075" lon="4.80917">
        <ele>231.899993896</ele>
        <time>2015-12-22T10:05:27.393Z</time>
      </trkpt>
      <trkpt lat="45.98076" lon="4.80922">
        <ele>232.199996948</ele>
        <time>2015-12-22T10:05:28.385Z</time>
      </trkpt>
      <trkpt lat="45.98078" lon="4.80931">
        <ele>233</ele>
        <time>2015-12-22T10:05:30.386Z</time>
      </trkpt>
      <trkpt lat="45.9808" lon="4.80935">
        <ele>233.199996948</ele>
        <time>2015-12-22T10:05:31.369Z</time>
      </trkpt>
      <trkpt lat="45.98083" lon="4.80944">
        <ele>233.699996948</ele>
        <time>2015-12-22T10:05:33.386Z</time>
      </trkpt>
      <trkpt lat="45.98085" lon="4.80948">
        <ele>234.100006104</ele>
        <time>2015-12-22T10:05:34.372Z</time>
      </trkpt>
      <trkpt lat="45.98087" lon="4.80957">
        <ele>234.800003052</ele>
        <time>2015-12-22T10:05:36.387Z</time>
      </trkpt>
      <trkpt lat="45.98087" lon="4.80961">
        <ele>235.5</ele>
        <time>2015-12-22T10:05:37.369Z</time>
      </trkpt>
      <trkpt lat="45.98088" lon="4.80971">
        <ele>236.199996948</ele>
        <time>2015-12-22T10:05:39.387Z</time>
      </trkpt>
      <trkpt lat="45.98089" lon="4.80974">
        <ele>236.699996948</ele>
        <time>2015-12-22T10:05:40.367Z</time>
      </trkpt>
      <trkpt lat="45.98093" lon="4.80981">
        <ele>237.199996948</ele>
        <time>2015-12-22T10:05:42.386Z</time>
      </trkpt>
      <trkpt lat="45.98095" lon="4.80985">
        <ele>237.600006104</ele>
        <time>2015-12-22T10:05:43.372Z</time>
      </trkpt>
      <trkpt lat="45.98097" lon="4.80994">
        <ele>238.699996948</ele>
        <time>2015-12-22T10:05:45.387Z</time>
      </trkpt>
      <trkpt lat="45.98098" lon="4.80999">
        <ele>238.899993896</ele>
        <time>2015-12-22T10:05:46.369Z</time>
      </trkpt>
      <trkpt lat="45.98103" lon="4.8101">
        <ele>239.300003052</ele>
        <time>2015-12-22T10:05:48.387Z</time>
      </trkpt>
      <trkpt lat="45.98105" lon="4.81015">
        <ele>239.399993896</ele>
        <time>2015-12-22T10:05:49.373Z</time>
      </trkpt>
      <trkpt lat="45.98107" lon="4.81022">
        <ele>239.300003052</ele>
        <time>2015-12-22T10:05:50.397Z</time>
      </trkpt>
      <trkpt lat="45.98109" lon="4.81028">
        <ele>239.399993896</ele>
        <time>2015-12-22T10:05:51.366Z</time>
      </trkpt>
      <trkpt lat="45.9811" lon="4.81035">
        <ele>239.399993896</ele>
        <time>2015-12-22T10:05:52.384Z</time>
      </trkpt>
      <trkpt lat="45.98113" lon="4.81042">
        <ele>239.300003052</ele>
        <time>2015-12-22T10:05:53.366Z</time>
      </trkpt>
      <trkpt lat="45.98115" lon="4.81048">
        <ele>239.300003052</ele>
        <time>2015-12-22T10:05:54.39Z</time>
      </trkpt>
      <trkpt lat="45.98117" lon="4.81055">
        <ele>239.300003052</ele>
        <time>2015-12-22T10:05:55.386Z</time>
      </trkpt>
      <trkpt lat="45.98119" lon="4.81061">
        <ele>239.600006104</ele>
        <time>2015-12-22T10:05:56.413Z</time>
      </trkpt>
      <trkpt lat="45.98121" lon="4.81068">
        <ele>239.800003052</ele>
        <time>2015-12-22T10:05:57.367Z</time>
      </trkpt>
      <trkpt lat="45.98122" lon="4.81074">
        <ele>239.699996948</ele>
        <time>2015-12-22T10:05:58.388Z</time>
      </trkpt>
      <trkpt lat="45.98125" lon="4.81081">
        <ele>239.399993896</ele>
        <time>2015-12-22T10:05:59.384Z</time>
      </trkpt>
      <trkpt lat="45.98127" lon="4.81087">
        <ele>239.899993896</ele>
        <time>2015-12-22T10:06:00.397Z</time>
      </trkpt>
      <trkpt lat="45.9813" lon="4.81094">
        <ele>240.100006104</ele>
        <time>2015-12-22T10:06:01.37Z</time>
      </trkpt>
      <trkpt lat="45.98133" lon="4.81101">
        <ele>239.600006104</ele>
        <time>2015-12-22T10:06:02.385Z</time>
      </trkpt>
      <trkpt lat="45.98135" lon="4.81107">
        <ele>239.899993896</ele>
        <time>2015-12-22T10:06:03.366Z</time>
      </trkpt>
      <trkpt lat="45.98138" lon="4.81113">
        <ele>240.100006104</ele>
        <time>2015-12-22T10:06:04.386Z</time>
      </trkpt>
      <trkpt lat="45.9814" lon="4.8112">
        <ele>239.800003052</ele>
        <time>2015-12-22T10:06:05.366Z</time>
      </trkpt>
      <trkpt lat="45.98143" lon="4.81126">
        <ele>239.800003052</ele>
        <time>2015-12-22T10:06:06.387Z</time>
      </trkpt>
      <trkpt lat="45.98145" lon="4.81132">
        <ele>239.800003052</ele>
        <time>2015-12-22T10:06:07.369Z</time>
      </trkpt>
      <trkpt lat="45.98148" lon="4.81138">
        <ele>240</ele>
        <time>2015-12-22T10:06:08.387Z</time>
      </trkpt>
      <trkpt lat="45.98151" lon="4.81143">
        <ele>240.100006104</ele>
        <time>2015-12-22T10:06:09.391Z</time>
      </trkpt>
      <trkpt lat="45.98153" lon="4.81149">
        <ele>240</ele>
        <time>2015-12-22T10:06:10.385Z</time>
      </trkpt>
      <trkpt lat="45.98155" lon="4.81155">
        <ele>240.300003052</ele>
        <time>2015-12-22T10:06:11.368Z</time>
      </trkpt>
      <trkpt lat="45.98158" lon="4.81161">
        <ele>240.100006104</ele>
        <time>2015-12-22T10:06:12.386Z</time>
      </trkpt>
      <trkpt lat="45.9816" lon="4.81168">
        <ele>239.699996948</ele>
        <time>2015-12-22T10:06:13.369Z</time>
      </trkpt>
      <trkpt lat="45.98161" lon="4.81175">
        <ele>239.699996948</ele>
        <time>2015-12-22T10:06:14.387Z</time>
      </trkpt>
      <trkpt lat="45.98163" lon="4.81181">
        <ele>239.899993896</ele>
        <time>2015-12-22T10:06:15.367Z</time>
      </trkpt>
      <trkpt lat="45.98164" lon="4.81188">
        <ele>240.199996948</ele>
        <time>2015-12-22T10:06:16.385Z</time>
      </trkpt>
      <trkpt lat="45.98165" lon="4.81195">
        <ele>240.5</ele>
        <time>2015-12-22T10:06:17.368Z</time>
      </trkpt>
      <trkpt lat="45.98166" lon="4.81202">
        <ele>240.699996948</ele>
        <time>2015-12-22T10:06:18.386Z</time>
      </trkpt>
      <trkpt lat="45.98167" lon="4.81209">
        <ele>240.699996948</ele>
        <time>2015-12-22T10:06:19.369Z</time>
      </trkpt>
      <trkpt lat="45.98167" lon="4.81216">
        <ele>240.699996948</ele>
        <time>2015-12-22T10:06:20.438Z</time>
      </trkpt>
      <trkpt lat="45.98168" lon="4.81223">
        <ele>240.800003052</ele>
        <time>2015-12-22T10:06:21.367Z</time>
      </trkpt>
      <trkpt lat="45.98169" lon="4.8123">
        <ele>241.100006104</ele>
        <time>2015-12-22T10:06:22.386Z</time>
      </trkpt>
      <trkpt lat="45.98171" lon="4.81238">
        <ele>241.399993896</ele>
        <time>2015-12-22T10:06:23.368Z</time>
      </trkpt>
      <trkpt lat="45.98172" lon="4.81244">
        <ele>241.600006104</ele>
        <time>2015-12-22T10:06:24.401Z</time>
      </trkpt>
      <trkpt lat="45.98173" lon="4.81252">
        <ele>241.899993896</ele>
        <time>2015-12-22T10:06:25.369Z</time>
      </trkpt>
      <trkpt lat="45.98174" lon="4.81259">
        <ele>241.899993896</ele>
        <time>2015-12-22T10:06:26.39Z</time>
      </trkpt>
      <trkpt lat="45.98176" lon="4.81265">
        <ele>242.199996948</ele>
        <time>2015-12-22T10:06:27.368Z</time>
      </trkpt>
      <trkpt lat="45.98177" lon="4.81272">
        <ele>242.600006104</ele>
        <time>2015-12-22T10:06:28.443Z</time>
      </trkpt>
      <trkpt lat="45.98178" lon="4.8128">
        <ele>242.5</ele>
        <time>2015-12-22T10:06:29.366Z</time>
      </trkpt>
      <trkpt lat="45.98177" lon="4.81289">
        <ele>242.399993896</ele>
        <time>2015-12-22T10:06:30.388Z</time>
      </trkpt>
      <trkpt lat="45.98178" lon="4.81297">
        <ele>242.199996948</ele>
        <time>2015-12-22T10:06:31.369Z</time>
      </trkpt>
      <trkpt lat="45.98176" lon="4.81303">
        <ele>241.800003052</ele>
        <time>2015-12-22T10:06:32.387Z</time>
      </trkpt>
      <trkpt lat="45.98178" lon="4.8131">
        <ele>241.300003052</ele>
        <time>2015-12-22T10:06:33.367Z</time>
      </trkpt>
      <trkpt lat="45.98181" lon="4.81317">
        <ele>241.699996948</ele>
        <time>2015-12-22T10:06:34.402Z</time>
      </trkpt>
      <trkpt lat="45.98183" lon="4.81323">
        <ele>242.600006104</ele>
        <time>2015-12-22T10:06:35.366Z</time>
      </trkpt>
      <trkpt lat="45.98185" lon="4.8133">
        <ele>243.100006104</ele>
        <time>2015-12-22T10:06:36.401Z</time>
      </trkpt>
      <trkpt lat="45.98187" lon="4.81337">
        <ele>243.800003052</ele>
        <time>2015-12-22T10:06:37.369Z</time>
      </trkpt>
      <trkpt lat="45.98189" lon="4.81343">
        <ele>244</ele>
        <time>2015-12-22T10:06:38.385Z</time>
      </trkpt>
      <trkpt lat="45.98191" lon="4.8135">
        <ele>244.199996948</ele>
        <time>2015-12-22T10:06:39.367Z</time>
      </trkpt>
      <trkpt lat="45.98193" lon="4.81356">
        <ele>244.100006104</ele>
        <time>2015-12-22T10:06:40.385Z</time>
      </trkpt>
      <trkpt lat="45.98194" lon="4.81363">
        <ele>244.399993896</ele>
        <time>2015-12-22T10:06:41.367Z</time>
      </trkpt>
      <trkpt lat="45.98196" lon="4.81371">
        <ele>244.100006104</ele>
        <time>2015-12-22T10:06:42.42Z</time>
      </trkpt>
      <trkpt lat="45.98198" lon="4.81378">
        <ele>244</ele>
        <time>2015-12-22T10:06:43.369Z</time>
      </trkpt>
      <trkpt lat="45.982" lon="4.81384">
        <ele>244</ele>
        <time>2015-12-22T10:06:44.407Z</time>
      </trkpt>
      <trkpt lat="45.98203" lon="4.81391">
        <ele>243.899993896</ele>
        <time>2015-12-22T10:06:45.366Z</time>
      </trkpt>
      <trkpt lat="45.98205" lon="4.81397">
        <ele>243.899993896</ele>
        <time>2015-12-22T10:06:46.385Z</time>
      </trkpt>
      <trkpt lat="45.98207" lon="4.81404">
        <ele>244.100006104</ele>
        <time>2015-12-22T10:06:47.366Z</time>
      </trkpt>
      <trkpt lat="45.98209" lon="4.8141">
        <ele>244.300003052</ele>
        <time>2015-12-22T10:06:48.388Z</time>
      </trkpt>
      <trkpt lat="45.98212" lon="4.81417">
        <ele>244.100006104</ele>
        <time>2015-12-22T10:06:49.372Z</time>
      </trkpt>
      <trkpt lat="45.98214" lon="4.81423">
        <ele>244.199996948</ele>
        <time>2015-12-22T10:06:50.385Z</time>
      </trkpt>
      <trkpt lat="45.98216" lon="4.8143">
        <ele>244.300003052</ele>
        <time>2015-12-22T10:06:51.366Z</time>
      </trkpt>
      <trkpt lat="45.98218" lon="4.81436">
        <ele>244.399993896</ele>
        <time>2015-12-22T10:06:52.39Z</time>
      </trkpt>
      <trkpt lat="45.98221" lon="4.81443">
        <ele>244.5</ele>
        <time>2015-12-22T10:06:53.367Z</time>
      </trkpt>
      <trkpt lat="45.98223" lon="4.81449">
        <ele>244.5</ele>
        <time>2015-12-22T10:06:54.385Z</time>
      </trkpt>
      <trkpt lat="45.98225" lon="4.81455">
        <ele>244.5</ele>
        <time>2015-12-22T10:06:55.369Z</time>
      </trkpt>
      <trkpt lat="45.98227" lon="4.81462">
        <ele>244.600006104</ele>
        <time>2015-12-22T10:06:56.385Z</time>
      </trkpt>
      <trkpt lat="45.98229" lon="4.81468">
        <ele>244.600006104</ele>
        <time>2015-12-22T10:06:57.367Z</time>
      </trkpt>
      <trkpt lat="45.98232" lon="4.81475">
        <ele>244.600006104</ele>
        <time>2015-12-22T10:06:58.385Z</time>
      </trkpt>
      <trkpt lat="45.98234" lon="4.81481">
        <ele>244.399993896</ele>
        <time>2015-12-22T10:06:59.366Z</time>
      </trkpt>
      <trkpt lat="45.98236" lon="4.81487">
        <ele>244.399993896</ele>
        <time>2015-12-22T10:07:00.386Z</time>
      </trkpt>
      <trkpt lat="45.98239" lon="4.81494">
        <ele>244.399993896</ele>
        <time>2015-12-22T10:07:01.368Z</time>
      </trkpt>
      <trkpt lat="45.98241" lon="4.815">
        <ele>244.399993896</ele>
        <time>2015-12-22T10:07:02.4Z</time>
      </trkpt>
      <trkpt lat="45.98243" lon="4.81507">
        <ele>244.399993896</ele>
        <time>2015-12-22T10:07:03.368Z</time>
      </trkpt>
      <trkpt lat="45.98245" lon="4.81514">
        <ele>244.399993896</ele>
        <time>2015-12-22T10:07:04.385Z</time>
      </trkpt>
      <trkpt lat="45.98247" lon="4.81521">
        <ele>244.300003052</ele>
        <time>2015-12-22T10:07:05.367Z</time>
      </trkpt>
      <trkpt lat="45.9825" lon="4.81528">
        <ele>244.199996948</ele>
        <time>2015-12-22T10:07:06.385Z</time>
      </trkpt>
      <trkpt lat="45.98252" lon="4.81535">
        <ele>244.100006104</ele>
        <time>2015-12-22T10:07:07.369Z</time>
      </trkpt>
      <trkpt lat="45.98255" lon="4.81541">
        <ele>244.100006104</ele>
        <time>2015-12-22T10:07:08.443Z</time>
      </trkpt>
      <trkpt lat="45.98257" lon="4.81548">
        <ele>244</ele>
        <time>2015-12-22T10:07:09.366Z</time>
      </trkpt>
      <trkpt lat="45.98259" lon="4.81555">
        <ele>243.899993896</ele>
        <time>2015-12-22T10:07:10.386Z</time>
      </trkpt>
      <trkpt lat="45.98261" lon="4.81561">
        <ele>243.899993896</ele>
        <time>2015-12-22T10:07:11.366Z</time>
      </trkpt>
      <trkpt lat="45.98263" lon="4.81568">
        <ele>243.899993896</ele>
        <time>2015-12-22T10:07:12.384Z</time>
      </trkpt>
      <trkpt lat="45.98265" lon="4.81575">
        <ele>244</ele>
        <time>2015-12-22T10:07:13.367Z</time>
      </trkpt>
      <trkpt lat="45.98267" lon="4.81582">
        <ele>244</ele>
        <time>2015-12-22T10:07:14.391Z</time>
      </trkpt>
      <trkpt lat="45.98269" lon="4.81589">
        <ele>244</ele>
        <time>2015-12-22T10:07:15.366Z</time>
      </trkpt>
      <trkpt lat="45.98271" lon="4.81596">
        <ele>244.100006104</ele>
        <time>2015-12-22T10:07:16.385Z</time>
      </trkpt>
      <trkpt lat="45.98274" lon="4.81604">
        <ele>244</ele>
        <time>2015-12-22T10:07:17.367Z</time>
      </trkpt>
      <trkpt lat="45.98277" lon="4.8161">
        <ele>243.699996948</ele>
        <time>2015-12-22T10:07:18.405Z</time>
      </trkpt>
      <trkpt lat="45.98281" lon="4.81616">
        <ele>243.399993896</ele>
        <time>2015-12-22T10:07:19.369Z</time>
      </trkpt>
      <trkpt lat="45.98284" lon="4.81622">
        <ele>243.100006104</ele>
        <time>2015-12-22T10:07:20.385Z</time>
      </trkpt>
      <trkpt lat="45.98288" lon="4.81628">
        <ele>242.800003052</ele>
        <time>2015-12-22T10:07:21.366Z</time>
      </trkpt>
      <trkpt lat="45.98292" lon="4.81633">
        <ele>242.600006104</ele>
        <time>2015-12-22T10:07:22.387Z</time>
      </trkpt>
      <trkpt lat="45.98297" lon="4.81638">
        <ele>242.199996948</ele>
        <time>2015-12-22T10:07:23.366Z</time>
      </trkpt>
      <trkpt lat="45.98301" lon="4.81644">
        <ele>242</ele>
        <time>2015-12-22T10:07:24.385Z</time>
      </trkpt>
      <trkpt lat="45.98306" lon="4.81648">
        <ele>242</ele>
        <time>2015-12-22T10:07:25.369Z</time>
      </trkpt>
      <trkpt lat="45.98311" lon="4.81652">
        <ele>241.800003052</ele>
        <time>2015-12-22T10:07:26.397Z</time>
      </trkpt>
      <trkpt lat="45.98317" lon="4.81657">
        <ele>241.600006104</ele>
        <time>2015-12-22T10:07:27.367Z</time>
      </trkpt>
      <trkpt lat="45.98322" lon="4.81661">
        <ele>241.5</ele>
        <time>2015-12-22T10:07:28.4Z</time>
      </trkpt>
      <trkpt lat="45.98327" lon="4.81665">
        <ele>241.5</ele>
        <time>2015-12-22T10:07:29.367Z</time>
      </trkpt>
      <trkpt lat="45.98333" lon="4.81669">
        <ele>241.399993896</ele>
        <time>2015-12-22T10:07:30.386Z</time>
      </trkpt>
      <trkpt lat="45.98339" lon="4.81671">
        <ele>241.300003052</ele>
        <time>2015-12-22T10:07:31.37Z</time>
      </trkpt>
      <trkpt lat="45.98344" lon="4.81673">
        <ele>241.199996948</ele>
        <time>2015-12-22T10:07:32.398Z</time>
      </trkpt>
      <trkpt lat="45.98351" lon="4.81675">
        <ele>241.199996948</ele>
        <time>2015-12-22T10:07:33.368Z</time>
      </trkpt>
      <trkpt lat="45.98357" lon="4.81675">
        <ele>241</ele>
        <time>2015-12-22T10:07:34.386Z</time>
      </trkpt>
      <trkpt lat="45.98363" lon="4.81676">
        <ele>240.699996948</ele>
        <time>2015-12-22T10:07:35.367Z</time>
      </trkpt>
      <trkpt lat="45.98369" lon="4.81675">
        <ele>240.199996948</ele>
        <time>2015-12-22T10:07:36.386Z</time>
      </trkpt>
      <trkpt lat="45.98376" lon="4.81674">
        <ele>240</ele>
        <time>2015-12-22T10:07:37.369Z</time>
      </trkpt>
      <trkpt lat="45.98382" lon="4.81672">
        <ele>239.699996948</ele>
        <time>2015-12-22T10:07:38.422Z</time>
      </trkpt>
      <trkpt lat="45.98388" lon="4.8167">
        <ele>239.399993896</ele>
        <time>2015-12-22T10:07:39.367Z</time>
      </trkpt>
      <trkpt lat="45.98395" lon="4.8167">
        <ele>239.199996948</ele>
        <time>2015-12-22T10:07:40.385Z</time>
      </trkpt>
      <trkpt lat="45.98401" lon="4.81668">
        <ele>239.100006104</ele>
        <time>2015-12-22T10:07:41.366Z</time>
      </trkpt>
      <trkpt lat="45.98407" lon="4.81667">
        <ele>239.100006104</ele>
        <time>2015-12-22T10:07:42.384Z</time>
      </trkpt>
      <trkpt lat="45.98413" lon="4.81667">
        <ele>238.899993896</ele>
        <time>2015-12-22T10:07:43.368Z</time>
      </trkpt>
      <trkpt lat="45.98419" lon="4.81667">
        <ele>239</ele>
        <time>2015-12-22T10:07:44.41Z</time>
      </trkpt>
      <trkpt lat="45.98425" lon="4.81668">
        <ele>239</ele>
        <time>2015-12-22T10:07:45.366Z</time>
      </trkpt>
      <trkpt lat="45.98431" lon="4.81671">
        <ele>239.100006104</ele>
        <time>2015-12-22T10:07:46.385Z</time>
      </trkpt>
      <trkpt lat="45.98437" lon="4.81674">
        <ele>239.300003052</ele>
        <time>2015-12-22T10:07:47.366Z</time>
      </trkpt>
      <trkpt lat="45.98442" lon="4.81679">
        <ele>239.5</ele>
        <time>2015-12-22T10:07:48.385Z</time>
      </trkpt>
      <trkpt lat="45.98447" lon="4.81686">
        <ele>239.5</ele>
        <time>2015-12-22T10:07:49.373Z</time>
      </trkpt>
      <trkpt lat="45.98451" lon="4.81694">
        <ele>239.399993896</ele>
        <time>2015-12-22T10:07:50.386Z</time>
      </trkpt>
      <trkpt lat="45.98455" lon="4.81702">
        <ele>239</ele>
        <time>2015-12-22T10:07:51.367Z</time>
      </trkpt>
      <trkpt lat="45.98459" lon="4.8171">
        <ele>238.699996948</ele>
        <time>2015-12-22T10:07:52.387Z</time>
      </trkpt>
      <trkpt lat="45.98464" lon="4.81718">
        <ele>238.600006104</ele>
        <time>2015-12-22T10:07:53.367Z</time>
      </trkpt>
      <trkpt lat="45.98469" lon="4.81725">
        <ele>238.100006104</ele>
        <time>2015-12-22T10:07:54.401Z</time>
      </trkpt>
      <trkpt lat="45.98476" lon="4.81732">
        <ele>237.800003052</ele>
        <time>2015-12-22T10:07:55.37Z</time>
      </trkpt>
      <trkpt lat="45.98483" lon="4.81739">
        <ele>237.300003052</ele>
        <time>2015-12-22T10:07:56.387Z</time>
      </trkpt>
      <trkpt lat="45.9849" lon="4.81746">
        <ele>236.800003052</ele>
        <time>2015-12-22T10:07:57.366Z</time>
      </trkpt>
      <trkpt lat="45.98497" lon="4.81754">
        <ele>236.5</ele>
        <time>2015-12-22T10:07:58.385Z</time>
      </trkpt>
      <trkpt lat="45.98504" lon="4.81762">
        <ele>236.199996948</ele>
        <time>2015-12-22T10:07:59.366Z</time>
      </trkpt>
      <trkpt lat="45.98504" lon="4.81762">
        <ele>236.199996948</ele>
        <time>2015-12-22T10:07:59.398Z</time>
      </trkpt>
      <trkpt lat="45.98511" lon="4.8177">
        <ele>235.699996948</ele>
        <time>2015-12-22T10:08:00.368Z</time>
      </trkpt>
      <trkpt lat="45.98511" lon="4.8177">
        <ele>235.699996948</ele>
        <time>2015-12-22T10:08:00.52Z</time>
      </trkpt>
      <trkpt lat="45.98517" lon="4.8178">
        <ele>235.300003052</ele>
        <time>2015-12-22T10:08:01.37Z</time>
      </trkpt>
      <trkpt lat="45.98523" lon="4.81788">
        <ele>234.699996948</ele>
        <time>2015-12-22T10:08:02.385Z</time>
      </trkpt>
      <trkpt lat="45.98529" lon="4.81796">
        <ele>234.300003052</ele>
        <time>2015-12-22T10:08:03.369Z</time>
      </trkpt>
      <trkpt lat="45.98534" lon="4.81802">
        <ele>234.199996948</ele>
        <time>2015-12-22T10:08:04.386Z</time>
      </trkpt>
      <trkpt lat="45.98538" lon="4.81807">
        <ele>233.600006104</ele>
        <time>2015-12-22T10:08:05.366Z</time>
      </trkpt>
      <trkpt lat="45.98544" lon="4.8181">
        <ele>233.199996948</ele>
        <time>2015-12-22T10:08:06.386Z</time>
      </trkpt>
      <trkpt lat="45.9855" lon="4.81811">
        <ele>232.899993896</ele>
        <time>2015-12-22T10:08:07.369Z</time>
      </trkpt>
      <trkpt lat="45.98556" lon="4.81809">
        <ele>232.699996948</ele>
        <time>2015-12-22T10:08:08.385Z</time>
      </trkpt>
      <trkpt lat="45.98562" lon="4.81804">
        <ele>232.100006104</ele>
        <time>2015-12-22T10:08:09.367Z</time>
      </trkpt>
      <trkpt lat="45.98567" lon="4.81797">
        <ele>231.800003052</ele>
        <time>2015-12-22T10:08:10.404Z</time>
      </trkpt>
      <trkpt lat="45.98571" lon="4.81791">
        <ele>231.300003052</ele>
        <time>2015-12-22T10:08:11.367Z</time>
      </trkpt>
      <trkpt lat="45.98575" lon="4.81785">
        <ele>231</ele>
        <time>2015-12-22T10:08:12.512Z</time>
      </trkpt>
      <trkpt lat="45.9858" lon="4.81779">
        <ele>230.699996948</ele>
        <time>2015-12-22T10:08:13.37Z</time>
      </trkpt>
      <trkpt lat="45.98584" lon="4.81774">
        <ele>230.5</ele>
        <time>2015-12-22T10:08:14.386Z</time>
      </trkpt>
      <trkpt lat="45.9859" lon="4.81769">
        <ele>230.300003052</ele>
        <time>2015-12-22T10:08:15.366Z</time>
      </trkpt>
      <trkpt lat="45.98595" lon="4.81766">
        <ele>230.399993896</ele>
        <time>2015-12-22T10:08:16.385Z</time>
      </trkpt>
      <trkpt lat="45.98601" lon="4.81763">
        <ele>230.399993896</ele>
        <time>2015-12-22T10:08:17.366Z</time>
      </trkpt>
      <trkpt lat="45.98606" lon="4.81761">
        <ele>230.100006104</ele>
        <time>2015-12-22T10:08:18.386Z</time>
      </trkpt>
      <trkpt lat="45.98612" lon="4.81759">
        <ele>230.399993896</ele>
        <time>2015-12-22T10:08:19.369Z</time>
      </trkpt>
      <trkpt lat="45.98617" lon="4.81757">
        <ele>230.399993896</ele>
        <time>2015-12-22T10:08:20.385Z</time>
      </trkpt>
      <trkpt lat="45.98623" lon="4.81755">
        <ele>230.300003052</ele>
        <time>2015-12-22T10:08:21.366Z</time>
      </trkpt>
      <trkpt lat="45.98628" lon="4.81753">
        <ele>230.100006104</ele>
        <time>2015-12-22T10:08:22.385Z</time>
      </trkpt>
      <trkpt lat="45.98634" lon="4.81751">
        <ele>230.199996948</ele>
        <time>2015-12-22T10:08:23.389Z</time>
      </trkpt>
      <trkpt lat="45.98639" lon="4.81749">
        <ele>230.199996948</ele>
        <time>2015-12-22T10:08:24.385Z</time>
      </trkpt>
      <trkpt lat="45.98645" lon="4.81748">
        <ele>230.100006104</ele>
        <time>2015-12-22T10:08:25.369Z</time>
      </trkpt>
      <trkpt lat="45.98651" lon="4.81746">
        <ele>230.5</ele>
        <time>2015-12-22T10:08:26.4Z</time>
      </trkpt>
      <trkpt lat="45.98656" lon="4.81745">
        <ele>230.800003052</ele>
        <time>2015-12-22T10:08:27.368Z</time>
      </trkpt>
      <trkpt lat="45.98662" lon="4.81743">
        <ele>231</ele>
        <time>2015-12-22T10:08:28.442Z</time>
      </trkpt>
      <trkpt lat="45.98667" lon="4.81741">
        <ele>231.100006104</ele>
        <time>2015-12-22T10:08:29.366Z</time>
      </trkpt>
      <trkpt lat="45.98672" lon="4.81739">
        <ele>231.300003052</ele>
        <time>2015-12-22T10:08:30.393Z</time>
      </trkpt>
      <trkpt lat="45.98678" lon="4.81738">
        <ele>231.699996948</ele>
        <time>2015-12-22T10:08:31.369Z</time>
      </trkpt>
      <trkpt lat="45.98684" lon="4.81737">
        <ele>232</ele>
        <time>2015-12-22T10:08:32.4Z</time>
      </trkpt>
      <trkpt lat="45.9869" lon="4.81735">
        <ele>232.199996948</ele>
        <time>2015-12-22T10:08:33.412Z</time>
      </trkpt>
      <trkpt lat="45.98696" lon="4.81734">
        <ele>232.300003052</ele>
        <time>2015-12-22T10:08:34.385Z</time>
      </trkpt>
      <trkpt lat="45.98701" lon="4.81732">
        <ele>232.399993896</ele>
        <time>2015-12-22T10:08:35.366Z</time>
      </trkpt>
      <trkpt lat="45.98707" lon="4.81731">
        <ele>232.699996948</ele>
        <time>2015-12-22T10:08:36.389Z</time>
      </trkpt>
      <trkpt lat="45.98712" lon="4.8173">
        <ele>232.5</ele>
        <time>2015-12-22T10:08:37.369Z</time>
      </trkpt>
      <trkpt lat="45.98717" lon="4.8173">
        <ele>232.699996948</ele>
        <time>2015-12-22T10:08:38.385Z</time>
      </trkpt>
      <trkpt lat="45.98723" lon="4.81732">
        <ele>233.300003052</ele>
        <time>2015-12-22T10:08:39.366Z</time>
      </trkpt>
      <trkpt lat="45.98727" lon="4.81737">
        <ele>233.399993896</ele>
        <time>2015-12-22T10:08:40.386Z</time>
      </trkpt>
      <trkpt lat="45.98731" lon="4.81742">
        <ele>233.699996948</ele>
        <time>2015-12-22T10:08:41.367Z</time>
      </trkpt>
      <trkpt lat="45.98735" lon="4.81748">
        <ele>234.5</ele>
        <time>2015-12-22T10:08:42.402Z</time>
      </trkpt>
      <trkpt lat="45.98739" lon="4.81754">
        <ele>235</ele>
        <time>2015-12-22T10:08:43.368Z</time>
      </trkpt>
      <trkpt lat="45.98743" lon="4.81761">
        <ele>235.399993896</ele>
        <time>2015-12-22T10:08:44.385Z</time>
      </trkpt>
      <trkpt lat="45.98746" lon="4.81767">
        <ele>235.800003052</ele>
        <time>2015-12-22T10:08:45.366Z</time>
      </trkpt>
      <trkpt lat="45.9875" lon="4.81774">
        <ele>236.100006104</ele>
        <time>2015-12-22T10:08:46.438Z</time>
      </trkpt>
      <trkpt lat="45.98753" lon="4.81781">
        <ele>236.199996948</ele>
        <time>2015-12-22T10:08:47.368Z</time>
      </trkpt>
      <trkpt lat="45.98756" lon="4.81789">
        <ele>236.399993896</ele>
        <time>2015-12-22T10:08:48.391Z</time>
      </trkpt>
      <trkpt lat="45.98759" lon="4.81797">
        <ele>236.5</ele>
        <time>2015-12-22T10:08:49.373Z</time>
      </trkpt>
      <trkpt lat="45.98762" lon="4.81805">
        <ele>237</ele>
        <time>2015-12-22T10:08:50.386Z</time>
      </trkpt>
      <trkpt lat="45.98766" lon="4.81812">
        <ele>237.600006104</ele>
        <time>2015-12-22T10:08:51.368Z</time>
      </trkpt>
      <trkpt lat="45.9877" lon="4.81821">
        <ele>237.699996948</ele>
        <time>2015-12-22T10:08:52.384Z</time>
      </trkpt>
      <trkpt lat="45.98773" lon="4.81829">
        <ele>237.800003052</ele>
        <time>2015-12-22T10:08:53.366Z</time>
      </trkpt>
      <trkpt lat="45.98777" lon="4.81837">
        <ele>237.899993896</ele>
        <time>2015-12-22T10:08:54.385Z</time>
      </trkpt>
      <trkpt lat="45.9878" lon="4.81845">
        <ele>238.100006104</ele>
        <time>2015-12-22T10:08:55.368Z</time>
      </trkpt>
      <trkpt lat="45.98784" lon="4.81853">
        <ele>238.300003052</ele>
        <time>2015-12-22T10:08:56.386Z</time>
      </trkpt>
      <trkpt lat="45.98788" lon="4.81861">
        <ele>238.300003052</ele>
        <time>2015-12-22T10:08:57.366Z</time>
      </trkpt>
      <trkpt lat="45.98791" lon="4.81869">
        <ele>238.399993896</ele>
        <time>2015-12-22T10:08:58.402Z</time>
      </trkpt>
      <trkpt lat="45.98794" lon="4.81878">
        <ele>238.5</ele>
        <time>2015-12-22T10:08:59.367Z</time>
      </trkpt>
      <trkpt lat="45.98797" lon="4.81887">
        <ele>238.5</ele>
        <time>2015-12-22T10:09:00.386Z</time>
      </trkpt>
      <trkpt lat="45.988" lon="4.81896">
        <ele>238.5</ele>
        <time>2015-12-22T10:09:01.368Z</time>
      </trkpt>
      <trkpt lat="45.98802" lon="4.81906">
        <ele>238.600006104</ele>
        <time>2015-12-22T10:09:02.39Z</time>
      </trkpt>
      <trkpt lat="45.98803" lon="4.81915">
        <ele>238.600006104</ele>
        <time>2015-12-22T10:09:03.367Z</time>
      </trkpt>
      <trkpt lat="45.98805" lon="4.81926">
        <ele>238.699996948</ele>
        <time>2015-12-22T10:09:04.385Z</time>
      </trkpt>
      <trkpt lat="45.98807" lon="4.81936">
        <ele>238.800003052</ele>
        <time>2015-12-22T10:09:05.366Z</time>
      </trkpt>
      <trkpt lat="45.98808" lon="4.81946">
        <ele>239.199996948</ele>
        <time>2015-12-22T10:09:06.385Z</time>
      </trkpt>
      <trkpt lat="45.98809" lon="4.81955">
        <ele>239.5</ele>
        <time>2015-12-22T10:09:07.368Z</time>
      </trkpt>
      <trkpt lat="45.98811" lon="4.81964">
        <ele>239.5</ele>
        <time>2015-12-22T10:09:08.406Z</time>
      </trkpt>
      <trkpt lat="45.98813" lon="4.81974">
        <ele>239.600006104</ele>
        <time>2015-12-22T10:09:09.366Z</time>
      </trkpt>
      <trkpt lat="45.98814" lon="4.81983">
        <ele>239.800003052</ele>
        <time>2015-12-22T10:09:10.495Z</time>
      </trkpt>
      <trkpt lat="45.98815" lon="4.81993">
        <ele>240.100006104</ele>
        <time>2015-12-22T10:09:11.366Z</time>
      </trkpt>
      <trkpt lat="45.98816" lon="4.82003">
        <ele>240.199996948</ele>
        <time>2015-12-22T10:09:12.385Z</time>
      </trkpt>
      <trkpt lat="45.98818" lon="4.82012">
        <ele>240.300003052</ele>
        <time>2015-12-22T10:09:13.369Z</time>
      </trkpt>
      <trkpt lat="45.98819" lon="4.82021">
        <ele>240.5</ele>
        <time>2015-12-22T10:09:14.386Z</time>
      </trkpt>
      <trkpt lat="45.98821" lon="4.8203">
        <ele>240.399993896</ele>
        <time>2015-12-22T10:09:15.367Z</time>
      </trkpt>
      <trkpt lat="45.98822" lon="4.8204">
        <ele>240.5</ele>
        <time>2015-12-22T10:09:16.385Z</time>
      </trkpt>
      <trkpt lat="45.98824" lon="4.8205">
        <ele>240.600006104</ele>
        <time>2015-12-22T10:09:17.366Z</time>
      </trkpt>
      <trkpt lat="45.98825" lon="4.8206">
        <ele>240.899993896</ele>
        <time>2015-12-22T10:09:18.388Z</time>
      </trkpt>
      <trkpt lat="45.98827" lon="4.82069">
        <ele>240.899993896</ele>
        <time>2015-12-22T10:09:19.368Z</time>
      </trkpt>
      <trkpt lat="45.98829" lon="4.82079">
        <ele>240.899993896</ele>
        <time>2015-12-22T10:09:20.386Z</time>
      </trkpt>
      <trkpt lat="45.9883" lon="4.82088">
        <ele>240.899993896</ele>
        <time>2015-12-22T10:09:21.367Z</time>
      </trkpt>
      <trkpt lat="45.98832" lon="4.82098">
        <ele>240.800003052</ele>
        <time>2015-12-22T10:09:22.385Z</time>
      </trkpt>
      <trkpt lat="45.98833" lon="4.82108">
        <ele>240.899993896</ele>
        <time>2015-12-22T10:09:23.412Z</time>
      </trkpt>
      <trkpt lat="45.98835" lon="4.82117">
        <ele>240.899993896</ele>
        <time>2015-12-22T10:09:24.401Z</time>
      </trkpt>
      <trkpt lat="45.98837" lon="4.82126">
        <ele>241.199996948</ele>
        <time>2015-12-22T10:09:25.368Z</time>
      </trkpt>
      <trkpt lat="45.98839" lon="4.82136">
        <ele>241.300003052</ele>
        <time>2015-12-22T10:09:26.387Z</time>
      </trkpt>
      <trkpt lat="45.98841" lon="4.82146">
        <ele>241.5</ele>
        <time>2015-12-22T10:09:27.366Z</time>
      </trkpt>
      <trkpt lat="45.98844" lon="4.82156">
        <ele>241</ele>
        <time>2015-12-22T10:09:28.389Z</time>
      </trkpt>
      <trkpt lat="45.98847" lon="4.82165">
        <ele>240.699996948</ele>
        <time>2015-12-22T10:09:29.366Z</time>
      </trkpt>
      <trkpt lat="45.9885" lon="4.82175">
        <ele>240.899993896</ele>
        <time>2015-12-22T10:09:30.386Z</time>
      </trkpt>
      <trkpt lat="45.98853" lon="4.82184">
        <ele>241</ele>
        <time>2015-12-22T10:09:31.368Z</time>
      </trkpt>
      <trkpt lat="45.98857" lon="4.82194">
        <ele>240.699996948</ele>
        <time>2015-12-22T10:09:32.518Z</time>
      </trkpt>
      <trkpt lat="45.9886" lon="4.82203">
        <ele>240.699996948</ele>
        <time>2015-12-22T10:09:33.366Z</time>
      </trkpt>
      <trkpt lat="45.98864" lon="4.82212">
        <ele>240.899993896</ele>
        <time>2015-12-22T10:09:34.402Z</time>
      </trkpt>
      <trkpt lat="45.98867" lon="4.8222">
        <ele>240.699996948</ele>
        <time>2015-12-22T10:09:35.366Z</time>
      </trkpt>
      <trkpt lat="45.98871" lon="4.82229">
        <ele>240.399993896</ele>
        <time>2015-12-22T10:09:36.385Z</time>
      </trkpt>
      <trkpt lat="45.98874" lon="4.82238">
        <ele>240.100006104</ele>
        <time>2015-12-22T10:09:37.368Z</time>
      </trkpt>
      <trkpt lat="45.98878" lon="4.82247">
        <ele>239.899993896</ele>
        <time>2015-12-22T10:09:38.389Z</time>
      </trkpt>
      <trkpt lat="45.98882" lon="4.82255">
        <ele>239.600006104</ele>
        <time>2015-12-22T10:09:39.369Z</time>
      </trkpt>
      <trkpt lat="45.98886" lon="4.82262">
        <ele>239.399993896</ele>
        <time>2015-12-22T10:09:40.399Z</time>
      </trkpt>
      <trkpt lat="45.9889" lon="4.82269">
        <ele>239</ele>
        <time>2015-12-22T10:09:41.367Z</time>
      </trkpt>
      <trkpt lat="45.98894" lon="4.82275">
        <ele>238.800003052</ele>
        <time>2015-12-22T10:09:42.386Z</time>
      </trkpt>
      <trkpt lat="45.98898" lon="4.82281">
        <ele>238.800003052</ele>
        <time>2015-12-22T10:09:43.368Z</time>
      </trkpt>
      <trkpt lat="45.98903" lon="4.82287">
        <ele>238.600006104</ele>
        <time>2015-12-22T10:09:44.384Z</time>
      </trkpt>
      <trkpt lat="45.98908" lon="4.82292">
        <ele>238.5</ele>
        <time>2015-12-22T10:09:45.366Z</time>
      </trkpt>
      <trkpt lat="45.98913" lon="4.82297">
        <ele>238.199996948</ele>
        <time>2015-12-22T10:09:46.384Z</time>
      </trkpt>
      <trkpt lat="45.98919" lon="4.82303">
        <ele>238</ele>
        <time>2015-12-22T10:09:47.366Z</time>
      </trkpt>
      <trkpt lat="45.98924" lon="4.82309">
        <ele>238</ele>
        <time>2015-12-22T10:09:48.385Z</time>
      </trkpt>
      <trkpt lat="45.98929" lon="4.82315">
        <ele>237.899993896</ele>
        <time>2015-12-22T10:09:49.371Z</time>
      </trkpt>
      <trkpt lat="45.98934" lon="4.82322">
        <ele>237.800003052</ele>
        <time>2015-12-22T10:09:50.389Z</time>
      </trkpt>
      <trkpt lat="45.98939" lon="4.82328">
        <ele>237.699996948</ele>
        <time>2015-12-22T10:09:51.366Z</time>
      </trkpt>
      <trkpt lat="45.98944" lon="4.82335">
        <ele>237.699996948</ele>
        <time>2015-12-22T10:09:52.384Z</time>
      </trkpt>
      <trkpt lat="45.98949" lon="4.82343">
        <ele>237.600006104</ele>
        <time>2015-12-22T10:09:53.395Z</time>
      </trkpt>
      <trkpt lat="45.98953" lon="4.8235">
        <ele>237.600006104</ele>
        <time>2015-12-22T10:09:54.385Z</time>
      </trkpt>
      <trkpt lat="45.98957" lon="4.82358">
        <ele>237.600006104</ele>
        <time>2015-12-22T10:09:55.368Z</time>
      </trkpt>
      <trkpt lat="45.9896" lon="4.82367">
        <ele>237.600006104</ele>
        <time>2015-12-22T10:09:56.541Z</time>
      </trkpt>
      <trkpt lat="45.98962" lon="4.82376">
        <ele>237.600006104</ele>
        <time>2015-12-22T10:09:57.366Z</time>
      </trkpt>
      <trkpt lat="45.98965" lon="4.82386">
        <ele>237.600006104</ele>
        <time>2015-12-22T10:09:58.39Z</time>
      </trkpt>
      <trkpt lat="45.98967" lon="4.82395">
        <ele>237.5</ele>
        <time>2015-12-22T10:09:59.365Z</time>
      </trkpt>
      <trkpt lat="45.98969" lon="4.82404">
        <ele>237.399993896</ele>
        <time>2015-12-22T10:10:00.386Z</time>
      </trkpt>
      <trkpt lat="45.98971" lon="4.82414">
        <ele>237.300003052</ele>
        <time>2015-12-22T10:10:01.368Z</time>
      </trkpt>
      <trkpt lat="45.98974" lon="4.82423">
        <ele>237.199996948</ele>
        <time>2015-12-22T10:10:02.406Z</time>
      </trkpt>
      <trkpt lat="45.98976" lon="4.82432">
        <ele>237.199996948</ele>
        <time>2015-12-22T10:10:03.366Z</time>
      </trkpt>
      <trkpt lat="45.98978" lon="4.8244">
        <ele>237.199996948</ele>
        <time>2015-12-22T10:10:04.386Z</time>
      </trkpt>
      <trkpt lat="45.9898" lon="4.82449">
        <ele>237.199996948</ele>
        <time>2015-12-22T10:10:05.365Z</time>
      </trkpt>
      <trkpt lat="45.98983" lon="4.82457">
        <ele>237.100006104</ele>
        <time>2015-12-22T10:10:06.384Z</time>
      </trkpt>
      <trkpt lat="45.98985" lon="4.82465">
        <ele>237.100006104</ele>
        <time>2015-12-22T10:10:07.369Z</time>
      </trkpt>
      <trkpt lat="45.98987" lon="4.82473">
        <ele>237.100006104</ele>
        <time>2015-12-22T10:10:08.385Z</time>
      </trkpt>
      <trkpt lat="45.9899" lon="4.82481">
        <ele>237.100006104</ele>
        <time>2015-12-22T10:10:09.366Z</time>
      </trkpt>
      <trkpt lat="45.98992" lon="4.82489">
        <ele>236.899993896</ele>
        <time>2015-12-22T10:10:10.384Z</time>
      </trkpt>
      <trkpt lat="45.98994" lon="4.82497">
        <ele>236.800003052</ele>
        <time>2015-12-22T10:10:11.365Z</time>
      </trkpt>
      <trkpt lat="45.98997" lon="4.82504">
        <ele>236.600006104</ele>
        <time>2015-12-22T10:10:12.396Z</time>
      </trkpt>
      <trkpt lat="45.99" lon="4.82511">
        <ele>236.399993896</ele>
        <time>2015-12-22T10:10:13.369Z</time>
      </trkpt>
      <trkpt lat="45.99004" lon="4.82518">
        <ele>236.100006104</ele>
        <time>2015-12-22T10:10:14.386Z</time>
      </trkpt>
      <trkpt lat="45.99007" lon="4.82525">
        <ele>236</ele>
        <time>2015-12-22T10:10:15.366Z</time>
      </trkpt>
      <trkpt lat="45.99011" lon="4.82532">
        <ele>235.899993896</ele>
        <time>2015-12-22T10:10:16.384Z</time>
      </trkpt>
      <trkpt lat="45.99016" lon="4.82538">
        <ele>235.699996948</ele>
        <time>2015-12-22T10:10:17.366Z</time>
      </trkpt>
      <trkpt lat="45.99022" lon="4.82544">
        <ele>235.399993896</ele>
        <time>2015-12-22T10:10:18.385Z</time>
      </trkpt>
      <trkpt lat="45.99027" lon="4.82549">
        <ele>235.199996948</ele>
        <time>2015-12-22T10:10:19.368Z</time>
      </trkpt>
      <trkpt lat="45.99033" lon="4.82554">
        <ele>234.600006104</ele>
        <time>2015-12-22T10:10:20.385Z</time>
      </trkpt>
      <trkpt lat="45.99039" lon="4.82558">
        <ele>234.300003052</ele>
        <time>2015-12-22T10:10:21.366Z</time>
      </trkpt>
      <trkpt lat="45.99045" lon="4.82562">
        <ele>233.899993896</ele>
        <time>2015-12-22T10:10:22.399Z</time>
      </trkpt>
      <trkpt lat="45.99051" lon="4.82565">
        <ele>233.600006104</ele>
        <time>2015-12-22T10:10:23.365Z</time>
      </trkpt>
      <trkpt lat="45.99057" lon="4.82567">
        <ele>233.199996948</ele>
        <time>2015-12-22T10:10:24.385Z</time>
      </trkpt>
      <trkpt lat="45.99063" lon="4.82569">
        <ele>233.100006104</ele>
        <time>2015-12-22T10:10:25.37Z</time>
      </trkpt>
      <trkpt lat="45.99068" lon="4.82572">
        <ele>233.399993896</ele>
        <time>2015-12-22T10:10:26.387Z</time>
      </trkpt>
      <trkpt lat="45.99073" lon="4.82575">
        <ele>233.5</ele>
        <time>2015-12-22T10:10:27.368Z</time>
      </trkpt>
      <trkpt lat="45.99077" lon="4.82584">
        <ele>234</ele>
        <time>2015-12-22T10:10:29.434Z</time>
      </trkpt>
      <trkpt lat="45.99078" lon="4.82588">
        <ele>234.100006104</ele>
        <time>2015-12-22T10:10:30.369Z</time>
      </trkpt>
      <trkpt lat="45.99073" lon="4.82598">
        <ele>234.699996948</ele>
        <time>2015-12-22T10:10:33.391Z</time>
      </trkpt>
      <trkpt lat="45.9907" lon="4.82601">
        <ele>235.199996948</ele>
        <time>2015-12-22T10:10:34.366Z</time>
      </trkpt>
      <trkpt lat="45.99067" lon="4.82608">
        <ele>235.5</ele>
        <time>2015-12-22T10:10:36.385Z</time>
      </trkpt>
      <trkpt lat="45.99064" lon="4.82612">
        <ele>235.800003052</ele>
        <time>2015-12-22T10:10:37.369Z</time>
      </trkpt>
      <trkpt lat="45.9906" lon="4.8262">
        <ele>236.300003052</ele>
        <time>2015-12-22T10:10:39.385Z</time>
      </trkpt>
      <trkpt lat="45.99058" lon="4.82624">
        <ele>236.699996948</ele>
        <time>2015-12-22T10:10:40.367Z</time>
      </trkpt>
      <trkpt lat="45.99054" lon="4.82633">
        <ele>237.199996948</ele>
        <time>2015-12-22T10:10:42.385Z</time>
      </trkpt>
      <trkpt lat="45.99052" lon="4.82638">
        <ele>237.5</ele>
        <time>2015-12-22T10:10:43.369Z</time>
      </trkpt>
      <trkpt lat="45.99047" lon="4.82647">
        <ele>237.899993896</ele>
        <time>2015-12-22T10:10:45.385Z</time>
      </trkpt>
      <trkpt lat="45.99045" lon="4.82652">
        <ele>238.100006104</ele>
        <time>2015-12-22T10:10:46.365Z</time>
      </trkpt>
      <trkpt lat="45.99041" lon="4.82661">
        <ele>238.699996948</ele>
        <time>2015-12-22T10:10:48.385Z</time>
      </trkpt>
      <trkpt lat="45.99039" lon="4.82666">
        <ele>239.100006104</ele>
        <time>2015-12-22T10:10:49.371Z</time>
      </trkpt>
      <trkpt lat="45.99036" lon="4.82675">
        <ele>239.600006104</ele>
        <time>2015-12-22T10:10:51.385Z</time>
      </trkpt>
      <trkpt lat="45.99034" lon="4.82679">
        <ele>239.899993896</ele>
        <time>2015-12-22T10:10:52.365Z</time>
      </trkpt>
      <trkpt lat="45.99029" lon="4.82687">
        <ele>240.399993896</ele>
        <time>2015-12-22T10:10:54.384Z</time>
      </trkpt>
      <trkpt lat="45.99027" lon="4.82691">
        <ele>240.699996948</ele>
        <time>2015-12-22T10:10:55.368Z</time>
      </trkpt>
      <trkpt lat="45.99022" lon="4.827">
        <ele>241.399993896</ele>
        <time>2015-12-22T10:10:57.386Z</time>
      </trkpt>
      <trkpt lat="45.99021" lon="4.82704">
        <ele>241.699996948</ele>
        <time>2015-12-22T10:10:58.366Z</time>
      </trkpt>
      <trkpt lat="45.99017" lon="4.82713">
        <ele>242.300003052</ele>
        <time>2015-12-22T10:11:00.386Z</time>
      </trkpt>
      <trkpt lat="45.99015" lon="4.82716">
        <ele>242.800003052</ele>
        <time>2015-12-22T10:11:01.368Z</time>
      </trkpt>
      <trkpt lat="45.99011" lon="4.82723">
        <ele>243.300003052</ele>
        <time>2015-12-22T10:11:03.385Z</time>
      </trkpt>
      <trkpt lat="45.99009" lon="4.82727">
        <ele>243.600006104</ele>
        <time>2015-12-22T10:11:04.407Z</time>
      </trkpt>
      <trkpt lat="45.99006" lon="4.82734">
        <ele>244.600006104</ele>
        <time>2015-12-22T10:11:06.385Z</time>
      </trkpt>
      <trkpt lat="45.99005" lon="4.82738">
        <ele>244.899993896</ele>
        <time>2015-12-22T10:11:07.368Z</time>
      </trkpt>
      <trkpt lat="45.99002" lon="4.82746">
        <ele>245.800003052</ele>
        <time>2015-12-22T10:11:09.385Z</time>
      </trkpt>
      <trkpt lat="45.99001" lon="4.8275">
        <ele>246.199996948</ele>
        <time>2015-12-22T10:11:10.366Z</time>
      </trkpt>
      <trkpt lat="45.98996" lon="4.82757">
        <ele>246.5</ele>
        <time>2015-12-22T10:11:12.436Z</time>
      </trkpt>
      <trkpt lat="45.98993" lon="4.8276">
        <ele>247</ele>
        <time>2015-12-22T10:11:13.368Z</time>
      </trkpt>
      <trkpt lat="45.98991" lon="4.82768">
        <ele>247.5</ele>
        <time>2015-12-22T10:11:15.401Z</time>
      </trkpt>
      <trkpt lat="45.9899" lon="4.82772">
        <ele>247.699996948</ele>
        <time>2015-12-22T10:11:16.365Z</time>
      </trkpt>
      <trkpt lat="45.98985" lon="4.82782">
        <ele>249</ele>
        <time>2015-12-22T10:11:19.389Z</time>
      </trkpt>
      <trkpt lat="45.98983" lon="4.82785">
        <ele>249</ele>
        <time>2015-12-22T10:11:20.366Z</time>
      </trkpt>
      <trkpt lat="45.98978" lon="4.82795">
        <ele>249.600006104</ele>
        <time>2015-12-22T10:11:23.41Z</time>
      </trkpt>
      <trkpt lat="45.98977" lon="4.82798">
        <ele>249.5</ele>
        <time>2015-12-22T10:11:24.371Z</time>
      </trkpt>
      <trkpt lat="45.98973" lon="4.82805">
        <ele>249.600006104</ele>
        <time>2015-12-22T10:11:26.438Z</time>
      </trkpt>
      <trkpt lat="45.98972" lon="4.82809">
        <ele>249.399993896</ele>
        <time>2015-12-22T10:11:27.414Z</time>
      </trkpt>
      <trkpt lat="45.98968" lon="4.82817">
        <ele>249.899993896</ele>
        <time>2015-12-22T10:11:29.385Z</time>
      </trkpt>
      <trkpt lat="45.98967" lon="4.82821">
        <ele>250.100006104</ele>
        <time>2015-12-22T10:11:30.368Z</time>
      </trkpt>
      <trkpt lat="45.98962" lon="4.82831">
        <ele>250.5</ele>
        <time>2015-12-22T10:11:33.399Z</time>
      </trkpt>
      <trkpt lat="45.9896" lon="4.82835">
        <ele>251</ele>
        <time>2015-12-22T10:11:34.366Z</time>
      </trkpt>
      <trkpt lat="45.98955" lon="4.82846">
        <ele>252.100006104</ele>
        <time>2015-12-22T10:11:37.387Z</time>
      </trkpt>
      <trkpt lat="45.98954" lon="4.8285">
        <ele>252</ele>
        <time>2015-12-22T10:11:38.366Z</time>
      </trkpt>
      <trkpt lat="45.98948" lon="4.8286">
        <ele>253.199996948</ele>
        <time>2015-12-22T10:11:41.498Z</time>
      </trkpt>
      <trkpt lat="45.98947" lon="4.82864">
        <ele>253.399993896</ele>
        <time>2015-12-22T10:11:42.366Z</time>
      </trkpt>
      <trkpt lat="45.98943" lon="4.82874">
        <ele>253.899993896</ele>
        <time>2015-12-22T10:11:45.387Z</time>
      </trkpt>
      <trkpt lat="45.98941" lon="4.82878">
        <ele>253.800003052</ele>
        <time>2015-12-22T10:11:46.366Z</time>
      </trkpt>
      <trkpt lat="45.98937" lon="4.82888">
        <ele>253.800003052</ele>
        <time>2015-12-22T10:11:49.4Z</time>
      </trkpt>
      <trkpt lat="45.98936" lon="4.82891">
        <ele>254</ele>
        <time>2015-12-22T10:11:50.366Z</time>
      </trkpt>
      <trkpt lat="45.98932" lon="4.82902">
        <ele>254.300003052</ele>
        <time>2015-12-22T10:11:53.385Z</time>
      </trkpt>
      <trkpt lat="45.9893" lon="4.82905">
        <ele>254.600006104</ele>
        <time>2015-12-22T10:11:54.368Z</time>
      </trkpt>
      <trkpt lat="45.98926" lon="4.82911">
        <ele>254.600006104</ele>
        <time>2015-12-22T10:11:56.448Z</time>
      </trkpt>
      <trkpt lat="45.98924" lon="4.82915">
        <ele>254.800003052</ele>
        <time>2015-12-22T10:11:57.366Z</time>
      </trkpt>
      <trkpt lat="45.98921" lon="4.82923">
        <ele>255.100006104</ele>
        <time>2015-12-22T10:11:59.398Z</time>
      </trkpt>
      <trkpt lat="45.9892" lon="4.82927">
        <ele>255.199996948</ele>
        <time>2015-12-22T10:12:00.366Z</time>
      </trkpt>
      <trkpt lat="45.98916" lon="4.82938">
        <ele>256</ele>
        <time>2015-12-22T10:12:03.387Z</time>
      </trkpt>
      <trkpt lat="45.98914" lon="4.82941">
        <ele>256.200012207</ele>
        <time>2015-12-22T10:12:04.366Z</time>
      </trkpt>
      <trkpt lat="45.98908" lon="4.8295">
        <ele>257.200012207</ele>
        <time>2015-12-22T10:12:07.389Z</time>
      </trkpt>
      <trkpt lat="45.98906" lon="4.82953">
        <ele>257.899993896</ele>
        <time>2015-12-22T10:12:08.392Z</time>
      </trkpt>
      <trkpt lat="45.98901" lon="4.82961">
        <ele>258.600006104</ele>
        <time>2015-12-22T10:12:11.385Z</time>
      </trkpt>
      <trkpt lat="45.98898" lon="4.82964">
        <ele>258.899993896</ele>
        <time>2015-12-22T10:12:12.366Z</time>
      </trkpt>
      <trkpt lat="45.98891" lon="4.82971">
        <ele>259.399993896</ele>
        <time>2015-12-22T10:12:15.386Z</time>
      </trkpt>
      <trkpt lat="45.98889" lon="4.82973">
        <ele>259.5</ele>
        <time>2015-12-22T10:12:16.366Z</time>
      </trkpt>
      <trkpt lat="45.98884" lon="4.82983">
        <ele>259.200012207</ele>
        <time>2015-12-22T10:12:19.387Z</time>
      </trkpt>
      <trkpt lat="45.98882" lon="4.82985">
        <ele>258.700012207</ele>
        <time>2015-12-22T10:12:20.367Z</time>
      </trkpt>
      <trkpt lat="45.98874" lon="4.82989">
        <ele>259</ele>
        <time>2015-12-22T10:12:23.4Z</time>
      </trkpt>
      <trkpt lat="45.98872" lon="4.82991">
        <ele>259.200012207</ele>
        <time>2015-12-22T10:12:24.365Z</time>
      </trkpt>
      <trkpt lat="45.98865" lon="4.82997">
        <ele>259.700012207</ele>
        <time>2015-12-22T10:12:27.386Z</time>
      </trkpt>
      <trkpt lat="45.98863" lon="4.82999">
        <ele>260</ele>
        <time>2015-12-22T10:12:28.367Z</time>
      </trkpt>
      <trkpt lat="45.98856" lon="4.83004">
        <ele>260.700012207</ele>
        <time>2015-12-22T10:12:31.387Z</time>
      </trkpt>
      <trkpt lat="45.98854" lon="4.83006">
        <ele>260.799987793</ele>
        <time>2015-12-22T10:12:32.366Z</time>
      </trkpt>
      <trkpt lat="45.98847" lon="4.8301">
        <ele>260.700012207</ele>
        <time>2015-12-22T10:12:35.384Z</time>
      </trkpt>
      <trkpt lat="45.98844" lon="4.83013">
        <ele>260.799987793</ele>
        <time>2015-12-22T10:12:36.366Z</time>
      </trkpt>
      <trkpt lat="45.98837" lon="4.8302">
        <ele>261.100006104</ele>
        <time>2015-12-22T10:12:39.386Z</time>
      </trkpt>
      <trkpt lat="45.98835" lon="4.83022">
        <ele>260.899993896</ele>
        <time>2015-12-22T10:12:40.37Z</time>
      </trkpt>
      <trkpt lat="45.98828" lon="4.83025">
        <ele>260.799987793</ele>
        <time>2015-12-22T10:12:43.387Z</time>
      </trkpt>
      <trkpt lat="45.98825" lon="4.83027">
        <ele>261</ele>
        <time>2015-12-22T10:12:44.382Z</time>
      </trkpt>
      <trkpt lat="45.98819" lon="4.83029">
        <ele>261.100006104</ele>
        <time>2015-12-22T10:12:46.386Z</time>
      </trkpt>
      <trkpt lat="45.98816" lon="4.83032">
        <ele>261.100006104</ele>
        <time>2015-12-22T10:12:47.483Z</time>
      </trkpt>
      <trkpt lat="45.98811" lon="4.83038">
        <ele>261.600006104</ele>
        <time>2015-12-22T10:12:49.397Z</time>
      </trkpt>
      <trkpt lat="45.98808" lon="4.8304">
        <ele>261.5</ele>
        <time>2015-12-22T10:12:50.367Z</time>
      </trkpt>
      <trkpt lat="45.98802" lon="4.83043">
        <ele>262.399993896</ele>
        <time>2015-12-22T10:12:52.408Z</time>
      </trkpt>
      <trkpt lat="45.98799" lon="4.83045">
        <ele>262.700012207</ele>
        <time>2015-12-22T10:12:53.368Z</time>
      </trkpt>
      <trkpt lat="45.98794" lon="4.83051">
        <ele>262.600006104</ele>
        <time>2015-12-22T10:12:55.388Z</time>
      </trkpt>
      <trkpt lat="45.98791" lon="4.83053">
        <ele>262.600006104</ele>
        <time>2015-12-22T10:12:56.366Z</time>
      </trkpt>
      <trkpt lat="45.98785" lon="4.83058">
        <ele>262.5</ele>
        <time>2015-12-22T10:12:58.385Z</time>
      </trkpt>
      <trkpt lat="45.98782" lon="4.83061">
        <ele>262.600006104</ele>
        <time>2015-12-22T10:12:59.366Z</time>
      </trkpt>
      <trkpt lat="45.98777" lon="4.83066">
        <ele>262.600006104</ele>
        <time>2015-12-22T10:13:01.387Z</time>
      </trkpt>
      <trkpt lat="45.98774" lon="4.83068">
        <ele>263.299987793</ele>
        <time>2015-12-22T10:13:02.366Z</time>
      </trkpt>
      <trkpt lat="45.98768" lon="4.83073">
        <ele>263.5</ele>
        <time>2015-12-22T10:13:04.384Z</time>
      </trkpt>
      <trkpt lat="45.98765" lon="4.83076">
        <ele>263.600006104</ele>
        <time>2015-12-22T10:13:05.366Z</time>
      </trkpt>
      <trkpt lat="45.98759" lon="4.83081">
        <ele>264</ele>
        <time>2015-12-22T10:13:07.476Z</time>
      </trkpt>
      <trkpt lat="45.98757" lon="4.83083">
        <ele>264.100006104</ele>
        <time>2015-12-22T10:13:08.367Z</time>
      </trkpt>
      <trkpt lat="45.98751" lon="4.83088">
        <ele>264.5</ele>
        <time>2015-12-22T10:13:10.385Z</time>
      </trkpt>
      <trkpt lat="45.98748" lon="4.83091">
        <ele>264.600006104</ele>
        <time>2015-12-22T10:13:11.367Z</time>
      </trkpt>
      <trkpt lat="45.98742" lon="4.83096">
        <ele>264.899993896</ele>
        <time>2015-12-22T10:13:13.388Z</time>
      </trkpt>
      <trkpt lat="45.98738" lon="4.83099">
        <ele>265.100006104</ele>
        <time>2015-12-22T10:13:14.365Z</time>
      </trkpt>
      <trkpt lat="45.98732" lon="4.83104">
        <ele>265.5</ele>
        <time>2015-12-22T10:13:16.398Z</time>
      </trkpt>
      <trkpt lat="45.98729" lon="4.83107">
        <ele>265.799987793</ele>
        <time>2015-12-22T10:13:17.365Z</time>
      </trkpt>
      <trkpt lat="45.98722" lon="4.83112">
        <ele>265.799987793</ele>
        <time>2015-12-22T10:13:19.387Z</time>
      </trkpt>
      <trkpt lat="45.98719" lon="4.83114">
        <ele>265.899993896</ele>
        <time>2015-12-22T10:13:20.367Z</time>
      </trkpt>
      <trkpt lat="45.98712" lon="4.8312">
        <ele>266</ele>
        <time>2015-12-22T10:13:22.385Z</time>
      </trkpt>
      <trkpt lat="45.98709" lon="4.83123">
        <ele>266.100006104</ele>
        <time>2015-12-22T10:13:23.366Z</time>
      </trkpt>
      <trkpt lat="45.98702" lon="4.83129">
        <ele>266.100006104</ele>
        <time>2015-12-22T10:13:25.388Z</time>
      </trkpt>
      <trkpt lat="45.98699" lon="4.83131">
        <ele>266.100006104</ele>
        <time>2015-12-22T10:13:26.365Z</time>
      </trkpt>
      <trkpt lat="45.98693" lon="4.83136">
        <ele>266.299987793</ele>
        <time>2015-12-22T10:13:28.384Z</time>
      </trkpt>
      <trkpt lat="45.98689" lon="4.83139">
        <ele>266.399993896</ele>
        <time>2015-12-22T10:13:29.367Z</time>
      </trkpt>
      <trkpt lat="45.98683" lon="4.83144">
        <ele>266.399993896</ele>
        <time>2015-12-22T10:13:31.387Z</time>
      </trkpt>
      <trkpt lat="45.9868" lon="4.83146">
        <ele>266.399993896</ele>
        <time>2015-12-22T10:13:32.368Z</time>
      </trkpt>
      <trkpt lat="45.98672" lon="4.83152">
        <ele>266.399993896</ele>
        <time>2015-12-22T10:13:34.384Z</time>
      </trkpt>
      <trkpt lat="45.98669" lon="4.83155">
        <ele>266.200012207</ele>
        <time>2015-12-22T10:13:35.365Z</time>
      </trkpt>
      <trkpt lat="45.98661" lon="4.83161">
        <ele>266.399993896</ele>
        <time>2015-12-22T10:13:37.445Z</time>
      </trkpt>
      <trkpt lat="45.98657" lon="4.83164">
        <ele>266.399993896</ele>
        <time>2015-12-22T10:13:38.366Z</time>
      </trkpt>
      <trkpt lat="45.9865" lon="4.83169">
        <ele>266.899993896</ele>
        <time>2015-12-22T10:13:40.384Z</time>
      </trkpt>
      <trkpt lat="45.98646" lon="4.83172">
        <ele>267.100006104</ele>
        <time>2015-12-22T10:13:41.366Z</time>
      </trkpt>
      <trkpt lat="45.98639" lon="4.83179">
        <ele>266.700012207</ele>
        <time>2015-12-22T10:13:43.388Z</time>
      </trkpt>
      <trkpt lat="45.98635" lon="4.83182">
        <ele>267.100006104</ele>
        <time>2015-12-22T10:13:44.367Z</time>
      </trkpt>
      <trkpt lat="45.98628" lon="4.83189">
        <ele>267.5</ele>
        <time>2015-12-22T10:13:46.384Z</time>
      </trkpt>
      <trkpt lat="45.98625" lon="4.83193">
        <ele>267.5</ele>
        <time>2015-12-22T10:13:47.366Z</time>
      </trkpt>
      <trkpt lat="45.98619" lon="4.83201">
        <ele>267.899993896</ele>
        <time>2015-12-22T10:13:49.39Z</time>
      </trkpt>
      <trkpt lat="45.98615" lon="4.83205">
        <ele>268.100006104</ele>
        <time>2015-12-22T10:13:50.365Z</time>
      </trkpt>
      <trkpt lat="45.98609" lon="4.83214">
        <ele>268.200012207</ele>
        <time>2015-12-22T10:13:52.385Z</time>
      </trkpt>
      <trkpt lat="45.98606" lon="4.83218">
        <ele>268.200012207</ele>
        <time>2015-12-22T10:13:53.365Z</time>
      </trkpt>
      <trkpt lat="45.98599" lon="4.83227">
        <ele>268.399993896</ele>
        <time>2015-12-22T10:13:55.387Z</time>
      </trkpt>
      <trkpt lat="45.98596" lon="4.83232">
        <ele>268.399993896</ele>
        <time>2015-12-22T10:13:56.366Z</time>
      </trkpt>
      <trkpt lat="45.98593" lon="4.83236">
        <ele>268.399993896</ele>
        <time>2015-12-22T10:13:57.387Z</time>
      </trkpt>
      <trkpt lat="45.9859" lon="4.83241">
        <ele>268.5</ele>
        <time>2015-12-22T10:13:58.385Z</time>
      </trkpt>
      <trkpt lat="45.98586" lon="4.83246">
        <ele>268.600006104</ele>
        <time>2015-12-22T10:13:59.426Z</time>
      </trkpt>
      <trkpt lat="45.98583" lon="4.8325">
        <ele>268.700012207</ele>
        <time>2015-12-22T10:14:00.366Z</time>
      </trkpt>
      <trkpt lat="45.98576" lon="4.83259">
        <ele>269</ele>
        <time>2015-12-22T10:14:02.384Z</time>
      </trkpt>
      <trkpt lat="45.98573" lon="4.83263">
        <ele>269.100006104</ele>
        <time>2015-12-22T10:14:03.366Z</time>
      </trkpt>
      <trkpt lat="45.9857" lon="4.83268">
        <ele>269.200012207</ele>
        <time>2015-12-22T10:14:04.384Z</time>
      </trkpt>
      <trkpt lat="45.98566" lon="4.83272">
        <ele>269.299987793</ele>
        <time>2015-12-22T10:14:05.365Z</time>
      </trkpt>
      <trkpt lat="45.98563" lon="4.83276">
        <ele>269.399993896</ele>
        <time>2015-12-22T10:14:06.385Z</time>
      </trkpt>
      <trkpt lat="45.98559" lon="4.83281">
        <ele>269.5</ele>
        <time>2015-12-22T10:14:07.368Z</time>
      </trkpt>
      <trkpt lat="45.98556" lon="4.83285">
        <ele>269.600006104</ele>
        <time>2015-12-22T10:14:08.386Z</time>
      </trkpt>
      <trkpt lat="45.98553" lon="4.8329">
        <ele>269.700012207</ele>
        <time>2015-12-22T10:14:09.366Z</time>
      </trkpt>
      <trkpt lat="45.98549" lon="4.83295">
        <ele>269.799987793</ele>
        <time>2015-12-22T10:14:10.384Z</time>
      </trkpt>
      <trkpt lat="45.98545" lon="4.83299">
        <ele>269.899993896</ele>
        <time>2015-12-22T10:14:11.365Z</time>
      </trkpt>
      <trkpt lat="45.98542" lon="4.83304">
        <ele>269.899993896</ele>
        <time>2015-12-22T10:14:12.384Z</time>
      </trkpt>
      <trkpt lat="45.98538" lon="4.83309">
        <ele>269.899993896</ele>
        <time>2015-12-22T10:14:13.368Z</time>
      </trkpt>
      <trkpt lat="45.98535" lon="4.83313">
        <ele>270</ele>
        <time>2015-12-22T10:14:14.402Z</time>
      </trkpt>
      <trkpt lat="45.98531" lon="4.83318">
        <ele>270.100006104</ele>
        <time>2015-12-22T10:14:15.367Z</time>
      </trkpt>
      <trkpt lat="45.98527" lon="4.83323">
        <ele>270.200012207</ele>
        <time>2015-12-22T10:14:16.384Z</time>
      </trkpt>
      <trkpt lat="45.98524" lon="4.83328">
        <ele>270.299987793</ele>
        <time>2015-12-22T10:14:17.366Z</time>
      </trkpt>
      <trkpt lat="45.9852" lon="4.83333">
        <ele>270.299987793</ele>
        <time>2015-12-22T10:14:18.385Z</time>
      </trkpt>
      <trkpt lat="45.98517" lon="4.83337">
        <ele>270.399993896</ele>
        <time>2015-12-22T10:14:19.368Z</time>
      </trkpt>
      <trkpt lat="45.98513" lon="4.83343">
        <ele>270.399993896</ele>
        <time>2015-12-22T10:14:20.384Z</time>
      </trkpt>
      <trkpt lat="45.98509" lon="4.83348">
        <ele>270.399993896</ele>
        <time>2015-12-22T10:14:21.401Z</time>
      </trkpt>
      <trkpt lat="45.98505" lon="4.83353">
        <ele>270.399993896</ele>
        <time>2015-12-22T10:14:22.415Z</time>
      </trkpt>
      <trkpt lat="45.98502" lon="4.83358">
        <ele>270.399993896</ele>
        <time>2015-12-22T10:14:23.365Z</time>
      </trkpt>
      <trkpt lat="45.98498" lon="4.83363">
        <ele>270.399993896</ele>
        <time>2015-12-22T10:14:24.388Z</time>
      </trkpt>
      <trkpt lat="45.98494" lon="4.83368">
        <ele>270.399993896</ele>
        <time>2015-12-22T10:14:25.369Z</time>
      </trkpt>
      <trkpt lat="45.9849" lon="4.83373">
        <ele>270.399993896</ele>
        <time>2015-12-22T10:14:26.385Z</time>
      </trkpt>
      <trkpt lat="45.98486" lon="4.83378">
        <ele>270.5</ele>
        <time>2015-12-22T10:14:27.366Z</time>
      </trkpt>
      <trkpt lat="45.98482" lon="4.83383">
        <ele>270.399993896</ele>
        <time>2015-12-22T10:14:28.384Z</time>
      </trkpt>
      <trkpt lat="45.98478" lon="4.83389">
        <ele>270.600006104</ele>
        <time>2015-12-22T10:14:29.365Z</time>
      </trkpt>
      <trkpt lat="45.98474" lon="4.83394">
        <ele>270.299987793</ele>
        <time>2015-12-22T10:14:30.401Z</time>
      </trkpt>
      <trkpt lat="45.9847" lon="4.834">
        <ele>270.399993896</ele>
        <time>2015-12-22T10:14:31.368Z</time>
      </trkpt>
      <trkpt lat="45.98466" lon="4.83406">
        <ele>270</ele>
        <time>2015-12-22T10:14:32.384Z</time>
      </trkpt>
      <trkpt lat="45.98462" lon="4.83411">
        <ele>270</ele>
        <time>2015-12-22T10:14:33.366Z</time>
      </trkpt>
      <trkpt lat="45.98459" lon="4.83416">
        <ele>270.200012207</ele>
        <time>2015-12-22T10:14:34.384Z</time>
      </trkpt>
      <trkpt lat="45.98455" lon="4.8342">
        <ele>270.200012207</ele>
        <time>2015-12-22T10:14:35.366Z</time>
      </trkpt>
      <trkpt lat="45.98451" lon="4.83425">
        <ele>270.399993896</ele>
        <time>2015-12-22T10:14:36.384Z</time>
      </trkpt>
      <trkpt lat="45.98448" lon="4.8343">
        <ele>270.600006104</ele>
        <time>2015-12-22T10:14:37.37Z</time>
      </trkpt>
      <trkpt lat="45.98444" lon="4.83435">
        <ele>270.700012207</ele>
        <time>2015-12-22T10:14:38.385Z</time>
      </trkpt>
      <trkpt lat="45.9844" lon="4.8344">
        <ele>270.600006104</ele>
        <time>2015-12-22T10:14:39.366Z</time>
      </trkpt>
      <trkpt lat="45.98436" lon="4.83445">
        <ele>270.899993896</ele>
        <time>2015-12-22T10:14:40.384Z</time>
      </trkpt>
      <trkpt lat="45.98433" lon="4.8345">
        <ele>271.100006104</ele>
        <time>2015-12-22T10:14:41.365Z</time>
      </trkpt>
      <trkpt lat="45.98429" lon="4.83455">
        <ele>271</ele>
        <time>2015-12-22T10:14:42.42Z</time>
      </trkpt>
      <trkpt lat="45.98425" lon="4.8346">
        <ele>271</ele>
        <time>2015-12-22T10:14:43.368Z</time>
      </trkpt>
      <trkpt lat="45.98421" lon="4.83466">
        <ele>271</ele>
        <time>2015-12-22T10:14:44.385Z</time>
      </trkpt>
      <trkpt lat="45.98417" lon="4.83471">
        <ele>271</ele>
        <time>2015-12-22T10:14:45.366Z</time>
      </trkpt>
      <trkpt lat="45.98413" lon="4.83476">
        <ele>270.899993896</ele>
        <time>2015-12-22T10:14:46.399Z</time>
      </trkpt>
      <trkpt lat="45.98409" lon="4.83481">
        <ele>270.799987793</ele>
        <time>2015-12-22T10:14:47.366Z</time>
      </trkpt>
      <trkpt lat="45.98405" lon="4.83487">
        <ele>270.700012207</ele>
        <time>2015-12-22T10:14:48.427Z</time>
      </trkpt>
      <trkpt lat="45.98401" lon="4.83493">
        <ele>270.700012207</ele>
        <time>2015-12-22T10:14:49.371Z</time>
      </trkpt>
      <trkpt lat="45.98397" lon="4.83498">
        <ele>270.799987793</ele>
        <time>2015-12-22T10:14:50.448Z</time>
      </trkpt>
      <trkpt lat="45.98393" lon="4.83503">
        <ele>270.700012207</ele>
        <time>2015-12-22T10:14:51.368Z</time>
      </trkpt>
      <trkpt lat="45.98389" lon="4.83508">
        <ele>270.799987793</ele>
        <time>2015-12-22T10:14:52.385Z</time>
      </trkpt>
      <trkpt lat="45.98386" lon="4.83513">
        <ele>270.799987793</ele>
        <time>2015-12-22T10:14:53.365Z</time>
      </trkpt>
      <trkpt lat="45.98382" lon="4.83518">
        <ele>270.899993896</ele>
        <time>2015-12-22T10:14:54.386Z</time>
      </trkpt>
      <trkpt lat="45.98379" lon="4.83523">
        <ele>271</ele>
        <time>2015-12-22T10:14:55.368Z</time>
      </trkpt>
      <trkpt lat="45.98376" lon="4.83528">
        <ele>271</ele>
        <time>2015-12-22T10:14:56.54Z</time>
      </trkpt>
      <trkpt lat="45.98372" lon="4.83533">
        <ele>271.100006104</ele>
        <time>2015-12-22T10:14:57.376Z</time>
      </trkpt>
      <trkpt lat="45.98368" lon="4.83537">
        <ele>271.100006104</ele>
        <time>2015-12-22T10:14:58.385Z</time>
      </trkpt>
      <trkpt lat="45.98365" lon="4.83542">
        <ele>271.200012207</ele>
        <time>2015-12-22T10:14:59.366Z</time>
      </trkpt>
      <trkpt lat="45.98361" lon="4.83547">
        <ele>271.299987793</ele>
        <time>2015-12-22T10:15:00.385Z</time>
      </trkpt>
      <trkpt lat="45.98357" lon="4.83552">
        <ele>271.399993896</ele>
        <time>2015-12-22T10:15:01.372Z</time>
      </trkpt>
      <trkpt lat="45.98354" lon="4.83556">
        <ele>271.600006104</ele>
        <time>2015-12-22T10:15:02.385Z</time>
      </trkpt>
      <trkpt lat="45.9835" lon="4.83561">
        <ele>271.700012207</ele>
        <time>2015-12-22T10:15:03.367Z</time>
      </trkpt>
      <trkpt lat="45.98346" lon="4.83567">
        <ele>271.799987793</ele>
        <time>2015-12-22T10:15:04.385Z</time>
      </trkpt>
      <trkpt lat="45.98343" lon="4.83572">
        <ele>271.799987793</ele>
        <time>2015-12-22T10:15:05.365Z</time>
      </trkpt>
      <trkpt lat="45.9834" lon="4.83577">
        <ele>271.899993896</ele>
        <time>2015-12-22T10:15:06.389Z</time>
      </trkpt>
      <trkpt lat="45.98336" lon="4.83582">
        <ele>271.899993896</ele>
        <time>2015-12-22T10:15:07.392Z</time>
      </trkpt>
      <trkpt lat="45.98333" lon="4.83587">
        <ele>272.100006104</ele>
        <time>2015-12-22T10:15:08.385Z</time>
      </trkpt>
      <trkpt lat="45.98329" lon="4.83592">
        <ele>272.100006104</ele>
        <time>2015-12-22T10:15:09.366Z</time>
      </trkpt>
      <trkpt lat="45.98326" lon="4.83597">
        <ele>272.200012207</ele>
        <time>2015-12-22T10:15:10.385Z</time>
      </trkpt>
      <trkpt lat="45.98322" lon="4.83601">
        <ele>272.299987793</ele>
        <time>2015-12-22T10:15:11.365Z</time>
      </trkpt>
      <trkpt lat="45.98319" lon="4.83606">
        <ele>272.399993896</ele>
        <time>2015-12-22T10:15:12.405Z</time>
      </trkpt>
      <trkpt lat="45.98315" lon="4.8361">
        <ele>272.600006104</ele>
        <time>2015-12-22T10:15:13.368Z</time>
      </trkpt>
      <trkpt lat="45.98309" lon="4.83619">
        <ele>273</ele>
        <time>2015-12-22T10:15:15.386Z</time>
      </trkpt>
      <trkpt lat="45.98307" lon="4.83625">
        <ele>273</ele>
        <time>2015-12-22T10:15:16.367Z</time>
      </trkpt>
      <trkpt lat="45.98305" lon="4.8363">
        <ele>273</ele>
        <time>2015-12-22T10:15:17.478Z</time>
      </trkpt>
      <trkpt lat="45.98303" lon="4.83636">
        <ele>273</ele>
        <time>2015-12-22T10:15:18.365Z</time>
      </trkpt>
      <trkpt lat="45.983" lon="4.83642">
        <ele>273</ele>
        <time>2015-12-22T10:15:19.388Z</time>
      </trkpt>
      <trkpt lat="45.98298" lon="4.83648">
        <ele>273</ele>
        <time>2015-12-22T10:15:20.367Z</time>
      </trkpt>
      <trkpt lat="45.98295" lon="4.83653">
        <ele>273</ele>
        <time>2015-12-22T10:15:21.385Z</time>
      </trkpt>
      <trkpt lat="45.98292" lon="4.83659">
        <ele>273</ele>
        <time>2015-12-22T10:15:22.365Z</time>
      </trkpt>
      <trkpt lat="45.9829" lon="4.83665">
        <ele>273.100006104</ele>
        <time>2015-12-22T10:15:23.392Z</time>
      </trkpt>
      <trkpt lat="45.98287" lon="4.83671">
        <ele>273</ele>
        <time>2015-12-22T10:15:24.367Z</time>
      </trkpt>
      <trkpt lat="45.98285" lon="4.83677">
        <ele>273</ele>
        <time>2015-12-22T10:15:25.398Z</time>
      </trkpt>
      <trkpt lat="45.98282" lon="4.83684">
        <ele>273</ele>
        <time>2015-12-22T10:15:26.366Z</time>
      </trkpt>
      <trkpt lat="45.9828" lon="4.8369">
        <ele>273</ele>
        <time>2015-12-22T10:15:27.437Z</time>
      </trkpt>
      <trkpt lat="45.98278" lon="4.83696">
        <ele>273</ele>
        <time>2015-12-22T10:15:28.365Z</time>
      </trkpt>
      <trkpt lat="45.98276" lon="4.83703">
        <ele>273</ele>
        <time>2015-12-22T10:15:29.51Z</time>
      </trkpt>
      <trkpt lat="45.98273" lon="4.83709">
        <ele>273.100006104</ele>
        <time>2015-12-22T10:15:30.367Z</time>
      </trkpt>
      <trkpt lat="45.98271" lon="4.83715">
        <ele>273.200012207</ele>
        <time>2015-12-22T10:15:31.389Z</time>
      </trkpt>
      <trkpt lat="45.98269" lon="4.83721">
        <ele>273.299987793</ele>
        <time>2015-12-22T10:15:32.366Z</time>
      </trkpt>
      <trkpt lat="45.98267" lon="4.83728">
        <ele>273.399993896</ele>
        <time>2015-12-22T10:15:33.386Z</time>
      </trkpt>
      <trkpt lat="45.98265" lon="4.83734">
        <ele>273.5</ele>
        <time>2015-12-22T10:15:34.365Z</time>
      </trkpt>
      <trkpt lat="45.98262" lon="4.8374">
        <ele>273.700012207</ele>
        <time>2015-12-22T10:15:35.385Z</time>
      </trkpt>
      <trkpt lat="45.9826" lon="4.83746">
        <ele>273.799987793</ele>
        <time>2015-12-22T10:15:36.366Z</time>
      </trkpt>
      <trkpt lat="45.98258" lon="4.83752">
        <ele>273.799987793</ele>
        <time>2015-12-22T10:15:37.402Z</time>
      </trkpt>
      <trkpt lat="45.98256" lon="4.83758">
        <ele>273.899993896</ele>
        <time>2015-12-22T10:15:38.401Z</time>
      </trkpt>
      <trkpt lat="45.98254" lon="4.83765">
        <ele>273.899993896</ele>
        <time>2015-12-22T10:15:39.384Z</time>
      </trkpt>
      <trkpt lat="45.98252" lon="4.83771">
        <ele>274</ele>
        <time>2015-12-22T10:15:40.407Z</time>
      </trkpt>
      <trkpt lat="45.98249" lon="4.83777">
        <ele>274</ele>
        <time>2015-12-22T10:15:41.384Z</time>
      </trkpt>
      <trkpt lat="45.98247" lon="4.83784">
        <ele>274.100006104</ele>
        <time>2015-12-22T10:15:42.365Z</time>
      </trkpt>
      <trkpt lat="45.98245" lon="4.8379">
        <ele>274.100006104</ele>
        <time>2015-12-22T10:15:43.402Z</time>
      </trkpt>
      <trkpt lat="45.98243" lon="4.83796">
        <ele>274.100006104</ele>
        <time>2015-12-22T10:15:44.365Z</time>
      </trkpt>
      <trkpt lat="45.9824" lon="4.83802">
        <ele>274.100006104</ele>
        <time>2015-12-22T10:15:45.385Z</time>
      </trkpt>
      <trkpt lat="45.98238" lon="4.83808">
        <ele>274.200012207</ele>
        <time>2015-12-22T10:15:46.365Z</time>
      </trkpt>
      <trkpt lat="45.98235" lon="4.83819">
        <ele>274.100006104</ele>
        <time>2015-12-22T10:15:48.384Z</time>
      </trkpt>
      <trkpt lat="45.98233" lon="4.83825">
        <ele>274.100006104</ele>
        <time>2015-12-22T10:15:49.371Z</time>
      </trkpt>
      <trkpt lat="45.98229" lon="4.83836">
        <ele>274.100006104</ele>
        <time>2015-12-22T10:15:51.458Z</time>
      </trkpt>
      <trkpt lat="45.98227" lon="4.83841">
        <ele>274.100006104</ele>
        <time>2015-12-22T10:15:52.39Z</time>
      </trkpt>
      <trkpt lat="45.98225" lon="4.83847">
        <ele>274.200012207</ele>
        <time>2015-12-22T10:15:53.385Z</time>
      </trkpt>
      <trkpt lat="45.98223" lon="4.83853">
        <ele>274.200012207</ele>
        <time>2015-12-22T10:15:54.365Z</time>
      </trkpt>
      <trkpt lat="45.98221" lon="4.83858">
        <ele>274.200012207</ele>
        <time>2015-12-22T10:15:55.387Z</time>
      </trkpt>
      <trkpt lat="45.98218" lon="4.83865">
        <ele>274.200012207</ele>
        <time>2015-12-22T10:15:56.365Z</time>
      </trkpt>
      <trkpt lat="45.98216" lon="4.83871">
        <ele>274.200012207</ele>
        <time>2015-12-22T10:15:57.393Z</time>
      </trkpt>
      <trkpt lat="45.98214" lon="4.83876">
        <ele>274.100006104</ele>
        <time>2015-12-22T10:15:58.365Z</time>
      </trkpt>
      <trkpt lat="45.98212" lon="4.83883">
        <ele>274.100006104</ele>
        <time>2015-12-22T10:15:59.384Z</time>
      </trkpt>
      <trkpt lat="45.9821" lon="4.83889">
        <ele>274.200012207</ele>
        <time>2015-12-22T10:16:00.365Z</time>
      </trkpt>
      <trkpt lat="45.98208" lon="4.83895">
        <ele>274.200012207</ele>
        <time>2015-12-22T10:16:01.398Z</time>
      </trkpt>
      <trkpt lat="45.98206" lon="4.83901">
        <ele>274.299987793</ele>
        <time>2015-12-22T10:16:02.365Z</time>
      </trkpt>
      <trkpt lat="45.98203" lon="4.83907">
        <ele>274.299987793</ele>
        <time>2015-12-22T10:16:03.388Z</time>
      </trkpt>
      <trkpt lat="45.98202" lon="4.83914">
        <ele>274.299987793</ele>
        <time>2015-12-22T10:16:04.365Z</time>
      </trkpt>
      <trkpt lat="45.98199" lon="4.8392">
        <ele>274.299987793</ele>
        <time>2015-12-22T10:16:05.385Z</time>
      </trkpt>
      <trkpt lat="45.98197" lon="4.83927">
        <ele>274.299987793</ele>
        <time>2015-12-22T10:16:06.365Z</time>
      </trkpt>
      <trkpt lat="45.98195" lon="4.83934">
        <ele>274.299987793</ele>
        <time>2015-12-22T10:16:07.398Z</time>
      </trkpt>
      <trkpt lat="45.98193" lon="4.8394">
        <ele>274.299987793</ele>
        <time>2015-12-22T10:16:08.365Z</time>
      </trkpt>
      <trkpt lat="45.9819" lon="4.83947">
        <ele>274.399993896</ele>
        <time>2015-12-22T10:16:09.444Z</time>
      </trkpt>
      <trkpt lat="45.98188" lon="4.83953">
        <ele>274.399993896</ele>
        <time>2015-12-22T10:16:10.365Z</time>
      </trkpt>
      <trkpt lat="45.98185" lon="4.8396">
        <ele>274.399993896</ele>
        <time>2015-12-22T10:16:11.384Z</time>
      </trkpt>
      <trkpt lat="45.98183" lon="4.83967">
        <ele>274.5</ele>
        <time>2015-12-22T10:16:12.417Z</time>
      </trkpt>
      <trkpt lat="45.9818" lon="4.83973">
        <ele>274.600006104</ele>
        <time>2015-12-22T10:16:13.387Z</time>
      </trkpt>
      <trkpt lat="45.98178" lon="4.83979">
        <ele>274.700012207</ele>
        <time>2015-12-22T10:16:14.365Z</time>
      </trkpt>
      <trkpt lat="45.98175" lon="4.83986">
        <ele>274.799987793</ele>
        <time>2015-12-22T10:16:15.386Z</time>
      </trkpt>
      <trkpt lat="45.98173" lon="4.83992">
        <ele>274.899993896</ele>
        <time>2015-12-22T10:16:16.365Z</time>
      </trkpt>
      <trkpt lat="45.9817" lon="4.83998">
        <ele>274.899993896</ele>
        <time>2015-12-22T10:16:17.387Z</time>
      </trkpt>
      <trkpt lat="45.98167" lon="4.84004">
        <ele>275</ele>
        <time>2015-12-22T10:16:18.365Z</time>
      </trkpt>
      <trkpt lat="45.98164" lon="4.84009">
        <ele>275.100006104</ele>
        <time>2015-12-22T10:16:19.386Z</time>
      </trkpt>
      <trkpt lat="45.98162" lon="4.84015">
        <ele>275.100006104</ele>
        <time>2015-12-22T10:16:20.365Z</time>
      </trkpt>
      <trkpt lat="45.98158" lon="4.8402">
        <ele>275.200012207</ele>
        <time>2015-12-22T10:16:21.385Z</time>
      </trkpt>
      <trkpt lat="45.98155" lon="4.84025">
        <ele>275.200012207</ele>
        <time>2015-12-22T10:16:22.365Z</time>
      </trkpt>
      <trkpt lat="45.98152" lon="4.8403">
        <ele>275.299987793</ele>
        <time>2015-12-22T10:16:23.383Z</time>
      </trkpt>
      <trkpt lat="45.98149" lon="4.84035">
        <ele>275.399993896</ele>
        <time>2015-12-22T10:16:24.365Z</time>
      </trkpt>
      <trkpt lat="45.98146" lon="4.84041">
        <ele>275.5</ele>
        <time>2015-12-22T10:16:25.408Z</time>
      </trkpt>
      <trkpt lat="45.98143" lon="4.84046">
        <ele>275.600006104</ele>
        <time>2015-12-22T10:16:26.365Z</time>
      </trkpt>
      <trkpt lat="45.98139" lon="4.8405">
        <ele>275.600006104</ele>
        <time>2015-12-22T10:16:27.436Z</time>
      </trkpt>
      <trkpt lat="45.98136" lon="4.84055">
        <ele>275.600006104</ele>
        <time>2015-12-22T10:16:28.365Z</time>
      </trkpt>
      <trkpt lat="45.98132" lon="4.8406">
        <ele>275.700012207</ele>
        <time>2015-12-22T10:16:29.387Z</time>
      </trkpt>
      <trkpt lat="45.98128" lon="4.84064">
        <ele>275.700012207</ele>
        <time>2015-12-22T10:16:30.365Z</time>
      </trkpt>
      <trkpt lat="45.98125" lon="4.84069">
        <ele>275.799987793</ele>
        <time>2015-12-22T10:16:31.423Z</time>
      </trkpt>
      <trkpt lat="45.98121" lon="4.84073">
        <ele>275.899993896</ele>
        <time>2015-12-22T10:16:32.365Z</time>
      </trkpt>
      <trkpt lat="45.98117" lon="4.84077">
        <ele>275.899993896</ele>
        <time>2015-12-22T10:16:33.385Z</time>
      </trkpt>
      <trkpt lat="45.98113" lon="4.84081">
        <ele>275.899993896</ele>
        <time>2015-12-22T10:16:34.365Z</time>
      </trkpt>
      <trkpt lat="45.9811" lon="4.84086">
        <ele>276</ele>
        <time>2015-12-22T10:16:35.384Z</time>
      </trkpt>
      <trkpt lat="45.98106" lon="4.8409">
        <ele>276.100006104</ele>
        <time>2015-12-22T10:16:36.365Z</time>
      </trkpt>
      <trkpt lat="45.98102" lon="4.84093">
        <ele>276.100006104</ele>
        <time>2015-12-22T10:16:37.412Z</time>
      </trkpt>
      <trkpt lat="45.98098" lon="4.84097">
        <ele>276.100006104</ele>
        <time>2015-12-22T10:16:38.366Z</time>
      </trkpt>
      <trkpt lat="45.98094" lon="4.84101">
        <ele>276.200012207</ele>
        <time>2015-12-22T10:16:39.387Z</time>
      </trkpt>
      <trkpt lat="45.9809" lon="4.84104">
        <ele>276.200012207</ele>
        <time>2015-12-22T10:16:40.365Z</time>
      </trkpt>
      <trkpt lat="45.98086" lon="4.84108">
        <ele>276.299987793</ele>
        <time>2015-12-22T10:16:41.4Z</time>
      </trkpt>
      <trkpt lat="45.98083" lon="4.84112">
        <ele>276.299987793</ele>
        <time>2015-12-22T10:16:42.365Z</time>
      </trkpt>
      <trkpt lat="45.98079" lon="4.84115">
        <ele>276.399993896</ele>
        <time>2015-12-22T10:16:43.386Z</time>
      </trkpt>
      <trkpt lat="45.98075" lon="4.84119">
        <ele>276.399993896</ele>
        <time>2015-12-22T10:16:44.427Z</time>
      </trkpt>
      <trkpt lat="45.98071" lon="4.84123">
        <ele>276.399993896</ele>
        <time>2015-12-22T10:16:45.385Z</time>
      </trkpt>
      <trkpt lat="45.98067" lon="4.84127">
        <ele>276.399993896</ele>
        <time>2015-12-22T10:16:46.365Z</time>
      </trkpt>
      <trkpt lat="45.98063" lon="4.8413">
        <ele>276.399993896</ele>
        <time>2015-12-22T10:16:47.388Z</time>
      </trkpt>
      <trkpt lat="45.98059" lon="4.84134">
        <ele>276.399993896</ele>
        <time>2015-12-22T10:16:48.365Z</time>
      </trkpt>
      <trkpt lat="45.98055" lon="4.84138">
        <ele>276.399993896</ele>
        <time>2015-12-22T10:16:49.389Z</time>
      </trkpt>
      <trkpt lat="45.9805" lon="4.84142">
        <ele>276.299987793</ele>
        <time>2015-12-22T10:16:50.365Z</time>
      </trkpt>
      <trkpt lat="45.98047" lon="4.84146">
        <ele>276.299987793</ele>
        <time>2015-12-22T10:16:51.385Z</time>
      </trkpt>
      <trkpt lat="45.98042" lon="4.8415">
        <ele>276.399993896</ele>
        <time>2015-12-22T10:16:52.365Z</time>
      </trkpt>
      <trkpt lat="45.98038" lon="4.84153">
        <ele>276.399993896</ele>
        <time>2015-12-22T10:16:53.419Z</time>
      </trkpt>
      <trkpt lat="45.98034" lon="4.84157">
        <ele>276.399993896</ele>
        <time>2015-12-22T10:16:54.365Z</time>
      </trkpt>
      <trkpt lat="45.9803" lon="4.84161">
        <ele>276.5</ele>
        <time>2015-12-22T10:16:55.386Z</time>
      </trkpt>
      <trkpt lat="45.98026" lon="4.84165">
        <ele>276.5</ele>
        <time>2015-12-22T10:16:56.365Z</time>
      </trkpt>
      <trkpt lat="45.98022" lon="4.84169">
        <ele>276.5</ele>
        <time>2015-12-22T10:16:57.418Z</time>
      </trkpt>
      <trkpt lat="45.98018" lon="4.84173">
        <ele>276.5</ele>
        <time>2015-12-22T10:16:58.365Z</time>
      </trkpt>
      <trkpt lat="45.98014" lon="4.84176">
        <ele>276.5</ele>
        <time>2015-12-22T10:16:59.383Z</time>
      </trkpt>
      <trkpt lat="45.9801" lon="4.8418">
        <ele>276.5</ele>
        <time>2015-12-22T10:17:00.365Z</time>
      </trkpt>
      <trkpt lat="45.98006" lon="4.84184">
        <ele>276.5</ele>
        <time>2015-12-22T10:17:01.399Z</time>
      </trkpt>
      <trkpt lat="45.98002" lon="4.84188">
        <ele>276.600006104</ele>
        <time>2015-12-22T10:17:02.382Z</time>
      </trkpt>
      <trkpt lat="45.97999" lon="4.84191">
        <ele>276.700012207</ele>
        <time>2015-12-22T10:17:03.384Z</time>
      </trkpt>
      <trkpt lat="45.97995" lon="4.84195">
        <ele>276.799987793</ele>
        <time>2015-12-22T10:17:04.366Z</time>
      </trkpt>
      <trkpt lat="45.9799" lon="4.84198">
        <ele>276.899993896</ele>
        <time>2015-12-22T10:17:05.384Z</time>
      </trkpt>
      <trkpt lat="45.97986" lon="4.84202">
        <ele>277</ele>
        <time>2015-12-22T10:17:06.366Z</time>
      </trkpt>
      <trkpt lat="45.97982" lon="4.84206">
        <ele>277.100006104</ele>
        <time>2015-12-22T10:17:07.42Z</time>
      </trkpt>
      <trkpt lat="45.97978" lon="4.8421">
        <ele>277</ele>
        <time>2015-12-22T10:17:08.365Z</time>
      </trkpt>
      <trkpt lat="45.97974" lon="4.84214">
        <ele>277.100006104</ele>
        <time>2015-12-22T10:17:09.385Z</time>
      </trkpt>
      <trkpt lat="45.9797" lon="4.84218">
        <ele>277</ele>
        <time>2015-12-22T10:17:10.365Z</time>
      </trkpt>
      <trkpt lat="45.97966" lon="4.84222">
        <ele>277</ele>
        <time>2015-12-22T10:17:11.39Z</time>
      </trkpt>
      <trkpt lat="45.97962" lon="4.84226">
        <ele>277</ele>
        <time>2015-12-22T10:17:12.366Z</time>
      </trkpt>
      <trkpt lat="45.97958" lon="4.84229">
        <ele>277</ele>
        <time>2015-12-22T10:17:13.411Z</time>
      </trkpt>
      <trkpt lat="45.97954" lon="4.84233">
        <ele>277</ele>
        <time>2015-12-22T10:17:14.365Z</time>
      </trkpt>
      <trkpt lat="45.9795" lon="4.84237">
        <ele>276.899993896</ele>
        <time>2015-12-22T10:17:15.467Z</time>
      </trkpt>
      <trkpt lat="45.97946" lon="4.8424">
        <ele>276.899993896</ele>
        <time>2015-12-22T10:17:16.365Z</time>
      </trkpt>
      <trkpt lat="45.97942" lon="4.84244">
        <ele>276.899993896</ele>
        <time>2015-12-22T10:17:17.407Z</time>
      </trkpt>
      <trkpt lat="45.97939" lon="4.84248">
        <ele>276.899993896</ele>
        <time>2015-12-22T10:17:18.366Z</time>
      </trkpt>
      <trkpt lat="45.97935" lon="4.84251">
        <ele>276.799987793</ele>
        <time>2015-12-22T10:17:19.387Z</time>
      </trkpt>
      <trkpt lat="45.97931" lon="4.84255">
        <ele>276.799987793</ele>
        <time>2015-12-22T10:17:20.365Z</time>
      </trkpt>
      <trkpt lat="45.97928" lon="4.84259">
        <ele>276.799987793</ele>
        <time>2015-12-22T10:17:21.385Z</time>
      </trkpt>
      <trkpt lat="45.97924" lon="4.84264">
        <ele>276.700012207</ele>
        <time>2015-12-22T10:17:22.388Z</time>
      </trkpt>
      <trkpt lat="45.97921" lon="4.84269">
        <ele>276.700012207</ele>
        <time>2015-12-22T10:17:23.396Z</time>
      </trkpt>
      <trkpt lat="45.97919" lon="4.84275">
        <ele>276.799987793</ele>
        <time>2015-12-22T10:17:24.364Z</time>
      </trkpt>
      <trkpt lat="45.97918" lon="4.84282">
        <ele>277.299987793</ele>
        <time>2015-12-22T10:17:25.753Z</time>
      </trkpt>
      <trkpt lat="45.97919" lon="4.84289">
        <ele>277.600006104</ele>
        <time>2015-12-22T10:17:26.367Z</time>
      </trkpt>
      <trkpt lat="45.9792" lon="4.84297">
        <ele>278</ele>
        <time>2015-12-22T10:17:27.405Z</time>
      </trkpt>
      <trkpt lat="45.97921" lon="4.84304">
        <ele>278.200012207</ele>
        <time>2015-12-22T10:17:28.365Z</time>
      </trkpt>
      <trkpt lat="45.97923" lon="4.84311">
        <ele>277.799987793</ele>
        <time>2015-12-22T10:17:29.385Z</time>
      </trkpt>
      <trkpt lat="45.97924" lon="4.84318">
        <ele>277.899993896</ele>
        <time>2015-12-22T10:17:30.365Z</time>
      </trkpt>
      <trkpt lat="45.97925" lon="4.84324">
        <ele>277.899993896</ele>
        <time>2015-12-22T10:17:31.387Z</time>
      </trkpt>
      <trkpt lat="45.97927" lon="4.84331">
        <ele>278</ele>
        <time>2015-12-22T10:17:32.366Z</time>
      </trkpt>
      <trkpt lat="45.97928" lon="4.84338">
        <ele>278</ele>
        <time>2015-12-22T10:17:33.401Z</time>
      </trkpt>
      <trkpt lat="45.97929" lon="4.84345">
        <ele>278</ele>
        <time>2015-12-22T10:17:34.365Z</time>
      </trkpt>
      <trkpt lat="45.9793" lon="4.84352">
        <ele>278.100006104</ele>
        <time>2015-12-22T10:17:35.384Z</time>
      </trkpt>
      <trkpt lat="45.97931" lon="4.8436">
        <ele>278.200012207</ele>
        <time>2015-12-22T10:17:36.365Z</time>
      </trkpt>
      <trkpt lat="45.97933" lon="4.84367">
        <ele>278.100006104</ele>
        <time>2015-12-22T10:17:37.401Z</time>
      </trkpt>
      <trkpt lat="45.97934" lon="4.84375">
        <ele>278.100006104</ele>
        <time>2015-12-22T10:17:38.363Z</time>
      </trkpt>
      <trkpt lat="45.97936" lon="4.84383">
        <ele>278</ele>
        <time>2015-12-22T10:17:39.385Z</time>
      </trkpt>
      <trkpt lat="45.97937" lon="4.8439">
        <ele>277.899993896</ele>
        <time>2015-12-22T10:17:40.366Z</time>
      </trkpt>
      <trkpt lat="45.97938" lon="4.84398">
        <ele>277.899993896</ele>
        <time>2015-12-22T10:17:41.384Z</time>
      </trkpt>
      <trkpt lat="45.97939" lon="4.84405">
        <ele>277.799987793</ele>
        <time>2015-12-22T10:17:42.365Z</time>
      </trkpt>
      <trkpt lat="45.9794" lon="4.84412">
        <ele>277.799987793</ele>
        <time>2015-12-22T10:17:43.387Z</time>
      </trkpt>
      <trkpt lat="45.97942" lon="4.84419">
        <ele>277.799987793</ele>
        <time>2015-12-22T10:17:44.365Z</time>
      </trkpt>
      <trkpt lat="45.97943" lon="4.84426">
        <ele>277.799987793</ele>
        <time>2015-12-22T10:17:45.385Z</time>
      </trkpt>
      <trkpt lat="45.97944" lon="4.84433">
        <ele>277.700012207</ele>
        <time>2015-12-22T10:17:46.365Z</time>
      </trkpt>
      <trkpt lat="45.97945" lon="4.8444">
        <ele>277.600006104</ele>
        <time>2015-12-22T10:17:47.396Z</time>
      </trkpt>
      <trkpt lat="45.97946" lon="4.84448">
        <ele>277.600006104</ele>
        <time>2015-12-22T10:17:48.366Z</time>
      </trkpt>
      <trkpt lat="45.97948" lon="4.84455">
        <ele>277.5</ele>
        <time>2015-12-22T10:17:49.405Z</time>
      </trkpt>
      <trkpt lat="45.97949" lon="4.84463">
        <ele>277.5</ele>
        <time>2015-12-22T10:17:50.365Z</time>
      </trkpt>
      <trkpt lat="45.9795" lon="4.84471">
        <ele>277.399993896</ele>
        <time>2015-12-22T10:17:51.386Z</time>
      </trkpt>
      <trkpt lat="45.97951" lon="4.84479">
        <ele>277.299987793</ele>
        <time>2015-12-22T10:17:52.366Z</time>
      </trkpt>
      <trkpt lat="45.97952" lon="4.84487">
        <ele>277.299987793</ele>
        <time>2015-12-22T10:17:53.437Z</time>
      </trkpt>
      <trkpt lat="45.97954" lon="4.84495">
        <ele>277.299987793</ele>
        <time>2015-12-22T10:17:54.365Z</time>
      </trkpt>
      <trkpt lat="45.97956" lon="4.84504">
        <ele>277</ele>
        <time>2015-12-22T10:17:55.388Z</time>
      </trkpt>
      <trkpt lat="45.97957" lon="4.84513">
        <ele>276.899993896</ele>
        <time>2015-12-22T10:17:56.365Z</time>
      </trkpt>
      <trkpt lat="45.97959" lon="4.84521">
        <ele>276.799987793</ele>
        <time>2015-12-22T10:17:57.397Z</time>
      </trkpt>
      <trkpt lat="45.97961" lon="4.8453">
        <ele>276.700012207</ele>
        <time>2015-12-22T10:17:58.366Z</time>
      </trkpt>
      <trkpt lat="45.97962" lon="4.84539">
        <ele>276.600006104</ele>
        <time>2015-12-22T10:17:59.384Z</time>
      </trkpt>
      <trkpt lat="45.97963" lon="4.84547">
        <ele>276.5</ele>
        <time>2015-12-22T10:18:00.365Z</time>
      </trkpt>
      <trkpt lat="45.97965" lon="4.84556">
        <ele>276.399993896</ele>
        <time>2015-12-22T10:18:01.386Z</time>
      </trkpt>
      <trkpt lat="45.97966" lon="4.84565">
        <ele>276.299987793</ele>
        <time>2015-12-22T10:18:02.366Z</time>
      </trkpt>
      <trkpt lat="45.97968" lon="4.84574">
        <ele>276.200012207</ele>
        <time>2015-12-22T10:18:03.507Z</time>
      </trkpt>
      <trkpt lat="45.97969" lon="4.84583">
        <ele>276.100006104</ele>
        <time>2015-12-22T10:18:04.365Z</time>
      </trkpt>
      <trkpt lat="45.97971" lon="4.84591">
        <ele>276</ele>
        <time>2015-12-22T10:18:05.383Z</time>
      </trkpt>
      <trkpt lat="45.97972" lon="4.846">
        <ele>275.899993896</ele>
        <time>2015-12-22T10:18:06.365Z</time>
      </trkpt>
      <trkpt lat="45.97974" lon="4.84608">
        <ele>275.899993896</ele>
        <time>2015-12-22T10:18:07.422Z</time>
      </trkpt>
      <trkpt lat="45.97975" lon="4.84616">
        <ele>275.799987793</ele>
        <time>2015-12-22T10:18:08.365Z</time>
      </trkpt>
      <trkpt lat="45.97976" lon="4.84624">
        <ele>275.700012207</ele>
        <time>2015-12-22T10:18:09.385Z</time>
      </trkpt>
      <trkpt lat="45.97977" lon="4.84631">
        <ele>275.600006104</ele>
        <time>2015-12-22T10:18:10.38Z</time>
      </trkpt>
      <trkpt lat="45.97978" lon="4.84639">
        <ele>275.5</ele>
        <time>2015-12-22T10:18:11.383Z</time>
      </trkpt>
      <trkpt lat="45.97979" lon="4.84646">
        <ele>275.399993896</ele>
        <time>2015-12-22T10:18:12.365Z</time>
      </trkpt>
      <trkpt lat="45.97981" lon="4.84654">
        <ele>275.399993896</ele>
        <time>2015-12-22T10:18:13.386Z</time>
      </trkpt>
      <trkpt lat="45.97982" lon="4.84662">
        <ele>275.399993896</ele>
        <time>2015-12-22T10:18:14.367Z</time>
      </trkpt>
      <trkpt lat="45.97983" lon="4.8467">
        <ele>275.399993896</ele>
        <time>2015-12-22T10:18:15.386Z</time>
      </trkpt>
      <trkpt lat="45.97984" lon="4.84678">
        <ele>275.399993896</ele>
        <time>2015-12-22T10:18:16.366Z</time>
      </trkpt>
      <trkpt lat="45.97985" lon="4.84686">
        <ele>275.399993896</ele>
        <time>2015-12-22T10:18:17.396Z</time>
      </trkpt>
      <trkpt lat="45.97986" lon="4.84694">
        <ele>275.5</ele>
        <time>2015-12-22T10:18:18.367Z</time>
      </trkpt>
      <trkpt lat="45.97987" lon="4.84702">
        <ele>275.700012207</ele>
        <time>2015-12-22T10:18:19.386Z</time>
      </trkpt>
      <trkpt lat="45.97987" lon="4.8471">
        <ele>275.899993896</ele>
        <time>2015-12-22T10:18:20.396Z</time>
      </trkpt>
      <trkpt lat="45.97988" lon="4.84718">
        <ele>276</ele>
        <time>2015-12-22T10:18:21.385Z</time>
      </trkpt>
      <trkpt lat="45.97988" lon="4.84726">
        <ele>276.299987793</ele>
        <time>2015-12-22T10:18:22.365Z</time>
      </trkpt>
      <trkpt lat="45.97988" lon="4.84734">
        <ele>276.5</ele>
        <time>2015-12-22T10:18:23.383Z</time>
      </trkpt>
      <trkpt lat="45.97989" lon="4.84742">
        <ele>276.899993896</ele>
        <time>2015-12-22T10:18:24.366Z</time>
      </trkpt>
      <trkpt lat="45.9799" lon="4.8475">
        <ele>277</ele>
        <time>2015-12-22T10:18:25.386Z</time>
      </trkpt>
      <trkpt lat="45.97991" lon="4.84756">
        <ele>277.399993896</ele>
        <time>2015-12-22T10:18:26.363Z</time>
      </trkpt>
      <trkpt lat="45.97991" lon="4.84763">
        <ele>277.700012207</ele>
        <time>2015-12-22T10:18:27.407Z</time>
      </trkpt>
      <trkpt lat="45.97992" lon="4.8477">
        <ele>278</ele>
        <time>2015-12-22T10:18:28.412Z</time>
      </trkpt>
      <trkpt lat="45.97992" lon="4.84777">
        <ele>278.399993896</ele>
        <time>2015-12-22T10:18:29.384Z</time>
      </trkpt>
      <trkpt lat="45.97992" lon="4.84784">
        <ele>278.5</ele>
        <time>2015-12-22T10:18:30.366Z</time>
      </trkpt>
      <trkpt lat="45.97993" lon="4.84792">
        <ele>278.600006104</ele>
        <time>2015-12-22T10:18:31.402Z</time>
      </trkpt>
      <trkpt lat="45.97993" lon="4.848">
        <ele>278.600006104</ele>
        <time>2015-12-22T10:18:32.364Z</time>
      </trkpt>
      <trkpt lat="45.97994" lon="4.84807">
        <ele>278.600006104</ele>
        <time>2015-12-22T10:18:33.386Z</time>
      </trkpt>
      <trkpt lat="45.97994" lon="4.84815">
        <ele>278.799987793</ele>
        <time>2015-12-22T10:18:34.367Z</time>
      </trkpt>
      <trkpt lat="45.97995" lon="4.84822">
        <ele>278.700012207</ele>
        <time>2015-12-22T10:18:35.428Z</time>
      </trkpt>
      <trkpt lat="45.97996" lon="4.84829">
        <ele>278.799987793</ele>
        <time>2015-12-22T10:18:36.366Z</time>
      </trkpt>
      <trkpt lat="45.97996" lon="4.84835">
        <ele>279</ele>
        <time>2015-12-22T10:18:37.4Z</time>
      </trkpt>
      <trkpt lat="45.97996" lon="4.84842">
        <ele>279.200012207</ele>
        <time>2015-12-22T10:18:38.366Z</time>
      </trkpt>
      <trkpt lat="45.97997" lon="4.84849">
        <ele>279.299987793</ele>
        <time>2015-12-22T10:18:39.386Z</time>
      </trkpt>
      <trkpt lat="45.97997" lon="4.84856">
        <ele>279.299987793</ele>
        <time>2015-12-22T10:18:40.365Z</time>
      </trkpt>
      <trkpt lat="45.97998" lon="4.84864">
        <ele>279.5</ele>
        <time>2015-12-22T10:18:41.385Z</time>
      </trkpt>
      <trkpt lat="45.97999" lon="4.84871">
        <ele>279.700012207</ele>
        <time>2015-12-22T10:18:42.357Z</time>
      </trkpt>
      <trkpt lat="45.97999" lon="4.84878">
        <ele>279.799987793</ele>
        <time>2015-12-22T10:18:43.386Z</time>
      </trkpt>
      <trkpt lat="45.98001" lon="4.84885">
        <ele>279.899993896</ele>
        <time>2015-12-22T10:18:44.365Z</time>
      </trkpt>
      <trkpt lat="45.98001" lon="4.84892">
        <ele>280.200012207</ele>
        <time>2015-12-22T10:18:45.385Z</time>
      </trkpt>
      <trkpt lat="45.98002" lon="4.849">
        <ele>280.399993896</ele>
        <time>2015-12-22T10:18:46.41Z</time>
      </trkpt>
      <trkpt lat="45.98003" lon="4.84908">
        <ele>280.600006104</ele>
        <time>2015-12-22T10:18:47.386Z</time>
      </trkpt>
      <trkpt lat="45.98004" lon="4.84917">
        <ele>280.600006104</ele>
        <time>2015-12-22T10:18:48.364Z</time>
      </trkpt>
      <trkpt lat="45.98005" lon="4.84925">
        <ele>280.600006104</ele>
        <time>2015-12-22T10:18:49.39Z</time>
      </trkpt>
      <trkpt lat="45.98005" lon="4.84933">
        <ele>280.799987793</ele>
        <time>2015-12-22T10:18:50.365Z</time>
      </trkpt>
      <trkpt lat="45.98006" lon="4.84942">
        <ele>280.899993896</ele>
        <time>2015-12-22T10:18:51.386Z</time>
      </trkpt>
      <trkpt lat="45.98006" lon="4.8495">
        <ele>281</ele>
        <time>2015-12-22T10:18:52.432Z</time>
      </trkpt>
      <trkpt lat="45.98007" lon="4.84958">
        <ele>281.100006104</ele>
        <time>2015-12-22T10:18:53.397Z</time>
      </trkpt>
      <trkpt lat="45.98008" lon="4.84966">
        <ele>281.100006104</ele>
        <time>2015-12-22T10:18:54.365Z</time>
      </trkpt>
      <trkpt lat="45.98009" lon="4.84973">
        <ele>281.100006104</ele>
        <time>2015-12-22T10:18:55.386Z</time>
      </trkpt>
      <trkpt lat="45.98009" lon="4.84981">
        <ele>280.899993896</ele>
        <time>2015-12-22T10:18:56.364Z</time>
      </trkpt>
      <trkpt lat="45.9801" lon="4.84989">
        <ele>281.100006104</ele>
        <time>2015-12-22T10:18:57.419Z</time>
      </trkpt>
      <trkpt lat="45.9801" lon="4.84997">
        <ele>281.100006104</ele>
        <time>2015-12-22T10:18:58.365Z</time>
      </trkpt>
      <trkpt lat="45.98011" lon="4.85005">
        <ele>281.299987793</ele>
        <time>2015-12-22T10:18:59.383Z</time>
      </trkpt>
      <trkpt lat="45.98011" lon="4.85013">
        <ele>281.399993896</ele>
        <time>2015-12-22T10:19:00.368Z</time>
      </trkpt>
      <trkpt lat="45.98011" lon="4.85022">
        <ele>281.299987793</ele>
        <time>2015-12-22T10:19:01.39Z</time>
      </trkpt>
      <trkpt lat="45.98012" lon="4.8503">
        <ele>281.200012207</ele>
        <time>2015-12-22T10:19:02.365Z</time>
      </trkpt>
      <trkpt lat="45.98012" lon="4.85038">
        <ele>281.100006104</ele>
        <time>2015-12-22T10:19:03.385Z</time>
      </trkpt>
      <trkpt lat="45.98012" lon="4.85045">
        <ele>281</ele>
        <time>2015-12-22T10:19:04.365Z</time>
      </trkpt>
      <trkpt lat="45.98012" lon="4.85053">
        <ele>280.700012207</ele>
        <time>2015-12-22T10:19:05.383Z</time>
      </trkpt>
      <trkpt lat="45.98012" lon="4.85061">
        <ele>280.399993896</ele>
        <time>2015-12-22T10:19:06.364Z</time>
      </trkpt>
      <trkpt lat="45.98012" lon="4.85068">
        <ele>280.299987793</ele>
        <time>2015-12-22T10:19:07.391Z</time>
      </trkpt>
      <trkpt lat="45.98012" lon="4.85077">
        <ele>280.399993896</ele>
        <time>2015-12-22T10:19:08.364Z</time>
      </trkpt>
      <trkpt lat="45.98013" lon="4.85085">
        <ele>280.399993896</ele>
        <time>2015-12-22T10:19:09.386Z</time>
      </trkpt>
      <trkpt lat="45.98014" lon="4.85092">
        <ele>280.5</ele>
        <time>2015-12-22T10:19:10.365Z</time>
      </trkpt>
      <trkpt lat="45.98016" lon="4.85099">
        <ele>280.799987793</ele>
        <time>2015-12-22T10:19:11.385Z</time>
      </trkpt>
      <trkpt lat="45.98017" lon="4.85107">
        <ele>281.200012207</ele>
        <time>2015-12-22T10:19:12.364Z</time>
      </trkpt>
      <trkpt lat="45.9802" lon="4.85114">
        <ele>281.399993896</ele>
        <time>2015-12-22T10:19:13.407Z</time>
      </trkpt>
      <trkpt lat="45.98021" lon="4.85121">
        <ele>281.799987793</ele>
        <time>2015-12-22T10:19:14.365Z</time>
      </trkpt>
      <trkpt lat="45.98023" lon="4.85128">
        <ele>281.899993896</ele>
        <time>2015-12-22T10:19:15.384Z</time>
      </trkpt>
      <trkpt lat="45.98026" lon="4.85136">
        <ele>282</ele>
        <time>2015-12-22T10:19:16.364Z</time>
      </trkpt>
      <trkpt lat="45.98028" lon="4.85143">
        <ele>282</ele>
        <time>2015-12-22T10:19:17.407Z</time>
      </trkpt>
      <trkpt lat="45.9803" lon="4.8515">
        <ele>281.899993896</ele>
        <time>2015-12-22T10:19:18.381Z</time>
      </trkpt>
      <trkpt lat="45.98032" lon="4.85157">
        <ele>281.899993896</ele>
        <time>2015-12-22T10:19:19.386Z</time>
      </trkpt>
      <trkpt lat="45.98034" lon="4.85163">
        <ele>281.799987793</ele>
        <time>2015-12-22T10:19:20.365Z</time>
      </trkpt>
      <trkpt lat="45.98036" lon="4.8517">
        <ele>281.899993896</ele>
        <time>2015-12-22T10:19:21.385Z</time>
      </trkpt>
      <trkpt lat="45.98038" lon="4.85177">
        <ele>281.899993896</ele>
        <time>2015-12-22T10:19:22.365Z</time>
      </trkpt>
      <trkpt lat="45.9804" lon="4.85185">
        <ele>281.200012207</ele>
        <time>2015-12-22T10:19:23.384Z</time>
      </trkpt>
      <trkpt lat="45.98043" lon="4.85192">
        <ele>280.799987793</ele>
        <time>2015-12-22T10:19:24.366Z</time>
      </trkpt>
      <trkpt lat="45.98045" lon="4.85199">
        <ele>280.799987793</ele>
        <time>2015-12-22T10:19:25.388Z</time>
      </trkpt>
      <trkpt lat="45.98048" lon="4.85206">
        <ele>280.399993896</ele>
        <time>2015-12-22T10:19:26.369Z</time>
      </trkpt>
      <trkpt lat="45.9805" lon="4.85214">
        <ele>279.899993896</ele>
        <time>2015-12-22T10:19:27.392Z</time>
      </trkpt>
      <trkpt lat="45.98052" lon="4.8522">
        <ele>279.399993896</ele>
        <time>2015-12-22T10:19:28.364Z</time>
      </trkpt>
      <trkpt lat="45.98054" lon="4.85226">
        <ele>278.700012207</ele>
        <time>2015-12-22T10:19:29.384Z</time>
      </trkpt>
      <trkpt lat="45.98057" lon="4.85232">
        <ele>278.100006104</ele>
        <time>2015-12-22T10:19:30.366Z</time>
      </trkpt>
      <trkpt lat="45.9806" lon="4.85239">
        <ele>277.399993896</ele>
        <time>2015-12-22T10:19:31.402Z</time>
      </trkpt>
      <trkpt lat="45.98063" lon="4.85245">
        <ele>277.100006104</ele>
        <time>2015-12-22T10:19:32.366Z</time>
      </trkpt>
      <trkpt lat="45.98067" lon="4.85251">
        <ele>276.600006104</ele>
        <time>2015-12-22T10:19:33.385Z</time>
      </trkpt>
      <trkpt lat="45.9807" lon="4.85257">
        <ele>276.299987793</ele>
        <time>2015-12-22T10:19:34.364Z</time>
      </trkpt>
      <trkpt lat="45.98073" lon="4.85264">
        <ele>275.799987793</ele>
        <time>2015-12-22T10:19:35.384Z</time>
      </trkpt>
      <trkpt lat="45.98077" lon="4.8527">
        <ele>275.399993896</ele>
        <time>2015-12-22T10:19:36.365Z</time>
      </trkpt>
      <trkpt lat="45.9808" lon="4.85277">
        <ele>275</ele>
        <time>2015-12-22T10:19:37.434Z</time>
      </trkpt>
      <trkpt lat="45.98083" lon="4.85283">
        <ele>274.799987793</ele>
        <time>2015-12-22T10:19:38.364Z</time>
      </trkpt>
      <trkpt lat="45.98086" lon="4.85289">
        <ele>274.700012207</ele>
        <time>2015-12-22T10:19:39.401Z</time>
      </trkpt>
      <trkpt lat="45.98089" lon="4.85295">
        <ele>274.5</ele>
        <time>2015-12-22T10:19:40.365Z</time>
      </trkpt>
      <trkpt lat="45.98092" lon="4.85301">
        <ele>274.299987793</ele>
        <time>2015-12-22T10:19:41.383Z</time>
      </trkpt>
      <trkpt lat="45.98095" lon="4.85307">
        <ele>274.200012207</ele>
        <time>2015-12-22T10:19:42.366Z</time>
      </trkpt>
      <trkpt lat="45.98098" lon="4.85314">
        <ele>274</ele>
        <time>2015-12-22T10:19:43.386Z</time>
      </trkpt>
      <trkpt lat="45.981" lon="4.8532">
        <ele>273.899993896</ele>
        <time>2015-12-22T10:19:44.366Z</time>
      </trkpt>
      <trkpt lat="45.98103" lon="4.85327">
        <ele>273.799987793</ele>
        <time>2015-12-22T10:19:45.384Z</time>
      </trkpt>
      <trkpt lat="45.98106" lon="4.85334">
        <ele>273.5</ele>
        <time>2015-12-22T10:19:46.365Z</time>
      </trkpt>
      <trkpt lat="45.98108" lon="4.8534">
        <ele>273.299987793</ele>
        <time>2015-12-22T10:19:47.388Z</time>
      </trkpt>
      <trkpt lat="45.98111" lon="4.85348">
        <ele>273.200012207</ele>
        <time>2015-12-22T10:19:48.366Z</time>
      </trkpt>
      <trkpt lat="45.98114" lon="4.85355">
        <ele>272.700012207</ele>
        <time>2015-12-22T10:19:49.39Z</time>
      </trkpt>
      <trkpt lat="45.98117" lon="4.85363">
        <ele>272.200012207</ele>
        <time>2015-12-22T10:19:50.363Z</time>
      </trkpt>
      <trkpt lat="45.98121" lon="4.8537">
        <ele>272.100006104</ele>
        <time>2015-12-22T10:19:51.385Z</time>
      </trkpt>
      <trkpt lat="45.98125" lon="4.85378">
        <ele>271.799987793</ele>
        <time>2015-12-22T10:19:52.369Z</time>
      </trkpt>
      <trkpt lat="45.98128" lon="4.85386">
        <ele>271.399993896</ele>
        <time>2015-12-22T10:19:53.401Z</time>
      </trkpt>
      <trkpt lat="45.98131" lon="4.85394">
        <ele>271.299987793</ele>
        <time>2015-12-22T10:19:54.365Z</time>
      </trkpt>
      <trkpt lat="45.98134" lon="4.85403">
        <ele>271.100006104</ele>
        <time>2015-12-22T10:19:55.402Z</time>
      </trkpt>
      <trkpt lat="45.98137" lon="4.85411">
        <ele>270.700012207</ele>
        <time>2015-12-22T10:19:56.372Z</time>
      </trkpt>
      <trkpt lat="45.98141" lon="4.85419">
        <ele>270.5</ele>
        <time>2015-12-22T10:19:57.389Z</time>
      </trkpt>
      <trkpt lat="45.98144" lon="4.85426">
        <ele>270.100006104</ele>
        <time>2015-12-22T10:19:58.366Z</time>
      </trkpt>
      <trkpt lat="45.98146" lon="4.85434">
        <ele>270.100006104</ele>
        <time>2015-12-22T10:19:59.383Z</time>
      </trkpt>
      <trkpt lat="45.98149" lon="4.85442">
        <ele>270.100006104</ele>
        <time>2015-12-22T10:20:00.365Z</time>
      </trkpt>
      <trkpt lat="45.98152" lon="4.85449">
        <ele>270</ele>
        <time>2015-12-22T10:20:01.39Z</time>
      </trkpt>
      <trkpt lat="45.98155" lon="4.85456">
        <ele>270.100006104</ele>
        <time>2015-12-22T10:20:02.365Z</time>
      </trkpt>
      <trkpt lat="45.98158" lon="4.85462">
        <ele>270.399993896</ele>
        <time>2015-12-22T10:20:03.392Z</time>
      </trkpt>
      <trkpt lat="45.9816" lon="4.85468">
        <ele>270.5</ele>
        <time>2015-12-22T10:20:04.366Z</time>
      </trkpt>
      <trkpt lat="45.98162" lon="4.85475">
        <ele>270.700012207</ele>
        <time>2015-12-22T10:20:05.384Z</time>
      </trkpt>
      <trkpt lat="45.98165" lon="4.85481">
        <ele>270.799987793</ele>
        <time>2015-12-22T10:20:06.364Z</time>
      </trkpt>
      <trkpt lat="45.98168" lon="4.85488">
        <ele>270.700012207</ele>
        <time>2015-12-22T10:20:07.39Z</time>
      </trkpt>
      <trkpt lat="45.98171" lon="4.85495">
        <ele>270.600006104</ele>
        <time>2015-12-22T10:20:08.365Z</time>
      </trkpt>
      <trkpt lat="45.98173" lon="4.85502">
        <ele>270.799987793</ele>
        <time>2015-12-22T10:20:09.44Z</time>
      </trkpt>
      <trkpt lat="45.98176" lon="4.8551">
        <ele>270.700012207</ele>
        <time>2015-12-22T10:20:10.366Z</time>
      </trkpt>
      <trkpt lat="45.98179" lon="4.85517">
        <ele>270.600006104</ele>
        <time>2015-12-22T10:20:11.398Z</time>
      </trkpt>
      <trkpt lat="45.98182" lon="4.85524">
        <ele>270.799987793</ele>
        <time>2015-12-22T10:20:12.366Z</time>
      </trkpt>
      <trkpt lat="45.98185" lon="4.85531">
        <ele>270.799987793</ele>
        <time>2015-12-22T10:20:13.386Z</time>
      </trkpt>
      <trkpt lat="45.98188" lon="4.85537">
        <ele>270.899993896</ele>
        <time>2015-12-22T10:20:14.364Z</time>
      </trkpt>
      <trkpt lat="45.9819" lon="4.85544">
        <ele>271</ele>
        <time>2015-12-22T10:20:15.385Z</time>
      </trkpt>
      <trkpt lat="45.98193" lon="4.85551">
        <ele>270.899993896</ele>
        <time>2015-12-22T10:20:16.365Z</time>
      </trkpt>
      <trkpt lat="45.98195" lon="4.85558">
        <ele>270.799987793</ele>
        <time>2015-12-22T10:20:17.386Z</time>
      </trkpt>
      <trkpt lat="45.98198" lon="4.85565">
        <ele>270.799987793</ele>
        <time>2015-12-22T10:20:18.368Z</time>
      </trkpt>
      <trkpt lat="45.98201" lon="4.85572">
        <ele>270.5</ele>
        <time>2015-12-22T10:20:19.39Z</time>
      </trkpt>
      <trkpt lat="45.98204" lon="4.85579">
        <ele>270.399993896</ele>
        <time>2015-12-22T10:20:20.364Z</time>
      </trkpt>
      <trkpt lat="45.98206" lon="4.85586">
        <ele>270.299987793</ele>
        <time>2015-12-22T10:20:21.384Z</time>
      </trkpt>
      <trkpt lat="45.98209" lon="4.85593">
        <ele>270.299987793</ele>
        <time>2015-12-22T10:20:22.365Z</time>
      </trkpt>
      <trkpt lat="45.98212" lon="4.85599">
        <ele>270.100006104</ele>
        <time>2015-12-22T10:20:23.384Z</time>
      </trkpt>
      <trkpt lat="45.98215" lon="4.85606">
        <ele>270.100006104</ele>
        <time>2015-12-22T10:20:24.365Z</time>
      </trkpt>
      <trkpt lat="45.98218" lon="4.85613">
        <ele>270.200012207</ele>
        <time>2015-12-22T10:20:25.386Z</time>
      </trkpt>
      <trkpt lat="45.98221" lon="4.85621">
        <ele>270.200012207</ele>
        <time>2015-12-22T10:20:26.365Z</time>
      </trkpt>
      <trkpt lat="45.98224" lon="4.85628">
        <ele>270.399993896</ele>
        <time>2015-12-22T10:20:27.388Z</time>
      </trkpt>
      <trkpt lat="45.98227" lon="4.85635">
        <ele>270.600006104</ele>
        <time>2015-12-22T10:20:28.366Z</time>
      </trkpt>
      <trkpt lat="45.9823" lon="4.85642">
        <ele>270.399993896</ele>
        <time>2015-12-22T10:20:29.389Z</time>
      </trkpt>
      <trkpt lat="45.98233" lon="4.85649">
        <ele>270.399993896</ele>
        <time>2015-12-22T10:20:30.365Z</time>
      </trkpt>
      <trkpt lat="45.98236" lon="4.85657">
        <ele>270.200012207</ele>
        <time>2015-12-22T10:20:31.39Z</time>
      </trkpt>
      <trkpt lat="45.98238" lon="4.85665">
        <ele>270.200012207</ele>
        <time>2015-12-22T10:20:32.365Z</time>
      </trkpt>
      <trkpt lat="45.98241" lon="4.85671">
        <ele>269.899993896</ele>
        <time>2015-12-22T10:20:33.385Z</time>
      </trkpt>
      <trkpt lat="45.98244" lon="4.85678">
        <ele>269.799987793</ele>
        <time>2015-12-22T10:20:34.367Z</time>
      </trkpt>
      <trkpt lat="45.98247" lon="4.85685">
        <ele>269.799987793</ele>
        <time>2015-12-22T10:20:35.384Z</time>
      </trkpt>
      <trkpt lat="45.9825" lon="4.85692">
        <ele>269.600006104</ele>
        <time>2015-12-22T10:20:36.366Z</time>
      </trkpt>
      <trkpt lat="45.98253" lon="4.85699">
        <ele>269.899993896</ele>
        <time>2015-12-22T10:20:37.389Z</time>
      </trkpt>
      <trkpt lat="45.98256" lon="4.85707">
        <ele>270</ele>
        <time>2015-12-22T10:20:38.481Z</time>
      </trkpt>
      <trkpt lat="45.98259" lon="4.85714">
        <ele>269.899993896</ele>
        <time>2015-12-22T10:20:39.385Z</time>
      </trkpt>
      <trkpt lat="45.98262" lon="4.85721">
        <ele>269.700012207</ele>
        <time>2015-12-22T10:20:40.365Z</time>
      </trkpt>
      <trkpt lat="45.98264" lon="4.85729">
        <ele>269.700012207</ele>
        <time>2015-12-22T10:20:41.384Z</time>
      </trkpt>
      <trkpt lat="45.98267" lon="4.85736">
        <ele>269.399993896</ele>
        <time>2015-12-22T10:20:42.38Z</time>
      </trkpt>
      <trkpt lat="45.9827" lon="4.85744">
        <ele>269.600006104</ele>
        <time>2015-12-22T10:20:43.386Z</time>
      </trkpt>
      <trkpt lat="45.98274" lon="4.85751">
        <ele>269.5</ele>
        <time>2015-12-22T10:20:44.367Z</time>
      </trkpt>
      <trkpt lat="45.98277" lon="4.85759">
        <ele>269</ele>
        <time>2015-12-22T10:20:45.387Z</time>
      </trkpt>
      <trkpt lat="45.9828" lon="4.85767">
        <ele>268.799987793</ele>
        <time>2015-12-22T10:20:46.364Z</time>
      </trkpt>
      <trkpt lat="45.98283" lon="4.85775">
        <ele>268.5</ele>
        <time>2015-12-22T10:20:47.417Z</time>
      </trkpt>
      <trkpt lat="45.98286" lon="4.85783">
        <ele>268.200012207</ele>
        <time>2015-12-22T10:20:48.366Z</time>
      </trkpt>
      <trkpt lat="45.9829" lon="4.85792">
        <ele>268.200012207</ele>
        <time>2015-12-22T10:20:49.445Z</time>
      </trkpt>
      <trkpt lat="45.98293" lon="4.858">
        <ele>267.899993896</ele>
        <time>2015-12-22T10:20:50.365Z</time>
      </trkpt>
      <trkpt lat="45.98296" lon="4.85808">
        <ele>267.700012207</ele>
        <time>2015-12-22T10:20:51.385Z</time>
      </trkpt>
      <trkpt lat="45.983" lon="4.85816">
        <ele>267.600006104</ele>
        <time>2015-12-22T10:20:52.366Z</time>
      </trkpt>
      <trkpt lat="45.98303" lon="4.85824">
        <ele>267.700012207</ele>
        <time>2015-12-22T10:20:53.385Z</time>
      </trkpt>
      <trkpt lat="45.98307" lon="4.85832">
        <ele>267.899993896</ele>
        <time>2015-12-22T10:20:54.364Z</time>
      </trkpt>
      <trkpt lat="45.9831" lon="4.85839">
        <ele>267.799987793</ele>
        <time>2015-12-22T10:20:55.387Z</time>
      </trkpt>
      <trkpt lat="45.98312" lon="4.85847">
        <ele>267.600006104</ele>
        <time>2015-12-22T10:20:56.365Z</time>
      </trkpt>
      <trkpt lat="45.98315" lon="4.85854">
        <ele>267.600006104</ele>
        <time>2015-12-22T10:20:57.389Z</time>
      </trkpt>
      <trkpt lat="45.98317" lon="4.85861">
        <ele>267.899993896</ele>
        <time>2015-12-22T10:20:58.367Z</time>
      </trkpt>
      <trkpt lat="45.9832" lon="4.85868">
        <ele>268.200012207</ele>
        <time>2015-12-22T10:20:59.385Z</time>
      </trkpt>
      <trkpt lat="45.98322" lon="4.85876">
        <ele>268.600006104</ele>
        <time>2015-12-22T10:21:00.367Z</time>
      </trkpt>
      <trkpt lat="45.98325" lon="4.85882">
        <ele>268.5</ele>
        <time>2015-12-22T10:21:01.389Z</time>
      </trkpt>
      <trkpt lat="45.98328" lon="4.8589">
        <ele>268.700012207</ele>
        <time>2015-12-22T10:21:02.367Z</time>
      </trkpt>
      <trkpt lat="45.98331" lon="4.85896">
        <ele>268.899993896</ele>
        <time>2015-12-22T10:21:03.4Z</time>
      </trkpt>
      <trkpt lat="45.98335" lon="4.85903">
        <ele>269</ele>
        <time>2015-12-22T10:21:04.366Z</time>
      </trkpt>
      <trkpt lat="45.98338" lon="4.8591">
        <ele>269.200012207</ele>
        <time>2015-12-22T10:21:05.386Z</time>
      </trkpt>
      <trkpt lat="45.9834" lon="4.85917">
        <ele>269.299987793</ele>
        <time>2015-12-22T10:21:06.39Z</time>
      </trkpt>
      <trkpt lat="45.98343" lon="4.85924">
        <ele>269.299987793</ele>
        <time>2015-12-22T10:21:07.39Z</time>
      </trkpt>
      <trkpt lat="45.98346" lon="4.85931">
        <ele>269.299987793</ele>
        <time>2015-12-22T10:21:08.365Z</time>
      </trkpt>
      <trkpt lat="45.98349" lon="4.85938">
        <ele>269.200012207</ele>
        <time>2015-12-22T10:21:09.385Z</time>
      </trkpt>
      <trkpt lat="45.98352" lon="4.85945">
        <ele>269.100006104</ele>
        <time>2015-12-22T10:21:10.368Z</time>
      </trkpt>
      <trkpt lat="45.98355" lon="4.85951">
        <ele>269.100006104</ele>
        <time>2015-12-22T10:21:11.393Z</time>
      </trkpt>
      <trkpt lat="45.98358" lon="4.85958">
        <ele>269</ele>
        <time>2015-12-22T10:21:12.367Z</time>
      </trkpt>
      <trkpt lat="45.98361" lon="4.85965">
        <ele>268.899993896</ele>
        <time>2015-12-22T10:21:13.422Z</time>
      </trkpt>
      <trkpt lat="45.98364" lon="4.85973">
        <ele>268.799987793</ele>
        <time>2015-12-22T10:21:14.366Z</time>
      </trkpt>
      <trkpt lat="45.98367" lon="4.8598">
        <ele>268.700012207</ele>
        <time>2015-12-22T10:21:15.386Z</time>
      </trkpt>
      <trkpt lat="45.9837" lon="4.85987">
        <ele>268.700012207</ele>
        <time>2015-12-22T10:21:16.366Z</time>
      </trkpt>
      <trkpt lat="45.98373" lon="4.85994">
        <ele>268.899993896</ele>
        <time>2015-12-22T10:21:17.388Z</time>
      </trkpt>
      <trkpt lat="45.98376" lon="4.86001">
        <ele>268.600006104</ele>
        <time>2015-12-22T10:21:18.365Z</time>
      </trkpt>
      <trkpt lat="45.98378" lon="4.86007">
        <ele>268.600006104</ele>
        <time>2015-12-22T10:21:19.387Z</time>
      </trkpt>
      <trkpt lat="45.98381" lon="4.86014">
        <ele>268.600006104</ele>
        <time>2015-12-22T10:21:20.367Z</time>
      </trkpt>
      <trkpt lat="45.98384" lon="4.8602">
        <ele>269</ele>
        <time>2015-12-22T10:21:21.387Z</time>
      </trkpt>
      <trkpt lat="45.98387" lon="4.86028">
        <ele>268.600006104</ele>
        <time>2015-12-22T10:21:22.366Z</time>
      </trkpt>
      <trkpt lat="45.98389" lon="4.86035">
        <ele>268.5</ele>
        <time>2015-12-22T10:21:23.385Z</time>
      </trkpt>
      <trkpt lat="45.98391" lon="4.86043">
        <ele>268.600006104</ele>
        <time>2015-12-22T10:21:24.365Z</time>
      </trkpt>
      <trkpt lat="45.98393" lon="4.86051">
        <ele>268.399993896</ele>
        <time>2015-12-22T10:21:25.388Z</time>
      </trkpt>
      <trkpt lat="45.98395" lon="4.86058">
        <ele>268.5</ele>
        <time>2015-12-22T10:21:26.366Z</time>
      </trkpt>
      <trkpt lat="45.98396" lon="4.86066">
        <ele>269</ele>
        <time>2015-12-22T10:21:27.389Z</time>
      </trkpt>
      <trkpt lat="45.98398" lon="4.86073">
        <ele>270.299987793</ele>
        <time>2015-12-22T10:21:28.365Z</time>
      </trkpt>
      <trkpt lat="45.984" lon="4.86081">
        <ele>271.200012207</ele>
        <time>2015-12-22T10:21:29.399Z</time>
      </trkpt>
      <trkpt lat="45.98402" lon="4.86087">
        <ele>272.299987793</ele>
        <time>2015-12-22T10:21:30.365Z</time>
      </trkpt>
      <trkpt lat="45.98405" lon="4.86095">
        <ele>273.399993896</ele>
        <time>2015-12-22T10:21:31.402Z</time>
      </trkpt>
      <trkpt lat="45.98407" lon="4.86102">
        <ele>274.200012207</ele>
        <time>2015-12-22T10:21:32.366Z</time>
      </trkpt>
      <trkpt lat="45.98408" lon="4.86108">
        <ele>275.100006104</ele>
        <time>2015-12-22T10:21:33.389Z</time>
      </trkpt>
      <trkpt lat="45.98409" lon="4.86115">
        <ele>275.5</ele>
        <time>2015-12-22T10:21:34.365Z</time>
      </trkpt>
      <trkpt lat="45.98409" lon="4.86127">
        <ele>276.899993896</ele>
        <time>2015-12-22T10:21:36.388Z</time>
      </trkpt>
      <trkpt lat="45.98409" lon="4.86133">
        <ele>277.399993896</ele>
        <time>2015-12-22T10:21:37.371Z</time>
      </trkpt>
      <trkpt lat="45.98411" lon="4.86144">
        <ele>277.799987793</ele>
        <time>2015-12-22T10:21:39.386Z</time>
      </trkpt>
      <trkpt lat="45.98412" lon="4.8615">
        <ele>278.200012207</ele>
        <time>2015-12-22T10:21:40.365Z</time>
      </trkpt>
      <trkpt lat="45.98415" lon="4.86161">
        <ele>280.299987793</ele>
        <time>2015-12-22T10:21:42.384Z</time>
      </trkpt>
      <trkpt lat="45.98415" lon="4.86167">
        <ele>281.100006104</ele>
        <time>2015-12-22T10:21:43.368Z</time>
      </trkpt>
      <trkpt lat="45.98416" lon="4.8618">
        <ele>281.799987793</ele>
        <time>2015-12-22T10:21:45.391Z</time>
      </trkpt>
      <trkpt lat="45.98417" lon="4.86187">
        <ele>281.899993896</ele>
        <time>2015-12-22T10:21:46.366Z</time>
      </trkpt>
      <trkpt lat="45.98418" lon="4.86194">
        <ele>281.899993896</ele>
        <time>2015-12-22T10:21:47.388Z</time>
      </trkpt>
      <trkpt lat="45.98419" lon="4.86201">
        <ele>281.899993896</ele>
        <time>2015-12-22T10:21:48.364Z</time>
      </trkpt>
      <trkpt lat="45.98421" lon="4.86209">
        <ele>281.5</ele>
        <time>2015-12-22T10:21:49.478Z</time>
      </trkpt>
      <trkpt lat="45.98422" lon="4.86217">
        <ele>281.399993896</ele>
        <time>2015-12-22T10:21:50.376Z</time>
      </trkpt>
      <trkpt lat="45.98423" lon="4.86225">
        <ele>281.299987793</ele>
        <time>2015-12-22T10:21:51.386Z</time>
      </trkpt>
      <trkpt lat="45.98424" lon="4.86232">
        <ele>281</ele>
        <time>2015-12-22T10:21:52.365Z</time>
      </trkpt>
      <trkpt lat="45.98426" lon="4.8624">
        <ele>280.700012207</ele>
        <time>2015-12-22T10:21:53.384Z</time>
      </trkpt>
      <trkpt lat="45.98428" lon="4.86249">
        <ele>280.200012207</ele>
        <time>2015-12-22T10:21:54.379Z</time>
      </trkpt>
      <trkpt lat="45.98429" lon="4.86258">
        <ele>279.700012207</ele>
        <time>2015-12-22T10:21:55.388Z</time>
      </trkpt>
      <trkpt lat="45.98431" lon="4.86268">
        <ele>279.5</ele>
        <time>2015-12-22T10:21:56.365Z</time>
      </trkpt>
      <trkpt lat="45.98432" lon="4.86278">
        <ele>279.5</ele>
        <time>2015-12-22T10:21:57.389Z</time>
      </trkpt>
      <trkpt lat="45.98434" lon="4.86288">
        <ele>279.100006104</ele>
        <time>2015-12-22T10:21:58.365Z</time>
      </trkpt>
      <trkpt lat="45.98436" lon="4.86299">
        <ele>278</ele>
        <time>2015-12-22T10:21:59.384Z</time>
      </trkpt>
      <trkpt lat="45.98439" lon="4.8631">
        <ele>277.700012207</ele>
        <time>2015-12-22T10:22:00.367Z</time>
      </trkpt>
      <trkpt lat="45.98441" lon="4.86321">
        <ele>277.200012207</ele>
        <time>2015-12-22T10:22:01.402Z</time>
      </trkpt>
      <trkpt lat="45.98443" lon="4.86333">
        <ele>276.700012207</ele>
        <time>2015-12-22T10:22:02.368Z</time>
      </trkpt>
      <trkpt lat="45.98445" lon="4.86344">
        <ele>276.299987793</ele>
        <time>2015-12-22T10:22:03.386Z</time>
      </trkpt>
      <trkpt lat="45.98448" lon="4.86354">
        <ele>275.700012207</ele>
        <time>2015-12-22T10:22:04.365Z</time>
      </trkpt>
      <trkpt lat="45.98451" lon="4.86364">
        <ele>275</ele>
        <time>2015-12-22T10:22:05.385Z</time>
      </trkpt>
      <trkpt lat="45.98454" lon="4.86374">
        <ele>274.700012207</ele>
        <time>2015-12-22T10:22:06.365Z</time>
      </trkpt>
      <trkpt lat="45.98457" lon="4.86383">
        <ele>274.5</ele>
        <time>2015-12-22T10:22:07.389Z</time>
      </trkpt>
      <trkpt lat="45.98461" lon="4.86393">
        <ele>274.100006104</ele>
        <time>2015-12-22T10:22:08.366Z</time>
      </trkpt>
      <trkpt lat="45.98465" lon="4.86401">
        <ele>274.299987793</ele>
        <time>2015-12-22T10:22:09.385Z</time>
      </trkpt>
      <trkpt lat="45.98469" lon="4.8641">
        <ele>274</ele>
        <time>2015-12-22T10:22:10.365Z</time>
      </trkpt>
      <trkpt lat="45.98473" lon="4.86419">
        <ele>274.200012207</ele>
        <time>2015-12-22T10:22:11.563Z</time>
      </trkpt>
      <trkpt lat="45.98477" lon="4.86427">
        <ele>274.200012207</ele>
        <time>2015-12-22T10:22:12.366Z</time>
      </trkpt>
      <trkpt lat="45.98481" lon="4.86436">
        <ele>274.299987793</ele>
        <time>2015-12-22T10:22:13.388Z</time>
      </trkpt>
      <trkpt lat="45.98484" lon="4.86445">
        <ele>274.600006104</ele>
        <time>2015-12-22T10:22:14.366Z</time>
      </trkpt>
      <trkpt lat="45.98489" lon="4.86453">
        <ele>274.600006104</ele>
        <time>2015-12-22T10:22:15.392Z</time>
      </trkpt>
      <trkpt lat="45.98493" lon="4.86461">
        <ele>274.799987793</ele>
        <time>2015-12-22T10:22:16.366Z</time>
      </trkpt>
      <trkpt lat="45.98496" lon="4.86469">
        <ele>274.700012207</ele>
        <time>2015-12-22T10:22:17.391Z</time>
      </trkpt>
      <trkpt lat="45.985" lon="4.86476">
        <ele>274.5</ele>
        <time>2015-12-22T10:22:18.366Z</time>
      </trkpt>
      <trkpt lat="45.98503" lon="4.86483">
        <ele>274.299987793</ele>
        <time>2015-12-22T10:22:19.387Z</time>
      </trkpt>
      <trkpt lat="45.98507" lon="4.8649">
        <ele>274.200012207</ele>
        <time>2015-12-22T10:22:20.365Z</time>
      </trkpt>
      <trkpt lat="45.98511" lon="4.86497">
        <ele>274.399993896</ele>
        <time>2015-12-22T10:22:21.387Z</time>
      </trkpt>
      <trkpt lat="45.98514" lon="4.86505">
        <ele>274.299987793</ele>
        <time>2015-12-22T10:22:22.383Z</time>
      </trkpt>
      <trkpt lat="45.98518" lon="4.86513">
        <ele>274.299987793</ele>
        <time>2015-12-22T10:22:23.385Z</time>
      </trkpt>
      <trkpt lat="45.98522" lon="4.8652">
        <ele>274.399993896</ele>
        <time>2015-12-22T10:22:24.366Z</time>
      </trkpt>
      <trkpt lat="45.98526" lon="4.86528">
        <ele>274.399993896</ele>
        <time>2015-12-22T10:22:25.387Z</time>
      </trkpt>
      <trkpt lat="45.9853" lon="4.86536">
        <ele>274.5</ele>
        <time>2015-12-22T10:22:26.366Z</time>
      </trkpt>
      <trkpt lat="45.98534" lon="4.86544">
        <ele>274.299987793</ele>
        <time>2015-12-22T10:22:27.463Z</time>
      </trkpt>
      <trkpt lat="45.98537" lon="4.86552">
        <ele>274.200012207</ele>
        <time>2015-12-22T10:22:28.368Z</time>
      </trkpt>
      <trkpt lat="45.98541" lon="4.8656">
        <ele>273.899993896</ele>
        <time>2015-12-22T10:22:29.386Z</time>
      </trkpt>
      <trkpt lat="45.98545" lon="4.86569">
        <ele>274</ele>
        <time>2015-12-22T10:22:30.365Z</time>
      </trkpt>
      <trkpt lat="45.98547" lon="4.86578">
        <ele>273.700012207</ele>
        <time>2015-12-22T10:22:31.388Z</time>
      </trkpt>
      <trkpt lat="45.9855" lon="4.86586">
        <ele>273.700012207</ele>
        <time>2015-12-22T10:22:32.365Z</time>
      </trkpt>
      <trkpt lat="45.98552" lon="4.86594">
        <ele>273.700012207</ele>
        <time>2015-12-22T10:22:33.385Z</time>
      </trkpt>
      <trkpt lat="45.98554" lon="4.86602">
        <ele>273.600006104</ele>
        <time>2015-12-22T10:22:34.365Z</time>
      </trkpt>
      <trkpt lat="45.98555" lon="4.8661">
        <ele>273.799987793</ele>
        <time>2015-12-22T10:22:35.406Z</time>
      </trkpt>
      <trkpt lat="45.98556" lon="4.86618">
        <ele>273.799987793</ele>
        <time>2015-12-22T10:22:36.365Z</time>
      </trkpt>
      <trkpt lat="45.98558" lon="4.86626">
        <ele>273.5</ele>
        <time>2015-12-22T10:22:37.396Z</time>
      </trkpt>
      <trkpt lat="45.98559" lon="4.86635">
        <ele>274.200012207</ele>
        <time>2015-12-22T10:22:38.365Z</time>
      </trkpt>
      <trkpt lat="45.9856" lon="4.86643">
        <ele>273.799987793</ele>
        <time>2015-12-22T10:22:39.385Z</time>
      </trkpt>
      <trkpt lat="45.98561" lon="4.86652">
        <ele>273.399993896</ele>
        <time>2015-12-22T10:22:40.365Z</time>
      </trkpt>
      <trkpt lat="45.98562" lon="4.8666">
        <ele>273.399993896</ele>
        <time>2015-12-22T10:22:41.385Z</time>
      </trkpt>
      <trkpt lat="45.98563" lon="4.86669">
        <ele>273.200012207</ele>
        <time>2015-12-22T10:22:42.385Z</time>
      </trkpt>
      <trkpt lat="45.98563" lon="4.86678">
        <ele>273.100006104</ele>
        <time>2015-12-22T10:22:43.422Z</time>
      </trkpt>
      <trkpt lat="45.98564" lon="4.86688">
        <ele>273.200012207</ele>
        <time>2015-12-22T10:22:44.365Z</time>
      </trkpt>
      <trkpt lat="45.98565" lon="4.86697">
        <ele>273.299987793</ele>
        <time>2015-12-22T10:22:45.412Z</time>
      </trkpt>
      <trkpt lat="45.98565" lon="4.86706">
        <ele>273.399993896</ele>
        <time>2015-12-22T10:22:46.367Z</time>
      </trkpt>
      <trkpt lat="45.98565" lon="4.86715">
        <ele>273.399993896</ele>
        <time>2015-12-22T10:22:47.394Z</time>
      </trkpt>
      <trkpt lat="45.98566" lon="4.86724">
        <ele>273.200012207</ele>
        <time>2015-12-22T10:22:48.405Z</time>
      </trkpt>
      <trkpt lat="45.98567" lon="4.86733">
        <ele>273</ele>
        <time>2015-12-22T10:22:49.391Z</time>
      </trkpt>
      <trkpt lat="45.98568" lon="4.86741">
        <ele>273</ele>
        <time>2015-12-22T10:22:50.378Z</time>
      </trkpt>
      <trkpt lat="45.98568" lon="4.86749">
        <ele>272.899993896</ele>
        <time>2015-12-22T10:22:51.387Z</time>
      </trkpt>
      <trkpt lat="45.9857" lon="4.86757">
        <ele>272.899993896</ele>
        <time>2015-12-22T10:22:52.365Z</time>
      </trkpt>
      <trkpt lat="45.98571" lon="4.86765">
        <ele>272.899993896</ele>
        <time>2015-12-22T10:22:53.386Z</time>
      </trkpt>
      <trkpt lat="45.98572" lon="4.86773">
        <ele>272.899993896</ele>
        <time>2015-12-22T10:22:54.369Z</time>
      </trkpt>
      <trkpt lat="45.98573" lon="4.86781">
        <ele>272.799987793</ele>
        <time>2015-12-22T10:22:55.39Z</time>
      </trkpt>
      <trkpt lat="45.98574" lon="4.86789">
        <ele>272.799987793</ele>
        <time>2015-12-22T10:22:56.366Z</time>
      </trkpt>
      <trkpt lat="45.98576" lon="4.86797">
        <ele>272.5</ele>
        <time>2015-12-22T10:22:57.397Z</time>
      </trkpt>
      <trkpt lat="45.98577" lon="4.86805">
        <ele>272.100006104</ele>
        <time>2015-12-22T10:22:58.365Z</time>
      </trkpt>
      <trkpt lat="45.98579" lon="4.86814">
        <ele>271.700012207</ele>
        <time>2015-12-22T10:22:59.385Z</time>
      </trkpt>
      <trkpt lat="45.9858" lon="4.86823">
        <ele>271.399993896</ele>
        <time>2015-12-22T10:23:00.367Z</time>
      </trkpt>
      <trkpt lat="45.98581" lon="4.86832">
        <ele>271.5</ele>
        <time>2015-12-22T10:23:01.394Z</time>
      </trkpt>
      <trkpt lat="45.98581" lon="4.86841">
        <ele>271.299987793</ele>
        <time>2015-12-22T10:23:02.366Z</time>
      </trkpt>
      <trkpt lat="45.98582" lon="4.8685">
        <ele>271.600006104</ele>
        <time>2015-12-22T10:23:03.386Z</time>
      </trkpt>
      <trkpt lat="45.98582" lon="4.8686">
        <ele>272.100006104</ele>
        <time>2015-12-22T10:23:04.364Z</time>
      </trkpt>
      <trkpt lat="45.98582" lon="4.8687">
        <ele>272.100006104</ele>
        <time>2015-12-22T10:23:05.457Z</time>
      </trkpt>
      <trkpt lat="45.98582" lon="4.8688">
        <ele>272.299987793</ele>
        <time>2015-12-22T10:23:06.367Z</time>
      </trkpt>
      <trkpt lat="45.98582" lon="4.8689">
        <ele>272.299987793</ele>
        <time>2015-12-22T10:23:07.397Z</time>
      </trkpt>
      <trkpt lat="45.98582" lon="4.86901">
        <ele>272.700012207</ele>
        <time>2015-12-22T10:23:08.366Z</time>
      </trkpt>
      <trkpt lat="45.98582" lon="4.86911">
        <ele>272.799987793</ele>
        <time>2015-12-22T10:23:09.401Z</time>
      </trkpt>
      <trkpt lat="45.98581" lon="4.8692">
        <ele>272.799987793</ele>
        <time>2015-12-22T10:23:10.365Z</time>
      </trkpt>
      <trkpt lat="45.98581" lon="4.8693">
        <ele>272.799987793</ele>
        <time>2015-12-22T10:23:11.384Z</time>
      </trkpt>
      <trkpt lat="45.98581" lon="4.86939">
        <ele>272.700012207</ele>
        <time>2015-12-22T10:23:12.366Z</time>
      </trkpt>
      <trkpt lat="45.9858" lon="4.86948">
        <ele>272.700012207</ele>
        <time>2015-12-22T10:23:13.386Z</time>
      </trkpt>
      <trkpt lat="45.9858" lon="4.86958">
        <ele>272.799987793</ele>
        <time>2015-12-22T10:23:14.365Z</time>
      </trkpt>
      <trkpt lat="45.9858" lon="4.86968">
        <ele>272.799987793</ele>
        <time>2015-12-22T10:23:15.386Z</time>
      </trkpt>
      <trkpt lat="45.98581" lon="4.86978">
        <ele>272.700012207</ele>
        <time>2015-12-22T10:23:16.366Z</time>
      </trkpt>
      <trkpt lat="45.98582" lon="4.86989">
        <ele>272.600006104</ele>
        <time>2015-12-22T10:23:17.554Z</time>
      </trkpt>
      <trkpt lat="45.98583" lon="4.86999">
        <ele>272.399993896</ele>
        <time>2015-12-22T10:23:18.366Z</time>
      </trkpt>
      <trkpt lat="45.98585" lon="4.87009">
        <ele>272.299987793</ele>
        <time>2015-12-22T10:23:19.388Z</time>
      </trkpt>
      <trkpt lat="45.98587" lon="4.8702">
        <ele>272.100006104</ele>
        <time>2015-12-22T10:23:20.366Z</time>
      </trkpt>
      <trkpt lat="45.98589" lon="4.8703">
        <ele>272.299987793</ele>
        <time>2015-12-22T10:23:21.386Z</time>
      </trkpt>
      <trkpt lat="45.98592" lon="4.87041">
        <ele>272.299987793</ele>
        <time>2015-12-22T10:23:22.366Z</time>
      </trkpt>
      <trkpt lat="45.98594" lon="4.87051">
        <ele>272.299987793</ele>
        <time>2015-12-22T10:23:23.384Z</time>
      </trkpt>
      <trkpt lat="45.98596" lon="4.8706">
        <ele>272.299987793</ele>
        <time>2015-12-22T10:23:24.366Z</time>
      </trkpt>
      <trkpt lat="45.98598" lon="4.87069">
        <ele>272.5</ele>
        <time>2015-12-22T10:23:25.401Z</time>
      </trkpt>
      <trkpt lat="45.98599" lon="4.87078">
        <ele>272.399993896</ele>
        <time>2015-12-22T10:23:26.365Z</time>
      </trkpt>
      <trkpt lat="45.98601" lon="4.87087">
        <ele>272.5</ele>
        <time>2015-12-22T10:23:27.399Z</time>
      </trkpt>
      <trkpt lat="45.98602" lon="4.87096">
        <ele>272.5</ele>
        <time>2015-12-22T10:23:28.365Z</time>
      </trkpt>
      <trkpt lat="45.98603" lon="4.87105">
        <ele>272.600006104</ele>
        <time>2015-12-22T10:23:29.384Z</time>
      </trkpt>
      <trkpt lat="45.98605" lon="4.87114">
        <ele>272.5</ele>
        <time>2015-12-22T10:23:30.367Z</time>
      </trkpt>
      <trkpt lat="45.98605" lon="4.87122">
        <ele>272.399993896</ele>
        <time>2015-12-22T10:23:31.387Z</time>
      </trkpt>
      <trkpt lat="45.98605" lon="4.87131">
        <ele>272.399993896</ele>
        <time>2015-12-22T10:23:32.367Z</time>
      </trkpt>
      <trkpt lat="45.98605" lon="4.8714">
        <ele>272.399993896</ele>
        <time>2015-12-22T10:23:33.385Z</time>
      </trkpt>
      <trkpt lat="45.98605" lon="4.8715">
        <ele>272.399993896</ele>
        <time>2015-12-22T10:23:34.366Z</time>
      </trkpt>
      <trkpt lat="45.98604" lon="4.87161">
        <ele>272.399993896</ele>
        <time>2015-12-22T10:23:35.384Z</time>
      </trkpt>
      <trkpt lat="45.98603" lon="4.87171">
        <ele>272.5</ele>
        <time>2015-12-22T10:23:36.365Z</time>
      </trkpt>
      <trkpt lat="45.98603" lon="4.8718">
        <ele>272.5</ele>
        <time>2015-12-22T10:23:37.413Z</time>
      </trkpt>
      <trkpt lat="45.98602" lon="4.8719">
        <ele>272.100006104</ele>
        <time>2015-12-22T10:23:38.366Z</time>
      </trkpt>
      <trkpt lat="45.98601" lon="4.87199">
        <ele>272.299987793</ele>
        <time>2015-12-22T10:23:39.421Z</time>
      </trkpt>
      <trkpt lat="45.986" lon="4.87209">
        <ele>272.5</ele>
        <time>2015-12-22T10:23:40.366Z</time>
      </trkpt>
      <trkpt lat="45.98599" lon="4.87219">
        <ele>272.799987793</ele>
        <time>2015-12-22T10:23:41.457Z</time>
      </trkpt>
      <trkpt lat="45.98598" lon="4.87229">
        <ele>273</ele>
        <time>2015-12-22T10:23:42.366Z</time>
      </trkpt>
      <trkpt lat="45.98597" lon="4.87239">
        <ele>273.200012207</ele>
        <time>2015-12-22T10:23:43.387Z</time>
      </trkpt>
      <trkpt lat="45.98597" lon="4.87249">
        <ele>273.299987793</ele>
        <time>2015-12-22T10:23:44.365Z</time>
      </trkpt>
      <trkpt lat="45.98596" lon="4.87259">
        <ele>273.600006104</ele>
        <time>2015-12-22T10:23:45.396Z</time>
      </trkpt>
      <trkpt lat="45.98594" lon="4.87269">
        <ele>273.799987793</ele>
        <time>2015-12-22T10:23:46.368Z</time>
      </trkpt>
      <trkpt lat="45.98593" lon="4.8728">
        <ele>274.299987793</ele>
        <time>2015-12-22T10:23:47.408Z</time>
      </trkpt>
      <trkpt lat="45.98592" lon="4.87291">
        <ele>274.399993896</ele>
        <time>2015-12-22T10:23:48.366Z</time>
      </trkpt>
      <trkpt lat="45.98593" lon="4.87302">
        <ele>274.200012207</ele>
        <time>2015-12-22T10:23:49.391Z</time>
      </trkpt>
      <trkpt lat="45.98594" lon="4.87313">
        <ele>274</ele>
        <time>2015-12-22T10:23:50.365Z</time>
      </trkpt>
      <trkpt lat="45.98596" lon="4.87324">
        <ele>273.899993896</ele>
        <time>2015-12-22T10:23:51.386Z</time>
      </trkpt>
      <trkpt lat="45.98597" lon="4.87336">
        <ele>273.600006104</ele>
        <time>2015-12-22T10:23:52.364Z</time>
      </trkpt>
      <trkpt lat="45.986" lon="4.87347">
        <ele>273.299987793</ele>
        <time>2015-12-22T10:23:53.386Z</time>
      </trkpt>
      <trkpt lat="45.98602" lon="4.87358">
        <ele>272.799987793</ele>
        <time>2015-12-22T10:23:54.366Z</time>
      </trkpt>
      <trkpt lat="45.98604" lon="4.87369">
        <ele>272</ele>
        <time>2015-12-22T10:23:55.387Z</time>
      </trkpt>
      <trkpt lat="45.98607" lon="4.87381">
        <ele>271.299987793</ele>
        <time>2015-12-22T10:23:56.365Z</time>
      </trkpt>
      <trkpt lat="45.98607" lon="4.87381">
        <ele>271.299987793</ele>
        <time>2015-12-22T10:23:56.385Z</time>
      </trkpt>
      <trkpt lat="45.9861" lon="4.87394">
        <ele>268.399993896</ele>
        <time>2015-12-22T10:23:57.385Z</time>
      </trkpt>
      <trkpt lat="45.98612" lon="4.87406">
        <ele>266.899993896</ele>
        <time>2015-12-22T10:23:58.385Z</time>
      </trkpt>
      <trkpt lat="45.98615" lon="4.87417">
        <ele>265.5</ele>
        <time>2015-12-22T10:23:59.365Z</time>
      </trkpt>
      <trkpt lat="45.98617" lon="4.87429">
        <ele>264.899993896</ele>
        <time>2015-12-22T10:24:00.385Z</time>
      </trkpt>
      <trkpt lat="45.9862" lon="4.87441">
        <ele>262.200012207</ele>
        <time>2015-12-22T10:24:01.369Z</time>
      </trkpt>
      <trkpt lat="45.98623" lon="4.87453">
        <ele>261.299987793</ele>
        <time>2015-12-22T10:24:02.4Z</time>
      </trkpt>
      <trkpt lat="45.98625" lon="4.87464">
        <ele>260.600006104</ele>
        <time>2015-12-22T10:24:03.367Z</time>
      </trkpt>
      <trkpt lat="45.98627" lon="4.87475">
        <ele>259.799987793</ele>
        <time>2015-12-22T10:24:04.407Z</time>
      </trkpt>
      <trkpt lat="45.98628" lon="4.87486">
        <ele>259.100006104</ele>
        <time>2015-12-22T10:24:05.366Z</time>
      </trkpt>
      <trkpt lat="45.9863" lon="4.87497">
        <ele>258.5</ele>
        <time>2015-12-22T10:24:06.384Z</time>
      </trkpt>
      <trkpt lat="45.98632" lon="4.87508">
        <ele>258.299987793</ele>
        <time>2015-12-22T10:24:07.387Z</time>
      </trkpt>
      <trkpt lat="45.98634" lon="4.87518">
        <ele>258</ele>
        <time>2015-12-22T10:24:08.385Z</time>
      </trkpt>
      <trkpt lat="45.98636" lon="4.87528">
        <ele>257.299987793</ele>
        <time>2015-12-22T10:24:09.374Z</time>
      </trkpt>
      <trkpt lat="45.98638" lon="4.87539">
        <ele>256.200012207</ele>
        <time>2015-12-22T10:24:10.385Z</time>
      </trkpt>
      <trkpt lat="45.98641" lon="4.87549">
        <ele>255.800003052</ele>
        <time>2015-12-22T10:24:11.366Z</time>
      </trkpt>
      <trkpt lat="45.98646" lon="4.87557">
        <ele>254.699996948</ele>
        <time>2015-12-22T10:24:12.394Z</time>
      </trkpt>
      <trkpt lat="45.98652" lon="4.87563">
        <ele>254.100006104</ele>
        <time>2015-12-22T10:24:13.368Z</time>
      </trkpt>
      <trkpt lat="45.98659" lon="4.87567">
        <ele>253.600006104</ele>
        <time>2015-12-22T10:24:14.381Z</time>
      </trkpt>
      <trkpt lat="45.98666" lon="4.87568">
        <ele>253.100006104</ele>
        <time>2015-12-22T10:24:15.367Z</time>
      </trkpt>
      <trkpt lat="45.98673" lon="4.87568">
        <ele>252.600006104</ele>
        <time>2015-12-22T10:24:16.383Z</time>
      </trkpt>
      <trkpt lat="45.98679" lon="4.87566">
        <ele>252.100006104</ele>
        <time>2015-12-22T10:24:17.386Z</time>
      </trkpt>
      <trkpt lat="45.98685" lon="4.87564">
        <ele>251.699996948</ele>
        <time>2015-12-22T10:24:18.383Z</time>
      </trkpt>
      <trkpt lat="45.98691" lon="4.87562">
        <ele>251.300003052</ele>
        <time>2015-12-22T10:24:19.367Z</time>
      </trkpt>
      <trkpt lat="45.98697" lon="4.8756">
        <ele>251</ele>
        <time>2015-12-22T10:24:20.382Z</time>
      </trkpt>
      <trkpt lat="45.98703" lon="4.87558">
        <ele>250.899993896</ele>
        <time>2015-12-22T10:24:21.365Z</time>
      </trkpt>
      <trkpt lat="45.98709" lon="4.87556">
        <ele>250.899993896</ele>
        <time>2015-12-22T10:24:22.384Z</time>
      </trkpt>
      <trkpt lat="45.98715" lon="4.87554">
        <ele>250.699996948</ele>
        <time>2015-12-22T10:24:23.363Z</time>
      </trkpt>
      <trkpt lat="45.98722" lon="4.87552">
        <ele>250.899993896</ele>
        <time>2015-12-22T10:24:24.381Z</time>
      </trkpt>
      <trkpt lat="45.98728" lon="4.87551">
        <ele>250.5</ele>
        <time>2015-12-22T10:24:25.368Z</time>
      </trkpt>
      <trkpt lat="45.98735" lon="4.87551">
        <ele>250.699996948</ele>
        <time>2015-12-22T10:24:26.381Z</time>
      </trkpt>
      <trkpt lat="45.98741" lon="4.87553">
        <ele>250.300003052</ele>
        <time>2015-12-22T10:24:27.387Z</time>
      </trkpt>
      <trkpt lat="45.98747" lon="4.87555">
        <ele>250.399993896</ele>
        <time>2015-12-22T10:24:28.397Z</time>
      </trkpt>
      <trkpt lat="45.98753" lon="4.87558">
        <ele>250.600006104</ele>
        <time>2015-12-22T10:24:29.363Z</time>
      </trkpt>
      <trkpt lat="45.98758" lon="4.87562">
        <ele>250.699996948</ele>
        <time>2015-12-22T10:24:30.383Z</time>
      </trkpt>
      <trkpt lat="45.98764" lon="4.87567">
        <ele>250.600006104</ele>
        <time>2015-12-22T10:24:31.367Z</time>
      </trkpt>
      <trkpt lat="45.9877" lon="4.87572">
        <ele>251.199996948</ele>
        <time>2015-12-22T10:24:32.382Z</time>
      </trkpt>
      <trkpt lat="45.98776" lon="4.87577">
        <ele>251.300003052</ele>
        <time>2015-12-22T10:24:33.364Z</time>
      </trkpt>
      <trkpt lat="45.98781" lon="4.87582">
        <ele>251.300003052</ele>
        <time>2015-12-22T10:24:34.382Z</time>
      </trkpt>
      <trkpt lat="45.98786" lon="4.87587">
        <ele>251.399993896</ele>
        <time>2015-12-22T10:24:35.362Z</time>
      </trkpt>
      <trkpt lat="45.98791" lon="4.87592">
        <ele>251.5</ele>
        <time>2015-12-22T10:24:36.382Z</time>
      </trkpt>
      <trkpt lat="45.98795" lon="4.87597">
        <ele>251.600006104</ele>
        <time>2015-12-22T10:24:37.391Z</time>
      </trkpt>
      <trkpt lat="45.988" lon="4.87603">
        <ele>251.699996948</ele>
        <time>2015-12-22T10:24:38.385Z</time>
      </trkpt>
      <trkpt lat="45.98803" lon="4.87608">
        <ele>251.899993896</ele>
        <time>2015-12-22T10:24:39.368Z</time>
      </trkpt>
      <trkpt lat="45.98807" lon="4.87614">
        <ele>252</ele>
        <time>2015-12-22T10:24:40.381Z</time>
      </trkpt>
      <trkpt lat="45.9881" lon="4.87622">
        <ele>252.300003052</ele>
        <time>2015-12-22T10:24:41.364Z</time>
      </trkpt>
      <trkpt lat="45.98813" lon="4.87629">
        <ele>252.699996948</ele>
        <time>2015-12-22T10:24:42.383Z</time>
      </trkpt>
      <trkpt lat="45.98815" lon="4.87637">
        <ele>253</ele>
        <time>2015-12-22T10:24:43.366Z</time>
      </trkpt>
      <trkpt lat="45.98817" lon="4.87645">
        <ele>253</ele>
        <time>2015-12-22T10:24:44.393Z</time>
      </trkpt>
      <trkpt lat="45.98819" lon="4.87653">
        <ele>252.899993896</ele>
        <time>2015-12-22T10:24:45.365Z</time>
      </trkpt>
      <trkpt lat="45.9882" lon="4.87663">
        <ele>253.100006104</ele>
        <time>2015-12-22T10:24:46.383Z</time>
      </trkpt>
      <trkpt lat="45.98822" lon="4.87672">
        <ele>253</ele>
        <time>2015-12-22T10:24:47.389Z</time>
      </trkpt>
      <trkpt lat="45.98824" lon="4.87681">
        <ele>252.800003052</ele>
        <time>2015-12-22T10:24:48.408Z</time>
      </trkpt>
      <trkpt lat="45.98825" lon="4.8769">
        <ele>252.5</ele>
        <time>2015-12-22T10:24:49.368Z</time>
      </trkpt>
      <trkpt lat="45.98827" lon="4.87698">
        <ele>252.399993896</ele>
        <time>2015-12-22T10:24:50.382Z</time>
      </trkpt>
      <trkpt lat="45.98829" lon="4.87707">
        <ele>252.300003052</ele>
        <time>2015-12-22T10:24:51.368Z</time>
      </trkpt>
      <trkpt lat="45.98831" lon="4.87716">
        <ele>252.199996948</ele>
        <time>2015-12-22T10:24:52.383Z</time>
      </trkpt>
      <trkpt lat="45.98832" lon="4.87725">
        <ele>252.399993896</ele>
        <time>2015-12-22T10:24:53.363Z</time>
      </trkpt>
      <trkpt lat="45.98833" lon="4.87733">
        <ele>252.800003052</ele>
        <time>2015-12-22T10:24:54.396Z</time>
      </trkpt>
      <trkpt lat="45.98834" lon="4.87741">
        <ele>252.800003052</ele>
        <time>2015-12-22T10:24:55.366Z</time>
      </trkpt>
      <trkpt lat="45.98836" lon="4.8775">
        <ele>253</ele>
        <time>2015-12-22T10:24:56.381Z</time>
      </trkpt>
      <trkpt lat="45.98838" lon="4.87758">
        <ele>253.199996948</ele>
        <time>2015-12-22T10:24:57.391Z</time>
      </trkpt>
      <trkpt lat="45.9884" lon="4.87766">
        <ele>253.399993896</ele>
        <time>2015-12-22T10:24:58.382Z</time>
      </trkpt>
      <trkpt lat="45.98842" lon="4.87774">
        <ele>253.5</ele>
        <time>2015-12-22T10:24:59.379Z</time>
      </trkpt>
      <trkpt lat="45.98844" lon="4.87782">
        <ele>253.699996948</ele>
        <time>2015-12-22T10:25:00.381Z</time>
      </trkpt>
      <trkpt lat="45.98846" lon="4.8779">
        <ele>253.800003052</ele>
        <time>2015-12-22T10:25:01.366Z</time>
      </trkpt>
      <trkpt lat="45.98849" lon="4.87798">
        <ele>254</ele>
        <time>2015-12-22T10:25:02.382Z</time>
      </trkpt>
      <trkpt lat="45.98852" lon="4.87805">
        <ele>254.300003052</ele>
        <time>2015-12-22T10:25:03.367Z</time>
      </trkpt>
      <trkpt lat="45.98855" lon="4.87813">
        <ele>254.399993896</ele>
        <time>2015-12-22T10:25:04.384Z</time>
      </trkpt>
      <trkpt lat="45.98857" lon="4.8782">
        <ele>254.5</ele>
        <time>2015-12-22T10:25:05.363Z</time>
      </trkpt>
      <trkpt lat="45.9886" lon="4.87828">
        <ele>255.100006104</ele>
        <time>2015-12-22T10:25:06.417Z</time>
      </trkpt>
      <trkpt lat="45.98864" lon="4.87835">
        <ele>255</ele>
        <time>2015-12-22T10:25:07.394Z</time>
      </trkpt>
      <trkpt lat="45.98867" lon="4.87842">
        <ele>255.100006104</ele>
        <time>2015-12-22T10:25:08.381Z</time>
      </trkpt>
      <trkpt lat="45.98871" lon="4.87849">
        <ele>254.899993896</ele>
        <time>2015-12-22T10:25:09.365Z</time>
      </trkpt>
      <trkpt lat="45.98875" lon="4.87856">
        <ele>255.199996948</ele>
        <time>2015-12-22T10:25:10.383Z</time>
      </trkpt>
      <trkpt lat="45.98878" lon="4.87862">
        <ele>255.600006104</ele>
        <time>2015-12-22T10:25:11.364Z</time>
      </trkpt>
      <trkpt lat="45.98882" lon="4.87869">
        <ele>255.800003052</ele>
        <time>2015-12-22T10:25:12.381Z</time>
      </trkpt>
      <trkpt lat="45.98886" lon="4.87875">
        <ele>255.899993896</ele>
        <time>2015-12-22T10:25:13.368Z</time>
      </trkpt>
      <trkpt lat="45.9889" lon="4.87881">
        <ele>255.699996948</ele>
        <time>2015-12-22T10:25:14.382Z</time>
      </trkpt>
      <trkpt lat="45.98894" lon="4.87887">
        <ele>255.699996948</ele>
        <time>2015-12-22T10:25:15.368Z</time>
      </trkpt>
      <trkpt lat="45.98899" lon="4.87892">
        <ele>255.5</ele>
        <time>2015-12-22T10:25:16.383Z</time>
      </trkpt>
      <trkpt lat="45.98903" lon="4.87897">
        <ele>255.800003052</ele>
        <time>2015-12-22T10:25:17.393Z</time>
      </trkpt>
      <trkpt lat="45.98907" lon="4.87902">
        <ele>256.100006104</ele>
        <time>2015-12-22T10:25:18.381Z</time>
      </trkpt>
      <trkpt lat="45.98911" lon="4.87905">
        <ele>255.699996948</ele>
        <time>2015-12-22T10:25:19.367Z</time>
      </trkpt>
      <trkpt lat="45.98915" lon="4.87909">
        <ele>255.699996948</ele>
        <time>2015-12-22T10:25:20.396Z</time>
      </trkpt>
      <trkpt lat="45.9892" lon="4.87913">
        <ele>255.800003052</ele>
        <time>2015-12-22T10:25:21.364Z</time>
      </trkpt>
      <trkpt lat="45.98924" lon="4.87915">
        <ele>255.800003052</ele>
        <time>2015-12-22T10:25:22.402Z</time>
      </trkpt>
      <trkpt lat="45.98928" lon="4.87918">
        <ele>255.800003052</ele>
        <time>2015-12-22T10:25:23.362Z</time>
      </trkpt>
      <trkpt lat="45.98932" lon="4.87921">
        <ele>256.5</ele>
        <time>2015-12-22T10:25:24.381Z</time>
      </trkpt>
      <trkpt lat="45.98936" lon="4.87924">
        <ele>256.600006104</ele>
        <time>2015-12-22T10:25:25.375Z</time>
      </trkpt>
      <trkpt lat="45.98944" lon="4.8793">
        <ele>257.100006104</ele>
        <time>2015-12-22T10:25:27.419Z</time>
      </trkpt>
      <trkpt lat="45.98948" lon="4.87932">
        <ele>257.5</ele>
        <time>2015-12-22T10:25:28.397Z</time>
      </trkpt>
      <trkpt lat="45.98953" lon="4.87934">
        <ele>257.700012207</ele>
        <time>2015-12-22T10:25:29.386Z</time>
      </trkpt>
      <trkpt lat="45.98957" lon="4.87936">
        <ele>258.100006104</ele>
        <time>2015-12-22T10:25:30.371Z</time>
      </trkpt>
      <trkpt lat="45.98965" lon="4.8794">
        <ele>258.5</ele>
        <time>2015-12-22T10:25:32.41Z</time>
      </trkpt>
      <trkpt lat="45.98968" lon="4.87942">
        <ele>258.600006104</ele>
        <time>2015-12-22T10:25:33.369Z</time>
      </trkpt>
      <trkpt lat="45.98976" lon="4.87946">
        <ele>258.799987793</ele>
        <time>2015-12-22T10:25:35.449Z</time>
      </trkpt>
      <trkpt lat="45.9898" lon="4.87948">
        <ele>259</ele>
        <time>2015-12-22T10:25:36.374Z</time>
      </trkpt>
      <trkpt lat="45.98987" lon="4.87952">
        <ele>260.200012207</ele>
        <time>2015-12-22T10:25:38.385Z</time>
      </trkpt>
      <trkpt lat="45.9899" lon="4.87955">
        <ele>260.600006104</ele>
        <time>2015-12-22T10:25:39.369Z</time>
      </trkpt>
      <trkpt lat="45.98997" lon="4.8796">
        <ele>260.700012207</ele>
        <time>2015-12-22T10:25:41.384Z</time>
      </trkpt>
      <trkpt lat="45.99001" lon="4.87962">
        <ele>260.799987793</ele>
        <time>2015-12-22T10:25:42.367Z</time>
      </trkpt>
      <trkpt lat="45.99006" lon="4.87965">
        <ele>262.200012207</ele>
        <time>2015-12-22T10:25:43.387Z</time>
      </trkpt>
      <trkpt lat="45.9901" lon="4.87967">
        <ele>262.399993896</ele>
        <time>2015-12-22T10:25:44.364Z</time>
      </trkpt>
      <trkpt lat="45.99019" lon="4.87971">
        <ele>262.600006104</ele>
        <time>2015-12-22T10:25:46.396Z</time>
      </trkpt>
      <trkpt lat="45.99022" lon="4.87973">
        <ele>263</ele>
        <time>2015-12-22T10:25:47.397Z</time>
      </trkpt>
      <trkpt lat="45.99028" lon="4.87976">
        <ele>263</ele>
        <time>2015-12-22T10:25:49.523Z</time>
      </trkpt>
      <trkpt lat="45.99031" lon="4.87979">
        <ele>263.5</ele>
        <time>2015-12-22T10:25:50.359Z</time>
      </trkpt>
      <trkpt lat="45.99038" lon="4.87983">
        <ele>264.299987793</ele>
        <time>2015-12-22T10:25:52.384Z</time>
      </trkpt>
      <trkpt lat="45.99042" lon="4.87985">
        <ele>264</ele>
        <time>2015-12-22T10:25:53.363Z</time>
      </trkpt>
      <trkpt lat="45.9905" lon="4.8799">
        <ele>263.700012207</ele>
        <time>2015-12-22T10:25:55.387Z</time>
      </trkpt>
      <trkpt lat="45.99055" lon="4.87991">
        <ele>264.200012207</ele>
        <time>2015-12-22T10:25:56.373Z</time>
      </trkpt>
      <trkpt lat="45.99063" lon="4.87996">
        <ele>264.799987793</ele>
        <time>2015-12-22T10:25:58.391Z</time>
      </trkpt>
      <trkpt lat="45.99067" lon="4.87998">
        <ele>264.899993896</ele>
        <time>2015-12-22T10:25:59.362Z</time>
      </trkpt>
      <trkpt lat="45.99075" lon="4.88003">
        <ele>265.299987793</ele>
        <time>2015-12-22T10:26:01.386Z</time>
      </trkpt>
      <trkpt lat="45.99079" lon="4.88006">
        <ele>265.399993896</ele>
        <time>2015-12-22T10:26:02.363Z</time>
      </trkpt>
      <trkpt lat="45.99083" lon="4.88008">
        <ele>265.5</ele>
        <time>2015-12-22T10:26:03.384Z</time>
      </trkpt>
      <trkpt lat="45.99088" lon="4.8801">
        <ele>265.600006104</ele>
        <time>2015-12-22T10:26:04.363Z</time>
      </trkpt>
      <trkpt lat="45.99096" lon="4.88014">
        <ele>265.899993896</ele>
        <time>2015-12-22T10:26:06.383Z</time>
      </trkpt>
      <trkpt lat="45.991" lon="4.88017">
        <ele>266.399993896</ele>
        <time>2015-12-22T10:26:07.402Z</time>
      </trkpt>
      <trkpt lat="45.99105" lon="4.88019">
        <ele>266.700012207</ele>
        <time>2015-12-22T10:26:08.382Z</time>
      </trkpt>
      <trkpt lat="45.99109" lon="4.88022">
        <ele>267.5</ele>
        <time>2015-12-22T10:26:09.364Z</time>
      </trkpt>
      <trkpt lat="45.99114" lon="4.88025">
        <ele>268.299987793</ele>
        <time>2015-12-22T10:26:10.381Z</time>
      </trkpt>
      <trkpt lat="45.9912" lon="4.88028">
        <ele>268.700012207</ele>
        <time>2015-12-22T10:26:11.362Z</time>
      </trkpt>
      <trkpt lat="45.99124" lon="4.8803">
        <ele>268.899993896</ele>
        <time>2015-12-22T10:26:12.535Z</time>
      </trkpt>
      <trkpt lat="45.99129" lon="4.88033">
        <ele>268.600006104</ele>
        <time>2015-12-22T10:26:13.367Z</time>
      </trkpt>
      <trkpt lat="45.99133" lon="4.88036">
        <ele>268.899993896</ele>
        <time>2015-12-22T10:26:14.382Z</time>
      </trkpt>
      <trkpt lat="45.99137" lon="4.88038">
        <ele>269.100006104</ele>
        <time>2015-12-22T10:26:15.366Z</time>
      </trkpt>
      <trkpt lat="45.99142" lon="4.88042">
        <ele>269.5</ele>
        <time>2015-12-22T10:26:16.383Z</time>
      </trkpt>
      <trkpt lat="45.99146" lon="4.88045">
        <ele>269.700012207</ele>
        <time>2015-12-22T10:26:17.392Z</time>
      </trkpt>
      <trkpt lat="45.9915" lon="4.88048">
        <ele>269.899993896</ele>
        <time>2015-12-22T10:26:18.391Z</time>
      </trkpt>
      <trkpt lat="45.99155" lon="4.88051">
        <ele>270.299987793</ele>
        <time>2015-12-22T10:26:19.367Z</time>
      </trkpt>
      <trkpt lat="45.99159" lon="4.88055">
        <ele>270.700012207</ele>
        <time>2015-12-22T10:26:20.387Z</time>
      </trkpt>
      <trkpt lat="45.99164" lon="4.88058">
        <ele>271</ele>
        <time>2015-12-22T10:26:21.364Z</time>
      </trkpt>
      <trkpt lat="45.99168" lon="4.88061">
        <ele>271.200012207</ele>
        <time>2015-12-22T10:26:22.385Z</time>
      </trkpt>
      <trkpt lat="45.99172" lon="4.88065">
        <ele>271.399993896</ele>
        <time>2015-12-22T10:26:23.362Z</time>
      </trkpt>
      <trkpt lat="45.99177" lon="4.88069">
        <ele>271.700012207</ele>
        <time>2015-12-22T10:26:24.382Z</time>
      </trkpt>
      <trkpt lat="45.99181" lon="4.88073">
        <ele>271.899993896</ele>
        <time>2015-12-22T10:26:25.369Z</time>
      </trkpt>
      <trkpt lat="45.99185" lon="4.88076">
        <ele>272.200012207</ele>
        <time>2015-12-22T10:26:26.382Z</time>
      </trkpt>
      <trkpt lat="45.9919" lon="4.8808">
        <ele>272.5</ele>
        <time>2015-12-22T10:26:27.392Z</time>
      </trkpt>
      <trkpt lat="45.99194" lon="4.88084">
        <ele>272.700012207</ele>
        <time>2015-12-22T10:26:28.395Z</time>
      </trkpt>
      <trkpt lat="45.99198" lon="4.88088">
        <ele>273</ele>
        <time>2015-12-22T10:26:29.364Z</time>
      </trkpt>
      <trkpt lat="45.99203" lon="4.88093">
        <ele>273.100006104</ele>
        <time>2015-12-22T10:26:30.383Z</time>
      </trkpt>
      <trkpt lat="45.99208" lon="4.88097">
        <ele>273.5</ele>
        <time>2015-12-22T10:26:31.368Z</time>
      </trkpt>
      <trkpt lat="45.99212" lon="4.88101">
        <ele>273.700012207</ele>
        <time>2015-12-22T10:26:32.381Z</time>
      </trkpt>
      <trkpt lat="45.99217" lon="4.88106">
        <ele>273.899993896</ele>
        <time>2015-12-22T10:26:33.364Z</time>
      </trkpt>
      <trkpt lat="45.99222" lon="4.8811">
        <ele>274.100006104</ele>
        <time>2015-12-22T10:26:34.417Z</time>
      </trkpt>
      <trkpt lat="45.99227" lon="4.88115">
        <ele>274.299987793</ele>
        <time>2015-12-22T10:26:35.363Z</time>
      </trkpt>
      <trkpt lat="45.99232" lon="4.88119">
        <ele>274.5</ele>
        <time>2015-12-22T10:26:36.382Z</time>
      </trkpt>
      <trkpt lat="45.99237" lon="4.88124">
        <ele>274.600006104</ele>
        <time>2015-12-22T10:26:37.396Z</time>
      </trkpt>
      <trkpt lat="45.99242" lon="4.88128">
        <ele>274.700012207</ele>
        <time>2015-12-22T10:26:38.381Z</time>
      </trkpt>
      <trkpt lat="45.99246" lon="4.88132">
        <ele>274.700012207</ele>
        <time>2015-12-22T10:26:39.365Z</time>
      </trkpt>
      <trkpt lat="45.99251" lon="4.88136">
        <ele>274.899993896</ele>
        <time>2015-12-22T10:26:40.381Z</time>
      </trkpt>
      <trkpt lat="45.99255" lon="4.8814">
        <ele>275.100006104</ele>
        <time>2015-12-22T10:26:41.363Z</time>
      </trkpt>
      <trkpt lat="45.9926" lon="4.88144">
        <ele>275.100006104</ele>
        <time>2015-12-22T10:26:42.382Z</time>
      </trkpt>
      <trkpt lat="45.99264" lon="4.88147">
        <ele>275.200012207</ele>
        <time>2015-12-22T10:26:43.368Z</time>
      </trkpt>
      <trkpt lat="45.99269" lon="4.88151">
        <ele>275.200012207</ele>
        <time>2015-12-22T10:26:44.405Z</time>
      </trkpt>
      <trkpt lat="45.99273" lon="4.88155">
        <ele>275.399993896</ele>
        <time>2015-12-22T10:26:45.363Z</time>
      </trkpt>
      <trkpt lat="45.99278" lon="4.88158">
        <ele>275.399993896</ele>
        <time>2015-12-22T10:26:46.382Z</time>
      </trkpt>
      <trkpt lat="45.99282" lon="4.88163">
        <ele>275.5</ele>
        <time>2015-12-22T10:26:47.389Z</time>
      </trkpt>
      <trkpt lat="45.99286" lon="4.88167">
        <ele>275.600006104</ele>
        <time>2015-12-22T10:26:48.385Z</time>
      </trkpt>
      <trkpt lat="45.99291" lon="4.88171">
        <ele>275.700012207</ele>
        <time>2015-12-22T10:26:49.371Z</time>
      </trkpt>
      <trkpt lat="45.99296" lon="4.88176">
        <ele>275.899993896</ele>
        <time>2015-12-22T10:26:50.381Z</time>
      </trkpt>
      <trkpt lat="45.99301" lon="4.8818">
        <ele>276.100006104</ele>
        <time>2015-12-22T10:26:51.364Z</time>
      </trkpt>
      <trkpt lat="45.99306" lon="4.88185">
        <ele>276.200012207</ele>
        <time>2015-12-22T10:26:52.383Z</time>
      </trkpt>
      <trkpt lat="45.99311" lon="4.88189">
        <ele>276.200012207</ele>
        <time>2015-12-22T10:26:53.364Z</time>
      </trkpt>
      <trkpt lat="45.99316" lon="4.88194">
        <ele>276.100006104</ele>
        <time>2015-12-22T10:26:54.436Z</time>
      </trkpt>
      <trkpt lat="45.99321" lon="4.88198">
        <ele>276.100006104</ele>
        <time>2015-12-22T10:26:55.367Z</time>
      </trkpt>
      <trkpt lat="45.99325" lon="4.88202">
        <ele>276</ele>
        <time>2015-12-22T10:26:56.381Z</time>
      </trkpt>
      <trkpt lat="45.9933" lon="4.88206">
        <ele>276.299987793</ele>
        <time>2015-12-22T10:26:57.385Z</time>
      </trkpt>
      <trkpt lat="45.99334" lon="4.88211">
        <ele>276.200012207</ele>
        <time>2015-12-22T10:26:58.381Z</time>
      </trkpt>
      <trkpt lat="45.99339" lon="4.88215">
        <ele>277</ele>
        <time>2015-12-22T10:26:59.362Z</time>
      </trkpt>
      <trkpt lat="45.99343" lon="4.88219">
        <ele>277</ele>
        <time>2015-12-22T10:27:00.4Z</time>
      </trkpt>
      <trkpt lat="45.99348" lon="4.88224">
        <ele>276.600006104</ele>
        <time>2015-12-22T10:27:01.388Z</time>
      </trkpt>
      <trkpt lat="45.99353" lon="4.88228">
        <ele>276.5</ele>
        <time>2015-12-22T10:27:02.381Z</time>
      </trkpt>
      <trkpt lat="45.99357" lon="4.88232">
        <ele>276.5</ele>
        <time>2015-12-22T10:27:03.367Z</time>
      </trkpt>
      <trkpt lat="45.99362" lon="4.88238">
        <ele>276.700012207</ele>
        <time>2015-12-22T10:27:04.381Z</time>
      </trkpt>
      <trkpt lat="45.99367" lon="4.88243">
        <ele>276.700012207</ele>
        <time>2015-12-22T10:27:05.364Z</time>
      </trkpt>
      <trkpt lat="45.99372" lon="4.88248">
        <ele>276.700012207</ele>
        <time>2015-12-22T10:27:06.387Z</time>
      </trkpt>
      <trkpt lat="45.99376" lon="4.88254">
        <ele>276.600006104</ele>
        <time>2015-12-22T10:27:07.388Z</time>
      </trkpt>
      <trkpt lat="45.9938" lon="4.88261">
        <ele>276.600006104</ele>
        <time>2015-12-22T10:27:08.381Z</time>
      </trkpt>
      <trkpt lat="45.99383" lon="4.88268">
        <ele>276.700012207</ele>
        <time>2015-12-22T10:27:09.364Z</time>
      </trkpt>
      <trkpt lat="45.99387" lon="4.88276">
        <ele>276.799987793</ele>
        <time>2015-12-22T10:27:10.382Z</time>
      </trkpt>
      <trkpt lat="45.9939" lon="4.88284">
        <ele>276.700012207</ele>
        <time>2015-12-22T10:27:11.364Z</time>
      </trkpt>
      <trkpt lat="45.99393" lon="4.88291">
        <ele>276.899993896</ele>
        <time>2015-12-22T10:27:12.382Z</time>
      </trkpt>
      <trkpt lat="45.99396" lon="4.88298">
        <ele>277.299987793</ele>
        <time>2015-12-22T10:27:13.367Z</time>
      </trkpt>
      <trkpt lat="45.99399" lon="4.88305">
        <ele>277.5</ele>
        <time>2015-12-22T10:27:14.384Z</time>
      </trkpt>
      <trkpt lat="45.99401" lon="4.88312">
        <ele>277.899993896</ele>
        <time>2015-12-22T10:27:15.368Z</time>
      </trkpt>
      <trkpt lat="45.99404" lon="4.8832">
        <ele>278</ele>
        <time>2015-12-22T10:27:16.382Z</time>
      </trkpt>
      <trkpt lat="45.99407" lon="4.88327">
        <ele>278.399993896</ele>
        <time>2015-12-22T10:27:17.376Z</time>
      </trkpt>
      <trkpt lat="45.99409" lon="4.88334">
        <ele>279</ele>
        <time>2015-12-22T10:27:18.382Z</time>
      </trkpt>
      <trkpt lat="45.99412" lon="4.88342">
        <ele>279.100006104</ele>
        <time>2015-12-22T10:27:19.367Z</time>
      </trkpt>
      <trkpt lat="45.99415" lon="4.88349">
        <ele>279.299987793</ele>
        <time>2015-12-22T10:27:20.381Z</time>
      </trkpt>
      <trkpt lat="45.99418" lon="4.88357">
        <ele>279.600006104</ele>
        <time>2015-12-22T10:27:21.364Z</time>
      </trkpt>
      <trkpt lat="45.9942" lon="4.88365">
        <ele>280.600006104</ele>
        <time>2015-12-22T10:27:22.604Z</time>
      </trkpt>
      <trkpt lat="45.99423" lon="4.88372">
        <ele>281</ele>
        <time>2015-12-22T10:27:23.363Z</time>
      </trkpt>
      <trkpt lat="45.99426" lon="4.8838">
        <ele>280.899993896</ele>
        <time>2015-12-22T10:27:24.381Z</time>
      </trkpt>
      <trkpt lat="45.99429" lon="4.88387">
        <ele>281</ele>
        <time>2015-12-22T10:27:25.367Z</time>
      </trkpt>
      <trkpt lat="45.99432" lon="4.88395">
        <ele>281.100006104</ele>
        <time>2015-12-22T10:27:26.396Z</time>
      </trkpt>
      <trkpt lat="45.99437" lon="4.88401">
        <ele>280.399993896</ele>
        <time>2015-12-22T10:27:27.38Z</time>
      </trkpt>
      <trkpt lat="45.99441" lon="4.88407">
        <ele>280</ele>
        <time>2015-12-22T10:27:28.382Z</time>
      </trkpt>
      <trkpt lat="45.99447" lon="4.88412">
        <ele>279.700012207</ele>
        <time>2015-12-22T10:27:29.364Z</time>
      </trkpt>
      <trkpt lat="45.99452" lon="4.88417">
        <ele>279.600006104</ele>
        <time>2015-12-22T10:27:30.382Z</time>
      </trkpt>
      <trkpt lat="45.99457" lon="4.88422">
        <ele>279.100006104</ele>
        <time>2015-12-22T10:27:31.368Z</time>
      </trkpt>
      <trkpt lat="45.99463" lon="4.88427">
        <ele>278.899993896</ele>
        <time>2015-12-22T10:27:32.381Z</time>
      </trkpt>
      <trkpt lat="45.99468" lon="4.88432">
        <ele>278.700012207</ele>
        <time>2015-12-22T10:27:33.364Z</time>
      </trkpt>
      <trkpt lat="45.99473" lon="4.88437">
        <ele>278.5</ele>
        <time>2015-12-22T10:27:34.518Z</time>
      </trkpt>
      <trkpt lat="45.99477" lon="4.88443">
        <ele>278.399993896</ele>
        <time>2015-12-22T10:27:35.362Z</time>
      </trkpt>
      <trkpt lat="45.99482" lon="4.8845">
        <ele>278.299987793</ele>
        <time>2015-12-22T10:27:36.382Z</time>
      </trkpt>
      <trkpt lat="45.99486" lon="4.88456">
        <ele>278.5</ele>
        <time>2015-12-22T10:27:37.379Z</time>
      </trkpt>
      <trkpt lat="45.9949" lon="4.88464">
        <ele>278.5</ele>
        <time>2015-12-22T10:27:38.43Z</time>
      </trkpt>
      <trkpt lat="45.99493" lon="4.88471">
        <ele>278.600006104</ele>
        <time>2015-12-22T10:27:39.394Z</time>
      </trkpt>
      <trkpt lat="45.99497" lon="4.88478">
        <ele>278.600006104</ele>
        <time>2015-12-22T10:27:40.386Z</time>
      </trkpt>
      <trkpt lat="45.99501" lon="4.88485">
        <ele>278.5</ele>
        <time>2015-12-22T10:27:41.362Z</time>
      </trkpt>
      <trkpt lat="45.99505" lon="4.88492">
        <ele>278.399993896</ele>
        <time>2015-12-22T10:27:42.396Z</time>
      </trkpt>
      <trkpt lat="45.99508" lon="4.885">
        <ele>278.299987793</ele>
        <time>2015-12-22T10:27:43.367Z</time>
      </trkpt>
      <trkpt lat="45.99512" lon="4.88507">
        <ele>278.200012207</ele>
        <time>2015-12-22T10:27:44.391Z</time>
      </trkpt>
      <trkpt lat="45.99516" lon="4.88515">
        <ele>278.100006104</ele>
        <time>2015-12-22T10:27:45.387Z</time>
      </trkpt>
      <trkpt lat="45.9952" lon="4.88523">
        <ele>277.799987793</ele>
        <time>2015-12-22T10:27:46.382Z</time>
      </trkpt>
      <trkpt lat="45.99524" lon="4.8853">
        <ele>277.600006104</ele>
        <time>2015-12-22T10:27:47.369Z</time>
      </trkpt>
      <trkpt lat="45.99527" lon="4.88538">
        <ele>278.399993896</ele>
        <time>2015-12-22T10:27:48.382Z</time>
      </trkpt>
      <trkpt lat="45.99531" lon="4.88546">
        <ele>278.5</ele>
        <time>2015-12-22T10:27:49.372Z</time>
      </trkpt>
      <trkpt lat="45.99534" lon="4.88554">
        <ele>278.700012207</ele>
        <time>2015-12-22T10:27:50.389Z</time>
      </trkpt>
      <trkpt lat="45.99537" lon="4.88562">
        <ele>279</ele>
        <time>2015-12-22T10:27:51.365Z</time>
      </trkpt>
      <trkpt lat="45.9954" lon="4.8857">
        <ele>279.100006104</ele>
        <time>2015-12-22T10:27:52.381Z</time>
      </trkpt>
      <trkpt lat="45.99542" lon="4.88577">
        <ele>279.299987793</ele>
        <time>2015-12-22T10:27:53.362Z</time>
      </trkpt>
      <trkpt lat="45.99544" lon="4.88585">
        <ele>279.5</ele>
        <time>2015-12-22T10:27:54.383Z</time>
      </trkpt>
      <trkpt lat="45.99546" lon="4.88593">
        <ele>279.700012207</ele>
        <time>2015-12-22T10:27:55.367Z</time>
      </trkpt>
      <trkpt lat="45.99547" lon="4.88601">
        <ele>279.899993896</ele>
        <time>2015-12-22T10:27:56.382Z</time>
      </trkpt>
      <trkpt lat="45.99548" lon="4.8861">
        <ele>280.100006104</ele>
        <time>2015-12-22T10:27:57.366Z</time>
      </trkpt>
      <trkpt lat="45.9955" lon="4.88619">
        <ele>280.399993896</ele>
        <time>2015-12-22T10:27:58.396Z</time>
      </trkpt>
      <trkpt lat="45.99551" lon="4.88627">
        <ele>280.700012207</ele>
        <time>2015-12-22T10:27:59.364Z</time>
      </trkpt>
      <trkpt lat="45.99551" lon="4.88636">
        <ele>281</ele>
        <time>2015-12-22T10:28:00.381Z</time>
      </trkpt>
      <trkpt lat="45.99552" lon="4.88644">
        <ele>281.399993896</ele>
        <time>2015-12-22T10:28:01.367Z</time>
      </trkpt>
      <trkpt lat="45.99553" lon="4.88652">
        <ele>281.700012207</ele>
        <time>2015-12-22T10:28:02.381Z</time>
      </trkpt>
      <trkpt lat="45.99554" lon="4.8866">
        <ele>282.200012207</ele>
        <time>2015-12-22T10:28:03.364Z</time>
      </trkpt>
      <trkpt lat="45.99554" lon="4.88667">
        <ele>282.399993896</ele>
        <time>2015-12-22T10:28:04.381Z</time>
      </trkpt>
      <trkpt lat="45.99555" lon="4.88675">
        <ele>282.700012207</ele>
        <time>2015-12-22T10:28:05.362Z</time>
      </trkpt>
      <trkpt lat="45.99555" lon="4.88683">
        <ele>283.200012207</ele>
        <time>2015-12-22T10:28:06.384Z</time>
      </trkpt>
      <trkpt lat="45.99556" lon="4.8869">
        <ele>283.299987793</ele>
        <time>2015-12-22T10:28:07.375Z</time>
      </trkpt>
      <trkpt lat="45.99557" lon="4.88699">
        <ele>283.299987793</ele>
        <time>2015-12-22T10:28:08.381Z</time>
      </trkpt>
      <trkpt lat="45.99557" lon="4.88707">
        <ele>283.399993896</ele>
        <time>2015-12-22T10:28:09.364Z</time>
      </trkpt>
      <trkpt lat="45.99558" lon="4.88715">
        <ele>283.799987793</ele>
        <time>2015-12-22T10:28:10.382Z</time>
      </trkpt>
      <trkpt lat="45.99558" lon="4.88723">
        <ele>283.799987793</ele>
        <time>2015-12-22T10:28:11.363Z</time>
      </trkpt>
      <trkpt lat="45.99559" lon="4.8873">
        <ele>284.299987793</ele>
        <time>2015-12-22T10:28:12.382Z</time>
      </trkpt>
      <trkpt lat="45.9956" lon="4.88738">
        <ele>284.299987793</ele>
        <time>2015-12-22T10:28:13.366Z</time>
      </trkpt>
      <trkpt lat="45.99561" lon="4.88747">
        <ele>284.299987793</ele>
        <time>2015-12-22T10:28:14.382Z</time>
      </trkpt>
      <trkpt lat="45.99562" lon="4.88755">
        <ele>284.399993896</ele>
        <time>2015-12-22T10:28:15.363Z</time>
      </trkpt>
      <trkpt lat="45.99562" lon="4.88763">
        <ele>284.200012207</ele>
        <time>2015-12-22T10:28:16.381Z</time>
      </trkpt>
      <trkpt lat="45.99563" lon="4.88772">
        <ele>284.399993896</ele>
        <time>2015-12-22T10:28:17.362Z</time>
      </trkpt>
      <trkpt lat="45.99563" lon="4.88781">
        <ele>284.799987793</ele>
        <time>2015-12-22T10:28:18.381Z</time>
      </trkpt>
      <trkpt lat="45.99564" lon="4.88789">
        <ele>285</ele>
        <time>2015-12-22T10:28:19.367Z</time>
      </trkpt>
      <trkpt lat="45.99565" lon="4.88797">
        <ele>285.200012207</ele>
        <time>2015-12-22T10:28:20.381Z</time>
      </trkpt>
      <trkpt lat="45.99566" lon="4.88806">
        <ele>285.200012207</ele>
        <time>2015-12-22T10:28:21.363Z</time>
      </trkpt>
      <trkpt lat="45.99566" lon="4.88814">
        <ele>285.399993896</ele>
        <time>2015-12-22T10:28:22.393Z</time>
      </trkpt>
      <trkpt lat="45.99567" lon="4.88823">
        <ele>285.299987793</ele>
        <time>2015-12-22T10:28:23.362Z</time>
      </trkpt>
      <trkpt lat="45.99568" lon="4.88831">
        <ele>285.100006104</ele>
        <time>2015-12-22T10:28:24.395Z</time>
      </trkpt>
      <trkpt lat="45.99569" lon="4.8884">
        <ele>285.399993896</ele>
        <time>2015-12-22T10:28:25.367Z</time>
      </trkpt>
      <trkpt lat="45.99569" lon="4.88849">
        <ele>285.799987793</ele>
        <time>2015-12-22T10:28:26.381Z</time>
      </trkpt>
      <trkpt lat="45.9957" lon="4.88858">
        <ele>286</ele>
        <time>2015-12-22T10:28:27.363Z</time>
      </trkpt>
      <trkpt lat="45.99571" lon="4.88867">
        <ele>286</ele>
        <time>2015-12-22T10:28:28.381Z</time>
      </trkpt>
      <trkpt lat="45.99572" lon="4.88875">
        <ele>286</ele>
        <time>2015-12-22T10:28:29.362Z</time>
      </trkpt>
      <trkpt lat="45.99573" lon="4.88884">
        <ele>285.899993896</ele>
        <time>2015-12-22T10:28:30.381Z</time>
      </trkpt>
      <trkpt lat="45.99573" lon="4.88892">
        <ele>285.600006104</ele>
        <time>2015-12-22T10:28:31.367Z</time>
      </trkpt>
      <trkpt lat="45.99574" lon="4.889">
        <ele>285.600006104</ele>
        <time>2015-12-22T10:28:32.442Z</time>
      </trkpt>
      <trkpt lat="45.99575" lon="4.88908">
        <ele>285.799987793</ele>
        <time>2015-12-22T10:28:33.364Z</time>
      </trkpt>
      <trkpt lat="45.99575" lon="4.88916">
        <ele>285.899993896</ele>
        <time>2015-12-22T10:28:34.383Z</time>
      </trkpt>
      <trkpt lat="45.99576" lon="4.88923">
        <ele>286.5</ele>
        <time>2015-12-22T10:28:35.364Z</time>
      </trkpt>
      <trkpt lat="45.99577" lon="4.88931">
        <ele>286.700012207</ele>
        <time>2015-12-22T10:28:36.382Z</time>
      </trkpt>
      <trkpt lat="45.99577" lon="4.88939">
        <ele>287.5</ele>
        <time>2015-12-22T10:28:37.368Z</time>
      </trkpt>
      <trkpt lat="45.99577" lon="4.88947">
        <ele>288.299987793</ele>
        <time>2015-12-22T10:28:38.381Z</time>
      </trkpt>
      <trkpt lat="45.99578" lon="4.88954">
        <ele>288.600006104</ele>
        <time>2015-12-22T10:28:39.364Z</time>
      </trkpt>
      <trkpt lat="45.99578" lon="4.88962">
        <ele>289.200012207</ele>
        <time>2015-12-22T10:28:40.382Z</time>
      </trkpt>
      <trkpt lat="45.99579" lon="4.8897">
        <ele>289.600006104</ele>
        <time>2015-12-22T10:28:41.363Z</time>
      </trkpt>
      <trkpt lat="45.9958" lon="4.88978">
        <ele>289.799987793</ele>
        <time>2015-12-22T10:28:42.382Z</time>
      </trkpt>
      <trkpt lat="45.9958" lon="4.88985">
        <ele>290.299987793</ele>
        <time>2015-12-22T10:28:43.368Z</time>
      </trkpt>
      <trkpt lat="45.9958" lon="4.88992">
        <ele>290.799987793</ele>
        <time>2015-12-22T10:28:44.381Z</time>
      </trkpt>
      <trkpt lat="45.99581" lon="4.89001">
        <ele>290.899993896</ele>
        <time>2015-12-22T10:28:45.364Z</time>
      </trkpt>
      <trkpt lat="45.9958" lon="4.89009">
        <ele>291.299987793</ele>
        <time>2015-12-22T10:28:46.381Z</time>
      </trkpt>
      <trkpt lat="45.9958" lon="4.89017">
        <ele>291.299987793</ele>
        <time>2015-12-22T10:28:47.363Z</time>
      </trkpt>
      <trkpt lat="45.9958" lon="4.89025">
        <ele>291.200012207</ele>
        <time>2015-12-22T10:28:48.381Z</time>
      </trkpt>
      <trkpt lat="45.9958" lon="4.89033">
        <ele>291.200012207</ele>
        <time>2015-12-22T10:28:49.37Z</time>
      </trkpt>
      <trkpt lat="45.99579" lon="4.8904">
        <ele>291.399993896</ele>
        <time>2015-12-22T10:28:50.395Z</time>
      </trkpt>
      <trkpt lat="45.99578" lon="4.89048">
        <ele>291.5</ele>
        <time>2015-12-22T10:28:51.363Z</time>
      </trkpt>
      <trkpt lat="45.99578" lon="4.89055">
        <ele>291.700012207</ele>
        <time>2015-12-22T10:28:52.38Z</time>
      </trkpt>
      <trkpt lat="45.99577" lon="4.89063">
        <ele>292</ele>
        <time>2015-12-22T10:28:53.362Z</time>
      </trkpt>
      <trkpt lat="45.99576" lon="4.8907">
        <ele>292.399993896</ele>
        <time>2015-12-22T10:28:54.397Z</time>
      </trkpt>
      <trkpt lat="45.99575" lon="4.89077">
        <ele>292.799987793</ele>
        <time>2015-12-22T10:28:55.367Z</time>
      </trkpt>
      <trkpt lat="45.99574" lon="4.89084">
        <ele>293.299987793</ele>
        <time>2015-12-22T10:28:56.382Z</time>
      </trkpt>
      <trkpt lat="45.99573" lon="4.89091">
        <ele>293.899993896</ele>
        <time>2015-12-22T10:28:57.365Z</time>
      </trkpt>
      <trkpt lat="45.99572" lon="4.89098">
        <ele>294.200012207</ele>
        <time>2015-12-22T10:28:58.385Z</time>
      </trkpt>
      <trkpt lat="45.99572" lon="4.89106">
        <ele>294.399993896</ele>
        <time>2015-12-22T10:28:59.363Z</time>
      </trkpt>
      <trkpt lat="45.99571" lon="4.89114">
        <ele>294.5</ele>
        <time>2015-12-22T10:29:00.382Z</time>
      </trkpt>
      <trkpt lat="45.99572" lon="4.89123">
        <ele>293.899993896</ele>
        <time>2015-12-22T10:29:01.366Z</time>
      </trkpt>
      <trkpt lat="45.99572" lon="4.8913">
        <ele>294.200012207</ele>
        <time>2015-12-22T10:29:02.381Z</time>
      </trkpt>
      <trkpt lat="45.99572" lon="4.89137">
        <ele>294.299987793</ele>
        <time>2015-12-22T10:29:03.367Z</time>
      </trkpt>
      <trkpt lat="45.99573" lon="4.89145">
        <ele>294.399993896</ele>
        <time>2015-12-22T10:29:04.382Z</time>
      </trkpt>
      <trkpt lat="45.99573" lon="4.89152">
        <ele>294.700012207</ele>
        <time>2015-12-22T10:29:05.362Z</time>
      </trkpt>
      <trkpt lat="45.99573" lon="4.8916">
        <ele>294.799987793</ele>
        <time>2015-12-22T10:29:06.43Z</time>
      </trkpt>
      <trkpt lat="45.99574" lon="4.89167">
        <ele>294.899993896</ele>
        <time>2015-12-22T10:29:07.367Z</time>
      </trkpt>
      <trkpt lat="45.99573" lon="4.89175">
        <ele>295</ele>
        <time>2015-12-22T10:29:08.381Z</time>
      </trkpt>
      <trkpt lat="45.99574" lon="4.89183">
        <ele>295.100006104</ele>
        <time>2015-12-22T10:29:09.363Z</time>
      </trkpt>
      <trkpt lat="45.99575" lon="4.89192">
        <ele>294.700012207</ele>
        <time>2015-12-22T10:29:10.381Z</time>
      </trkpt>
      <trkpt lat="45.99575" lon="4.892">
        <ele>294.399993896</ele>
        <time>2015-12-22T10:29:11.363Z</time>
      </trkpt>
      <trkpt lat="45.99576" lon="4.89208">
        <ele>294.5</ele>
        <time>2015-12-22T10:29:12.382Z</time>
      </trkpt>
      <trkpt lat="45.99577" lon="4.89217">
        <ele>294.5</ele>
        <time>2015-12-22T10:29:13.367Z</time>
      </trkpt>
      <trkpt lat="45.99577" lon="4.89225">
        <ele>294.5</ele>
        <time>2015-12-22T10:29:14.403Z</time>
      </trkpt>
      <trkpt lat="45.99577" lon="4.89233">
        <ele>294.5</ele>
        <time>2015-12-22T10:29:15.363Z</time>
      </trkpt>
      <trkpt lat="45.99577" lon="4.89242">
        <ele>294.600006104</ele>
        <time>2015-12-22T10:29:16.427Z</time>
      </trkpt>
      <trkpt lat="45.99577" lon="4.8925">
        <ele>294.600006104</ele>
        <time>2015-12-22T10:29:17.362Z</time>
      </trkpt>
      <trkpt lat="45.99578" lon="4.89259">
        <ele>294.600006104</ele>
        <time>2015-12-22T10:29:18.382Z</time>
      </trkpt>
      <trkpt lat="45.99579" lon="4.89267">
        <ele>294.700012207</ele>
        <time>2015-12-22T10:29:19.366Z</time>
      </trkpt>
      <trkpt lat="45.9958" lon="4.89274">
        <ele>294.799987793</ele>
        <time>2015-12-22T10:29:20.38Z</time>
      </trkpt>
      <trkpt lat="45.9958" lon="4.89282">
        <ele>294.799987793</ele>
        <time>2015-12-22T10:29:21.363Z</time>
      </trkpt>
      <trkpt lat="45.9958" lon="4.89289">
        <ele>295</ele>
        <time>2015-12-22T10:29:22.421Z</time>
      </trkpt>
      <trkpt lat="45.9958" lon="4.89297">
        <ele>295</ele>
        <time>2015-12-22T10:29:23.362Z</time>
      </trkpt>
      <trkpt lat="45.99581" lon="4.89304">
        <ele>295</ele>
        <time>2015-12-22T10:29:24.384Z</time>
      </trkpt>
      <trkpt lat="45.99581" lon="4.89312">
        <ele>295.299987793</ele>
        <time>2015-12-22T10:29:25.367Z</time>
      </trkpt>
      <trkpt lat="45.99581" lon="4.89319">
        <ele>295.200012207</ele>
        <time>2015-12-22T10:29:26.381Z</time>
      </trkpt>
      <trkpt lat="45.99582" lon="4.89326">
        <ele>295</ele>
        <time>2015-12-22T10:29:27.363Z</time>
      </trkpt>
      <trkpt lat="45.99583" lon="4.89334">
        <ele>294.700012207</ele>
        <time>2015-12-22T10:29:28.417Z</time>
      </trkpt>
      <trkpt lat="45.99583" lon="4.89342">
        <ele>294.799987793</ele>
        <time>2015-12-22T10:29:29.362Z</time>
      </trkpt>
      <trkpt lat="45.99584" lon="4.8935">
        <ele>294.600006104</ele>
        <time>2015-12-22T10:29:30.502Z</time>
      </trkpt>
      <trkpt lat="45.99585" lon="4.89358">
        <ele>294.200012207</ele>
        <time>2015-12-22T10:29:31.367Z</time>
      </trkpt>
      <trkpt lat="45.99586" lon="4.89365">
        <ele>294.100006104</ele>
        <time>2015-12-22T10:29:32.381Z</time>
      </trkpt>
      <trkpt lat="45.99586" lon="4.89373">
        <ele>294.100006104</ele>
        <time>2015-12-22T10:29:33.362Z</time>
      </trkpt>
      <trkpt lat="45.99587" lon="4.89381">
        <ele>293.899993896</ele>
        <time>2015-12-22T10:29:34.381Z</time>
      </trkpt>
      <trkpt lat="45.99587" lon="4.89389">
        <ele>293.600006104</ele>
        <time>2015-12-22T10:29:35.362Z</time>
      </trkpt>
      <trkpt lat="45.99588" lon="4.89397">
        <ele>293.5</ele>
        <time>2015-12-22T10:29:36.38Z</time>
      </trkpt>
      <trkpt lat="45.99588" lon="4.89405">
        <ele>293.600006104</ele>
        <time>2015-12-22T10:29:37.366Z</time>
      </trkpt>
      <trkpt lat="45.99589" lon="4.89412">
        <ele>293.299987793</ele>
        <time>2015-12-22T10:29:38.401Z</time>
      </trkpt>
      <trkpt lat="45.99589" lon="4.8942">
        <ele>293</ele>
        <time>2015-12-22T10:29:39.362Z</time>
      </trkpt>
      <trkpt lat="45.9959" lon="4.89427">
        <ele>292.899993896</ele>
        <time>2015-12-22T10:29:40.379Z</time>
      </trkpt>
      <trkpt lat="45.9959" lon="4.89434">
        <ele>292.200012207</ele>
        <time>2015-12-22T10:29:41.362Z</time>
      </trkpt>
      <trkpt lat="45.99591" lon="4.89441">
        <ele>291.799987793</ele>
        <time>2015-12-22T10:29:42.38Z</time>
      </trkpt>
      <trkpt lat="45.99591" lon="4.89448">
        <ele>291.600006104</ele>
        <time>2015-12-22T10:29:43.367Z</time>
      </trkpt>
      <trkpt lat="45.99592" lon="4.89455">
        <ele>291.700012207</ele>
        <time>2015-12-22T10:29:44.381Z</time>
      </trkpt>
      <trkpt lat="45.99592" lon="4.89462">
        <ele>291.700012207</ele>
        <time>2015-12-22T10:29:45.362Z</time>
      </trkpt>
      <trkpt lat="45.99593" lon="4.8947">
        <ele>291.299987793</ele>
        <time>2015-12-22T10:29:46.381Z</time>
      </trkpt>
      <trkpt lat="45.99593" lon="4.89476">
        <ele>291.200012207</ele>
        <time>2015-12-22T10:29:47.361Z</time>
      </trkpt>
      <trkpt lat="45.99593" lon="4.89484">
        <ele>290.799987793</ele>
        <time>2015-12-22T10:29:48.401Z</time>
      </trkpt>
      <trkpt lat="45.99594" lon="4.89491">
        <ele>289.700012207</ele>
        <time>2015-12-22T10:29:49.368Z</time>
      </trkpt>
      <trkpt lat="45.99594" lon="4.89499">
        <ele>289.5</ele>
        <time>2015-12-22T10:29:50.417Z</time>
      </trkpt>
      <trkpt lat="45.99595" lon="4.89507">
        <ele>289.600006104</ele>
        <time>2015-12-22T10:29:51.362Z</time>
      </trkpt>
      <trkpt lat="45.99595" lon="4.89515">
        <ele>289.600006104</ele>
        <time>2015-12-22T10:29:52.381Z</time>
      </trkpt>
      <trkpt lat="45.99595" lon="4.89523">
        <ele>289.399993896</ele>
        <time>2015-12-22T10:29:53.407Z</time>
      </trkpt>
      <trkpt lat="45.99595" lon="4.89531">
        <ele>289</ele>
        <time>2015-12-22T10:29:54.38Z</time>
      </trkpt>
      <trkpt lat="45.99596" lon="4.89538">
        <ele>288.700012207</ele>
        <time>2015-12-22T10:29:55.366Z</time>
      </trkpt>
      <trkpt lat="45.99596" lon="4.8955">
        <ele>289.600006104</ele>
        <time>2015-12-22T10:29:57.381Z</time>
      </trkpt>
      <trkpt lat="45.99597" lon="4.89556">
        <ele>289.600006104</ele>
        <time>2015-12-22T10:29:58.361Z</time>
      </trkpt>
      <trkpt lat="45.99598" lon="4.89567">
        <ele>289.100006104</ele>
        <time>2015-12-22T10:30:00.38Z</time>
      </trkpt>
      <trkpt lat="45.99599" lon="4.89573">
        <ele>289.200012207</ele>
        <time>2015-12-22T10:30:01.366Z</time>
      </trkpt>
      <trkpt lat="45.996" lon="4.89584">
        <ele>289.5</ele>
        <time>2015-12-22T10:30:03.38Z</time>
      </trkpt>
      <trkpt lat="45.99601" lon="4.8959">
        <ele>289.799987793</ele>
        <time>2015-12-22T10:30:04.378Z</time>
      </trkpt>
      <trkpt lat="45.99601" lon="4.89597">
        <ele>290.100006104</ele>
        <time>2015-12-22T10:30:05.394Z</time>
      </trkpt>
      <trkpt lat="45.99602" lon="4.89604">
        <ele>290.299987793</ele>
        <time>2015-12-22T10:30:06.361Z</time>
      </trkpt>
      <trkpt lat="45.99603" lon="4.8961">
        <ele>290.399993896</ele>
        <time>2015-12-22T10:30:07.386Z</time>
      </trkpt>
      <trkpt lat="45.99603" lon="4.89617">
        <ele>291</ele>
        <time>2015-12-22T10:30:08.362Z</time>
      </trkpt>
      <trkpt lat="45.99604" lon="4.89624">
        <ele>291.299987793</ele>
        <time>2015-12-22T10:30:09.387Z</time>
      </trkpt>
      <trkpt lat="45.99604" lon="4.89631">
        <ele>291.399993896</ele>
        <time>2015-12-22T10:30:10.361Z</time>
      </trkpt>
      <trkpt lat="45.99604" lon="4.89638">
        <ele>291.700012207</ele>
        <time>2015-12-22T10:30:11.388Z</time>
      </trkpt>
      <trkpt lat="45.99605" lon="4.89646">
        <ele>291.899993896</ele>
        <time>2015-12-22T10:30:12.399Z</time>
      </trkpt>
      <trkpt lat="45.99604" lon="4.89653">
        <ele>292.100006104</ele>
        <time>2015-12-22T10:30:13.384Z</time>
      </trkpt>
      <trkpt lat="45.99604" lon="4.89661">
        <ele>292.299987793</ele>
        <time>2015-12-22T10:30:14.36Z</time>
      </trkpt>
      <trkpt lat="45.99604" lon="4.89668">
        <ele>292.5</ele>
        <time>2015-12-22T10:30:15.382Z</time>
      </trkpt>
      <trkpt lat="45.99604" lon="4.89676">
        <ele>292.899993896</ele>
        <time>2015-12-22T10:30:16.365Z</time>
      </trkpt>
      <trkpt lat="45.99603" lon="4.89684">
        <ele>293.200012207</ele>
        <time>2015-12-22T10:30:17.382Z</time>
      </trkpt>
      <trkpt lat="45.99602" lon="4.89694">
        <ele>293.5</ele>
        <time>2015-12-22T10:30:18.362Z</time>
      </trkpt>
      <trkpt lat="45.99602" lon="4.89702">
        <ele>293.5</ele>
        <time>2015-12-22T10:30:19.386Z</time>
      </trkpt>
      <trkpt lat="45.99602" lon="4.89711">
        <ele>293.799987793</ele>
        <time>2015-12-22T10:30:20.361Z</time>
      </trkpt>
      <trkpt lat="45.99601" lon="4.89719">
        <ele>294.299987793</ele>
        <time>2015-12-22T10:30:21.381Z</time>
      </trkpt>
      <trkpt lat="45.99601" lon="4.89726">
        <ele>294.700012207</ele>
        <time>2015-12-22T10:30:22.362Z</time>
      </trkpt>
      <trkpt lat="45.99601" lon="4.89734">
        <ele>295.200012207</ele>
        <time>2015-12-22T10:30:23.385Z</time>
      </trkpt>
      <trkpt lat="45.99601" lon="4.89742">
        <ele>295.299987793</ele>
        <time>2015-12-22T10:30:24.362Z</time>
      </trkpt>
      <trkpt lat="45.99601" lon="4.89748">
        <ele>296</ele>
        <time>2015-12-22T10:30:25.399Z</time>
      </trkpt>
      <trkpt lat="45.996" lon="4.89755">
        <ele>296.600006104</ele>
        <time>2015-12-22T10:30:26.36Z</time>
      </trkpt>
      <trkpt lat="45.99599" lon="4.89762">
        <ele>297</ele>
        <time>2015-12-22T10:30:27.381Z</time>
      </trkpt>
      <trkpt lat="45.99599" lon="4.89769">
        <ele>297.399993896</ele>
        <time>2015-12-22T10:30:28.361Z</time>
      </trkpt>
      <trkpt lat="45.99599" lon="4.89776">
        <ele>298</ele>
        <time>2015-12-22T10:30:29.381Z</time>
      </trkpt>
      <trkpt lat="45.99599" lon="4.89783">
        <ele>298.5</ele>
        <time>2015-12-22T10:30:30.361Z</time>
      </trkpt>
      <trkpt lat="45.99599" lon="4.89791">
        <ele>298.700012207</ele>
        <time>2015-12-22T10:30:31.429Z</time>
      </trkpt>
      <trkpt lat="45.99599" lon="4.89799">
        <ele>298.700012207</ele>
        <time>2015-12-22T10:30:32.361Z</time>
      </trkpt>
      <trkpt lat="45.99599" lon="4.89807">
        <ele>298.700012207</ele>
        <time>2015-12-22T10:30:33.381Z</time>
      </trkpt>
      <trkpt lat="45.99598" lon="4.89814">
        <ele>298.799987793</ele>
        <time>2015-12-22T10:30:34.361Z</time>
      </trkpt>
      <trkpt lat="45.99598" lon="4.89821">
        <ele>299</ele>
        <time>2015-12-22T10:30:35.379Z</time>
      </trkpt>
      <trkpt lat="45.99598" lon="4.89828">
        <ele>299.399993896</ele>
        <time>2015-12-22T10:30:36.361Z</time>
      </trkpt>
      <trkpt lat="45.99597" lon="4.89835">
        <ele>299.700012207</ele>
        <time>2015-12-22T10:30:37.384Z</time>
      </trkpt>
      <trkpt lat="45.99597" lon="4.89842">
        <ele>300.100006104</ele>
        <time>2015-12-22T10:30:38.361Z</time>
      </trkpt>
      <trkpt lat="45.99597" lon="4.89849">
        <ele>300.5</ele>
        <time>2015-12-22T10:30:39.381Z</time>
      </trkpt>
      <trkpt lat="45.99597" lon="4.89857">
        <ele>300.5</ele>
        <time>2015-12-22T10:30:40.361Z</time>
      </trkpt>
      <trkpt lat="45.99597" lon="4.89865">
        <ele>300.600006104</ele>
        <time>2015-12-22T10:30:41.4Z</time>
      </trkpt>
      <trkpt lat="45.99597" lon="4.89873">
        <ele>300.600006104</ele>
        <time>2015-12-22T10:30:42.363Z</time>
      </trkpt>
      <trkpt lat="45.99597" lon="4.89881">
        <ele>300.600006104</ele>
        <time>2015-12-22T10:30:43.387Z</time>
      </trkpt>
      <trkpt lat="45.99597" lon="4.89889">
        <ele>300.299987793</ele>
        <time>2015-12-22T10:30:44.386Z</time>
      </trkpt>
      <trkpt lat="45.99596" lon="4.89898">
        <ele>300.399993896</ele>
        <time>2015-12-22T10:30:45.383Z</time>
      </trkpt>
      <trkpt lat="45.99596" lon="4.89906">
        <ele>300.399993896</ele>
        <time>2015-12-22T10:30:46.364Z</time>
      </trkpt>
      <trkpt lat="45.99597" lon="4.89913">
        <ele>300.299987793</ele>
        <time>2015-12-22T10:30:47.381Z</time>
      </trkpt>
      <trkpt lat="45.99597" lon="4.8992">
        <ele>300.399993896</ele>
        <time>2015-12-22T10:30:48.364Z</time>
      </trkpt>
      <trkpt lat="45.99597" lon="4.89928">
        <ele>300.399993896</ele>
        <time>2015-12-22T10:30:49.394Z</time>
      </trkpt>
      <trkpt lat="45.99598" lon="4.89935">
        <ele>300.399993896</ele>
        <time>2015-12-22T10:30:50.362Z</time>
      </trkpt>
      <trkpt lat="45.99598" lon="4.89943">
        <ele>300.399993896</ele>
        <time>2015-12-22T10:30:51.528Z</time>
      </trkpt>
      <trkpt lat="45.99598" lon="4.8995">
        <ele>300.700012207</ele>
        <time>2015-12-22T10:30:52.361Z</time>
      </trkpt>
      <trkpt lat="45.99598" lon="4.89957">
        <ele>301.100006104</ele>
        <time>2015-12-22T10:30:53.38Z</time>
      </trkpt>
      <trkpt lat="45.99598" lon="4.89964">
        <ele>301.5</ele>
        <time>2015-12-22T10:30:54.361Z</time>
      </trkpt>
      <trkpt lat="45.99598" lon="4.89971">
        <ele>301.899993896</ele>
        <time>2015-12-22T10:30:55.44Z</time>
      </trkpt>
      <trkpt lat="45.99599" lon="4.89978">
        <ele>302.200012207</ele>
        <time>2015-12-22T10:30:56.361Z</time>
      </trkpt>
      <trkpt lat="45.996" lon="4.89985">
        <ele>302.100006104</ele>
        <time>2015-12-22T10:30:57.38Z</time>
      </trkpt>
      <trkpt lat="45.99601" lon="4.89991">
        <ele>301.899993896</ele>
        <time>2015-12-22T10:30:58.362Z</time>
      </trkpt>
      <trkpt lat="45.99602" lon="4.89998">
        <ele>301.600006104</ele>
        <time>2015-12-22T10:30:59.381Z</time>
      </trkpt>
      <trkpt lat="45.99604" lon="4.90004">
        <ele>301.100006104</ele>
        <time>2015-12-22T10:31:00.361Z</time>
      </trkpt>
      <trkpt lat="45.99605" lon="4.9001">
        <ele>301</ele>
        <time>2015-12-22T10:31:01.384Z</time>
      </trkpt>
      <trkpt lat="45.99606" lon="4.90017">
        <ele>301</ele>
        <time>2015-12-22T10:31:02.362Z</time>
      </trkpt>
      <trkpt lat="45.99608" lon="4.90023">
        <ele>300.700012207</ele>
        <time>2015-12-22T10:31:03.383Z</time>
      </trkpt>
      <trkpt lat="45.9961" lon="4.9003">
        <ele>299.899993896</ele>
        <time>2015-12-22T10:31:04.361Z</time>
      </trkpt>
      <trkpt lat="45.99612" lon="4.90037">
        <ele>299.700012207</ele>
        <time>2015-12-22T10:31:05.38Z</time>
      </trkpt>
      <trkpt lat="45.99614" lon="4.90044">
        <ele>299.299987793</ele>
        <time>2015-12-22T10:31:06.361Z</time>
      </trkpt>
      <trkpt lat="45.99617" lon="4.9005">
        <ele>298.700012207</ele>
        <time>2015-12-22T10:31:07.385Z</time>
      </trkpt>
      <trkpt lat="45.99619" lon="4.90056">
        <ele>298.100006104</ele>
        <time>2015-12-22T10:31:08.365Z</time>
      </trkpt>
      <trkpt lat="45.99622" lon="4.90062">
        <ele>297.700012207</ele>
        <time>2015-12-22T10:31:09.382Z</time>
      </trkpt>
      <trkpt lat="45.99624" lon="4.90068">
        <ele>297.600006104</ele>
        <time>2015-12-22T10:31:10.361Z</time>
      </trkpt>
      <trkpt lat="45.99627" lon="4.90074">
        <ele>297.299987793</ele>
        <time>2015-12-22T10:31:11.385Z</time>
      </trkpt>
      <trkpt lat="45.9963" lon="4.9008">
        <ele>297.5</ele>
        <time>2015-12-22T10:31:12.377Z</time>
      </trkpt>
      <trkpt lat="45.99632" lon="4.90086">
        <ele>297.5</ele>
        <time>2015-12-22T10:31:13.382Z</time>
      </trkpt>
      <trkpt lat="45.99634" lon="4.90091">
        <ele>297.600006104</ele>
        <time>2015-12-22T10:31:14.361Z</time>
      </trkpt>
      <trkpt lat="45.99636" lon="4.90097">
        <ele>297.600006104</ele>
        <time>2015-12-22T10:31:15.382Z</time>
      </trkpt>
      <trkpt lat="45.99638" lon="4.90103">
        <ele>297.600006104</ele>
        <time>2015-12-22T10:31:16.361Z</time>
      </trkpt>
      <trkpt lat="45.99639" lon="4.9011">
        <ele>297.600006104</ele>
        <time>2015-12-22T10:31:17.463Z</time>
      </trkpt>
      <trkpt lat="45.9964" lon="4.90116">
        <ele>297.600006104</ele>
        <time>2015-12-22T10:31:18.362Z</time>
      </trkpt>
      <trkpt lat="45.99643" lon="4.90127">
        <ele>297.5</ele>
        <time>2015-12-22T10:31:20.394Z</time>
      </trkpt>
      <trkpt lat="45.99645" lon="4.90131">
        <ele>297.399993896</ele>
        <time>2015-12-22T10:31:21.363Z</time>
      </trkpt>
      <trkpt lat="45.99649" lon="4.90142">
        <ele>297.899993896</ele>
        <time>2015-12-22T10:31:23.381Z</time>
      </trkpt>
      <trkpt lat="45.9965" lon="4.90147">
        <ele>298.600006104</ele>
        <time>2015-12-22T10:31:24.36Z</time>
      </trkpt>
      <trkpt lat="45.99651" lon="4.90159">
        <ele>298.700012207</ele>
        <time>2015-12-22T10:31:26.38Z</time>
      </trkpt>
      <trkpt lat="45.99652" lon="4.90164">
        <ele>298.700012207</ele>
        <time>2015-12-22T10:31:27.362Z</time>
      </trkpt>
      <trkpt lat="45.99655" lon="4.90173">
        <ele>299.600006104</ele>
        <time>2015-12-22T10:31:29.402Z</time>
      </trkpt>
      <trkpt lat="45.99657" lon="4.90178">
        <ele>300</ele>
        <time>2015-12-22T10:31:30.361Z</time>
      </trkpt>
      <trkpt lat="45.99661" lon="4.90186">
        <ele>300.700012207</ele>
        <time>2015-12-22T10:31:32.381Z</time>
      </trkpt>
      <trkpt lat="45.99662" lon="4.90191">
        <ele>301.100006104</ele>
        <time>2015-12-22T10:31:33.363Z</time>
      </trkpt>
      <trkpt lat="45.99663" lon="4.902">
        <ele>302</ele>
        <time>2015-12-22T10:31:35.381Z</time>
      </trkpt>
      <trkpt lat="45.99664" lon="4.90204">
        <ele>302.700012207</ele>
        <time>2015-12-22T10:31:36.361Z</time>
      </trkpt>
      <trkpt lat="45.99666" lon="4.90213">
        <ele>303</ele>
        <time>2015-12-22T10:31:38.38Z</time>
      </trkpt>
      <trkpt lat="45.99668" lon="4.90217">
        <ele>302.799987793</ele>
        <time>2015-12-22T10:31:39.358Z</time>
      </trkpt>
      <trkpt lat="45.99671" lon="4.90225">
        <ele>302.899993896</ele>
        <time>2015-12-22T10:31:41.38Z</time>
      </trkpt>
      <trkpt lat="45.99672" lon="4.9023">
        <ele>302.700012207</ele>
        <time>2015-12-22T10:31:42.361Z</time>
      </trkpt>
      <trkpt lat="45.99674" lon="4.90239">
        <ele>303.200012207</ele>
        <time>2015-12-22T10:31:44.444Z</time>
      </trkpt>
      <trkpt lat="45.99674" lon="4.90244">
        <ele>303.399993896</ele>
        <time>2015-12-22T10:31:45.361Z</time>
      </trkpt>
      <trkpt lat="45.99675" lon="4.90254">
        <ele>303.700012207</ele>
        <time>2015-12-22T10:31:47.38Z</time>
      </trkpt>
      <trkpt lat="45.99675" lon="4.90258">
        <ele>303.799987793</ele>
        <time>2015-12-22T10:31:48.361Z</time>
      </trkpt>
      <trkpt lat="45.99674" lon="4.90268">
        <ele>304.600006104</ele>
        <time>2015-12-22T10:31:50.38Z</time>
      </trkpt>
      <trkpt lat="45.99673" lon="4.90273">
        <ele>304.700012207</ele>
        <time>2015-12-22T10:31:51.362Z</time>
      </trkpt>
      <trkpt lat="45.9967" lon="4.90283">
        <ele>305.100006104</ele>
        <time>2015-12-22T10:31:53.38Z</time>
      </trkpt>
      <trkpt lat="45.99669" lon="4.90289">
        <ele>304.899993896</ele>
        <time>2015-12-22T10:31:54.362Z</time>
      </trkpt>
      <trkpt lat="45.99667" lon="4.903">
        <ele>305</ele>
        <time>2015-12-22T10:31:56.381Z</time>
      </trkpt>
      <trkpt lat="45.99666" lon="4.90306">
        <ele>305.100006104</ele>
        <time>2015-12-22T10:31:57.363Z</time>
      </trkpt>
      <trkpt lat="45.99666" lon="4.90317">
        <ele>305.299987793</ele>
        <time>2015-12-22T10:32:00.4Z</time>
      </trkpt>
      <trkpt lat="45.99665" lon="4.9032">
        <ele>305.100006104</ele>
        <time>2015-12-22T10:32:01.366Z</time>
      </trkpt>
      <trkpt lat="45.99671" lon="4.90328">
        <ele>305.5</ele>
        <time>2015-12-22T10:32:05.381Z</time>
      </trkpt>
      <trkpt lat="45.99674" lon="4.90329">
        <ele>305.700012207</ele>
        <time>2015-12-22T10:32:06.362Z</time>
      </trkpt>
      <trkpt lat="45.9968" lon="4.9033">
        <ele>306.100006104</ele>
        <time>2015-12-22T10:32:08.381Z</time>
      </trkpt>
      <trkpt lat="45.99683" lon="4.9033">
        <ele>306.100006104</ele>
        <time>2015-12-22T10:32:09.365Z</time>
      </trkpt>
      <trkpt lat="45.99688" lon="4.9033">
        <ele>305.899993896</ele>
        <time>2015-12-22T10:32:10.426Z</time>
      </trkpt>
      <trkpt lat="45.99692" lon="4.90329">
        <ele>306</ele>
        <time>2015-12-22T10:32:11.36Z</time>
      </trkpt>
      <trkpt lat="45.99701" lon="4.90327">
        <ele>306</ele>
        <time>2015-12-22T10:32:13.532Z</time>
      </trkpt>
      <trkpt lat="45.99705" lon="4.90326">
        <ele>306.299987793</ele>
        <time>2015-12-22T10:32:14.385Z</time>
      </trkpt>
      <trkpt lat="45.9971" lon="4.90325">
        <ele>306.5</ele>
        <time>2015-12-22T10:32:15.381Z</time>
      </trkpt>
      <trkpt lat="45.99714" lon="4.90323">
        <ele>306.799987793</ele>
        <time>2015-12-22T10:32:16.362Z</time>
      </trkpt>
      <trkpt lat="45.99719" lon="4.90321">
        <ele>307</ele>
        <time>2015-12-22T10:32:17.379Z</time>
      </trkpt>
      <trkpt lat="45.99723" lon="4.90318">
        <ele>308.299987793</ele>
        <time>2015-12-22T10:32:18.361Z</time>
      </trkpt>
      <trkpt lat="45.99728" lon="4.90315">
        <ele>308.100006104</ele>
        <time>2015-12-22T10:32:19.39Z</time>
      </trkpt>
      <trkpt lat="45.99733" lon="4.90313">
        <ele>307.299987793</ele>
        <time>2015-12-22T10:32:20.361Z</time>
      </trkpt>
      <trkpt lat="45.99737" lon="4.90309">
        <ele>307.399993896</ele>
        <time>2015-12-22T10:32:21.381Z</time>
      </trkpt>
      <trkpt lat="45.99742" lon="4.90304">
        <ele>307.600006104</ele>
        <time>2015-12-22T10:32:22.361Z</time>
      </trkpt>
      <trkpt lat="45.99747" lon="4.903">
        <ele>307.799987793</ele>
        <time>2015-12-22T10:32:23.413Z</time>
      </trkpt>
      <trkpt lat="45.99751" lon="4.90296">
        <ele>307.899993896</ele>
        <time>2015-12-22T10:32:24.362Z</time>
      </trkpt>
      <trkpt lat="45.99756" lon="4.90292">
        <ele>308.200012207</ele>
        <time>2015-12-22T10:32:25.427Z</time>
      </trkpt>
      <trkpt lat="45.9976" lon="4.90288">
        <ele>308.299987793</ele>
        <time>2015-12-22T10:32:26.379Z</time>
      </trkpt>
      <trkpt lat="45.99764" lon="4.90283">
        <ele>308.5</ele>
        <time>2015-12-22T10:32:27.393Z</time>
      </trkpt>
      <trkpt lat="45.99769" lon="4.90279">
        <ele>308.299987793</ele>
        <time>2015-12-22T10:32:28.361Z</time>
      </trkpt>
      <trkpt lat="45.99774" lon="4.90276">
        <ele>307.700012207</ele>
        <time>2015-12-22T10:32:29.379Z</time>
      </trkpt>
      <trkpt lat="45.99778" lon="4.90271">
        <ele>307.100006104</ele>
        <time>2015-12-22T10:32:30.361Z</time>
      </trkpt>
      <trkpt lat="45.99781" lon="4.90266">
        <ele>306.799987793</ele>
        <time>2015-12-22T10:32:31.384Z</time>
      </trkpt>
      <trkpt lat="45.99786" lon="4.90262">
        <ele>306.399993896</ele>
        <time>2015-12-22T10:32:32.362Z</time>
      </trkpt>
      <trkpt lat="45.99791" lon="4.90258">
        <ele>306.100006104</ele>
        <time>2015-12-22T10:32:33.426Z</time>
      </trkpt>
      <trkpt lat="45.99795" lon="4.90253">
        <ele>305.899993896</ele>
        <time>2015-12-22T10:32:34.361Z</time>
      </trkpt>
      <trkpt lat="45.998" lon="4.90248">
        <ele>305.799987793</ele>
        <time>2015-12-22T10:32:35.381Z</time>
      </trkpt>
      <trkpt lat="45.99806" lon="4.90244">
        <ele>305.299987793</ele>
        <time>2015-12-22T10:32:36.362Z</time>
      </trkpt>
      <trkpt lat="45.99812" lon="4.90239">
        <ele>305.200012207</ele>
        <time>2015-12-22T10:32:37.384Z</time>
      </trkpt>
      <trkpt lat="45.99818" lon="4.90234">
        <ele>304.799987793</ele>
        <time>2015-12-22T10:32:38.362Z</time>
      </trkpt>
      <trkpt lat="45.99824" lon="4.90229">
        <ele>304.600006104</ele>
        <time>2015-12-22T10:32:39.381Z</time>
      </trkpt>
      <trkpt lat="45.99831" lon="4.90227">
        <ele>304.600006104</ele>
        <time>2015-12-22T10:32:40.362Z</time>
      </trkpt>
      <trkpt lat="45.99838" lon="4.90227">
        <ele>304.600006104</ele>
        <time>2015-12-22T10:32:41.38Z</time>
      </trkpt>
      <trkpt lat="45.99846" lon="4.90227">
        <ele>304.600006104</ele>
        <time>2015-12-22T10:32:42.419Z</time>
      </trkpt>
      <trkpt lat="45.99854" lon="4.90228">
        <ele>304.200012207</ele>
        <time>2015-12-22T10:32:43.385Z</time>
      </trkpt>
      <trkpt lat="45.99862" lon="4.90229">
        <ele>303.899993896</ele>
        <time>2015-12-22T10:32:44.362Z</time>
      </trkpt>
      <trkpt lat="45.99869" lon="4.9023">
        <ele>303.600006104</ele>
        <time>2015-12-22T10:32:45.396Z</time>
      </trkpt>
      <trkpt lat="45.99877" lon="4.90231">
        <ele>303.299987793</ele>
        <time>2015-12-22T10:32:46.36Z</time>
      </trkpt>
      <trkpt lat="45.99884" lon="4.90232">
        <ele>303</ele>
        <time>2015-12-22T10:32:47.38Z</time>
      </trkpt>
      <trkpt lat="45.99892" lon="4.90233">
        <ele>302.600006104</ele>
        <time>2015-12-22T10:32:48.361Z</time>
      </trkpt>
      <trkpt lat="45.999" lon="4.90233">
        <ele>302.899993896</ele>
        <time>2015-12-22T10:32:49.387Z</time>
      </trkpt>
      <trkpt lat="45.99908" lon="4.90233">
        <ele>302.600006104</ele>
        <time>2015-12-22T10:32:50.361Z</time>
      </trkpt>
      <trkpt lat="45.99917" lon="4.90233">
        <ele>302.200012207</ele>
        <time>2015-12-22T10:32:51.38Z</time>
      </trkpt>
      <trkpt lat="45.99925" lon="4.90233">
        <ele>301.399993896</ele>
        <time>2015-12-22T10:32:52.363Z</time>
      </trkpt>
      <trkpt lat="45.99934" lon="4.90233">
        <ele>300.700012207</ele>
        <time>2015-12-22T10:32:53.382Z</time>
      </trkpt>
      <trkpt lat="45.99942" lon="4.90233">
        <ele>299.899993896</ele>
        <time>2015-12-22T10:32:54.361Z</time>
      </trkpt>
      <trkpt lat="45.99951" lon="4.90233">
        <ele>298.700012207</ele>
        <time>2015-12-22T10:32:55.384Z</time>
      </trkpt>
      <trkpt lat="45.99959" lon="4.90234">
        <ele>297.399993896</ele>
        <time>2015-12-22T10:32:56.361Z</time>
      </trkpt>
      <trkpt lat="45.99967" lon="4.90234">
        <ele>296.799987793</ele>
        <time>2015-12-22T10:32:57.38Z</time>
      </trkpt>
      <trkpt lat="45.99975" lon="4.90235">
        <ele>296.200012207</ele>
        <time>2015-12-22T10:32:58.362Z</time>
      </trkpt>
      <trkpt lat="45.99984" lon="4.90235">
        <ele>295.600006104</ele>
        <time>2015-12-22T10:32:59.4Z</time>
      </trkpt>
      <trkpt lat="45.99992" lon="4.90235">
        <ele>294.799987793</ele>
        <time>2015-12-22T10:33:00.361Z</time>
      </trkpt>
      <trkpt lat="46" lon="4.90235">
        <ele>293.299987793</ele>
        <time>2015-12-22T10:33:01.39Z</time>
      </trkpt>
      <trkpt lat="46.00009" lon="4.90235">
        <ele>291.700012207</ele>
        <time>2015-12-22T10:33:02.375Z</time>
      </trkpt>
      <trkpt lat="46.00017" lon="4.90235">
        <ele>290.600006104</ele>
        <time>2015-12-22T10:33:03.381Z</time>
      </trkpt>
      <trkpt lat="46.00024" lon="4.90235">
        <ele>289.600006104</ele>
        <time>2015-12-22T10:33:04.362Z</time>
      </trkpt>
      <trkpt lat="46.00032" lon="4.90236">
        <ele>288.5</ele>
        <time>2015-12-22T10:33:05.379Z</time>
      </trkpt>
      <trkpt lat="46.00039" lon="4.90236">
        <ele>287.899993896</ele>
        <time>2015-12-22T10:33:06.387Z</time>
      </trkpt>
      <trkpt lat="46.00047" lon="4.90235">
        <ele>287.200012207</ele>
        <time>2015-12-22T10:33:07.384Z</time>
      </trkpt>
      <trkpt lat="46.00054" lon="4.90236">
        <ele>286.5</ele>
        <time>2015-12-22T10:33:08.36Z</time>
      </trkpt>
      <trkpt lat="46.00061" lon="4.90236">
        <ele>285.899993896</ele>
        <time>2015-12-22T10:33:09.487Z</time>
      </trkpt>
      <trkpt lat="46.00069" lon="4.90236">
        <ele>285.100006104</ele>
        <time>2015-12-22T10:33:10.361Z</time>
      </trkpt>
      <trkpt lat="46.00076" lon="4.90236">
        <ele>284.200012207</ele>
        <time>2015-12-22T10:33:11.379Z</time>
      </trkpt>
      <trkpt lat="46.00082" lon="4.90236">
        <ele>283.200012207</ele>
        <time>2015-12-22T10:33:12.365Z</time>
      </trkpt>
      <trkpt lat="46.00089" lon="4.90236">
        <ele>281.399993896</ele>
        <time>2015-12-22T10:33:13.39Z</time>
      </trkpt>
      <trkpt lat="46.00095" lon="4.90238">
        <ele>281.600006104</ele>
        <time>2015-12-22T10:33:14.36Z</time>
      </trkpt>
      <trkpt lat="46.00101" lon="4.90243">
        <ele>281.299987793</ele>
        <time>2015-12-22T10:33:15.38Z</time>
      </trkpt>
      <trkpt lat="46.00106" lon="4.90248">
        <ele>281.399993896</ele>
        <time>2015-12-22T10:33:16.36Z</time>
      </trkpt>
      <trkpt lat="46.00111" lon="4.90254">
        <ele>281.100006104</ele>
        <time>2015-12-22T10:33:17.379Z</time>
      </trkpt>
      <trkpt lat="46.00116" lon="4.90259">
        <ele>280.600006104</ele>
        <time>2015-12-22T10:33:18.365Z</time>
      </trkpt>
      <trkpt lat="46.00121" lon="4.90265">
        <ele>280.200012207</ele>
        <time>2015-12-22T10:33:19.384Z</time>
      </trkpt>
      <trkpt lat="46.00126" lon="4.90271">
        <ele>279.5</ele>
        <time>2015-12-22T10:33:20.48Z</time>
      </trkpt>
      <trkpt lat="46.00132" lon="4.90276">
        <ele>278.799987793</ele>
        <time>2015-12-22T10:33:21.382Z</time>
      </trkpt>
      <trkpt lat="46.00137" lon="4.90282">
        <ele>278.399993896</ele>
        <time>2015-12-22T10:33:22.362Z</time>
      </trkpt>
      <trkpt lat="46.00143" lon="4.90287">
        <ele>277.899993896</ele>
        <time>2015-12-22T10:33:23.396Z</time>
      </trkpt>
      <trkpt lat="46.00149" lon="4.90293">
        <ele>278</ele>
        <time>2015-12-22T10:33:24.361Z</time>
      </trkpt>
      <trkpt lat="46.00154" lon="4.90298">
        <ele>277.700012207</ele>
        <time>2015-12-22T10:33:25.384Z</time>
      </trkpt>
      <trkpt lat="46.0016" lon="4.90304">
        <ele>277.700012207</ele>
        <time>2015-12-22T10:33:26.361Z</time>
      </trkpt>
      <trkpt lat="46.00166" lon="4.90309">
        <ele>277.399993896</ele>
        <time>2015-12-22T10:33:27.381Z</time>
      </trkpt>
      <trkpt lat="46.00171" lon="4.90315">
        <ele>278.100006104</ele>
        <time>2015-12-22T10:33:28.393Z</time>
      </trkpt>
      <trkpt lat="46.00176" lon="4.90321">
        <ele>278.799987793</ele>
        <time>2015-12-22T10:33:29.38Z</time>
      </trkpt>
      <trkpt lat="46.00182" lon="4.90327">
        <ele>278.799987793</ele>
        <time>2015-12-22T10:33:30.362Z</time>
      </trkpt>
      <trkpt lat="46.00187" lon="4.90332">
        <ele>278.600006104</ele>
        <time>2015-12-22T10:33:31.516Z</time>
      </trkpt>
      <trkpt lat="46.00193" lon="4.90338">
        <ele>278.799987793</ele>
        <time>2015-12-22T10:33:32.362Z</time>
      </trkpt>
      <trkpt lat="46.00199" lon="4.90343">
        <ele>278.700012207</ele>
        <time>2015-12-22T10:33:33.381Z</time>
      </trkpt>
      <trkpt lat="46.00205" lon="4.90349">
        <ele>278.600006104</ele>
        <time>2015-12-22T10:33:34.362Z</time>
      </trkpt>
      <trkpt lat="46.00211" lon="4.90354">
        <ele>278.299987793</ele>
        <time>2015-12-22T10:33:35.381Z</time>
      </trkpt>
      <trkpt lat="46.00216" lon="4.9036">
        <ele>278.100006104</ele>
        <time>2015-12-22T10:33:36.362Z</time>
      </trkpt>
      <trkpt lat="46.00222" lon="4.90366">
        <ele>278.299987793</ele>
        <time>2015-12-22T10:33:37.383Z</time>
      </trkpt>
      <trkpt lat="46.00228" lon="4.90372">
        <ele>278.200012207</ele>
        <time>2015-12-22T10:33:38.361Z</time>
      </trkpt>
      <trkpt lat="46.00234" lon="4.90377">
        <ele>278.5</ele>
        <time>2015-12-22T10:33:39.396Z</time>
      </trkpt>
      <trkpt lat="46.0024" lon="4.90383">
        <ele>279.299987793</ele>
        <time>2015-12-22T10:33:40.361Z</time>
      </trkpt>
      <trkpt lat="46.00246" lon="4.90389">
        <ele>279.5</ele>
        <time>2015-12-22T10:33:41.38Z</time>
      </trkpt>
      <trkpt lat="46.00252" lon="4.90394">
        <ele>279.200012207</ele>
        <time>2015-12-22T10:33:42.361Z</time>
      </trkpt>
      <trkpt lat="46.00258" lon="4.904">
        <ele>278.899993896</ele>
        <time>2015-12-22T10:33:43.397Z</time>
      </trkpt>
      <trkpt lat="46.00264" lon="4.90406">
        <ele>278.5</ele>
        <time>2015-12-22T10:33:44.387Z</time>
      </trkpt>
      <trkpt lat="46.00269" lon="4.90411">
        <ele>278.299987793</ele>
        <time>2015-12-22T10:33:45.382Z</time>
      </trkpt>
      <trkpt lat="46.00275" lon="4.90418">
        <ele>279.200012207</ele>
        <time>2015-12-22T10:33:46.361Z</time>
      </trkpt>
      <trkpt lat="46.0028" lon="4.90424">
        <ele>279.700012207</ele>
        <time>2015-12-22T10:33:47.38Z</time>
      </trkpt>
      <trkpt lat="46.00284" lon="4.90429">
        <ele>279.700012207</ele>
        <time>2015-12-22T10:33:48.361Z</time>
      </trkpt>
      <trkpt lat="46.0029" lon="4.90435">
        <ele>280.600006104</ele>
        <time>2015-12-22T10:33:49.449Z</time>
      </trkpt>
      <trkpt lat="46.00294" lon="4.90441">
        <ele>281.299987793</ele>
        <time>2015-12-22T10:33:50.361Z</time>
      </trkpt>
      <trkpt lat="46.00299" lon="4.90447">
        <ele>282.100006104</ele>
        <time>2015-12-22T10:33:51.381Z</time>
      </trkpt>
      <trkpt lat="46.00303" lon="4.90452">
        <ele>282.399993896</ele>
        <time>2015-12-22T10:33:52.361Z</time>
      </trkpt>
      <trkpt lat="46.00308" lon="4.90458">
        <ele>282.600006104</ele>
        <time>2015-12-22T10:33:53.381Z</time>
      </trkpt>
      <trkpt lat="46.00312" lon="4.90464">
        <ele>282.799987793</ele>
        <time>2015-12-22T10:33:54.362Z</time>
      </trkpt>
      <trkpt lat="46.00317" lon="4.90469">
        <ele>282.899993896</ele>
        <time>2015-12-22T10:33:55.516Z</time>
      </trkpt>
      <trkpt lat="46.00321" lon="4.90476">
        <ele>283</ele>
        <time>2015-12-22T10:33:56.362Z</time>
      </trkpt>
      <trkpt lat="46.00326" lon="4.90482">
        <ele>283.100006104</ele>
        <time>2015-12-22T10:33:57.382Z</time>
      </trkpt>
      <trkpt lat="46.0033" lon="4.90489">
        <ele>283</ele>
        <time>2015-12-22T10:33:58.361Z</time>
      </trkpt>
      <trkpt lat="46.00334" lon="4.90496">
        <ele>283.100006104</ele>
        <time>2015-12-22T10:33:59.379Z</time>
      </trkpt>
      <trkpt lat="46.00338" lon="4.90502">
        <ele>282.899993896</ele>
        <time>2015-12-22T10:34:00.361Z</time>
      </trkpt>
      <trkpt lat="46.00343" lon="4.9051">
        <ele>282.5</ele>
        <time>2015-12-22T10:34:01.383Z</time>
      </trkpt>
      <trkpt lat="46.00347" lon="4.90517">
        <ele>282.799987793</ele>
        <time>2015-12-22T10:34:02.361Z</time>
      </trkpt>
      <trkpt lat="46.00351" lon="4.90524">
        <ele>282.700012207</ele>
        <time>2015-12-22T10:34:03.381Z</time>
      </trkpt>
      <trkpt lat="46.00356" lon="4.90531">
        <ele>282.5</ele>
        <time>2015-12-22T10:34:04.361Z</time>
      </trkpt>
      <trkpt lat="46.00361" lon="4.90537">
        <ele>282.200012207</ele>
        <time>2015-12-22T10:34:05.381Z</time>
      </trkpt>
      <trkpt lat="46.00365" lon="4.90545">
        <ele>281.899993896</ele>
        <time>2015-12-22T10:34:06.361Z</time>
      </trkpt>
      <trkpt lat="46.00369" lon="4.90553">
        <ele>281.5</ele>
        <time>2015-12-22T10:34:07.384Z</time>
      </trkpt>
      <trkpt lat="46.00372" lon="4.90561">
        <ele>281.5</ele>
        <time>2015-12-22T10:34:08.361Z</time>
      </trkpt>
      <trkpt lat="46.00376" lon="4.9057">
        <ele>282.700012207</ele>
        <time>2015-12-22T10:34:09.389Z</time>
      </trkpt>
      <trkpt lat="46.0038" lon="4.90578">
        <ele>283.100006104</ele>
        <time>2015-12-22T10:34:10.379Z</time>
      </trkpt>
      <trkpt lat="46.00383" lon="4.90587">
        <ele>284</ele>
        <time>2015-12-22T10:34:11.42Z</time>
      </trkpt>
      <trkpt lat="46.00387" lon="4.90596">
        <ele>284.600006104</ele>
        <time>2015-12-22T10:34:12.361Z</time>
      </trkpt>
      <trkpt lat="46.0039" lon="4.90605">
        <ele>285.100006104</ele>
        <time>2015-12-22T10:34:13.383Z</time>
      </trkpt>
      <trkpt lat="46.00394" lon="4.90614">
        <ele>285.700012207</ele>
        <time>2015-12-22T10:34:14.36Z</time>
      </trkpt>
      <trkpt lat="46.00397" lon="4.90622">
        <ele>286</ele>
        <time>2015-12-22T10:34:15.387Z</time>
      </trkpt>
      <trkpt lat="46.004" lon="4.90632">
        <ele>286.899993896</ele>
        <time>2015-12-22T10:34:16.36Z</time>
      </trkpt>
      <trkpt lat="46.00403" lon="4.9064">
        <ele>287.299987793</ele>
        <time>2015-12-22T10:34:17.45Z</time>
      </trkpt>
      <trkpt lat="46.00406" lon="4.90649">
        <ele>287.700012207</ele>
        <time>2015-12-22T10:34:18.361Z</time>
      </trkpt>
      <trkpt lat="46.00408" lon="4.90657">
        <ele>288.200012207</ele>
        <time>2015-12-22T10:34:19.382Z</time>
      </trkpt>
      <trkpt lat="46.00411" lon="4.90666">
        <ele>288.299987793</ele>
        <time>2015-12-22T10:34:20.361Z</time>
      </trkpt>
      <trkpt lat="46.00413" lon="4.90674">
        <ele>288.299987793</ele>
        <time>2015-12-22T10:34:21.38Z</time>
      </trkpt>
      <trkpt lat="46.00415" lon="4.90683">
        <ele>288.299987793</ele>
        <time>2015-12-22T10:34:22.361Z</time>
      </trkpt>
      <trkpt lat="46.00416" lon="4.90691">
        <ele>288.5</ele>
        <time>2015-12-22T10:34:23.381Z</time>
      </trkpt>
      <trkpt lat="46.00418" lon="4.907">
        <ele>288.399993896</ele>
        <time>2015-12-22T10:34:24.361Z</time>
      </trkpt>
      <trkpt lat="46.00419" lon="4.9071">
        <ele>288.299987793</ele>
        <time>2015-12-22T10:34:25.383Z</time>
      </trkpt>
      <trkpt lat="46.0042" lon="4.90719">
        <ele>288.899993896</ele>
        <time>2015-12-22T10:34:26.361Z</time>
      </trkpt>
      <trkpt lat="46.00421" lon="4.90729">
        <ele>289.299987793</ele>
        <time>2015-12-22T10:34:27.382Z</time>
      </trkpt>
      <trkpt lat="46.00422" lon="4.90738">
        <ele>289.100006104</ele>
        <time>2015-12-22T10:34:28.361Z</time>
      </trkpt>
      <trkpt lat="46.00422" lon="4.90748">
        <ele>288.899993896</ele>
        <time>2015-12-22T10:34:29.447Z</time>
      </trkpt>
      <trkpt lat="46.00422" lon="4.90758">
        <ele>289.399993896</ele>
        <time>2015-12-22T10:34:30.362Z</time>
      </trkpt>
      <trkpt lat="46.00423" lon="4.90767">
        <ele>289.799987793</ele>
        <time>2015-12-22T10:34:31.398Z</time>
      </trkpt>
      <trkpt lat="46.00423" lon="4.90776">
        <ele>290.200012207</ele>
        <time>2015-12-22T10:34:32.361Z</time>
      </trkpt>
      <trkpt lat="46.00424" lon="4.90786">
        <ele>290.600006104</ele>
        <time>2015-12-22T10:34:33.381Z</time>
      </trkpt>
      <trkpt lat="46.00424" lon="4.90794">
        <ele>290.899993896</ele>
        <time>2015-12-22T10:34:34.361Z</time>
      </trkpt>
      <trkpt lat="46.00425" lon="4.90802">
        <ele>290.899993896</ele>
        <time>2015-12-22T10:34:35.381Z</time>
      </trkpt>
      <trkpt lat="46.00425" lon="4.90811">
        <ele>290.899993896</ele>
        <time>2015-12-22T10:34:36.365Z</time>
      </trkpt>
      <trkpt lat="46.00425" lon="4.90819">
        <ele>291.299987793</ele>
        <time>2015-12-22T10:34:37.384Z</time>
      </trkpt>
      <trkpt lat="46.00425" lon="4.90827">
        <ele>291.399993896</ele>
        <time>2015-12-22T10:34:38.361Z</time>
      </trkpt>
      <trkpt lat="46.00425" lon="4.90835">
        <ele>291.700012207</ele>
        <time>2015-12-22T10:34:39.382Z</time>
      </trkpt>
      <trkpt lat="46.00425" lon="4.90842">
        <ele>291.5</ele>
        <time>2015-12-22T10:34:40.417Z</time>
      </trkpt>
      <trkpt lat="46.00425" lon="4.9085">
        <ele>291.600006104</ele>
        <time>2015-12-22T10:34:41.38Z</time>
      </trkpt>
      <trkpt lat="46.00425" lon="4.90858">
        <ele>291.600006104</ele>
        <time>2015-12-22T10:34:42.361Z</time>
      </trkpt>
      <trkpt lat="46.00425" lon="4.90866">
        <ele>291.600006104</ele>
        <time>2015-12-22T10:34:43.382Z</time>
      </trkpt>
      <trkpt lat="46.00425" lon="4.90874">
        <ele>291.399993896</ele>
        <time>2015-12-22T10:34:44.361Z</time>
      </trkpt>
      <trkpt lat="46.00425" lon="4.90882">
        <ele>291.899993896</ele>
        <time>2015-12-22T10:34:45.38Z</time>
      </trkpt>
      <trkpt lat="46.00425" lon="4.9089">
        <ele>292</ele>
        <time>2015-12-22T10:34:46.36Z</time>
      </trkpt>
      <trkpt lat="46.00425" lon="4.90898">
        <ele>291.700012207</ele>
        <time>2015-12-22T10:34:47.385Z</time>
      </trkpt>
      <trkpt lat="46.00425" lon="4.90906">
        <ele>291.200012207</ele>
        <time>2015-12-22T10:34:48.36Z</time>
      </trkpt>
      <trkpt lat="46.00425" lon="4.90914">
        <ele>291.600006104</ele>
        <time>2015-12-22T10:34:49.386Z</time>
      </trkpt>
      <trkpt lat="46.00425" lon="4.90923">
        <ele>292.299987793</ele>
        <time>2015-12-22T10:34:50.362Z</time>
      </trkpt>
      <trkpt lat="46.00426" lon="4.90932">
        <ele>292</ele>
        <time>2015-12-22T10:34:51.382Z</time>
      </trkpt>
      <trkpt lat="46.00426" lon="4.9094">
        <ele>291.700012207</ele>
        <time>2015-12-22T10:34:52.377Z</time>
      </trkpt>
      <trkpt lat="46.00425" lon="4.90948">
        <ele>291.700012207</ele>
        <time>2015-12-22T10:34:53.38Z</time>
      </trkpt>
      <trkpt lat="46.00425" lon="4.90956">
        <ele>291.700012207</ele>
        <time>2015-12-22T10:34:54.362Z</time>
      </trkpt>
      <trkpt lat="46.00426" lon="4.90965">
        <ele>291.600006104</ele>
        <time>2015-12-22T10:34:55.384Z</time>
      </trkpt>
      <trkpt lat="46.00426" lon="4.90974">
        <ele>292.200012207</ele>
        <time>2015-12-22T10:34:56.361Z</time>
      </trkpt>
      <trkpt lat="46.00426" lon="4.90983">
        <ele>292</ele>
        <time>2015-12-22T10:34:57.384Z</time>
      </trkpt>
      <trkpt lat="46.00427" lon="4.90993">
        <ele>292.100006104</ele>
        <time>2015-12-22T10:34:58.361Z</time>
      </trkpt>
      <trkpt lat="46.00427" lon="4.91002">
        <ele>293.200012207</ele>
        <time>2015-12-22T10:34:59.38Z</time>
      </trkpt>
      <trkpt lat="46.00427" lon="4.91011">
        <ele>293.299987793</ele>
        <time>2015-12-22T10:35:00.362Z</time>
      </trkpt>
      <trkpt lat="46.00427" lon="4.9102">
        <ele>293.299987793</ele>
        <time>2015-12-22T10:35:01.523Z</time>
      </trkpt>
      <trkpt lat="46.00428" lon="4.9103">
        <ele>293.700012207</ele>
        <time>2015-12-22T10:35:02.363Z</time>
      </trkpt>
      <trkpt lat="46.00428" lon="4.9104">
        <ele>294.100006104</ele>
        <time>2015-12-22T10:35:03.382Z</time>
      </trkpt>
      <trkpt lat="46.00428" lon="4.91049">
        <ele>294.299987793</ele>
        <time>2015-12-22T10:35:04.361Z</time>
      </trkpt>
      <trkpt lat="46.00427" lon="4.91059">
        <ele>294.299987793</ele>
        <time>2015-12-22T10:35:05.38Z</time>
      </trkpt>
      <trkpt lat="46.00427" lon="4.91068">
        <ele>294.600006104</ele>
        <time>2015-12-22T10:35:06.361Z</time>
      </trkpt>
      <trkpt lat="46.00426" lon="4.91077">
        <ele>294.5</ele>
        <time>2015-12-22T10:35:07.382Z</time>
      </trkpt>
      <trkpt lat="46.00424" lon="4.91086">
        <ele>294.399993896</ele>
        <time>2015-12-22T10:35:08.36Z</time>
      </trkpt>
      <trkpt lat="46.00423" lon="4.91095">
        <ele>294.799987793</ele>
        <time>2015-12-22T10:35:09.381Z</time>
      </trkpt>
      <trkpt lat="46.00421" lon="4.91103">
        <ele>295.299987793</ele>
        <time>2015-12-22T10:35:10.36Z</time>
      </trkpt>
      <trkpt lat="46.0042" lon="4.91112">
        <ele>296.200012207</ele>
        <time>2015-12-22T10:35:11.379Z</time>
      </trkpt>
      <trkpt lat="46.00419" lon="4.9112">
        <ele>296.100006104</ele>
        <time>2015-12-22T10:35:12.361Z</time>
      </trkpt>
      <trkpt lat="46.00417" lon="4.91128">
        <ele>296.299987793</ele>
        <time>2015-12-22T10:35:13.382Z</time>
      </trkpt>
      <trkpt lat="46.00416" lon="4.91137">
        <ele>296</ele>
        <time>2015-12-22T10:35:14.384Z</time>
      </trkpt>
      <trkpt lat="46.00415" lon="4.91145">
        <ele>295.799987793</ele>
        <time>2015-12-22T10:35:15.381Z</time>
      </trkpt>
      <trkpt lat="46.00413" lon="4.91154">
        <ele>295.799987793</ele>
        <time>2015-12-22T10:35:16.361Z</time>
      </trkpt>
      <trkpt lat="46.00412" lon="4.91163">
        <ele>296.299987793</ele>
        <time>2015-12-22T10:35:17.38Z</time>
      </trkpt>
      <trkpt lat="46.00412" lon="4.91172">
        <ele>296.200012207</ele>
        <time>2015-12-22T10:35:18.378Z</time>
      </trkpt>
      <trkpt lat="46.00412" lon="4.91181">
        <ele>295.799987793</ele>
        <time>2015-12-22T10:35:19.388Z</time>
      </trkpt>
      <trkpt lat="46.00413" lon="4.91189">
        <ele>296</ele>
        <time>2015-12-22T10:35:20.36Z</time>
      </trkpt>
      <trkpt lat="46.00415" lon="4.91198">
        <ele>296.299987793</ele>
        <time>2015-12-22T10:35:21.38Z</time>
      </trkpt>
      <trkpt lat="46.00418" lon="4.91206">
        <ele>296.5</ele>
        <time>2015-12-22T10:35:22.361Z</time>
      </trkpt>
      <trkpt lat="46.0042" lon="4.91215">
        <ele>296.5</ele>
        <time>2015-12-22T10:35:23.393Z</time>
      </trkpt>
      <trkpt lat="46.00424" lon="4.91223">
        <ele>296.399993896</ele>
        <time>2015-12-22T10:35:24.361Z</time>
      </trkpt>
      <trkpt lat="46.00427" lon="4.91231">
        <ele>296.399993896</ele>
        <time>2015-12-22T10:35:25.383Z</time>
      </trkpt>
      <trkpt lat="46.0043" lon="4.91239">
        <ele>296.5</ele>
        <time>2015-12-22T10:35:26.36Z</time>
      </trkpt>
      <trkpt lat="46.00434" lon="4.91246">
        <ele>296.600006104</ele>
        <time>2015-12-22T10:35:27.38Z</time>
      </trkpt>
      <trkpt lat="46.00437" lon="4.91254">
        <ele>296.5</ele>
        <time>2015-12-22T10:35:28.363Z</time>
      </trkpt>
      <trkpt lat="46.0044" lon="4.91261">
        <ele>296.399993896</ele>
        <time>2015-12-22T10:35:29.381Z</time>
      </trkpt>
      <trkpt lat="46.00444" lon="4.91268">
        <ele>296.399993896</ele>
        <time>2015-12-22T10:35:30.36Z</time>
      </trkpt>
      <trkpt lat="46.00447" lon="4.91275">
        <ele>296.299987793</ele>
        <time>2015-12-22T10:35:31.388Z</time>
      </trkpt>
      <trkpt lat="46.0045" lon="4.91281">
        <ele>296.200012207</ele>
        <time>2015-12-22T10:35:32.361Z</time>
      </trkpt>
      <trkpt lat="46.00454" lon="4.91288">
        <ele>296.100006104</ele>
        <time>2015-12-22T10:35:33.504Z</time>
      </trkpt>
      <trkpt lat="46.00457" lon="4.91295">
        <ele>295.899993896</ele>
        <time>2015-12-22T10:35:34.361Z</time>
      </trkpt>
      <trkpt lat="46.00461" lon="4.91302">
        <ele>295.600006104</ele>
        <time>2015-12-22T10:35:35.379Z</time>
      </trkpt>
      <trkpt lat="46.00464" lon="4.91309">
        <ele>295.799987793</ele>
        <time>2015-12-22T10:35:36.361Z</time>
      </trkpt>
      <trkpt lat="46.00467" lon="4.91316">
        <ele>295.600006104</ele>
        <time>2015-12-22T10:35:37.384Z</time>
      </trkpt>
      <trkpt lat="46.0047" lon="4.91323">
        <ele>295.299987793</ele>
        <time>2015-12-22T10:35:38.361Z</time>
      </trkpt>
      <trkpt lat="46.00473" lon="4.91329">
        <ele>294.899993896</ele>
        <time>2015-12-22T10:35:39.43Z</time>
      </trkpt>
      <trkpt lat="46.00477" lon="4.91336">
        <ele>294.899993896</ele>
        <time>2015-12-22T10:35:40.362Z</time>
      </trkpt>
      <trkpt lat="46.00481" lon="4.91343">
        <ele>295.299987793</ele>
        <time>2015-12-22T10:35:41.431Z</time>
      </trkpt>
      <trkpt lat="46.00484" lon="4.9135">
        <ele>295.399993896</ele>
        <time>2015-12-22T10:35:42.361Z</time>
      </trkpt>
      <trkpt lat="46.00488" lon="4.91357">
        <ele>295.399993896</ele>
        <time>2015-12-22T10:35:43.41Z</time>
      </trkpt>
      <trkpt lat="46.00491" lon="4.91363">
        <ele>295.399993896</ele>
        <time>2015-12-22T10:35:44.417Z</time>
      </trkpt>
      <trkpt lat="46.00494" lon="4.9137">
        <ele>295.200012207</ele>
        <time>2015-12-22T10:35:45.382Z</time>
      </trkpt>
      <trkpt lat="46.00498" lon="4.91378">
        <ele>294.700012207</ele>
        <time>2015-12-22T10:35:46.361Z</time>
      </trkpt>
      <trkpt lat="46.00501" lon="4.91385">
        <ele>294.700012207</ele>
        <time>2015-12-22T10:35:47.381Z</time>
      </trkpt>
      <trkpt lat="46.00505" lon="4.91392">
        <ele>294.899993896</ele>
        <time>2015-12-22T10:35:48.36Z</time>
      </trkpt>
      <trkpt lat="46.00508" lon="4.91399">
        <ele>294.799987793</ele>
        <time>2015-12-22T10:35:49.388Z</time>
      </trkpt>
      <trkpt lat="46.00511" lon="4.91406">
        <ele>294.899993896</ele>
        <time>2015-12-22T10:35:50.362Z</time>
      </trkpt>
      <trkpt lat="46.00515" lon="4.91413">
        <ele>295.200012207</ele>
        <time>2015-12-22T10:35:51.382Z</time>
      </trkpt>
      <trkpt lat="46.00519" lon="4.9142">
        <ele>295</ele>
        <time>2015-12-22T10:35:52.362Z</time>
      </trkpt>
      <trkpt lat="46.00522" lon="4.91427">
        <ele>295.299987793</ele>
        <time>2015-12-22T10:35:53.381Z</time>
      </trkpt>
      <trkpt lat="46.00526" lon="4.91434">
        <ele>295.299987793</ele>
        <time>2015-12-22T10:35:54.363Z</time>
      </trkpt>
      <trkpt lat="46.0053" lon="4.91441">
        <ele>295.600006104</ele>
        <time>2015-12-22T10:35:55.384Z</time>
      </trkpt>
      <trkpt lat="46.00535" lon="4.91448">
        <ele>295.100006104</ele>
        <time>2015-12-22T10:35:56.361Z</time>
      </trkpt>
      <trkpt lat="46.00539" lon="4.91456">
        <ele>294.399993896</ele>
        <time>2015-12-22T10:35:57.38Z</time>
      </trkpt>
      <trkpt lat="46.00544" lon="4.91463">
        <ele>293.5</ele>
        <time>2015-12-22T10:35:58.361Z</time>
      </trkpt>
      <trkpt lat="46.0055" lon="4.91469">
        <ele>292.600006104</ele>
        <time>2015-12-22T10:35:59.402Z</time>
      </trkpt>
      <trkpt lat="46.00557" lon="4.91474">
        <ele>290.799987793</ele>
        <time>2015-12-22T10:36:00.361Z</time>
      </trkpt>
      <trkpt lat="46.00563" lon="4.91478">
        <ele>289.100006104</ele>
        <time>2015-12-22T10:36:01.384Z</time>
      </trkpt>
      <trkpt lat="46.00569" lon="4.91482">
        <ele>288.5</ele>
        <time>2015-12-22T10:36:02.425Z</time>
      </trkpt>
      <trkpt lat="46.00576" lon="4.91485">
        <ele>288.200012207</ele>
        <time>2015-12-22T10:36:03.38Z</time>
      </trkpt>
      <trkpt lat="46.00583" lon="4.91489">
        <ele>287.799987793</ele>
        <time>2015-12-22T10:36:04.36Z</time>
      </trkpt>
      <trkpt lat="46.0059" lon="4.91493">
        <ele>287.700012207</ele>
        <time>2015-12-22T10:36:05.379Z</time>
      </trkpt>
      <trkpt lat="46.00596" lon="4.91497">
        <ele>287.5</ele>
        <time>2015-12-22T10:36:06.361Z</time>
      </trkpt>
      <trkpt lat="46.00603" lon="4.915">
        <ele>287.100006104</ele>
        <time>2015-12-22T10:36:07.382Z</time>
      </trkpt>
      <trkpt lat="46.0061" lon="4.91503">
        <ele>286.600006104</ele>
        <time>2015-12-22T10:36:08.361Z</time>
      </trkpt>
      <trkpt lat="46.00616" lon="4.91506">
        <ele>286.200012207</ele>
        <time>2015-12-22T10:36:09.38Z</time>
      </trkpt>
      <trkpt lat="46.00623" lon="4.91509">
        <ele>285.799987793</ele>
        <time>2015-12-22T10:36:10.375Z</time>
      </trkpt>
      <trkpt lat="46.0063" lon="4.91511">
        <ele>285.399993896</ele>
        <time>2015-12-22T10:36:11.38Z</time>
      </trkpt>
      <trkpt lat="46.00636" lon="4.91513">
        <ele>285</ele>
        <time>2015-12-22T10:36:12.36Z</time>
      </trkpt>
      <trkpt lat="46.00642" lon="4.91516">
        <ele>284.200012207</ele>
        <time>2015-12-22T10:36:13.383Z</time>
      </trkpt>
      <trkpt lat="46.00648" lon="4.91519">
        <ele>283.700012207</ele>
        <time>2015-12-22T10:36:14.36Z</time>
      </trkpt>
      <trkpt lat="46.00654" lon="4.91522">
        <ele>283.5</ele>
        <time>2015-12-22T10:36:15.379Z</time>
      </trkpt>
      <trkpt lat="46.0066" lon="4.91527">
        <ele>284.600006104</ele>
        <time>2015-12-22T10:36:16.361Z</time>
      </trkpt>
      <trkpt lat="46.00665" lon="4.91533">
        <ele>284.899993896</ele>
        <time>2015-12-22T10:36:17.385Z</time>
      </trkpt>
      <trkpt lat="46.0067" lon="4.91539">
        <ele>285</ele>
        <time>2015-12-22T10:36:18.36Z</time>
      </trkpt>
      <trkpt lat="46.00676" lon="4.91546">
        <ele>285.600006104</ele>
        <time>2015-12-22T10:36:19.381Z</time>
      </trkpt>
      <trkpt lat="46.0068" lon="4.91553">
        <ele>286.100006104</ele>
        <time>2015-12-22T10:36:20.363Z</time>
      </trkpt>
      <trkpt lat="46.00685" lon="4.91561">
        <ele>286.5</ele>
        <time>2015-12-22T10:36:21.382Z</time>
      </trkpt>
      <trkpt lat="46.00689" lon="4.91568">
        <ele>287</ele>
        <time>2015-12-22T10:36:22.36Z</time>
      </trkpt>
      <trkpt lat="46.00693" lon="4.91576">
        <ele>287.5</ele>
        <time>2015-12-22T10:36:23.378Z</time>
      </trkpt>
      <trkpt lat="46.00696" lon="4.91584">
        <ele>288</ele>
        <time>2015-12-22T10:36:24.36Z</time>
      </trkpt>
      <trkpt lat="46.00699" lon="4.91592">
        <ele>288.299987793</ele>
        <time>2015-12-22T10:36:25.382Z</time>
      </trkpt>
      <trkpt lat="46.00701" lon="4.916">
        <ele>288.200012207</ele>
        <time>2015-12-22T10:36:26.36Z</time>
      </trkpt>
      <trkpt lat="46.00703" lon="4.91609">
        <ele>288.100006104</ele>
        <time>2015-12-22T10:36:27.38Z</time>
      </trkpt>
      <trkpt lat="46.00706" lon="4.91618">
        <ele>288.5</ele>
        <time>2015-12-22T10:36:28.361Z</time>
      </trkpt>
      <trkpt lat="46.00708" lon="4.91627">
        <ele>288.899993896</ele>
        <time>2015-12-22T10:36:29.379Z</time>
      </trkpt>
      <trkpt lat="46.0071" lon="4.91637">
        <ele>289.100006104</ele>
        <time>2015-12-22T10:36:30.36Z</time>
      </trkpt>
      <trkpt lat="46.00712" lon="4.91646">
        <ele>289.399993896</ele>
        <time>2015-12-22T10:36:31.396Z</time>
      </trkpt>
      <trkpt lat="46.00714" lon="4.91655">
        <ele>289.600006104</ele>
        <time>2015-12-22T10:36:32.36Z</time>
      </trkpt>
      <trkpt lat="46.00716" lon="4.91664">
        <ele>289.600006104</ele>
        <time>2015-12-22T10:36:33.38Z</time>
      </trkpt>
      <trkpt lat="46.00718" lon="4.91673">
        <ele>289.299987793</ele>
        <time>2015-12-22T10:36:34.36Z</time>
      </trkpt>
      <trkpt lat="46.0072" lon="4.91682">
        <ele>289.600006104</ele>
        <time>2015-12-22T10:36:35.378Z</time>
      </trkpt>
      <trkpt lat="46.00721" lon="4.91689">
        <ele>289.700012207</ele>
        <time>2015-12-22T10:36:36.359Z</time>
      </trkpt>
      <trkpt lat="46.00724" lon="4.91698">
        <ele>290</ele>
        <time>2015-12-22T10:36:37.383Z</time>
      </trkpt>
      <trkpt lat="46.00726" lon="4.91704">
        <ele>290.600006104</ele>
        <time>2015-12-22T10:36:38.361Z</time>
      </trkpt>
      <trkpt lat="46.00728" lon="4.91711">
        <ele>290.700012207</ele>
        <time>2015-12-22T10:36:39.381Z</time>
      </trkpt>
      <trkpt lat="46.0073" lon="4.91718">
        <ele>290.700012207</ele>
        <time>2015-12-22T10:36:40.361Z</time>
      </trkpt>
      <trkpt lat="46.00732" lon="4.91725">
        <ele>290.600006104</ele>
        <time>2015-12-22T10:36:41.38Z</time>
      </trkpt>
      <trkpt lat="46.00734" lon="4.91732">
        <ele>290.5</ele>
        <time>2015-12-22T10:36:42.361Z</time>
      </trkpt>
      <trkpt lat="46.00735" lon="4.9174">
        <ele>290.5</ele>
        <time>2015-12-22T10:36:43.441Z</time>
      </trkpt>
      <trkpt lat="46.00737" lon="4.91748">
        <ele>290.399993896</ele>
        <time>2015-12-22T10:36:44.343Z</time>
      </trkpt>
      <trkpt lat="46.00739" lon="4.91756">
        <ele>290.200012207</ele>
        <time>2015-12-22T10:36:45.381Z</time>
      </trkpt>
      <trkpt lat="46.00741" lon="4.91764">
        <ele>290.100006104</ele>
        <time>2015-12-22T10:36:46.363Z</time>
      </trkpt>
      <trkpt lat="46.00743" lon="4.91772">
        <ele>290.200012207</ele>
        <time>2015-12-22T10:36:47.391Z</time>
      </trkpt>
      <trkpt lat="46.00746" lon="4.91781">
        <ele>289.799987793</ele>
        <time>2015-12-22T10:36:48.36Z</time>
      </trkpt>
      <trkpt lat="46.00749" lon="4.91788">
        <ele>289.399993896</ele>
        <time>2015-12-22T10:36:49.384Z</time>
      </trkpt>
      <trkpt lat="46.00753" lon="4.91795">
        <ele>288.700012207</ele>
        <time>2015-12-22T10:36:50.36Z</time>
      </trkpt>
      <trkpt lat="46.00756" lon="4.91802">
        <ele>288.200012207</ele>
        <time>2015-12-22T10:36:51.379Z</time>
      </trkpt>
      <trkpt lat="46.00761" lon="4.91809">
        <ele>287.5</ele>
        <time>2015-12-22T10:36:52.376Z</time>
      </trkpt>
      <trkpt lat="46.00765" lon="4.91814">
        <ele>286.700012207</ele>
        <time>2015-12-22T10:36:53.391Z</time>
      </trkpt>
      <trkpt lat="46.0077" lon="4.9182">
        <ele>286.399993896</ele>
        <time>2015-12-22T10:36:54.359Z</time>
      </trkpt>
      <trkpt lat="46.00775" lon="4.91825">
        <ele>286.299987793</ele>
        <time>2015-12-22T10:36:55.382Z</time>
      </trkpt>
      <trkpt lat="46.00779" lon="4.9183">
        <ele>286.200012207</ele>
        <time>2015-12-22T10:36:56.36Z</time>
      </trkpt>
      <trkpt lat="46.00784" lon="4.91834">
        <ele>286.299987793</ele>
        <time>2015-12-22T10:36:57.38Z</time>
      </trkpt>
      <trkpt lat="46.00789" lon="4.91838">
        <ele>286.5</ele>
        <time>2015-12-22T10:36:58.409Z</time>
      </trkpt>
      <trkpt lat="46.00793" lon="4.91842">
        <ele>287.299987793</ele>
        <time>2015-12-22T10:36:59.378Z</time>
      </trkpt>
      <trkpt lat="46.00798" lon="4.91846">
        <ele>287.299987793</ele>
        <time>2015-12-22T10:37:00.36Z</time>
      </trkpt>
      <trkpt lat="46.00803" lon="4.91849">
        <ele>287</ele>
        <time>2015-12-22T10:37:01.382Z</time>
      </trkpt>
      <trkpt lat="46.00808" lon="4.91853">
        <ele>286.600006104</ele>
        <time>2015-12-22T10:37:02.361Z</time>
      </trkpt>
      <trkpt lat="46.00813" lon="4.91857">
        <ele>286.200012207</ele>
        <time>2015-12-22T10:37:03.379Z</time>
      </trkpt>
      <trkpt lat="46.00818" lon="4.91862">
        <ele>285.799987793</ele>
        <time>2015-12-22T10:37:04.359Z</time>
      </trkpt>
      <trkpt lat="46.00822" lon="4.91866">
        <ele>285.700012207</ele>
        <time>2015-12-22T10:37:05.378Z</time>
      </trkpt>
      <trkpt lat="46.00827" lon="4.9187">
        <ele>285.399993896</ele>
        <time>2015-12-22T10:37:06.359Z</time>
      </trkpt>
      <trkpt lat="46.00832" lon="4.91876">
        <ele>285.200012207</ele>
        <time>2015-12-22T10:37:07.382Z</time>
      </trkpt>
      <trkpt lat="46.00837" lon="4.91881">
        <ele>285.100006104</ele>
        <time>2015-12-22T10:37:08.388Z</time>
      </trkpt>
      <trkpt lat="46.00842" lon="4.91887">
        <ele>285.299987793</ele>
        <time>2015-12-22T10:37:09.379Z</time>
      </trkpt>
      <trkpt lat="46.00846" lon="4.91892">
        <ele>285.299987793</ele>
        <time>2015-12-22T10:37:10.359Z</time>
      </trkpt>
      <trkpt lat="46.00851" lon="4.91898">
        <ele>285.299987793</ele>
        <time>2015-12-22T10:37:11.378Z</time>
      </trkpt>
      <trkpt lat="46.00855" lon="4.91904">
        <ele>285.200012207</ele>
        <time>2015-12-22T10:37:12.385Z</time>
      </trkpt>
      <trkpt lat="46.0086" lon="4.9191">
        <ele>285.299987793</ele>
        <time>2015-12-22T10:37:13.396Z</time>
      </trkpt>
      <trkpt lat="46.00864" lon="4.91916">
        <ele>285.299987793</ele>
        <time>2015-12-22T10:37:14.359Z</time>
      </trkpt>
      <trkpt lat="46.00869" lon="4.91921">
        <ele>285.100006104</ele>
        <time>2015-12-22T10:37:15.39Z</time>
      </trkpt>
      <trkpt lat="46.00873" lon="4.91926">
        <ele>285.200012207</ele>
        <time>2015-12-22T10:37:16.359Z</time>
      </trkpt>
      <trkpt lat="46.00877" lon="4.91931">
        <ele>285.399993896</ele>
        <time>2015-12-22T10:37:17.397Z</time>
      </trkpt>
      <trkpt lat="46.00881" lon="4.91935">
        <ele>285.5</ele>
        <time>2015-12-22T10:37:18.36Z</time>
      </trkpt>
      <trkpt lat="46.00885" lon="4.91941">
        <ele>285.700012207</ele>
        <time>2015-12-22T10:37:19.383Z</time>
      </trkpt>
      <trkpt lat="46.0089" lon="4.91945">
        <ele>285.899993896</ele>
        <time>2015-12-22T10:37:20.36Z</time>
      </trkpt>
      <trkpt lat="46.00894" lon="4.9195">
        <ele>286.200012207</ele>
        <time>2015-12-22T10:37:21.379Z</time>
      </trkpt>
      <trkpt lat="46.00898" lon="4.91955">
        <ele>286.200012207</ele>
        <time>2015-12-22T10:37:22.363Z</time>
      </trkpt>
      <trkpt lat="46.00902" lon="4.9196">
        <ele>286.200012207</ele>
        <time>2015-12-22T10:37:23.381Z</time>
      </trkpt>
      <trkpt lat="46.00906" lon="4.91965">
        <ele>286.100006104</ele>
        <time>2015-12-22T10:37:24.359Z</time>
      </trkpt>
      <trkpt lat="46.00911" lon="4.9197">
        <ele>285.799987793</ele>
        <time>2015-12-22T10:37:25.381Z</time>
      </trkpt>
      <trkpt lat="46.00916" lon="4.91975">
        <ele>285.600006104</ele>
        <time>2015-12-22T10:37:26.36Z</time>
      </trkpt>
      <trkpt lat="46.00921" lon="4.91981">
        <ele>285.600006104</ele>
        <time>2015-12-22T10:37:27.38Z</time>
      </trkpt>
      <trkpt lat="46.00925" lon="4.91987">
        <ele>285.799987793</ele>
        <time>2015-12-22T10:37:28.36Z</time>
      </trkpt>
      <trkpt lat="46.0093" lon="4.91992">
        <ele>285.899993896</ele>
        <time>2015-12-22T10:37:29.398Z</time>
      </trkpt>
      <trkpt lat="46.00935" lon="4.91997">
        <ele>285.600006104</ele>
        <time>2015-12-22T10:37:30.359Z</time>
      </trkpt>
      <trkpt lat="46.0094" lon="4.92003">
        <ele>285.5</ele>
        <time>2015-12-22T10:37:31.381Z</time>
      </trkpt>
      <trkpt lat="46.00945" lon="4.92008">
        <ele>285.200012207</ele>
        <time>2015-12-22T10:37:32.359Z</time>
      </trkpt>
      <trkpt lat="46.0095" lon="4.92014">
        <ele>285.299987793</ele>
        <time>2015-12-22T10:37:33.384Z</time>
      </trkpt>
      <trkpt lat="46.00955" lon="4.92021">
        <ele>285</ele>
        <time>2015-12-22T10:37:34.36Z</time>
      </trkpt>
      <trkpt lat="46.0096" lon="4.92027">
        <ele>284.700012207</ele>
        <time>2015-12-22T10:37:35.378Z</time>
      </trkpt>
      <trkpt lat="46.00964" lon="4.92034">
        <ele>284.399993896</ele>
        <time>2015-12-22T10:37:36.36Z</time>
      </trkpt>
      <trkpt lat="46.00969" lon="4.9204">
        <ele>283.899993896</ele>
        <time>2015-12-22T10:37:37.387Z</time>
      </trkpt>
      <trkpt lat="46.00975" lon="4.92048">
        <ele>283.600006104</ele>
        <time>2015-12-22T10:37:38.359Z</time>
      </trkpt>
      <trkpt lat="46.0098" lon="4.92054">
        <ele>282.899993896</ele>
        <time>2015-12-22T10:37:39.393Z</time>
      </trkpt>
      <trkpt lat="46.00985" lon="4.92061">
        <ele>282.399993896</ele>
        <time>2015-12-22T10:37:40.358Z</time>
      </trkpt>
      <trkpt lat="46.0099" lon="4.92067">
        <ele>282.100006104</ele>
        <time>2015-12-22T10:37:41.377Z</time>
      </trkpt>
      <trkpt lat="46.00995" lon="4.92074">
        <ele>281.799987793</ele>
        <time>2015-12-22T10:37:42.359Z</time>
      </trkpt>
      <trkpt lat="46.01" lon="4.9208">
        <ele>281.700012207</ele>
        <time>2015-12-22T10:37:43.382Z</time>
      </trkpt>
      <trkpt lat="46.01005" lon="4.92086">
        <ele>281.600006104</ele>
        <time>2015-12-22T10:37:44.359Z</time>
      </trkpt>
      <trkpt lat="46.0101" lon="4.92092">
        <ele>282</ele>
        <time>2015-12-22T10:37:45.378Z</time>
      </trkpt>
      <trkpt lat="46.01015" lon="4.92098">
        <ele>282</ele>
        <time>2015-12-22T10:37:46.359Z</time>
      </trkpt>
      <trkpt lat="46.01019" lon="4.92105">
        <ele>282.5</ele>
        <time>2015-12-22T10:37:47.379Z</time>
      </trkpt>
      <trkpt lat="46.01024" lon="4.92111">
        <ele>283</ele>
        <time>2015-12-22T10:37:48.361Z</time>
      </trkpt>
      <trkpt lat="46.01028" lon="4.92117">
        <ele>283.399993896</ele>
        <time>2015-12-22T10:37:49.388Z</time>
      </trkpt>
      <trkpt lat="46.01033" lon="4.92122">
        <ele>283.899993896</ele>
        <time>2015-12-22T10:37:50.36Z</time>
      </trkpt>
      <trkpt lat="46.01038" lon="4.92126">
        <ele>283.899993896</ele>
        <time>2015-12-22T10:37:51.476Z</time>
      </trkpt>
      <trkpt lat="46.01042" lon="4.92131">
        <ele>284.700012207</ele>
        <time>2015-12-22T10:37:52.36Z</time>
      </trkpt>
      <trkpt lat="46.01047" lon="4.92137">
        <ele>284.700012207</ele>
        <time>2015-12-22T10:37:53.377Z</time>
      </trkpt>
      <trkpt lat="46.01051" lon="4.92142">
        <ele>284.700012207</ele>
        <time>2015-12-22T10:37:54.36Z</time>
      </trkpt>
      <trkpt lat="46.01056" lon="4.92148">
        <ele>284.799987793</ele>
        <time>2015-12-22T10:37:55.381Z</time>
      </trkpt>
      <trkpt lat="46.0106" lon="4.92154">
        <ele>284.799987793</ele>
        <time>2015-12-22T10:37:56.359Z</time>
      </trkpt>
      <trkpt lat="46.01064" lon="4.9216">
        <ele>284.600006104</ele>
        <time>2015-12-22T10:37:57.38Z</time>
      </trkpt>
      <trkpt lat="46.01069" lon="4.92165">
        <ele>284.5</ele>
        <time>2015-12-22T10:37:58.385Z</time>
      </trkpt>
      <trkpt lat="46.01073" lon="4.92172">
        <ele>284.5</ele>
        <time>2015-12-22T10:37:59.378Z</time>
      </trkpt>
      <trkpt lat="46.01077" lon="4.92177">
        <ele>284.600006104</ele>
        <time>2015-12-22T10:38:00.359Z</time>
      </trkpt>
      <trkpt lat="46.01082" lon="4.92181">
        <ele>284.899993896</ele>
        <time>2015-12-22T10:38:01.382Z</time>
      </trkpt>
      <trkpt lat="46.01086" lon="4.92186">
        <ele>285.200012207</ele>
        <time>2015-12-22T10:38:02.361Z</time>
      </trkpt>
      <trkpt lat="46.0109" lon="4.9219">
        <ele>285.299987793</ele>
        <time>2015-12-22T10:38:03.406Z</time>
      </trkpt>
      <trkpt lat="46.01094" lon="4.92195">
        <ele>285.5</ele>
        <time>2015-12-22T10:38:04.36Z</time>
      </trkpt>
      <trkpt lat="46.01099" lon="4.92198">
        <ele>285.600006104</ele>
        <time>2015-12-22T10:38:05.378Z</time>
      </trkpt>
      <trkpt lat="46.01104" lon="4.92202">
        <ele>285.5</ele>
        <time>2015-12-22T10:38:06.359Z</time>
      </trkpt>
      <trkpt lat="46.01109" lon="4.92205">
        <ele>285.399993896</ele>
        <time>2015-12-22T10:38:07.381Z</time>
      </trkpt>
      <trkpt lat="46.01114" lon="4.92208">
        <ele>285.200012207</ele>
        <time>2015-12-22T10:38:08.36Z</time>
      </trkpt>
      <trkpt lat="46.01121" lon="4.92212">
        <ele>285.899993896</ele>
        <time>2015-12-22T10:38:09.378Z</time>
      </trkpt>
      <trkpt lat="46.01129" lon="4.92215">
        <ele>286.799987793</ele>
        <time>2015-12-22T10:38:10.409Z</time>
      </trkpt>
      <trkpt lat="46.01136" lon="4.92216">
        <ele>287.600006104</ele>
        <time>2015-12-22T10:38:11.378Z</time>
      </trkpt>
      <trkpt lat="46.01143" lon="4.92216">
        <ele>288.200012207</ele>
        <time>2015-12-22T10:38:12.359Z</time>
      </trkpt>
      <trkpt lat="46.01149" lon="4.92217">
        <ele>288.5</ele>
        <time>2015-12-22T10:38:13.381Z</time>
      </trkpt>
      <trkpt lat="46.01156" lon="4.92217">
        <ele>288.200012207</ele>
        <time>2015-12-22T10:38:14.384Z</time>
      </trkpt>
      <trkpt lat="46.01162" lon="4.92217">
        <ele>287.700012207</ele>
        <time>2015-12-22T10:38:15.382Z</time>
      </trkpt>
      <trkpt lat="46.01168" lon="4.92217">
        <ele>287.299987793</ele>
        <time>2015-12-22T10:38:16.359Z</time>
      </trkpt>
      <trkpt lat="46.01174" lon="4.92216">
        <ele>286.899993896</ele>
        <time>2015-12-22T10:38:17.377Z</time>
      </trkpt>
      <trkpt lat="46.01179" lon="4.92216">
        <ele>286.700012207</ele>
        <time>2015-12-22T10:38:18.358Z</time>
      </trkpt>
      <trkpt lat="46.01185" lon="4.92216">
        <ele>286.399993896</ele>
        <time>2015-12-22T10:38:19.386Z</time>
      </trkpt>
      <trkpt lat="46.0119" lon="4.92216">
        <ele>285.899993896</ele>
        <time>2015-12-22T10:38:20.359Z</time>
      </trkpt>
      <trkpt lat="46.01196" lon="4.92216">
        <ele>286.200012207</ele>
        <time>2015-12-22T10:38:21.383Z</time>
      </trkpt>
      <trkpt lat="46.01202" lon="4.92216">
        <ele>286.5</ele>
        <time>2015-12-22T10:38:22.359Z</time>
      </trkpt>
      <trkpt lat="46.01209" lon="4.92216">
        <ele>286.600006104</ele>
        <time>2015-12-22T10:38:23.379Z</time>
      </trkpt>
      <trkpt lat="46.01215" lon="4.92215">
        <ele>285.899993896</ele>
        <time>2015-12-22T10:38:24.359Z</time>
      </trkpt>
      <trkpt lat="46.01221" lon="4.92214">
        <ele>285.899993896</ele>
        <time>2015-12-22T10:38:25.381Z</time>
      </trkpt>
      <trkpt lat="46.01226" lon="4.92213">
        <ele>286.100006104</ele>
        <time>2015-12-22T10:38:26.359Z</time>
      </trkpt>
      <trkpt lat="46.01232" lon="4.92212">
        <ele>286.299987793</ele>
        <time>2015-12-22T10:38:27.378Z</time>
      </trkpt>
      <trkpt lat="46.01238" lon="4.92211">
        <ele>286.299987793</ele>
        <time>2015-12-22T10:38:28.359Z</time>
      </trkpt>
      <trkpt lat="46.01244" lon="4.9221">
        <ele>285.799987793</ele>
        <time>2015-12-22T10:38:29.378Z</time>
      </trkpt>
      <trkpt lat="46.0125" lon="4.92209">
        <ele>285.5</ele>
        <time>2015-12-22T10:38:30.36Z</time>
      </trkpt>
      <trkpt lat="46.01256" lon="4.92207">
        <ele>285.5</ele>
        <time>2015-12-22T10:38:31.395Z</time>
      </trkpt>
      <trkpt lat="46.01261" lon="4.92205">
        <ele>285.399993896</ele>
        <time>2015-12-22T10:38:32.355Z</time>
      </trkpt>
      <trkpt lat="46.01267" lon="4.92204">
        <ele>285.5</ele>
        <time>2015-12-22T10:38:33.379Z</time>
      </trkpt>
      <trkpt lat="46.01272" lon="4.92202">
        <ele>285.700012207</ele>
        <time>2015-12-22T10:38:34.359Z</time>
      </trkpt>
      <trkpt lat="46.01277" lon="4.92201">
        <ele>285.299987793</ele>
        <time>2015-12-22T10:38:35.377Z</time>
      </trkpt>
      <trkpt lat="46.01282" lon="4.92199">
        <ele>285.399993896</ele>
        <time>2015-12-22T10:38:36.359Z</time>
      </trkpt>
      <trkpt lat="46.01287" lon="4.92197">
        <ele>285.100006104</ele>
        <time>2015-12-22T10:38:37.387Z</time>
      </trkpt>
      <trkpt lat="46.01292" lon="4.92195">
        <ele>284.899993896</ele>
        <time>2015-12-22T10:38:38.359Z</time>
      </trkpt>
      <trkpt lat="46.01297" lon="4.92194">
        <ele>284.700012207</ele>
        <time>2015-12-22T10:38:39.379Z</time>
      </trkpt>
      <trkpt lat="46.01303" lon="4.92194">
        <ele>284.700012207</ele>
        <time>2015-12-22T10:38:40.359Z</time>
      </trkpt>
      <trkpt lat="46.01309" lon="4.92193">
        <ele>284.5</ele>
        <time>2015-12-22T10:38:41.377Z</time>
      </trkpt>
      <trkpt lat="46.01315" lon="4.92193">
        <ele>284.399993896</ele>
        <time>2015-12-22T10:38:42.359Z</time>
      </trkpt>
      <trkpt lat="46.01321" lon="4.92193">
        <ele>284</ele>
        <time>2015-12-22T10:38:43.527Z</time>
      </trkpt>
      <trkpt lat="46.01327" lon="4.92192">
        <ele>283.399993896</ele>
        <time>2015-12-22T10:38:44.359Z</time>
      </trkpt>
      <trkpt lat="46.01333" lon="4.92191">
        <ele>283.399993896</ele>
        <time>2015-12-22T10:38:45.378Z</time>
      </trkpt>
      <trkpt lat="46.0134" lon="4.9219">
        <ele>283.600006104</ele>
        <time>2015-12-22T10:38:46.359Z</time>
      </trkpt>
      <trkpt lat="46.01347" lon="4.92189">
        <ele>283.5</ele>
        <time>2015-12-22T10:38:47.377Z</time>
      </trkpt>
      <trkpt lat="46.01354" lon="4.92188">
        <ele>283.5</ele>
        <time>2015-12-22T10:38:48.359Z</time>
      </trkpt>
      <trkpt lat="46.01361" lon="4.92188">
        <ele>283.399993896</ele>
        <time>2015-12-22T10:38:49.391Z</time>
      </trkpt>
      <trkpt lat="46.01368" lon="4.92188">
        <ele>282.799987793</ele>
        <time>2015-12-22T10:38:50.358Z</time>
      </trkpt>
      <trkpt lat="46.01375" lon="4.92188">
        <ele>282.700012207</ele>
        <time>2015-12-22T10:38:51.383Z</time>
      </trkpt>
      <trkpt lat="46.01383" lon="4.92189">
        <ele>282.5</ele>
        <time>2015-12-22T10:38:52.378Z</time>
      </trkpt>
      <trkpt lat="46.01392" lon="4.9219">
        <ele>282.200012207</ele>
        <time>2015-12-22T10:38:53.379Z</time>
      </trkpt>
      <trkpt lat="46.014" lon="4.92192">
        <ele>282.899993896</ele>
        <time>2015-12-22T10:38:54.355Z</time>
      </trkpt>
      <trkpt lat="46.01408" lon="4.92194">
        <ele>283.100006104</ele>
        <time>2015-12-22T10:38:55.382Z</time>
      </trkpt>
      <trkpt lat="46.01416" lon="4.92196">
        <ele>283.200012207</ele>
        <time>2015-12-22T10:38:56.36Z</time>
      </trkpt>
      <trkpt lat="46.01425" lon="4.92197">
        <ele>283.600006104</ele>
        <time>2015-12-22T10:38:57.379Z</time>
      </trkpt>
      <trkpt lat="46.01433" lon="4.92198">
        <ele>283.700012207</ele>
        <time>2015-12-22T10:38:58.36Z</time>
      </trkpt>
      <trkpt lat="46.01441" lon="4.92199">
        <ele>284</ele>
        <time>2015-12-22T10:38:59.4Z</time>
      </trkpt>
      <trkpt lat="46.01448" lon="4.922">
        <ele>284</ele>
        <time>2015-12-22T10:39:00.359Z</time>
      </trkpt>
      <trkpt lat="46.01456" lon="4.92201">
        <ele>283.899993896</ele>
        <time>2015-12-22T10:39:01.382Z</time>
      </trkpt>
      <trkpt lat="46.01464" lon="4.92202">
        <ele>283.200012207</ele>
        <time>2015-12-22T10:39:02.36Z</time>
      </trkpt>
      <trkpt lat="46.01472" lon="4.92203">
        <ele>283.600006104</ele>
        <time>2015-12-22T10:39:03.378Z</time>
      </trkpt>
      <trkpt lat="46.0148" lon="4.92204">
        <ele>283.799987793</ele>
        <time>2015-12-22T10:39:04.359Z</time>
      </trkpt>
      <trkpt lat="46.01487" lon="4.92205">
        <ele>284</ele>
        <time>2015-12-22T10:39:05.377Z</time>
      </trkpt>
      <trkpt lat="46.01495" lon="4.92205">
        <ele>283.899993896</ele>
        <time>2015-12-22T10:39:06.359Z</time>
      </trkpt>
      <trkpt lat="46.01502" lon="4.92205">
        <ele>284</ele>
        <time>2015-12-22T10:39:07.381Z</time>
      </trkpt>
      <trkpt lat="46.0151" lon="4.92204">
        <ele>283.700012207</ele>
        <time>2015-12-22T10:39:08.359Z</time>
      </trkpt>
      <trkpt lat="46.01517" lon="4.92202">
        <ele>283.899993896</ele>
        <time>2015-12-22T10:39:09.379Z</time>
      </trkpt>
      <trkpt lat="46.01525" lon="4.922">
        <ele>283.600006104</ele>
        <time>2015-12-22T10:39:10.358Z</time>
      </trkpt>
      <trkpt lat="46.01531" lon="4.92198">
        <ele>283.5</ele>
        <time>2015-12-22T10:39:11.377Z</time>
      </trkpt>
      <trkpt lat="46.01539" lon="4.92196">
        <ele>283.600006104</ele>
        <time>2015-12-22T10:39:12.359Z</time>
      </trkpt>
      <trkpt lat="46.01546" lon="4.92194">
        <ele>283.600006104</ele>
        <time>2015-12-22T10:39:13.395Z</time>
      </trkpt>
      <trkpt lat="46.01553" lon="4.92192">
        <ele>283.899993896</ele>
        <time>2015-12-22T10:39:14.358Z</time>
      </trkpt>
      <trkpt lat="46.01561" lon="4.92191">
        <ele>283.799987793</ele>
        <time>2015-12-22T10:39:15.378Z</time>
      </trkpt>
      <trkpt lat="46.01569" lon="4.9219">
        <ele>284.100006104</ele>
        <time>2015-12-22T10:39:16.359Z</time>
      </trkpt>
      <trkpt lat="46.01576" lon="4.9219">
        <ele>284.100006104</ele>
        <time>2015-12-22T10:39:17.377Z</time>
      </trkpt>
      <trkpt lat="46.01584" lon="4.92191">
        <ele>283.799987793</ele>
        <time>2015-12-22T10:39:18.359Z</time>
      </trkpt>
      <trkpt lat="46.01592" lon="4.92192">
        <ele>283.899993896</ele>
        <time>2015-12-22T10:39:19.381Z</time>
      </trkpt>
      <trkpt lat="46.016" lon="4.92193">
        <ele>283.899993896</ele>
        <time>2015-12-22T10:39:20.358Z</time>
      </trkpt>
      <trkpt lat="46.01608" lon="4.92194">
        <ele>284.100006104</ele>
        <time>2015-12-22T10:39:21.378Z</time>
      </trkpt>
      <trkpt lat="46.01615" lon="4.92195">
        <ele>284.399993896</ele>
        <time>2015-12-22T10:39:22.358Z</time>
      </trkpt>
      <trkpt lat="46.01622" lon="4.92196">
        <ele>284.399993896</ele>
        <time>2015-12-22T10:39:23.377Z</time>
      </trkpt>
      <trkpt lat="46.01629" lon="4.92196">
        <ele>284.399993896</ele>
        <time>2015-12-22T10:39:24.358Z</time>
      </trkpt>
      <trkpt lat="46.01636" lon="4.92197">
        <ele>284.399993896</ele>
        <time>2015-12-22T10:39:25.458Z</time>
      </trkpt>
      <trkpt lat="46.01643" lon="4.92198">
        <ele>284.700012207</ele>
        <time>2015-12-22T10:39:26.359Z</time>
      </trkpt>
      <trkpt lat="46.01649" lon="4.922">
        <ele>284.600006104</ele>
        <time>2015-12-22T10:39:27.381Z</time>
      </trkpt>
      <trkpt lat="46.01656" lon="4.92202">
        <ele>284.600006104</ele>
        <time>2015-12-22T10:39:28.36Z</time>
      </trkpt>
      <trkpt lat="46.01662" lon="4.92206">
        <ele>284.799987793</ele>
        <time>2015-12-22T10:39:29.394Z</time>
      </trkpt>
      <trkpt lat="46.01668" lon="4.9221">
        <ele>284.899993896</ele>
        <time>2015-12-22T10:39:30.36Z</time>
      </trkpt>
      <trkpt lat="46.01674" lon="4.92216">
        <ele>284.899993896</ele>
        <time>2015-12-22T10:39:31.382Z</time>
      </trkpt>
      <trkpt lat="46.01679" lon="4.92223">
        <ele>285</ele>
        <time>2015-12-22T10:39:32.358Z</time>
      </trkpt>
      <trkpt lat="46.01684" lon="4.9223">
        <ele>285.200012207</ele>
        <time>2015-12-22T10:39:33.379Z</time>
      </trkpt>
      <trkpt lat="46.01688" lon="4.92238">
        <ele>285</ele>
        <time>2015-12-22T10:39:34.359Z</time>
      </trkpt>
      <trkpt lat="46.01692" lon="4.92246">
        <ele>284.799987793</ele>
        <time>2015-12-22T10:39:35.385Z</time>
      </trkpt>
      <trkpt lat="46.01696" lon="4.92254">
        <ele>284.399993896</ele>
        <time>2015-12-22T10:39:36.407Z</time>
      </trkpt>
      <trkpt lat="46.01699" lon="4.92263">
        <ele>284.799987793</ele>
        <time>2015-12-22T10:39:37.387Z</time>
      </trkpt>
      <trkpt lat="46.01702" lon="4.92272">
        <ele>284.299987793</ele>
        <time>2015-12-22T10:39:38.359Z</time>
      </trkpt>
      <trkpt lat="46.01706" lon="4.92281">
        <ele>284.100006104</ele>
        <time>2015-12-22T10:39:39.378Z</time>
      </trkpt>
      <trkpt lat="46.0171" lon="4.92289">
        <ele>283.899993896</ele>
        <time>2015-12-22T10:39:40.36Z</time>
      </trkpt>
      <trkpt lat="46.01714" lon="4.92298">
        <ele>283.399993896</ele>
        <time>2015-12-22T10:39:41.377Z</time>
      </trkpt>
      <trkpt lat="46.01717" lon="4.92308">
        <ele>283.600006104</ele>
        <time>2015-12-22T10:39:42.36Z</time>
      </trkpt>
      <trkpt lat="46.01721" lon="4.92318">
        <ele>283.5</ele>
        <time>2015-12-22T10:39:43.382Z</time>
      </trkpt>
      <trkpt lat="46.01724" lon="4.92328">
        <ele>283.799987793</ele>
        <time>2015-12-22T10:39:44.382Z</time>
      </trkpt>
      <trkpt lat="46.01728" lon="4.92337">
        <ele>283.700012207</ele>
        <time>2015-12-22T10:39:45.393Z</time>
      </trkpt>
      <trkpt lat="46.01732" lon="4.92347">
        <ele>283.700012207</ele>
        <time>2015-12-22T10:39:46.358Z</time>
      </trkpt>
      <trkpt lat="46.01736" lon="4.92356">
        <ele>284.100006104</ele>
        <time>2015-12-22T10:39:47.495Z</time>
      </trkpt>
      <trkpt lat="46.0174" lon="4.92366">
        <ele>284.299987793</ele>
        <time>2015-12-22T10:39:48.359Z</time>
      </trkpt>
      <trkpt lat="46.01743" lon="4.92375">
        <ele>284.5</ele>
        <time>2015-12-22T10:39:49.389Z</time>
      </trkpt>
      <trkpt lat="46.01747" lon="4.92384">
        <ele>284.399993896</ele>
        <time>2015-12-22T10:39:50.359Z</time>
      </trkpt>
      <trkpt lat="46.01751" lon="4.92393">
        <ele>284.200012207</ele>
        <time>2015-12-22T10:39:51.379Z</time>
      </trkpt>
      <trkpt lat="46.01754" lon="4.92401">
        <ele>283.5</ele>
        <time>2015-12-22T10:39:52.359Z</time>
      </trkpt>
      <trkpt lat="46.01758" lon="4.9241">
        <ele>283.299987793</ele>
        <time>2015-12-22T10:39:53.381Z</time>
      </trkpt>
      <trkpt lat="46.01762" lon="4.92418">
        <ele>283.200012207</ele>
        <time>2015-12-22T10:39:54.36Z</time>
      </trkpt>
      <trkpt lat="46.01766" lon="4.92427">
        <ele>283.200012207</ele>
        <time>2015-12-22T10:39:55.381Z</time>
      </trkpt>
      <trkpt lat="46.0177" lon="4.92436">
        <ele>283.200012207</ele>
        <time>2015-12-22T10:39:56.359Z</time>
      </trkpt>
      <trkpt lat="46.01773" lon="4.92445">
        <ele>283.200012207</ele>
        <time>2015-12-22T10:39:57.447Z</time>
      </trkpt>
      <trkpt lat="46.01777" lon="4.92454">
        <ele>283.200012207</ele>
        <time>2015-12-22T10:39:58.36Z</time>
      </trkpt>
      <trkpt lat="46.01781" lon="4.92463">
        <ele>283.100006104</ele>
        <time>2015-12-22T10:39:59.378Z</time>
      </trkpt>
      <trkpt lat="46.01785" lon="4.92472">
        <ele>283.100006104</ele>
        <time>2015-12-22T10:40:00.359Z</time>
      </trkpt>
      <trkpt lat="46.01789" lon="4.92482">
        <ele>283.200012207</ele>
        <time>2015-12-22T10:40:01.395Z</time>
      </trkpt>
      <trkpt lat="46.01793" lon="4.92491">
        <ele>283</ele>
        <time>2015-12-22T10:40:02.36Z</time>
      </trkpt>
      <trkpt lat="46.01796" lon="4.92499">
        <ele>282.899993896</ele>
        <time>2015-12-22T10:40:03.379Z</time>
      </trkpt>
      <trkpt lat="46.018" lon="4.92508">
        <ele>282.899993896</ele>
        <time>2015-12-22T10:40:04.358Z</time>
      </trkpt>
      <trkpt lat="46.01803" lon="4.92516">
        <ele>282.799987793</ele>
        <time>2015-12-22T10:40:05.377Z</time>
      </trkpt>
      <trkpt lat="46.01807" lon="4.92524">
        <ele>282.700012207</ele>
        <time>2015-12-22T10:40:06.358Z</time>
      </trkpt>
      <trkpt lat="46.0181" lon="4.92532">
        <ele>282.899993896</ele>
        <time>2015-12-22T10:40:07.388Z</time>
      </trkpt>
      <trkpt lat="46.01814" lon="4.92539">
        <ele>283</ele>
        <time>2015-12-22T10:40:08.36Z</time>
      </trkpt>
      <trkpt lat="46.01816" lon="4.92547">
        <ele>282.899993896</ele>
        <time>2015-12-22T10:40:09.38Z</time>
      </trkpt>
      <trkpt lat="46.0182" lon="4.92554">
        <ele>283</ele>
        <time>2015-12-22T10:40:10.359Z</time>
      </trkpt>
      <trkpt lat="46.01823" lon="4.92562">
        <ele>283.299987793</ele>
        <time>2015-12-22T10:40:11.379Z</time>
      </trkpt>
      <trkpt lat="46.01826" lon="4.9257">
        <ele>283.5</ele>
        <time>2015-12-22T10:40:12.36Z</time>
      </trkpt>
      <trkpt lat="46.01829" lon="4.92577">
        <ele>283.299987793</ele>
        <time>2015-12-22T10:40:13.394Z</time>
      </trkpt>
      <trkpt lat="46.01832" lon="4.92585">
        <ele>283.700012207</ele>
        <time>2015-12-22T10:40:14.358Z</time>
      </trkpt>
      <trkpt lat="46.01836" lon="4.92593">
        <ele>283.799987793</ele>
        <time>2015-12-22T10:40:15.379Z</time>
      </trkpt>
      <trkpt lat="46.01839" lon="4.92601">
        <ele>283.899993896</ele>
        <time>2015-12-22T10:40:16.359Z</time>
      </trkpt>
      <trkpt lat="46.01843" lon="4.92608">
        <ele>284</ele>
        <time>2015-12-22T10:40:17.379Z</time>
      </trkpt>
      <trkpt lat="46.01846" lon="4.92616">
        <ele>284.200012207</ele>
        <time>2015-12-22T10:40:18.359Z</time>
      </trkpt>
      <trkpt lat="46.01849" lon="4.92624">
        <ele>284.399993896</ele>
        <time>2015-12-22T10:40:19.381Z</time>
      </trkpt>
      <trkpt lat="46.01853" lon="4.92632">
        <ele>284.600006104</ele>
        <time>2015-12-22T10:40:20.359Z</time>
      </trkpt>
      <trkpt lat="46.01856" lon="4.92639">
        <ele>284.600006104</ele>
        <time>2015-12-22T10:40:21.384Z</time>
      </trkpt>
      <trkpt lat="46.01859" lon="4.92647">
        <ele>284.600006104</ele>
        <time>2015-12-22T10:40:22.375Z</time>
      </trkpt>
      <trkpt lat="46.01863" lon="4.92655">
        <ele>284.5</ele>
        <time>2015-12-22T10:40:23.395Z</time>
      </trkpt>
      <trkpt lat="46.01866" lon="4.92663">
        <ele>284.5</ele>
        <time>2015-12-22T10:40:24.358Z</time>
      </trkpt>
      <trkpt lat="46.01869" lon="4.9267">
        <ele>284.700012207</ele>
        <time>2015-12-22T10:40:25.381Z</time>
      </trkpt>
      <trkpt lat="46.01872" lon="4.92678">
        <ele>285.200012207</ele>
        <time>2015-12-22T10:40:26.36Z</time>
      </trkpt>
      <trkpt lat="46.01876" lon="4.92686">
        <ele>285.5</ele>
        <time>2015-12-22T10:40:27.379Z</time>
      </trkpt>
      <trkpt lat="46.01879" lon="4.92693">
        <ele>285.799987793</ele>
        <time>2015-12-22T10:40:28.359Z</time>
      </trkpt>
      <trkpt lat="46.01883" lon="4.927">
        <ele>286.100006104</ele>
        <time>2015-12-22T10:40:29.4Z</time>
      </trkpt>
      <trkpt lat="46.01886" lon="4.92707">
        <ele>286.299987793</ele>
        <time>2015-12-22T10:40:30.365Z</time>
      </trkpt>
      <trkpt lat="46.01889" lon="4.92714">
        <ele>286.399993896</ele>
        <time>2015-12-22T10:40:31.382Z</time>
      </trkpt>
      <trkpt lat="46.01891" lon="4.9272">
        <ele>287</ele>
        <time>2015-12-22T10:40:32.359Z</time>
      </trkpt>
      <trkpt lat="46.01894" lon="4.92725">
        <ele>287.200012207</ele>
        <time>2015-12-22T10:40:33.379Z</time>
      </trkpt>
      <trkpt lat="46.01896" lon="4.92731">
        <ele>287.700012207</ele>
        <time>2015-12-22T10:40:34.358Z</time>
      </trkpt>
      <trkpt lat="46.01899" lon="4.92737">
        <ele>288.100006104</ele>
        <time>2015-12-22T10:40:35.377Z</time>
      </trkpt>
      <trkpt lat="46.01902" lon="4.92742">
        <ele>288.399993896</ele>
        <time>2015-12-22T10:40:36.36Z</time>
      </trkpt>
      <trkpt lat="46.01904" lon="4.92748">
        <ele>288.5</ele>
        <time>2015-12-22T10:40:37.382Z</time>
      </trkpt>
      <trkpt lat="46.01907" lon="4.92755">
        <ele>288.899993896</ele>
        <time>2015-12-22T10:40:38.36Z</time>
      </trkpt>
      <trkpt lat="46.0191" lon="4.92761">
        <ele>289.100006104</ele>
        <time>2015-12-22T10:40:39.383Z</time>
      </trkpt>
      <trkpt lat="46.01912" lon="4.92768">
        <ele>289.399993896</ele>
        <time>2015-12-22T10:40:40.358Z</time>
      </trkpt>
      <trkpt lat="46.01915" lon="4.92774">
        <ele>289.600006104</ele>
        <time>2015-12-22T10:40:41.377Z</time>
      </trkpt>
      <trkpt lat="46.01918" lon="4.9278">
        <ele>290</ele>
        <time>2015-12-22T10:40:42.359Z</time>
      </trkpt>
      <trkpt lat="46.0192" lon="4.92787">
        <ele>290.100006104</ele>
        <time>2015-12-22T10:40:43.395Z</time>
      </trkpt>
      <trkpt lat="46.01924" lon="4.92794">
        <ele>290.299987793</ele>
        <time>2015-12-22T10:40:44.359Z</time>
      </trkpt>
      <trkpt lat="46.01927" lon="4.92802">
        <ele>291</ele>
        <time>2015-12-22T10:40:45.385Z</time>
      </trkpt>
      <trkpt lat="46.0193" lon="4.92809">
        <ele>290.799987793</ele>
        <time>2015-12-22T10:40:46.359Z</time>
      </trkpt>
      <trkpt lat="46.01932" lon="4.92816">
        <ele>290.799987793</ele>
        <time>2015-12-22T10:40:47.377Z</time>
      </trkpt>
      <trkpt lat="46.01935" lon="4.92822">
        <ele>290.799987793</ele>
        <time>2015-12-22T10:40:48.361Z</time>
      </trkpt>
      <trkpt lat="46.01938" lon="4.92829">
        <ele>290.700012207</ele>
        <time>2015-12-22T10:40:49.384Z</time>
      </trkpt>
      <trkpt lat="46.01941" lon="4.92835">
        <ele>290.799987793</ele>
        <time>2015-12-22T10:40:50.358Z</time>
      </trkpt>
      <trkpt lat="46.01944" lon="4.92842">
        <ele>290.5</ele>
        <time>2015-12-22T10:40:51.386Z</time>
      </trkpt>
      <trkpt lat="46.01947" lon="4.92848">
        <ele>290.299987793</ele>
        <time>2015-12-22T10:40:52.36Z</time>
      </trkpt>
      <trkpt lat="46.0195" lon="4.92852">
        <ele>289.600006104</ele>
        <time>2015-12-22T10:40:53.377Z</time>
      </trkpt>
      <trkpt lat="46.01953" lon="4.92857">
        <ele>289.299987793</ele>
        <time>2015-12-22T10:40:54.359Z</time>
      </trkpt>
      <trkpt lat="46.01956" lon="4.92869">
        <ele>289.700012207</ele>
        <time>2015-12-22T10:40:56.383Z</time>
      </trkpt>
      <trkpt lat="46.01955" lon="4.92874">
        <ele>289.799987793</ele>
        <time>2015-12-22T10:40:57.362Z</time>
      </trkpt>
      <trkpt lat="46.01953" lon="4.9288">
        <ele>289.600006104</ele>
        <time>2015-12-22T10:40:58.381Z</time>
      </trkpt>
      <trkpt lat="46.01951" lon="4.92887">
        <ele>289.5</ele>
        <time>2015-12-22T10:40:59.383Z</time>
      </trkpt>
      <trkpt lat="46.01949" lon="4.92893">
        <ele>289.600006104</ele>
        <time>2015-12-22T10:41:00.377Z</time>
      </trkpt>
      <trkpt lat="46.01947" lon="4.929">
        <ele>289.700012207</ele>
        <time>2015-12-22T10:41:01.362Z</time>
      </trkpt>
      <trkpt lat="46.01945" lon="4.92907">
        <ele>289.899993896</ele>
        <time>2015-12-22T10:41:02.378Z</time>
      </trkpt>
      <trkpt lat="46.01944" lon="4.92914">
        <ele>290.100006104</ele>
        <time>2015-12-22T10:41:03.361Z</time>
      </trkpt>
      <trkpt lat="46.01942" lon="4.92921">
        <ele>289.899993896</ele>
        <time>2015-12-22T10:41:04.378Z</time>
      </trkpt>
      <trkpt lat="46.01941" lon="4.92929">
        <ele>289.399993896</ele>
        <time>2015-12-22T10:41:05.387Z</time>
      </trkpt>
      <trkpt lat="46.01939" lon="4.92936">
        <ele>289.399993896</ele>
        <time>2015-12-22T10:41:06.377Z</time>
      </trkpt>
      <trkpt lat="46.01937" lon="4.92942">
        <ele>289.399993896</ele>
        <time>2015-12-22T10:41:07.363Z</time>
      </trkpt>
      <trkpt lat="46.01935" lon="4.9295">
        <ele>289.5</ele>
        <time>2015-12-22T10:41:08.379Z</time>
      </trkpt>
      <trkpt lat="46.01934" lon="4.92957">
        <ele>289.700012207</ele>
        <time>2015-12-22T10:41:09.359Z</time>
      </trkpt>
      <trkpt lat="46.01932" lon="4.92964">
        <ele>289.700012207</ele>
        <time>2015-12-22T10:41:10.378Z</time>
      </trkpt>
      <trkpt lat="46.0193" lon="4.92971">
        <ele>290</ele>
        <time>2015-12-22T10:41:11.359Z</time>
      </trkpt>
      <trkpt lat="46.01929" lon="4.92978">
        <ele>290.399993896</ele>
        <time>2015-12-22T10:41:12.379Z</time>
      </trkpt>
      <trkpt lat="46.01927" lon="4.92985">
        <ele>290.799987793</ele>
        <time>2015-12-22T10:41:13.362Z</time>
      </trkpt>
      <trkpt lat="46.01925" lon="4.92992">
        <ele>291</ele>
        <time>2015-12-22T10:41:14.399Z</time>
      </trkpt>
      <trkpt lat="46.01924" lon="4.93">
        <ele>291.100006104</ele>
        <time>2015-12-22T10:41:15.361Z</time>
      </trkpt>
      <trkpt lat="46.01922" lon="4.93006">
        <ele>291.700012207</ele>
        <time>2015-12-22T10:41:16.377Z</time>
      </trkpt>
      <trkpt lat="46.0192" lon="4.93013">
        <ele>292.5</ele>
        <time>2015-12-22T10:41:17.359Z</time>
      </trkpt>
      <trkpt lat="46.01918" lon="4.9302">
        <ele>293</ele>
        <time>2015-12-22T10:41:18.378Z</time>
      </trkpt>
      <trkpt lat="46.01916" lon="4.93027">
        <ele>293</ele>
        <time>2015-12-22T10:41:19.362Z</time>
      </trkpt>
      <trkpt lat="46.01914" lon="4.93034">
        <ele>293.600006104</ele>
        <time>2015-12-22T10:41:20.392Z</time>
      </trkpt>
      <trkpt lat="46.01913" lon="4.93041">
        <ele>293.899993896</ele>
        <time>2015-12-22T10:41:21.36Z</time>
      </trkpt>
      <trkpt lat="46.01911" lon="4.93047">
        <ele>294.299987793</ele>
        <time>2015-12-22T10:41:22.398Z</time>
      </trkpt>
      <trkpt lat="46.01909" lon="4.93054">
        <ele>294.5</ele>
        <time>2015-12-22T10:41:23.36Z</time>
      </trkpt>
      <trkpt lat="46.01908" lon="4.93062">
        <ele>294.899993896</ele>
        <time>2015-12-22T10:41:24.377Z</time>
      </trkpt>
      <trkpt lat="46.01906" lon="4.93069">
        <ele>295.299987793</ele>
        <time>2015-12-22T10:41:25.362Z</time>
      </trkpt>
      <trkpt lat="46.01905" lon="4.93076">
        <ele>295.700012207</ele>
        <time>2015-12-22T10:41:26.379Z</time>
      </trkpt>
      <trkpt lat="46.01903" lon="4.93082">
        <ele>296</ele>
        <time>2015-12-22T10:41:27.352Z</time>
      </trkpt>
      <trkpt lat="46.01901" lon="4.93088">
        <ele>296.899993896</ele>
        <time>2015-12-22T10:41:28.38Z</time>
      </trkpt>
      <trkpt lat="46.019" lon="4.93095">
        <ele>297.600006104</ele>
        <time>2015-12-22T10:41:29.358Z</time>
      </trkpt>
      <trkpt lat="46.01898" lon="4.93101">
        <ele>297.799987793</ele>
        <time>2015-12-22T10:41:30.378Z</time>
      </trkpt>
      <trkpt lat="46.01897" lon="4.93108">
        <ele>298.299987793</ele>
        <time>2015-12-22T10:41:31.362Z</time>
      </trkpt>
      <trkpt lat="46.01896" lon="4.93115">
        <ele>298.700012207</ele>
        <time>2015-12-22T10:41:32.377Z</time>
      </trkpt>
      <trkpt lat="46.01895" lon="4.93122">
        <ele>299</ele>
        <time>2015-12-22T10:41:33.359Z</time>
      </trkpt>
      <trkpt lat="46.01893" lon="4.93128">
        <ele>299.299987793</ele>
        <time>2015-12-22T10:41:34.377Z</time>
      </trkpt>
      <trkpt lat="46.01893" lon="4.93135">
        <ele>299.799987793</ele>
        <time>2015-12-22T10:41:35.358Z</time>
      </trkpt>
      <trkpt lat="46.01893" lon="4.93142">
        <ele>299.399993896</ele>
        <time>2015-12-22T10:41:36.393Z</time>
      </trkpt>
      <trkpt lat="46.01893" lon="4.9315">
        <ele>299.600006104</ele>
        <time>2015-12-22T10:41:37.362Z</time>
      </trkpt>
      <trkpt lat="46.01893" lon="4.93157">
        <ele>300</ele>
        <time>2015-12-22T10:41:38.38Z</time>
      </trkpt>
      <trkpt lat="46.01893" lon="4.93164">
        <ele>300.200012207</ele>
        <time>2015-12-22T10:41:39.359Z</time>
      </trkpt>
      <trkpt lat="46.01892" lon="4.93171">
        <ele>300.700012207</ele>
        <time>2015-12-22T10:41:40.378Z</time>
      </trkpt>
      <trkpt lat="46.01893" lon="4.93179">
        <ele>300.899993896</ele>
        <time>2015-12-22T10:41:41.358Z</time>
      </trkpt>
      <trkpt lat="46.01893" lon="4.93186">
        <ele>301.299987793</ele>
        <time>2015-12-22T10:41:42.385Z</time>
      </trkpt>
      <trkpt lat="46.01893" lon="4.93193">
        <ele>301.200012207</ele>
        <time>2015-12-22T10:41:43.361Z</time>
      </trkpt>
      <trkpt lat="46.01893" lon="4.932">
        <ele>301.100006104</ele>
        <time>2015-12-22T10:41:44.5Z</time>
      </trkpt>
      <trkpt lat="46.01894" lon="4.93207">
        <ele>301.299987793</ele>
        <time>2015-12-22T10:41:45.36Z</time>
      </trkpt>
      <trkpt lat="46.01894" lon="4.93213">
        <ele>301.299987793</ele>
        <time>2015-12-22T10:41:46.378Z</time>
      </trkpt>
      <trkpt lat="46.01895" lon="4.9322">
        <ele>301.5</ele>
        <time>2015-12-22T10:41:47.359Z</time>
      </trkpt>
      <trkpt lat="46.01895" lon="4.93227">
        <ele>301.700012207</ele>
        <time>2015-12-22T10:41:48.384Z</time>
      </trkpt>
      <trkpt lat="46.01895" lon="4.93234">
        <ele>301.700012207</ele>
        <time>2015-12-22T10:41:49.358Z</time>
      </trkpt>
      <trkpt lat="46.01894" lon="4.93241">
        <ele>301.799987793</ele>
        <time>2015-12-22T10:41:50.378Z</time>
      </trkpt>
      <trkpt lat="46.01893" lon="4.93248">
        <ele>302</ele>
        <time>2015-12-22T10:41:51.359Z</time>
      </trkpt>
      <trkpt lat="46.01893" lon="4.93255">
        <ele>302.200012207</ele>
        <time>2015-12-22T10:41:52.384Z</time>
      </trkpt>
      <trkpt lat="46.01893" lon="4.93262">
        <ele>302.399993896</ele>
        <time>2015-12-22T10:41:53.359Z</time>
      </trkpt>
      <trkpt lat="46.01892" lon="4.93269">
        <ele>302.399993896</ele>
        <time>2015-12-22T10:41:54.402Z</time>
      </trkpt>
      <trkpt lat="46.01891" lon="4.93277">
        <ele>302.5</ele>
        <time>2015-12-22T10:41:55.363Z</time>
      </trkpt>
      <trkpt lat="46.0189" lon="4.93284">
        <ele>302.700012207</ele>
        <time>2015-12-22T10:41:56.377Z</time>
      </trkpt>
      <trkpt lat="46.01889" lon="4.93291">
        <ele>302.899993896</ele>
        <time>2015-12-22T10:41:57.361Z</time>
      </trkpt>
      <trkpt lat="46.01887" lon="4.93299">
        <ele>302.799987793</ele>
        <time>2015-12-22T10:41:58.38Z</time>
      </trkpt>
      <trkpt lat="46.01886" lon="4.93306">
        <ele>303.200012207</ele>
        <time>2015-12-22T10:41:59.382Z</time>
      </trkpt>
      <trkpt lat="46.01885" lon="4.93313">
        <ele>303.299987793</ele>
        <time>2015-12-22T10:42:00.378Z</time>
      </trkpt>
      <trkpt lat="46.01883" lon="4.9332">
        <ele>303.200012207</ele>
        <time>2015-12-22T10:42:01.362Z</time>
      </trkpt>
      <trkpt lat="46.01881" lon="4.93327">
        <ele>303.5</ele>
        <time>2015-12-22T10:42:02.392Z</time>
      </trkpt>
      <trkpt lat="46.0188" lon="4.93334">
        <ele>303.5</ele>
        <time>2015-12-22T10:42:03.359Z</time>
      </trkpt>
      <trkpt lat="46.01878" lon="4.93342">
        <ele>304.299987793</ele>
        <time>2015-12-22T10:42:04.384Z</time>
      </trkpt>
      <trkpt lat="46.01876" lon="4.93349">
        <ele>304.200012207</ele>
        <time>2015-12-22T10:42:05.407Z</time>
      </trkpt>
      <trkpt lat="46.01875" lon="4.93357">
        <ele>304.100006104</ele>
        <time>2015-12-22T10:42:06.378Z</time>
      </trkpt>
      <trkpt lat="46.01873" lon="4.93364">
        <ele>304.399993896</ele>
        <time>2015-12-22T10:42:07.363Z</time>
      </trkpt>
      <trkpt lat="46.01871" lon="4.93372">
        <ele>304.5</ele>
        <time>2015-12-22T10:42:08.379Z</time>
      </trkpt>
      <trkpt lat="46.01868" lon="4.9338">
        <ele>304.700012207</ele>
        <time>2015-12-22T10:42:09.36Z</time>
      </trkpt>
      <trkpt lat="46.01866" lon="4.93388">
        <ele>304.899993896</ele>
        <time>2015-12-22T10:42:10.385Z</time>
      </trkpt>
      <trkpt lat="46.01863" lon="4.93396">
        <ele>305</ele>
        <time>2015-12-22T10:42:11.36Z</time>
      </trkpt>
      <trkpt lat="46.01861" lon="4.93403">
        <ele>304.700012207</ele>
        <time>2015-12-22T10:42:12.379Z</time>
      </trkpt>
      <trkpt lat="46.01859" lon="4.93411">
        <ele>304.700012207</ele>
        <time>2015-12-22T10:42:13.362Z</time>
      </trkpt>
      <trkpt lat="46.01856" lon="4.93419">
        <ele>304.899993896</ele>
        <time>2015-12-22T10:42:14.377Z</time>
      </trkpt>
      <trkpt lat="46.01854" lon="4.93426">
        <ele>304.799987793</ele>
        <time>2015-12-22T10:42:15.36Z</time>
      </trkpt>
      <trkpt lat="46.01852" lon="4.93434">
        <ele>304.600006104</ele>
        <time>2015-12-22T10:42:16.379Z</time>
      </trkpt>
      <trkpt lat="46.0185" lon="4.9344">
        <ele>304.5</ele>
        <time>2015-12-22T10:42:17.36Z</time>
      </trkpt>
      <trkpt lat="46.01848" lon="4.93447">
        <ele>304.399993896</ele>
        <time>2015-12-22T10:42:18.395Z</time>
      </trkpt>
      <trkpt lat="46.01846" lon="4.93455">
        <ele>304.200012207</ele>
        <time>2015-12-22T10:42:19.362Z</time>
      </trkpt>
      <trkpt lat="46.01844" lon="4.93462">
        <ele>303.700012207</ele>
        <time>2015-12-22T10:42:20.377Z</time>
      </trkpt>
      <trkpt lat="46.01842" lon="4.9347">
        <ele>304</ele>
        <time>2015-12-22T10:42:21.36Z</time>
      </trkpt>
      <trkpt lat="46.01841" lon="4.93478">
        <ele>303.799987793</ele>
        <time>2015-12-22T10:42:22.377Z</time>
      </trkpt>
      <trkpt lat="46.0184" lon="4.93486">
        <ele>303.399993896</ele>
        <time>2015-12-22T10:42:23.358Z</time>
      </trkpt>
      <trkpt lat="46.0184" lon="4.93494">
        <ele>302.5</ele>
        <time>2015-12-22T10:42:24.38Z</time>
      </trkpt>
      <trkpt lat="46.01841" lon="4.93502">
        <ele>302.5</ele>
        <time>2015-12-22T10:42:25.362Z</time>
      </trkpt>
      <trkpt lat="46.01844" lon="4.9351">
        <ele>301.700012207</ele>
        <time>2015-12-22T10:42:26.437Z</time>
      </trkpt>
      <trkpt lat="46.01848" lon="4.93518">
        <ele>300.700012207</ele>
        <time>2015-12-22T10:42:27.361Z</time>
      </trkpt>
      <trkpt lat="46.01851" lon="4.93527">
        <ele>300</ele>
        <time>2015-12-22T10:42:28.379Z</time>
      </trkpt>
      <trkpt lat="46.01855" lon="4.93534">
        <ele>299.5</ele>
        <time>2015-12-22T10:42:29.36Z</time>
      </trkpt>
      <trkpt lat="46.01858" lon="4.93542">
        <ele>299.299987793</ele>
        <time>2015-12-22T10:42:30.378Z</time>
      </trkpt>
      <trkpt lat="46.01861" lon="4.93549">
        <ele>299.100006104</ele>
        <time>2015-12-22T10:42:31.362Z</time>
      </trkpt>
      <trkpt lat="46.01865" lon="4.93556">
        <ele>298.799987793</ele>
        <time>2015-12-22T10:42:32.379Z</time>
      </trkpt>
      <trkpt lat="46.01867" lon="4.93564">
        <ele>298.399993896</ele>
        <time>2015-12-22T10:42:33.36Z</time>
      </trkpt>
      <trkpt lat="46.0187" lon="4.93571">
        <ele>298.200012207</ele>
        <time>2015-12-22T10:42:34.393Z</time>
      </trkpt>
      <trkpt lat="46.01873" lon="4.93578">
        <ele>297.799987793</ele>
        <time>2015-12-22T10:42:35.358Z</time>
      </trkpt>
      <trkpt lat="46.01876" lon="4.93584">
        <ele>297.600006104</ele>
        <time>2015-12-22T10:42:36.378Z</time>
      </trkpt>
      <trkpt lat="46.01879" lon="4.93591">
        <ele>297.200012207</ele>
        <time>2015-12-22T10:42:37.363Z</time>
      </trkpt>
      <trkpt lat="46.01882" lon="4.93599">
        <ele>296.899993896</ele>
        <time>2015-12-22T10:42:38.381Z</time>
      </trkpt>
      <trkpt lat="46.01885" lon="4.93606">
        <ele>296.399993896</ele>
        <time>2015-12-22T10:42:39.361Z</time>
      </trkpt>
      <trkpt lat="46.01888" lon="4.93614">
        <ele>295.600006104</ele>
        <time>2015-12-22T10:42:40.377Z</time>
      </trkpt>
      <trkpt lat="46.01892" lon="4.93622">
        <ele>294.399993896</ele>
        <time>2015-12-22T10:42:41.358Z</time>
      </trkpt>
      <trkpt lat="46.01896" lon="4.9363">
        <ele>293.399993896</ele>
        <time>2015-12-22T10:42:42.401Z</time>
      </trkpt>
      <trkpt lat="46.01899" lon="4.93637">
        <ele>293.200012207</ele>
        <time>2015-12-22T10:42:43.363Z</time>
      </trkpt>
      <trkpt lat="46.01903" lon="4.93645">
        <ele>293.200012207</ele>
        <time>2015-12-22T10:42:44.399Z</time>
      </trkpt>
      <trkpt lat="46.01907" lon="4.93654">
        <ele>293.100006104</ele>
        <time>2015-12-22T10:42:45.359Z</time>
      </trkpt>
      <trkpt lat="46.01911" lon="4.93661">
        <ele>292.899993896</ele>
        <time>2015-12-22T10:42:46.378Z</time>
      </trkpt>
      <trkpt lat="46.01914" lon="4.93669">
        <ele>292.899993896</ele>
        <time>2015-12-22T10:42:47.368Z</time>
      </trkpt>
      <trkpt lat="46.01918" lon="4.93676">
        <ele>292.299987793</ele>
        <time>2015-12-22T10:42:48.388Z</time>
      </trkpt>
      <trkpt lat="46.01922" lon="4.93684">
        <ele>292.100006104</ele>
        <time>2015-12-22T10:42:49.365Z</time>
      </trkpt>
      <trkpt lat="46.01925" lon="4.9369">
        <ele>291.5</ele>
        <time>2015-12-22T10:42:50.381Z</time>
      </trkpt>
      <trkpt lat="46.01928" lon="4.93697">
        <ele>291.399993896</ele>
        <time>2015-12-22T10:42:51.36Z</time>
      </trkpt>
      <trkpt lat="46.01932" lon="4.93704">
        <ele>291.299987793</ele>
        <time>2015-12-22T10:42:52.377Z</time>
      </trkpt>
      <trkpt lat="46.01936" lon="4.9371">
        <ele>291.200012207</ele>
        <time>2015-12-22T10:42:53.358Z</time>
      </trkpt>
      <trkpt lat="46.0194" lon="4.93716">
        <ele>291.200012207</ele>
        <time>2015-12-22T10:42:54.377Z</time>
      </trkpt>
      <trkpt lat="46.01944" lon="4.93723">
        <ele>291</ele>
        <time>2015-12-22T10:42:55.362Z</time>
      </trkpt>
      <trkpt lat="46.01948" lon="4.9373">
        <ele>290.5</ele>
        <time>2015-12-22T10:42:56.378Z</time>
      </trkpt>
      <trkpt lat="46.01952" lon="4.93737">
        <ele>290.299987793</ele>
        <time>2015-12-22T10:42:57.359Z</time>
      </trkpt>
      <trkpt lat="46.01956" lon="4.93744">
        <ele>289.600006104</ele>
        <time>2015-12-22T10:42:58.381Z</time>
      </trkpt>
      <trkpt lat="46.01961" lon="4.93751">
        <ele>289.5</ele>
        <time>2015-12-22T10:42:59.358Z</time>
      </trkpt>
      <trkpt lat="46.01966" lon="4.93757">
        <ele>289.399993896</ele>
        <time>2015-12-22T10:43:00.378Z</time>
      </trkpt>
      <trkpt lat="46.0197" lon="4.93763">
        <ele>289.299987793</ele>
        <time>2015-12-22T10:43:01.363Z</time>
      </trkpt>
      <trkpt lat="46.01975" lon="4.93769">
        <ele>289.200012207</ele>
        <time>2015-12-22T10:43:02.378Z</time>
      </trkpt>
      <trkpt lat="46.01979" lon="4.93775">
        <ele>289</ele>
        <time>2015-12-22T10:43:03.36Z</time>
      </trkpt>
      <trkpt lat="46.01984" lon="4.93781">
        <ele>288.799987793</ele>
        <time>2015-12-22T10:43:04.377Z</time>
      </trkpt>
      <trkpt lat="46.01988" lon="4.93788">
        <ele>288.899993896</ele>
        <time>2015-12-22T10:43:05.358Z</time>
      </trkpt>
      <trkpt lat="46.01992" lon="4.93794">
        <ele>288.799987793</ele>
        <time>2015-12-22T10:43:06.378Z</time>
      </trkpt>
      <trkpt lat="46.01997" lon="4.938">
        <ele>288.899993896</ele>
        <time>2015-12-22T10:43:07.361Z</time>
      </trkpt>
      <trkpt lat="46.02001" lon="4.93805">
        <ele>289</ele>
        <time>2015-12-22T10:43:08.386Z</time>
      </trkpt>
      <trkpt lat="46.02006" lon="4.93811">
        <ele>288.899993896</ele>
        <time>2015-12-22T10:43:09.361Z</time>
      </trkpt>
      <trkpt lat="46.0201" lon="4.93817">
        <ele>288.899993896</ele>
        <time>2015-12-22T10:43:10.4Z</time>
      </trkpt>
      <trkpt lat="46.02015" lon="4.93824">
        <ele>288.700012207</ele>
        <time>2015-12-22T10:43:11.358Z</time>
      </trkpt>
      <trkpt lat="46.02019" lon="4.93831">
        <ele>288.600006104</ele>
        <time>2015-12-22T10:43:12.377Z</time>
      </trkpt>
      <trkpt lat="46.02024" lon="4.93837">
        <ele>288.299987793</ele>
        <time>2015-12-22T10:43:13.363Z</time>
      </trkpt>
      <trkpt lat="46.02029" lon="4.93844">
        <ele>288.200012207</ele>
        <time>2015-12-22T10:43:14.378Z</time>
      </trkpt>
      <trkpt lat="46.02033" lon="4.93852">
        <ele>288.100006104</ele>
        <time>2015-12-22T10:43:15.36Z</time>
      </trkpt>
      <trkpt lat="46.02038" lon="4.93859">
        <ele>287.899993896</ele>
        <time>2015-12-22T10:43:16.419Z</time>
      </trkpt>
      <trkpt lat="46.02043" lon="4.93866">
        <ele>287.799987793</ele>
        <time>2015-12-22T10:43:17.359Z</time>
      </trkpt>
      <trkpt lat="46.02047" lon="4.93875">
        <ele>287.399993896</ele>
        <time>2015-12-22T10:43:18.38Z</time>
      </trkpt>
      <trkpt lat="46.02051" lon="4.93882">
        <ele>287.100006104</ele>
        <time>2015-12-22T10:43:19.361Z</time>
      </trkpt>
      <trkpt lat="46.02054" lon="4.93889">
        <ele>286.899993896</ele>
        <time>2015-12-22T10:43:20.377Z</time>
      </trkpt>
      <trkpt lat="46.02059" lon="4.93898">
        <ele>286.799987793</ele>
        <time>2015-12-22T10:43:21.399Z</time>
      </trkpt>
      <trkpt lat="46.02063" lon="4.93905">
        <ele>287</ele>
        <time>2015-12-22T10:43:22.378Z</time>
      </trkpt>
      <trkpt lat="46.02067" lon="4.93913">
        <ele>287.299987793</ele>
        <time>2015-12-22T10:43:23.36Z</time>
      </trkpt>
      <trkpt lat="46.02071" lon="4.93919">
        <ele>287.5</ele>
        <time>2015-12-22T10:43:24.377Z</time>
      </trkpt>
      <trkpt lat="46.02075" lon="4.93926">
        <ele>287.600006104</ele>
        <time>2015-12-22T10:43:25.361Z</time>
      </trkpt>
      <trkpt lat="46.02079" lon="4.93933">
        <ele>287.600006104</ele>
        <time>2015-12-22T10:43:26.392Z</time>
      </trkpt>
      <trkpt lat="46.02082" lon="4.93941">
        <ele>287.799987793</ele>
        <time>2015-12-22T10:43:27.359Z</time>
      </trkpt>
      <trkpt lat="46.02086" lon="4.93948">
        <ele>287.799987793</ele>
        <time>2015-12-22T10:43:28.381Z</time>
      </trkpt>
      <trkpt lat="46.02089" lon="4.93956">
        <ele>287.799987793</ele>
        <time>2015-12-22T10:43:29.383Z</time>
      </trkpt>
      <trkpt lat="46.02091" lon="4.93963">
        <ele>288</ele>
        <time>2015-12-22T10:43:30.378Z</time>
      </trkpt>
      <trkpt lat="46.02094" lon="4.93972">
        <ele>286.799987793</ele>
        <time>2015-12-22T10:43:31.362Z</time>
      </trkpt>
      <trkpt lat="46.02097" lon="4.9398">
        <ele>286.799987793</ele>
        <time>2015-12-22T10:43:32.377Z</time>
      </trkpt>
      <trkpt lat="46.02099" lon="4.93988">
        <ele>286.700012207</ele>
        <time>2015-12-22T10:43:33.359Z</time>
      </trkpt>
      <trkpt lat="46.02102" lon="4.93997">
        <ele>286.700012207</ele>
        <time>2015-12-22T10:43:34.382Z</time>
      </trkpt>
      <trkpt lat="46.02104" lon="4.94007">
        <ele>286.700012207</ele>
        <time>2015-12-22T10:43:35.358Z</time>
      </trkpt>
      <trkpt lat="46.02106" lon="4.94016">
        <ele>286.600006104</ele>
        <time>2015-12-22T10:43:36.377Z</time>
      </trkpt>
      <trkpt lat="46.02108" lon="4.94026">
        <ele>286.600006104</ele>
        <time>2015-12-22T10:43:37.362Z</time>
      </trkpt>
      <trkpt lat="46.02111" lon="4.94035">
        <ele>286.700012207</ele>
        <time>2015-12-22T10:43:38.423Z</time>
      </trkpt>
      <trkpt lat="46.02113" lon="4.94044">
        <ele>286.600006104</ele>
        <time>2015-12-22T10:43:39.359Z</time>
      </trkpt>
      <trkpt lat="46.02116" lon="4.94053">
        <ele>286.700012207</ele>
        <time>2015-12-22T10:43:40.377Z</time>
      </trkpt>
      <trkpt lat="46.02118" lon="4.94062">
        <ele>286.899993896</ele>
        <time>2015-12-22T10:43:41.358Z</time>
      </trkpt>
      <trkpt lat="46.02121" lon="4.94072">
        <ele>287</ele>
        <time>2015-12-22T10:43:42.394Z</time>
      </trkpt>
      <trkpt lat="46.02123" lon="4.94081">
        <ele>287.100006104</ele>
        <time>2015-12-22T10:43:43.362Z</time>
      </trkpt>
      <trkpt lat="46.02125" lon="4.94091">
        <ele>287.200012207</ele>
        <time>2015-12-22T10:43:44.448Z</time>
      </trkpt>
      <trkpt lat="46.02128" lon="4.94101">
        <ele>287</ele>
        <time>2015-12-22T10:43:45.359Z</time>
      </trkpt>
      <trkpt lat="46.0213" lon="4.94111">
        <ele>287.299987793</ele>
        <time>2015-12-22T10:43:46.379Z</time>
      </trkpt>
      <trkpt lat="46.02132" lon="4.94121">
        <ele>287.399993896</ele>
        <time>2015-12-22T10:43:47.358Z</time>
      </trkpt>
      <trkpt lat="46.02134" lon="4.94131">
        <ele>287.299987793</ele>
        <time>2015-12-22T10:43:48.382Z</time>
      </trkpt>
      <trkpt lat="46.02137" lon="4.94141">
        <ele>287.200012207</ele>
        <time>2015-12-22T10:43:49.366Z</time>
      </trkpt>
      <trkpt lat="46.02139" lon="4.94152">
        <ele>287.5</ele>
        <time>2015-12-22T10:43:50.377Z</time>
      </trkpt>
      <trkpt lat="46.02141" lon="4.94162">
        <ele>287.700012207</ele>
        <time>2015-12-22T10:43:51.361Z</time>
      </trkpt>
      <trkpt lat="46.02144" lon="4.94172">
        <ele>287.700012207</ele>
        <time>2015-12-22T10:43:52.378Z</time>
      </trkpt>
      <trkpt lat="46.02146" lon="4.94182">
        <ele>287.899993896</ele>
        <time>2015-12-22T10:43:53.359Z</time>
      </trkpt>
      <trkpt lat="46.02148" lon="4.94191">
        <ele>288.100006104</ele>
        <time>2015-12-22T10:43:54.395Z</time>
      </trkpt>
      <trkpt lat="46.0215" lon="4.942">
        <ele>288.200012207</ele>
        <time>2015-12-22T10:43:55.361Z</time>
      </trkpt>
      <trkpt lat="46.02152" lon="4.94209">
        <ele>288.299987793</ele>
        <time>2015-12-22T10:43:56.378Z</time>
      </trkpt>
      <trkpt lat="46.02154" lon="4.94217">
        <ele>288.600006104</ele>
        <time>2015-12-22T10:43:57.36Z</time>
      </trkpt>
      <trkpt lat="46.02156" lon="4.94226">
        <ele>288.600006104</ele>
        <time>2015-12-22T10:43:58.395Z</time>
      </trkpt>
      <trkpt lat="46.02159" lon="4.94235">
        <ele>288.799987793</ele>
        <time>2015-12-22T10:43:59.36Z</time>
      </trkpt>
      <trkpt lat="46.02161" lon="4.94243">
        <ele>288.799987793</ele>
        <time>2015-12-22T10:44:00.377Z</time>
      </trkpt>
      <trkpt lat="46.02163" lon="4.94253">
        <ele>289</ele>
        <time>2015-12-22T10:44:01.362Z</time>
      </trkpt>
      <trkpt lat="46.02165" lon="4.94262">
        <ele>288.899993896</ele>
        <time>2015-12-22T10:44:02.378Z</time>
      </trkpt>
      <trkpt lat="46.02168" lon="4.94273">
        <ele>289</ele>
        <time>2015-12-22T10:44:03.359Z</time>
      </trkpt>
      <trkpt lat="46.0217" lon="4.94283">
        <ele>289.200012207</ele>
        <time>2015-12-22T10:44:04.377Z</time>
      </trkpt>
      <trkpt lat="46.02172" lon="4.94293">
        <ele>289.200012207</ele>
        <time>2015-12-22T10:44:05.359Z</time>
      </trkpt>
      <trkpt lat="46.02175" lon="4.94303">
        <ele>289.200012207</ele>
        <time>2015-12-22T10:44:06.68Z</time>
      </trkpt>
      <trkpt lat="46.02178" lon="4.94313">
        <ele>289.5</ele>
        <time>2015-12-22T10:44:07.363Z</time>
      </trkpt>
      <trkpt lat="46.02181" lon="4.94323">
        <ele>289.600006104</ele>
        <time>2015-12-22T10:44:08.383Z</time>
      </trkpt>
      <trkpt lat="46.02183" lon="4.94333">
        <ele>289.5</ele>
        <time>2015-12-22T10:44:09.36Z</time>
      </trkpt>
      <trkpt lat="46.02186" lon="4.94344">
        <ele>289.5</ele>
        <time>2015-12-22T10:44:10.377Z</time>
      </trkpt>
      <trkpt lat="46.02188" lon="4.94355">
        <ele>289.200012207</ele>
        <time>2015-12-22T10:44:11.359Z</time>
      </trkpt>
      <trkpt lat="46.02191" lon="4.94365">
        <ele>288.799987793</ele>
        <time>2015-12-22T10:44:12.377Z</time>
      </trkpt>
      <trkpt lat="46.02193" lon="4.94375">
        <ele>288.700012207</ele>
        <time>2015-12-22T10:44:13.362Z</time>
      </trkpt>
      <trkpt lat="46.02196" lon="4.94384">
        <ele>288.600006104</ele>
        <time>2015-12-22T10:44:14.413Z</time>
      </trkpt>
      <trkpt lat="46.02198" lon="4.94394">
        <ele>288.299987793</ele>
        <time>2015-12-22T10:44:15.359Z</time>
      </trkpt>
      <trkpt lat="46.02201" lon="4.94403">
        <ele>288.5</ele>
        <time>2015-12-22T10:44:16.378Z</time>
      </trkpt>
      <trkpt lat="46.02203" lon="4.94411">
        <ele>288.700012207</ele>
        <time>2015-12-22T10:44:17.389Z</time>
      </trkpt>
      <trkpt lat="46.02205" lon="4.94421">
        <ele>288.100006104</ele>
        <time>2015-12-22T10:44:18.381Z</time>
      </trkpt>
      <trkpt lat="46.02207" lon="4.9443">
        <ele>288</ele>
        <time>2015-12-22T10:44:19.363Z</time>
      </trkpt>
      <trkpt lat="46.02209" lon="4.9444">
        <ele>287.799987793</ele>
        <time>2015-12-22T10:44:20.378Z</time>
      </trkpt>
      <trkpt lat="46.0221" lon="4.9445">
        <ele>287.5</ele>
        <time>2015-12-22T10:44:21.36Z</time>
      </trkpt>
      <trkpt lat="46.02211" lon="4.9446">
        <ele>287.299987793</ele>
        <time>2015-12-22T10:44:22.377Z</time>
      </trkpt>
      <trkpt lat="46.02213" lon="4.9447">
        <ele>287.100006104</ele>
        <time>2015-12-22T10:44:23.358Z</time>
      </trkpt>
      <trkpt lat="46.02215" lon="4.9448">
        <ele>286.899993896</ele>
        <time>2015-12-22T10:44:24.441Z</time>
      </trkpt>
      <trkpt lat="46.02217" lon="4.94489">
        <ele>286.899993896</ele>
        <time>2015-12-22T10:44:25.362Z</time>
      </trkpt>
      <trkpt lat="46.02219" lon="4.94499">
        <ele>286.799987793</ele>
        <time>2015-12-22T10:44:26.377Z</time>
      </trkpt>
      <trkpt lat="46.02222" lon="4.94508">
        <ele>286.899993896</ele>
        <time>2015-12-22T10:44:27.359Z</time>
      </trkpt>
      <trkpt lat="46.02224" lon="4.94517">
        <ele>287.5</ele>
        <time>2015-12-22T10:44:28.38Z</time>
      </trkpt>
      <trkpt lat="46.02227" lon="4.94526">
        <ele>287.799987793</ele>
        <time>2015-12-22T10:44:29.358Z</time>
      </trkpt>
      <trkpt lat="46.02229" lon="4.94535">
        <ele>287.799987793</ele>
        <time>2015-12-22T10:44:30.377Z</time>
      </trkpt>
      <trkpt lat="46.02232" lon="4.94544">
        <ele>287.700012207</ele>
        <time>2015-12-22T10:44:31.362Z</time>
      </trkpt>
      <trkpt lat="46.02235" lon="4.94553">
        <ele>287.5</ele>
        <time>2015-12-22T10:44:32.377Z</time>
      </trkpt>
      <trkpt lat="46.02237" lon="4.94561">
        <ele>287.399993896</ele>
        <time>2015-12-22T10:44:33.406Z</time>
      </trkpt>
      <trkpt lat="46.0224" lon="4.9457">
        <ele>287.299987793</ele>
        <time>2015-12-22T10:44:34.391Z</time>
      </trkpt>
      <trkpt lat="46.02243" lon="4.94579">
        <ele>287.100006104</ele>
        <time>2015-12-22T10:44:35.359Z</time>
      </trkpt>
      <trkpt lat="46.02246" lon="4.94588">
        <ele>286.899993896</ele>
        <time>2015-12-22T10:44:36.403Z</time>
      </trkpt>
      <trkpt lat="46.02249" lon="4.94597">
        <ele>286.799987793</ele>
        <time>2015-12-22T10:44:37.361Z</time>
      </trkpt>
      <trkpt lat="46.02252" lon="4.94606">
        <ele>286.700012207</ele>
        <time>2015-12-22T10:44:38.428Z</time>
      </trkpt>
      <trkpt lat="46.02256" lon="4.94614">
        <ele>286.600006104</ele>
        <time>2015-12-22T10:44:39.359Z</time>
      </trkpt>
      <trkpt lat="46.02259" lon="4.94622">
        <ele>286.5</ele>
        <time>2015-12-22T10:44:40.511Z</time>
      </trkpt>
      <trkpt lat="46.02263" lon="4.9463">
        <ele>286.5</ele>
        <time>2015-12-22T10:44:41.358Z</time>
      </trkpt>
      <trkpt lat="46.02266" lon="4.94637">
        <ele>286.5</ele>
        <time>2015-12-22T10:44:42.377Z</time>
      </trkpt>
      <trkpt lat="46.02269" lon="4.94645">
        <ele>286.5</ele>
        <time>2015-12-22T10:44:43.362Z</time>
      </trkpt>
      <trkpt lat="46.02272" lon="4.94652">
        <ele>286.5</ele>
        <time>2015-12-22T10:44:44.377Z</time>
      </trkpt>
      <trkpt lat="46.02275" lon="4.9466">
        <ele>286.399993896</ele>
        <time>2015-12-22T10:44:45.375Z</time>
      </trkpt>
      <trkpt lat="46.02278" lon="4.94668">
        <ele>286.200012207</ele>
        <time>2015-12-22T10:44:46.377Z</time>
      </trkpt>
      <trkpt lat="46.02281" lon="4.94675">
        <ele>286.100006104</ele>
        <time>2015-12-22T10:44:47.358Z</time>
      </trkpt>
      <trkpt lat="46.02284" lon="4.94683">
        <ele>286</ele>
        <time>2015-12-22T10:44:48.38Z</time>
      </trkpt>
      <trkpt lat="46.02286" lon="4.94691">
        <ele>285.799987793</ele>
        <time>2015-12-22T10:44:49.364Z</time>
      </trkpt>
      <trkpt lat="46.02289" lon="4.94699">
        <ele>285.700012207</ele>
        <time>2015-12-22T10:44:50.379Z</time>
      </trkpt>
      <trkpt lat="46.02292" lon="4.94707">
        <ele>285.700012207</ele>
        <time>2015-12-22T10:44:51.36Z</time>
      </trkpt>
      <trkpt lat="46.02295" lon="4.94715">
        <ele>285.799987793</ele>
        <time>2015-12-22T10:44:52.438Z</time>
      </trkpt>
      <trkpt lat="46.02298" lon="4.94723">
        <ele>286</ele>
        <time>2015-12-22T10:44:53.358Z</time>
      </trkpt>
      <trkpt lat="46.02301" lon="4.94731">
        <ele>286.100006104</ele>
        <time>2015-12-22T10:44:54.377Z</time>
      </trkpt>
      <trkpt lat="46.02305" lon="4.94738">
        <ele>286.200012207</ele>
        <time>2015-12-22T10:44:55.362Z</time>
      </trkpt>
      <trkpt lat="46.02308" lon="4.94746">
        <ele>286.399993896</ele>
        <time>2015-12-22T10:44:56.377Z</time>
      </trkpt>
      <trkpt lat="46.02311" lon="4.94754">
        <ele>286.399993896</ele>
        <time>2015-12-22T10:44:57.361Z</time>
      </trkpt>
      <trkpt lat="46.02314" lon="4.94763">
        <ele>286.399993896</ele>
        <time>2015-12-22T10:44:58.379Z</time>
      </trkpt>
      <trkpt lat="46.02317" lon="4.94771">
        <ele>286.299987793</ele>
        <time>2015-12-22T10:44:59.424Z</time>
      </trkpt>
      <trkpt lat="46.02319" lon="4.9478">
        <ele>286.299987793</ele>
        <time>2015-12-22T10:45:00.38Z</time>
      </trkpt>
      <trkpt lat="46.02322" lon="4.94788">
        <ele>286.299987793</ele>
        <time>2015-12-22T10:45:01.362Z</time>
      </trkpt>
      <trkpt lat="46.02324" lon="4.94797">
        <ele>286.299987793</ele>
        <time>2015-12-22T10:45:02.377Z</time>
      </trkpt>
      <trkpt lat="46.02327" lon="4.94805">
        <ele>286.299987793</ele>
        <time>2015-12-22T10:45:03.359Z</time>
      </trkpt>
      <trkpt lat="46.02329" lon="4.94813">
        <ele>286.399993896</ele>
        <time>2015-12-22T10:45:04.447Z</time>
      </trkpt>
      <trkpt lat="46.02332" lon="4.94821">
        <ele>286.399993896</ele>
        <time>2015-12-22T10:45:05.358Z</time>
      </trkpt>
      <trkpt lat="46.02334" lon="4.94829">
        <ele>286.399993896</ele>
        <time>2015-12-22T10:45:06.392Z</time>
      </trkpt>
      <trkpt lat="46.02337" lon="4.94837">
        <ele>286.5</ele>
        <time>2015-12-22T10:45:07.361Z</time>
      </trkpt>
      <trkpt lat="46.0234" lon="4.94846">
        <ele>286.600006104</ele>
        <time>2015-12-22T10:45:08.38Z</time>
      </trkpt>
      <trkpt lat="46.02342" lon="4.94854">
        <ele>286.700012207</ele>
        <time>2015-12-22T10:45:09.359Z</time>
      </trkpt>
      <trkpt lat="46.02345" lon="4.94863">
        <ele>286.799987793</ele>
        <time>2015-12-22T10:45:10.377Z</time>
      </trkpt>
      <trkpt lat="46.02347" lon="4.94872">
        <ele>286.799987793</ele>
        <time>2015-12-22T10:45:11.358Z</time>
      </trkpt>
      <trkpt lat="46.0235" lon="4.94881">
        <ele>286.899993896</ele>
        <time>2015-12-22T10:45:12.378Z</time>
      </trkpt>
      <trkpt lat="46.02352" lon="4.94891">
        <ele>286.899993896</ele>
        <time>2015-12-22T10:45:13.361Z</time>
      </trkpt>
      <trkpt lat="46.02355" lon="4.949">
        <ele>286.899993896</ele>
        <time>2015-12-22T10:45:14.378Z</time>
      </trkpt>
      <trkpt lat="46.02357" lon="4.94909">
        <ele>287.399993896</ele>
        <time>2015-12-22T10:45:15.359Z</time>
      </trkpt>
      <trkpt lat="46.02359" lon="4.94917">
        <ele>287.5</ele>
        <time>2015-12-22T10:45:16.377Z</time>
      </trkpt>
      <trkpt lat="46.02362" lon="4.94926">
        <ele>287.5</ele>
        <time>2015-12-22T10:45:17.358Z</time>
      </trkpt>
      <trkpt lat="46.02364" lon="4.94934">
        <ele>287.600006104</ele>
        <time>2015-12-22T10:45:18.38Z</time>
      </trkpt>
      <trkpt lat="46.02367" lon="4.94943">
        <ele>287.700012207</ele>
        <time>2015-12-22T10:45:19.361Z</time>
      </trkpt>
      <trkpt lat="46.02369" lon="4.94952">
        <ele>287.799987793</ele>
        <time>2015-12-22T10:45:20.377Z</time>
      </trkpt>
      <trkpt lat="46.02372" lon="4.9496">
        <ele>287.799987793</ele>
        <time>2015-12-22T10:45:21.359Z</time>
      </trkpt>
      <trkpt lat="46.02374" lon="4.94969">
        <ele>287.799987793</ele>
        <time>2015-12-22T10:45:22.392Z</time>
      </trkpt>
      <trkpt lat="46.02377" lon="4.94978">
        <ele>287.700012207</ele>
        <time>2015-12-22T10:45:23.358Z</time>
      </trkpt>
      <trkpt lat="46.0238" lon="4.94986">
        <ele>287.5</ele>
        <time>2015-12-22T10:45:24.38Z</time>
      </trkpt>
      <trkpt lat="46.02383" lon="4.94995">
        <ele>287.299987793</ele>
        <time>2015-12-22T10:45:25.361Z</time>
      </trkpt>
      <trkpt lat="46.02385" lon="4.95004">
        <ele>287.5</ele>
        <time>2015-12-22T10:45:26.379Z</time>
      </trkpt>
      <trkpt lat="46.02388" lon="4.95012">
        <ele>287.600006104</ele>
        <time>2015-12-22T10:45:27.36Z</time>
      </trkpt>
      <trkpt lat="46.0239" lon="4.9502">
        <ele>287.5</ele>
        <time>2015-12-22T10:45:28.384Z</time>
      </trkpt>
      <trkpt lat="46.02393" lon="4.95027">
        <ele>287.600006104</ele>
        <time>2015-12-22T10:45:29.36Z</time>
      </trkpt>
      <trkpt lat="46.02396" lon="4.95034">
        <ele>287.600006104</ele>
        <time>2015-12-22T10:45:30.377Z</time>
      </trkpt>
      <trkpt lat="46.02398" lon="4.95042">
        <ele>287.799987793</ele>
        <time>2015-12-22T10:45:31.361Z</time>
      </trkpt>
      <trkpt lat="46.02401" lon="4.95049">
        <ele>287.799987793</ele>
        <time>2015-12-22T10:45:32.378Z</time>
      </trkpt>
      <trkpt lat="46.02404" lon="4.95057">
        <ele>287.700012207</ele>
        <time>2015-12-22T10:45:33.359Z</time>
      </trkpt>
      <trkpt lat="46.02408" lon="4.95065">
        <ele>287.600006104</ele>
        <time>2015-12-22T10:45:34.386Z</time>
      </trkpt>
      <trkpt lat="46.02411" lon="4.95073">
        <ele>287.600006104</ele>
        <time>2015-12-22T10:45:35.358Z</time>
      </trkpt>
      <trkpt lat="46.02415" lon="4.95081">
        <ele>287.5</ele>
        <time>2015-12-22T10:45:36.377Z</time>
      </trkpt>
      <trkpt lat="46.02418" lon="4.95089">
        <ele>287.399993896</ele>
        <time>2015-12-22T10:45:37.361Z</time>
      </trkpt>
      <trkpt lat="46.02422" lon="4.95097">
        <ele>287.299987793</ele>
        <time>2015-12-22T10:45:38.383Z</time>
      </trkpt>
      <trkpt lat="46.02426" lon="4.95104">
        <ele>287.399993896</ele>
        <time>2015-12-22T10:45:39.359Z</time>
      </trkpt>
      <trkpt lat="46.0243" lon="4.95112">
        <ele>287.299987793</ele>
        <time>2015-12-22T10:45:40.377Z</time>
      </trkpt>
      <trkpt lat="46.02434" lon="4.95121">
        <ele>287.299987793</ele>
        <time>2015-12-22T10:45:41.358Z</time>
      </trkpt>
      <trkpt lat="46.02438" lon="4.95129">
        <ele>286.899993896</ele>
        <time>2015-12-22T10:45:42.377Z</time>
      </trkpt>
      <trkpt lat="46.02442" lon="4.95138">
        <ele>287.100006104</ele>
        <time>2015-12-22T10:45:43.378Z</time>
      </trkpt>
      <trkpt lat="46.02445" lon="4.95145">
        <ele>286.799987793</ele>
        <time>2015-12-22T10:45:44.398Z</time>
      </trkpt>
      <trkpt lat="46.02449" lon="4.95153">
        <ele>287</ele>
        <time>2015-12-22T10:45:45.359Z</time>
      </trkpt>
      <trkpt lat="46.02452" lon="4.9516">
        <ele>286.899993896</ele>
        <time>2015-12-22T10:45:46.377Z</time>
      </trkpt>
      <trkpt lat="46.02456" lon="4.95168">
        <ele>286.899993896</ele>
        <time>2015-12-22T10:45:47.406Z</time>
      </trkpt>
      <trkpt lat="46.0246" lon="4.95175">
        <ele>287.200012207</ele>
        <time>2015-12-22T10:45:48.383Z</time>
      </trkpt>
      <trkpt lat="46.02463" lon="4.95182">
        <ele>287.299987793</ele>
        <time>2015-12-22T10:45:49.364Z</time>
      </trkpt>
      <trkpt lat="46.02467" lon="4.9519">
        <ele>287.299987793</ele>
        <time>2015-12-22T10:45:50.377Z</time>
      </trkpt>
      <trkpt lat="46.0247" lon="4.95198">
        <ele>287.299987793</ele>
        <time>2015-12-22T10:45:51.359Z</time>
      </trkpt>
      <trkpt lat="46.02474" lon="4.95206">
        <ele>287.299987793</ele>
        <time>2015-12-22T10:45:52.381Z</time>
      </trkpt>
      <trkpt lat="46.02477" lon="4.95214">
        <ele>287.200012207</ele>
        <time>2015-12-22T10:45:53.359Z</time>
      </trkpt>
      <trkpt lat="46.02481" lon="4.95222">
        <ele>287</ele>
        <time>2015-12-22T10:45:54.393Z</time>
      </trkpt>
      <trkpt lat="46.02485" lon="4.9523">
        <ele>286.700012207</ele>
        <time>2015-12-22T10:45:55.361Z</time>
      </trkpt>
      <trkpt lat="46.02488" lon="4.95238">
        <ele>286.799987793</ele>
        <time>2015-12-22T10:45:56.378Z</time>
      </trkpt>
      <trkpt lat="46.02491" lon="4.95245">
        <ele>286.899993896</ele>
        <time>2015-12-22T10:45:57.36Z</time>
      </trkpt>
      <trkpt lat="46.02494" lon="4.95253">
        <ele>286.799987793</ele>
        <time>2015-12-22T10:45:58.383Z</time>
      </trkpt>
      <trkpt lat="46.02497" lon="4.95261">
        <ele>286.899993896</ele>
        <time>2015-12-22T10:45:59.359Z</time>
      </trkpt>
      <trkpt lat="46.02501" lon="4.95268">
        <ele>286.799987793</ele>
        <time>2015-12-22T10:46:00.378Z</time>
      </trkpt>
      <trkpt lat="46.02504" lon="4.95276">
        <ele>286.899993896</ele>
        <time>2015-12-22T10:46:01.488Z</time>
      </trkpt>
      <trkpt lat="46.02508" lon="4.95283">
        <ele>286.299987793</ele>
        <time>2015-12-22T10:46:02.376Z</time>
      </trkpt>
      <trkpt lat="46.02512" lon="4.9529">
        <ele>285.700012207</ele>
        <time>2015-12-22T10:46:03.361Z</time>
      </trkpt>
      <trkpt lat="46.02516" lon="4.95298">
        <ele>285.600006104</ele>
        <time>2015-12-22T10:46:04.377Z</time>
      </trkpt>
      <trkpt lat="46.0252" lon="4.95306">
        <ele>285.299987793</ele>
        <time>2015-12-22T10:46:05.359Z</time>
      </trkpt>
      <trkpt lat="46.02524" lon="4.95314">
        <ele>285.100006104</ele>
        <time>2015-12-22T10:46:06.379Z</time>
      </trkpt>
      <trkpt lat="46.02528" lon="4.95321">
        <ele>285</ele>
        <time>2015-12-22T10:46:07.362Z</time>
      </trkpt>
      <trkpt lat="46.02532" lon="4.95328">
        <ele>284.799987793</ele>
        <time>2015-12-22T10:46:08.384Z</time>
      </trkpt>
      <trkpt lat="46.02536" lon="4.95335">
        <ele>284.799987793</ele>
        <time>2015-12-22T10:46:09.361Z</time>
      </trkpt>
      <trkpt lat="46.02539" lon="4.95342">
        <ele>285</ele>
        <time>2015-12-22T10:46:10.379Z</time>
      </trkpt>
      <trkpt lat="46.02543" lon="4.95349">
        <ele>285.200012207</ele>
        <time>2015-12-22T10:46:11.358Z</time>
      </trkpt>
      <trkpt lat="46.02546" lon="4.95357">
        <ele>285.5</ele>
        <time>2015-12-22T10:46:12.5Z</time>
      </trkpt>
      <trkpt lat="46.0255" lon="4.95364">
        <ele>285.700012207</ele>
        <time>2015-12-22T10:46:13.362Z</time>
      </trkpt>
      <trkpt lat="46.02553" lon="4.95372">
        <ele>285.899993896</ele>
        <time>2015-12-22T10:46:14.393Z</time>
      </trkpt>
      <trkpt lat="46.02557" lon="4.95379">
        <ele>285.899993896</ele>
        <time>2015-12-22T10:46:15.361Z</time>
      </trkpt>
      <trkpt lat="46.02561" lon="4.95386">
        <ele>286</ele>
        <time>2015-12-22T10:46:16.379Z</time>
      </trkpt>
      <trkpt lat="46.02565" lon="4.95394">
        <ele>286.100006104</ele>
        <time>2015-12-22T10:46:17.359Z</time>
      </trkpt>
      <trkpt lat="46.02569" lon="4.95401">
        <ele>286.200012207</ele>
        <time>2015-12-22T10:46:18.39Z</time>
      </trkpt>
      <trkpt lat="46.02573" lon="4.95409">
        <ele>286.100006104</ele>
        <time>2015-12-22T10:46:19.361Z</time>
      </trkpt>
      <trkpt lat="46.02577" lon="4.95417">
        <ele>285.700012207</ele>
        <time>2015-12-22T10:46:20.377Z</time>
      </trkpt>
      <trkpt lat="46.02581" lon="4.95425">
        <ele>285.799987793</ele>
        <time>2015-12-22T10:46:21.361Z</time>
      </trkpt>
      <trkpt lat="46.02585" lon="4.95433">
        <ele>286.200012207</ele>
        <time>2015-12-22T10:46:22.379Z</time>
      </trkpt>
      <trkpt lat="46.02588" lon="4.95442">
        <ele>286.299987793</ele>
        <time>2015-12-22T10:46:23.359Z</time>
      </trkpt>
      <trkpt lat="46.02592" lon="4.9545">
        <ele>286.5</ele>
        <time>2015-12-22T10:46:24.378Z</time>
      </trkpt>
      <trkpt lat="46.02595" lon="4.95459">
        <ele>287</ele>
        <time>2015-12-22T10:46:25.482Z</time>
      </trkpt>
      <trkpt lat="46.02599" lon="4.95468">
        <ele>287.299987793</ele>
        <time>2015-12-22T10:46:26.378Z</time>
      </trkpt>
      <trkpt lat="46.02602" lon="4.95475">
        <ele>287.5</ele>
        <time>2015-12-22T10:46:27.359Z</time>
      </trkpt>
      <trkpt lat="46.02604" lon="4.95483">
        <ele>288</ele>
        <time>2015-12-22T10:46:28.39Z</time>
      </trkpt>
      <trkpt lat="46.02607" lon="4.95491">
        <ele>287.899993896</ele>
        <time>2015-12-22T10:46:29.385Z</time>
      </trkpt>
      <trkpt lat="46.02609" lon="4.95498">
        <ele>288</ele>
        <time>2015-12-22T10:46:30.378Z</time>
      </trkpt>
      <trkpt lat="46.02611" lon="4.95506">
        <ele>287.899993896</ele>
        <time>2015-12-22T10:46:31.361Z</time>
      </trkpt>
      <trkpt lat="46.02613" lon="4.95513">
        <ele>287.700012207</ele>
        <time>2015-12-22T10:46:32.377Z</time>
      </trkpt>
      <trkpt lat="46.02615" lon="4.9552">
        <ele>287.600006104</ele>
        <time>2015-12-22T10:46:33.359Z</time>
      </trkpt>
      <trkpt lat="46.02617" lon="4.95527">
        <ele>287.799987793</ele>
        <time>2015-12-22T10:46:34.378Z</time>
      </trkpt>
      <trkpt lat="46.02618" lon="4.95534">
        <ele>287.700012207</ele>
        <time>2015-12-22T10:46:35.359Z</time>
      </trkpt>
      <trkpt lat="46.02619" lon="4.95543">
        <ele>287.399993896</ele>
        <time>2015-12-22T10:46:36.401Z</time>
      </trkpt>
      <trkpt lat="46.02621" lon="4.95551">
        <ele>287.200012207</ele>
        <time>2015-12-22T10:46:37.363Z</time>
      </trkpt>
      <trkpt lat="46.02622" lon="4.9556">
        <ele>287</ele>
        <time>2015-12-22T10:46:38.391Z</time>
      </trkpt>
      <trkpt lat="46.02624" lon="4.95567">
        <ele>287.299987793</ele>
        <time>2015-12-22T10:46:39.359Z</time>
      </trkpt>
      <trkpt lat="46.02625" lon="4.95575">
        <ele>287.200012207</ele>
        <time>2015-12-22T10:46:40.393Z</time>
      </trkpt>
      <trkpt lat="46.02626" lon="4.95583">
        <ele>286.700012207</ele>
        <time>2015-12-22T10:46:41.359Z</time>
      </trkpt>
      <trkpt lat="46.02627" lon="4.95591">
        <ele>286.799987793</ele>
        <time>2015-12-22T10:46:42.39Z</time>
      </trkpt>
      <trkpt lat="46.02628" lon="4.95599">
        <ele>286.899993896</ele>
        <time>2015-12-22T10:46:43.361Z</time>
      </trkpt>
      <trkpt lat="46.02629" lon="4.95606">
        <ele>286.799987793</ele>
        <time>2015-12-22T10:46:44.376Z</time>
      </trkpt>
      <trkpt lat="46.0263" lon="4.95614">
        <ele>286.799987793</ele>
        <time>2015-12-22T10:46:45.358Z</time>
      </trkpt>
      <trkpt lat="46.02632" lon="4.95622">
        <ele>287.299987793</ele>
        <time>2015-12-22T10:46:46.378Z</time>
      </trkpt>
      <trkpt lat="46.02632" lon="4.95631">
        <ele>287.799987793</ele>
        <time>2015-12-22T10:46:47.358Z</time>
      </trkpt>
      <trkpt lat="46.02633" lon="4.95638">
        <ele>288.200012207</ele>
        <time>2015-12-22T10:46:48.394Z</time>
      </trkpt>
      <trkpt lat="46.02634" lon="4.95646">
        <ele>288.799987793</ele>
        <time>2015-12-22T10:46:49.365Z</time>
      </trkpt>
      <trkpt lat="46.02635" lon="4.95654">
        <ele>289.5</ele>
        <time>2015-12-22T10:46:50.377Z</time>
      </trkpt>
      <trkpt lat="46.02635" lon="4.95662">
        <ele>290</ele>
        <time>2015-12-22T10:46:51.359Z</time>
      </trkpt>
      <trkpt lat="46.02636" lon="4.9567">
        <ele>290.399993896</ele>
        <time>2015-12-22T10:46:52.376Z</time>
      </trkpt>
      <trkpt lat="46.02637" lon="4.95679">
        <ele>290.700012207</ele>
        <time>2015-12-22T10:46:53.358Z</time>
      </trkpt>
      <trkpt lat="46.02638" lon="4.95687">
        <ele>291.299987793</ele>
        <time>2015-12-22T10:46:54.377Z</time>
      </trkpt>
      <trkpt lat="46.02639" lon="4.95696">
        <ele>291.600006104</ele>
        <time>2015-12-22T10:46:55.367Z</time>
      </trkpt>
      <trkpt lat="46.02638" lon="4.95706">
        <ele>291.799987793</ele>
        <time>2015-12-22T10:46:56.394Z</time>
      </trkpt>
      <trkpt lat="46.02639" lon="4.95716">
        <ele>291.899993896</ele>
        <time>2015-12-22T10:46:57.359Z</time>
      </trkpt>
      <trkpt lat="46.02639" lon="4.95726">
        <ele>291.799987793</ele>
        <time>2015-12-22T10:46:58.547Z</time>
      </trkpt>
      <trkpt lat="46.0264" lon="4.95734">
        <ele>291.899993896</ele>
        <time>2015-12-22T10:46:59.359Z</time>
      </trkpt>
      <trkpt lat="46.02641" lon="4.95743">
        <ele>292.100006104</ele>
        <time>2015-12-22T10:47:00.377Z</time>
      </trkpt>
      <trkpt lat="46.02642" lon="4.95752">
        <ele>291.899993896</ele>
        <time>2015-12-22T10:47:01.361Z</time>
      </trkpt>
      <trkpt lat="46.02643" lon="4.9576">
        <ele>292.299987793</ele>
        <time>2015-12-22T10:47:02.376Z</time>
      </trkpt>
      <trkpt lat="46.02644" lon="4.95769">
        <ele>292.5</ele>
        <time>2015-12-22T10:47:03.359Z</time>
      </trkpt>
      <trkpt lat="46.02646" lon="4.95777">
        <ele>292.700012207</ele>
        <time>2015-12-22T10:47:04.378Z</time>
      </trkpt>
      <trkpt lat="46.02647" lon="4.95786">
        <ele>292.799987793</ele>
        <time>2015-12-22T10:47:05.358Z</time>
      </trkpt>
      <trkpt lat="46.02648" lon="4.95795">
        <ele>292.700012207</ele>
        <time>2015-12-22T10:47:06.378Z</time>
      </trkpt>
      <trkpt lat="46.0265" lon="4.95803">
        <ele>292.600006104</ele>
        <time>2015-12-22T10:47:07.361Z</time>
      </trkpt>
      <trkpt lat="46.02651" lon="4.95811">
        <ele>292.5</ele>
        <time>2015-12-22T10:47:08.393Z</time>
      </trkpt>
      <trkpt lat="46.02652" lon="4.9582">
        <ele>292.299987793</ele>
        <time>2015-12-22T10:47:09.359Z</time>
      </trkpt>
      <trkpt lat="46.02653" lon="4.95828">
        <ele>292</ele>
        <time>2015-12-22T10:47:10.377Z</time>
      </trkpt>
      <trkpt lat="46.02654" lon="4.95837">
        <ele>291.899993896</ele>
        <time>2015-12-22T10:47:11.358Z</time>
      </trkpt>
      <trkpt lat="46.02655" lon="4.95845">
        <ele>291.799987793</ele>
        <time>2015-12-22T10:47:12.397Z</time>
      </trkpt>
      <trkpt lat="46.02656" lon="4.95853">
        <ele>291.899993896</ele>
        <time>2015-12-22T10:47:13.363Z</time>
      </trkpt>
      <trkpt lat="46.02656" lon="4.95861">
        <ele>292.399993896</ele>
        <time>2015-12-22T10:47:14.398Z</time>
      </trkpt>
      <trkpt lat="46.02657" lon="4.95869">
        <ele>292.399993896</ele>
        <time>2015-12-22T10:47:15.359Z</time>
      </trkpt>
      <trkpt lat="46.02658" lon="4.95878">
        <ele>292.200012207</ele>
        <time>2015-12-22T10:47:16.377Z</time>
      </trkpt>
      <trkpt lat="46.02659" lon="4.95886">
        <ele>291.899993896</ele>
        <time>2015-12-22T10:47:17.358Z</time>
      </trkpt>
      <trkpt lat="46.0266" lon="4.95896">
        <ele>291.399993896</ele>
        <time>2015-12-22T10:47:18.393Z</time>
      </trkpt>
      <trkpt lat="46.02661" lon="4.95905">
        <ele>291.100006104</ele>
        <time>2015-12-22T10:47:19.363Z</time>
      </trkpt>
      <trkpt lat="46.02662" lon="4.95914">
        <ele>291.200012207</ele>
        <time>2015-12-22T10:47:20.378Z</time>
      </trkpt>
      <trkpt lat="46.02663" lon="4.95923">
        <ele>290.700012207</ele>
        <time>2015-12-22T10:47:21.364Z</time>
      </trkpt>
      <trkpt lat="46.02664" lon="4.95932">
        <ele>289.700012207</ele>
        <time>2015-12-22T10:47:22.525Z</time>
      </trkpt>
      <trkpt lat="46.02666" lon="4.9594">
        <ele>289.299987793</ele>
        <time>2015-12-22T10:47:23.358Z</time>
      </trkpt>
      <trkpt lat="46.02667" lon="4.95947">
        <ele>288.100006104</ele>
        <time>2015-12-22T10:47:24.376Z</time>
      </trkpt>
      <trkpt lat="46.02668" lon="4.95955">
        <ele>287.600006104</ele>
        <time>2015-12-22T10:47:25.441Z</time>
      </trkpt>
      <trkpt lat="46.02669" lon="4.95963">
        <ele>287.200012207</ele>
        <time>2015-12-22T10:47:26.379Z</time>
      </trkpt>
      <trkpt lat="46.02671" lon="4.95972">
        <ele>287.100006104</ele>
        <time>2015-12-22T10:47:27.361Z</time>
      </trkpt>
      <trkpt lat="46.02672" lon="4.95979">
        <ele>287</ele>
        <time>2015-12-22T10:47:28.395Z</time>
      </trkpt>
      <trkpt lat="46.02673" lon="4.95987">
        <ele>286.799987793</ele>
        <time>2015-12-22T10:47:29.359Z</time>
      </trkpt>
      <trkpt lat="46.02675" lon="4.95995">
        <ele>286.5</ele>
        <time>2015-12-22T10:47:30.402Z</time>
      </trkpt>
      <trkpt lat="46.02676" lon="4.96003">
        <ele>285.899993896</ele>
        <time>2015-12-22T10:47:31.372Z</time>
      </trkpt>
      <trkpt lat="46.02677" lon="4.9601">
        <ele>285.5</ele>
        <time>2015-12-22T10:47:32.388Z</time>
      </trkpt>
      <trkpt lat="46.02678" lon="4.96018">
        <ele>284.799987793</ele>
        <time>2015-12-22T10:47:33.366Z</time>
      </trkpt>
      <trkpt lat="46.02679" lon="4.96026">
        <ele>284.700012207</ele>
        <time>2015-12-22T10:47:34.386Z</time>
      </trkpt>
      <trkpt lat="46.0268" lon="4.96034">
        <ele>284.5</ele>
        <time>2015-12-22T10:47:35.362Z</time>
      </trkpt>
      <trkpt lat="46.02682" lon="4.96042">
        <ele>283.899993896</ele>
        <time>2015-12-22T10:47:36.384Z</time>
      </trkpt>
      <trkpt lat="46.02683" lon="4.96051">
        <ele>283.100006104</ele>
        <time>2015-12-22T10:47:37.364Z</time>
      </trkpt>
      <trkpt lat="46.02684" lon="4.96059">
        <ele>282.299987793</ele>
        <time>2015-12-22T10:47:38.424Z</time>
      </trkpt>
      <trkpt lat="46.02685" lon="4.96068">
        <ele>282.5</ele>
        <time>2015-12-22T10:47:39.363Z</time>
      </trkpt>
      <trkpt lat="46.02685" lon="4.96077">
        <ele>283</ele>
        <time>2015-12-22T10:47:40.384Z</time>
      </trkpt>
      <trkpt lat="46.02686" lon="4.96086">
        <ele>283.5</ele>
        <time>2015-12-22T10:47:41.361Z</time>
      </trkpt>
      <trkpt lat="46.02687" lon="4.96094">
        <ele>283.899993896</ele>
        <time>2015-12-22T10:47:42.491Z</time>
      </trkpt>
      <trkpt lat="46.02687" lon="4.96103">
        <ele>284.399993896</ele>
        <time>2015-12-22T10:47:43.365Z</time>
      </trkpt>
      <trkpt lat="46.02687" lon="4.96112">
        <ele>284.399993896</ele>
        <time>2015-12-22T10:47:44.383Z</time>
      </trkpt>
      <trkpt lat="46.02688" lon="4.96121">
        <ele>284.5</ele>
        <time>2015-12-22T10:47:45.362Z</time>
      </trkpt>
      <trkpt lat="46.02688" lon="4.9613">
        <ele>285.200012207</ele>
        <time>2015-12-22T10:47:46.384Z</time>
      </trkpt>
      <trkpt lat="46.02688" lon="4.96139">
        <ele>285.600006104</ele>
        <time>2015-12-22T10:47:47.368Z</time>
      </trkpt>
      <trkpt lat="46.02687" lon="4.96147">
        <ele>285.600006104</ele>
        <time>2015-12-22T10:47:48.41Z</time>
      </trkpt>
      <trkpt lat="46.02686" lon="4.96156">
        <ele>285.899993896</ele>
        <time>2015-12-22T10:47:49.372Z</time>
      </trkpt>
      <trkpt lat="46.02686" lon="4.96164">
        <ele>286</ele>
        <time>2015-12-22T10:47:50.408Z</time>
      </trkpt>
      <trkpt lat="46.02685" lon="4.96172">
        <ele>286</ele>
        <time>2015-12-22T10:47:51.362Z</time>
      </trkpt>
      <trkpt lat="46.02684" lon="4.96179">
        <ele>286.100006104</ele>
        <time>2015-12-22T10:47:52.382Z</time>
      </trkpt>
      <trkpt lat="46.02683" lon="4.96187">
        <ele>285.899993896</ele>
        <time>2015-12-22T10:47:53.36Z</time>
      </trkpt>
      <trkpt lat="46.02682" lon="4.96195">
        <ele>286.299987793</ele>
        <time>2015-12-22T10:47:54.383Z</time>
      </trkpt>
      <trkpt lat="46.02681" lon="4.96203">
        <ele>286.799987793</ele>
        <time>2015-12-22T10:47:55.364Z</time>
      </trkpt>
      <trkpt lat="46.0268" lon="4.96211">
        <ele>287</ele>
        <time>2015-12-22T10:47:56.385Z</time>
      </trkpt>
      <trkpt lat="46.0268" lon="4.96219">
        <ele>286.600006104</ele>
        <time>2015-12-22T10:47:57.361Z</time>
      </trkpt>
      <trkpt lat="46.0268" lon="4.96228">
        <ele>286.399993896</ele>
        <time>2015-12-22T10:47:58.416Z</time>
      </trkpt>
      <trkpt lat="46.02678" lon="4.96237">
        <ele>286.5</ele>
        <time>2015-12-22T10:47:59.384Z</time>
      </trkpt>
      <trkpt lat="46.02676" lon="4.96245">
        <ele>287.100006104</ele>
        <time>2015-12-22T10:48:00.384Z</time>
      </trkpt>
      <trkpt lat="46.02675" lon="4.96253">
        <ele>287.299987793</ele>
        <time>2015-12-22T10:48:01.368Z</time>
      </trkpt>
      <trkpt lat="46.02673" lon="4.96261">
        <ele>287.200012207</ele>
        <time>2015-12-22T10:48:02.378Z</time>
      </trkpt>
      <trkpt lat="46.02672" lon="4.9627">
        <ele>287.200012207</ele>
        <time>2015-12-22T10:48:03.36Z</time>
      </trkpt>
      <trkpt lat="46.02671" lon="4.96278">
        <ele>287.299987793</ele>
        <time>2015-12-22T10:48:04.402Z</time>
      </trkpt>
      <trkpt lat="46.0267" lon="4.96286">
        <ele>287.600006104</ele>
        <time>2015-12-22T10:48:05.36Z</time>
      </trkpt>
      <trkpt lat="46.02669" lon="4.96294">
        <ele>287.899993896</ele>
        <time>2015-12-22T10:48:06.382Z</time>
      </trkpt>
      <trkpt lat="46.02667" lon="4.96302">
        <ele>288.600006104</ele>
        <time>2015-12-22T10:48:07.366Z</time>
      </trkpt>
      <trkpt lat="46.02666" lon="4.9631">
        <ele>288.899993896</ele>
        <time>2015-12-22T10:48:08.402Z</time>
      </trkpt>
      <trkpt lat="46.02665" lon="4.96317">
        <ele>289.100006104</ele>
        <time>2015-12-22T10:48:09.36Z</time>
      </trkpt>
      <trkpt lat="46.02664" lon="4.96324">
        <ele>289.299987793</ele>
        <time>2015-12-22T10:48:10.378Z</time>
      </trkpt>
      <trkpt lat="46.02663" lon="4.96331">
        <ele>289.600006104</ele>
        <time>2015-12-22T10:48:11.615Z</time>
      </trkpt>
      <trkpt lat="46.02661" lon="4.96339">
        <ele>290.200012207</ele>
        <time>2015-12-22T10:48:12.38Z</time>
      </trkpt>
      <trkpt lat="46.0266" lon="4.96346">
        <ele>290.5</ele>
        <time>2015-12-22T10:48:13.366Z</time>
      </trkpt>
      <trkpt lat="46.02658" lon="4.96353">
        <ele>291</ele>
        <time>2015-12-22T10:48:14.382Z</time>
      </trkpt>
      <trkpt lat="46.02657" lon="4.9636">
        <ele>291.299987793</ele>
        <time>2015-12-22T10:48:15.361Z</time>
      </trkpt>
      <trkpt lat="46.02656" lon="4.96368">
        <ele>291.5</ele>
        <time>2015-12-22T10:48:16.379Z</time>
      </trkpt>
      <trkpt lat="46.02655" lon="4.96375">
        <ele>291.600006104</ele>
        <time>2015-12-22T10:48:17.359Z</time>
      </trkpt>
      <trkpt lat="46.02653" lon="4.96384">
        <ele>291.899993896</ele>
        <time>2015-12-22T10:48:18.399Z</time>
      </trkpt>
      <trkpt lat="46.02652" lon="4.96392">
        <ele>292.100006104</ele>
        <time>2015-12-22T10:48:19.362Z</time>
      </trkpt>
      <trkpt lat="46.0265" lon="4.96401">
        <ele>292.5</ele>
        <time>2015-12-22T10:48:20.378Z</time>
      </trkpt>
      <trkpt lat="46.02649" lon="4.9641">
        <ele>292.600006104</ele>
        <time>2015-12-22T10:48:21.359Z</time>
      </trkpt>
      <trkpt lat="46.02647" lon="4.96418">
        <ele>292.799987793</ele>
        <time>2015-12-22T10:48:22.381Z</time>
      </trkpt>
      <trkpt lat="46.02646" lon="4.96426">
        <ele>292.899993896</ele>
        <time>2015-12-22T10:48:23.359Z</time>
      </trkpt>
      <trkpt lat="46.02645" lon="4.96435">
        <ele>293.399993896</ele>
        <time>2015-12-22T10:48:24.378Z</time>
      </trkpt>
      <trkpt lat="46.02644" lon="4.96443">
        <ele>293.600006104</ele>
        <time>2015-12-22T10:48:25.362Z</time>
      </trkpt>
      <trkpt lat="46.02644" lon="4.96452">
        <ele>293</ele>
        <time>2015-12-22T10:48:26.38Z</time>
      </trkpt>
      <trkpt lat="46.02643" lon="4.96461">
        <ele>292.600006104</ele>
        <time>2015-12-22T10:48:27.359Z</time>
      </trkpt>
      <trkpt lat="46.02643" lon="4.96471">
        <ele>291.899993896</ele>
        <time>2015-12-22T10:48:28.407Z</time>
      </trkpt>
      <trkpt lat="46.02643" lon="4.96479">
        <ele>292.299987793</ele>
        <time>2015-12-22T10:48:29.359Z</time>
      </trkpt>
      <trkpt lat="46.02643" lon="4.96488">
        <ele>292.100006104</ele>
        <time>2015-12-22T10:48:30.403Z</time>
      </trkpt>
      <trkpt lat="46.02643" lon="4.96497">
        <ele>291.799987793</ele>
        <time>2015-12-22T10:48:31.362Z</time>
      </trkpt>
      <trkpt lat="46.02642" lon="4.96506">
        <ele>291.5</ele>
        <time>2015-12-22T10:48:32.378Z</time>
      </trkpt>
      <trkpt lat="46.02642" lon="4.96515">
        <ele>291.299987793</ele>
        <time>2015-12-22T10:48:33.36Z</time>
      </trkpt>
      <trkpt lat="46.02642" lon="4.96524">
        <ele>291.5</ele>
        <time>2015-12-22T10:48:34.378Z</time>
      </trkpt>
      <trkpt lat="46.02641" lon="4.96533">
        <ele>291.600006104</ele>
        <time>2015-12-22T10:48:35.359Z</time>
      </trkpt>
      <trkpt lat="46.02641" lon="4.96541">
        <ele>292</ele>
        <time>2015-12-22T10:48:36.381Z</time>
      </trkpt>
      <trkpt lat="46.02641" lon="4.96549">
        <ele>291.899993896</ele>
        <time>2015-12-22T10:48:37.362Z</time>
      </trkpt>
      <trkpt lat="46.02641" lon="4.96557">
        <ele>292.299987793</ele>
        <time>2015-12-22T10:48:38.405Z</time>
      </trkpt>
      <trkpt lat="46.02641" lon="4.96565">
        <ele>292.100006104</ele>
        <time>2015-12-22T10:48:39.415Z</time>
      </trkpt>
      <trkpt lat="46.02641" lon="4.96574">
        <ele>292.200012207</ele>
        <time>2015-12-22T10:48:40.379Z</time>
      </trkpt>
      <trkpt lat="46.0264" lon="4.96583">
        <ele>292.200012207</ele>
        <time>2015-12-22T10:48:41.36Z</time>
      </trkpt>
      <trkpt lat="46.0264" lon="4.96592">
        <ele>292.5</ele>
        <time>2015-12-22T10:48:42.378Z</time>
      </trkpt>
      <trkpt lat="46.02639" lon="4.96601">
        <ele>292.799987793</ele>
        <time>2015-12-22T10:48:43.363Z</time>
      </trkpt>
      <trkpt lat="46.02638" lon="4.9661">
        <ele>292.700012207</ele>
        <time>2015-12-22T10:48:44.406Z</time>
      </trkpt>
      <trkpt lat="46.02639" lon="4.96618">
        <ele>292.200012207</ele>
        <time>2015-12-22T10:48:45.36Z</time>
      </trkpt>
      <trkpt lat="46.02639" lon="4.96627">
        <ele>292.5</ele>
        <time>2015-12-22T10:48:46.393Z</time>
      </trkpt>
      <trkpt lat="46.02639" lon="4.96636">
        <ele>292.600006104</ele>
        <time>2015-12-22T10:48:47.359Z</time>
      </trkpt>
      <trkpt lat="46.02639" lon="4.96646">
        <ele>292.399993896</ele>
        <time>2015-12-22T10:48:48.403Z</time>
      </trkpt>
      <trkpt lat="46.02639" lon="4.96655">
        <ele>292.5</ele>
        <time>2015-12-22T10:48:49.364Z</time>
      </trkpt>
      <trkpt lat="46.02639" lon="4.96664">
        <ele>292.700012207</ele>
        <time>2015-12-22T10:48:50.378Z</time>
      </trkpt>
      <trkpt lat="46.02639" lon="4.96673">
        <ele>292.600006104</ele>
        <time>2015-12-22T10:48:51.364Z</time>
      </trkpt>
      <trkpt lat="46.02639" lon="4.96683">
        <ele>292.600006104</ele>
        <time>2015-12-22T10:48:52.378Z</time>
      </trkpt>
      <trkpt lat="46.02639" lon="4.96692">
        <ele>292.299987793</ele>
        <time>2015-12-22T10:48:53.359Z</time>
      </trkpt>
      <trkpt lat="46.0264" lon="4.96702">
        <ele>292.299987793</ele>
        <time>2015-12-22T10:48:54.379Z</time>
      </trkpt>
      <trkpt lat="46.0264" lon="4.96711">
        <ele>292.200012207</ele>
        <time>2015-12-22T10:48:55.362Z</time>
      </trkpt>
      <trkpt lat="46.0264" lon="4.96719">
        <ele>292.299987793</ele>
        <time>2015-12-22T10:48:56.378Z</time>
      </trkpt>
      <trkpt lat="46.0264" lon="4.96727">
        <ele>292.299987793</ele>
        <time>2015-12-22T10:48:57.36Z</time>
      </trkpt>
      <trkpt lat="46.0264" lon="4.96735">
        <ele>292.5</ele>
        <time>2015-12-22T10:48:58.407Z</time>
      </trkpt>
      <trkpt lat="46.0264" lon="4.96743">
        <ele>292.799987793</ele>
        <time>2015-12-22T10:48:59.359Z</time>
      </trkpt>
      <trkpt lat="46.0264" lon="4.96751">
        <ele>292.700012207</ele>
        <time>2015-12-22T10:49:00.379Z</time>
      </trkpt>
      <trkpt lat="46.02641" lon="4.96759">
        <ele>291.5</ele>
        <time>2015-12-22T10:49:01.363Z</time>
      </trkpt>
      <trkpt lat="46.02641" lon="4.96768">
        <ele>290.799987793</ele>
        <time>2015-12-22T10:49:02.379Z</time>
      </trkpt>
      <trkpt lat="46.02642" lon="4.96777">
        <ele>290.200012207</ele>
        <time>2015-12-22T10:49:03.36Z</time>
      </trkpt>
      <trkpt lat="46.02642" lon="4.96786">
        <ele>289.600006104</ele>
        <time>2015-12-22T10:49:04.38Z</time>
      </trkpt>
      <trkpt lat="46.02642" lon="4.96795">
        <ele>289.100006104</ele>
        <time>2015-12-22T10:49:05.362Z</time>
      </trkpt>
      <trkpt lat="46.02643" lon="4.96804">
        <ele>288.399993896</ele>
        <time>2015-12-22T10:49:06.38Z</time>
      </trkpt>
      <trkpt lat="46.02643" lon="4.96812">
        <ele>288.200012207</ele>
        <time>2015-12-22T10:49:07.364Z</time>
      </trkpt>
      <trkpt lat="46.02643" lon="4.96821">
        <ele>287.899993896</ele>
        <time>2015-12-22T10:49:08.402Z</time>
      </trkpt>
      <trkpt lat="46.02643" lon="4.9683">
        <ele>287.899993896</ele>
        <time>2015-12-22T10:49:09.359Z</time>
      </trkpt>
      <trkpt lat="46.02643" lon="4.96838">
        <ele>287.700012207</ele>
        <time>2015-12-22T10:49:10.381Z</time>
      </trkpt>
      <trkpt lat="46.02643" lon="4.96847">
        <ele>287.799987793</ele>
        <time>2015-12-22T10:49:11.358Z</time>
      </trkpt>
      <trkpt lat="46.02643" lon="4.96855">
        <ele>287.899993896</ele>
        <time>2015-12-22T10:49:12.421Z</time>
      </trkpt>
      <trkpt lat="46.02643" lon="4.96863">
        <ele>288.100006104</ele>
        <time>2015-12-22T10:49:13.362Z</time>
      </trkpt>
      <trkpt lat="46.02643" lon="4.96872">
        <ele>287.799987793</ele>
        <time>2015-12-22T10:49:14.378Z</time>
      </trkpt>
      <trkpt lat="46.02643" lon="4.96881">
        <ele>287.600006104</ele>
        <time>2015-12-22T10:49:15.359Z</time>
      </trkpt>
      <trkpt lat="46.02643" lon="4.96889">
        <ele>287.299987793</ele>
        <time>2015-12-22T10:49:16.379Z</time>
      </trkpt>
      <trkpt lat="46.02643" lon="4.96898">
        <ele>286.899993896</ele>
        <time>2015-12-22T10:49:17.358Z</time>
      </trkpt>
      <trkpt lat="46.02643" lon="4.96908">
        <ele>287.299987793</ele>
        <time>2015-12-22T10:49:18.408Z</time>
      </trkpt>
      <trkpt lat="46.02644" lon="4.96917">
        <ele>287</ele>
        <time>2015-12-22T10:49:19.371Z</time>
      </trkpt>
      <trkpt lat="46.02644" lon="4.96925">
        <ele>286.899993896</ele>
        <time>2015-12-22T10:49:20.38Z</time>
      </trkpt>
      <trkpt lat="46.02644" lon="4.96934">
        <ele>286.5</ele>
        <time>2015-12-22T10:49:21.362Z</time>
      </trkpt>
      <trkpt lat="46.02644" lon="4.96943">
        <ele>285.600006104</ele>
        <time>2015-12-22T10:49:22.38Z</time>
      </trkpt>
      <trkpt lat="46.02645" lon="4.96952">
        <ele>285.399993896</ele>
        <time>2015-12-22T10:49:23.359Z</time>
      </trkpt>
      <trkpt lat="46.02646" lon="4.96961">
        <ele>285.799987793</ele>
        <time>2015-12-22T10:49:24.379Z</time>
      </trkpt>
      <trkpt lat="46.02648" lon="4.96969">
        <ele>285.600006104</ele>
        <time>2015-12-22T10:49:25.363Z</time>
      </trkpt>
      <trkpt lat="46.02651" lon="4.96977">
        <ele>285.200012207</ele>
        <time>2015-12-22T10:49:26.383Z</time>
      </trkpt>
      <trkpt lat="46.02655" lon="4.96984">
        <ele>285.100006104</ele>
        <time>2015-12-22T10:49:27.36Z</time>
      </trkpt>
      <trkpt lat="46.02658" lon="4.96991">
        <ele>284.899993896</ele>
        <time>2015-12-22T10:49:28.422Z</time>
      </trkpt>
      <trkpt lat="46.02662" lon="4.96997">
        <ele>284.700012207</ele>
        <time>2015-12-22T10:49:29.383Z</time>
      </trkpt>
      <trkpt lat="46.02666" lon="4.97003">
        <ele>284.399993896</ele>
        <time>2015-12-22T10:49:30.385Z</time>
      </trkpt>
      <trkpt lat="46.0267" lon="4.97008">
        <ele>284.399993896</ele>
        <time>2015-12-22T10:49:31.367Z</time>
      </trkpt>
      <trkpt lat="46.02674" lon="4.97013">
        <ele>284</ele>
        <time>2015-12-22T10:49:32.382Z</time>
      </trkpt>
      <trkpt lat="46.02679" lon="4.97019">
        <ele>284</ele>
        <time>2015-12-22T10:49:33.361Z</time>
      </trkpt>
      <trkpt lat="46.02683" lon="4.97025">
        <ele>283.899993896</ele>
        <time>2015-12-22T10:49:34.386Z</time>
      </trkpt>
      <trkpt lat="46.02688" lon="4.97031">
        <ele>283.600006104</ele>
        <time>2015-12-22T10:49:35.359Z</time>
      </trkpt>
      <trkpt lat="46.02693" lon="4.97038">
        <ele>283.700012207</ele>
        <time>2015-12-22T10:49:36.379Z</time>
      </trkpt>
      <trkpt lat="46.02697" lon="4.97045">
        <ele>283.700012207</ele>
        <time>2015-12-22T10:49:37.356Z</time>
      </trkpt>
      <trkpt lat="46.02702" lon="4.97052">
        <ele>283.5</ele>
        <time>2015-12-22T10:49:38.405Z</time>
      </trkpt>
      <trkpt lat="46.02707" lon="4.97059">
        <ele>283.399993896</ele>
        <time>2015-12-22T10:49:39.361Z</time>
      </trkpt>
      <trkpt lat="46.02711" lon="4.97065">
        <ele>283.200012207</ele>
        <time>2015-12-22T10:49:40.379Z</time>
      </trkpt>
      <trkpt lat="46.02716" lon="4.97072">
        <ele>283.200012207</ele>
        <time>2015-12-22T10:49:41.359Z</time>
      </trkpt>
      <trkpt lat="46.02721" lon="4.97079">
        <ele>283.399993896</ele>
        <time>2015-12-22T10:49:42.379Z</time>
      </trkpt>
      <trkpt lat="46.02726" lon="4.97086">
        <ele>283</ele>
        <time>2015-12-22T10:49:43.362Z</time>
      </trkpt>
      <trkpt lat="46.0273" lon="4.97093">
        <ele>282.399993896</ele>
        <time>2015-12-22T10:49:44.392Z</time>
      </trkpt>
      <trkpt lat="46.02735" lon="4.97101">
        <ele>282.100006104</ele>
        <time>2015-12-22T10:49:45.36Z</time>
      </trkpt>
      <trkpt lat="46.02739" lon="4.97109">
        <ele>281.899993896</ele>
        <time>2015-12-22T10:49:46.381Z</time>
      </trkpt>
      <trkpt lat="46.02743" lon="4.97117">
        <ele>282.100006104</ele>
        <time>2015-12-22T10:49:47.36Z</time>
      </trkpt>
      <trkpt lat="46.02746" lon="4.97126">
        <ele>282.399993896</ele>
        <time>2015-12-22T10:49:48.407Z</time>
      </trkpt>
      <trkpt lat="46.02748" lon="4.97135">
        <ele>282.100006104</ele>
        <time>2015-12-22T10:49:49.365Z</time>
      </trkpt>
      <trkpt lat="46.0275" lon="4.97144">
        <ele>281.600006104</ele>
        <time>2015-12-22T10:49:50.38Z</time>
      </trkpt>
      <trkpt lat="46.02752" lon="4.97153">
        <ele>280.899993896</ele>
        <time>2015-12-22T10:49:51.359Z</time>
      </trkpt>
      <trkpt lat="46.02754" lon="4.97162">
        <ele>281.399993896</ele>
        <time>2015-12-22T10:49:52.378Z</time>
      </trkpt>
      <trkpt lat="46.02756" lon="4.97171">
        <ele>282</ele>
        <time>2015-12-22T10:49:53.357Z</time>
      </trkpt>
      <trkpt lat="46.02758" lon="4.9718">
        <ele>282.200012207</ele>
        <time>2015-12-22T10:49:54.497Z</time>
      </trkpt>
      <trkpt lat="46.0276" lon="4.97189">
        <ele>282.399993896</ele>
        <time>2015-12-22T10:49:55.362Z</time>
      </trkpt>
      <trkpt lat="46.02762" lon="4.97198">
        <ele>282.700012207</ele>
        <time>2015-12-22T10:49:56.379Z</time>
      </trkpt>
      <trkpt lat="46.02764" lon="4.97207">
        <ele>282.799987793</ele>
        <time>2015-12-22T10:49:57.364Z</time>
      </trkpt>
      <trkpt lat="46.02766" lon="4.97216">
        <ele>283</ele>
        <time>2015-12-22T10:49:58.403Z</time>
      </trkpt>
      <trkpt lat="46.02768" lon="4.97225">
        <ele>282.700012207</ele>
        <time>2015-12-22T10:49:59.352Z</time>
      </trkpt>
      <trkpt lat="46.02769" lon="4.97234">
        <ele>283</ele>
        <time>2015-12-22T10:50:00.378Z</time>
      </trkpt>
      <trkpt lat="46.02772" lon="4.97243">
        <ele>282.799987793</ele>
        <time>2015-12-22T10:50:01.362Z</time>
      </trkpt>
      <trkpt lat="46.02773" lon="4.97252">
        <ele>282.899993896</ele>
        <time>2015-12-22T10:50:02.38Z</time>
      </trkpt>
      <trkpt lat="46.02775" lon="4.9726">
        <ele>282.799987793</ele>
        <time>2015-12-22T10:50:03.36Z</time>
      </trkpt>
      <trkpt lat="46.02777" lon="4.97269">
        <ele>282.899993896</ele>
        <time>2015-12-22T10:50:04.377Z</time>
      </trkpt>
      <trkpt lat="46.02778" lon="4.97277">
        <ele>282.799987793</ele>
        <time>2015-12-22T10:50:05.358Z</time>
      </trkpt>
      <trkpt lat="46.02779" lon="4.97286">
        <ele>283</ele>
        <time>2015-12-22T10:50:06.378Z</time>
      </trkpt>
      <trkpt lat="46.0278" lon="4.97294">
        <ele>283.200012207</ele>
        <time>2015-12-22T10:50:07.363Z</time>
      </trkpt>
      <trkpt lat="46.0278" lon="4.97303">
        <ele>283.5</ele>
        <time>2015-12-22T10:50:08.403Z</time>
      </trkpt>
      <trkpt lat="46.0278" lon="4.97311">
        <ele>283.899993896</ele>
        <time>2015-12-22T10:50:09.361Z</time>
      </trkpt>
      <trkpt lat="46.02778" lon="4.97319">
        <ele>284.200012207</ele>
        <time>2015-12-22T10:50:10.393Z</time>
      </trkpt>
      <trkpt lat="46.02777" lon="4.97328">
        <ele>285.100006104</ele>
        <time>2015-12-22T10:50:11.358Z</time>
      </trkpt>
      <trkpt lat="46.02777" lon="4.97336">
        <ele>285</ele>
        <time>2015-12-22T10:50:12.377Z</time>
      </trkpt>
      <trkpt lat="46.02777" lon="4.97346">
        <ele>284.100006104</ele>
        <time>2015-12-22T10:50:13.363Z</time>
      </trkpt>
      <trkpt lat="46.02777" lon="4.97355">
        <ele>284.100006104</ele>
        <time>2015-12-22T10:50:14.4Z</time>
      </trkpt>
      <trkpt lat="46.02777" lon="4.97364">
        <ele>284.200012207</ele>
        <time>2015-12-22T10:50:15.36Z</time>
      </trkpt>
      <trkpt lat="46.02778" lon="4.97373">
        <ele>284.200012207</ele>
        <time>2015-12-22T10:50:16.413Z</time>
      </trkpt>
      <trkpt lat="46.02781" lon="4.97381">
        <ele>284.5</ele>
        <time>2015-12-22T10:50:17.359Z</time>
      </trkpt>
      <trkpt lat="46.02785" lon="4.97388">
        <ele>284.799987793</ele>
        <time>2015-12-22T10:50:18.399Z</time>
      </trkpt>
      <trkpt lat="46.0279" lon="4.97394">
        <ele>284.799987793</ele>
        <time>2015-12-22T10:50:19.362Z</time>
      </trkpt>
      <trkpt lat="46.02795" lon="4.97399">
        <ele>284.200012207</ele>
        <time>2015-12-22T10:50:20.379Z</time>
      </trkpt>
      <trkpt lat="46.02801" lon="4.97403">
        <ele>284.100006104</ele>
        <time>2015-12-22T10:50:21.396Z</time>
      </trkpt>
      <trkpt lat="46.02806" lon="4.97407">
        <ele>283.899993896</ele>
        <time>2015-12-22T10:50:22.377Z</time>
      </trkpt>
      <trkpt lat="46.02812" lon="4.97411">
        <ele>283.5</ele>
        <time>2015-12-22T10:50:23.363Z</time>
      </trkpt>
      <trkpt lat="46.02819" lon="4.97414">
        <ele>282.399993896</ele>
        <time>2015-12-22T10:50:24.379Z</time>
      </trkpt>
      <trkpt lat="46.02825" lon="4.97418">
        <ele>282.100006104</ele>
        <time>2015-12-22T10:50:25.362Z</time>
      </trkpt>
      <trkpt lat="46.02831" lon="4.97421">
        <ele>281.799987793</ele>
        <time>2015-12-22T10:50:26.38Z</time>
      </trkpt>
      <trkpt lat="46.02837" lon="4.97424">
        <ele>281.600006104</ele>
        <time>2015-12-22T10:50:27.359Z</time>
      </trkpt>
      <trkpt lat="46.02843" lon="4.97426">
        <ele>281.100006104</ele>
        <time>2015-12-22T10:50:28.4Z</time>
      </trkpt>
      <trkpt lat="46.02848" lon="4.97429">
        <ele>281.100006104</ele>
        <time>2015-12-22T10:50:29.417Z</time>
      </trkpt>
      <trkpt lat="46.02854" lon="4.97432">
        <ele>280.700012207</ele>
        <time>2015-12-22T10:50:30.38Z</time>
      </trkpt>
      <trkpt lat="46.02859" lon="4.97435">
        <ele>280.600006104</ele>
        <time>2015-12-22T10:50:31.363Z</time>
      </trkpt>
      <trkpt lat="46.02864" lon="4.97438">
        <ele>280.399993896</ele>
        <time>2015-12-22T10:50:32.379Z</time>
      </trkpt>
      <trkpt lat="46.02869" lon="4.97442">
        <ele>280.299987793</ele>
        <time>2015-12-22T10:50:33.36Z</time>
      </trkpt>
      <trkpt lat="46.02875" lon="4.97445">
        <ele>280.100006104</ele>
        <time>2015-12-22T10:50:34.378Z</time>
      </trkpt>
      <trkpt lat="46.02881" lon="4.97449">
        <ele>279.899993896</ele>
        <time>2015-12-22T10:50:35.36Z</time>
      </trkpt>
      <trkpt lat="46.02886" lon="4.97451">
        <ele>280.100006104</ele>
        <time>2015-12-22T10:50:36.396Z</time>
      </trkpt>
      <trkpt lat="46.02892" lon="4.97454">
        <ele>279.899993896</ele>
        <time>2015-12-22T10:50:37.363Z</time>
      </trkpt>
      <trkpt lat="46.02898" lon="4.97458">
        <ele>280</ele>
        <time>2015-12-22T10:50:38.402Z</time>
      </trkpt>
      <trkpt lat="46.02904" lon="4.97461">
        <ele>279.700012207</ele>
        <time>2015-12-22T10:50:39.36Z</time>
      </trkpt>
      <trkpt lat="46.0291" lon="4.97464">
        <ele>279.700012207</ele>
        <time>2015-12-22T10:50:40.378Z</time>
      </trkpt>
      <trkpt lat="46.02916" lon="4.97468">
        <ele>280</ele>
        <time>2015-12-22T10:50:41.359Z</time>
      </trkpt>
      <trkpt lat="46.02921" lon="4.97471">
        <ele>280.200012207</ele>
        <time>2015-12-22T10:50:42.379Z</time>
      </trkpt>
      <trkpt lat="46.02927" lon="4.97474">
        <ele>279.700012207</ele>
        <time>2015-12-22T10:50:43.359Z</time>
      </trkpt>
      <trkpt lat="46.02932" lon="4.97476">
        <ele>279.700012207</ele>
        <time>2015-12-22T10:50:44.379Z</time>
      </trkpt>
      <trkpt lat="46.02937" lon="4.97479">
        <ele>279.700012207</ele>
        <time>2015-12-22T10:50:45.36Z</time>
      </trkpt>
      <trkpt lat="46.02942" lon="4.97482">
        <ele>279.200012207</ele>
        <time>2015-12-22T10:50:46.379Z</time>
      </trkpt>
      <trkpt lat="46.02947" lon="4.97485">
        <ele>279</ele>
        <time>2015-12-22T10:50:47.359Z</time>
      </trkpt>
      <trkpt lat="46.02952" lon="4.97488">
        <ele>278.799987793</ele>
        <time>2015-12-22T10:50:48.403Z</time>
      </trkpt>
      <trkpt lat="46.02957" lon="4.97491">
        <ele>278.5</ele>
        <time>2015-12-22T10:50:49.367Z</time>
      </trkpt>
      <trkpt lat="46.02963" lon="4.97494">
        <ele>278.5</ele>
        <time>2015-12-22T10:50:50.378Z</time>
      </trkpt>
      <trkpt lat="46.02968" lon="4.97497">
        <ele>278.399993896</ele>
        <time>2015-12-22T10:50:51.359Z</time>
      </trkpt>
      <trkpt lat="46.02973" lon="4.975">
        <ele>278.299987793</ele>
        <time>2015-12-22T10:50:52.512Z</time>
      </trkpt>
      <trkpt lat="46.02978" lon="4.97502">
        <ele>277.5</ele>
        <time>2015-12-22T10:50:53.358Z</time>
      </trkpt>
      <trkpt lat="46.02984" lon="4.97505">
        <ele>277.200012207</ele>
        <time>2015-12-22T10:50:54.378Z</time>
      </trkpt>
      <trkpt lat="46.02989" lon="4.97508">
        <ele>277.100006104</ele>
        <time>2015-12-22T10:50:55.362Z</time>
      </trkpt>
      <trkpt lat="46.02995" lon="4.97511">
        <ele>277</ele>
        <time>2015-12-22T10:50:56.378Z</time>
      </trkpt>
      <trkpt lat="46.03001" lon="4.97514">
        <ele>276.899993896</ele>
        <time>2015-12-22T10:50:57.357Z</time>
      </trkpt>
      <trkpt lat="46.03007" lon="4.97517">
        <ele>276.799987793</ele>
        <time>2015-12-22T10:50:58.399Z</time>
      </trkpt>
      <trkpt lat="46.03013" lon="4.97521">
        <ele>277</ele>
        <time>2015-12-22T10:50:59.38Z</time>
      </trkpt>
      <trkpt lat="46.03019" lon="4.97524">
        <ele>276.899993896</ele>
        <time>2015-12-22T10:51:00.378Z</time>
      </trkpt>
      <trkpt lat="46.03024" lon="4.97528">
        <ele>276.799987793</ele>
        <time>2015-12-22T10:51:01.361Z</time>
      </trkpt>
      <trkpt lat="46.0303" lon="4.97531">
        <ele>276.5</ele>
        <time>2015-12-22T10:51:02.392Z</time>
      </trkpt>
      <trkpt lat="46.03035" lon="4.97534">
        <ele>276.5</ele>
        <time>2015-12-22T10:51:03.359Z</time>
      </trkpt>
      <trkpt lat="46.03041" lon="4.97538">
        <ele>276.600006104</ele>
        <time>2015-12-22T10:51:04.384Z</time>
      </trkpt>
      <trkpt lat="46.03047" lon="4.97541">
        <ele>276.899993896</ele>
        <time>2015-12-22T10:51:05.399Z</time>
      </trkpt>
      <trkpt lat="46.03053" lon="4.97544">
        <ele>277</ele>
        <time>2015-12-22T10:51:06.482Z</time>
      </trkpt>
      <trkpt lat="46.03058" lon="4.97547">
        <ele>277.100006104</ele>
        <time>2015-12-22T10:51:07.364Z</time>
      </trkpt>
      <trkpt lat="46.03063" lon="4.9755">
        <ele>277.200012207</ele>
        <time>2015-12-22T10:51:08.393Z</time>
      </trkpt>
      <trkpt lat="46.03068" lon="4.97553">
        <ele>277.200012207</ele>
        <time>2015-12-22T10:51:09.359Z</time>
      </trkpt>
      <trkpt lat="46.03072" lon="4.97556">
        <ele>277.100006104</ele>
        <time>2015-12-22T10:51:10.378Z</time>
      </trkpt>
      <trkpt lat="46.03076" lon="4.9756">
        <ele>277</ele>
        <time>2015-12-22T10:51:11.358Z</time>
      </trkpt>
      <trkpt lat="46.03078" lon="4.97572">
        <ele>277</ele>
        <time>2015-12-22T10:51:13.383Z</time>
      </trkpt>
      <trkpt lat="46.03077" lon="4.97578">
        <ele>277.200012207</ele>
        <time>2015-12-22T10:51:14.359Z</time>
      </trkpt>
      <trkpt lat="46.03074" lon="4.97584">
        <ele>276.899993896</ele>
        <time>2015-12-22T10:51:15.513Z</time>
      </trkpt>
      <trkpt lat="46.03071" lon="4.97589">
        <ele>276.899993896</ele>
        <time>2015-12-22T10:51:16.358Z</time>
      </trkpt>
      <trkpt lat="46.03068" lon="4.97594">
        <ele>277.100006104</ele>
        <time>2015-12-22T10:51:17.378Z</time>
      </trkpt>
      <trkpt lat="46.03064" lon="4.976">
        <ele>277.399993896</ele>
        <time>2015-12-22T10:51:18.384Z</time>
      </trkpt>
      <trkpt lat="46.03061" lon="4.97606">
        <ele>277.299987793</ele>
        <time>2015-12-22T10:51:19.383Z</time>
      </trkpt>
      <trkpt lat="46.03058" lon="4.97612">
        <ele>277.899993896</ele>
        <time>2015-12-22T10:51:20.359Z</time>
      </trkpt>
      <trkpt lat="46.03055" lon="4.97618">
        <ele>278.299987793</ele>
        <time>2015-12-22T10:51:21.38Z</time>
      </trkpt>
      <trkpt lat="46.03052" lon="4.97625">
        <ele>278.700012207</ele>
        <time>2015-12-22T10:51:22.358Z</time>
      </trkpt>
      <trkpt lat="46.03049" lon="4.97631">
        <ele>278.799987793</ele>
        <time>2015-12-22T10:51:23.381Z</time>
      </trkpt>
      <trkpt lat="46.03046" lon="4.97638">
        <ele>278.899993896</ele>
        <time>2015-12-22T10:51:24.358Z</time>
      </trkpt>
      <trkpt lat="46.03043" lon="4.97645">
        <ele>279.200012207</ele>
        <time>2015-12-22T10:51:25.382Z</time>
      </trkpt>
      <trkpt lat="46.0304" lon="4.97651">
        <ele>279.5</ele>
        <time>2015-12-22T10:51:26.358Z</time>
      </trkpt>
      <trkpt lat="46.03037" lon="4.97658">
        <ele>279.5</ele>
        <time>2015-12-22T10:51:27.381Z</time>
      </trkpt>
      <trkpt lat="46.03034" lon="4.97664">
        <ele>279.299987793</ele>
        <time>2015-12-22T10:51:28.358Z</time>
      </trkpt>
      <trkpt lat="46.03031" lon="4.97671">
        <ele>279.200012207</ele>
        <time>2015-12-22T10:51:29.377Z</time>
      </trkpt>
      <trkpt lat="46.03028" lon="4.97678">
        <ele>279</ele>
        <time>2015-12-22T10:51:30.357Z</time>
      </trkpt>
      <trkpt lat="46.03024" lon="4.97685">
        <ele>279.5</ele>
        <time>2015-12-22T10:51:31.382Z</time>
      </trkpt>
      <trkpt lat="46.03021" lon="4.97693">
        <ele>280.200012207</ele>
        <time>2015-12-22T10:51:32.359Z</time>
      </trkpt>
      <trkpt lat="46.03018" lon="4.977">
        <ele>280.299987793</ele>
        <time>2015-12-22T10:51:33.378Z</time>
      </trkpt>
      <trkpt lat="46.03016" lon="4.97708">
        <ele>280.700012207</ele>
        <time>2015-12-22T10:51:34.359Z</time>
      </trkpt>
      <trkpt lat="46.03012" lon="4.97716">
        <ele>281.200012207</ele>
        <time>2015-12-22T10:51:35.377Z</time>
      </trkpt>
      <trkpt lat="46.03008" lon="4.97723">
        <ele>281.600006104</ele>
        <time>2015-12-22T10:51:36.359Z</time>
      </trkpt>
      <trkpt lat="46.03006" lon="4.97731">
        <ele>281.799987793</ele>
        <time>2015-12-22T10:51:37.38Z</time>
      </trkpt>
      <trkpt lat="46.03003" lon="4.97738">
        <ele>282.100006104</ele>
        <time>2015-12-22T10:51:38.357Z</time>
      </trkpt>
      <trkpt lat="46.03" lon="4.97745">
        <ele>282.299987793</ele>
        <time>2015-12-22T10:51:39.392Z</time>
      </trkpt>
      <trkpt lat="46.02998" lon="4.97753">
        <ele>282.700012207</ele>
        <time>2015-12-22T10:51:40.358Z</time>
      </trkpt>
      <trkpt lat="46.02995" lon="4.9776">
        <ele>282.899993896</ele>
        <time>2015-12-22T10:51:41.381Z</time>
      </trkpt>
      <trkpt lat="46.02993" lon="4.97767">
        <ele>283.200012207</ele>
        <time>2015-12-22T10:51:42.358Z</time>
      </trkpt>
      <trkpt lat="46.0299" lon="4.97774">
        <ele>283.200012207</ele>
        <time>2015-12-22T10:51:43.392Z</time>
      </trkpt>
      <trkpt lat="46.02987" lon="4.97782">
        <ele>283.799987793</ele>
        <time>2015-12-22T10:51:44.381Z</time>
      </trkpt>
      <trkpt lat="46.02985" lon="4.97789">
        <ele>283.899993896</ele>
        <time>2015-12-22T10:51:45.379Z</time>
      </trkpt>
      <trkpt lat="46.02982" lon="4.97796">
        <ele>284.100006104</ele>
        <time>2015-12-22T10:51:46.359Z</time>
      </trkpt>
      <trkpt lat="46.02979" lon="4.97803">
        <ele>284.600006104</ele>
        <time>2015-12-22T10:51:47.378Z</time>
      </trkpt>
      <trkpt lat="46.02977" lon="4.97811">
        <ele>284.399993896</ele>
        <time>2015-12-22T10:51:48.359Z</time>
      </trkpt>
      <trkpt lat="46.02974" lon="4.97818">
        <ele>284.700012207</ele>
        <time>2015-12-22T10:51:49.39Z</time>
      </trkpt>
      <trkpt lat="46.02972" lon="4.97825">
        <ele>284.899993896</ele>
        <time>2015-12-22T10:51:50.358Z</time>
      </trkpt>
      <trkpt lat="46.02969" lon="4.97832">
        <ele>284.799987793</ele>
        <time>2015-12-22T10:51:51.378Z</time>
      </trkpt>
      <trkpt lat="46.02966" lon="4.9784">
        <ele>284.5</ele>
        <time>2015-12-22T10:51:52.358Z</time>
      </trkpt>
      <trkpt lat="46.02964" lon="4.97847">
        <ele>284.399993896</ele>
        <time>2015-12-22T10:51:53.377Z</time>
      </trkpt>
      <trkpt lat="46.02961" lon="4.97854">
        <ele>283.899993896</ele>
        <time>2015-12-22T10:51:54.358Z</time>
      </trkpt>
      <trkpt lat="46.02959" lon="4.97862">
        <ele>283.899993896</ele>
        <time>2015-12-22T10:51:55.381Z</time>
      </trkpt>
      <trkpt lat="46.02956" lon="4.97869">
        <ele>283.799987793</ele>
        <time>2015-12-22T10:51:56.406Z</time>
      </trkpt>
      <trkpt lat="46.02954" lon="4.97876">
        <ele>283.899993896</ele>
        <time>2015-12-22T10:51:57.378Z</time>
      </trkpt>
      <trkpt lat="46.02951" lon="4.97883">
        <ele>284</ele>
        <time>2015-12-22T10:51:58.358Z</time>
      </trkpt>
      <trkpt lat="46.02949" lon="4.97891">
        <ele>283.799987793</ele>
        <time>2015-12-22T10:51:59.377Z</time>
      </trkpt>
      <trkpt lat="46.02946" lon="4.97897">
        <ele>284</ele>
        <time>2015-12-22T10:52:00.358Z</time>
      </trkpt>
      <trkpt lat="46.02944" lon="4.97904">
        <ele>284</ele>
        <time>2015-12-22T10:52:01.381Z</time>
      </trkpt>
      <trkpt lat="46.02941" lon="4.97911">
        <ele>284.100006104</ele>
        <time>2015-12-22T10:52:02.507Z</time>
      </trkpt>
      <trkpt lat="46.02939" lon="4.97918">
        <ele>284</ele>
        <time>2015-12-22T10:52:03.378Z</time>
      </trkpt>
      <trkpt lat="46.02936" lon="4.97924">
        <ele>284.299987793</ele>
        <time>2015-12-22T10:52:04.357Z</time>
      </trkpt>
      <trkpt lat="46.02933" lon="4.97931">
        <ele>284.299987793</ele>
        <time>2015-12-22T10:52:05.378Z</time>
      </trkpt>
      <trkpt lat="46.02931" lon="4.97937">
        <ele>284.200012207</ele>
        <time>2015-12-22T10:52:06.359Z</time>
      </trkpt>
      <trkpt lat="46.02928" lon="4.97944">
        <ele>284.100006104</ele>
        <time>2015-12-22T10:52:07.383Z</time>
      </trkpt>
      <trkpt lat="46.02926" lon="4.97951">
        <ele>284.100006104</ele>
        <time>2015-12-22T10:52:08.358Z</time>
      </trkpt>
      <trkpt lat="46.02923" lon="4.97958">
        <ele>284.399993896</ele>
        <time>2015-12-22T10:52:09.378Z</time>
      </trkpt>
      <trkpt lat="46.0292" lon="4.97965">
        <ele>284.5</ele>
        <time>2015-12-22T10:52:10.403Z</time>
      </trkpt>
      <trkpt lat="46.02918" lon="4.97972">
        <ele>284.600006104</ele>
        <time>2015-12-22T10:52:11.376Z</time>
      </trkpt>
      <trkpt lat="46.02915" lon="4.97979">
        <ele>284.700012207</ele>
        <time>2015-12-22T10:52:12.359Z</time>
      </trkpt>
      <trkpt lat="46.02912" lon="4.97986">
        <ele>285</ele>
        <time>2015-12-22T10:52:13.381Z</time>
      </trkpt>
      <trkpt lat="46.0291" lon="4.97993">
        <ele>285.200012207</ele>
        <time>2015-12-22T10:52:14.358Z</time>
      </trkpt>
      <trkpt lat="46.02907" lon="4.98">
        <ele>285.399993896</ele>
        <time>2015-12-22T10:52:15.387Z</time>
      </trkpt>
      <trkpt lat="46.02904" lon="4.98007">
        <ele>285.399993896</ele>
        <time>2015-12-22T10:52:16.358Z</time>
      </trkpt>
      <trkpt lat="46.02902" lon="4.98015">
        <ele>285.600006104</ele>
        <time>2015-12-22T10:52:17.377Z</time>
      </trkpt>
      <trkpt lat="46.02899" lon="4.98022">
        <ele>285.5</ele>
        <time>2015-12-22T10:52:18.357Z</time>
      </trkpt>
      <trkpt lat="46.02897" lon="4.98028">
        <ele>285.5</ele>
        <time>2015-12-22T10:52:19.38Z</time>
      </trkpt>
      <trkpt lat="46.02895" lon="4.98036">
        <ele>285.200012207</ele>
        <time>2015-12-22T10:52:20.357Z</time>
      </trkpt>
      <trkpt lat="46.02892" lon="4.98042">
        <ele>285.5</ele>
        <time>2015-12-22T10:52:21.482Z</time>
      </trkpt>
      <trkpt lat="46.0289" lon="4.98049">
        <ele>285.600006104</ele>
        <time>2015-12-22T10:52:22.359Z</time>
      </trkpt>
      <trkpt lat="46.02888" lon="4.98055">
        <ele>285.200012207</ele>
        <time>2015-12-22T10:52:23.377Z</time>
      </trkpt>
      <trkpt lat="46.02886" lon="4.98062">
        <ele>285.299987793</ele>
        <time>2015-12-22T10:52:24.358Z</time>
      </trkpt>
      <trkpt lat="46.02883" lon="4.98068">
        <ele>285.399993896</ele>
        <time>2015-12-22T10:52:25.381Z</time>
      </trkpt>
      <trkpt lat="46.0288" lon="4.98075">
        <ele>285.5</ele>
        <time>2015-12-22T10:52:26.375Z</time>
      </trkpt>
      <trkpt lat="46.02877" lon="4.98081">
        <ele>285.600006104</ele>
        <time>2015-12-22T10:52:27.379Z</time>
      </trkpt>
      <trkpt lat="46.02875" lon="4.98088">
        <ele>285.5</ele>
        <time>2015-12-22T10:52:28.358Z</time>
      </trkpt>
      <trkpt lat="46.02872" lon="4.98095">
        <ele>285.5</ele>
        <time>2015-12-22T10:52:29.398Z</time>
      </trkpt>
      <trkpt lat="46.0287" lon="4.98101">
        <ele>285.299987793</ele>
        <time>2015-12-22T10:52:30.359Z</time>
      </trkpt>
      <trkpt lat="46.02867" lon="4.98108">
        <ele>285.200012207</ele>
        <time>2015-12-22T10:52:31.382Z</time>
      </trkpt>
      <trkpt lat="46.02865" lon="4.98115">
        <ele>285.299987793</ele>
        <time>2015-12-22T10:52:32.352Z</time>
      </trkpt>
      <trkpt lat="46.02862" lon="4.98121">
        <ele>285.200012207</ele>
        <time>2015-12-22T10:52:33.387Z</time>
      </trkpt>
      <trkpt lat="46.0286" lon="4.98128">
        <ele>285.299987793</ele>
        <time>2015-12-22T10:52:34.358Z</time>
      </trkpt>
      <trkpt lat="46.02857" lon="4.98135">
        <ele>285.799987793</ele>
        <time>2015-12-22T10:52:35.377Z</time>
      </trkpt>
      <trkpt lat="46.02855" lon="4.98142">
        <ele>285.799987793</ele>
        <time>2015-12-22T10:52:36.49Z</time>
      </trkpt>
      <trkpt lat="46.02852" lon="4.98149">
        <ele>285.899993896</ele>
        <time>2015-12-22T10:52:37.383Z</time>
      </trkpt>
      <trkpt lat="46.0285" lon="4.98156">
        <ele>286.200012207</ele>
        <time>2015-12-22T10:52:38.36Z</time>
      </trkpt>
      <trkpt lat="46.02847" lon="4.98162">
        <ele>286.700012207</ele>
        <time>2015-12-22T10:52:39.379Z</time>
      </trkpt>
      <trkpt lat="46.02845" lon="4.98169">
        <ele>286.899993896</ele>
        <time>2015-12-22T10:52:40.359Z</time>
      </trkpt>
      <trkpt lat="46.02843" lon="4.98176">
        <ele>286.899993896</ele>
        <time>2015-12-22T10:52:41.378Z</time>
      </trkpt>
      <trkpt lat="46.0284" lon="4.98183">
        <ele>287.100006104</ele>
        <time>2015-12-22T10:52:42.418Z</time>
      </trkpt>
      <trkpt lat="46.02837" lon="4.98189">
        <ele>287.100006104</ele>
        <time>2015-12-22T10:52:43.381Z</time>
      </trkpt>
      <trkpt lat="46.02835" lon="4.98196">
        <ele>287.299987793</ele>
        <time>2015-12-22T10:52:44.36Z</time>
      </trkpt>
      <trkpt lat="46.02832" lon="4.98203">
        <ele>287.5</ele>
        <time>2015-12-22T10:52:45.379Z</time>
      </trkpt>
      <trkpt lat="46.02829" lon="4.9821">
        <ele>287.600006104</ele>
        <time>2015-12-22T10:52:46.358Z</time>
      </trkpt>
      <trkpt lat="46.02827" lon="4.98217">
        <ele>287.799987793</ele>
        <time>2015-12-22T10:52:47.378Z</time>
      </trkpt>
      <trkpt lat="46.02824" lon="4.98225">
        <ele>288</ele>
        <time>2015-12-22T10:52:48.358Z</time>
      </trkpt>
      <trkpt lat="46.02822" lon="4.98232">
        <ele>287.899993896</ele>
        <time>2015-12-22T10:52:49.383Z</time>
      </trkpt>
      <trkpt lat="46.0282" lon="4.98239">
        <ele>287.899993896</ele>
        <time>2015-12-22T10:52:50.357Z</time>
      </trkpt>
      <trkpt lat="46.02817" lon="4.98245">
        <ele>288</ele>
        <time>2015-12-22T10:52:51.378Z</time>
      </trkpt>
      <trkpt lat="46.02815" lon="4.98252">
        <ele>288.200012207</ele>
        <time>2015-12-22T10:52:52.374Z</time>
      </trkpt>
      <trkpt lat="46.02812" lon="4.98259">
        <ele>288.399993896</ele>
        <time>2015-12-22T10:52:53.377Z</time>
      </trkpt>
      <trkpt lat="46.0281" lon="4.98266">
        <ele>288.5</ele>
        <time>2015-12-22T10:52:54.351Z</time>
      </trkpt>
      <trkpt lat="46.02807" lon="4.98273">
        <ele>288.299987793</ele>
        <time>2015-12-22T10:52:55.381Z</time>
      </trkpt>
      <trkpt lat="46.02804" lon="4.9828">
        <ele>288.200012207</ele>
        <time>2015-12-22T10:52:56.358Z</time>
      </trkpt>
      <trkpt lat="46.02802" lon="4.98288">
        <ele>288.299987793</ele>
        <time>2015-12-22T10:52:57.378Z</time>
      </trkpt>
      <trkpt lat="46.02799" lon="4.98294">
        <ele>288</ele>
        <time>2015-12-22T10:52:58.358Z</time>
      </trkpt>
      <trkpt lat="46.02796" lon="4.98301">
        <ele>288</ele>
        <time>2015-12-22T10:52:59.397Z</time>
      </trkpt>
      <trkpt lat="46.02793" lon="4.98308">
        <ele>288</ele>
        <time>2015-12-22T10:53:00.358Z</time>
      </trkpt>
      <trkpt lat="46.0279" lon="4.98315">
        <ele>288.399993896</ele>
        <time>2015-12-22T10:53:01.38Z</time>
      </trkpt>
      <trkpt lat="46.02788" lon="4.98322">
        <ele>288.799987793</ele>
        <time>2015-12-22T10:53:02.358Z</time>
      </trkpt>
      <trkpt lat="46.02785" lon="4.98329">
        <ele>289</ele>
        <time>2015-12-22T10:53:03.378Z</time>
      </trkpt>
      <trkpt lat="46.02783" lon="4.98336">
        <ele>289</ele>
        <time>2015-12-22T10:53:04.357Z</time>
      </trkpt>
      <trkpt lat="46.0278" lon="4.98343">
        <ele>289.100006104</ele>
        <time>2015-12-22T10:53:05.377Z</time>
      </trkpt>
      <trkpt lat="46.02778" lon="4.9835">
        <ele>289.100006104</ele>
        <time>2015-12-22T10:53:06.357Z</time>
      </trkpt>
      <trkpt lat="46.02775" lon="4.98356">
        <ele>288.899993896</ele>
        <time>2015-12-22T10:53:07.505Z</time>
      </trkpt>
      <trkpt lat="46.02773" lon="4.98363">
        <ele>289</ele>
        <time>2015-12-22T10:53:08.358Z</time>
      </trkpt>
      <trkpt lat="46.02771" lon="4.98369">
        <ele>289</ele>
        <time>2015-12-22T10:53:09.38Z</time>
      </trkpt>
      <trkpt lat="46.02768" lon="4.98376">
        <ele>289.100006104</ele>
        <time>2015-12-22T10:53:10.358Z</time>
      </trkpt>
      <trkpt lat="46.02766" lon="4.98382">
        <ele>289.299987793</ele>
        <time>2015-12-22T10:53:11.377Z</time>
      </trkpt>
      <trkpt lat="46.02763" lon="4.98388">
        <ele>289.399993896</ele>
        <time>2015-12-22T10:53:12.358Z</time>
      </trkpt>
      <trkpt lat="46.0276" lon="4.98395">
        <ele>289.5</ele>
        <time>2015-12-22T10:53:13.381Z</time>
      </trkpt>
      <trkpt lat="46.02758" lon="4.98402">
        <ele>289.200012207</ele>
        <time>2015-12-22T10:53:14.381Z</time>
      </trkpt>
      <trkpt lat="46.02756" lon="4.98409">
        <ele>289.399993896</ele>
        <time>2015-12-22T10:53:15.379Z</time>
      </trkpt>
      <trkpt lat="46.02754" lon="4.98417">
        <ele>289.399993896</ele>
        <time>2015-12-22T10:53:16.388Z</time>
      </trkpt>
      <trkpt lat="46.02751" lon="4.98424">
        <ele>289.399993896</ele>
        <time>2015-12-22T10:53:17.376Z</time>
      </trkpt>
      <trkpt lat="46.02749" lon="4.98431">
        <ele>289.399993896</ele>
        <time>2015-12-22T10:53:18.376Z</time>
      </trkpt>
      <trkpt lat="46.02747" lon="4.98437">
        <ele>289.299987793</ele>
        <time>2015-12-22T10:53:19.385Z</time>
      </trkpt>
      <trkpt lat="46.02744" lon="4.98445">
        <ele>288.899993896</ele>
        <time>2015-12-22T10:53:20.361Z</time>
      </trkpt>
      <trkpt lat="46.02742" lon="4.98452">
        <ele>288.600006104</ele>
        <time>2015-12-22T10:53:21.379Z</time>
      </trkpt>
      <trkpt lat="46.0274" lon="4.98459">
        <ele>287.899993896</ele>
        <time>2015-12-22T10:53:22.365Z</time>
      </trkpt>
      <trkpt lat="46.02738" lon="4.98466">
        <ele>288</ele>
        <time>2015-12-22T10:53:23.377Z</time>
      </trkpt>
      <trkpt lat="46.02735" lon="4.98473">
        <ele>287.600006104</ele>
        <time>2015-12-22T10:53:24.358Z</time>
      </trkpt>
      <trkpt lat="46.02733" lon="4.9848">
        <ele>287.799987793</ele>
        <time>2015-12-22T10:53:25.381Z</time>
      </trkpt>
      <trkpt lat="46.0273" lon="4.98487">
        <ele>288.100006104</ele>
        <time>2015-12-22T10:53:26.358Z</time>
      </trkpt>
      <trkpt lat="46.02726" lon="4.98494">
        <ele>288.899993896</ele>
        <time>2015-12-22T10:53:27.377Z</time>
      </trkpt>
      <trkpt lat="46.02724" lon="4.98501">
        <ele>289.700012207</ele>
        <time>2015-12-22T10:53:28.358Z</time>
      </trkpt>
      <trkpt lat="46.02721" lon="4.98508">
        <ele>290</ele>
        <time>2015-12-22T10:53:29.377Z</time>
      </trkpt>
      <trkpt lat="46.02719" lon="4.98515">
        <ele>290.399993896</ele>
        <time>2015-12-22T10:53:30.357Z</time>
      </trkpt>
      <trkpt lat="46.02716" lon="4.98522">
        <ele>290.600006104</ele>
        <time>2015-12-22T10:53:31.517Z</time>
      </trkpt>
      <trkpt lat="46.02714" lon="4.98528">
        <ele>290.600006104</ele>
        <time>2015-12-22T10:53:32.358Z</time>
      </trkpt>
      <trkpt lat="46.02712" lon="4.98535">
        <ele>290.100006104</ele>
        <time>2015-12-22T10:53:33.377Z</time>
      </trkpt>
      <trkpt lat="46.02709" lon="4.98541">
        <ele>290.299987793</ele>
        <time>2015-12-22T10:53:34.359Z</time>
      </trkpt>
      <trkpt lat="46.02707" lon="4.98548">
        <ele>290.600006104</ele>
        <time>2015-12-22T10:53:35.377Z</time>
      </trkpt>
      <trkpt lat="46.02704" lon="4.98555">
        <ele>290.5</ele>
        <time>2015-12-22T10:53:36.358Z</time>
      </trkpt>
      <trkpt lat="46.02702" lon="4.98562">
        <ele>290.299987793</ele>
        <time>2015-12-22T10:53:37.422Z</time>
      </trkpt>
      <trkpt lat="46.02699" lon="4.98569">
        <ele>290.700012207</ele>
        <time>2015-12-22T10:53:38.358Z</time>
      </trkpt>
      <trkpt lat="46.02696" lon="4.98576">
        <ele>291</ele>
        <time>2015-12-22T10:53:39.392Z</time>
      </trkpt>
      <trkpt lat="46.02693" lon="4.98584">
        <ele>290.899993896</ele>
        <time>2015-12-22T10:53:40.358Z</time>
      </trkpt>
      <trkpt lat="46.0269" lon="4.9859">
        <ele>290.5</ele>
        <time>2015-12-22T10:53:41.377Z</time>
      </trkpt>
      <trkpt lat="46.02688" lon="4.98598">
        <ele>290.100006104</ele>
        <time>2015-12-22T10:53:42.357Z</time>
      </trkpt>
      <trkpt lat="46.02685" lon="4.98604">
        <ele>290.200012207</ele>
        <time>2015-12-22T10:53:43.38Z</time>
      </trkpt>
      <trkpt lat="46.02683" lon="4.98611">
        <ele>289.899993896</ele>
        <time>2015-12-22T10:53:44.358Z</time>
      </trkpt>
      <trkpt lat="46.0268" lon="4.98619">
        <ele>289.5</ele>
        <time>2015-12-22T10:53:45.379Z</time>
      </trkpt>
      <trkpt lat="46.02678" lon="4.98625">
        <ele>289.600006104</ele>
        <time>2015-12-22T10:53:46.361Z</time>
      </trkpt>
      <trkpt lat="46.02675" lon="4.98633">
        <ele>289.399993896</ele>
        <time>2015-12-22T10:53:47.435Z</time>
      </trkpt>
      <trkpt lat="46.02672" lon="4.9864">
        <ele>289.399993896</ele>
        <time>2015-12-22T10:53:48.358Z</time>
      </trkpt>
      <trkpt lat="46.02669" lon="4.98647">
        <ele>289.399993896</ele>
        <time>2015-12-22T10:53:49.392Z</time>
      </trkpt>
      <trkpt lat="46.02666" lon="4.98655">
        <ele>289.5</ele>
        <time>2015-12-22T10:53:50.359Z</time>
      </trkpt>
      <trkpt lat="46.02663" lon="4.98663">
        <ele>289.200012207</ele>
        <time>2015-12-22T10:53:51.378Z</time>
      </trkpt>
      <trkpt lat="46.0266" lon="4.98671">
        <ele>288.899993896</ele>
        <time>2015-12-22T10:53:52.358Z</time>
      </trkpt>
      <trkpt lat="46.02657" lon="4.98679">
        <ele>288.700012207</ele>
        <time>2015-12-22T10:53:53.376Z</time>
      </trkpt>
      <trkpt lat="46.02654" lon="4.98688">
        <ele>288.399993896</ele>
        <time>2015-12-22T10:53:54.358Z</time>
      </trkpt>
      <trkpt lat="46.02651" lon="4.98696">
        <ele>288.200012207</ele>
        <time>2015-12-22T10:53:55.381Z</time>
      </trkpt>
      <trkpt lat="46.02647" lon="4.98704">
        <ele>288.200012207</ele>
        <time>2015-12-22T10:53:56.359Z</time>
      </trkpt>
      <trkpt lat="46.02644" lon="4.98713">
        <ele>288.5</ele>
        <time>2015-12-22T10:53:57.378Z</time>
      </trkpt>
      <trkpt lat="46.02641" lon="4.98721">
        <ele>288.200012207</ele>
        <time>2015-12-22T10:53:58.357Z</time>
      </trkpt>
      <trkpt lat="46.02638" lon="4.9873">
        <ele>288.299987793</ele>
        <time>2015-12-22T10:53:59.435Z</time>
      </trkpt>
      <trkpt lat="46.02635" lon="4.98738">
        <ele>288.299987793</ele>
        <time>2015-12-22T10:54:00.358Z</time>
      </trkpt>
      <trkpt lat="46.02632" lon="4.98746">
        <ele>288.299987793</ele>
        <time>2015-12-22T10:54:01.381Z</time>
      </trkpt>
      <trkpt lat="46.02629" lon="4.98755">
        <ele>288.299987793</ele>
        <time>2015-12-22T10:54:02.358Z</time>
      </trkpt>
      <trkpt lat="46.02626" lon="4.98763">
        <ele>288.399993896</ele>
        <time>2015-12-22T10:54:03.388Z</time>
      </trkpt>
      <trkpt lat="46.02623" lon="4.98772">
        <ele>288.299987793</ele>
        <time>2015-12-22T10:54:04.358Z</time>
      </trkpt>
      <trkpt lat="46.02619" lon="4.98781">
        <ele>288.399993896</ele>
        <time>2015-12-22T10:54:05.377Z</time>
      </trkpt>
      <trkpt lat="46.02616" lon="4.9879">
        <ele>288.399993896</ele>
        <time>2015-12-22T10:54:06.359Z</time>
      </trkpt>
      <trkpt lat="46.02613" lon="4.98799">
        <ele>288.399993896</ele>
        <time>2015-12-22T10:54:07.381Z</time>
      </trkpt>
      <trkpt lat="46.0261" lon="4.98808">
        <ele>288.100006104</ele>
        <time>2015-12-22T10:54:08.359Z</time>
      </trkpt>
      <trkpt lat="46.02606" lon="4.98817">
        <ele>288.399993896</ele>
        <time>2015-12-22T10:54:09.379Z</time>
      </trkpt>
      <trkpt lat="46.02603" lon="4.98827">
        <ele>287.799987793</ele>
        <time>2015-12-22T10:54:10.374Z</time>
      </trkpt>
      <trkpt lat="46.026" lon="4.98836">
        <ele>287.200012207</ele>
        <time>2015-12-22T10:54:11.379Z</time>
      </trkpt>
      <trkpt lat="46.02598" lon="4.98844">
        <ele>286.899993896</ele>
        <time>2015-12-22T10:54:12.364Z</time>
      </trkpt>
      <trkpt lat="46.02595" lon="4.98852">
        <ele>287</ele>
        <time>2015-12-22T10:54:13.382Z</time>
      </trkpt>
      <trkpt lat="46.02592" lon="4.9886">
        <ele>287.100006104</ele>
        <time>2015-12-22T10:54:14.359Z</time>
      </trkpt>
      <trkpt lat="46.02589" lon="4.98867">
        <ele>287.100006104</ele>
        <time>2015-12-22T10:54:15.378Z</time>
      </trkpt>
      <trkpt lat="46.02586" lon="4.98874">
        <ele>287.100006104</ele>
        <time>2015-12-22T10:54:16.359Z</time>
      </trkpt>
      <trkpt lat="46.02584" lon="4.98881">
        <ele>287.200012207</ele>
        <time>2015-12-22T10:54:17.49Z</time>
      </trkpt>
      <trkpt lat="46.02581" lon="4.98888">
        <ele>287.100006104</ele>
        <time>2015-12-22T10:54:18.358Z</time>
      </trkpt>
      <trkpt lat="46.02579" lon="4.98896">
        <ele>286.600006104</ele>
        <time>2015-12-22T10:54:19.381Z</time>
      </trkpt>
      <trkpt lat="46.02576" lon="4.98903">
        <ele>286.299987793</ele>
        <time>2015-12-22T10:54:20.354Z</time>
      </trkpt>
      <trkpt lat="46.02573" lon="4.9891">
        <ele>286.299987793</ele>
        <time>2015-12-22T10:54:21.379Z</time>
      </trkpt>
      <trkpt lat="46.0257" lon="4.98917">
        <ele>286.399993896</ele>
        <time>2015-12-22T10:54:22.358Z</time>
      </trkpt>
      <trkpt lat="46.02567" lon="4.98925">
        <ele>286.799987793</ele>
        <time>2015-12-22T10:54:23.377Z</time>
      </trkpt>
      <trkpt lat="46.02565" lon="4.98933">
        <ele>286.899993896</ele>
        <time>2015-12-22T10:54:24.358Z</time>
      </trkpt>
      <trkpt lat="46.02562" lon="4.98941">
        <ele>286.799987793</ele>
        <time>2015-12-22T10:54:25.381Z</time>
      </trkpt>
      <trkpt lat="46.02559" lon="4.98948">
        <ele>286.899993896</ele>
        <time>2015-12-22T10:54:26.358Z</time>
      </trkpt>
      <trkpt lat="46.02556" lon="4.98956">
        <ele>286.299987793</ele>
        <time>2015-12-22T10:54:27.43Z</time>
      </trkpt>
      <trkpt lat="46.02553" lon="4.98964">
        <ele>286.799987793</ele>
        <time>2015-12-22T10:54:28.357Z</time>
      </trkpt>
      <trkpt lat="46.0255" lon="4.98971">
        <ele>286.600006104</ele>
        <time>2015-12-22T10:54:29.378Z</time>
      </trkpt>
      <trkpt lat="46.02548" lon="4.98978">
        <ele>286.799987793</ele>
        <time>2015-12-22T10:54:30.359Z</time>
      </trkpt>
      <trkpt lat="46.02545" lon="4.98985">
        <ele>286.799987793</ele>
        <time>2015-12-22T10:54:31.396Z</time>
      </trkpt>
      <trkpt lat="46.02542" lon="4.98992">
        <ele>286.700012207</ele>
        <time>2015-12-22T10:54:32.358Z</time>
      </trkpt>
      <trkpt lat="46.0254" lon="4.98999">
        <ele>286.5</ele>
        <time>2015-12-22T10:54:33.377Z</time>
      </trkpt>
      <trkpt lat="46.02537" lon="4.99005">
        <ele>286.299987793</ele>
        <time>2015-12-22T10:54:34.359Z</time>
      </trkpt>
      <trkpt lat="46.02535" lon="4.99011">
        <ele>286.299987793</ele>
        <time>2015-12-22T10:54:35.382Z</time>
      </trkpt>
      <trkpt lat="46.02532" lon="4.99018">
        <ele>286.200012207</ele>
        <time>2015-12-22T10:54:36.358Z</time>
      </trkpt>
      <trkpt lat="46.0253" lon="4.99024">
        <ele>285.899993896</ele>
        <time>2015-12-22T10:54:37.38Z</time>
      </trkpt>
      <trkpt lat="46.02527" lon="4.9903">
        <ele>285.700012207</ele>
        <time>2015-12-22T10:54:38.362Z</time>
      </trkpt>
      <trkpt lat="46.02524" lon="4.99036">
        <ele>285.700012207</ele>
        <time>2015-12-22T10:54:39.379Z</time>
      </trkpt>
      <trkpt lat="46.02519" lon="4.99041">
        <ele>285.5</ele>
        <time>2015-12-22T10:54:40.357Z</time>
      </trkpt>
      <trkpt lat="46.02514" lon="4.99043">
        <ele>284.899993896</ele>
        <time>2015-12-22T10:54:41.377Z</time>
      </trkpt>
      <trkpt lat="46.02509" lon="4.99043">
        <ele>284.5</ele>
        <time>2015-12-22T10:54:42.354Z</time>
      </trkpt>
      <trkpt lat="46.02503" lon="4.99043">
        <ele>284.100006104</ele>
        <time>2015-12-22T10:54:43.38Z</time>
      </trkpt>
      <trkpt lat="46.02497" lon="4.99041">
        <ele>283.799987793</ele>
        <time>2015-12-22T10:54:44.381Z</time>
      </trkpt>
      <trkpt lat="46.02491" lon="4.9904">
        <ele>283.700012207</ele>
        <time>2015-12-22T10:54:45.378Z</time>
      </trkpt>
      <trkpt lat="46.02484" lon="4.99039">
        <ele>283.600006104</ele>
        <time>2015-12-22T10:54:46.359Z</time>
      </trkpt>
      <trkpt lat="46.02478" lon="4.99038">
        <ele>283.100006104</ele>
        <time>2015-12-22T10:54:47.377Z</time>
      </trkpt>
      <trkpt lat="46.02472" lon="4.99038">
        <ele>282.799987793</ele>
        <time>2015-12-22T10:54:48.358Z</time>
      </trkpt>
      <trkpt lat="46.02465" lon="4.99037">
        <ele>282.700012207</ele>
        <time>2015-12-22T10:54:49.389Z</time>
      </trkpt>
      <trkpt lat="46.02459" lon="4.99036">
        <ele>282.700012207</ele>
        <time>2015-12-22T10:54:50.357Z</time>
      </trkpt>
      <trkpt lat="46.02452" lon="4.99034">
        <ele>282.399993896</ele>
        <time>2015-12-22T10:54:51.385Z</time>
      </trkpt>
      <trkpt lat="46.02446" lon="4.99033">
        <ele>282.200012207</ele>
        <time>2015-12-22T10:54:52.376Z</time>
      </trkpt>
      <trkpt lat="46.02439" lon="4.99032">
        <ele>282.100006104</ele>
        <time>2015-12-22T10:54:53.378Z</time>
      </trkpt>
      <trkpt lat="46.02433" lon="4.99031">
        <ele>282.100006104</ele>
        <time>2015-12-22T10:54:54.358Z</time>
      </trkpt>
      <trkpt lat="46.02427" lon="4.9903">
        <ele>282.299987793</ele>
        <time>2015-12-22T10:54:55.381Z</time>
      </trkpt>
      <trkpt lat="46.02421" lon="4.99029">
        <ele>282.299987793</ele>
        <time>2015-12-22T10:54:56.358Z</time>
      </trkpt>
      <trkpt lat="46.02415" lon="4.99028">
        <ele>282.399993896</ele>
        <time>2015-12-22T10:54:57.378Z</time>
      </trkpt>
      <trkpt lat="46.0241" lon="4.99027">
        <ele>282.399993896</ele>
        <time>2015-12-22T10:54:58.358Z</time>
      </trkpt>
      <trkpt lat="46.02404" lon="4.99027">
        <ele>282.5</ele>
        <time>2015-12-22T10:54:59.376Z</time>
      </trkpt>
      <trkpt lat="46.02399" lon="4.99028">
        <ele>282.299987793</ele>
        <time>2015-12-22T10:55:00.358Z</time>
      </trkpt>
      <trkpt lat="46.02394" lon="4.9903">
        <ele>282.399993896</ele>
        <time>2015-12-22T10:55:01.382Z</time>
      </trkpt>
      <trkpt lat="46.02388" lon="4.99033">
        <ele>282.700012207</ele>
        <time>2015-12-22T10:55:02.382Z</time>
      </trkpt>
      <trkpt lat="46.02383" lon="4.99037">
        <ele>282.899993896</ele>
        <time>2015-12-22T10:55:03.52Z</time>
      </trkpt>
      <trkpt lat="46.02379" lon="4.99041">
        <ele>283.200012207</ele>
        <time>2015-12-22T10:55:04.358Z</time>
      </trkpt>
      <trkpt lat="46.02374" lon="4.99046">
        <ele>283.399993896</ele>
        <time>2015-12-22T10:55:05.382Z</time>
      </trkpt>
      <trkpt lat="46.0237" lon="4.99052">
        <ele>283.200012207</ele>
        <time>2015-12-22T10:55:06.358Z</time>
      </trkpt>
      <trkpt lat="46.02367" lon="4.99058">
        <ele>282.899993896</ele>
        <time>2015-12-22T10:55:07.381Z</time>
      </trkpt>
      <trkpt lat="46.02363" lon="4.99065">
        <ele>282.600006104</ele>
        <time>2015-12-22T10:55:08.359Z</time>
      </trkpt>
      <trkpt lat="46.0236" lon="4.99071">
        <ele>282.600006104</ele>
        <time>2015-12-22T10:55:09.378Z</time>
      </trkpt>
      <trkpt lat="46.02357" lon="4.99078">
        <ele>282.600006104</ele>
        <time>2015-12-22T10:55:10.358Z</time>
      </trkpt>
      <trkpt lat="46.02353" lon="4.99085">
        <ele>282.700012207</ele>
        <time>2015-12-22T10:55:11.376Z</time>
      </trkpt>
      <trkpt lat="46.02349" lon="4.99091">
        <ele>282.700012207</ele>
        <time>2015-12-22T10:55:12.357Z</time>
      </trkpt>
      <trkpt lat="46.02345" lon="4.99097">
        <ele>282.5</ele>
        <time>2015-12-22T10:55:13.406Z</time>
      </trkpt>
      <trkpt lat="46.02341" lon="4.99103">
        <ele>282.399993896</ele>
        <time>2015-12-22T10:55:14.36Z</time>
      </trkpt>
      <trkpt lat="46.02337" lon="4.99108">
        <ele>281.899993896</ele>
        <time>2015-12-22T10:55:15.382Z</time>
      </trkpt>
      <trkpt lat="46.02332" lon="4.99114">
        <ele>282.399993896</ele>
        <time>2015-12-22T10:55:16.357Z</time>
      </trkpt>
      <trkpt lat="46.02328" lon="4.99119">
        <ele>282.600006104</ele>
        <time>2015-12-22T10:55:17.377Z</time>
      </trkpt>
      <trkpt lat="46.02322" lon="4.99122">
        <ele>282.799987793</ele>
        <time>2015-12-22T10:55:18.357Z</time>
      </trkpt>
      <trkpt lat="46.02317" lon="4.99126">
        <ele>282.700012207</ele>
        <time>2015-12-22T10:55:19.38Z</time>
      </trkpt>
      <trkpt lat="46.02311" lon="4.99128">
        <ele>282.399993896</ele>
        <time>2015-12-22T10:55:20.358Z</time>
      </trkpt>
      <trkpt lat="46.02305" lon="4.9913">
        <ele>282.399993896</ele>
        <time>2015-12-22T10:55:21.379Z</time>
      </trkpt>
      <trkpt lat="46.02299" lon="4.9913">
        <ele>282.700012207</ele>
        <time>2015-12-22T10:55:22.409Z</time>
      </trkpt>
      <trkpt lat="46.02294" lon="4.99131">
        <ele>282.600006104</ele>
        <time>2015-12-22T10:55:23.398Z</time>
      </trkpt>
      <trkpt lat="46.02288" lon="4.9913">
        <ele>282.600006104</ele>
        <time>2015-12-22T10:55:24.358Z</time>
      </trkpt>
      <trkpt lat="46.02283" lon="4.99128">
        <ele>282.5</ele>
        <time>2015-12-22T10:55:25.381Z</time>
      </trkpt>
      <trkpt lat="46.02277" lon="4.99126">
        <ele>282.5</ele>
        <time>2015-12-22T10:55:26.405Z</time>
      </trkpt>
      <trkpt lat="46.02272" lon="4.99123">
        <ele>283</ele>
        <time>2015-12-22T10:55:27.378Z</time>
      </trkpt>
      <trkpt lat="46.02267" lon="4.9912">
        <ele>282.899993896</ele>
        <time>2015-12-22T10:55:28.357Z</time>
      </trkpt>
      <trkpt lat="46.02261" lon="4.99118">
        <ele>282.899993896</ele>
        <time>2015-12-22T10:55:29.399Z</time>
      </trkpt>
      <trkpt lat="46.02257" lon="4.99115">
        <ele>282.5</ele>
        <time>2015-12-22T10:55:30.388Z</time>
      </trkpt>
      <trkpt lat="46.02252" lon="4.99113">
        <ele>282.399993896</ele>
        <time>2015-12-22T10:55:31.382Z</time>
      </trkpt>
      <trkpt lat="46.02247" lon="4.99111">
        <ele>282.299987793</ele>
        <time>2015-12-22T10:55:32.358Z</time>
      </trkpt>
      <trkpt lat="46.02241" lon="4.99109">
        <ele>282.600006104</ele>
        <time>2015-12-22T10:55:33.438Z</time>
      </trkpt>
      <trkpt lat="46.02236" lon="4.99108">
        <ele>282.600006104</ele>
        <time>2015-12-22T10:55:34.36Z</time>
      </trkpt>
      <trkpt lat="46.02231" lon="4.99109">
        <ele>282.600006104</ele>
        <time>2015-12-22T10:55:35.39Z</time>
      </trkpt>
      <trkpt lat="46.02226" lon="4.99112">
        <ele>282.5</ele>
        <time>2015-12-22T10:55:36.359Z</time>
      </trkpt>
      <trkpt lat="46.02221" lon="4.99115">
        <ele>282.5</ele>
        <time>2015-12-22T10:55:37.379Z</time>
      </trkpt>
      <trkpt lat="46.02217" lon="4.99119">
        <ele>282.899993896</ele>
        <time>2015-12-22T10:55:38.359Z</time>
      </trkpt>
      <trkpt lat="46.02212" lon="4.99124">
        <ele>283.100006104</ele>
        <time>2015-12-22T10:55:39.422Z</time>
      </trkpt>
      <trkpt lat="46.02207" lon="4.99127">
        <ele>283.299987793</ele>
        <time>2015-12-22T10:55:40.36Z</time>
      </trkpt>
      <trkpt lat="46.02203" lon="4.99131">
        <ele>283.600006104</ele>
        <time>2015-12-22T10:55:41.381Z</time>
      </trkpt>
      <trkpt lat="46.02198" lon="4.99136">
        <ele>284</ele>
        <time>2015-12-22T10:55:42.358Z</time>
      </trkpt>
      <trkpt lat="46.02193" lon="4.9914">
        <ele>284</ele>
        <time>2015-12-22T10:55:43.381Z</time>
      </trkpt>
      <trkpt lat="46.02189" lon="4.99144">
        <ele>284</ele>
        <time>2015-12-22T10:55:44.358Z</time>
      </trkpt>
      <trkpt lat="46.02186" lon="4.99148">
        <ele>284.700012207</ele>
        <time>2015-12-22T10:55:45.378Z</time>
      </trkpt>
      <trkpt lat="46.02182" lon="4.99153">
        <ele>285</ele>
        <time>2015-12-22T10:55:46.358Z</time>
      </trkpt>
      <trkpt lat="46.02178" lon="4.99157">
        <ele>285.200012207</ele>
        <time>2015-12-22T10:55:47.377Z</time>
      </trkpt>
      <trkpt lat="46.02174" lon="4.99162">
        <ele>285</ele>
        <time>2015-12-22T10:55:48.358Z</time>
      </trkpt>
      <trkpt lat="46.0217" lon="4.99169">
        <ele>284.700012207</ele>
        <time>2015-12-22T10:55:49.384Z</time>
      </trkpt>
      <trkpt lat="46.02167" lon="4.99175">
        <ele>284.5</ele>
        <time>2015-12-22T10:55:50.357Z</time>
      </trkpt>
      <trkpt lat="46.02164" lon="4.99181">
        <ele>284.799987793</ele>
        <time>2015-12-22T10:55:51.379Z</time>
      </trkpt>
      <trkpt lat="46.02162" lon="4.99187">
        <ele>284.600006104</ele>
        <time>2015-12-22T10:55:52.358Z</time>
      </trkpt>
      <trkpt lat="46.02159" lon="4.99194">
        <ele>284.5</ele>
        <time>2015-12-22T10:55:53.376Z</time>
      </trkpt>
      <trkpt lat="46.02156" lon="4.992">
        <ele>284.399993896</ele>
        <time>2015-12-22T10:55:54.358Z</time>
      </trkpt>
      <trkpt lat="46.02154" lon="4.99206">
        <ele>284.5</ele>
        <time>2015-12-22T10:55:55.534Z</time>
      </trkpt>
      <trkpt lat="46.02152" lon="4.99212">
        <ele>284.799987793</ele>
        <time>2015-12-22T10:55:56.358Z</time>
      </trkpt>
      <trkpt lat="46.0215" lon="4.99219">
        <ele>284.700012207</ele>
        <time>2015-12-22T10:55:57.378Z</time>
      </trkpt>
      <trkpt lat="46.02147" lon="4.99226">
        <ele>284.799987793</ele>
        <time>2015-12-22T10:55:58.358Z</time>
      </trkpt>
      <trkpt lat="46.02145" lon="4.99233">
        <ele>284.899993896</ele>
        <time>2015-12-22T10:55:59.377Z</time>
      </trkpt>
      <trkpt lat="46.02143" lon="4.9924">
        <ele>285.200012207</ele>
        <time>2015-12-22T10:56:00.358Z</time>
      </trkpt>
      <trkpt lat="46.0214" lon="4.99247">
        <ele>285.200012207</ele>
        <time>2015-12-22T10:56:01.38Z</time>
      </trkpt>
      <trkpt lat="46.02138" lon="4.99254">
        <ele>285</ele>
        <time>2015-12-22T10:56:02.357Z</time>
      </trkpt>
      <trkpt lat="46.02136" lon="4.99262">
        <ele>285.100006104</ele>
        <time>2015-12-22T10:56:03.377Z</time>
      </trkpt>
      <trkpt lat="46.02133" lon="4.99269">
        <ele>285</ele>
        <time>2015-12-22T10:56:04.357Z</time>
      </trkpt>
      <trkpt lat="46.02131" lon="4.99276">
        <ele>284.700012207</ele>
        <time>2015-12-22T10:56:05.376Z</time>
      </trkpt>
      <trkpt lat="46.02128" lon="4.99283">
        <ele>284.299987793</ele>
        <time>2015-12-22T10:56:06.36Z</time>
      </trkpt>
      <trkpt lat="46.02126" lon="4.9929">
        <ele>284.200012207</ele>
        <time>2015-12-22T10:56:07.383Z</time>
      </trkpt>
      <trkpt lat="46.02123" lon="4.99297">
        <ele>284</ele>
        <time>2015-12-22T10:56:08.359Z</time>
      </trkpt>
      <trkpt lat="46.02121" lon="4.99304">
        <ele>284</ele>
        <time>2015-12-22T10:56:09.415Z</time>
      </trkpt>
      <trkpt lat="46.02118" lon="4.99311">
        <ele>283.799987793</ele>
        <time>2015-12-22T10:56:10.359Z</time>
      </trkpt>
      <trkpt lat="46.02116" lon="4.99317">
        <ele>283.700012207</ele>
        <time>2015-12-22T10:56:11.393Z</time>
      </trkpt>
      <trkpt lat="46.02114" lon="4.99324">
        <ele>283.799987793</ele>
        <time>2015-12-22T10:56:12.359Z</time>
      </trkpt>
      <trkpt lat="46.02111" lon="4.99331">
        <ele>283.5</ele>
        <time>2015-12-22T10:56:13.382Z</time>
      </trkpt>
      <trkpt lat="46.02109" lon="4.99339">
        <ele>283.299987793</ele>
        <time>2015-12-22T10:56:14.349Z</time>
      </trkpt>
      <trkpt lat="46.02107" lon="4.99345">
        <ele>283.200012207</ele>
        <time>2015-12-22T10:56:15.378Z</time>
      </trkpt>
      <trkpt lat="46.02105" lon="4.99352">
        <ele>283.100006104</ele>
        <time>2015-12-22T10:56:16.357Z</time>
      </trkpt>
      <trkpt lat="46.02102" lon="4.9936">
        <ele>283</ele>
        <time>2015-12-22T10:56:17.376Z</time>
      </trkpt>
      <trkpt lat="46.02099" lon="4.99367">
        <ele>282.899993896</ele>
        <time>2015-12-22T10:56:18.357Z</time>
      </trkpt>
      <trkpt lat="46.02097" lon="4.99374">
        <ele>283</ele>
        <time>2015-12-22T10:56:19.38Z</time>
      </trkpt>
      <trkpt lat="46.02094" lon="4.99381">
        <ele>282.600006104</ele>
        <time>2015-12-22T10:56:20.359Z</time>
      </trkpt>
      <trkpt lat="46.02091" lon="4.99389">
        <ele>282.5</ele>
        <time>2015-12-22T10:56:21.386Z</time>
      </trkpt>
      <trkpt lat="46.02089" lon="4.99397">
        <ele>282.5</ele>
        <time>2015-12-22T10:56:22.357Z</time>
      </trkpt>
      <trkpt lat="46.02086" lon="4.99405">
        <ele>282.399993896</ele>
        <time>2015-12-22T10:56:23.376Z</time>
      </trkpt>
      <trkpt lat="46.02084" lon="4.99412">
        <ele>282.399993896</ele>
        <time>2015-12-22T10:56:24.357Z</time>
      </trkpt>
      <trkpt lat="46.02081" lon="4.99419">
        <ele>282.600006104</ele>
        <time>2015-12-22T10:56:25.38Z</time>
      </trkpt>
      <trkpt lat="46.02078" lon="4.99426">
        <ele>282.700012207</ele>
        <time>2015-12-22T10:56:26.358Z</time>
      </trkpt>
      <trkpt lat="46.02075" lon="4.99434">
        <ele>282.600006104</ele>
        <time>2015-12-22T10:56:27.377Z</time>
      </trkpt>
      <trkpt lat="46.02072" lon="4.99441">
        <ele>282.5</ele>
        <time>2015-12-22T10:56:28.357Z</time>
      </trkpt>
      <trkpt lat="46.02069" lon="4.99449">
        <ele>282.5</ele>
        <time>2015-12-22T10:56:29.376Z</time>
      </trkpt>
      <trkpt lat="46.02067" lon="4.99456">
        <ele>282.600006104</ele>
        <time>2015-12-22T10:56:30.358Z</time>
      </trkpt>
      <trkpt lat="46.02064" lon="4.99464">
        <ele>282.600006104</ele>
        <time>2015-12-22T10:56:31.416Z</time>
      </trkpt>
      <trkpt lat="46.02062" lon="4.99471">
        <ele>282.600006104</ele>
        <time>2015-12-22T10:56:32.361Z</time>
      </trkpt>
      <trkpt lat="46.02059" lon="4.99479">
        <ele>282.700012207</ele>
        <time>2015-12-22T10:56:33.396Z</time>
      </trkpt>
      <trkpt lat="46.02056" lon="4.99486">
        <ele>282.700012207</ele>
        <time>2015-12-22T10:56:34.377Z</time>
      </trkpt>
      <trkpt lat="46.02053" lon="4.99494">
        <ele>282.600006104</ele>
        <time>2015-12-22T10:56:35.377Z</time>
      </trkpt>
      <trkpt lat="46.0205" lon="4.99501">
        <ele>282.799987793</ele>
        <time>2015-12-22T10:56:36.357Z</time>
      </trkpt>
      <trkpt lat="46.02047" lon="4.99508">
        <ele>282.899993896</ele>
        <time>2015-12-22T10:56:37.38Z</time>
      </trkpt>
      <trkpt lat="46.02045" lon="4.99516">
        <ele>282.899993896</ele>
        <time>2015-12-22T10:56:38.357Z</time>
      </trkpt>
      <trkpt lat="46.02042" lon="4.99523">
        <ele>283</ele>
        <time>2015-12-22T10:56:39.398Z</time>
      </trkpt>
      <trkpt lat="46.0204" lon="4.9953">
        <ele>283.100006104</ele>
        <time>2015-12-22T10:56:40.357Z</time>
      </trkpt>
      <trkpt lat="46.02037" lon="4.99538">
        <ele>283.299987793</ele>
        <time>2015-12-22T10:56:41.377Z</time>
      </trkpt>
      <trkpt lat="46.02035" lon="4.99545">
        <ele>283.299987793</ele>
        <time>2015-12-22T10:56:42.375Z</time>
      </trkpt>
      <trkpt lat="46.02032" lon="4.99552">
        <ele>283.200012207</ele>
        <time>2015-12-22T10:56:43.38Z</time>
      </trkpt>
      <trkpt lat="46.0203" lon="4.99558">
        <ele>283.299987793</ele>
        <time>2015-12-22T10:56:44.357Z</time>
      </trkpt>
      <trkpt lat="46.02027" lon="4.99565">
        <ele>283.200012207</ele>
        <time>2015-12-22T10:56:45.378Z</time>
      </trkpt>
      <trkpt lat="46.02024" lon="4.99572">
        <ele>283.200012207</ele>
        <time>2015-12-22T10:56:46.357Z</time>
      </trkpt>
      <trkpt lat="46.02022" lon="4.99579">
        <ele>283.200012207</ele>
        <time>2015-12-22T10:56:47.377Z</time>
      </trkpt>
      <trkpt lat="46.02019" lon="4.99586">
        <ele>283.200012207</ele>
        <time>2015-12-22T10:56:48.357Z</time>
      </trkpt>
      <trkpt lat="46.02017" lon="4.99593">
        <ele>283.100006104</ele>
        <time>2015-12-22T10:56:49.383Z</time>
      </trkpt>
      <trkpt lat="46.02014" lon="4.996">
        <ele>283.100006104</ele>
        <time>2015-12-22T10:56:50.357Z</time>
      </trkpt>
      <trkpt lat="46.02011" lon="4.99608">
        <ele>283.200012207</ele>
        <time>2015-12-22T10:56:51.493Z</time>
      </trkpt>
      <trkpt lat="46.02008" lon="4.99615">
        <ele>283.399993896</ele>
        <time>2015-12-22T10:56:52.358Z</time>
      </trkpt>
      <trkpt lat="46.02005" lon="4.99623">
        <ele>283.399993896</ele>
        <time>2015-12-22T10:56:53.412Z</time>
      </trkpt>
      <trkpt lat="46.02002" lon="4.9963">
        <ele>283.200012207</ele>
        <time>2015-12-22T10:56:54.357Z</time>
      </trkpt>
      <trkpt lat="46.01999" lon="4.99637">
        <ele>283.200012207</ele>
        <time>2015-12-22T10:56:55.382Z</time>
      </trkpt>
      <trkpt lat="46.01997" lon="4.99645">
        <ele>283</ele>
        <time>2015-12-22T10:56:56.357Z</time>
      </trkpt>
      <trkpt lat="46.01994" lon="4.99653">
        <ele>283</ele>
        <time>2015-12-22T10:56:57.378Z</time>
      </trkpt>
      <trkpt lat="46.01992" lon="4.9966">
        <ele>282.600006104</ele>
        <time>2015-12-22T10:56:58.36Z</time>
      </trkpt>
      <trkpt lat="46.0199" lon="4.99668">
        <ele>282.5</ele>
        <time>2015-12-22T10:56:59.401Z</time>
      </trkpt>
      <trkpt lat="46.01987" lon="4.99675">
        <ele>282.600006104</ele>
        <time>2015-12-22T10:57:00.358Z</time>
      </trkpt>
      <trkpt lat="46.01985" lon="4.99683">
        <ele>282.600006104</ele>
        <time>2015-12-22T10:57:01.397Z</time>
      </trkpt>
      <trkpt lat="46.01982" lon="4.99691">
        <ele>282.5</ele>
        <time>2015-12-22T10:57:02.358Z</time>
      </trkpt>
      <trkpt lat="46.01979" lon="4.99698">
        <ele>282.600006104</ele>
        <time>2015-12-22T10:57:03.394Z</time>
      </trkpt>
      <trkpt lat="46.01977" lon="4.99706">
        <ele>282.399993896</ele>
        <time>2015-12-22T10:57:04.359Z</time>
      </trkpt>
      <trkpt lat="46.01974" lon="4.99714">
        <ele>282.299987793</ele>
        <time>2015-12-22T10:57:05.377Z</time>
      </trkpt>
      <trkpt lat="46.01971" lon="4.99722">
        <ele>282.399993896</ele>
        <time>2015-12-22T10:57:06.358Z</time>
      </trkpt>
      <trkpt lat="46.01968" lon="4.99729">
        <ele>282.5</ele>
        <time>2015-12-22T10:57:07.386Z</time>
      </trkpt>
      <trkpt lat="46.01964" lon="4.99736">
        <ele>282.799987793</ele>
        <time>2015-12-22T10:57:08.359Z</time>
      </trkpt>
      <trkpt lat="46.01962" lon="4.99743">
        <ele>282.700012207</ele>
        <time>2015-12-22T10:57:09.379Z</time>
      </trkpt>
      <trkpt lat="46.01959" lon="4.99751">
        <ele>282.700012207</ele>
        <time>2015-12-22T10:57:10.357Z</time>
      </trkpt>
      <trkpt lat="46.01956" lon="4.99758">
        <ele>282.399993896</ele>
        <time>2015-12-22T10:57:11.382Z</time>
      </trkpt>
      <trkpt lat="46.01953" lon="4.99766">
        <ele>282.299987793</ele>
        <time>2015-12-22T10:57:12.357Z</time>
      </trkpt>
      <trkpt lat="46.0195" lon="4.99773">
        <ele>282</ele>
        <time>2015-12-22T10:57:13.527Z</time>
      </trkpt>
      <trkpt lat="46.01947" lon="4.99781">
        <ele>282.399993896</ele>
        <time>2015-12-22T10:57:14.358Z</time>
      </trkpt>
      <trkpt lat="46.01945" lon="4.99789">
        <ele>282.899993896</ele>
        <time>2015-12-22T10:57:15.378Z</time>
      </trkpt>
      <trkpt lat="46.01943" lon="4.99796">
        <ele>282.700012207</ele>
        <time>2015-12-22T10:57:16.358Z</time>
      </trkpt>
      <trkpt lat="46.01941" lon="4.99804">
        <ele>282.799987793</ele>
        <time>2015-12-22T10:57:17.376Z</time>
      </trkpt>
      <trkpt lat="46.01938" lon="4.99811">
        <ele>282.700012207</ele>
        <time>2015-12-22T10:57:18.357Z</time>
      </trkpt>
      <trkpt lat="46.01936" lon="4.99818">
        <ele>282.299987793</ele>
        <time>2015-12-22T10:57:19.38Z</time>
      </trkpt>
      <trkpt lat="46.01933" lon="4.99826">
        <ele>282.200012207</ele>
        <time>2015-12-22T10:57:20.357Z</time>
      </trkpt>
      <trkpt lat="46.0193" lon="4.99833">
        <ele>282.299987793</ele>
        <time>2015-12-22T10:57:21.387Z</time>
      </trkpt>
      <trkpt lat="46.01928" lon="4.9984">
        <ele>282.5</ele>
        <time>2015-12-22T10:57:22.358Z</time>
      </trkpt>
      <trkpt lat="46.01925" lon="4.99847">
        <ele>282.600006104</ele>
        <time>2015-12-22T10:57:23.376Z</time>
      </trkpt>
      <trkpt lat="46.01922" lon="4.99855">
        <ele>282.799987793</ele>
        <time>2015-12-22T10:57:24.375Z</time>
      </trkpt>
      <trkpt lat="46.01919" lon="4.99862">
        <ele>283.100006104</ele>
        <time>2015-12-22T10:57:25.383Z</time>
      </trkpt>
      <trkpt lat="46.01916" lon="4.99869">
        <ele>282.899993896</ele>
        <time>2015-12-22T10:57:26.357Z</time>
      </trkpt>
      <trkpt lat="46.01913" lon="4.99877">
        <ele>283.600006104</ele>
        <time>2015-12-22T10:57:27.378Z</time>
      </trkpt>
      <trkpt lat="46.01911" lon="4.99884">
        <ele>283.399993896</ele>
        <time>2015-12-22T10:57:28.358Z</time>
      </trkpt>
      <trkpt lat="46.01908" lon="4.99891">
        <ele>283.399993896</ele>
        <time>2015-12-22T10:57:29.377Z</time>
      </trkpt>
      <trkpt lat="46.01905" lon="4.99899">
        <ele>283.700012207</ele>
        <time>2015-12-22T10:57:30.357Z</time>
      </trkpt>
      <trkpt lat="46.01902" lon="4.99906">
        <ele>283.700012207</ele>
        <time>2015-12-22T10:57:31.38Z</time>
      </trkpt>
      <trkpt lat="46.01899" lon="4.99914">
        <ele>283.899993896</ele>
        <time>2015-12-22T10:57:32.357Z</time>
      </trkpt>
      <trkpt lat="46.01896" lon="4.99921">
        <ele>284.100006104</ele>
        <time>2015-12-22T10:57:33.378Z</time>
      </trkpt>
      <trkpt lat="46.01894" lon="4.99929">
        <ele>284</ele>
        <time>2015-12-22T10:57:34.357Z</time>
      </trkpt>
      <trkpt lat="46.01891" lon="4.99936">
        <ele>284</ele>
        <time>2015-12-22T10:57:35.376Z</time>
      </trkpt>
      <trkpt lat="46.01888" lon="4.99943">
        <ele>284.100006104</ele>
        <time>2015-12-22T10:57:36.358Z</time>
      </trkpt>
      <trkpt lat="46.01885" lon="4.9995">
        <ele>284.200012207</ele>
        <time>2015-12-22T10:57:37.381Z</time>
      </trkpt>
      <trkpt lat="46.01882" lon="4.99958">
        <ele>284.200012207</ele>
        <time>2015-12-22T10:57:38.358Z</time>
      </trkpt>
      <trkpt lat="46.0188" lon="4.99965">
        <ele>284.399993896</ele>
        <time>2015-12-22T10:57:39.38Z</time>
      </trkpt>
      <trkpt lat="46.01877" lon="4.99972">
        <ele>284.299987793</ele>
        <time>2015-12-22T10:57:40.37Z</time>
      </trkpt>
      <trkpt lat="46.01874" lon="4.9998">
        <ele>284.299987793</ele>
        <time>2015-12-22T10:57:41.377Z</time>
      </trkpt>
      <trkpt lat="46.01871" lon="4.99987">
        <ele>284.600006104</ele>
        <time>2015-12-22T10:57:42.357Z</time>
      </trkpt>
      <trkpt lat="46.01868" lon="4.99994">
        <ele>284.299987793</ele>
        <time>2015-12-22T10:57:43.38Z</time>
      </trkpt>
      <trkpt lat="46.01866" lon="5.00002">
        <ele>284.299987793</ele>
        <time>2015-12-22T10:57:44.381Z</time>
      </trkpt>
      <trkpt lat="46.01864" lon="5.00009">
        <ele>283.5</ele>
        <time>2015-12-22T10:57:45.378Z</time>
      </trkpt>
      <trkpt lat="46.01862" lon="5.00017">
        <ele>283.299987793</ele>
        <time>2015-12-22T10:57:46.358Z</time>
      </trkpt>
      <trkpt lat="46.01859" lon="5.00023">
        <ele>283</ele>
        <time>2015-12-22T10:57:47.378Z</time>
      </trkpt>
      <trkpt lat="46.01857" lon="5.0003">
        <ele>282.899993896</ele>
        <time>2015-12-22T10:57:48.358Z</time>
      </trkpt>
      <trkpt lat="46.01854" lon="5.00036">
        <ele>283</ele>
        <time>2015-12-22T10:57:49.389Z</time>
      </trkpt>
      <trkpt lat="46.01852" lon="5.00043">
        <ele>283.299987793</ele>
        <time>2015-12-22T10:57:50.358Z</time>
      </trkpt>
      <trkpt lat="46.01849" lon="5.0005">
        <ele>283.399993896</ele>
        <time>2015-12-22T10:57:51.377Z</time>
      </trkpt>
      <trkpt lat="46.01846" lon="5.00057">
        <ele>282.899993896</ele>
        <time>2015-12-22T10:57:52.357Z</time>
      </trkpt>
      <trkpt lat="46.01843" lon="5.00063">
        <ele>283</ele>
        <time>2015-12-22T10:57:53.382Z</time>
      </trkpt>
      <trkpt lat="46.01841" lon="5.0007">
        <ele>282.899993896</ele>
        <time>2015-12-22T10:57:54.357Z</time>
      </trkpt>
      <trkpt lat="46.01838" lon="5.00077">
        <ele>283</ele>
        <time>2015-12-22T10:57:55.395Z</time>
      </trkpt>
      <trkpt lat="46.01836" lon="5.00083">
        <ele>283</ele>
        <time>2015-12-22T10:57:56.358Z</time>
      </trkpt>
      <trkpt lat="46.01833" lon="5.00091">
        <ele>283.299987793</ele>
        <time>2015-12-22T10:57:57.377Z</time>
      </trkpt>
      <trkpt lat="46.01831" lon="5.00097">
        <ele>283.399993896</ele>
        <time>2015-12-22T10:57:58.357Z</time>
      </trkpt>
      <trkpt lat="46.01828" lon="5.00104">
        <ele>283.600006104</ele>
        <time>2015-12-22T10:57:59.377Z</time>
      </trkpt>
      <trkpt lat="46.01825" lon="5.00111">
        <ele>283.899993896</ele>
        <time>2015-12-22T10:58:00.357Z</time>
      </trkpt>
      <trkpt lat="46.01823" lon="5.00118">
        <ele>284.299987793</ele>
        <time>2015-12-22T10:58:01.384Z</time>
      </trkpt>
      <trkpt lat="46.0182" lon="5.00125">
        <ele>284.600006104</ele>
        <time>2015-12-22T10:58:02.357Z</time>
      </trkpt>
      <trkpt lat="46.01818" lon="5.00132">
        <ele>284.899993896</ele>
        <time>2015-12-22T10:58:03.377Z</time>
      </trkpt>
      <trkpt lat="46.01815" lon="5.00138">
        <ele>285.299987793</ele>
        <time>2015-12-22T10:58:04.407Z</time>
      </trkpt>
      <trkpt lat="46.01813" lon="5.00145">
        <ele>284.799987793</ele>
        <time>2015-12-22T10:58:05.376Z</time>
      </trkpt>
      <trkpt lat="46.01811" lon="5.00152">
        <ele>284.700012207</ele>
        <time>2015-12-22T10:58:06.357Z</time>
      </trkpt>
      <trkpt lat="46.01808" lon="5.00158">
        <ele>284.799987793</ele>
        <time>2015-12-22T10:58:07.38Z</time>
      </trkpt>
      <trkpt lat="46.01805" lon="5.00165">
        <ele>284.899993896</ele>
        <time>2015-12-22T10:58:08.358Z</time>
      </trkpt>
      <trkpt lat="46.01803" lon="5.00171">
        <ele>285</ele>
        <time>2015-12-22T10:58:09.377Z</time>
      </trkpt>
      <trkpt lat="46.018" lon="5.00177">
        <ele>285.299987793</ele>
        <time>2015-12-22T10:58:10.357Z</time>
      </trkpt>
      <trkpt lat="46.01797" lon="5.00184">
        <ele>285.600006104</ele>
        <time>2015-12-22T10:58:11.391Z</time>
      </trkpt>
      <trkpt lat="46.01794" lon="5.00191">
        <ele>286</ele>
        <time>2015-12-22T10:58:12.357Z</time>
      </trkpt>
      <trkpt lat="46.01791" lon="5.00197">
        <ele>286.5</ele>
        <time>2015-12-22T10:58:13.38Z</time>
      </trkpt>
      <trkpt lat="46.01789" lon="5.00204">
        <ele>286.5</ele>
        <time>2015-12-22T10:58:14.357Z</time>
      </trkpt>
      <trkpt lat="46.01786" lon="5.00211">
        <ele>286.5</ele>
        <time>2015-12-22T10:58:15.382Z</time>
      </trkpt>
      <trkpt lat="46.01783" lon="5.00218">
        <ele>286.700012207</ele>
        <time>2015-12-22T10:58:16.358Z</time>
      </trkpt>
      <trkpt lat="46.0178" lon="5.00225">
        <ele>286.799987793</ele>
        <time>2015-12-22T10:58:17.376Z</time>
      </trkpt>
      <trkpt lat="46.01778" lon="5.00232">
        <ele>287.100006104</ele>
        <time>2015-12-22T10:58:18.357Z</time>
      </trkpt>
      <trkpt lat="46.01775" lon="5.0024">
        <ele>287.200012207</ele>
        <time>2015-12-22T10:58:19.38Z</time>
      </trkpt>
      <trkpt lat="46.01772" lon="5.00247">
        <ele>287.5</ele>
        <time>2015-12-22T10:58:20.357Z</time>
      </trkpt>
      <trkpt lat="46.01769" lon="5.00254">
        <ele>287.5</ele>
        <time>2015-12-22T10:58:21.377Z</time>
      </trkpt>
      <trkpt lat="46.01767" lon="5.0026">
        <ele>287.600006104</ele>
        <time>2015-12-22T10:58:22.357Z</time>
      </trkpt>
      <trkpt lat="46.01764" lon="5.00266">
        <ele>287.799987793</ele>
        <time>2015-12-22T10:58:23.376Z</time>
      </trkpt>
      <trkpt lat="46.01762" lon="5.00272">
        <ele>288.200012207</ele>
        <time>2015-12-22T10:58:24.358Z</time>
      </trkpt>
      <trkpt lat="46.01759" lon="5.00278">
        <ele>288.299987793</ele>
        <time>2015-12-22T10:58:25.438Z</time>
      </trkpt>
      <trkpt lat="46.01757" lon="5.00284">
        <ele>288.5</ele>
        <time>2015-12-22T10:58:26.357Z</time>
      </trkpt>
      <trkpt lat="46.01754" lon="5.0029">
        <ele>288.899993896</ele>
        <time>2015-12-22T10:58:27.379Z</time>
      </trkpt>
      <trkpt lat="46.01751" lon="5.00297">
        <ele>289.100006104</ele>
        <time>2015-12-22T10:58:28.359Z</time>
      </trkpt>
      <trkpt lat="46.01748" lon="5.00303">
        <ele>289.299987793</ele>
        <time>2015-12-22T10:58:29.398Z</time>
      </trkpt>
      <trkpt lat="46.01745" lon="5.0031">
        <ele>289.299987793</ele>
        <time>2015-12-22T10:58:30.358Z</time>
      </trkpt>
      <trkpt lat="46.01742" lon="5.00316">
        <ele>289.399993896</ele>
        <time>2015-12-22T10:58:31.38Z</time>
      </trkpt>
      <trkpt lat="46.01739" lon="5.00323">
        <ele>289.399993896</ele>
        <time>2015-12-22T10:58:32.375Z</time>
      </trkpt>
      <trkpt lat="46.01736" lon="5.0033">
        <ele>289.600006104</ele>
        <time>2015-12-22T10:58:33.377Z</time>
      </trkpt>
      <trkpt lat="46.01733" lon="5.00337">
        <ele>289.799987793</ele>
        <time>2015-12-22T10:58:34.358Z</time>
      </trkpt>
      <trkpt lat="46.0173" lon="5.00344">
        <ele>289.700012207</ele>
        <time>2015-12-22T10:58:35.448Z</time>
      </trkpt>
      <trkpt lat="46.01727" lon="5.00351">
        <ele>289.799987793</ele>
        <time>2015-12-22T10:58:36.357Z</time>
      </trkpt>
      <trkpt lat="46.01724" lon="5.00358">
        <ele>289.600006104</ele>
        <time>2015-12-22T10:58:37.382Z</time>
      </trkpt>
      <trkpt lat="46.01721" lon="5.00365">
        <ele>289.299987793</ele>
        <time>2015-12-22T10:58:38.359Z</time>
      </trkpt>
      <trkpt lat="46.01718" lon="5.00372">
        <ele>289.5</ele>
        <time>2015-12-22T10:58:39.377Z</time>
      </trkpt>
      <trkpt lat="46.01716" lon="5.00379">
        <ele>289.799987793</ele>
        <time>2015-12-22T10:58:40.358Z</time>
      </trkpt>
      <trkpt lat="46.01713" lon="5.00386">
        <ele>290.399993896</ele>
        <time>2015-12-22T10:58:41.376Z</time>
      </trkpt>
      <trkpt lat="46.0171" lon="5.00393">
        <ele>290.700012207</ele>
        <time>2015-12-22T10:58:42.352Z</time>
      </trkpt>
      <trkpt lat="46.01707" lon="5.004">
        <ele>290.799987793</ele>
        <time>2015-12-22T10:58:43.38Z</time>
      </trkpt>
      <trkpt lat="46.01704" lon="5.00407">
        <ele>291.100006104</ele>
        <time>2015-12-22T10:58:44.357Z</time>
      </trkpt>
      <trkpt lat="46.01701" lon="5.00414">
        <ele>291.5</ele>
        <time>2015-12-22T10:58:45.378Z</time>
      </trkpt>
      <trkpt lat="46.01698" lon="5.0042">
        <ele>291.899993896</ele>
        <time>2015-12-22T10:58:46.397Z</time>
      </trkpt>
      <trkpt lat="46.01696" lon="5.00427">
        <ele>292.399993896</ele>
        <time>2015-12-22T10:58:47.376Z</time>
      </trkpt>
      <trkpt lat="46.01693" lon="5.00434">
        <ele>292.700012207</ele>
        <time>2015-12-22T10:58:48.358Z</time>
      </trkpt>
      <trkpt lat="46.0169" lon="5.00441">
        <ele>293</ele>
        <time>2015-12-22T10:58:49.384Z</time>
      </trkpt>
      <trkpt lat="46.01687" lon="5.00449">
        <ele>293</ele>
        <time>2015-12-22T10:58:50.358Z</time>
      </trkpt>
      <trkpt lat="46.01684" lon="5.00457">
        <ele>293.399993896</ele>
        <time>2015-12-22T10:58:51.377Z</time>
      </trkpt>
      <trkpt lat="46.01681" lon="5.00465">
        <ele>293.399993896</ele>
        <time>2015-12-22T10:58:52.357Z</time>
      </trkpt>
      <trkpt lat="46.01678" lon="5.00472">
        <ele>294.100006104</ele>
        <time>2015-12-22T10:58:53.376Z</time>
      </trkpt>
      <trkpt lat="46.01675" lon="5.0048">
        <ele>294.200012207</ele>
        <time>2015-12-22T10:58:54.357Z</time>
      </trkpt>
      <trkpt lat="46.01672" lon="5.00487">
        <ele>294.600006104</ele>
        <time>2015-12-22T10:58:55.38Z</time>
      </trkpt>
      <trkpt lat="46.01669" lon="5.00494">
        <ele>295</ele>
        <time>2015-12-22T10:58:56.357Z</time>
      </trkpt>
      <trkpt lat="46.01666" lon="5.00502">
        <ele>295.299987793</ele>
        <time>2015-12-22T10:58:57.381Z</time>
      </trkpt>
      <trkpt lat="46.01663" lon="5.00508">
        <ele>295.700012207</ele>
        <time>2015-12-22T10:58:58.375Z</time>
      </trkpt>
      <trkpt lat="46.0166" lon="5.00516">
        <ele>295.899993896</ele>
        <time>2015-12-22T10:58:59.376Z</time>
      </trkpt>
      <trkpt lat="46.01657" lon="5.00522">
        <ele>296.299987793</ele>
        <time>2015-12-22T10:59:00.358Z</time>
      </trkpt>
      <trkpt lat="46.01654" lon="5.0053">
        <ele>296.5</ele>
        <time>2015-12-22T10:59:01.379Z</time>
      </trkpt>
      <trkpt lat="46.01651" lon="5.00537">
        <ele>296.600006104</ele>
        <time>2015-12-22T10:59:02.358Z</time>
      </trkpt>
      <trkpt lat="46.01648" lon="5.00543">
        <ele>296.799987793</ele>
        <time>2015-12-22T10:59:03.43Z</time>
      </trkpt>
      <trkpt lat="46.01645" lon="5.0055">
        <ele>297</ele>
        <time>2015-12-22T10:59:04.359Z</time>
      </trkpt>
      <trkpt lat="46.01643" lon="5.00557">
        <ele>297.299987793</ele>
        <time>2015-12-22T10:59:05.379Z</time>
      </trkpt>
      <trkpt lat="46.01639" lon="5.00564">
        <ele>297.100006104</ele>
        <time>2015-12-22T10:59:06.358Z</time>
      </trkpt>
      <trkpt lat="46.01636" lon="5.00571">
        <ele>297</ele>
        <time>2015-12-22T10:59:07.467Z</time>
      </trkpt>
      <trkpt lat="46.01633" lon="5.00577">
        <ele>296.700012207</ele>
        <time>2015-12-22T10:59:08.358Z</time>
      </trkpt>
      <trkpt lat="46.0163" lon="5.00585">
        <ele>296.5</ele>
        <time>2015-12-22T10:59:09.385Z</time>
      </trkpt>
      <trkpt lat="46.01627" lon="5.00593">
        <ele>296.5</ele>
        <time>2015-12-22T10:59:10.358Z</time>
      </trkpt>
      <trkpt lat="46.01624" lon="5.006">
        <ele>296.399993896</ele>
        <time>2015-12-22T10:59:11.377Z</time>
      </trkpt>
      <trkpt lat="46.01621" lon="5.00609">
        <ele>296</ele>
        <time>2015-12-22T10:59:12.357Z</time>
      </trkpt>
      <trkpt lat="46.01618" lon="5.00616">
        <ele>295.899993896</ele>
        <time>2015-12-22T10:59:13.382Z</time>
      </trkpt>
      <trkpt lat="46.01615" lon="5.00624">
        <ele>295.799987793</ele>
        <time>2015-12-22T10:59:14.38Z</time>
      </trkpt>
      <trkpt lat="46.01612" lon="5.00631">
        <ele>295.700012207</ele>
        <time>2015-12-22T10:59:15.377Z</time>
      </trkpt>
      <trkpt lat="46.0161" lon="5.00638">
        <ele>295.799987793</ele>
        <time>2015-12-22T10:59:16.359Z</time>
      </trkpt>
      <trkpt lat="46.01607" lon="5.00646">
        <ele>295.700012207</ele>
        <time>2015-12-22T10:59:17.376Z</time>
      </trkpt>
      <trkpt lat="46.01604" lon="5.00652">
        <ele>295.700012207</ele>
        <time>2015-12-22T10:59:18.417Z</time>
      </trkpt>
      <trkpt lat="46.01601" lon="5.0066">
        <ele>295.5</ele>
        <time>2015-12-22T10:59:19.4Z</time>
      </trkpt>
      <trkpt lat="46.01599" lon="5.00666">
        <ele>294.799987793</ele>
        <time>2015-12-22T10:59:20.358Z</time>
      </trkpt>
      <trkpt lat="46.01597" lon="5.00674">
        <ele>293.899993896</ele>
        <time>2015-12-22T10:59:21.377Z</time>
      </trkpt>
      <trkpt lat="46.01594" lon="5.00681">
        <ele>293.700012207</ele>
        <time>2015-12-22T10:59:22.357Z</time>
      </trkpt>
      <trkpt lat="46.01591" lon="5.00689">
        <ele>293.600006104</ele>
        <time>2015-12-22T10:59:23.376Z</time>
      </trkpt>
      <trkpt lat="46.01588" lon="5.00697">
        <ele>293.600006104</ele>
        <time>2015-12-22T10:59:24.357Z</time>
      </trkpt>
      <trkpt lat="46.01585" lon="5.00704">
        <ele>293.700012207</ele>
        <time>2015-12-22T10:59:25.38Z</time>
      </trkpt>
      <trkpt lat="46.01582" lon="5.00712">
        <ele>293.600006104</ele>
        <time>2015-12-22T10:59:26.357Z</time>
      </trkpt>
      <trkpt lat="46.01579" lon="5.00719">
        <ele>293.700012207</ele>
        <time>2015-12-22T10:59:27.377Z</time>
      </trkpt>
      <trkpt lat="46.01576" lon="5.00726">
        <ele>293.700012207</ele>
        <time>2015-12-22T10:59:28.357Z</time>
      </trkpt>
      <trkpt lat="46.01573" lon="5.00734">
        <ele>293.200012207</ele>
        <time>2015-12-22T10:59:29.517Z</time>
      </trkpt>
      <trkpt lat="46.0157" lon="5.00741">
        <ele>293</ele>
        <time>2015-12-22T10:59:30.359Z</time>
      </trkpt>
      <trkpt lat="46.01567" lon="5.00749">
        <ele>293.200012207</ele>
        <time>2015-12-22T10:59:31.38Z</time>
      </trkpt>
      <trkpt lat="46.01564" lon="5.00756">
        <ele>293.299987793</ele>
        <time>2015-12-22T10:59:32.358Z</time>
      </trkpt>
      <trkpt lat="46.01562" lon="5.00764">
        <ele>293.200012207</ele>
        <time>2015-12-22T10:59:33.378Z</time>
      </trkpt>
      <trkpt lat="46.01559" lon="5.00771">
        <ele>293.100006104</ele>
        <time>2015-12-22T10:59:34.358Z</time>
      </trkpt>
      <trkpt lat="46.01556" lon="5.00778">
        <ele>293</ele>
        <time>2015-12-22T10:59:35.376Z</time>
      </trkpt>
      <trkpt lat="46.01554" lon="5.00785">
        <ele>292.600006104</ele>
        <time>2015-12-22T10:59:36.357Z</time>
      </trkpt>
      <trkpt lat="46.01551" lon="5.00793">
        <ele>292</ele>
        <time>2015-12-22T10:59:37.381Z</time>
      </trkpt>
      <trkpt lat="46.01548" lon="5.008">
        <ele>291.899993896</ele>
        <time>2015-12-22T10:59:38.357Z</time>
      </trkpt>
      <trkpt lat="46.01546" lon="5.00807">
        <ele>291.799987793</ele>
        <time>2015-12-22T10:59:39.377Z</time>
      </trkpt>
      <trkpt lat="46.01543" lon="5.00813">
        <ele>291.799987793</ele>
        <time>2015-12-22T10:59:40.417Z</time>
      </trkpt>
      <trkpt lat="46.0154" lon="5.0082">
        <ele>291.700012207</ele>
        <time>2015-12-22T10:59:41.376Z</time>
      </trkpt>
      <trkpt lat="46.01538" lon="5.00826">
        <ele>291.700012207</ele>
        <time>2015-12-22T10:59:42.357Z</time>
      </trkpt>
      <trkpt lat="46.01535" lon="5.00832">
        <ele>291.700012207</ele>
        <time>2015-12-22T10:59:43.428Z</time>
      </trkpt>
      <trkpt lat="46.01533" lon="5.00838">
        <ele>291.5</ele>
        <time>2015-12-22T10:59:44.359Z</time>
      </trkpt>
      <trkpt lat="46.0153" lon="5.00844">
        <ele>291.399993896</ele>
        <time>2015-12-22T10:59:45.392Z</time>
      </trkpt>
      <trkpt lat="46.01527" lon="5.0085">
        <ele>291.299987793</ele>
        <time>2015-12-22T10:59:46.377Z</time>
      </trkpt>
      <trkpt lat="46.01524" lon="5.00857">
        <ele>291.399993896</ele>
        <time>2015-12-22T10:59:47.502Z</time>
      </trkpt>
      <trkpt lat="46.01521" lon="5.00864">
        <ele>291.299987793</ele>
        <time>2015-12-22T10:59:48.358Z</time>
      </trkpt>
      <trkpt lat="46.01517" lon="5.00871">
        <ele>291.200012207</ele>
        <time>2015-12-22T10:59:49.433Z</time>
      </trkpt>
      <trkpt lat="46.01514" lon="5.00878">
        <ele>291.100006104</ele>
        <time>2015-12-22T10:59:50.357Z</time>
      </trkpt>
      <trkpt lat="46.0151" lon="5.00885">
        <ele>291.100006104</ele>
        <time>2015-12-22T10:59:51.377Z</time>
      </trkpt>
      <trkpt lat="46.01506" lon="5.00892">
        <ele>291</ele>
        <time>2015-12-22T10:59:52.357Z</time>
      </trkpt>
      <trkpt lat="46.01503" lon="5.009">
        <ele>290.899993896</ele>
        <time>2015-12-22T10:59:53.376Z</time>
      </trkpt>
      <trkpt lat="46.01499" lon="5.00907">
        <ele>290.799987793</ele>
        <time>2015-12-22T10:59:54.357Z</time>
      </trkpt>
      <trkpt lat="46.01496" lon="5.00914">
        <ele>290.700012207</ele>
        <time>2015-12-22T10:59:55.382Z</time>
      </trkpt>
      <trkpt lat="46.01492" lon="5.00921">
        <ele>290.700012207</ele>
        <time>2015-12-22T10:59:56.358Z</time>
      </trkpt>
      <trkpt lat="46.01488" lon="5.00927">
        <ele>291.5</ele>
        <time>2015-12-22T10:59:57.377Z</time>
      </trkpt>
      <trkpt lat="46.01484" lon="5.00934">
        <ele>291.299987793</ele>
        <time>2015-12-22T10:59:58.357Z</time>
      </trkpt>
      <trkpt lat="46.01481" lon="5.00941">
        <ele>291.299987793</ele>
        <time>2015-12-22T10:59:59.377Z</time>
      </trkpt>
      <trkpt lat="46.01477" lon="5.00948">
        <ele>291.100006104</ele>
        <time>2015-12-22T11:00:00.419Z</time>
      </trkpt>
      <trkpt lat="46.01473" lon="5.00955">
        <ele>291</ele>
        <time>2015-12-22T11:00:01.384Z</time>
      </trkpt>
      <trkpt lat="46.01469" lon="5.00962">
        <ele>290.899993896</ele>
        <time>2015-12-22T11:00:02.363Z</time>
      </trkpt>
      <trkpt lat="46.01465" lon="5.00969">
        <ele>290.899993896</ele>
        <time>2015-12-22T11:00:03.38Z</time>
      </trkpt>
      <trkpt lat="46.01462" lon="5.00976">
        <ele>290.799987793</ele>
        <time>2015-12-22T11:00:04.357Z</time>
      </trkpt>
      <trkpt lat="46.01458" lon="5.00984">
        <ele>291.100006104</ele>
        <time>2015-12-22T11:00:05.376Z</time>
      </trkpt>
      <trkpt lat="46.01454" lon="5.00991">
        <ele>291.100006104</ele>
        <time>2015-12-22T11:00:06.357Z</time>
      </trkpt>
      <trkpt lat="46.0145" lon="5.00998">
        <ele>291.100006104</ele>
        <time>2015-12-22T11:00:07.379Z</time>
      </trkpt>
      <trkpt lat="46.01446" lon="5.01005">
        <ele>290.899993896</ele>
        <time>2015-12-22T11:00:08.358Z</time>
      </trkpt>
      <trkpt lat="46.01442" lon="5.01012">
        <ele>290.799987793</ele>
        <time>2015-12-22T11:00:09.412Z</time>
      </trkpt>
      <trkpt lat="46.01438" lon="5.0102">
        <ele>290.5</ele>
        <time>2015-12-22T11:00:10.359Z</time>
      </trkpt>
      <trkpt lat="46.01433" lon="5.01027">
        <ele>290.399993896</ele>
        <time>2015-12-22T11:00:11.377Z</time>
      </trkpt>
      <trkpt lat="46.01429" lon="5.01034">
        <ele>290.399993896</ele>
        <time>2015-12-22T11:00:12.429Z</time>
      </trkpt>
      <trkpt lat="46.01425" lon="5.01042">
        <ele>290.200012207</ele>
        <time>2015-12-22T11:00:13.388Z</time>
      </trkpt>
      <trkpt lat="46.01421" lon="5.01049">
        <ele>290.100006104</ele>
        <time>2015-12-22T11:00:14.358Z</time>
      </trkpt>
      <trkpt lat="46.01417" lon="5.01056">
        <ele>289.899993896</ele>
        <time>2015-12-22T11:00:15.377Z</time>
      </trkpt>
      <trkpt lat="46.01413" lon="5.01063">
        <ele>289.799987793</ele>
        <time>2015-12-22T11:00:16.357Z</time>
      </trkpt>
      <trkpt lat="46.01409" lon="5.01069">
        <ele>289.700012207</ele>
        <time>2015-12-22T11:00:17.376Z</time>
      </trkpt>
      <trkpt lat="46.01405" lon="5.01076">
        <ele>289.399993896</ele>
        <time>2015-12-22T11:00:18.358Z</time>
      </trkpt>
      <trkpt lat="46.01401" lon="5.01083">
        <ele>289.200012207</ele>
        <time>2015-12-22T11:00:19.38Z</time>
      </trkpt>
      <trkpt lat="46.01397" lon="5.0109">
        <ele>289.100006104</ele>
        <time>2015-12-22T11:00:20.357Z</time>
      </trkpt>
      <trkpt lat="46.01394" lon="5.01097">
        <ele>289</ele>
        <time>2015-12-22T11:00:21.394Z</time>
      </trkpt>
      <trkpt lat="46.0139" lon="5.01103">
        <ele>288.799987793</ele>
        <time>2015-12-22T11:00:22.358Z</time>
      </trkpt>
      <trkpt lat="46.01386" lon="5.0111">
        <ele>288.600006104</ele>
        <time>2015-12-22T11:00:23.376Z</time>
      </trkpt>
      <trkpt lat="46.01382" lon="5.01117">
        <ele>288.5</ele>
        <time>2015-12-22T11:00:24.357Z</time>
      </trkpt>
      <trkpt lat="46.01378" lon="5.01125">
        <ele>288.5</ele>
        <time>2015-12-22T11:00:25.379Z</time>
      </trkpt>
      <trkpt lat="46.01374" lon="5.01131">
        <ele>288.299987793</ele>
        <time>2015-12-22T11:00:26.357Z</time>
      </trkpt>
      <trkpt lat="46.0137" lon="5.01138">
        <ele>288.200012207</ele>
        <time>2015-12-22T11:00:27.378Z</time>
      </trkpt>
      <trkpt lat="46.01367" lon="5.01144">
        <ele>288.200012207</ele>
        <time>2015-12-22T11:00:28.358Z</time>
      </trkpt>
      <trkpt lat="46.01363" lon="5.01151">
        <ele>288.100006104</ele>
        <time>2015-12-22T11:00:29.432Z</time>
      </trkpt>
      <trkpt lat="46.01359" lon="5.01157">
        <ele>288.100006104</ele>
        <time>2015-12-22T11:00:30.357Z</time>
      </trkpt>
      <trkpt lat="46.01355" lon="5.01164">
        <ele>288.200012207</ele>
        <time>2015-12-22T11:00:31.415Z</time>
      </trkpt>
      <trkpt lat="46.01352" lon="5.0117">
        <ele>288</ele>
        <time>2015-12-22T11:00:32.357Z</time>
      </trkpt>
      <trkpt lat="46.01348" lon="5.01176">
        <ele>287.899993896</ele>
        <time>2015-12-22T11:00:33.377Z</time>
      </trkpt>
      <trkpt lat="46.01344" lon="5.01183">
        <ele>287.799987793</ele>
        <time>2015-12-22T11:00:34.358Z</time>
      </trkpt>
      <trkpt lat="46.0134" lon="5.0119">
        <ele>287.899993896</ele>
        <time>2015-12-22T11:00:35.376Z</time>
      </trkpt>
      <trkpt lat="46.01336" lon="5.01198">
        <ele>287.899993896</ele>
        <time>2015-12-22T11:00:36.357Z</time>
      </trkpt>
      <trkpt lat="46.01332" lon="5.01204">
        <ele>288</ele>
        <time>2015-12-22T11:00:37.379Z</time>
      </trkpt>
      <trkpt lat="46.01328" lon="5.01211">
        <ele>288.100006104</ele>
        <time>2015-12-22T11:00:38.398Z</time>
      </trkpt>
      <trkpt lat="46.01324" lon="5.01218">
        <ele>288.5</ele>
        <time>2015-12-22T11:00:39.377Z</time>
      </trkpt>
      <trkpt lat="46.0132" lon="5.01224">
        <ele>288.5</ele>
        <time>2015-12-22T11:00:40.358Z</time>
      </trkpt>
      <trkpt lat="46.01316" lon="5.01231">
        <ele>288.799987793</ele>
        <time>2015-12-22T11:00:41.376Z</time>
      </trkpt>
      <trkpt lat="46.01313" lon="5.01238">
        <ele>288.799987793</ele>
        <time>2015-12-22T11:00:42.359Z</time>
      </trkpt>
      <trkpt lat="46.01309" lon="5.01244">
        <ele>288.5</ele>
        <time>2015-12-22T11:00:43.425Z</time>
      </trkpt>
      <trkpt lat="46.01305" lon="5.01251">
        <ele>288.700012207</ele>
        <time>2015-12-22T11:00:44.358Z</time>
      </trkpt>
      <trkpt lat="46.01301" lon="5.01258">
        <ele>288.700012207</ele>
        <time>2015-12-22T11:00:45.377Z</time>
      </trkpt>
      <trkpt lat="46.01298" lon="5.01265">
        <ele>288.899993896</ele>
        <time>2015-12-22T11:00:46.357Z</time>
      </trkpt>
      <trkpt lat="46.01294" lon="5.01272">
        <ele>288.899993896</ele>
        <time>2015-12-22T11:00:47.379Z</time>
      </trkpt>
      <trkpt lat="46.0129" lon="5.01279">
        <ele>288.899993896</ele>
        <time>2015-12-22T11:00:48.358Z</time>
      </trkpt>
      <trkpt lat="46.01286" lon="5.01286">
        <ele>288.799987793</ele>
        <time>2015-12-22T11:00:49.382Z</time>
      </trkpt>
      <trkpt lat="46.01282" lon="5.01294">
        <ele>288.899993896</ele>
        <time>2015-12-22T11:00:50.357Z</time>
      </trkpt>
      <trkpt lat="46.01277" lon="5.01301">
        <ele>288.799987793</ele>
        <time>2015-12-22T11:00:51.377Z</time>
      </trkpt>
      <trkpt lat="46.01274" lon="5.01308">
        <ele>288.899993896</ele>
        <time>2015-12-22T11:00:52.371Z</time>
      </trkpt>
      <trkpt lat="46.01269" lon="5.01316">
        <ele>288.5</ele>
        <time>2015-12-22T11:00:53.425Z</time>
      </trkpt>
      <trkpt lat="46.01265" lon="5.01324">
        <ele>288.299987793</ele>
        <time>2015-12-22T11:00:54.357Z</time>
      </trkpt>
      <trkpt lat="46.01261" lon="5.01333">
        <ele>288.399993896</ele>
        <time>2015-12-22T11:00:55.38Z</time>
      </trkpt>
      <trkpt lat="46.01258" lon="5.01341">
        <ele>288.5</ele>
        <time>2015-12-22T11:00:56.358Z</time>
      </trkpt>
      <trkpt lat="46.01255" lon="5.01349">
        <ele>288.399993896</ele>
        <time>2015-12-22T11:00:57.377Z</time>
      </trkpt>
      <trkpt lat="46.01251" lon="5.01356">
        <ele>288.299987793</ele>
        <time>2015-12-22T11:00:58.357Z</time>
      </trkpt>
      <trkpt lat="46.01248" lon="5.01364">
        <ele>288.100006104</ele>
        <time>2015-12-22T11:00:59.468Z</time>
      </trkpt>
      <trkpt lat="46.01245" lon="5.01371">
        <ele>288.799987793</ele>
        <time>2015-12-22T11:01:00.357Z</time>
      </trkpt>
      <trkpt lat="46.01241" lon="5.01379">
        <ele>288.700012207</ele>
        <time>2015-12-22T11:01:01.379Z</time>
      </trkpt>
      <trkpt lat="46.01238" lon="5.01388">
        <ele>288.399993896</ele>
        <time>2015-12-22T11:01:02.357Z</time>
      </trkpt>
      <trkpt lat="46.01235" lon="5.01396">
        <ele>288</ele>
        <time>2015-12-22T11:01:03.377Z</time>
      </trkpt>
      <trkpt lat="46.01232" lon="5.01404">
        <ele>287.700012207</ele>
        <time>2015-12-22T11:01:04.357Z</time>
      </trkpt>
      <trkpt lat="46.01229" lon="5.01412">
        <ele>287.799987793</ele>
        <time>2015-12-22T11:01:05.376Z</time>
      </trkpt>
      <trkpt lat="46.01227" lon="5.0142">
        <ele>287.700012207</ele>
        <time>2015-12-22T11:01:06.357Z</time>
      </trkpt>
      <trkpt lat="46.01224" lon="5.01428">
        <ele>287.700012207</ele>
        <time>2015-12-22T11:01:07.379Z</time>
      </trkpt>
      <trkpt lat="46.01221" lon="5.01436">
        <ele>287.399993896</ele>
        <time>2015-12-22T11:01:08.358Z</time>
      </trkpt>
      <trkpt lat="46.01218" lon="5.01445">
        <ele>287.5</ele>
        <time>2015-12-22T11:01:09.428Z</time>
      </trkpt>
      <trkpt lat="46.01215" lon="5.01453">
        <ele>287.5</ele>
        <time>2015-12-22T11:01:10.356Z</time>
      </trkpt>
      <trkpt lat="46.01212" lon="5.01462">
        <ele>288.100006104</ele>
        <time>2015-12-22T11:01:11.376Z</time>
      </trkpt>
      <trkpt lat="46.01209" lon="5.01471">
        <ele>287.600006104</ele>
        <time>2015-12-22T11:01:12.357Z</time>
      </trkpt>
      <trkpt lat="46.01206" lon="5.01479">
        <ele>287.700012207</ele>
        <time>2015-12-22T11:01:13.398Z</time>
      </trkpt>
      <trkpt lat="46.01203" lon="5.01488">
        <ele>287.600006104</ele>
        <time>2015-12-22T11:01:14.36Z</time>
      </trkpt>
      <trkpt lat="46.012" lon="5.01497">
        <ele>287.5</ele>
        <time>2015-12-22T11:01:15.378Z</time>
      </trkpt>
      <trkpt lat="46.01197" lon="5.01506">
        <ele>287.5</ele>
        <time>2015-12-22T11:01:16.36Z</time>
      </trkpt>
      <trkpt lat="46.01194" lon="5.01514">
        <ele>287.5</ele>
        <time>2015-12-22T11:01:17.378Z</time>
      </trkpt>
      <trkpt lat="46.01191" lon="5.01522">
        <ele>287.399993896</ele>
        <time>2015-12-22T11:01:18.358Z</time>
      </trkpt>
      <trkpt lat="46.01188" lon="5.01531">
        <ele>287.5</ele>
        <time>2015-12-22T11:01:19.379Z</time>
      </trkpt>
      <trkpt lat="46.01185" lon="5.01539">
        <ele>287.5</ele>
        <time>2015-12-22T11:01:20.357Z</time>
      </trkpt>
      <trkpt lat="46.01182" lon="5.01547">
        <ele>287.600006104</ele>
        <time>2015-12-22T11:01:21.376Z</time>
      </trkpt>
      <trkpt lat="46.01179" lon="5.01555">
        <ele>287.5</ele>
        <time>2015-12-22T11:01:22.357Z</time>
      </trkpt>
      <trkpt lat="46.01176" lon="5.01563">
        <ele>287.299987793</ele>
        <time>2015-12-22T11:01:23.376Z</time>
      </trkpt>
      <trkpt lat="46.01173" lon="5.01572">
        <ele>287.5</ele>
        <time>2015-12-22T11:01:24.357Z</time>
      </trkpt>
      <trkpt lat="46.01171" lon="5.0158">
        <ele>287.200012207</ele>
        <time>2015-12-22T11:01:25.379Z</time>
      </trkpt>
      <trkpt lat="46.01167" lon="5.01588">
        <ele>287.200012207</ele>
        <time>2015-12-22T11:01:26.357Z</time>
      </trkpt>
      <trkpt lat="46.01164" lon="5.01595">
        <ele>287.299987793</ele>
        <time>2015-12-22T11:01:27.428Z</time>
      </trkpt>
      <trkpt lat="46.01161" lon="5.01602">
        <ele>287.399993896</ele>
        <time>2015-12-22T11:01:28.381Z</time>
      </trkpt>
      <trkpt lat="46.01158" lon="5.0161">
        <ele>287.5</ele>
        <time>2015-12-22T11:01:29.391Z</time>
      </trkpt>
      <trkpt lat="46.01155" lon="5.01617">
        <ele>287.700012207</ele>
        <time>2015-12-22T11:01:30.357Z</time>
      </trkpt>
      <trkpt lat="46.01152" lon="5.01625">
        <ele>287.799987793</ele>
        <time>2015-12-22T11:01:31.379Z</time>
      </trkpt>
      <trkpt lat="46.01149" lon="5.01633">
        <ele>287.899993896</ele>
        <time>2015-12-22T11:01:32.358Z</time>
      </trkpt>
      <trkpt lat="46.01146" lon="5.01641">
        <ele>288.100006104</ele>
        <time>2015-12-22T11:01:33.383Z</time>
      </trkpt>
      <trkpt lat="46.01142" lon="5.01649">
        <ele>288.200012207</ele>
        <time>2015-12-22T11:01:34.358Z</time>
      </trkpt>
      <trkpt lat="46.0114" lon="5.01657">
        <ele>288.399993896</ele>
        <time>2015-12-22T11:01:35.376Z</time>
      </trkpt>
      <trkpt lat="46.01137" lon="5.01664">
        <ele>288.600006104</ele>
        <time>2015-12-22T11:01:36.358Z</time>
      </trkpt>
      <trkpt lat="46.01133" lon="5.01672">
        <ele>288.899993896</ele>
        <time>2015-12-22T11:01:37.38Z</time>
      </trkpt>
      <trkpt lat="46.0113" lon="5.0168">
        <ele>289.200012207</ele>
        <time>2015-12-22T11:01:38.357Z</time>
      </trkpt>
      <trkpt lat="46.01126" lon="5.01688">
        <ele>289</ele>
        <time>2015-12-22T11:01:39.38Z</time>
      </trkpt>
      <trkpt lat="46.01122" lon="5.01695">
        <ele>289.200012207</ele>
        <time>2015-12-22T11:01:40.376Z</time>
      </trkpt>
      <trkpt lat="46.01119" lon="5.01703">
        <ele>289.299987793</ele>
        <time>2015-12-22T11:01:41.375Z</time>
      </trkpt>
      <trkpt lat="46.01115" lon="5.01711">
        <ele>289.700012207</ele>
        <time>2015-12-22T11:01:42.357Z</time>
      </trkpt>
      <trkpt lat="46.01112" lon="5.01719">
        <ele>289.700012207</ele>
        <time>2015-12-22T11:01:43.384Z</time>
      </trkpt>
      <trkpt lat="46.01109" lon="5.01727">
        <ele>289.799987793</ele>
        <time>2015-12-22T11:01:44.357Z</time>
      </trkpt>
      <trkpt lat="46.01106" lon="5.01735">
        <ele>288.899993896</ele>
        <time>2015-12-22T11:01:45.391Z</time>
      </trkpt>
      <trkpt lat="46.01103" lon="5.01742">
        <ele>288.5</ele>
        <time>2015-12-22T11:01:46.357Z</time>
      </trkpt>
      <trkpt lat="46.011" lon="5.01749">
        <ele>287.799987793</ele>
        <time>2015-12-22T11:01:47.375Z</time>
      </trkpt>
      <trkpt lat="46.01097" lon="5.01756">
        <ele>287.600006104</ele>
        <time>2015-12-22T11:01:48.357Z</time>
      </trkpt>
      <trkpt lat="46.01094" lon="5.01763">
        <ele>287.299987793</ele>
        <time>2015-12-22T11:01:49.41Z</time>
      </trkpt>
      <trkpt lat="46.01091" lon="5.0177">
        <ele>286.899993896</ele>
        <time>2015-12-22T11:01:50.357Z</time>
      </trkpt>
      <trkpt lat="46.01088" lon="5.01778">
        <ele>286.700012207</ele>
        <time>2015-12-22T11:01:51.378Z</time>
      </trkpt>
      <trkpt lat="46.01085" lon="5.01786">
        <ele>286.399993896</ele>
        <time>2015-12-22T11:01:52.356Z</time>
      </trkpt>
      <trkpt lat="46.01082" lon="5.01793">
        <ele>285.799987793</ele>
        <time>2015-12-22T11:01:53.375Z</time>
      </trkpt>
      <trkpt lat="46.01079" lon="5.01801">
        <ele>285.399993896</ele>
        <time>2015-12-22T11:01:54.357Z</time>
      </trkpt>
      <trkpt lat="46.01076" lon="5.0181">
        <ele>285</ele>
        <time>2015-12-22T11:01:55.38Z</time>
      </trkpt>
      <trkpt lat="46.01074" lon="5.01818">
        <ele>284.399993896</ele>
        <time>2015-12-22T11:01:56.357Z</time>
      </trkpt>
      <trkpt lat="46.01071" lon="5.01825">
        <ele>283.5</ele>
        <time>2015-12-22T11:01:57.378Z</time>
      </trkpt>
      <trkpt lat="46.01068" lon="5.01833">
        <ele>283.200012207</ele>
        <time>2015-12-22T11:01:58.357Z</time>
      </trkpt>
      <trkpt lat="46.01065" lon="5.01841">
        <ele>283</ele>
        <time>2015-12-22T11:01:59.376Z</time>
      </trkpt>
      <trkpt lat="46.01061" lon="5.01849">
        <ele>283.399993896</ele>
        <time>2015-12-22T11:02:00.358Z</time>
      </trkpt>
      <trkpt lat="46.01058" lon="5.01856">
        <ele>283.299987793</ele>
        <time>2015-12-22T11:02:01.394Z</time>
      </trkpt>
      <trkpt lat="46.01055" lon="5.01864">
        <ele>283.299987793</ele>
        <time>2015-12-22T11:02:02.356Z</time>
      </trkpt>
      <trkpt lat="46.01051" lon="5.01871">
        <ele>283.200012207</ele>
        <time>2015-12-22T11:02:03.376Z</time>
      </trkpt>
      <trkpt lat="46.01048" lon="5.01878">
        <ele>283.100006104</ele>
        <time>2015-12-22T11:02:04.357Z</time>
      </trkpt>
      <trkpt lat="46.01045" lon="5.01885">
        <ele>282.899993896</ele>
        <time>2015-12-22T11:02:05.438Z</time>
      </trkpt>
      <trkpt lat="46.01042" lon="5.01892">
        <ele>282.600006104</ele>
        <time>2015-12-22T11:02:06.359Z</time>
      </trkpt>
      <trkpt lat="46.01039" lon="5.01899">
        <ele>282.5</ele>
        <time>2015-12-22T11:02:07.379Z</time>
      </trkpt>
      <trkpt lat="46.01036" lon="5.01905">
        <ele>282.5</ele>
        <time>2015-12-22T11:02:08.357Z</time>
      </trkpt>
      <trkpt lat="46.01033" lon="5.01912">
        <ele>282.600006104</ele>
        <time>2015-12-22T11:02:09.376Z</time>
      </trkpt>
      <trkpt lat="46.0103" lon="5.01919">
        <ele>282.5</ele>
        <time>2015-12-22T11:02:10.358Z</time>
      </trkpt>
      <trkpt lat="46.01027" lon="5.01926">
        <ele>282.5</ele>
        <time>2015-12-22T11:02:11.376Z</time>
      </trkpt>
      <trkpt lat="46.01024" lon="5.01933">
        <ele>282.5</ele>
        <time>2015-12-22T11:02:12.357Z</time>
      </trkpt>
      <trkpt lat="46.01021" lon="5.0194">
        <ele>282.5</ele>
        <time>2015-12-22T11:02:13.406Z</time>
      </trkpt>
      <trkpt lat="46.01018" lon="5.01946">
        <ele>282.399993896</ele>
        <time>2015-12-22T11:02:14.357Z</time>
      </trkpt>
      <trkpt lat="46.01015" lon="5.01953">
        <ele>282.399993896</ele>
        <time>2015-12-22T11:02:15.376Z</time>
      </trkpt>
      <trkpt lat="46.01012" lon="5.0196">
        <ele>282.5</ele>
        <time>2015-12-22T11:02:16.357Z</time>
      </trkpt>
      <trkpt lat="46.01009" lon="5.01967">
        <ele>282.299987793</ele>
        <time>2015-12-22T11:02:17.376Z</time>
      </trkpt>
      <trkpt lat="46.01006" lon="5.01973">
        <ele>282.399993896</ele>
        <time>2015-12-22T11:02:18.357Z</time>
      </trkpt>
      <trkpt lat="46.01003" lon="5.01979">
        <ele>282.299987793</ele>
        <time>2015-12-22T11:02:19.379Z</time>
      </trkpt>
      <trkpt lat="46.01001" lon="5.01986">
        <ele>282.5</ele>
        <time>2015-12-22T11:02:20.357Z</time>
      </trkpt>
      <trkpt lat="46.00998" lon="5.01992">
        <ele>282.399993896</ele>
        <time>2015-12-22T11:02:21.377Z</time>
      </trkpt>
      <trkpt lat="46.00995" lon="5.01998">
        <ele>282.299987793</ele>
        <time>2015-12-22T11:02:22.356Z</time>
      </trkpt>
      <trkpt lat="46.00992" lon="5.02005">
        <ele>282.100006104</ele>
        <time>2015-12-22T11:02:23.376Z</time>
      </trkpt>
      <trkpt lat="46.00988" lon="5.02011">
        <ele>282.100006104</ele>
        <time>2015-12-22T11:02:24.357Z</time>
      </trkpt>
      <trkpt lat="46.00986" lon="5.02018">
        <ele>281.700012207</ele>
        <time>2015-12-22T11:02:25.379Z</time>
      </trkpt>
      <trkpt lat="46.00983" lon="5.02025">
        <ele>281.5</ele>
        <time>2015-12-22T11:02:26.357Z</time>
      </trkpt>
      <trkpt lat="46.0098" lon="5.02032">
        <ele>281.600006104</ele>
        <time>2015-12-22T11:02:27.377Z</time>
      </trkpt>
      <trkpt lat="46.00977" lon="5.02039">
        <ele>281.700012207</ele>
        <time>2015-12-22T11:02:28.357Z</time>
      </trkpt>
      <trkpt lat="46.00974" lon="5.02046">
        <ele>281.899993896</ele>
        <time>2015-12-22T11:02:29.382Z</time>
      </trkpt>
      <trkpt lat="46.00971" lon="5.02053">
        <ele>281.799987793</ele>
        <time>2015-12-22T11:02:30.357Z</time>
      </trkpt>
      <trkpt lat="46.00968" lon="5.0206">
        <ele>281.899993896</ele>
        <time>2015-12-22T11:02:31.39Z</time>
      </trkpt>
      <trkpt lat="46.00964" lon="5.02066">
        <ele>282</ele>
        <time>2015-12-22T11:02:32.375Z</time>
      </trkpt>
      <trkpt lat="46.00961" lon="5.02073">
        <ele>282.299987793</ele>
        <time>2015-12-22T11:02:33.376Z</time>
      </trkpt>
      <trkpt lat="46.00958" lon="5.02079">
        <ele>282.200012207</ele>
        <time>2015-12-22T11:02:34.357Z</time>
      </trkpt>
      <trkpt lat="46.00955" lon="5.02085">
        <ele>281.5</ele>
        <time>2015-12-22T11:02:35.376Z</time>
      </trkpt>
      <trkpt lat="46.00951" lon="5.02092">
        <ele>281.200012207</ele>
        <time>2015-12-22T11:02:36.357Z</time>
      </trkpt>
      <trkpt lat="46.00948" lon="5.02099">
        <ele>281.200012207</ele>
        <time>2015-12-22T11:02:37.379Z</time>
      </trkpt>
      <trkpt lat="46.00945" lon="5.02105">
        <ele>281.200012207</ele>
        <time>2015-12-22T11:02:38.357Z</time>
      </trkpt>
      <trkpt lat="46.00942" lon="5.02112">
        <ele>281.200012207</ele>
        <time>2015-12-22T11:02:39.377Z</time>
      </trkpt>
      <trkpt lat="46.00939" lon="5.02119">
        <ele>281.100006104</ele>
        <time>2015-12-22T11:02:40.357Z</time>
      </trkpt>
      <trkpt lat="46.00935" lon="5.02126">
        <ele>281</ele>
        <time>2015-12-22T11:02:41.375Z</time>
      </trkpt>
      <trkpt lat="46.00932" lon="5.02133">
        <ele>281</ele>
        <time>2015-12-22T11:02:42.373Z</time>
      </trkpt>
      <trkpt lat="46.00929" lon="5.0214">
        <ele>281</ele>
        <time>2015-12-22T11:02:43.379Z</time>
      </trkpt>
      <trkpt lat="46.00925" lon="5.02146">
        <ele>281</ele>
        <time>2015-12-22T11:02:44.356Z</time>
      </trkpt>
      <trkpt lat="46.00922" lon="5.02152">
        <ele>281.200012207</ele>
        <time>2015-12-22T11:02:45.377Z</time>
      </trkpt>
      <trkpt lat="46.00918" lon="5.02158">
        <ele>281.200012207</ele>
        <time>2015-12-22T11:02:46.358Z</time>
      </trkpt>
      <trkpt lat="46.00915" lon="5.02165">
        <ele>281.299987793</ele>
        <time>2015-12-22T11:02:47.376Z</time>
      </trkpt>
      <trkpt lat="46.00912" lon="5.02172">
        <ele>281.5</ele>
        <time>2015-12-22T11:02:48.357Z</time>
      </trkpt>
      <trkpt lat="46.00908" lon="5.02178">
        <ele>281.799987793</ele>
        <time>2015-12-22T11:02:49.382Z</time>
      </trkpt>
      <trkpt lat="46.00905" lon="5.02185">
        <ele>281.899993896</ele>
        <time>2015-12-22T11:02:50.357Z</time>
      </trkpt>
      <trkpt lat="46.00901" lon="5.02192">
        <ele>282.299987793</ele>
        <time>2015-12-22T11:02:51.376Z</time>
      </trkpt>
      <trkpt lat="46.00898" lon="5.02199">
        <ele>282.299987793</ele>
        <time>2015-12-22T11:02:52.356Z</time>
      </trkpt>
      <trkpt lat="46.00894" lon="5.02205">
        <ele>282.299987793</ele>
        <time>2015-12-22T11:02:53.493Z</time>
      </trkpt>
      <trkpt lat="46.00891" lon="5.02212">
        <ele>282.299987793</ele>
        <time>2015-12-22T11:02:54.358Z</time>
      </trkpt>
      <trkpt lat="46.00888" lon="5.02219">
        <ele>282.200012207</ele>
        <time>2015-12-22T11:02:55.379Z</time>
      </trkpt>
      <trkpt lat="46.00884" lon="5.02226">
        <ele>282.299987793</ele>
        <time>2015-12-22T11:02:56.356Z</time>
      </trkpt>
      <trkpt lat="46.0088" lon="5.02232">
        <ele>282.100006104</ele>
        <time>2015-12-22T11:02:57.379Z</time>
      </trkpt>
      <trkpt lat="46.00876" lon="5.02239">
        <ele>281.799987793</ele>
        <time>2015-12-22T11:02:58.359Z</time>
      </trkpt>
      <trkpt lat="46.00872" lon="5.02247">
        <ele>281.5</ele>
        <time>2015-12-22T11:02:59.376Z</time>
      </trkpt>
      <trkpt lat="46.00869" lon="5.02254">
        <ele>281.399993896</ele>
        <time>2015-12-22T11:03:00.358Z</time>
      </trkpt>
      <trkpt lat="46.00865" lon="5.02261">
        <ele>281.100006104</ele>
        <time>2015-12-22T11:03:01.379Z</time>
      </trkpt>
      <trkpt lat="46.00861" lon="5.02268">
        <ele>280.899993896</ele>
        <time>2015-12-22T11:03:02.357Z</time>
      </trkpt>
      <trkpt lat="46.00856" lon="5.02274">
        <ele>280.899993896</ele>
        <time>2015-12-22T11:03:03.376Z</time>
      </trkpt>
      <trkpt lat="46.00851" lon="5.02279">
        <ele>280.899993896</ele>
        <time>2015-12-22T11:03:04.357Z</time>
      </trkpt>
      <trkpt lat="46.00846" lon="5.02284">
        <ele>280.600006104</ele>
        <time>2015-12-22T11:03:05.375Z</time>
      </trkpt>
      <trkpt lat="46.00841" lon="5.02288">
        <ele>280.200012207</ele>
        <time>2015-12-22T11:03:06.358Z</time>
      </trkpt>
      <trkpt lat="46.00835" lon="5.02292">
        <ele>280.299987793</ele>
        <time>2015-12-22T11:03:07.458Z</time>
      </trkpt>
      <trkpt lat="46.0083" lon="5.02296">
        <ele>280.200012207</ele>
        <time>2015-12-22T11:03:08.359Z</time>
      </trkpt>
      <trkpt lat="46.00825" lon="5.023">
        <ele>280.299987793</ele>
        <time>2015-12-22T11:03:09.391Z</time>
      </trkpt>
      <trkpt lat="46.00819" lon="5.02305">
        <ele>280</ele>
        <time>2015-12-22T11:03:10.358Z</time>
      </trkpt>
      <trkpt lat="46.00814" lon="5.0231">
        <ele>279.700012207</ele>
        <time>2015-12-22T11:03:11.376Z</time>
      </trkpt>
      <trkpt lat="46.00809" lon="5.02314">
        <ele>279</ele>
        <time>2015-12-22T11:03:12.356Z</time>
      </trkpt>
      <trkpt lat="46.00803" lon="5.02319">
        <ele>278.5</ele>
        <time>2015-12-22T11:03:13.379Z</time>
      </trkpt>
      <trkpt lat="46.00797" lon="5.02324">
        <ele>278</ele>
        <time>2015-12-22T11:03:14.357Z</time>
      </trkpt>
      <trkpt lat="46.00791" lon="5.02329">
        <ele>277.399993896</ele>
        <time>2015-12-22T11:03:15.378Z</time>
      </trkpt>
      <trkpt lat="46.00785" lon="5.02333">
        <ele>277.100006104</ele>
        <time>2015-12-22T11:03:16.356Z</time>
      </trkpt>
      <trkpt lat="46.00778" lon="5.02338">
        <ele>276.299987793</ele>
        <time>2015-12-22T11:03:17.377Z</time>
      </trkpt>
      <trkpt lat="46.00772" lon="5.02343">
        <ele>276</ele>
        <time>2015-12-22T11:03:18.357Z</time>
      </trkpt>
      <trkpt lat="46.00765" lon="5.02348">
        <ele>275.700012207</ele>
        <time>2015-12-22T11:03:19.38Z</time>
      </trkpt>
      <trkpt lat="46.00759" lon="5.02353">
        <ele>275.299987793</ele>
        <time>2015-12-22T11:03:20.356Z</time>
      </trkpt>
      <trkpt lat="46.00752" lon="5.02358">
        <ele>275.299987793</ele>
        <time>2015-12-22T11:03:21.378Z</time>
      </trkpt>
      <trkpt lat="46.00745" lon="5.02363">
        <ele>275</ele>
        <time>2015-12-22T11:03:22.356Z</time>
      </trkpt>
      <trkpt lat="46.00739" lon="5.02368">
        <ele>275.200012207</ele>
        <time>2015-12-22T11:03:23.379Z</time>
      </trkpt>
      <trkpt lat="46.00733" lon="5.02373">
        <ele>275.200012207</ele>
        <time>2015-12-22T11:03:24.356Z</time>
      </trkpt>
      <trkpt lat="46.00727" lon="5.02378">
        <ele>275</ele>
        <time>2015-12-22T11:03:25.378Z</time>
      </trkpt>
      <trkpt lat="46.00721" lon="5.02382">
        <ele>275.200012207</ele>
        <time>2015-12-22T11:03:26.358Z</time>
      </trkpt>
      <trkpt lat="46.00715" lon="5.02387">
        <ele>274.899993896</ele>
        <time>2015-12-22T11:03:27.377Z</time>
      </trkpt>
      <trkpt lat="46.00709" lon="5.02391">
        <ele>274.5</ele>
        <time>2015-12-22T11:03:28.357Z</time>
      </trkpt>
      <trkpt lat="46.00704" lon="5.02396">
        <ele>274.299987793</ele>
        <time>2015-12-22T11:03:29.376Z</time>
      </trkpt>
      <trkpt lat="46.00698" lon="5.024">
        <ele>274</ele>
        <time>2015-12-22T11:03:30.357Z</time>
      </trkpt>
      <trkpt lat="46.00692" lon="5.02404">
        <ele>273.899993896</ele>
        <time>2015-12-22T11:03:31.379Z</time>
      </trkpt>
      <trkpt lat="46.00687" lon="5.02408">
        <ele>274</ele>
        <time>2015-12-22T11:03:32.357Z</time>
      </trkpt>
      <trkpt lat="46.00681" lon="5.02412">
        <ele>274.100006104</ele>
        <time>2015-12-22T11:03:33.378Z</time>
      </trkpt>
      <trkpt lat="46.00676" lon="5.02415">
        <ele>274.700012207</ele>
        <time>2015-12-22T11:03:34.357Z</time>
      </trkpt>
      <trkpt lat="46.00671" lon="5.02419">
        <ele>274.799987793</ele>
        <time>2015-12-22T11:03:35.39Z</time>
      </trkpt>
      <trkpt lat="46.00666" lon="5.02424">
        <ele>275</ele>
        <time>2015-12-22T11:03:36.356Z</time>
      </trkpt>
      <trkpt lat="46.00661" lon="5.02428">
        <ele>275</ele>
        <time>2015-12-22T11:03:37.379Z</time>
      </trkpt>
      <trkpt lat="46.00655" lon="5.02431">
        <ele>275</ele>
        <time>2015-12-22T11:03:38.358Z</time>
      </trkpt>
      <trkpt lat="46.0065" lon="5.02435">
        <ele>275.299987793</ele>
        <time>2015-12-22T11:03:39.376Z</time>
      </trkpt>
      <trkpt lat="46.00645" lon="5.02439">
        <ele>275.399993896</ele>
        <time>2015-12-22T11:03:40.356Z</time>
      </trkpt>
      <trkpt lat="46.0064" lon="5.02443">
        <ele>275.799987793</ele>
        <time>2015-12-22T11:03:41.375Z</time>
      </trkpt>
      <trkpt lat="46.00636" lon="5.02448">
        <ele>275.799987793</ele>
        <time>2015-12-22T11:03:42.425Z</time>
      </trkpt>
      <trkpt lat="46.00631" lon="5.02452">
        <ele>276.299987793</ele>
        <time>2015-12-22T11:03:43.379Z</time>
      </trkpt>
      <trkpt lat="46.00626" lon="5.02457">
        <ele>276.5</ele>
        <time>2015-12-22T11:03:44.357Z</time>
      </trkpt>
      <trkpt lat="46.00621" lon="5.0246">
        <ele>276.799987793</ele>
        <time>2015-12-22T11:03:45.382Z</time>
      </trkpt>
      <trkpt lat="46.00616" lon="5.02465">
        <ele>276.700012207</ele>
        <time>2015-12-22T11:03:46.358Z</time>
      </trkpt>
      <trkpt lat="46.00611" lon="5.02469">
        <ele>276.399993896</ele>
        <time>2015-12-22T11:03:47.385Z</time>
      </trkpt>
      <trkpt lat="46.00606" lon="5.02474">
        <ele>276.100006104</ele>
        <time>2015-12-22T11:03:48.358Z</time>
      </trkpt>
      <trkpt lat="46.00601" lon="5.02479">
        <ele>276</ele>
        <time>2015-12-22T11:03:49.384Z</time>
      </trkpt>
      <trkpt lat="46.00596" lon="5.02483">
        <ele>275.899993896</ele>
        <time>2015-12-22T11:03:50.356Z</time>
      </trkpt>
      <trkpt lat="46.00591" lon="5.02488">
        <ele>276.100006104</ele>
        <time>2015-12-22T11:03:51.376Z</time>
      </trkpt>
      <trkpt lat="46.00586" lon="5.02492">
        <ele>276.200012207</ele>
        <time>2015-12-22T11:03:52.461Z</time>
      </trkpt>
      <trkpt lat="46.00581" lon="5.02496">
        <ele>276.399993896</ele>
        <time>2015-12-22T11:03:53.4Z</time>
      </trkpt>
      <trkpt lat="46.00577" lon="5.02501">
        <ele>276.200012207</ele>
        <time>2015-12-22T11:03:54.356Z</time>
      </trkpt>
      <trkpt lat="46.00572" lon="5.02505">
        <ele>276.200012207</ele>
        <time>2015-12-22T11:03:55.379Z</time>
      </trkpt>
      <trkpt lat="46.00567" lon="5.02509">
        <ele>276.299987793</ele>
        <time>2015-12-22T11:03:56.357Z</time>
      </trkpt>
      <trkpt lat="46.00562" lon="5.02514">
        <ele>276.700012207</ele>
        <time>2015-12-22T11:03:57.376Z</time>
      </trkpt>
      <trkpt lat="46.00558" lon="5.02518">
        <ele>276.799987793</ele>
        <time>2015-12-22T11:03:58.357Z</time>
      </trkpt>
      <trkpt lat="46.00554" lon="5.02522">
        <ele>276.600006104</ele>
        <time>2015-12-22T11:03:59.467Z</time>
      </trkpt>
      <trkpt lat="46.0055" lon="5.02526">
        <ele>276.799987793</ele>
        <time>2015-12-22T11:04:00.357Z</time>
      </trkpt>
      <trkpt lat="46.00546" lon="5.0253">
        <ele>277</ele>
        <time>2015-12-22T11:04:01.394Z</time>
      </trkpt>
      <trkpt lat="46.00542" lon="5.02534">
        <ele>276.899993896</ele>
        <time>2015-12-22T11:04:02.365Z</time>
      </trkpt>
      <trkpt lat="46.00538" lon="5.02538">
        <ele>277</ele>
        <time>2015-12-22T11:04:03.376Z</time>
      </trkpt>
      <trkpt lat="46.00533" lon="5.02542">
        <ele>277.399993896</ele>
        <time>2015-12-22T11:04:04.358Z</time>
      </trkpt>
      <trkpt lat="46.00529" lon="5.02546">
        <ele>277.600006104</ele>
        <time>2015-12-22T11:04:05.39Z</time>
      </trkpt>
      <trkpt lat="46.00525" lon="5.0255">
        <ele>277.899993896</ele>
        <time>2015-12-22T11:04:06.357Z</time>
      </trkpt>
      <trkpt lat="46.00521" lon="5.02553">
        <ele>277.700012207</ele>
        <time>2015-12-22T11:04:07.38Z</time>
      </trkpt>
      <trkpt lat="46.00517" lon="5.02557">
        <ele>277.600006104</ele>
        <time>2015-12-22T11:04:08.356Z</time>
      </trkpt>
      <trkpt lat="46.00512" lon="5.02561">
        <ele>277.600006104</ele>
        <time>2015-12-22T11:04:09.413Z</time>
      </trkpt>
      <trkpt lat="46.00508" lon="5.02565">
        <ele>277.799987793</ele>
        <time>2015-12-22T11:04:10.358Z</time>
      </trkpt>
      <trkpt lat="46.00503" lon="5.02569">
        <ele>277.600006104</ele>
        <time>2015-12-22T11:04:11.375Z</time>
      </trkpt>
      <trkpt lat="46.00499" lon="5.02573">
        <ele>277.600006104</ele>
        <time>2015-12-22T11:04:12.358Z</time>
      </trkpt>
      <trkpt lat="46.00494" lon="5.02578">
        <ele>277.899993896</ele>
        <time>2015-12-22T11:04:13.381Z</time>
      </trkpt>
      <trkpt lat="46.00489" lon="5.02582">
        <ele>277.799987793</ele>
        <time>2015-12-22T11:04:14.357Z</time>
      </trkpt>
      <trkpt lat="46.00486" lon="5.02586">
        <ele>277.600006104</ele>
        <time>2015-12-22T11:04:15.38Z</time>
      </trkpt>
      <trkpt lat="46.00482" lon="5.02591">
        <ele>277.399993896</ele>
        <time>2015-12-22T11:04:16.359Z</time>
      </trkpt>
      <trkpt lat="46.00478" lon="5.02595">
        <ele>277.100006104</ele>
        <time>2015-12-22T11:04:17.376Z</time>
      </trkpt>
      <trkpt lat="46.00474" lon="5.02599">
        <ele>277.100006104</ele>
        <time>2015-12-22T11:04:18.358Z</time>
      </trkpt>
      <trkpt lat="46.0047" lon="5.02602">
        <ele>277.100006104</ele>
        <time>2015-12-22T11:04:19.38Z</time>
      </trkpt>
      <trkpt lat="46.00466" lon="5.02606">
        <ele>277.200012207</ele>
        <time>2015-12-22T11:04:20.358Z</time>
      </trkpt>
      <trkpt lat="46.00461" lon="5.02609">
        <ele>277.100006104</ele>
        <time>2015-12-22T11:04:21.378Z</time>
      </trkpt>
      <trkpt lat="46.00457" lon="5.02612">
        <ele>277</ele>
        <time>2015-12-22T11:04:22.372Z</time>
      </trkpt>
      <trkpt lat="46.0045" lon="5.02619">
        <ele>276.600006104</ele>
        <time>2015-12-22T11:04:24.375Z</time>
      </trkpt>
      <trkpt lat="46.00446" lon="5.02624">
        <ele>277.100006104</ele>
        <time>2015-12-22T11:04:25.361Z</time>
      </trkpt>
      <trkpt lat="46.00442" lon="5.02628">
        <ele>277.5</ele>
        <time>2015-12-22T11:04:26.376Z</time>
      </trkpt>
      <trkpt lat="46.00438" lon="5.02633">
        <ele>277.399993896</ele>
        <time>2015-12-22T11:04:27.382Z</time>
      </trkpt>
      <trkpt lat="46.00434" lon="5.02636">
        <ele>277.399993896</ele>
        <time>2015-12-22T11:04:28.375Z</time>
      </trkpt>
      <trkpt lat="46.0043" lon="5.0264">
        <ele>277.899993896</ele>
        <time>2015-12-22T11:04:29.358Z</time>
      </trkpt>
      <trkpt lat="46.00423" lon="5.02647">
        <ele>277.899993896</ele>
        <time>2015-12-22T11:04:31.521Z</time>
      </trkpt>
      <trkpt lat="46.00419" lon="5.0265">
        <ele>278.200012207</ele>
        <time>2015-12-22T11:04:32.357Z</time>
      </trkpt>
      <trkpt lat="46.00413" lon="5.02656">
        <ele>278.399993896</ele>
        <time>2015-12-22T11:04:34.377Z</time>
      </trkpt>
      <trkpt lat="46.0041" lon="5.02659">
        <ele>278.5</ele>
        <time>2015-12-22T11:04:35.358Z</time>
      </trkpt>
      <trkpt lat="46.00405" lon="5.02665">
        <ele>279.600006104</ele>
        <time>2015-12-22T11:04:37.396Z</time>
      </trkpt>
      <trkpt lat="46.00403" lon="5.02668">
        <ele>280</ele>
        <time>2015-12-22T11:04:38.357Z</time>
      </trkpt>
      <trkpt lat="46.00396" lon="5.02675">
        <ele>280.399993896</ele>
        <time>2015-12-22T11:04:41.379Z</time>
      </trkpt>
      <trkpt lat="46.00393" lon="5.02676">
        <ele>280.399993896</ele>
        <time>2015-12-22T11:04:42.36Z</time>
      </trkpt>
      <trkpt lat="46.00385" lon="5.02682">
        <ele>281</ele>
        <time>2015-12-22T11:04:47.376Z</time>
      </trkpt>
      <trkpt lat="46.00384" lon="5.02683">
        <ele>280.899993896</ele>
        <time>2015-12-22T11:04:48.413Z</time>
      </trkpt>
      <trkpt lat="46.00379" lon="5.02688">
        <ele>280.700012207</ele>
        <time>2015-12-22T11:04:52.376Z</time>
      </trkpt>
      <trkpt lat="46.00379" lon="5.02689">
        <ele>280.600006104</ele>
        <time>2015-12-22T11:04:53.355Z</time>
      </trkpt>
      <trkpt lat="46.00379" lon="5.02689">
        <ele>279.700012207</ele>
        <time>2015-12-22T11:05:04.389Z</time>
      </trkpt>
      <trkpt lat="46.00378" lon="5.0269">
        <ele>279.799987793</ele>
        <time>2015-12-22T11:05:05.357Z</time>
      </trkpt>
      <trkpt lat="46.00371" lon="5.02694">
        <ele>279.700012207</ele>
        <time>2015-12-22T11:05:08.384Z</time>
      </trkpt>
      <trkpt lat="46.00369" lon="5.02697">
        <ele>279.5</ele>
        <time>2015-12-22T11:05:09.358Z</time>
      </trkpt>
      <trkpt lat="46.00364" lon="5.02702">
        <ele>279.299987793</ele>
        <time>2015-12-22T11:05:11.377Z</time>
      </trkpt>
      <trkpt lat="46.00361" lon="5.02704">
        <ele>279.299987793</ele>
        <time>2015-12-22T11:05:12.38Z</time>
      </trkpt>
      <trkpt lat="46.00353" lon="5.02705">
        <ele>279.399993896</ele>
        <time>2015-12-22T11:05:14.376Z</time>
      </trkpt>
      <trkpt lat="46.00349" lon="5.02704">
        <ele>279.700012207</ele>
        <time>2015-12-22T11:05:15.357Z</time>
      </trkpt>
      <trkpt lat="46.00341" lon="5.02698">
        <ele>279.899993896</ele>
        <time>2015-12-22T11:05:17.382Z</time>
      </trkpt>
      <trkpt lat="46.00337" lon="5.02694">
        <ele>279.899993896</ele>
        <time>2015-12-22T11:05:18.358Z</time>
      </trkpt>
      <trkpt lat="46.00334" lon="5.02689">
        <ele>279.200012207</ele>
        <time>2015-12-22T11:05:19.38Z</time>
      </trkpt>
      <trkpt lat="46.0033" lon="5.02685">
        <ele>278.899993896</ele>
        <time>2015-12-22T11:05:20.355Z</time>
      </trkpt>
      <trkpt lat="46.00326" lon="5.02681">
        <ele>278.899993896</ele>
        <time>2015-12-22T11:05:21.376Z</time>
      </trkpt>
      <trkpt lat="46.00322" lon="5.02677">
        <ele>278.899993896</ele>
        <time>2015-12-22T11:05:22.357Z</time>
      </trkpt>
      <trkpt lat="46.00318" lon="5.02673">
        <ele>279.299987793</ele>
        <time>2015-12-22T11:05:23.375Z</time>
      </trkpt>
      <trkpt lat="46.00315" lon="5.02669">
        <ele>279.299987793</ele>
        <time>2015-12-22T11:05:24.357Z</time>
      </trkpt>
      <trkpt lat="46.00311" lon="5.02665">
        <ele>279.399993896</ele>
        <time>2015-12-22T11:05:25.393Z</time>
      </trkpt>
      <trkpt lat="46.00307" lon="5.02662">
        <ele>279.5</ele>
        <time>2015-12-22T11:05:26.358Z</time>
      </trkpt>
      <trkpt lat="46.00303" lon="5.02658">
        <ele>279.600006104</ele>
        <time>2015-12-22T11:05:27.377Z</time>
      </trkpt>
      <trkpt lat="46.00299" lon="5.02653">
        <ele>279.700012207</ele>
        <time>2015-12-22T11:05:28.357Z</time>
      </trkpt>
      <trkpt lat="46.00295" lon="5.02649">
        <ele>279.899993896</ele>
        <time>2015-12-22T11:05:29.378Z</time>
      </trkpt>
      <trkpt lat="46.00292" lon="5.02644">
        <ele>279.799987793</ele>
        <time>2015-12-22T11:05:30.358Z</time>
      </trkpt>
      <trkpt lat="46.00288" lon="5.0264">
        <ele>279.799987793</ele>
        <time>2015-12-22T11:05:31.379Z</time>
      </trkpt>
      <trkpt lat="46.00284" lon="5.02635">
        <ele>280</ele>
        <time>2015-12-22T11:05:32.356Z</time>
      </trkpt>
      <trkpt lat="46.0028" lon="5.02631">
        <ele>280</ele>
        <time>2015-12-22T11:05:33.38Z</time>
      </trkpt>
      <trkpt lat="46.00275" lon="5.02626">
        <ele>280.200012207</ele>
        <time>2015-12-22T11:05:34.359Z</time>
      </trkpt>
      <trkpt lat="46.00272" lon="5.02622">
        <ele>280.399993896</ele>
        <time>2015-12-22T11:05:35.376Z</time>
      </trkpt>
      <trkpt lat="46.0027" lon="5.02616">
        <ele>280.200012207</ele>
        <time>2015-12-22T11:05:36.377Z</time>
      </trkpt>
      <trkpt lat="46.00268" lon="5.0261">
        <ele>280.100006104</ele>
        <time>2015-12-22T11:05:37.521Z</time>
      </trkpt>
      <trkpt lat="46.00266" lon="5.02604">
        <ele>279.899993896</ele>
        <time>2015-12-22T11:05:38.359Z</time>
      </trkpt>
      <trkpt lat="46.00264" lon="5.02597">
        <ele>279.700012207</ele>
        <time>2015-12-22T11:05:39.377Z</time>
      </trkpt>
      <trkpt lat="46.00262" lon="5.0259">
        <ele>279.600006104</ele>
        <time>2015-12-22T11:05:40.358Z</time>
      </trkpt>
      <trkpt lat="46.00261" lon="5.02584">
        <ele>279.399993896</ele>
        <time>2015-12-22T11:05:41.376Z</time>
      </trkpt>
      <trkpt lat="46.00259" lon="5.02577">
        <ele>279.5</ele>
        <time>2015-12-22T11:05:42.357Z</time>
      </trkpt>
      <trkpt lat="46.00257" lon="5.0257">
        <ele>279.799987793</ele>
        <time>2015-12-22T11:05:43.381Z</time>
      </trkpt>
      <trkpt lat="46.00256" lon="5.02563">
        <ele>280.100006104</ele>
        <time>2015-12-22T11:05:44.361Z</time>
      </trkpt>
      <trkpt lat="46.00253" lon="5.02557">
        <ele>280.100006104</ele>
        <time>2015-12-22T11:05:45.377Z</time>
      </trkpt>
      <trkpt lat="46.00251" lon="5.02551">
        <ele>280</ele>
        <time>2015-12-22T11:05:46.375Z</time>
      </trkpt>
      <trkpt lat="46.00249" lon="5.02546">
        <ele>280.200012207</ele>
        <time>2015-12-22T11:05:47.38Z</time>
      </trkpt>
      <trkpt lat="46.00247" lon="5.0254">
        <ele>280.399993896</ele>
        <time>2015-12-22T11:05:48.358Z</time>
      </trkpt>
      <trkpt lat="46.00243" lon="5.02529">
        <ele>280.700012207</ele>
        <time>2015-12-22T11:05:50.376Z</time>
      </trkpt>
      <trkpt lat="46.00241" lon="5.02522">
        <ele>280.799987793</ele>
        <time>2015-12-22T11:05:51.358Z</time>
      </trkpt>
      <trkpt lat="46.00239" lon="5.02515">
        <ele>280.899993896</ele>
        <time>2015-12-22T11:05:52.376Z</time>
      </trkpt>
      <trkpt lat="46.00237" lon="5.02509">
        <ele>281</ele>
        <time>2015-12-22T11:05:53.357Z</time>
      </trkpt>
      <trkpt lat="46.00235" lon="5.02502">
        <ele>281.100006104</ele>
        <time>2015-12-22T11:05:54.378Z</time>
      </trkpt>
      <trkpt lat="46.00234" lon="5.02496">
        <ele>280.899993896</ele>
        <time>2015-12-22T11:05:55.361Z</time>
      </trkpt>
      <trkpt lat="46.00232" lon="5.0249">
        <ele>281</ele>
        <time>2015-12-22T11:05:56.376Z</time>
      </trkpt>
      <trkpt lat="46.0023" lon="5.02483">
        <ele>280.899993896</ele>
        <time>2015-12-22T11:05:57.378Z</time>
      </trkpt>
      <trkpt lat="46.00228" lon="5.02478">
        <ele>280.899993896</ele>
        <time>2015-12-22T11:05:58.376Z</time>
      </trkpt>
      <trkpt lat="46.00226" lon="5.02471">
        <ele>280.700012207</ele>
        <time>2015-12-22T11:05:59.357Z</time>
      </trkpt>
      <trkpt lat="46.00224" lon="5.02465">
        <ele>280.899993896</ele>
        <time>2015-12-22T11:06:00.438Z</time>
      </trkpt>
      <trkpt lat="46.00222" lon="5.02459">
        <ele>281.200012207</ele>
        <time>2015-12-22T11:06:01.361Z</time>
      </trkpt>
      <trkpt lat="46.0022" lon="5.02452">
        <ele>281.200012207</ele>
        <time>2015-12-22T11:06:02.387Z</time>
      </trkpt>
      <trkpt lat="46.00218" lon="5.02446">
        <ele>281.200012207</ele>
        <time>2015-12-22T11:06:03.357Z</time>
      </trkpt>
      <trkpt lat="46.00216" lon="5.0244">
        <ele>281.200012207</ele>
        <time>2015-12-22T11:06:04.377Z</time>
      </trkpt>
      <trkpt lat="46.00215" lon="5.02433">
        <ele>281.100006104</ele>
        <time>2015-12-22T11:06:05.357Z</time>
      </trkpt>
      <trkpt lat="46.00213" lon="5.02426">
        <ele>281.100006104</ele>
        <time>2015-12-22T11:06:06.375Z</time>
      </trkpt>
      <trkpt lat="46.00211" lon="5.0242">
        <ele>281.100006104</ele>
        <time>2015-12-22T11:06:07.36Z</time>
      </trkpt>
      <trkpt lat="46.00209" lon="5.02413">
        <ele>281</ele>
        <time>2015-12-22T11:06:08.377Z</time>
      </trkpt>
      <trkpt lat="46.00207" lon="5.02406">
        <ele>280.700012207</ele>
        <time>2015-12-22T11:06:09.357Z</time>
      </trkpt>
      <trkpt lat="46.00204" lon="5.02399">
        <ele>280.899993896</ele>
        <time>2015-12-22T11:06:10.376Z</time>
      </trkpt>
      <trkpt lat="46.00202" lon="5.02393">
        <ele>281</ele>
        <time>2015-12-22T11:06:11.357Z</time>
      </trkpt>
      <trkpt lat="46.002" lon="5.02387">
        <ele>281.100006104</ele>
        <time>2015-12-22T11:06:12.391Z</time>
      </trkpt>
      <trkpt lat="46.00198" lon="5.02381">
        <ele>280.899993896</ele>
        <time>2015-12-22T11:06:13.36Z</time>
      </trkpt>
      <trkpt lat="46.00197" lon="5.02375">
        <ele>280.799987793</ele>
        <time>2015-12-22T11:06:14.375Z</time>
      </trkpt>
      <trkpt lat="46.00195" lon="5.02368">
        <ele>280.600006104</ele>
        <time>2015-12-22T11:06:15.358Z</time>
      </trkpt>
      <trkpt lat="46.00194" lon="5.02361">
        <ele>280.200012207</ele>
        <time>2015-12-22T11:06:16.376Z</time>
      </trkpt>
      <trkpt lat="46.00192" lon="5.02354">
        <ele>279.700012207</ele>
        <time>2015-12-22T11:06:17.357Z</time>
      </trkpt>
      <trkpt lat="46.0019" lon="5.02347">
        <ele>279.299987793</ele>
        <time>2015-12-22T11:06:18.376Z</time>
      </trkpt>
      <trkpt lat="46.00187" lon="5.02339">
        <ele>279.200012207</ele>
        <time>2015-12-22T11:06:19.362Z</time>
      </trkpt>
      <trkpt lat="46.00185" lon="5.02331">
        <ele>279.200012207</ele>
        <time>2015-12-22T11:06:20.38Z</time>
      </trkpt>
      <trkpt lat="46.00183" lon="5.02324">
        <ele>279</ele>
        <time>2015-12-22T11:06:21.36Z</time>
      </trkpt>
      <trkpt lat="46.00181" lon="5.02316">
        <ele>278.799987793</ele>
        <time>2015-12-22T11:06:22.379Z</time>
      </trkpt>
      <trkpt lat="46.00179" lon="5.02307">
        <ele>278.700012207</ele>
        <time>2015-12-22T11:06:23.379Z</time>
      </trkpt>
      <trkpt lat="46.00176" lon="5.02298">
        <ele>278.700012207</ele>
        <time>2015-12-22T11:06:24.378Z</time>
      </trkpt>
      <trkpt lat="46.00173" lon="5.02289">
        <ele>279</ele>
        <time>2015-12-22T11:06:25.36Z</time>
      </trkpt>
      <trkpt lat="46.00171" lon="5.0228">
        <ele>279.299987793</ele>
        <time>2015-12-22T11:06:26.376Z</time>
      </trkpt>
      <trkpt lat="46.00168" lon="5.02271">
        <ele>279.299987793</ele>
        <time>2015-12-22T11:06:27.358Z</time>
      </trkpt>
      <trkpt lat="46.00165" lon="5.02263">
        <ele>279.799987793</ele>
        <time>2015-12-22T11:06:28.376Z</time>
      </trkpt>
      <trkpt lat="46.00162" lon="5.02256">
        <ele>279.899993896</ele>
        <time>2015-12-22T11:06:29.357Z</time>
      </trkpt>
      <trkpt lat="46.00159" lon="5.02249">
        <ele>279.600006104</ele>
        <time>2015-12-22T11:06:30.376Z</time>
      </trkpt>
      <trkpt lat="46.00157" lon="5.02244">
        <ele>279.299987793</ele>
        <time>2015-12-22T11:06:31.361Z</time>
      </trkpt>
      <trkpt lat="46.00155" lon="5.02238">
        <ele>279.200012207</ele>
        <time>2015-12-22T11:06:32.375Z</time>
      </trkpt>
      <trkpt lat="46.00154" lon="5.02231">
        <ele>279.5</ele>
        <time>2015-12-22T11:06:33.379Z</time>
      </trkpt>
      <trkpt lat="46.00153" lon="5.02224">
        <ele>279.299987793</ele>
        <time>2015-12-22T11:06:34.404Z</time>
      </trkpt>
      <trkpt lat="46.00152" lon="5.02217">
        <ele>279.399993896</ele>
        <time>2015-12-22T11:06:35.357Z</time>
      </trkpt>
      <trkpt lat="46.0015" lon="5.02209">
        <ele>279.100006104</ele>
        <time>2015-12-22T11:06:36.375Z</time>
      </trkpt>
      <trkpt lat="46.00148" lon="5.02203">
        <ele>279</ele>
        <time>2015-12-22T11:06:37.361Z</time>
      </trkpt>
      <trkpt lat="46.00145" lon="5.02196">
        <ele>278.5</ele>
        <time>2015-12-22T11:06:38.376Z</time>
      </trkpt>
      <trkpt lat="46.00142" lon="5.02188">
        <ele>277.100006104</ele>
        <time>2015-12-22T11:06:39.357Z</time>
      </trkpt>
      <trkpt lat="46.0014" lon="5.0218">
        <ele>276.100006104</ele>
        <time>2015-12-22T11:06:40.377Z</time>
      </trkpt>
      <trkpt lat="46.00139" lon="5.02173">
        <ele>275.399993896</ele>
        <time>2015-12-22T11:06:41.358Z</time>
      </trkpt>
      <trkpt lat="46.00137" lon="5.02166">
        <ele>275.100006104</ele>
        <time>2015-12-22T11:06:42.375Z</time>
      </trkpt>
      <trkpt lat="46.00136" lon="5.02158">
        <ele>274.799987793</ele>
        <time>2015-12-22T11:06:43.36Z</time>
      </trkpt>
      <trkpt lat="46.00134" lon="5.0215">
        <ele>274.799987793</ele>
        <time>2015-12-22T11:06:44.376Z</time>
      </trkpt>
      <trkpt lat="46.00131" lon="5.02142">
        <ele>274.799987793</ele>
        <time>2015-12-22T11:06:45.357Z</time>
      </trkpt>
      <trkpt lat="46.00129" lon="5.02134">
        <ele>274.299987793</ele>
        <time>2015-12-22T11:06:46.432Z</time>
      </trkpt>
      <trkpt lat="46.00127" lon="5.02126">
        <ele>273.899993896</ele>
        <time>2015-12-22T11:06:47.36Z</time>
      </trkpt>
      <trkpt lat="46.00125" lon="5.02119">
        <ele>274</ele>
        <time>2015-12-22T11:06:48.377Z</time>
      </trkpt>
      <trkpt lat="46.00122" lon="5.02112">
        <ele>273.899993896</ele>
        <time>2015-12-22T11:06:49.363Z</time>
      </trkpt>
      <trkpt lat="46.0012" lon="5.02105">
        <ele>273.899993896</ele>
        <time>2015-12-22T11:06:50.376Z</time>
      </trkpt>
      <trkpt lat="46.00118" lon="5.02097">
        <ele>273.799987793</ele>
        <time>2015-12-22T11:06:51.358Z</time>
      </trkpt>
      <trkpt lat="46.00116" lon="5.0209">
        <ele>273.799987793</ele>
        <time>2015-12-22T11:06:52.375Z</time>
      </trkpt>
      <trkpt lat="46.00113" lon="5.02083">
        <ele>274</ele>
        <time>2015-12-22T11:06:53.356Z</time>
      </trkpt>
      <trkpt lat="46.00111" lon="5.02075">
        <ele>274</ele>
        <time>2015-12-22T11:06:54.377Z</time>
      </trkpt>
      <trkpt lat="46.00109" lon="5.02068">
        <ele>273.799987793</ele>
        <time>2015-12-22T11:06:55.36Z</time>
      </trkpt>
      <trkpt lat="46.00107" lon="5.02061">
        <ele>273.600006104</ele>
        <time>2015-12-22T11:06:56.376Z</time>
      </trkpt>
      <trkpt lat="46.00104" lon="5.02053">
        <ele>273.5</ele>
        <time>2015-12-22T11:06:57.357Z</time>
      </trkpt>
      <trkpt lat="46.00102" lon="5.02046">
        <ele>273.5</ele>
        <time>2015-12-22T11:06:58.376Z</time>
      </trkpt>
      <trkpt lat="46.00099" lon="5.02039">
        <ele>273.600006104</ele>
        <time>2015-12-22T11:06:59.373Z</time>
      </trkpt>
      <trkpt lat="46.00097" lon="5.02031">
        <ele>273.5</ele>
        <time>2015-12-22T11:07:00.375Z</time>
      </trkpt>
      <trkpt lat="46.00095" lon="5.02023">
        <ele>273.5</ele>
        <time>2015-12-22T11:07:01.36Z</time>
      </trkpt>
      <trkpt lat="46.00093" lon="5.02015">
        <ele>273.399993896</ele>
        <time>2015-12-22T11:07:02.376Z</time>
      </trkpt>
      <trkpt lat="46.0009" lon="5.02008">
        <ele>273.399993896</ele>
        <time>2015-12-22T11:07:03.357Z</time>
      </trkpt>
      <trkpt lat="46.00088" lon="5.02">
        <ele>273.100006104</ele>
        <time>2015-12-22T11:07:04.376Z</time>
      </trkpt>
      <trkpt lat="46.00085" lon="5.01992">
        <ele>272.700012207</ele>
        <time>2015-12-22T11:07:05.438Z</time>
      </trkpt>
      <trkpt lat="46.00083" lon="5.01984">
        <ele>272.600006104</ele>
        <time>2015-12-22T11:07:06.376Z</time>
      </trkpt>
      <trkpt lat="46.0008" lon="5.01976">
        <ele>272.799987793</ele>
        <time>2015-12-22T11:07:07.36Z</time>
      </trkpt>
      <trkpt lat="46.00078" lon="5.01968">
        <ele>273.200012207</ele>
        <time>2015-12-22T11:07:08.375Z</time>
      </trkpt>
      <trkpt lat="46.00076" lon="5.0196">
        <ele>273.799987793</ele>
        <time>2015-12-22T11:07:09.485Z</time>
      </trkpt>
      <trkpt lat="46.00074" lon="5.01952">
        <ele>274.299987793</ele>
        <time>2015-12-22T11:07:10.376Z</time>
      </trkpt>
      <trkpt lat="46.00072" lon="5.01945">
        <ele>274.600006104</ele>
        <time>2015-12-22T11:07:11.357Z</time>
      </trkpt>
      <trkpt lat="46.00069" lon="5.01938">
        <ele>274.899993896</ele>
        <time>2015-12-22T11:07:12.376Z</time>
      </trkpt>
      <trkpt lat="46.00067" lon="5.01931">
        <ele>275</ele>
        <time>2015-12-22T11:07:13.36Z</time>
      </trkpt>
      <trkpt lat="46.00065" lon="5.01925">
        <ele>275.200012207</ele>
        <time>2015-12-22T11:07:14.377Z</time>
      </trkpt>
      <trkpt lat="46.00063" lon="5.01918">
        <ele>275.200012207</ele>
        <time>2015-12-22T11:07:15.358Z</time>
      </trkpt>
      <trkpt lat="46.00061" lon="5.01911">
        <ele>275</ele>
        <time>2015-12-22T11:07:16.376Z</time>
      </trkpt>
      <trkpt lat="46.0006" lon="5.01905">
        <ele>275</ele>
        <time>2015-12-22T11:07:17.357Z</time>
      </trkpt>
      <trkpt lat="46.00058" lon="5.01898">
        <ele>274.899993896</ele>
        <time>2015-12-22T11:07:18.376Z</time>
      </trkpt>
      <trkpt lat="46.00056" lon="5.01891">
        <ele>275.200012207</ele>
        <time>2015-12-22T11:07:19.36Z</time>
      </trkpt>
      <trkpt lat="46.00054" lon="5.01884">
        <ele>275.200012207</ele>
        <time>2015-12-22T11:07:20.392Z</time>
      </trkpt>
      <trkpt lat="46.00054" lon="5.01877">
        <ele>274.700012207</ele>
        <time>2015-12-22T11:07:21.358Z</time>
      </trkpt>
      <trkpt lat="46.00053" lon="5.0187">
        <ele>274.5</ele>
        <time>2015-12-22T11:07:22.375Z</time>
      </trkpt>
      <trkpt lat="46.00054" lon="5.01863">
        <ele>274.5</ele>
        <time>2015-12-22T11:07:23.361Z</time>
      </trkpt>
      <trkpt lat="46.00054" lon="5.01855">
        <ele>274.5</ele>
        <time>2015-12-22T11:07:24.378Z</time>
      </trkpt>
      <trkpt lat="46.00056" lon="5.01848">
        <ele>274.5</ele>
        <time>2015-12-22T11:07:25.36Z</time>
      </trkpt>
      <trkpt lat="46.00056" lon="5.0184">
        <ele>274.5</ele>
        <time>2015-12-22T11:07:26.397Z</time>
      </trkpt>
      <trkpt lat="46.00057" lon="5.01832">
        <ele>274.700012207</ele>
        <time>2015-12-22T11:07:27.358Z</time>
      </trkpt>
      <trkpt lat="46.00058" lon="5.01824">
        <ele>275.200012207</ele>
        <time>2015-12-22T11:07:28.376Z</time>
      </trkpt>
      <trkpt lat="46.00059" lon="5.01816">
        <ele>275.399993896</ele>
        <time>2015-12-22T11:07:29.357Z</time>
      </trkpt>
      <trkpt lat="46.0006" lon="5.01808">
        <ele>276</ele>
        <time>2015-12-22T11:07:30.375Z</time>
      </trkpt>
      <trkpt lat="46.00062" lon="5.01801">
        <ele>276</ele>
        <time>2015-12-22T11:07:31.364Z</time>
      </trkpt>
      <trkpt lat="46.00064" lon="5.01793">
        <ele>275.899993896</ele>
        <time>2015-12-22T11:07:32.51Z</time>
      </trkpt>
      <trkpt lat="46.00066" lon="5.01785">
        <ele>275.700012207</ele>
        <time>2015-12-22T11:07:33.359Z</time>
      </trkpt>
      <trkpt lat="46.00068" lon="5.01777">
        <ele>275.399993896</ele>
        <time>2015-12-22T11:07:34.376Z</time>
      </trkpt>
      <trkpt lat="46.00069" lon="5.0177">
        <ele>275</ele>
        <time>2015-12-22T11:07:35.358Z</time>
      </trkpt>
      <trkpt lat="46.0007" lon="5.01762">
        <ele>274.600006104</ele>
        <time>2015-12-22T11:07:36.375Z</time>
      </trkpt>
      <trkpt lat="46.00072" lon="5.01754">
        <ele>274.600006104</ele>
        <time>2015-12-22T11:07:37.361Z</time>
      </trkpt>
      <trkpt lat="46.00074" lon="5.01746">
        <ele>274.899993896</ele>
        <time>2015-12-22T11:07:38.376Z</time>
      </trkpt>
      <trkpt lat="46.00075" lon="5.01738">
        <ele>274.799987793</ele>
        <time>2015-12-22T11:07:39.358Z</time>
      </trkpt>
      <trkpt lat="46.00076" lon="5.01729">
        <ele>274.700012207</ele>
        <time>2015-12-22T11:07:40.376Z</time>
      </trkpt>
      <trkpt lat="46.00077" lon="5.01721">
        <ele>274.200012207</ele>
        <time>2015-12-22T11:07:41.356Z</time>
      </trkpt>
      <trkpt lat="46.00079" lon="5.01712">
        <ele>274.100006104</ele>
        <time>2015-12-22T11:07:42.375Z</time>
      </trkpt>
      <trkpt lat="46.0008" lon="5.01703">
        <ele>273.899993896</ele>
        <time>2015-12-22T11:07:43.361Z</time>
      </trkpt>
      <trkpt lat="46.00081" lon="5.01693">
        <ele>273.600006104</ele>
        <time>2015-12-22T11:07:44.403Z</time>
      </trkpt>
      <trkpt lat="46.00083" lon="5.01683">
        <ele>273.399993896</ele>
        <time>2015-12-22T11:07:45.357Z</time>
      </trkpt>
      <trkpt lat="46.00084" lon="5.01674">
        <ele>273.700012207</ele>
        <time>2015-12-22T11:07:46.391Z</time>
      </trkpt>
      <trkpt lat="46.00085" lon="5.01664">
        <ele>274.100006104</ele>
        <time>2015-12-22T11:07:47.358Z</time>
      </trkpt>
      <trkpt lat="46.00086" lon="5.01655">
        <ele>274.200012207</ele>
        <time>2015-12-22T11:07:48.382Z</time>
      </trkpt>
      <trkpt lat="46.00088" lon="5.01647">
        <ele>274.100006104</ele>
        <time>2015-12-22T11:07:49.366Z</time>
      </trkpt>
      <trkpt lat="46.00089" lon="5.01638">
        <ele>273.799987793</ele>
        <time>2015-12-22T11:07:50.375Z</time>
      </trkpt>
      <trkpt lat="46.00091" lon="5.0163">
        <ele>273.399993896</ele>
        <time>2015-12-22T11:07:51.357Z</time>
      </trkpt>
      <trkpt lat="46.00093" lon="5.01623">
        <ele>273</ele>
        <time>2015-12-22T11:07:52.376Z</time>
      </trkpt>
      <trkpt lat="46.00095" lon="5.01615">
        <ele>272.5</ele>
        <time>2015-12-22T11:07:53.404Z</time>
      </trkpt>
      <trkpt lat="46.00096" lon="5.01608">
        <ele>272.100006104</ele>
        <time>2015-12-22T11:07:54.401Z</time>
      </trkpt>
      <trkpt lat="46.00099" lon="5.016">
        <ele>271.700012207</ele>
        <time>2015-12-22T11:07:55.359Z</time>
      </trkpt>
      <trkpt lat="46.00101" lon="5.01592">
        <ele>271.100006104</ele>
        <time>2015-12-22T11:07:56.375Z</time>
      </trkpt>
      <trkpt lat="46.00103" lon="5.01583">
        <ele>270.700012207</ele>
        <time>2015-12-22T11:07:57.357Z</time>
      </trkpt>
      <trkpt lat="46.00105" lon="5.01575">
        <ele>270.299987793</ele>
        <time>2015-12-22T11:07:58.377Z</time>
      </trkpt>
      <trkpt lat="46.00107" lon="5.01566">
        <ele>270.200012207</ele>
        <time>2015-12-22T11:07:59.357Z</time>
      </trkpt>
      <trkpt lat="46.00108" lon="5.01558">
        <ele>270.200012207</ele>
        <time>2015-12-22T11:08:00.376Z</time>
      </trkpt>
      <trkpt lat="46.0011" lon="5.0155">
        <ele>270.299987793</ele>
        <time>2015-12-22T11:08:01.36Z</time>
      </trkpt>
      <trkpt lat="46.00113" lon="5.01541">
        <ele>270.5</ele>
        <time>2015-12-22T11:08:02.391Z</time>
      </trkpt>
      <trkpt lat="46.00115" lon="5.01532">
        <ele>270.600006104</ele>
        <time>2015-12-22T11:08:03.357Z</time>
      </trkpt>
      <trkpt lat="46.00117" lon="5.01523">
        <ele>270.399993896</ele>
        <time>2015-12-22T11:08:04.375Z</time>
      </trkpt>
      <trkpt lat="46.00119" lon="5.01514">
        <ele>270.200012207</ele>
        <time>2015-12-22T11:08:05.357Z</time>
      </trkpt>
      <trkpt lat="46.00121" lon="5.01506">
        <ele>270.200012207</ele>
        <time>2015-12-22T11:08:06.511Z</time>
      </trkpt>
      <trkpt lat="46.00122" lon="5.01497">
        <ele>270</ele>
        <time>2015-12-22T11:08:07.36Z</time>
      </trkpt>
      <trkpt lat="46.00125" lon="5.01489">
        <ele>269.799987793</ele>
        <time>2015-12-22T11:08:08.376Z</time>
      </trkpt>
      <trkpt lat="46.00127" lon="5.0148">
        <ele>269.299987793</ele>
        <time>2015-12-22T11:08:09.354Z</time>
      </trkpt>
      <trkpt lat="46.00128" lon="5.01471">
        <ele>268.399993896</ele>
        <time>2015-12-22T11:08:10.375Z</time>
      </trkpt>
      <trkpt lat="46.00129" lon="5.01462">
        <ele>268.100006104</ele>
        <time>2015-12-22T11:08:11.381Z</time>
      </trkpt>
      <trkpt lat="46.00131" lon="5.01453">
        <ele>268.299987793</ele>
        <time>2015-12-22T11:08:12.376Z</time>
      </trkpt>
      <trkpt lat="46.00133" lon="5.01444">
        <ele>268.5</ele>
        <time>2015-12-22T11:08:13.361Z</time>
      </trkpt>
      <trkpt lat="46.00135" lon="5.01434">
        <ele>268.899993896</ele>
        <time>2015-12-22T11:08:14.376Z</time>
      </trkpt>
      <trkpt lat="46.00137" lon="5.01425">
        <ele>269.200012207</ele>
        <time>2015-12-22T11:08:15.364Z</time>
      </trkpt>
      <trkpt lat="46.00139" lon="5.01416">
        <ele>269.5</ele>
        <time>2015-12-22T11:08:16.383Z</time>
      </trkpt>
      <trkpt lat="46.00142" lon="5.01406">
        <ele>269.5</ele>
        <time>2015-12-22T11:08:17.358Z</time>
      </trkpt>
      <trkpt lat="46.00145" lon="5.01397">
        <ele>269.299987793</ele>
        <time>2015-12-22T11:08:18.519Z</time>
      </trkpt>
      <trkpt lat="46.00147" lon="5.01387">
        <ele>269.299987793</ele>
        <time>2015-12-22T11:08:19.36Z</time>
      </trkpt>
      <trkpt lat="46.0015" lon="5.01378">
        <ele>269.399993896</ele>
        <time>2015-12-22T11:08:20.377Z</time>
      </trkpt>
      <trkpt lat="46.00152" lon="5.01368">
        <ele>269.299987793</ele>
        <time>2015-12-22T11:08:21.357Z</time>
      </trkpt>
      <trkpt lat="46.00154" lon="5.01359">
        <ele>269.299987793</ele>
        <time>2015-12-22T11:08:22.375Z</time>
      </trkpt>
      <trkpt lat="46.00157" lon="5.01349">
        <ele>269.600006104</ele>
        <time>2015-12-22T11:08:23.357Z</time>
      </trkpt>
      <trkpt lat="46.00159" lon="5.01341">
        <ele>269.899993896</ele>
        <time>2015-12-22T11:08:24.376Z</time>
      </trkpt>
      <trkpt lat="46.00161" lon="5.01332">
        <ele>270.100006104</ele>
        <time>2015-12-22T11:08:25.361Z</time>
      </trkpt>
      <trkpt lat="46.00164" lon="5.01323">
        <ele>269.700012207</ele>
        <time>2015-12-22T11:08:26.376Z</time>
      </trkpt>
      <trkpt lat="46.00167" lon="5.01314">
        <ele>269.399993896</ele>
        <time>2015-12-22T11:08:27.357Z</time>
      </trkpt>
      <trkpt lat="46.00171" lon="5.01305">
        <ele>269.299987793</ele>
        <time>2015-12-22T11:08:28.377Z</time>
      </trkpt>
      <trkpt lat="46.00174" lon="5.01297">
        <ele>268.799987793</ele>
        <time>2015-12-22T11:08:29.356Z</time>
      </trkpt>
      <trkpt lat="46.00177" lon="5.01288">
        <ele>268.399993896</ele>
        <time>2015-12-22T11:08:30.376Z</time>
      </trkpt>
      <trkpt lat="46.0018" lon="5.01278">
        <ele>268.299987793</ele>
        <time>2015-12-22T11:08:31.354Z</time>
      </trkpt>
      <trkpt lat="46.00184" lon="5.01269">
        <ele>268.399993896</ele>
        <time>2015-12-22T11:08:32.375Z</time>
      </trkpt>
      <trkpt lat="46.00187" lon="5.0126">
        <ele>268.600006104</ele>
        <time>2015-12-22T11:08:33.357Z</time>
      </trkpt>
      <trkpt lat="46.0019" lon="5.0125">
        <ele>268.799987793</ele>
        <time>2015-12-22T11:08:34.417Z</time>
      </trkpt>
      <trkpt lat="46.00194" lon="5.01241">
        <ele>268.600006104</ele>
        <time>2015-12-22T11:08:35.358Z</time>
      </trkpt>
      <trkpt lat="46.00197" lon="5.01233">
        <ele>268.700012207</ele>
        <time>2015-12-22T11:08:36.376Z</time>
      </trkpt>
      <trkpt lat="46.00201" lon="5.01224">
        <ele>268.700012207</ele>
        <time>2015-12-22T11:08:37.36Z</time>
      </trkpt>
      <trkpt lat="46.00204" lon="5.01215">
        <ele>268.5</ele>
        <time>2015-12-22T11:08:38.377Z</time>
      </trkpt>
      <trkpt lat="46.00208" lon="5.01206">
        <ele>268.299987793</ele>
        <time>2015-12-22T11:08:39.357Z</time>
      </trkpt>
      <trkpt lat="46.00211" lon="5.01198">
        <ele>268.200012207</ele>
        <time>2015-12-22T11:08:40.375Z</time>
      </trkpt>
      <trkpt lat="46.00214" lon="5.0119">
        <ele>268.299987793</ele>
        <time>2015-12-22T11:08:41.36Z</time>
      </trkpt>
      <trkpt lat="46.00217" lon="5.01181">
        <ele>268.399993896</ele>
        <time>2015-12-22T11:08:42.378Z</time>
      </trkpt>
      <trkpt lat="46.00221" lon="5.01173">
        <ele>268.5</ele>
        <time>2015-12-22T11:08:43.361Z</time>
      </trkpt>
      <trkpt lat="46.00224" lon="5.01164">
        <ele>268.299987793</ele>
        <time>2015-12-22T11:08:44.396Z</time>
      </trkpt>
      <trkpt lat="46.00227" lon="5.01157">
        <ele>268.200012207</ele>
        <time>2015-12-22T11:08:45.357Z</time>
      </trkpt>
      <trkpt lat="46.00231" lon="5.01148">
        <ele>268.100006104</ele>
        <time>2015-12-22T11:08:46.375Z</time>
      </trkpt>
      <trkpt lat="46.00234" lon="5.0114">
        <ele>267.899993896</ele>
        <time>2015-12-22T11:08:47.357Z</time>
      </trkpt>
      <trkpt lat="46.00237" lon="5.01131">
        <ele>267.700012207</ele>
        <time>2015-12-22T11:08:48.375Z</time>
      </trkpt>
      <trkpt lat="46.0024" lon="5.01122">
        <ele>267.799987793</ele>
        <time>2015-12-22T11:08:49.363Z</time>
      </trkpt>
      <trkpt lat="46.00242" lon="5.01113">
        <ele>268.100006104</ele>
        <time>2015-12-22T11:08:50.375Z</time>
      </trkpt>
      <trkpt lat="46.00244" lon="5.01104">
        <ele>268.200012207</ele>
        <time>2015-12-22T11:08:51.357Z</time>
      </trkpt>
      <trkpt lat="46.00246" lon="5.01096">
        <ele>268.200012207</ele>
        <time>2015-12-22T11:08:52.375Z</time>
      </trkpt>
      <trkpt lat="46.00249" lon="5.01088">
        <ele>268.399993896</ele>
        <time>2015-12-22T11:08:53.351Z</time>
      </trkpt>
      <trkpt lat="46.00251" lon="5.01079">
        <ele>268.5</ele>
        <time>2015-12-22T11:08:54.375Z</time>
      </trkpt>
      <trkpt lat="46.00253" lon="5.01071">
        <ele>268.5</ele>
        <time>2015-12-22T11:08:55.36Z</time>
      </trkpt>
      <trkpt lat="46.00255" lon="5.01062">
        <ele>268.200012207</ele>
        <time>2015-12-22T11:08:56.396Z</time>
      </trkpt>
      <trkpt lat="46.00258" lon="5.01053">
        <ele>268.5</ele>
        <time>2015-12-22T11:08:57.357Z</time>
      </trkpt>
      <trkpt lat="46.0026" lon="5.01043">
        <ele>268.799987793</ele>
        <time>2015-12-22T11:08:58.375Z</time>
      </trkpt>
      <trkpt lat="46.00263" lon="5.01034">
        <ele>269</ele>
        <time>2015-12-22T11:08:59.357Z</time>
      </trkpt>
      <trkpt lat="46.00265" lon="5.01025">
        <ele>268.799987793</ele>
        <time>2015-12-22T11:09:00.39Z</time>
      </trkpt>
      <trkpt lat="46.00267" lon="5.01016">
        <ele>268.600006104</ele>
        <time>2015-12-22T11:09:01.359Z</time>
      </trkpt>
      <trkpt lat="46.00269" lon="5.01006">
        <ele>268.600006104</ele>
        <time>2015-12-22T11:09:02.376Z</time>
      </trkpt>
      <trkpt lat="46.00272" lon="5.00996">
        <ele>268.5</ele>
        <time>2015-12-22T11:09:03.357Z</time>
      </trkpt>
      <trkpt lat="46.00274" lon="5.00987">
        <ele>268.600006104</ele>
        <time>2015-12-22T11:09:04.377Z</time>
      </trkpt>
      <trkpt lat="46.00276" lon="5.00978">
        <ele>268.700012207</ele>
        <time>2015-12-22T11:09:05.358Z</time>
      </trkpt>
      <trkpt lat="46.00278" lon="5.0097">
        <ele>269</ele>
        <time>2015-12-22T11:09:06.392Z</time>
      </trkpt>
      <trkpt lat="46.00279" lon="5.00961">
        <ele>269.100006104</ele>
        <time>2015-12-22T11:09:07.365Z</time>
      </trkpt>
      <trkpt lat="46.00281" lon="5.00953">
        <ele>269.200012207</ele>
        <time>2015-12-22T11:09:08.378Z</time>
      </trkpt>
      <trkpt lat="46.00283" lon="5.00946">
        <ele>269.200012207</ele>
        <time>2015-12-22T11:09:09.358Z</time>
      </trkpt>
      <trkpt lat="46.00285" lon="5.00938">
        <ele>269.100006104</ele>
        <time>2015-12-22T11:09:10.376Z</time>
      </trkpt>
      <trkpt lat="46.00286" lon="5.00929">
        <ele>269.399993896</ele>
        <time>2015-12-22T11:09:11.356Z</time>
      </trkpt>
      <trkpt lat="46.00288" lon="5.00921">
        <ele>269.600006104</ele>
        <time>2015-12-22T11:09:12.377Z</time>
      </trkpt>
      <trkpt lat="46.0029" lon="5.00913">
        <ele>269.600006104</ele>
        <time>2015-12-22T11:09:13.359Z</time>
      </trkpt>
      <trkpt lat="46.00291" lon="5.00905">
        <ele>269.399993896</ele>
        <time>2015-12-22T11:09:14.376Z</time>
      </trkpt>
      <trkpt lat="46.00293" lon="5.00896">
        <ele>269.200012207</ele>
        <time>2015-12-22T11:09:15.396Z</time>
      </trkpt>
      <trkpt lat="46.00295" lon="5.00887">
        <ele>269.100006104</ele>
        <time>2015-12-22T11:09:16.392Z</time>
      </trkpt>
      <trkpt lat="46.00296" lon="5.00878">
        <ele>269.200012207</ele>
        <time>2015-12-22T11:09:17.476Z</time>
      </trkpt>
      <trkpt lat="46.00298" lon="5.00868">
        <ele>269.700012207</ele>
        <time>2015-12-22T11:09:18.38Z</time>
      </trkpt>
      <trkpt lat="46.00301" lon="5.00858">
        <ele>270.100006104</ele>
        <time>2015-12-22T11:09:19.359Z</time>
      </trkpt>
      <trkpt lat="46.00302" lon="5.00849">
        <ele>270</ele>
        <time>2015-12-22T11:09:20.382Z</time>
      </trkpt>
      <trkpt lat="46.00303" lon="5.00841">
        <ele>270.100006104</ele>
        <time>2015-12-22T11:09:21.358Z</time>
      </trkpt>
      <trkpt lat="46.00305" lon="5.00832">
        <ele>270.299987793</ele>
        <time>2015-12-22T11:09:22.391Z</time>
      </trkpt>
      <trkpt lat="46.00306" lon="5.00824">
        <ele>270.600006104</ele>
        <time>2015-12-22T11:09:23.358Z</time>
      </trkpt>
      <trkpt lat="46.00307" lon="5.00817">
        <ele>270.799987793</ele>
        <time>2015-12-22T11:09:24.376Z</time>
      </trkpt>
      <trkpt lat="46.00309" lon="5.0081">
        <ele>270.899993896</ele>
        <time>2015-12-22T11:09:25.36Z</time>
      </trkpt>
      <trkpt lat="46.00311" lon="5.00803">
        <ele>271.299987793</ele>
        <time>2015-12-22T11:09:26.375Z</time>
      </trkpt>
      <trkpt lat="46.00312" lon="5.00795">
        <ele>271.200012207</ele>
        <time>2015-12-22T11:09:27.358Z</time>
      </trkpt>
      <trkpt lat="46.00313" lon="5.00788">
        <ele>271.399993896</ele>
        <time>2015-12-22T11:09:28.438Z</time>
      </trkpt>
      <trkpt lat="46.00314" lon="5.0078">
        <ele>271.200012207</ele>
        <time>2015-12-22T11:09:29.357Z</time>
      </trkpt>
      <trkpt lat="46.00315" lon="5.00772">
        <ele>271.100006104</ele>
        <time>2015-12-22T11:09:30.376Z</time>
      </trkpt>
      <trkpt lat="46.00317" lon="5.00763">
        <ele>271.299987793</ele>
        <time>2015-12-22T11:09:31.36Z</time>
      </trkpt>
      <trkpt lat="46.00318" lon="5.00754">
        <ele>271.399993896</ele>
        <time>2015-12-22T11:09:32.39Z</time>
      </trkpt>
      <trkpt lat="46.0032" lon="5.00745">
        <ele>271.399993896</ele>
        <time>2015-12-22T11:09:33.357Z</time>
      </trkpt>
      <trkpt lat="46.00321" lon="5.00736">
        <ele>271.100006104</ele>
        <time>2015-12-22T11:09:34.376Z</time>
      </trkpt>
      <trkpt lat="46.00323" lon="5.00727">
        <ele>271</ele>
        <time>2015-12-22T11:09:35.356Z</time>
      </trkpt>
      <trkpt lat="46.00324" lon="5.00718">
        <ele>271</ele>
        <time>2015-12-22T11:09:36.375Z</time>
      </trkpt>
      <trkpt lat="46.00325" lon="5.0071">
        <ele>271</ele>
        <time>2015-12-22T11:09:37.36Z</time>
      </trkpt>
      <trkpt lat="46.00326" lon="5.00702">
        <ele>270.899993896</ele>
        <time>2015-12-22T11:09:38.381Z</time>
      </trkpt>
      <trkpt lat="46.00328" lon="5.00693">
        <ele>270.899993896</ele>
        <time>2015-12-22T11:09:39.358Z</time>
      </trkpt>
      <trkpt lat="46.00329" lon="5.00684">
        <ele>270.899993896</ele>
        <time>2015-12-22T11:09:40.507Z</time>
      </trkpt>
      <trkpt lat="46.0033" lon="5.00676">
        <ele>270.799987793</ele>
        <time>2015-12-22T11:09:41.358Z</time>
      </trkpt>
      <trkpt lat="46.00331" lon="5.00667">
        <ele>270.5</ele>
        <time>2015-12-22T11:09:42.375Z</time>
      </trkpt>
      <trkpt lat="46.00333" lon="5.00658">
        <ele>270.399993896</ele>
        <time>2015-12-22T11:09:43.362Z</time>
      </trkpt>
      <trkpt lat="46.00334" lon="5.00649">
        <ele>270.600006104</ele>
        <time>2015-12-22T11:09:44.377Z</time>
      </trkpt>
      <trkpt lat="46.00336" lon="5.00639">
        <ele>270.200012207</ele>
        <time>2015-12-22T11:09:45.358Z</time>
      </trkpt>
      <trkpt lat="46.00337" lon="5.0063">
        <ele>270.200012207</ele>
        <time>2015-12-22T11:09:46.376Z</time>
      </trkpt>
      <trkpt lat="46.00338" lon="5.0062">
        <ele>270.399993896</ele>
        <time>2015-12-22T11:09:47.356Z</time>
      </trkpt>
      <trkpt lat="46.0034" lon="5.00611">
        <ele>270.5</ele>
        <time>2015-12-22T11:09:48.391Z</time>
      </trkpt>
      <trkpt lat="46.00341" lon="5.00602">
        <ele>270.600006104</ele>
        <time>2015-12-22T11:09:49.363Z</time>
      </trkpt>
      <trkpt lat="46.00343" lon="5.00594">
        <ele>270.799987793</ele>
        <time>2015-12-22T11:09:50.375Z</time>
      </trkpt>
      <trkpt lat="46.00344" lon="5.00585">
        <ele>270.899993896</ele>
        <time>2015-12-22T11:09:51.357Z</time>
      </trkpt>
      <trkpt lat="46.00345" lon="5.00577">
        <ele>271.299987793</ele>
        <time>2015-12-22T11:09:52.376Z</time>
      </trkpt>
      <trkpt lat="46.00346" lon="5.0057">
        <ele>271.399993896</ele>
        <time>2015-12-22T11:09:53.356Z</time>
      </trkpt>
      <trkpt lat="46.00347" lon="5.00562">
        <ele>271.700012207</ele>
        <time>2015-12-22T11:09:54.375Z</time>
      </trkpt>
      <trkpt lat="46.00348" lon="5.00554">
        <ele>271.899993896</ele>
        <time>2015-12-22T11:09:55.36Z</time>
      </trkpt>
      <trkpt lat="46.00348" lon="5.00546">
        <ele>272.200012207</ele>
        <time>2015-12-22T11:09:56.375Z</time>
      </trkpt>
      <trkpt lat="46.00349" lon="5.00538">
        <ele>272.399993896</ele>
        <time>2015-12-22T11:09:57.357Z</time>
      </trkpt>
      <trkpt lat="46.0035" lon="5.0053">
        <ele>272.5</ele>
        <time>2015-12-22T11:09:58.388Z</time>
      </trkpt>
      <trkpt lat="46.00352" lon="5.00521">
        <ele>272.700012207</ele>
        <time>2015-12-22T11:09:59.396Z</time>
      </trkpt>
      <trkpt lat="46.00353" lon="5.00513">
        <ele>272.899993896</ele>
        <time>2015-12-22T11:10:00.376Z</time>
      </trkpt>
      <trkpt lat="46.00354" lon="5.00505">
        <ele>272.700012207</ele>
        <time>2015-12-22T11:10:01.36Z</time>
      </trkpt>
      <trkpt lat="46.00355" lon="5.00496">
        <ele>272.5</ele>
        <time>2015-12-22T11:10:02.436Z</time>
      </trkpt>
      <trkpt lat="46.00356" lon="5.00487">
        <ele>272.700012207</ele>
        <time>2015-12-22T11:10:03.356Z</time>
      </trkpt>
      <trkpt lat="46.00356" lon="5.00478">
        <ele>272.5</ele>
        <time>2015-12-22T11:10:04.376Z</time>
      </trkpt>
      <trkpt lat="46.00357" lon="5.0047">
        <ele>272</ele>
        <time>2015-12-22T11:10:05.357Z</time>
      </trkpt>
      <trkpt lat="46.00357" lon="5.0046">
        <ele>271.600006104</ele>
        <time>2015-12-22T11:10:06.381Z</time>
      </trkpt>
      <trkpt lat="46.00358" lon="5.0045">
        <ele>271.5</ele>
        <time>2015-12-22T11:10:07.359Z</time>
      </trkpt>
      <trkpt lat="46.00358" lon="5.00441">
        <ele>271.5</ele>
        <time>2015-12-22T11:10:08.383Z</time>
      </trkpt>
      <trkpt lat="46.00359" lon="5.00431">
        <ele>271.200012207</ele>
        <time>2015-12-22T11:10:09.357Z</time>
      </trkpt>
      <trkpt lat="46.00359" lon="5.00422">
        <ele>271.100006104</ele>
        <time>2015-12-22T11:10:10.382Z</time>
      </trkpt>
      <trkpt lat="46.00359" lon="5.00412">
        <ele>271.399993896</ele>
        <time>2015-12-22T11:10:11.357Z</time>
      </trkpt>
      <trkpt lat="46.0036" lon="5.00402">
        <ele>271.399993896</ele>
        <time>2015-12-22T11:10:12.376Z</time>
      </trkpt>
      <trkpt lat="46.00361" lon="5.00393">
        <ele>271.100006104</ele>
        <time>2015-12-22T11:10:13.36Z</time>
      </trkpt>
      <trkpt lat="46.00361" lon="5.00383">
        <ele>271</ele>
        <time>2015-12-22T11:10:14.524Z</time>
      </trkpt>
      <trkpt lat="46.00361" lon="5.00373">
        <ele>270.799987793</ele>
        <time>2015-12-22T11:10:15.357Z</time>
      </trkpt>
      <trkpt lat="46.00362" lon="5.00362">
        <ele>270.799987793</ele>
        <time>2015-12-22T11:10:16.377Z</time>
      </trkpt>
      <trkpt lat="46.00362" lon="5.00352">
        <ele>270.799987793</ele>
        <time>2015-12-22T11:10:17.356Z</time>
      </trkpt>
      <trkpt lat="46.00362" lon="5.00342">
        <ele>270.600006104</ele>
        <time>2015-12-22T11:10:18.375Z</time>
      </trkpt>
      <trkpt lat="46.00363" lon="5.00331">
        <ele>270.600006104</ele>
        <time>2015-12-22T11:10:19.359Z</time>
      </trkpt>
      <trkpt lat="46.00363" lon="5.0032">
        <ele>270.700012207</ele>
        <time>2015-12-22T11:10:20.419Z</time>
      </trkpt>
      <trkpt lat="46.00364" lon="5.00309">
        <ele>270.600006104</ele>
        <time>2015-12-22T11:10:21.395Z</time>
      </trkpt>
      <trkpt lat="46.00365" lon="5.00298">
        <ele>270.899993896</ele>
        <time>2015-12-22T11:10:22.376Z</time>
      </trkpt>
      <trkpt lat="46.00366" lon="5.00288">
        <ele>271.399993896</ele>
        <time>2015-12-22T11:10:23.358Z</time>
      </trkpt>
      <trkpt lat="46.00367" lon="5.00277">
        <ele>271.600006104</ele>
        <time>2015-12-22T11:10:24.375Z</time>
      </trkpt>
      <trkpt lat="46.00367" lon="5.00266">
        <ele>271.899993896</ele>
        <time>2015-12-22T11:10:25.383Z</time>
      </trkpt>
      <trkpt lat="46.00367" lon="5.00256">
        <ele>272.100006104</ele>
        <time>2015-12-22T11:10:26.377Z</time>
      </trkpt>
      <trkpt lat="46.00368" lon="5.00246">
        <ele>272.299987793</ele>
        <time>2015-12-22T11:10:27.359Z</time>
      </trkpt>
      <trkpt lat="46.00369" lon="5.00236">
        <ele>272.600006104</ele>
        <time>2015-12-22T11:10:28.377Z</time>
      </trkpt>
      <trkpt lat="46.0037" lon="5.00226">
        <ele>272.700012207</ele>
        <time>2015-12-22T11:10:29.357Z</time>
      </trkpt>
      <trkpt lat="46.00372" lon="5.00217">
        <ele>272.600006104</ele>
        <time>2015-12-22T11:10:30.4Z</time>
      </trkpt>
      <trkpt lat="46.00373" lon="5.00207">
        <ele>272.600006104</ele>
        <time>2015-12-22T11:10:31.359Z</time>
      </trkpt>
      <trkpt lat="46.00375" lon="5.00198">
        <ele>272.5</ele>
        <time>2015-12-22T11:10:32.375Z</time>
      </trkpt>
      <trkpt lat="46.00377" lon="5.00189">
        <ele>272.600006104</ele>
        <time>2015-12-22T11:10:33.358Z</time>
      </trkpt>
      <trkpt lat="46.0038" lon="5.00181">
        <ele>272.5</ele>
        <time>2015-12-22T11:10:34.375Z</time>
      </trkpt>
      <trkpt lat="46.00382" lon="5.00172">
        <ele>272.5</ele>
        <time>2015-12-22T11:10:35.36Z</time>
      </trkpt>
      <trkpt lat="46.00384" lon="5.00164">
        <ele>273.100006104</ele>
        <time>2015-12-22T11:10:36.376Z</time>
      </trkpt>
      <trkpt lat="46.00386" lon="5.00156">
        <ele>273.100006104</ele>
        <time>2015-12-22T11:10:37.36Z</time>
      </trkpt>
      <trkpt lat="46.00389" lon="5.00148">
        <ele>273.200012207</ele>
        <time>2015-12-22T11:10:38.377Z</time>
      </trkpt>
      <trkpt lat="46.00391" lon="5.00141">
        <ele>273.299987793</ele>
        <time>2015-12-22T11:10:39.357Z</time>
      </trkpt>
      <trkpt lat="46.00393" lon="5.00134">
        <ele>273.399993896</ele>
        <time>2015-12-22T11:10:40.375Z</time>
      </trkpt>
      <trkpt lat="46.00394" lon="5.00128">
        <ele>273</ele>
        <time>2015-12-22T11:10:41.357Z</time>
      </trkpt>
      <trkpt lat="46.00394" lon="5.00118">
        <ele>273.5</ele>
        <time>2015-12-22T11:10:43.423Z</time>
      </trkpt>
      <trkpt lat="46.00391" lon="5.00114">
        <ele>273.700012207</ele>
        <time>2015-12-22T11:10:44.358Z</time>
      </trkpt>
      <trkpt lat="46.00385" lon="5.00113">
        <ele>274.600006104</ele>
        <time>2015-12-22T11:10:46.39Z</time>
      </trkpt>
      <trkpt lat="46.00381" lon="5.00114">
        <ele>274.899993896</ele>
        <time>2015-12-22T11:10:47.356Z</time>
      </trkpt>
      <trkpt lat="46.00374" lon="5.00114">
        <ele>275.5</ele>
        <time>2015-12-22T11:10:49.381Z</time>
      </trkpt>
      <trkpt lat="46.0037" lon="5.00113">
        <ele>276.100006104</ele>
        <time>2015-12-22T11:10:50.472Z</time>
      </trkpt>
      <trkpt lat="46.00362" lon="5.00112">
        <ele>277.399993896</ele>
        <time>2015-12-22T11:10:52.375Z</time>
      </trkpt>
      <trkpt lat="46.00357" lon="5.00111">
        <ele>278</ele>
        <time>2015-12-22T11:10:53.357Z</time>
      </trkpt>
      <trkpt lat="46.00353" lon="5.00111">
        <ele>278.399993896</ele>
        <time>2015-12-22T11:10:54.375Z</time>
      </trkpt>
      <trkpt lat="46.00348" lon="5.00111">
        <ele>278.600006104</ele>
        <time>2015-12-22T11:10:55.36Z</time>
      </trkpt>
      <trkpt lat="46.00344" lon="5.00111">
        <ele>278.799987793</ele>
        <time>2015-12-22T11:10:56.375Z</time>
      </trkpt>
      <trkpt lat="46.00339" lon="5.00111">
        <ele>278.700012207</ele>
        <time>2015-12-22T11:10:57.357Z</time>
      </trkpt>
      <trkpt lat="46.00334" lon="5.00111">
        <ele>278.799987793</ele>
        <time>2015-12-22T11:10:58.375Z</time>
      </trkpt>
      <trkpt lat="46.00329" lon="5.0011">
        <ele>278.700012207</ele>
        <time>2015-12-22T11:10:59.358Z</time>
      </trkpt>
      <trkpt lat="46.00325" lon="5.0011">
        <ele>279.200012207</ele>
        <time>2015-12-22T11:11:00.377Z</time>
      </trkpt>
      <trkpt lat="46.0032" lon="5.00109">
        <ele>279.799987793</ele>
        <time>2015-12-22T11:11:01.361Z</time>
      </trkpt>
      <trkpt lat="46.00316" lon="5.00108">
        <ele>280.5</ele>
        <time>2015-12-22T11:11:02.38Z</time>
      </trkpt>
      <trkpt lat="46.00311" lon="5.00107">
        <ele>280.5</ele>
        <time>2015-12-22T11:11:03.357Z</time>
      </trkpt>
      <trkpt lat="46.00306" lon="5.00107">
        <ele>280.700012207</ele>
        <time>2015-12-22T11:11:04.375Z</time>
      </trkpt>
      <trkpt lat="46.00302" lon="5.00106">
        <ele>281.100006104</ele>
        <time>2015-12-22T11:11:05.357Z</time>
      </trkpt>
      <trkpt lat="46.00297" lon="5.00106">
        <ele>281.600006104</ele>
        <time>2015-12-22T11:11:06.375Z</time>
      </trkpt>
      <trkpt lat="46.00292" lon="5.00105">
        <ele>281.799987793</ele>
        <time>2015-12-22T11:11:07.36Z</time>
      </trkpt>
      <trkpt lat="46.00287" lon="5.00105">
        <ele>281.799987793</ele>
        <time>2015-12-22T11:11:08.376Z</time>
      </trkpt>
      <trkpt lat="46.00282" lon="5.00104">
        <ele>281.899993896</ele>
        <time>2015-12-22T11:11:09.357Z</time>
      </trkpt>
      <trkpt lat="46.00277" lon="5.00103">
        <ele>282</ele>
        <time>2015-12-22T11:11:10.395Z</time>
      </trkpt>
      <trkpt lat="46.00272" lon="5.00103">
        <ele>281.799987793</ele>
        <time>2015-12-22T11:11:11.356Z</time>
      </trkpt>
      <trkpt lat="46.00266" lon="5.00103">
        <ele>282.200012207</ele>
        <time>2015-12-22T11:11:12.519Z</time>
      </trkpt>
      <trkpt lat="46.00261" lon="5.00103">
        <ele>282</ele>
        <time>2015-12-22T11:11:13.36Z</time>
      </trkpt>
      <trkpt lat="46.00256" lon="5.00103">
        <ele>282.100006104</ele>
        <time>2015-12-22T11:11:14.376Z</time>
      </trkpt>
      <trkpt lat="46.0025" lon="5.00102">
        <ele>282.399993896</ele>
        <time>2015-12-22T11:11:15.357Z</time>
      </trkpt>
      <trkpt lat="46.00245" lon="5.00101">
        <ele>282.5</ele>
        <time>2015-12-22T11:11:16.376Z</time>
      </trkpt>
      <trkpt lat="46.00239" lon="5.001">
        <ele>282.600006104</ele>
        <time>2015-12-22T11:11:17.356Z</time>
      </trkpt>
      <trkpt lat="46.00233" lon="5.001">
        <ele>282.799987793</ele>
        <time>2015-12-22T11:11:18.375Z</time>
      </trkpt>
      <trkpt lat="46.00227" lon="5.00099">
        <ele>282.799987793</ele>
        <time>2015-12-22T11:11:19.359Z</time>
      </trkpt>
      <trkpt lat="46.00222" lon="5.00097">
        <ele>283.100006104</ele>
        <time>2015-12-22T11:11:20.376Z</time>
      </trkpt>
      <trkpt lat="46.00217" lon="5.00096">
        <ele>283.100006104</ele>
        <time>2015-12-22T11:11:21.356Z</time>
      </trkpt>
      <trkpt lat="46.00212" lon="5.00095">
        <ele>283.200012207</ele>
        <time>2015-12-22T11:11:22.376Z</time>
      </trkpt>
      <trkpt lat="46.00207" lon="5.00094">
        <ele>283.399993896</ele>
        <time>2015-12-22T11:11:23.373Z</time>
      </trkpt>
      <trkpt lat="46.00202" lon="5.00094">
        <ele>283.5</ele>
        <time>2015-12-22T11:11:24.377Z</time>
      </trkpt>
      <trkpt lat="46.00197" lon="5.00094">
        <ele>283.700012207</ele>
        <time>2015-12-22T11:11:25.361Z</time>
      </trkpt>
      <trkpt lat="46.00191" lon="5.00095">
        <ele>284.200012207</ele>
        <time>2015-12-22T11:11:26.376Z</time>
      </trkpt>
      <trkpt lat="46.00186" lon="5.00094">
        <ele>284.200012207</ele>
        <time>2015-12-22T11:11:27.362Z</time>
      </trkpt>
      <trkpt lat="46.00181" lon="5.00094">
        <ele>284.399993896</ele>
        <time>2015-12-22T11:11:28.395Z</time>
      </trkpt>
      <trkpt lat="46.00175" lon="5.00093">
        <ele>284.200012207</ele>
        <time>2015-12-22T11:11:29.358Z</time>
      </trkpt>
      <trkpt lat="46.0017" lon="5.00093">
        <ele>284.200012207</ele>
        <time>2015-12-22T11:11:30.376Z</time>
      </trkpt>
      <trkpt lat="46.00164" lon="5.00093">
        <ele>284.299987793</ele>
        <time>2015-12-22T11:11:31.36Z</time>
      </trkpt>
      <trkpt lat="46.0016" lon="5.00092">
        <ele>284.600006104</ele>
        <time>2015-12-22T11:11:32.383Z</time>
      </trkpt>
      <trkpt lat="46.00155" lon="5.00092">
        <ele>284.899993896</ele>
        <time>2015-12-22T11:11:33.357Z</time>
      </trkpt>
      <trkpt lat="46.0015" lon="5.00091">
        <ele>285.100006104</ele>
        <time>2015-12-22T11:11:34.375Z</time>
      </trkpt>
      <trkpt lat="46.00145" lon="5.0009">
        <ele>285.399993896</ele>
        <time>2015-12-22T11:11:35.357Z</time>
      </trkpt>
      <trkpt lat="46.00139" lon="5.00089">
        <ele>285</ele>
        <time>2015-12-22T11:11:36.375Z</time>
      </trkpt>
      <trkpt lat="46.00134" lon="5.00088">
        <ele>285</ele>
        <time>2015-12-22T11:11:37.36Z</time>
      </trkpt>
      <trkpt lat="46.00129" lon="5.00088">
        <ele>284.899993896</ele>
        <time>2015-12-22T11:11:38.376Z</time>
      </trkpt>
      <trkpt lat="46.00124" lon="5.00088">
        <ele>285</ele>
        <time>2015-12-22T11:11:39.358Z</time>
      </trkpt>
      <trkpt lat="46.00119" lon="5.00087">
        <ele>285</ele>
        <time>2015-12-22T11:11:40.376Z</time>
      </trkpt>
      <trkpt lat="46.00114" lon="5.00086">
        <ele>285.200012207</ele>
        <time>2015-12-22T11:11:41.357Z</time>
      </trkpt>
      <trkpt lat="46.00108" lon="5.00085">
        <ele>285.399993896</ele>
        <time>2015-12-22T11:11:42.375Z</time>
      </trkpt>
      <trkpt lat="46.00103" lon="5.00084">
        <ele>286</ele>
        <time>2015-12-22T11:11:43.359Z</time>
      </trkpt>
      <trkpt lat="46.00098" lon="5.00084">
        <ele>286.299987793</ele>
        <time>2015-12-22T11:11:44.375Z</time>
      </trkpt>
      <trkpt lat="46.00093" lon="5.00083">
        <ele>286.5</ele>
        <time>2015-12-22T11:11:45.357Z</time>
      </trkpt>
      <trkpt lat="46.00087" lon="5.00083">
        <ele>286.799987793</ele>
        <time>2015-12-22T11:11:46.375Z</time>
      </trkpt>
      <trkpt lat="46.00083" lon="5.00082">
        <ele>287.399993896</ele>
        <time>2015-12-22T11:11:47.358Z</time>
      </trkpt>
      <trkpt lat="46.00078" lon="5.00081">
        <ele>288</ele>
        <time>2015-12-22T11:11:48.376Z</time>
      </trkpt>
      <trkpt lat="46.00072" lon="5.00081">
        <ele>288.5</ele>
        <time>2015-12-22T11:11:49.381Z</time>
      </trkpt>
      <trkpt lat="46.00067" lon="5.0008">
        <ele>289</ele>
        <time>2015-12-22T11:11:50.375Z</time>
      </trkpt>
      <trkpt lat="46.00062" lon="5.00079">
        <ele>289.299987793</ele>
        <time>2015-12-22T11:11:51.357Z</time>
      </trkpt>
      <trkpt lat="46.00056" lon="5.00079">
        <ele>289.5</ele>
        <time>2015-12-22T11:11:52.376Z</time>
      </trkpt>
      <trkpt lat="46.00051" lon="5.0008">
        <ele>289.700012207</ele>
        <time>2015-12-22T11:11:53.361Z</time>
      </trkpt>
      <trkpt lat="46.00046" lon="5.00079">
        <ele>290</ele>
        <time>2015-12-22T11:11:54.386Z</time>
      </trkpt>
      <trkpt lat="46.0004" lon="5.00078">
        <ele>290.200012207</ele>
        <time>2015-12-22T11:11:55.36Z</time>
      </trkpt>
      <trkpt lat="46.00035" lon="5.00077">
        <ele>290.399993896</ele>
        <time>2015-12-22T11:11:56.419Z</time>
      </trkpt>
      <trkpt lat="46.0003" lon="5.00076">
        <ele>290.700012207</ele>
        <time>2015-12-22T11:11:57.358Z</time>
      </trkpt>
      <trkpt lat="46.00025" lon="5.00075">
        <ele>291.200012207</ele>
        <time>2015-12-22T11:11:58.499Z</time>
      </trkpt>
      <trkpt lat="46.00021" lon="5.00074">
        <ele>291.399993896</ele>
        <time>2015-12-22T11:11:59.358Z</time>
      </trkpt>
      <trkpt lat="46.00013" lon="5.0007">
        <ele>292.200012207</ele>
        <time>2015-12-22T11:12:01.378Z</time>
      </trkpt>
      <trkpt lat="46.00009" lon="5.00067">
        <ele>292.5</ele>
        <time>2015-12-22T11:12:02.356Z</time>
      </trkpt>
      <trkpt lat="46.00001" lon="5.0006">
        <ele>293.100006104</ele>
        <time>2015-12-22T11:12:04.375Z</time>
      </trkpt>
      <trkpt lat="45.99997" lon="5.00056">
        <ele>293.399993896</ele>
        <time>2015-12-22T11:12:05.357Z</time>
      </trkpt>
      <trkpt lat="45.9999" lon="5.00048">
        <ele>294</ele>
        <time>2015-12-22T11:12:07.378Z</time>
      </trkpt>
      <trkpt lat="45.99987" lon="5.00044">
        <ele>294.399993896</ele>
        <time>2015-12-22T11:12:08.358Z</time>
      </trkpt>
      <trkpt lat="45.99983" lon="5.0004">
        <ele>294.200012207</ele>
        <time>2015-12-22T11:12:09.68Z</time>
      </trkpt>
      <trkpt lat="45.99979" lon="5.00036">
        <ele>294.399993896</ele>
        <time>2015-12-22T11:12:10.356Z</time>
      </trkpt>
      <trkpt lat="45.99973" lon="5.00027">
        <ele>295</ele>
        <time>2015-12-22T11:12:12.377Z</time>
      </trkpt>
      <trkpt lat="45.99969" lon="5.00023">
        <ele>295.100006104</ele>
        <time>2015-12-22T11:12:13.363Z</time>
      </trkpt>
      <trkpt lat="45.99961" lon="5.00016">
        <ele>295.700012207</ele>
        <time>2015-12-22T11:12:15.379Z</time>
      </trkpt>
      <trkpt lat="45.99958" lon="5.00013">
        <ele>295.799987793</ele>
        <time>2015-12-22T11:12:16.36Z</time>
      </trkpt>
      <trkpt lat="45.99952" lon="5.00006">
        <ele>296.200012207</ele>
        <time>2015-12-22T11:12:18.571Z</time>
      </trkpt>
      <trkpt lat="45.99948" lon="5.00001">
        <ele>296.299987793</ele>
        <time>2015-12-22T11:12:19.366Z</time>
      </trkpt>
      <trkpt lat="45.99944" lon="4.99997">
        <ele>295.799987793</ele>
        <time>2015-12-22T11:12:20.396Z</time>
      </trkpt>
      <trkpt lat="45.99941" lon="4.99992">
        <ele>295.5</ele>
        <time>2015-12-22T11:12:21.357Z</time>
      </trkpt>
      <trkpt lat="45.99937" lon="4.99985">
        <ele>295.299987793</ele>
        <time>2015-12-22T11:12:22.375Z</time>
      </trkpt>
      <trkpt lat="45.99934" lon="4.9998">
        <ele>295</ele>
        <time>2015-12-22T11:12:23.367Z</time>
      </trkpt>
      <trkpt lat="45.9993" lon="4.99976">
        <ele>295.100006104</ele>
        <time>2015-12-22T11:12:24.375Z</time>
      </trkpt>
      <trkpt lat="45.99927" lon="4.99971">
        <ele>295.200012207</ele>
        <time>2015-12-22T11:12:25.359Z</time>
      </trkpt>
      <trkpt lat="45.99923" lon="4.99966">
        <ele>295.100006104</ele>
        <time>2015-12-22T11:12:26.375Z</time>
      </trkpt>
      <trkpt lat="45.99919" lon="4.99962">
        <ele>294.799987793</ele>
        <time>2015-12-22T11:12:27.357Z</time>
      </trkpt>
      <trkpt lat="45.99916" lon="4.99957">
        <ele>294.899993896</ele>
        <time>2015-12-22T11:12:28.381Z</time>
      </trkpt>
      <trkpt lat="45.99911" lon="4.99952">
        <ele>294.700012207</ele>
        <time>2015-12-22T11:12:29.356Z</time>
      </trkpt>
      <trkpt lat="45.99907" lon="4.99948">
        <ele>294.799987793</ele>
        <time>2015-12-22T11:12:30.375Z</time>
      </trkpt>
      <trkpt lat="45.99903" lon="4.99943">
        <ele>295</ele>
        <time>2015-12-22T11:12:31.361Z</time>
      </trkpt>
      <trkpt lat="45.999" lon="4.99938">
        <ele>295.200012207</ele>
        <time>2015-12-22T11:12:32.375Z</time>
      </trkpt>
      <trkpt lat="45.99895" lon="4.99933">
        <ele>295.200012207</ele>
        <time>2015-12-22T11:12:33.357Z</time>
      </trkpt>
      <trkpt lat="45.99891" lon="4.99928">
        <ele>295.200012207</ele>
        <time>2015-12-22T11:12:34.377Z</time>
      </trkpt>
      <trkpt lat="45.99887" lon="4.99923">
        <ele>295.399993896</ele>
        <time>2015-12-22T11:12:35.358Z</time>
      </trkpt>
      <trkpt lat="45.99883" lon="4.99918">
        <ele>295.399993896</ele>
        <time>2015-12-22T11:12:36.39Z</time>
      </trkpt>
      <trkpt lat="45.99879" lon="4.99914">
        <ele>295.299987793</ele>
        <time>2015-12-22T11:12:37.359Z</time>
      </trkpt>
      <trkpt lat="45.99876" lon="4.99909">
        <ele>295.299987793</ele>
        <time>2015-12-22T11:12:38.377Z</time>
      </trkpt>
      <trkpt lat="45.99871" lon="4.99904">
        <ele>295.399993896</ele>
        <time>2015-12-22T11:12:39.381Z</time>
      </trkpt>
      <trkpt lat="45.99867" lon="4.99899">
        <ele>295.399993896</ele>
        <time>2015-12-22T11:12:40.376Z</time>
      </trkpt>
      <trkpt lat="45.99863" lon="4.99894">
        <ele>295.700012207</ele>
        <time>2015-12-22T11:12:41.363Z</time>
      </trkpt>
      <trkpt lat="45.99859" lon="4.99889">
        <ele>295.799987793</ele>
        <time>2015-12-22T11:12:42.542Z</time>
      </trkpt>
      <trkpt lat="45.99855" lon="4.99884">
        <ele>296</ele>
        <time>2015-12-22T11:12:43.368Z</time>
      </trkpt>
      <trkpt lat="45.9985" lon="4.99878">
        <ele>295.899993896</ele>
        <time>2015-12-22T11:12:44.385Z</time>
      </trkpt>
      <trkpt lat="45.99846" lon="4.99873">
        <ele>295.600006104</ele>
        <time>2015-12-22T11:12:45.363Z</time>
      </trkpt>
      <trkpt lat="45.99841" lon="4.99868">
        <ele>295.600006104</ele>
        <time>2015-12-22T11:12:46.38Z</time>
      </trkpt>
      <trkpt lat="45.99837" lon="4.99862">
        <ele>295.600006104</ele>
        <time>2015-12-22T11:12:47.358Z</time>
      </trkpt>
      <trkpt lat="45.99833" lon="4.99857">
        <ele>295.5</ele>
        <time>2015-12-22T11:12:48.376Z</time>
      </trkpt>
      <trkpt lat="45.99828" lon="4.99851">
        <ele>295.5</ele>
        <time>2015-12-22T11:12:49.363Z</time>
      </trkpt>
      <trkpt lat="45.99823" lon="4.99846">
        <ele>295.200012207</ele>
        <time>2015-12-22T11:12:50.375Z</time>
      </trkpt>
      <trkpt lat="45.99818" lon="4.9984">
        <ele>294.799987793</ele>
        <time>2015-12-22T11:12:51.357Z</time>
      </trkpt>
      <trkpt lat="45.99814" lon="4.99834">
        <ele>294.399993896</ele>
        <time>2015-12-22T11:12:52.389Z</time>
      </trkpt>
      <trkpt lat="45.99808" lon="4.9983">
        <ele>294.299987793</ele>
        <time>2015-12-22T11:12:53.356Z</time>
      </trkpt>
      <trkpt lat="45.99803" lon="4.99824">
        <ele>293.700012207</ele>
        <time>2015-12-22T11:12:54.378Z</time>
      </trkpt>
      <trkpt lat="45.99799" lon="4.99818">
        <ele>293.399993896</ele>
        <time>2015-12-22T11:12:55.36Z</time>
      </trkpt>
      <trkpt lat="45.99794" lon="4.99812">
        <ele>292.600006104</ele>
        <time>2015-12-22T11:12:56.378Z</time>
      </trkpt>
      <trkpt lat="45.99789" lon="4.99807">
        <ele>292</ele>
        <time>2015-12-22T11:12:57.357Z</time>
      </trkpt>
      <trkpt lat="45.99785" lon="4.99801">
        <ele>291.899993896</ele>
        <time>2015-12-22T11:12:58.376Z</time>
      </trkpt>
      <trkpt lat="45.9978" lon="4.99796">
        <ele>291.5</ele>
        <time>2015-12-22T11:12:59.357Z</time>
      </trkpt>
      <trkpt lat="45.99775" lon="4.99791">
        <ele>291.5</ele>
        <time>2015-12-22T11:13:00.376Z</time>
      </trkpt>
      <trkpt lat="45.9977" lon="4.99785">
        <ele>291.5</ele>
        <time>2015-12-22T11:13:01.359Z</time>
      </trkpt>
      <trkpt lat="45.99766" lon="4.9978">
        <ele>291.100006104</ele>
        <time>2015-12-22T11:13:02.389Z</time>
      </trkpt>
      <trkpt lat="45.99762" lon="4.99774">
        <ele>291</ele>
        <time>2015-12-22T11:13:03.357Z</time>
      </trkpt>
      <trkpt lat="45.99757" lon="4.99769">
        <ele>290.399993896</ele>
        <time>2015-12-22T11:13:04.376Z</time>
      </trkpt>
      <trkpt lat="45.99752" lon="4.99764">
        <ele>289.600006104</ele>
        <time>2015-12-22T11:13:05.356Z</time>
      </trkpt>
      <trkpt lat="45.99747" lon="4.99759">
        <ele>289.200012207</ele>
        <time>2015-12-22T11:13:06.376Z</time>
      </trkpt>
      <trkpt lat="45.99743" lon="4.99754">
        <ele>288.700012207</ele>
        <time>2015-12-22T11:13:07.36Z</time>
      </trkpt>
      <trkpt lat="45.99739" lon="4.99749">
        <ele>288.5</ele>
        <time>2015-12-22T11:13:08.376Z</time>
      </trkpt>
      <trkpt lat="45.99734" lon="4.99744">
        <ele>288.100006104</ele>
        <time>2015-12-22T11:13:09.357Z</time>
      </trkpt>
      <trkpt lat="45.9973" lon="4.99739">
        <ele>288</ele>
        <time>2015-12-22T11:13:10.374Z</time>
      </trkpt>
      <trkpt lat="45.99725" lon="4.99734">
        <ele>288</ele>
        <time>2015-12-22T11:13:11.359Z</time>
      </trkpt>
      <trkpt lat="45.99721" lon="4.99728">
        <ele>288.5</ele>
        <time>2015-12-22T11:13:12.376Z</time>
      </trkpt>
      <trkpt lat="45.99716" lon="4.99723">
        <ele>287.700012207</ele>
        <time>2015-12-22T11:13:13.374Z</time>
      </trkpt>
      <trkpt lat="45.99712" lon="4.99717">
        <ele>287</ele>
        <time>2015-12-22T11:13:14.375Z</time>
      </trkpt>
      <trkpt lat="45.99707" lon="4.99712">
        <ele>286.100006104</ele>
        <time>2015-12-22T11:13:15.358Z</time>
      </trkpt>
      <trkpt lat="45.99702" lon="4.99707">
        <ele>285.799987793</ele>
        <time>2015-12-22T11:13:16.41Z</time>
      </trkpt>
      <trkpt lat="45.99697" lon="4.99702">
        <ele>285.700012207</ele>
        <time>2015-12-22T11:13:17.356Z</time>
      </trkpt>
      <trkpt lat="45.99693" lon="4.99698">
        <ele>285.5</ele>
        <time>2015-12-22T11:13:18.388Z</time>
      </trkpt>
      <trkpt lat="45.99689" lon="4.99693">
        <ele>285.399993896</ele>
        <time>2015-12-22T11:13:19.359Z</time>
      </trkpt>
      <trkpt lat="45.99686" lon="4.99689">
        <ele>285.600006104</ele>
        <time>2015-12-22T11:13:20.375Z</time>
      </trkpt>
      <trkpt lat="45.99682" lon="4.99684">
        <ele>285.399993896</ele>
        <time>2015-12-22T11:13:21.358Z</time>
      </trkpt>
      <trkpt lat="45.99677" lon="4.99678">
        <ele>284.799987793</ele>
        <time>2015-12-22T11:13:22.375Z</time>
      </trkpt>
      <trkpt lat="45.99673" lon="4.99673">
        <ele>284.799987793</ele>
        <time>2015-12-22T11:13:23.357Z</time>
      </trkpt>
      <trkpt lat="45.99669" lon="4.99668">
        <ele>284.100006104</ele>
        <time>2015-12-22T11:13:24.458Z</time>
      </trkpt>
      <trkpt lat="45.99665" lon="4.99663">
        <ele>284.200012207</ele>
        <time>2015-12-22T11:13:25.359Z</time>
      </trkpt>
      <trkpt lat="45.99661" lon="4.99658">
        <ele>283.799987793</ele>
        <time>2015-12-22T11:13:26.375Z</time>
      </trkpt>
      <trkpt lat="45.99657" lon="4.99653">
        <ele>284.100006104</ele>
        <time>2015-12-22T11:13:27.358Z</time>
      </trkpt>
      <trkpt lat="45.99652" lon="4.99648">
        <ele>283.899993896</ele>
        <time>2015-12-22T11:13:28.377Z</time>
      </trkpt>
      <trkpt lat="45.99648" lon="4.99643">
        <ele>283.600006104</ele>
        <time>2015-12-22T11:13:29.356Z</time>
      </trkpt>
      <trkpt lat="45.99644" lon="4.99638">
        <ele>283.399993896</ele>
        <time>2015-12-22T11:13:30.375Z</time>
      </trkpt>
      <trkpt lat="45.99639" lon="4.99632">
        <ele>283.5</ele>
        <time>2015-12-22T11:13:31.359Z</time>
      </trkpt>
      <trkpt lat="45.99635" lon="4.99627">
        <ele>283.799987793</ele>
        <time>2015-12-22T11:13:32.375Z</time>
      </trkpt>
      <trkpt lat="45.99631" lon="4.99622">
        <ele>283.799987793</ele>
        <time>2015-12-22T11:13:33.357Z</time>
      </trkpt>
      <trkpt lat="45.99626" lon="4.99617">
        <ele>284.200012207</ele>
        <time>2015-12-22T11:13:34.403Z</time>
      </trkpt>
      <trkpt lat="45.99623" lon="4.99612">
        <ele>284.5</ele>
        <time>2015-12-22T11:13:35.356Z</time>
      </trkpt>
      <trkpt lat="45.99618" lon="4.99607">
        <ele>284.200012207</ele>
        <time>2015-12-22T11:13:36.376Z</time>
      </trkpt>
      <trkpt lat="45.99614" lon="4.99603">
        <ele>284.399993896</ele>
        <time>2015-12-22T11:13:37.361Z</time>
      </trkpt>
      <trkpt lat="45.9961" lon="4.99597">
        <ele>284.299987793</ele>
        <time>2015-12-22T11:13:38.417Z</time>
      </trkpt>
      <trkpt lat="45.99607" lon="4.99593">
        <ele>284.399993896</ele>
        <time>2015-12-22T11:13:39.358Z</time>
      </trkpt>
      <trkpt lat="45.99602" lon="4.99588">
        <ele>284.100006104</ele>
        <time>2015-12-22T11:13:40.375Z</time>
      </trkpt>
      <trkpt lat="45.99598" lon="4.99583">
        <ele>283.100006104</ele>
        <time>2015-12-22T11:13:41.356Z</time>
      </trkpt>
      <trkpt lat="45.99594" lon="4.99579">
        <ele>283.399993896</ele>
        <time>2015-12-22T11:13:42.375Z</time>
      </trkpt>
      <trkpt lat="45.9959" lon="4.99574">
        <ele>283.299987793</ele>
        <time>2015-12-22T11:13:43.359Z</time>
      </trkpt>
      <trkpt lat="45.99586" lon="4.99569">
        <ele>283.700012207</ele>
        <time>2015-12-22T11:13:44.398Z</time>
      </trkpt>
      <trkpt lat="45.99582" lon="4.99564">
        <ele>283.200012207</ele>
        <time>2015-12-22T11:13:45.404Z</time>
      </trkpt>
      <trkpt lat="45.99578" lon="4.99559">
        <ele>283.5</ele>
        <time>2015-12-22T11:13:46.375Z</time>
      </trkpt>
      <trkpt lat="45.99574" lon="4.99553">
        <ele>283.5</ele>
        <time>2015-12-22T11:13:47.356Z</time>
      </trkpt>
      <trkpt lat="45.99569" lon="4.99548">
        <ele>283.600006104</ele>
        <time>2015-12-22T11:13:48.377Z</time>
      </trkpt>
      <trkpt lat="45.99565" lon="4.99543">
        <ele>283.600006104</ele>
        <time>2015-12-22T11:13:49.362Z</time>
      </trkpt>
      <trkpt lat="45.99561" lon="4.99538">
        <ele>283.700012207</ele>
        <time>2015-12-22T11:13:50.375Z</time>
      </trkpt>
      <trkpt lat="45.99557" lon="4.99533">
        <ele>283.5</ele>
        <time>2015-12-22T11:13:51.357Z</time>
      </trkpt>
      <trkpt lat="45.99552" lon="4.99529">
        <ele>283.200012207</ele>
        <time>2015-12-22T11:13:52.375Z</time>
      </trkpt>
      <trkpt lat="45.99548" lon="4.99524">
        <ele>283.600006104</ele>
        <time>2015-12-22T11:13:53.356Z</time>
      </trkpt>
      <trkpt lat="45.99544" lon="4.99519">
        <ele>283.600006104</ele>
        <time>2015-12-22T11:13:54.388Z</time>
      </trkpt>
      <trkpt lat="45.9954" lon="4.99515">
        <ele>283.5</ele>
        <time>2015-12-22T11:13:55.359Z</time>
      </trkpt>
      <trkpt lat="45.99536" lon="4.9951">
        <ele>283</ele>
        <time>2015-12-22T11:13:56.374Z</time>
      </trkpt>
      <trkpt lat="45.99532" lon="4.99505">
        <ele>282.899993896</ele>
        <time>2015-12-22T11:13:57.358Z</time>
      </trkpt>
      <trkpt lat="45.99528" lon="4.995">
        <ele>282.600006104</ele>
        <time>2015-12-22T11:13:58.382Z</time>
      </trkpt>
      <trkpt lat="45.99524" lon="4.99495">
        <ele>282.899993896</ele>
        <time>2015-12-22T11:13:59.357Z</time>
      </trkpt>
      <trkpt lat="45.9952" lon="4.9949">
        <ele>283</ele>
        <time>2015-12-22T11:14:00.39Z</time>
      </trkpt>
      <trkpt lat="45.99516" lon="4.99485">
        <ele>283.299987793</ele>
        <time>2015-12-22T11:14:01.36Z</time>
      </trkpt>
      <trkpt lat="45.99512" lon="4.9948">
        <ele>282.799987793</ele>
        <time>2015-12-22T11:14:02.376Z</time>
      </trkpt>
      <trkpt lat="45.99508" lon="4.99475">
        <ele>282.899993896</ele>
        <time>2015-12-22T11:14:03.36Z</time>
      </trkpt>
      <trkpt lat="45.99504" lon="4.9947">
        <ele>283</ele>
        <time>2015-12-22T11:14:04.375Z</time>
      </trkpt>
      <trkpt lat="45.995" lon="4.99465">
        <ele>283.200012207</ele>
        <time>2015-12-22T11:14:05.356Z</time>
      </trkpt>
      <trkpt lat="45.99496" lon="4.99461">
        <ele>283.299987793</ele>
        <time>2015-12-22T11:14:06.374Z</time>
      </trkpt>
      <trkpt lat="45.99492" lon="4.99456">
        <ele>283.700012207</ele>
        <time>2015-12-22T11:14:07.36Z</time>
      </trkpt>
      <trkpt lat="45.99488" lon="4.99452">
        <ele>284.100006104</ele>
        <time>2015-12-22T11:14:08.375Z</time>
      </trkpt>
      <trkpt lat="45.99483" lon="4.99447">
        <ele>284.600006104</ele>
        <time>2015-12-22T11:14:09.38Z</time>
      </trkpt>
      <trkpt lat="45.99479" lon="4.99443">
        <ele>285</ele>
        <time>2015-12-22T11:14:10.419Z</time>
      </trkpt>
      <trkpt lat="45.99474" lon="4.99439">
        <ele>285.200012207</ele>
        <time>2015-12-22T11:14:11.407Z</time>
      </trkpt>
      <trkpt lat="45.9947" lon="4.99435">
        <ele>285.700012207</ele>
        <time>2015-12-22T11:14:12.375Z</time>
      </trkpt>
      <trkpt lat="45.99465" lon="4.99431">
        <ele>286</ele>
        <time>2015-12-22T11:14:13.359Z</time>
      </trkpt>
      <trkpt lat="45.9946" lon="4.99428">
        <ele>286.100006104</ele>
        <time>2015-12-22T11:14:14.38Z</time>
      </trkpt>
      <trkpt lat="45.99455" lon="4.99424">
        <ele>286.299987793</ele>
        <time>2015-12-22T11:14:15.357Z</time>
      </trkpt>
      <trkpt lat="45.9945" lon="4.99421">
        <ele>286.299987793</ele>
        <time>2015-12-22T11:14:16.375Z</time>
      </trkpt>
      <trkpt lat="45.99445" lon="4.99418">
        <ele>286.399993896</ele>
        <time>2015-12-22T11:14:17.356Z</time>
      </trkpt>
      <trkpt lat="45.99441" lon="4.99415">
        <ele>286.700012207</ele>
        <time>2015-12-22T11:14:18.375Z</time>
      </trkpt>
      <trkpt lat="45.99436" lon="4.99412">
        <ele>287</ele>
        <time>2015-12-22T11:14:19.363Z</time>
      </trkpt>
      <trkpt lat="45.99428" lon="4.99406">
        <ele>287.399993896</ele>
        <time>2015-12-22T11:14:21.378Z</time>
      </trkpt>
      <trkpt lat="45.99424" lon="4.99403">
        <ele>287.600006104</ele>
        <time>2015-12-22T11:14:22.358Z</time>
      </trkpt>
      <trkpt lat="45.9942" lon="4.994">
        <ele>287.799987793</ele>
        <time>2015-12-22T11:14:23.375Z</time>
      </trkpt>
      <trkpt lat="45.99416" lon="4.99397">
        <ele>288.200012207</ele>
        <time>2015-12-22T11:14:24.356Z</time>
      </trkpt>
      <trkpt lat="45.99411" lon="4.99394">
        <ele>288.5</ele>
        <time>2015-12-22T11:14:25.377Z</time>
      </trkpt>
      <trkpt lat="45.99407" lon="4.99391">
        <ele>288.899993896</ele>
        <time>2015-12-22T11:14:26.377Z</time>
      </trkpt>
      <trkpt lat="45.99403" lon="4.99387">
        <ele>289.5</ele>
        <time>2015-12-22T11:14:27.376Z</time>
      </trkpt>
      <trkpt lat="45.99398" lon="4.99384">
        <ele>289.899993896</ele>
        <time>2015-12-22T11:14:28.356Z</time>
      </trkpt>
      <trkpt lat="45.99393" lon="4.99381">
        <ele>290.200012207</ele>
        <time>2015-12-22T11:14:29.377Z</time>
      </trkpt>
      <trkpt lat="45.99389" lon="4.99378">
        <ele>290.399993896</ele>
        <time>2015-12-22T11:14:30.357Z</time>
      </trkpt>
      <trkpt lat="45.99384" lon="4.99374">
        <ele>290.600006104</ele>
        <time>2015-12-22T11:14:31.377Z</time>
      </trkpt>
      <trkpt lat="45.99379" lon="4.99371">
        <ele>290.5</ele>
        <time>2015-12-22T11:14:32.355Z</time>
      </trkpt>
      <trkpt lat="45.99374" lon="4.99368">
        <ele>291</ele>
        <time>2015-12-22T11:14:33.419Z</time>
      </trkpt>
      <trkpt lat="45.99369" lon="4.99364">
        <ele>291.399993896</ele>
        <time>2015-12-22T11:14:34.355Z</time>
      </trkpt>
      <trkpt lat="45.99365" lon="4.9936">
        <ele>291.700012207</ele>
        <time>2015-12-22T11:14:35.375Z</time>
      </trkpt>
      <trkpt lat="45.9936" lon="4.99357">
        <ele>291.600006104</ele>
        <time>2015-12-22T11:14:36.356Z</time>
      </trkpt>
      <trkpt lat="45.99355" lon="4.99354">
        <ele>291.600006104</ele>
        <time>2015-12-22T11:14:37.377Z</time>
      </trkpt>
      <trkpt lat="45.99351" lon="4.99352">
        <ele>292</ele>
        <time>2015-12-22T11:14:38.356Z</time>
      </trkpt>
      <trkpt lat="45.99344" lon="4.99346">
        <ele>292.5</ele>
        <time>2015-12-22T11:14:40.374Z</time>
      </trkpt>
      <trkpt lat="45.9934" lon="4.99344">
        <ele>292.899993896</ele>
        <time>2015-12-22T11:14:41.357Z</time>
      </trkpt>
      <trkpt lat="45.99333" lon="4.9934">
        <ele>293.799987793</ele>
        <time>2015-12-22T11:14:43.42Z</time>
      </trkpt>
      <trkpt lat="45.9933" lon="4.99338">
        <ele>294.100006104</ele>
        <time>2015-12-22T11:14:44.357Z</time>
      </trkpt>
      <trkpt lat="45.99329" lon="4.99337">
        <ele>294.399993896</ele>
        <time>2015-12-22T11:14:45.376Z</time>
      </trkpt>
      <trkpt lat="45.99328" lon="4.99336">
        <ele>294.600006104</ele>
        <time>2015-12-22T11:14:46.355Z</time>
      </trkpt>
      <trkpt lat="45.99326" lon="4.99331">
        <ele>292.299987793</ele>
        <time>2015-12-22T11:14:56.376Z</time>
      </trkpt>
      <trkpt lat="45.99325" lon="4.9933">
        <ele>292.200012207</ele>
        <time>2015-12-22T11:14:57.358Z</time>
      </trkpt>
      <trkpt lat="45.99318" lon="4.99322">
        <ele>290.600006104</ele>
        <time>2015-12-22T11:15:07.392Z</time>
      </trkpt>
      <trkpt lat="45.99318" lon="4.99322">
        <ele>290.5</ele>
        <time>2015-12-22T11:15:08.356Z</time>
      </trkpt>
      <trkpt lat="45.99309" lon="4.99323">
        <ele>289.200012207</ele>
        <time>2015-12-22T11:15:16.376Z</time>
      </trkpt>
      <trkpt lat="45.99308" lon="4.99323">
        <ele>289.200012207</ele>
        <time>2015-12-22T11:15:17.357Z</time>
      </trkpt>
      <trkpt lat="45.99301" lon="4.9932">
        <ele>289.200012207</ele>
        <time>2015-12-22T11:15:26.374Z</time>
      </trkpt>
      <trkpt lat="45.99299" lon="4.99319">
        <ele>289.299987793</ele>
        <time>2015-12-22T11:15:27.359Z</time>
      </trkpt>
      <trkpt lat="45.99294" lon="4.99315">
        <ele>289.200012207</ele>
        <time>2015-12-22T11:15:29.375Z</time>
      </trkpt>
      <trkpt lat="45.99291" lon="4.99312">
        <ele>289.399993896</ele>
        <time>2015-12-22T11:15:30.355Z</time>
      </trkpt>
      <trkpt lat="45.99284" lon="4.99307">
        <ele>289.600006104</ele>
        <time>2015-12-22T11:15:32.376Z</time>
      </trkpt>
      <trkpt lat="45.99279" lon="4.99305">
        <ele>289.700012207</ele>
        <time>2015-12-22T11:15:33.375Z</time>
      </trkpt>
      <trkpt lat="45.99275" lon="4.99303">
        <ele>289.899993896</ele>
        <time>2015-12-22T11:15:34.375Z</time>
      </trkpt>
      <trkpt lat="45.99271" lon="4.993">
        <ele>290.100006104</ele>
        <time>2015-12-22T11:15:35.356Z</time>
      </trkpt>
      <trkpt lat="45.99266" lon="4.99298">
        <ele>290.200012207</ele>
        <time>2015-12-22T11:15:36.374Z</time>
      </trkpt>
      <trkpt lat="45.99261" lon="4.99295">
        <ele>290.399993896</ele>
        <time>2015-12-22T11:15:37.358Z</time>
      </trkpt>
      <trkpt lat="45.99257" lon="4.99292">
        <ele>290.5</ele>
        <time>2015-12-22T11:15:38.376Z</time>
      </trkpt>
      <trkpt lat="45.99252" lon="4.99289">
        <ele>290.700012207</ele>
        <time>2015-12-22T11:15:39.38Z</time>
      </trkpt>
      <trkpt lat="45.99248" lon="4.99286">
        <ele>290.700012207</ele>
        <time>2015-12-22T11:15:40.374Z</time>
      </trkpt>
      <trkpt lat="45.99243" lon="4.99284">
        <ele>290.799987793</ele>
        <time>2015-12-22T11:15:41.356Z</time>
      </trkpt>
      <trkpt lat="45.99238" lon="4.99281">
        <ele>290.899993896</ele>
        <time>2015-12-22T11:15:42.375Z</time>
      </trkpt>
      <trkpt lat="45.99233" lon="4.99277">
        <ele>290.899993896</ele>
        <time>2015-12-22T11:15:43.36Z</time>
      </trkpt>
      <trkpt lat="45.99228" lon="4.99274">
        <ele>290.899993896</ele>
        <time>2015-12-22T11:15:44.374Z</time>
      </trkpt>
      <trkpt lat="45.99223" lon="4.9927">
        <ele>290.899993896</ele>
        <time>2015-12-22T11:15:45.357Z</time>
      </trkpt>
      <trkpt lat="45.99218" lon="4.99265">
        <ele>291.100006104</ele>
        <time>2015-12-22T11:15:46.375Z</time>
      </trkpt>
      <trkpt lat="45.99214" lon="4.9926">
        <ele>291.100006104</ele>
        <time>2015-12-22T11:15:47.359Z</time>
      </trkpt>
      <trkpt lat="45.9921" lon="4.99255">
        <ele>291.299987793</ele>
        <time>2015-12-22T11:15:48.377Z</time>
      </trkpt>
      <trkpt lat="45.99206" lon="4.99249">
        <ele>291.299987793</ele>
        <time>2015-12-22T11:15:49.363Z</time>
      </trkpt>
      <trkpt lat="45.99203" lon="4.99244">
        <ele>291.200012207</ele>
        <time>2015-12-22T11:15:50.376Z</time>
      </trkpt>
      <trkpt lat="45.99199" lon="4.99238">
        <ele>290.899993896</ele>
        <time>2015-12-22T11:15:51.358Z</time>
      </trkpt>
      <trkpt lat="45.99196" lon="4.99232">
        <ele>291</ele>
        <time>2015-12-22T11:15:52.375Z</time>
      </trkpt>
      <trkpt lat="45.99192" lon="4.99226">
        <ele>291</ele>
        <time>2015-12-22T11:15:53.355Z</time>
      </trkpt>
      <trkpt lat="45.99189" lon="4.99221">
        <ele>291</ele>
        <time>2015-12-22T11:15:54.375Z</time>
      </trkpt>
      <trkpt lat="45.99186" lon="4.99215">
        <ele>291</ele>
        <time>2015-12-22T11:15:55.358Z</time>
      </trkpt>
      <trkpt lat="45.99182" lon="4.99209">
        <ele>291.100006104</ele>
        <time>2015-12-22T11:15:56.375Z</time>
      </trkpt>
      <trkpt lat="45.99179" lon="4.99204">
        <ele>291.100006104</ele>
        <time>2015-12-22T11:15:57.358Z</time>
      </trkpt>
      <trkpt lat="45.99175" lon="4.99198">
        <ele>290.899993896</ele>
        <time>2015-12-22T11:15:58.374Z</time>
      </trkpt>
      <trkpt lat="45.99171" lon="4.99193">
        <ele>290.600006104</ele>
        <time>2015-12-22T11:15:59.37Z</time>
      </trkpt>
      <trkpt lat="45.99167" lon="4.99188">
        <ele>290.5</ele>
        <time>2015-12-22T11:16:00.375Z</time>
      </trkpt>
      <trkpt lat="45.99164" lon="4.99183">
        <ele>290.600006104</ele>
        <time>2015-12-22T11:16:01.358Z</time>
      </trkpt>
      <trkpt lat="45.99161" lon="4.99177">
        <ele>290.600006104</ele>
        <time>2015-12-22T11:16:02.375Z</time>
      </trkpt>
      <trkpt lat="45.99158" lon="4.99172">
        <ele>290.700012207</ele>
        <time>2015-12-22T11:16:03.356Z</time>
      </trkpt>
      <trkpt lat="45.99154" lon="4.99167">
        <ele>290.700012207</ele>
        <time>2015-12-22T11:16:04.375Z</time>
      </trkpt>
      <trkpt lat="45.99151" lon="4.99161">
        <ele>290.799987793</ele>
        <time>2015-12-22T11:16:05.356Z</time>
      </trkpt>
      <trkpt lat="45.99148" lon="4.99156">
        <ele>291.100006104</ele>
        <time>2015-12-22T11:16:06.374Z</time>
      </trkpt>
      <trkpt lat="45.99144" lon="4.99152">
        <ele>291.299987793</ele>
        <time>2015-12-22T11:16:07.359Z</time>
      </trkpt>
      <trkpt lat="45.99139" lon="4.99148">
        <ele>291.600006104</ele>
        <time>2015-12-22T11:16:08.374Z</time>
      </trkpt>
      <trkpt lat="45.99134" lon="4.99145">
        <ele>291.799987793</ele>
        <time>2015-12-22T11:16:09.357Z</time>
      </trkpt>
      <trkpt lat="45.99129" lon="4.99143">
        <ele>291.899993896</ele>
        <time>2015-12-22T11:16:10.375Z</time>
      </trkpt>
      <trkpt lat="45.99123" lon="4.99142">
        <ele>292.100006104</ele>
        <time>2015-12-22T11:16:11.378Z</time>
      </trkpt>
      <trkpt lat="45.99117" lon="4.99141">
        <ele>292.100006104</ele>
        <time>2015-12-22T11:16:12.431Z</time>
      </trkpt>
      <trkpt lat="45.99112" lon="4.99141">
        <ele>292.299987793</ele>
        <time>2015-12-22T11:16:13.366Z</time>
      </trkpt>
      <trkpt lat="45.99106" lon="4.99141">
        <ele>292.600006104</ele>
        <time>2015-12-22T11:16:14.417Z</time>
      </trkpt>
      <trkpt lat="45.991" lon="4.99142">
        <ele>293.200012207</ele>
        <time>2015-12-22T11:16:15.362Z</time>
      </trkpt>
      <trkpt lat="45.99095" lon="4.99143">
        <ele>293</ele>
        <time>2015-12-22T11:16:16.389Z</time>
      </trkpt>
      <trkpt lat="45.9909" lon="4.99144">
        <ele>293.399993896</ele>
        <time>2015-12-22T11:16:17.362Z</time>
      </trkpt>
      <trkpt lat="45.99084" lon="4.99145">
        <ele>293.100006104</ele>
        <time>2015-12-22T11:16:18.376Z</time>
      </trkpt>
      <trkpt lat="45.99078" lon="4.99147">
        <ele>292.899993896</ele>
        <time>2015-12-22T11:16:19.361Z</time>
      </trkpt>
      <trkpt lat="45.99073" lon="4.99148">
        <ele>292.899993896</ele>
        <time>2015-12-22T11:16:20.376Z</time>
      </trkpt>
      <trkpt lat="45.99067" lon="4.9915">
        <ele>293.299987793</ele>
        <time>2015-12-22T11:16:21.359Z</time>
      </trkpt>
      <trkpt lat="45.99062" lon="4.99151">
        <ele>293.799987793</ele>
        <time>2015-12-22T11:16:22.378Z</time>
      </trkpt>
      <trkpt lat="45.99057" lon="4.99153">
        <ele>293.5</ele>
        <time>2015-12-22T11:16:23.355Z</time>
      </trkpt>
      <trkpt lat="45.99052" lon="4.99154">
        <ele>293.799987793</ele>
        <time>2015-12-22T11:16:24.402Z</time>
      </trkpt>
      <trkpt lat="45.99047" lon="4.99155">
        <ele>294.100006104</ele>
        <time>2015-12-22T11:16:25.36Z</time>
      </trkpt>
      <trkpt lat="45.99042" lon="4.99157">
        <ele>294</ele>
        <time>2015-12-22T11:16:26.376Z</time>
      </trkpt>
      <trkpt lat="45.99037" lon="4.99159">
        <ele>294</ele>
        <time>2015-12-22T11:16:27.358Z</time>
      </trkpt>
      <trkpt lat="45.99033" lon="4.9916">
        <ele>294.100006104</ele>
        <time>2015-12-22T11:16:28.375Z</time>
      </trkpt>
      <trkpt lat="45.99028" lon="4.99161">
        <ele>294.299987793</ele>
        <time>2015-12-22T11:16:29.358Z</time>
      </trkpt>
      <trkpt lat="45.99024" lon="4.99162">
        <ele>294.5</ele>
        <time>2015-12-22T11:16:30.396Z</time>
      </trkpt>
      <trkpt lat="45.99019" lon="4.99164">
        <ele>294.799987793</ele>
        <time>2015-12-22T11:16:31.36Z</time>
      </trkpt>
      <trkpt lat="45.99014" lon="4.99165">
        <ele>294.799987793</ele>
        <time>2015-12-22T11:16:32.443Z</time>
      </trkpt>
      <trkpt lat="45.99009" lon="4.99167">
        <ele>295</ele>
        <time>2015-12-22T11:16:33.359Z</time>
      </trkpt>
      <trkpt lat="45.99003" lon="4.99168">
        <ele>295.100006104</ele>
        <time>2015-12-22T11:16:34.376Z</time>
      </trkpt>
      <trkpt lat="45.98998" lon="4.9917">
        <ele>295.100006104</ele>
        <time>2015-12-22T11:16:35.355Z</time>
      </trkpt>
      <trkpt lat="45.98993" lon="4.99171">
        <ele>295.100006104</ele>
        <time>2015-12-22T11:16:36.374Z</time>
      </trkpt>
      <trkpt lat="45.98987" lon="4.99172">
        <ele>295.100006104</ele>
        <time>2015-12-22T11:16:37.36Z</time>
      </trkpt>
      <trkpt lat="45.98982" lon="4.99174">
        <ele>295</ele>
        <time>2015-12-22T11:16:38.375Z</time>
      </trkpt>
      <trkpt lat="45.98976" lon="4.99175">
        <ele>294.600006104</ele>
        <time>2015-12-22T11:16:39.357Z</time>
      </trkpt>
      <trkpt lat="45.98971" lon="4.99177">
        <ele>294.299987793</ele>
        <time>2015-12-22T11:16:40.374Z</time>
      </trkpt>
      <trkpt lat="45.98965" lon="4.99178">
        <ele>294.200012207</ele>
        <time>2015-12-22T11:16:41.355Z</time>
      </trkpt>
      <trkpt lat="45.9896" lon="4.9918">
        <ele>293.899993896</ele>
        <time>2015-12-22T11:16:42.374Z</time>
      </trkpt>
      <trkpt lat="45.98955" lon="4.99182">
        <ele>293.600006104</ele>
        <time>2015-12-22T11:16:43.358Z</time>
      </trkpt>
      <trkpt lat="45.9895" lon="4.99183">
        <ele>293.5</ele>
        <time>2015-12-22T11:16:44.374Z</time>
      </trkpt>
      <trkpt lat="45.98944" lon="4.99183">
        <ele>293.399993896</ele>
        <time>2015-12-22T11:16:45.357Z</time>
      </trkpt>
      <trkpt lat="45.98939" lon="4.99182">
        <ele>293.399993896</ele>
        <time>2015-12-22T11:16:46.376Z</time>
      </trkpt>
      <trkpt lat="45.98935" lon="4.9918">
        <ele>293.399993896</ele>
        <time>2015-12-22T11:16:47.357Z</time>
      </trkpt>
      <trkpt lat="45.98931" lon="4.99176">
        <ele>293.399993896</ele>
        <time>2015-12-22T11:16:48.382Z</time>
      </trkpt>
      <trkpt lat="45.98928" lon="4.9917">
        <ele>293.299987793</ele>
        <time>2015-12-22T11:16:49.362Z</time>
      </trkpt>
      <trkpt lat="45.98921" lon="4.99163">
        <ele>293.700012207</ele>
        <time>2015-12-22T11:16:51.376Z</time>
      </trkpt>
      <trkpt lat="45.98917" lon="4.99161">
        <ele>293.700012207</ele>
        <time>2015-12-22T11:16:52.357Z</time>
      </trkpt>
      <trkpt lat="45.9891" lon="4.99163">
        <ele>293.899993896</ele>
        <time>2015-12-22T11:16:54.374Z</time>
      </trkpt>
      <trkpt lat="45.98906" lon="4.99164">
        <ele>294</ele>
        <time>2015-12-22T11:16:55.359Z</time>
      </trkpt>
      <trkpt lat="45.98899" lon="4.9916">
        <ele>294.200012207</ele>
        <time>2015-12-22T11:16:57.47Z</time>
      </trkpt>
      <trkpt lat="45.98895" lon="4.99156">
        <ele>294</ele>
        <time>2015-12-22T11:16:58.357Z</time>
      </trkpt>
      <trkpt lat="45.98889" lon="4.99147">
        <ele>293.899993896</ele>
        <time>2015-12-22T11:17:00.376Z</time>
      </trkpt>
      <trkpt lat="45.98886" lon="4.99143">
        <ele>294.100006104</ele>
        <time>2015-12-22T11:17:01.359Z</time>
      </trkpt>
      <trkpt lat="45.98883" lon="4.99138">
        <ele>294.200012207</ele>
        <time>2015-12-22T11:17:02.374Z</time>
      </trkpt>
      <trkpt lat="45.98879" lon="4.99134">
        <ele>294.100006104</ele>
        <time>2015-12-22T11:17:03.356Z</time>
      </trkpt>
      <trkpt lat="45.98875" lon="4.9913">
        <ele>294</ele>
        <time>2015-12-22T11:17:04.374Z</time>
      </trkpt>
      <trkpt lat="45.98871" lon="4.99126">
        <ele>293.600006104</ele>
        <time>2015-12-22T11:17:05.356Z</time>
      </trkpt>
      <trkpt lat="45.98867" lon="4.99122">
        <ele>293.899993896</ele>
        <time>2015-12-22T11:17:06.376Z</time>
      </trkpt>
      <trkpt lat="45.98863" lon="4.99118">
        <ele>293.600006104</ele>
        <time>2015-12-22T11:17:07.359Z</time>
      </trkpt>
      <trkpt lat="45.98858" lon="4.99114">
        <ele>293.700012207</ele>
        <time>2015-12-22T11:17:08.374Z</time>
      </trkpt>
      <trkpt lat="45.98854" lon="4.9911">
        <ele>293.799987793</ele>
        <time>2015-12-22T11:17:09.381Z</time>
      </trkpt>
      <trkpt lat="45.9885" lon="4.99107">
        <ele>293.899993896</ele>
        <time>2015-12-22T11:17:10.375Z</time>
      </trkpt>
      <trkpt lat="45.98846" lon="4.99103">
        <ele>293.700012207</ele>
        <time>2015-12-22T11:17:11.357Z</time>
      </trkpt>
      <trkpt lat="45.98842" lon="4.991">
        <ele>293.700012207</ele>
        <time>2015-12-22T11:17:12.392Z</time>
      </trkpt>
      <trkpt lat="45.98838" lon="4.99096">
        <ele>293.600006104</ele>
        <time>2015-12-22T11:17:13.359Z</time>
      </trkpt>
      <trkpt lat="45.98834" lon="4.99091">
        <ele>293.600006104</ele>
        <time>2015-12-22T11:17:14.389Z</time>
      </trkpt>
      <trkpt lat="45.9883" lon="4.99088">
        <ele>293.600006104</ele>
        <time>2015-12-22T11:17:15.356Z</time>
      </trkpt>
      <trkpt lat="45.98826" lon="4.99084">
        <ele>293.700012207</ele>
        <time>2015-12-22T11:17:16.384Z</time>
      </trkpt>
      <trkpt lat="45.98822" lon="4.9908">
        <ele>293.899993896</ele>
        <time>2015-12-22T11:17:17.355Z</time>
      </trkpt>
      <trkpt lat="45.98818" lon="4.99076">
        <ele>293.899993896</ele>
        <time>2015-12-22T11:17:18.375Z</time>
      </trkpt>
      <trkpt lat="45.98814" lon="4.99072">
        <ele>294.700012207</ele>
        <time>2015-12-22T11:17:19.359Z</time>
      </trkpt>
      <trkpt lat="45.98811" lon="4.99068">
        <ele>295</ele>
        <time>2015-12-22T11:17:20.447Z</time>
      </trkpt>
      <trkpt lat="45.98807" lon="4.99064">
        <ele>295.200012207</ele>
        <time>2015-12-22T11:17:21.357Z</time>
      </trkpt>
      <trkpt lat="45.98803" lon="4.99059">
        <ele>295.5</ele>
        <time>2015-12-22T11:17:22.375Z</time>
      </trkpt>
      <trkpt lat="45.98799" lon="4.99055">
        <ele>295.600006104</ele>
        <time>2015-12-22T11:17:23.356Z</time>
      </trkpt>
      <trkpt lat="45.98796" lon="4.99051">
        <ele>295.799987793</ele>
        <time>2015-12-22T11:17:24.376Z</time>
      </trkpt>
      <trkpt lat="45.98792" lon="4.99047">
        <ele>295.899993896</ele>
        <time>2015-12-22T11:17:25.419Z</time>
      </trkpt>
      <trkpt lat="45.98788" lon="4.99042">
        <ele>295.700012207</ele>
        <time>2015-12-22T11:17:26.518Z</time>
      </trkpt>
      <trkpt lat="45.98785" lon="4.99038">
        <ele>295.899993896</ele>
        <time>2015-12-22T11:17:27.389Z</time>
      </trkpt>
      <trkpt lat="45.98781" lon="4.99033">
        <ele>296.200012207</ele>
        <time>2015-12-22T11:17:28.409Z</time>
      </trkpt>
      <trkpt lat="45.98777" lon="4.99029">
        <ele>296.100006104</ele>
        <time>2015-12-22T11:17:29.365Z</time>
      </trkpt>
      <trkpt lat="45.98774" lon="4.99024">
        <ele>296.399993896</ele>
        <time>2015-12-22T11:17:30.446Z</time>
      </trkpt>
      <trkpt lat="45.9877" lon="4.9902">
        <ele>296.700012207</ele>
        <time>2015-12-22T11:17:31.362Z</time>
      </trkpt>
      <trkpt lat="45.98767" lon="4.99016">
        <ele>297</ele>
        <time>2015-12-22T11:17:32.385Z</time>
      </trkpt>
      <trkpt lat="45.98763" lon="4.99011">
        <ele>297.399993896</ele>
        <time>2015-12-22T11:17:33.365Z</time>
      </trkpt>
      <trkpt lat="45.98759" lon="4.99006">
        <ele>297.5</ele>
        <time>2015-12-22T11:17:34.38Z</time>
      </trkpt>
      <trkpt lat="45.98756" lon="4.99001">
        <ele>297.399993896</ele>
        <time>2015-12-22T11:17:35.363Z</time>
      </trkpt>
      <trkpt lat="45.98752" lon="4.98995">
        <ele>297.299987793</ele>
        <time>2015-12-22T11:17:36.382Z</time>
      </trkpt>
      <trkpt lat="45.98748" lon="4.9899">
        <ele>297.299987793</ele>
        <time>2015-12-22T11:17:37.362Z</time>
      </trkpt>
      <trkpt lat="45.98745" lon="4.98984">
        <ele>296.799987793</ele>
        <time>2015-12-22T11:17:38.383Z</time>
      </trkpt>
      <trkpt lat="45.98741" lon="4.98978">
        <ele>296.5</ele>
        <time>2015-12-22T11:17:39.359Z</time>
      </trkpt>
      <trkpt lat="45.98737" lon="4.98972">
        <ele>296.200012207</ele>
        <time>2015-12-22T11:17:40.378Z</time>
      </trkpt>
      <trkpt lat="45.98734" lon="4.98966">
        <ele>296</ele>
        <time>2015-12-22T11:17:41.36Z</time>
      </trkpt>
      <trkpt lat="45.9873" lon="4.98959">
        <ele>295.600006104</ele>
        <time>2015-12-22T11:17:42.397Z</time>
      </trkpt>
      <trkpt lat="45.98726" lon="4.98952">
        <ele>295.399993896</ele>
        <time>2015-12-22T11:17:43.36Z</time>
      </trkpt>
      <trkpt lat="45.98723" lon="4.98945">
        <ele>295</ele>
        <time>2015-12-22T11:17:44.396Z</time>
      </trkpt>
      <trkpt lat="45.9872" lon="4.98937">
        <ele>294.700012207</ele>
        <time>2015-12-22T11:17:45.358Z</time>
      </trkpt>
      <trkpt lat="45.98717" lon="4.9893">
        <ele>294.700012207</ele>
        <time>2015-12-22T11:17:46.381Z</time>
      </trkpt>
      <trkpt lat="45.98715" lon="4.98923">
        <ele>294.600006104</ele>
        <time>2015-12-22T11:17:47.357Z</time>
      </trkpt>
      <trkpt lat="45.98712" lon="4.98916">
        <ele>294.600006104</ele>
        <time>2015-12-22T11:17:48.387Z</time>
      </trkpt>
      <trkpt lat="45.9871" lon="4.98909">
        <ele>294</ele>
        <time>2015-12-22T11:17:49.367Z</time>
      </trkpt>
      <trkpt lat="45.98707" lon="4.98902">
        <ele>292.899993896</ele>
        <time>2015-12-22T11:17:50.38Z</time>
      </trkpt>
      <trkpt lat="45.98705" lon="4.98896">
        <ele>292</ele>
        <time>2015-12-22T11:17:51.359Z</time>
      </trkpt>
      <trkpt lat="45.98703" lon="4.98889">
        <ele>290.899993896</ele>
        <time>2015-12-22T11:17:52.38Z</time>
      </trkpt>
      <trkpt lat="45.987" lon="4.98882">
        <ele>290.100006104</ele>
        <time>2015-12-22T11:17:53.36Z</time>
      </trkpt>
      <trkpt lat="45.98698" lon="4.98874">
        <ele>290</ele>
        <time>2015-12-22T11:17:54.401Z</time>
      </trkpt>
      <trkpt lat="45.98696" lon="4.98867">
        <ele>289.600006104</ele>
        <time>2015-12-22T11:17:55.36Z</time>
      </trkpt>
      <trkpt lat="45.98693" lon="4.9886">
        <ele>288.700012207</ele>
        <time>2015-12-22T11:17:56.377Z</time>
      </trkpt>
      <trkpt lat="45.98691" lon="4.98852">
        <ele>287.899993896</ele>
        <time>2015-12-22T11:17:57.359Z</time>
      </trkpt>
      <trkpt lat="45.98689" lon="4.98844">
        <ele>287.200012207</ele>
        <time>2015-12-22T11:17:58.495Z</time>
      </trkpt>
      <trkpt lat="45.98686" lon="4.98836">
        <ele>286.899993896</ele>
        <time>2015-12-22T11:17:59.363Z</time>
      </trkpt>
      <trkpt lat="45.98684" lon="4.98828">
        <ele>286.600006104</ele>
        <time>2015-12-22T11:18:00.38Z</time>
      </trkpt>
      <trkpt lat="45.98681" lon="4.9882">
        <ele>286.5</ele>
        <time>2015-12-22T11:18:01.361Z</time>
      </trkpt>
      <trkpt lat="45.98678" lon="4.98812">
        <ele>286.100006104</ele>
        <time>2015-12-22T11:18:02.38Z</time>
      </trkpt>
      <trkpt lat="45.98675" lon="4.98804">
        <ele>286.200012207</ele>
        <time>2015-12-22T11:18:03.359Z</time>
      </trkpt>
      <trkpt lat="45.98672" lon="4.98795">
        <ele>286</ele>
        <time>2015-12-22T11:18:04.378Z</time>
      </trkpt>
      <trkpt lat="45.9867" lon="4.98786">
        <ele>285.5</ele>
        <time>2015-12-22T11:18:05.357Z</time>
      </trkpt>
      <trkpt lat="45.98668" lon="4.98777">
        <ele>285.299987793</ele>
        <time>2015-12-22T11:18:06.379Z</time>
      </trkpt>
      <trkpt lat="45.98665" lon="4.98768">
        <ele>285.5</ele>
        <time>2015-12-22T11:18:07.36Z</time>
      </trkpt>
      <trkpt lat="45.98662" lon="4.98759">
        <ele>285.399993896</ele>
        <time>2015-12-22T11:18:08.429Z</time>
      </trkpt>
      <trkpt lat="45.98659" lon="4.9875">
        <ele>285.399993896</ele>
        <time>2015-12-22T11:18:09.359Z</time>
      </trkpt>
      <trkpt lat="45.98656" lon="4.98741">
        <ele>285.5</ele>
        <time>2015-12-22T11:18:10.398Z</time>
      </trkpt>
      <trkpt lat="45.98653" lon="4.98732">
        <ele>285.5</ele>
        <time>2015-12-22T11:18:11.357Z</time>
      </trkpt>
      <trkpt lat="45.9865" lon="4.98723">
        <ele>285.700012207</ele>
        <time>2015-12-22T11:18:12.378Z</time>
      </trkpt>
      <trkpt lat="45.98647" lon="4.98713">
        <ele>285.600006104</ele>
        <time>2015-12-22T11:18:13.36Z</time>
      </trkpt>
      <trkpt lat="45.98644" lon="4.98704">
        <ele>284.899993896</ele>
        <time>2015-12-22T11:18:14.379Z</time>
      </trkpt>
      <trkpt lat="45.98641" lon="4.98694">
        <ele>284.600006104</ele>
        <time>2015-12-22T11:18:15.358Z</time>
      </trkpt>
      <trkpt lat="45.98639" lon="4.98684">
        <ele>284.399993896</ele>
        <time>2015-12-22T11:18:16.377Z</time>
      </trkpt>
      <trkpt lat="45.98636" lon="4.98674">
        <ele>284.100006104</ele>
        <time>2015-12-22T11:18:17.356Z</time>
      </trkpt>
      <trkpt lat="45.98633" lon="4.98664">
        <ele>283.899993896</ele>
        <time>2015-12-22T11:18:18.381Z</time>
      </trkpt>
      <trkpt lat="45.9863" lon="4.98654">
        <ele>284</ele>
        <time>2015-12-22T11:18:19.361Z</time>
      </trkpt>
      <trkpt lat="45.98627" lon="4.98644">
        <ele>283.899993896</ele>
        <time>2015-12-22T11:18:20.531Z</time>
      </trkpt>
      <trkpt lat="45.98624" lon="4.98634">
        <ele>283.899993896</ele>
        <time>2015-12-22T11:18:21.359Z</time>
      </trkpt>
      <trkpt lat="45.98621" lon="4.98624">
        <ele>283.899993896</ele>
        <time>2015-12-22T11:18:22.379Z</time>
      </trkpt>
      <trkpt lat="45.98617" lon="4.98614">
        <ele>284.100006104</ele>
        <time>2015-12-22T11:18:23.357Z</time>
      </trkpt>
      <trkpt lat="45.98614" lon="4.98604">
        <ele>284.200012207</ele>
        <time>2015-12-22T11:18:24.381Z</time>
      </trkpt>
      <trkpt lat="45.9861" lon="4.98594">
        <ele>284.399993896</ele>
        <time>2015-12-22T11:18:25.361Z</time>
      </trkpt>
      <trkpt lat="45.98607" lon="4.98584">
        <ele>284.399993896</ele>
        <time>2015-12-22T11:18:26.377Z</time>
      </trkpt>
      <trkpt lat="45.98604" lon="4.98575">
        <ele>284.200012207</ele>
        <time>2015-12-22T11:18:27.359Z</time>
      </trkpt>
      <trkpt lat="45.98601" lon="4.98565">
        <ele>284.200012207</ele>
        <time>2015-12-22T11:18:28.377Z</time>
      </trkpt>
      <trkpt lat="45.98597" lon="4.98556">
        <ele>283.899993896</ele>
        <time>2015-12-22T11:18:29.359Z</time>
      </trkpt>
      <trkpt lat="45.98594" lon="4.98547">
        <ele>283.700012207</ele>
        <time>2015-12-22T11:18:30.376Z</time>
      </trkpt>
      <trkpt lat="45.98591" lon="4.98537">
        <ele>283.899993896</ele>
        <time>2015-12-22T11:18:31.377Z</time>
      </trkpt>
      <trkpt lat="45.98588" lon="4.98528">
        <ele>283.799987793</ele>
        <time>2015-12-22T11:18:32.388Z</time>
      </trkpt>
      <trkpt lat="45.98585" lon="4.98519">
        <ele>283.799987793</ele>
        <time>2015-12-22T11:18:33.358Z</time>
      </trkpt>
      <trkpt lat="45.98582" lon="4.98511">
        <ele>283.799987793</ele>
        <time>2015-12-22T11:18:34.378Z</time>
      </trkpt>
      <trkpt lat="45.98579" lon="4.98503">
        <ele>283.700012207</ele>
        <time>2015-12-22T11:18:35.358Z</time>
      </trkpt>
      <trkpt lat="45.98576" lon="4.98495">
        <ele>283.700012207</ele>
        <time>2015-12-22T11:18:36.382Z</time>
      </trkpt>
      <trkpt lat="45.98573" lon="4.98487">
        <ele>283.899993896</ele>
        <time>2015-12-22T11:18:37.363Z</time>
      </trkpt>
      <trkpt lat="45.98571" lon="4.9848">
        <ele>284.100006104</ele>
        <time>2015-12-22T11:18:38.376Z</time>
      </trkpt>
      <trkpt lat="45.98568" lon="4.98473">
        <ele>283.899993896</ele>
        <time>2015-12-22T11:18:39.383Z</time>
      </trkpt>
      <trkpt lat="45.98565" lon="4.98465">
        <ele>283.5</ele>
        <time>2015-12-22T11:18:40.378Z</time>
      </trkpt>
      <trkpt lat="45.98562" lon="4.98458">
        <ele>283.299987793</ele>
        <time>2015-12-22T11:18:41.358Z</time>
      </trkpt>
      <trkpt lat="45.9856" lon="4.98451">
        <ele>283.5</ele>
        <time>2015-12-22T11:18:42.376Z</time>
      </trkpt>
      <trkpt lat="45.98558" lon="4.98444">
        <ele>283.600006104</ele>
        <time>2015-12-22T11:18:43.401Z</time>
      </trkpt>
      <trkpt lat="45.98555" lon="4.98436">
        <ele>283.399993896</ele>
        <time>2015-12-22T11:18:44.413Z</time>
      </trkpt>
      <trkpt lat="45.98553" lon="4.98428">
        <ele>283.399993896</ele>
        <time>2015-12-22T11:18:45.362Z</time>
      </trkpt>
      <trkpt lat="45.9855" lon="4.9842">
        <ele>283.399993896</ele>
        <time>2015-12-22T11:18:46.377Z</time>
      </trkpt>
      <trkpt lat="45.98547" lon="4.98412">
        <ele>283.299987793</ele>
        <time>2015-12-22T11:18:47.358Z</time>
      </trkpt>
      <trkpt lat="45.98544" lon="4.98403">
        <ele>283.200012207</ele>
        <time>2015-12-22T11:18:48.377Z</time>
      </trkpt>
      <trkpt lat="45.98541" lon="4.98395">
        <ele>283</ele>
        <time>2015-12-22T11:18:49.363Z</time>
      </trkpt>
      <trkpt lat="45.98539" lon="4.98387">
        <ele>282.799987793</ele>
        <time>2015-12-22T11:18:50.378Z</time>
      </trkpt>
      <trkpt lat="45.98537" lon="4.98379">
        <ele>283</ele>
        <time>2015-12-22T11:18:51.357Z</time>
      </trkpt>
      <trkpt lat="45.98534" lon="4.9837">
        <ele>283.200012207</ele>
        <time>2015-12-22T11:18:52.393Z</time>
      </trkpt>
      <trkpt lat="45.98531" lon="4.98362">
        <ele>283</ele>
        <time>2015-12-22T11:18:53.355Z</time>
      </trkpt>
      <trkpt lat="45.98529" lon="4.98354">
        <ele>282.799987793</ele>
        <time>2015-12-22T11:18:54.375Z</time>
      </trkpt>
      <trkpt lat="45.98526" lon="4.98345">
        <ele>282.399993896</ele>
        <time>2015-12-22T11:18:55.363Z</time>
      </trkpt>
      <trkpt lat="45.98523" lon="4.98336">
        <ele>281.899993896</ele>
        <time>2015-12-22T11:18:56.542Z</time>
      </trkpt>
      <trkpt lat="45.9852" lon="4.98328">
        <ele>281.600006104</ele>
        <time>2015-12-22T11:18:57.357Z</time>
      </trkpt>
      <trkpt lat="45.98518" lon="4.9832">
        <ele>281.5</ele>
        <time>2015-12-22T11:18:58.379Z</time>
      </trkpt>
      <trkpt lat="45.98515" lon="4.98311">
        <ele>281.399993896</ele>
        <time>2015-12-22T11:18:59.358Z</time>
      </trkpt>
      <trkpt lat="45.98512" lon="4.98303">
        <ele>281.600006104</ele>
        <time>2015-12-22T11:19:00.378Z</time>
      </trkpt>
      <trkpt lat="45.9851" lon="4.98295">
        <ele>281.600006104</ele>
        <time>2015-12-22T11:19:01.359Z</time>
      </trkpt>
      <trkpt lat="45.98507" lon="4.98287">
        <ele>281.299987793</ele>
        <time>2015-12-22T11:19:02.376Z</time>
      </trkpt>
      <trkpt lat="45.98504" lon="4.98279">
        <ele>280.799987793</ele>
        <time>2015-12-22T11:19:03.358Z</time>
      </trkpt>
      <trkpt lat="45.98502" lon="4.98271">
        <ele>280.700012207</ele>
        <time>2015-12-22T11:19:04.375Z</time>
      </trkpt>
      <trkpt lat="45.985" lon="4.98262">
        <ele>280.799987793</ele>
        <time>2015-12-22T11:19:05.356Z</time>
      </trkpt>
      <trkpt lat="45.98498" lon="4.98254">
        <ele>281.299987793</ele>
        <time>2015-12-22T11:19:06.377Z</time>
      </trkpt>
      <trkpt lat="45.98496" lon="4.98247">
        <ele>281.299987793</ele>
        <time>2015-12-22T11:19:07.358Z</time>
      </trkpt>
      <trkpt lat="45.98494" lon="4.98239">
        <ele>281.600006104</ele>
        <time>2015-12-22T11:19:08.379Z</time>
      </trkpt>
      <trkpt lat="45.98492" lon="4.98231">
        <ele>282.200012207</ele>
        <time>2015-12-22T11:19:09.361Z</time>
      </trkpt>
      <trkpt lat="45.98489" lon="4.98223">
        <ele>282</ele>
        <time>2015-12-22T11:19:10.376Z</time>
      </trkpt>
      <trkpt lat="45.98486" lon="4.98215">
        <ele>282</ele>
        <time>2015-12-22T11:19:11.358Z</time>
      </trkpt>
      <trkpt lat="45.98483" lon="4.98207">
        <ele>282</ele>
        <time>2015-12-22T11:19:12.377Z</time>
      </trkpt>
      <trkpt lat="45.9848" lon="4.98199">
        <ele>281.899993896</ele>
        <time>2015-12-22T11:19:13.359Z</time>
      </trkpt>
      <trkpt lat="45.98477" lon="4.9819">
        <ele>281.899993896</ele>
        <time>2015-12-22T11:19:14.376Z</time>
      </trkpt>
      <trkpt lat="45.98475" lon="4.98181">
        <ele>281.899993896</ele>
        <time>2015-12-22T11:19:15.357Z</time>
      </trkpt>
      <trkpt lat="45.98472" lon="4.98173">
        <ele>282.299987793</ele>
        <time>2015-12-22T11:19:16.375Z</time>
      </trkpt>
      <trkpt lat="45.98469" lon="4.98164">
        <ele>282.5</ele>
        <time>2015-12-22T11:19:17.356Z</time>
      </trkpt>
      <trkpt lat="45.98467" lon="4.98156">
        <ele>282.5</ele>
        <time>2015-12-22T11:19:18.392Z</time>
      </trkpt>
      <trkpt lat="45.98464" lon="4.98147">
        <ele>281.799987793</ele>
        <time>2015-12-22T11:19:19.359Z</time>
      </trkpt>
      <trkpt lat="45.98462" lon="4.98138">
        <ele>281.799987793</ele>
        <time>2015-12-22T11:19:20.379Z</time>
      </trkpt>
      <trkpt lat="45.9846" lon="4.98129">
        <ele>281.5</ele>
        <time>2015-12-22T11:19:21.361Z</time>
      </trkpt>
      <trkpt lat="45.98457" lon="4.9812">
        <ele>281.200012207</ele>
        <time>2015-12-22T11:19:22.378Z</time>
      </trkpt>
      <trkpt lat="45.98455" lon="4.9811">
        <ele>280.799987793</ele>
        <time>2015-12-22T11:19:23.379Z</time>
      </trkpt>
      <trkpt lat="45.98454" lon="4.98101">
        <ele>280.299987793</ele>
        <time>2015-12-22T11:19:24.391Z</time>
      </trkpt>
      <trkpt lat="45.98452" lon="4.98091">
        <ele>280.100006104</ele>
        <time>2015-12-22T11:19:25.36Z</time>
      </trkpt>
      <trkpt lat="45.98451" lon="4.98081">
        <ele>280.100006104</ele>
        <time>2015-12-22T11:19:26.376Z</time>
      </trkpt>
      <trkpt lat="45.9845" lon="4.98071">
        <ele>279.600006104</ele>
        <time>2015-12-22T11:19:27.357Z</time>
      </trkpt>
      <trkpt lat="45.9845" lon="4.98062">
        <ele>279.100006104</ele>
        <time>2015-12-22T11:19:28.391Z</time>
      </trkpt>
      <trkpt lat="45.98449" lon="4.98053">
        <ele>278.5</ele>
        <time>2015-12-22T11:19:29.357Z</time>
      </trkpt>
      <trkpt lat="45.98448" lon="4.98044">
        <ele>278.100006104</ele>
        <time>2015-12-22T11:19:30.376Z</time>
      </trkpt>
      <trkpt lat="45.98448" lon="4.98036">
        <ele>278</ele>
        <time>2015-12-22T11:19:31.361Z</time>
      </trkpt>
      <trkpt lat="45.98448" lon="4.98028">
        <ele>277.700012207</ele>
        <time>2015-12-22T11:19:32.381Z</time>
      </trkpt>
      <trkpt lat="45.98447" lon="4.9802">
        <ele>277.100006104</ele>
        <time>2015-12-22T11:19:33.358Z</time>
      </trkpt>
      <trkpt lat="45.98447" lon="4.98013">
        <ele>277</ele>
        <time>2015-12-22T11:19:34.38Z</time>
      </trkpt>
      <trkpt lat="45.98446" lon="4.98006">
        <ele>276.799987793</ele>
        <time>2015-12-22T11:19:35.357Z</time>
      </trkpt>
      <trkpt lat="45.98445" lon="4.98">
        <ele>276.700012207</ele>
        <time>2015-12-22T11:19:36.378Z</time>
      </trkpt>
      <trkpt lat="45.98445" lon="4.97993">
        <ele>276.700012207</ele>
        <time>2015-12-22T11:19:37.36Z</time>
      </trkpt>
      <trkpt lat="45.98445" lon="4.97987">
        <ele>276.5</ele>
        <time>2015-12-22T11:19:38.377Z</time>
      </trkpt>
      <trkpt lat="45.98445" lon="4.97979">
        <ele>276.799987793</ele>
        <time>2015-12-22T11:19:39.357Z</time>
      </trkpt>
      <trkpt lat="45.98444" lon="4.97972">
        <ele>277</ele>
        <time>2015-12-22T11:19:40.378Z</time>
      </trkpt>
      <trkpt lat="45.98444" lon="4.97965">
        <ele>277.200012207</ele>
        <time>2015-12-22T11:19:41.357Z</time>
      </trkpt>
      <trkpt lat="45.98444" lon="4.97957">
        <ele>277.200012207</ele>
        <time>2015-12-22T11:19:42.492Z</time>
      </trkpt>
      <trkpt lat="45.98444" lon="4.9795">
        <ele>277.100006104</ele>
        <time>2015-12-22T11:19:43.36Z</time>
      </trkpt>
      <trkpt lat="45.98445" lon="4.97943">
        <ele>277.399993896</ele>
        <time>2015-12-22T11:19:44.451Z</time>
      </trkpt>
      <trkpt lat="45.98445" lon="4.97935">
        <ele>277.399993896</ele>
        <time>2015-12-22T11:19:45.359Z</time>
      </trkpt>
      <trkpt lat="45.98446" lon="4.97928">
        <ele>277.600006104</ele>
        <time>2015-12-22T11:19:46.375Z</time>
      </trkpt>
      <trkpt lat="45.98447" lon="4.97921">
        <ele>278.100006104</ele>
        <time>2015-12-22T11:19:47.358Z</time>
      </trkpt>
      <trkpt lat="45.98448" lon="4.97914">
        <ele>278.700012207</ele>
        <time>2015-12-22T11:19:48.376Z</time>
      </trkpt>
      <trkpt lat="45.98446" lon="4.97907">
        <ele>279</ele>
        <time>2015-12-22T11:19:49.361Z</time>
      </trkpt>
      <trkpt lat="45.98444" lon="4.97902">
        <ele>279.299987793</ele>
        <time>2015-12-22T11:19:50.374Z</time>
      </trkpt>
      <trkpt lat="45.9844" lon="4.97898">
        <ele>279.899993896</ele>
        <time>2015-12-22T11:19:51.356Z</time>
      </trkpt>
      <trkpt lat="45.98435" lon="4.97897">
        <ele>280.100006104</ele>
        <time>2015-12-22T11:19:52.376Z</time>
      </trkpt>
      <trkpt lat="45.98429" lon="4.97897">
        <ele>281.100006104</ele>
        <time>2015-12-22T11:19:53.359Z</time>
      </trkpt>
      <trkpt lat="45.98424" lon="4.97898">
        <ele>281.5</ele>
        <time>2015-12-22T11:19:54.374Z</time>
      </trkpt>
      <trkpt lat="45.98418" lon="4.97901">
        <ele>281.600006104</ele>
        <time>2015-12-22T11:19:55.36Z</time>
      </trkpt>
      <trkpt lat="45.98412" lon="4.97902">
        <ele>281.899993896</ele>
        <time>2015-12-22T11:19:56.376Z</time>
      </trkpt>
      <trkpt lat="45.98406" lon="4.97902">
        <ele>282.299987793</ele>
        <time>2015-12-22T11:19:57.357Z</time>
      </trkpt>
      <trkpt lat="45.984" lon="4.979">
        <ele>282.799987793</ele>
        <time>2015-12-22T11:19:58.376Z</time>
      </trkpt>
      <trkpt lat="45.98394" lon="4.97897">
        <ele>283</ele>
        <time>2015-12-22T11:19:59.358Z</time>
      </trkpt>
      <trkpt lat="45.98389" lon="4.97894">
        <ele>283.5</ele>
        <time>2015-12-22T11:20:00.378Z</time>
      </trkpt>
      <trkpt lat="45.98385" lon="4.97889">
        <ele>284.299987793</ele>
        <time>2015-12-22T11:20:01.358Z</time>
      </trkpt>
      <trkpt lat="45.9838" lon="4.97884">
        <ele>284.799987793</ele>
        <time>2015-12-22T11:20:02.501Z</time>
      </trkpt>
      <trkpt lat="45.98377" lon="4.97879">
        <ele>285.5</ele>
        <time>2015-12-22T11:20:03.357Z</time>
      </trkpt>
      <trkpt lat="45.98374" lon="4.97873">
        <ele>286.299987793</ele>
        <time>2015-12-22T11:20:04.376Z</time>
      </trkpt>
      <trkpt lat="45.98371" lon="4.97867">
        <ele>287</ele>
        <time>2015-12-22T11:20:05.354Z</time>
      </trkpt>
      <trkpt lat="45.98369" lon="4.9786">
        <ele>287.700012207</ele>
        <time>2015-12-22T11:20:06.375Z</time>
      </trkpt>
      <trkpt lat="45.98366" lon="4.97854">
        <ele>288.399993896</ele>
        <time>2015-12-22T11:20:07.359Z</time>
      </trkpt>
      <trkpt lat="45.98362" lon="4.97842">
        <ele>289.100006104</ele>
        <time>2015-12-22T11:20:09.378Z</time>
      </trkpt>
      <trkpt lat="45.98361" lon="4.97836">
        <ele>289.299987793</ele>
        <time>2015-12-22T11:20:10.372Z</time>
      </trkpt>
      <trkpt lat="45.98359" lon="4.9783">
        <ele>289.399993896</ele>
        <time>2015-12-22T11:20:11.434Z</time>
      </trkpt>
      <trkpt lat="45.98357" lon="4.97824">
        <ele>290</ele>
        <time>2015-12-22T11:20:12.355Z</time>
      </trkpt>
      <trkpt lat="45.98352" lon="4.97814">
        <ele>290.700012207</ele>
        <time>2015-12-22T11:20:14.376Z</time>
      </trkpt>
      <trkpt lat="45.98351" lon="4.97809">
        <ele>291</ele>
        <time>2015-12-22T11:20:15.358Z</time>
      </trkpt>
      <trkpt lat="45.98348" lon="4.97798">
        <ele>290.899993896</ele>
        <time>2015-12-22T11:20:17.375Z</time>
      </trkpt>
      <trkpt lat="45.98346" lon="4.97793">
        <ele>291.100006104</ele>
        <time>2015-12-22T11:20:18.356Z</time>
      </trkpt>
      <trkpt lat="45.98343" lon="4.97782">
        <ele>291.399993896</ele>
        <time>2015-12-22T11:20:20.375Z</time>
      </trkpt>
      <trkpt lat="45.98342" lon="4.97776">
        <ele>291.600006104</ele>
        <time>2015-12-22T11:20:21.356Z</time>
      </trkpt>
      <trkpt lat="45.98338" lon="4.97765">
        <ele>292.100006104</ele>
        <time>2015-12-22T11:20:23.383Z</time>
      </trkpt>
      <trkpt lat="45.98335" lon="4.9776">
        <ele>292.299987793</ele>
        <time>2015-12-22T11:20:24.355Z</time>
      </trkpt>
      <trkpt lat="45.98331" lon="4.97751">
        <ele>292.600006104</ele>
        <time>2015-12-22T11:20:26.46Z</time>
      </trkpt>
      <trkpt lat="45.9833" lon="4.97745">
        <ele>292.899993896</ele>
        <time>2015-12-22T11:20:27.358Z</time>
      </trkpt>
      <trkpt lat="45.98328" lon="4.97735">
        <ele>293.5</ele>
        <time>2015-12-22T11:20:29.376Z</time>
      </trkpt>
      <trkpt lat="45.98325" lon="4.9773">
        <ele>294</ele>
        <time>2015-12-22T11:20:30.356Z</time>
      </trkpt>
      <trkpt lat="45.9832" lon="4.97721">
        <ele>294.600006104</ele>
        <time>2015-12-22T11:20:32.423Z</time>
      </trkpt>
      <trkpt lat="45.98318" lon="4.97717">
        <ele>294.799987793</ele>
        <time>2015-12-22T11:20:33.407Z</time>
      </trkpt>
      <trkpt lat="45.98314" lon="4.97706">
        <ele>295.100006104</ele>
        <time>2015-12-22T11:20:35.374Z</time>
      </trkpt>
      <trkpt lat="45.98313" lon="4.977">
        <ele>295.299987793</ele>
        <time>2015-12-22T11:20:36.356Z</time>
      </trkpt>
      <trkpt lat="45.9831" lon="4.97689">
        <ele>295.600006104</ele>
        <time>2015-12-22T11:20:38.375Z</time>
      </trkpt>
      <trkpt lat="45.98308" lon="4.97683">
        <ele>295.600006104</ele>
        <time>2015-12-22T11:20:39.357Z</time>
      </trkpt>
      <trkpt lat="45.98304" lon="4.97673">
        <ele>296.100006104</ele>
        <time>2015-12-22T11:20:41.377Z</time>
      </trkpt>
      <trkpt lat="45.98302" lon="4.97668">
        <ele>296.100006104</ele>
        <time>2015-12-22T11:20:42.373Z</time>
      </trkpt>
      <trkpt lat="45.98299" lon="4.97657">
        <ele>296.100006104</ele>
        <time>2015-12-22T11:20:44.375Z</time>
      </trkpt>
      <trkpt lat="45.98298" lon="4.97652">
        <ele>295.700012207</ele>
        <time>2015-12-22T11:20:45.355Z</time>
      </trkpt>
      <trkpt lat="45.98295" lon="4.97642">
        <ele>295.899993896</ele>
        <time>2015-12-22T11:20:47.375Z</time>
      </trkpt>
      <trkpt lat="45.98293" lon="4.97637">
        <ele>296</ele>
        <time>2015-12-22T11:20:48.355Z</time>
      </trkpt>
      <trkpt lat="45.98289" lon="4.97628">
        <ele>296.200012207</ele>
        <time>2015-12-22T11:20:50.38Z</time>
      </trkpt>
      <trkpt lat="45.98287" lon="4.97622">
        <ele>296.399993896</ele>
        <time>2015-12-22T11:20:51.356Z</time>
      </trkpt>
      <trkpt lat="45.98283" lon="4.97611">
        <ele>295.5</ele>
        <time>2015-12-22T11:20:53.374Z</time>
      </trkpt>
      <trkpt lat="45.98281" lon="4.97605">
        <ele>295.100006104</ele>
        <time>2015-12-22T11:20:54.354Z</time>
      </trkpt>
      <trkpt lat="45.9828" lon="4.97599">
        <ele>295</ele>
        <time>2015-12-22T11:20:55.379Z</time>
      </trkpt>
      <trkpt lat="45.98279" lon="4.97592">
        <ele>295.200012207</ele>
        <time>2015-12-22T11:20:56.396Z</time>
      </trkpt>
      <trkpt lat="45.98278" lon="4.97586">
        <ele>295.100006104</ele>
        <time>2015-12-22T11:20:57.378Z</time>
      </trkpt>
      <trkpt lat="45.98277" lon="4.97579">
        <ele>295.100006104</ele>
        <time>2015-12-22T11:20:58.357Z</time>
      </trkpt>
      <trkpt lat="45.98276" lon="4.97572">
        <ele>294.899993896</ele>
        <time>2015-12-22T11:20:59.375Z</time>
      </trkpt>
      <trkpt lat="45.98275" lon="4.97566">
        <ele>294.700012207</ele>
        <time>2015-12-22T11:21:00.357Z</time>
      </trkpt>
      <trkpt lat="45.98272" lon="4.97554">
        <ele>294.600006104</ele>
        <time>2015-12-22T11:21:02.376Z</time>
      </trkpt>
      <trkpt lat="45.9827" lon="4.97549">
        <ele>294.399993896</ele>
        <time>2015-12-22T11:21:03.356Z</time>
      </trkpt>
      <trkpt lat="45.98267" lon="4.9754">
        <ele>294.700012207</ele>
        <time>2015-12-22T11:21:05.376Z</time>
      </trkpt>
      <trkpt lat="45.98266" lon="4.97535">
        <ele>295</ele>
        <time>2015-12-22T11:21:06.356Z</time>
      </trkpt>
      <trkpt lat="45.98267" lon="4.97524">
        <ele>295</ele>
        <time>2015-12-22T11:21:09.377Z</time>
      </trkpt>
      <trkpt lat="45.98269" lon="4.97522">
        <ele>294.5</ele>
        <time>2015-12-22T11:21:10.354Z</time>
      </trkpt>
      <trkpt lat="45.98275" lon="4.97514">
        <ele>293.700012207</ele>
        <time>2015-12-22T11:21:15.378Z</time>
      </trkpt>
      <trkpt lat="45.98277" lon="4.97513">
        <ele>293.5</ele>
        <time>2015-12-22T11:21:16.355Z</time>
      </trkpt>
      <trkpt lat="45.98278" lon="4.97512">
        <ele>293.399993896</ele>
        <time>2015-12-22T11:21:17.375Z</time>
      </trkpt>
      <trkpt lat="45.98278" lon="4.97512">
        <ele>293.5</ele>
        <time>2015-12-22T11:21:18.355Z</time>
      </trkpt>
      <trkpt lat="45.98278" lon="4.97512">
        <ele>293.600006104</ele>
        <time>2015-12-22T11:22:14.374Z</time>
      </trkpt>
      <trkpt lat="45.98278" lon="4.97511">
        <ele>293.799987793</ele>
        <time>2015-12-22T11:22:15.356Z</time>
      </trkpt>
      <trkpt lat="45.9827" lon="4.97514">
        <ele>296.100006104</ele>
        <time>2015-12-22T11:27:02.374Z</time>
      </trkpt>
      <trkpt lat="45.98268" lon="4.97517">
        <ele>296.200012207</ele>
        <time>2015-12-22T11:27:03.358Z</time>
      </trkpt>
      <trkpt lat="45.98262" lon="4.97522">
        <ele>296.399993896</ele>
        <time>2015-12-22T11:27:05.374Z</time>
      </trkpt>
      <trkpt lat="45.98259" lon="4.97522">
        <ele>296.5</ele>
        <time>2015-12-22T11:27:06.354Z</time>
      </trkpt>
      <trkpt lat="45.98253" lon="4.97518">
        <ele>296.700012207</ele>
        <time>2015-12-22T11:27:08.377Z</time>
      </trkpt>
      <trkpt lat="45.9825" lon="4.97513">
        <ele>296.5</ele>
        <time>2015-12-22T11:27:09.354Z</time>
      </trkpt>
      <trkpt lat="45.98246" lon="4.97502">
        <ele>296.5</ele>
        <time>2015-12-22T11:27:11.375Z</time>
      </trkpt>
      <trkpt lat="45.98243" lon="4.97497">
        <ele>296.600006104</ele>
        <time>2015-12-22T11:27:12.357Z</time>
      </trkpt>
      <trkpt lat="45.9824" lon="4.97491">
        <ele>296.700012207</ele>
        <time>2015-12-22T11:27:13.378Z</time>
      </trkpt>
      <trkpt lat="45.98237" lon="4.97486">
        <ele>296.899993896</ele>
        <time>2015-12-22T11:27:14.375Z</time>
      </trkpt>
      <trkpt lat="45.98234" lon="4.9748">
        <ele>297</ele>
        <time>2015-12-22T11:27:15.38Z</time>
      </trkpt>
      <trkpt lat="45.9823" lon="4.97474">
        <ele>297.100006104</ele>
        <time>2015-12-22T11:27:16.373Z</time>
      </trkpt>
      <trkpt lat="45.98227" lon="4.97468">
        <ele>297.299987793</ele>
        <time>2015-12-22T11:27:17.375Z</time>
      </trkpt>
      <trkpt lat="45.98224" lon="4.97461">
        <ele>297.399993896</ele>
        <time>2015-12-22T11:27:18.355Z</time>
      </trkpt>
      <trkpt lat="45.9822" lon="4.97454">
        <ele>297.299987793</ele>
        <time>2015-12-22T11:27:19.377Z</time>
      </trkpt>
      <trkpt lat="45.98217" lon="4.97447">
        <ele>297.200012207</ele>
        <time>2015-12-22T11:27:20.355Z</time>
      </trkpt>
      <trkpt lat="45.98213" lon="4.9744">
        <ele>297.100006104</ele>
        <time>2015-12-22T11:27:21.376Z</time>
      </trkpt>
      <trkpt lat="45.9821" lon="4.97432">
        <ele>297.100006104</ele>
        <time>2015-12-22T11:27:22.355Z</time>
      </trkpt>
      <trkpt lat="45.98207" lon="4.97424">
        <ele>297.200012207</ele>
        <time>2015-12-22T11:27:23.447Z</time>
      </trkpt>
      <trkpt lat="45.98203" lon="4.97416">
        <ele>297.299987793</ele>
        <time>2015-12-22T11:27:24.358Z</time>
      </trkpt>
      <trkpt lat="45.98201" lon="4.97407">
        <ele>297.299987793</ele>
        <time>2015-12-22T11:27:25.377Z</time>
      </trkpt>
      <trkpt lat="45.98199" lon="4.97399">
        <ele>297.5</ele>
        <time>2015-12-22T11:27:26.354Z</time>
      </trkpt>
      <trkpt lat="45.98197" lon="4.9739">
        <ele>297.200012207</ele>
        <time>2015-12-22T11:27:27.382Z</time>
      </trkpt>
      <trkpt lat="45.98195" lon="4.97382">
        <ele>297</ele>
        <time>2015-12-22T11:27:28.356Z</time>
      </trkpt>
      <trkpt lat="45.98193" lon="4.97373">
        <ele>296.700012207</ele>
        <time>2015-12-22T11:27:29.374Z</time>
      </trkpt>
      <trkpt lat="45.98191" lon="4.97365">
        <ele>296.700012207</ele>
        <time>2015-12-22T11:27:30.355Z</time>
      </trkpt>
      <trkpt lat="45.98189" lon="4.97357">
        <ele>296.600006104</ele>
        <time>2015-12-22T11:27:31.376Z</time>
      </trkpt>
      <trkpt lat="45.98187" lon="4.97348">
        <ele>296.5</ele>
        <time>2015-12-22T11:27:32.354Z</time>
      </trkpt>
      <trkpt lat="45.98185" lon="4.9734">
        <ele>296.5</ele>
        <time>2015-12-22T11:27:33.374Z</time>
      </trkpt>
      <trkpt lat="45.98183" lon="4.97332">
        <ele>296.5</ele>
        <time>2015-12-22T11:27:34.354Z</time>
      </trkpt>
      <trkpt lat="45.98181" lon="4.97323">
        <ele>296.399993896</ele>
        <time>2015-12-22T11:27:35.389Z</time>
      </trkpt>
      <trkpt lat="45.98179" lon="4.97315">
        <ele>296.200012207</ele>
        <time>2015-12-22T11:27:36.354Z</time>
      </trkpt>
      <trkpt lat="45.98176" lon="4.97307">
        <ele>295.399993896</ele>
        <time>2015-12-22T11:27:37.376Z</time>
      </trkpt>
      <trkpt lat="45.98173" lon="4.973">
        <ele>294.799987793</ele>
        <time>2015-12-22T11:27:38.356Z</time>
      </trkpt>
      <trkpt lat="45.98171" lon="4.97292">
        <ele>294.5</ele>
        <time>2015-12-22T11:27:39.376Z</time>
      </trkpt>
      <trkpt lat="45.98169" lon="4.97284">
        <ele>294.299987793</ele>
        <time>2015-12-22T11:27:40.358Z</time>
      </trkpt>
      <trkpt lat="45.98167" lon="4.97276">
        <ele>293.700012207</ele>
        <time>2015-12-22T11:27:41.374Z</time>
      </trkpt>
      <trkpt lat="45.98164" lon="4.97268">
        <ele>293.200012207</ele>
        <time>2015-12-22T11:27:42.355Z</time>
      </trkpt>
      <trkpt lat="45.98162" lon="4.9726">
        <ele>292.799987793</ele>
        <time>2015-12-22T11:27:43.376Z</time>
      </trkpt>
      <trkpt lat="45.9816" lon="4.97252">
        <ele>292.799987793</ele>
        <time>2015-12-22T11:27:44.354Z</time>
      </trkpt>
      <trkpt lat="45.98157" lon="4.97243">
        <ele>293</ele>
        <time>2015-12-22T11:27:45.461Z</time>
      </trkpt>
      <trkpt lat="45.98155" lon="4.97235">
        <ele>292.399993896</ele>
        <time>2015-12-22T11:27:46.354Z</time>
      </trkpt>
      <trkpt lat="45.98152" lon="4.97226">
        <ele>292.399993896</ele>
        <time>2015-12-22T11:27:47.373Z</time>
      </trkpt>
      <trkpt lat="45.9815" lon="4.97217">
        <ele>292.5</ele>
        <time>2015-12-22T11:27:48.416Z</time>
      </trkpt>
      <trkpt lat="45.98148" lon="4.97208">
        <ele>292.299987793</ele>
        <time>2015-12-22T11:27:49.379Z</time>
      </trkpt>
      <trkpt lat="45.98146" lon="4.97199">
        <ele>292.200012207</ele>
        <time>2015-12-22T11:27:50.355Z</time>
      </trkpt>
      <trkpt lat="45.98143" lon="4.9719">
        <ele>292.200012207</ele>
        <time>2015-12-22T11:27:51.375Z</time>
      </trkpt>
      <trkpt lat="45.98141" lon="4.97182">
        <ele>291.899993896</ele>
        <time>2015-12-22T11:27:52.354Z</time>
      </trkpt>
      <trkpt lat="45.98139" lon="4.97174">
        <ele>291.600006104</ele>
        <time>2015-12-22T11:27:53.373Z</time>
      </trkpt>
      <trkpt lat="45.98136" lon="4.97166">
        <ele>291.5</ele>
        <time>2015-12-22T11:27:54.354Z</time>
      </trkpt>
      <trkpt lat="45.98133" lon="4.97157">
        <ele>291.299987793</ele>
        <time>2015-12-22T11:27:55.376Z</time>
      </trkpt>
      <trkpt lat="45.98131" lon="4.97149">
        <ele>291.299987793</ele>
        <time>2015-12-22T11:27:56.353Z</time>
      </trkpt>
      <trkpt lat="45.98128" lon="4.9714">
        <ele>291.399993896</ele>
        <time>2015-12-22T11:27:57.375Z</time>
      </trkpt>
      <trkpt lat="45.98126" lon="4.97131">
        <ele>291.399993896</ele>
        <time>2015-12-22T11:27:58.356Z</time>
      </trkpt>
      <trkpt lat="45.98123" lon="4.97122">
        <ele>291.399993896</ele>
        <time>2015-12-22T11:27:59.373Z</time>
      </trkpt>
      <trkpt lat="45.98121" lon="4.97114">
        <ele>291.299987793</ele>
        <time>2015-12-22T11:28:00.355Z</time>
      </trkpt>
      <trkpt lat="45.98118" lon="4.97105">
        <ele>291</ele>
        <time>2015-12-22T11:28:01.391Z</time>
      </trkpt>
      <trkpt lat="45.98116" lon="4.97096">
        <ele>291</ele>
        <time>2015-12-22T11:28:02.354Z</time>
      </trkpt>
      <trkpt lat="45.98113" lon="4.97087">
        <ele>291.100006104</ele>
        <time>2015-12-22T11:28:03.374Z</time>
      </trkpt>
      <trkpt lat="45.9811" lon="4.97079">
        <ele>291.399993896</ele>
        <time>2015-12-22T11:28:04.354Z</time>
      </trkpt>
      <trkpt lat="45.98108" lon="4.9707">
        <ele>291.299987793</ele>
        <time>2015-12-22T11:28:05.373Z</time>
      </trkpt>
      <trkpt lat="45.98106" lon="4.97061">
        <ele>291.200012207</ele>
        <time>2015-12-22T11:28:06.41Z</time>
      </trkpt>
      <trkpt lat="45.98103" lon="4.97053">
        <ele>291.299987793</ele>
        <time>2015-12-22T11:28:07.38Z</time>
      </trkpt>
      <trkpt lat="45.981" lon="4.97045">
        <ele>290.899993896</ele>
        <time>2015-12-22T11:28:08.355Z</time>
      </trkpt>
      <trkpt lat="45.98097" lon="4.97036">
        <ele>290.700012207</ele>
        <time>2015-12-22T11:28:09.375Z</time>
      </trkpt>
      <trkpt lat="45.98095" lon="4.97028">
        <ele>290.5</ele>
        <time>2015-12-22T11:28:10.354Z</time>
      </trkpt>
      <trkpt lat="45.98092" lon="4.97019">
        <ele>290.200012207</ele>
        <time>2015-12-22T11:28:11.374Z</time>
      </trkpt>
      <trkpt lat="45.98089" lon="4.9701">
        <ele>289.399993896</ele>
        <time>2015-12-22T11:28:12.354Z</time>
      </trkpt>
      <trkpt lat="45.98087" lon="4.97001">
        <ele>289</ele>
        <time>2015-12-22T11:28:13.383Z</time>
      </trkpt>
      <trkpt lat="45.98084" lon="4.96993">
        <ele>288.700012207</ele>
        <time>2015-12-22T11:28:14.354Z</time>
      </trkpt>
      <trkpt lat="45.98082" lon="4.96985">
        <ele>288.5</ele>
        <time>2015-12-22T11:28:15.374Z</time>
      </trkpt>
      <trkpt lat="45.98079" lon="4.96976">
        <ele>288.299987793</ele>
        <time>2015-12-22T11:28:16.354Z</time>
      </trkpt>
      <trkpt lat="45.98076" lon="4.96968">
        <ele>288.200012207</ele>
        <time>2015-12-22T11:28:17.372Z</time>
      </trkpt>
      <trkpt lat="45.98074" lon="4.9696">
        <ele>288</ele>
        <time>2015-12-22T11:28:18.356Z</time>
      </trkpt>
      <trkpt lat="45.98071" lon="4.96951">
        <ele>287.100006104</ele>
        <time>2015-12-22T11:28:19.377Z</time>
      </trkpt>
      <trkpt lat="45.98069" lon="4.96943">
        <ele>286.600006104</ele>
        <time>2015-12-22T11:28:20.377Z</time>
      </trkpt>
      <trkpt lat="45.98066" lon="4.96934">
        <ele>286.5</ele>
        <time>2015-12-22T11:28:21.374Z</time>
      </trkpt>
      <trkpt lat="45.98064" lon="4.96926">
        <ele>286.399993896</ele>
        <time>2015-12-22T11:28:22.371Z</time>
      </trkpt>
      <trkpt lat="45.98061" lon="4.96918">
        <ele>286.399993896</ele>
        <time>2015-12-22T11:28:23.373Z</time>
      </trkpt>
      <trkpt lat="45.98058" lon="4.96909">
        <ele>286.200012207</ele>
        <time>2015-12-22T11:28:24.354Z</time>
      </trkpt>
      <trkpt lat="45.98055" lon="4.96901">
        <ele>286</ele>
        <time>2015-12-22T11:28:25.381Z</time>
      </trkpt>
      <trkpt lat="45.98053" lon="4.96893">
        <ele>285.899993896</ele>
        <time>2015-12-22T11:28:26.355Z</time>
      </trkpt>
      <trkpt lat="45.9805" lon="4.96885">
        <ele>285.799987793</ele>
        <time>2015-12-22T11:28:27.376Z</time>
      </trkpt>
      <trkpt lat="45.98047" lon="4.96877">
        <ele>286.200012207</ele>
        <time>2015-12-22T11:28:28.355Z</time>
      </trkpt>
      <trkpt lat="45.98045" lon="4.96869">
        <ele>285.899993896</ele>
        <time>2015-12-22T11:28:29.477Z</time>
      </trkpt>
      <trkpt lat="45.98042" lon="4.96861">
        <ele>285.600006104</ele>
        <time>2015-12-22T11:28:30.353Z</time>
      </trkpt>
      <trkpt lat="45.9804" lon="4.96853">
        <ele>285.5</ele>
        <time>2015-12-22T11:28:31.378Z</time>
      </trkpt>
      <trkpt lat="45.98037" lon="4.96844">
        <ele>285.600006104</ele>
        <time>2015-12-22T11:28:32.356Z</time>
      </trkpt>
      <trkpt lat="45.98035" lon="4.96836">
        <ele>285.100006104</ele>
        <time>2015-12-22T11:28:33.375Z</time>
      </trkpt>
      <trkpt lat="45.98032" lon="4.96828">
        <ele>284.899993896</ele>
        <time>2015-12-22T11:28:34.353Z</time>
      </trkpt>
      <trkpt lat="45.98029" lon="4.9682">
        <ele>284.700012207</ele>
        <time>2015-12-22T11:28:35.372Z</time>
      </trkpt>
      <trkpt lat="45.98027" lon="4.96812">
        <ele>285</ele>
        <time>2015-12-22T11:28:36.353Z</time>
      </trkpt>
      <trkpt lat="45.98025" lon="4.96804">
        <ele>284.799987793</ele>
        <time>2015-12-22T11:28:37.376Z</time>
      </trkpt>
      <trkpt lat="45.98023" lon="4.96796">
        <ele>285.100006104</ele>
        <time>2015-12-22T11:28:38.354Z</time>
      </trkpt>
      <trkpt lat="45.9802" lon="4.96789">
        <ele>285.299987793</ele>
        <time>2015-12-22T11:28:39.374Z</time>
      </trkpt>
      <trkpt lat="45.98017" lon="4.96781">
        <ele>285.5</ele>
        <time>2015-12-22T11:28:40.353Z</time>
      </trkpt>
      <trkpt lat="45.98014" lon="4.96774">
        <ele>286.200012207</ele>
        <time>2015-12-22T11:28:41.372Z</time>
      </trkpt>
      <trkpt lat="45.98011" lon="4.96766">
        <ele>286.299987793</ele>
        <time>2015-12-22T11:28:42.353Z</time>
      </trkpt>
      <trkpt lat="45.98008" lon="4.96759">
        <ele>287.100006104</ele>
        <time>2015-12-22T11:28:43.419Z</time>
      </trkpt>
      <trkpt lat="45.98005" lon="4.96752">
        <ele>287.399993896</ele>
        <time>2015-12-22T11:28:44.412Z</time>
      </trkpt>
      <trkpt lat="45.98001" lon="4.96745">
        <ele>287.600006104</ele>
        <time>2015-12-22T11:28:45.375Z</time>
      </trkpt>
      <trkpt lat="45.97997" lon="4.96738">
        <ele>287.700012207</ele>
        <time>2015-12-22T11:28:46.353Z</time>
      </trkpt>
      <trkpt lat="45.97994" lon="4.96731">
        <ele>287.799987793</ele>
        <time>2015-12-22T11:28:47.372Z</time>
      </trkpt>
      <trkpt lat="45.97991" lon="4.96724">
        <ele>288.100006104</ele>
        <time>2015-12-22T11:28:48.355Z</time>
      </trkpt>
      <trkpt lat="45.97988" lon="4.96717">
        <ele>288</ele>
        <time>2015-12-22T11:28:49.379Z</time>
      </trkpt>
      <trkpt lat="45.97985" lon="4.9671">
        <ele>288.100006104</ele>
        <time>2015-12-22T11:28:50.353Z</time>
      </trkpt>
      <trkpt lat="45.97982" lon="4.96704">
        <ele>288</ele>
        <time>2015-12-22T11:28:51.374Z</time>
      </trkpt>
      <trkpt lat="45.97979" lon="4.96697">
        <ele>287.799987793</ele>
        <time>2015-12-22T11:28:52.393Z</time>
      </trkpt>
      <trkpt lat="45.97976" lon="4.9669">
        <ele>287.299987793</ele>
        <time>2015-12-22T11:28:53.385Z</time>
      </trkpt>
      <trkpt lat="45.97973" lon="4.96684">
        <ele>287.200012207</ele>
        <time>2015-12-22T11:28:54.353Z</time>
      </trkpt>
      <trkpt lat="45.97969" lon="4.96677">
        <ele>287.399993896</ele>
        <time>2015-12-22T11:28:55.376Z</time>
      </trkpt>
      <trkpt lat="45.97965" lon="4.96669">
        <ele>287.399993896</ele>
        <time>2015-12-22T11:28:56.353Z</time>
      </trkpt>
      <trkpt lat="45.97962" lon="4.96662">
        <ele>287.5</ele>
        <time>2015-12-22T11:28:57.373Z</time>
      </trkpt>
      <trkpt lat="45.97958" lon="4.96655">
        <ele>287.399993896</ele>
        <time>2015-12-22T11:28:58.355Z</time>
      </trkpt>
      <trkpt lat="45.97955" lon="4.96647">
        <ele>287.5</ele>
        <time>2015-12-22T11:28:59.406Z</time>
      </trkpt>
      <trkpt lat="45.97951" lon="4.9664">
        <ele>287.5</ele>
        <time>2015-12-22T11:29:00.353Z</time>
      </trkpt>
      <trkpt lat="45.97948" lon="4.96632">
        <ele>287.5</ele>
        <time>2015-12-22T11:29:01.376Z</time>
      </trkpt>
      <trkpt lat="45.97944" lon="4.96625">
        <ele>287.5</ele>
        <time>2015-12-22T11:29:02.353Z</time>
      </trkpt>
      <trkpt lat="45.9794" lon="4.96617">
        <ele>287.600006104</ele>
        <time>2015-12-22T11:29:03.374Z</time>
      </trkpt>
      <trkpt lat="45.97937" lon="4.9661">
        <ele>287.799987793</ele>
        <time>2015-12-22T11:29:04.353Z</time>
      </trkpt>
      <trkpt lat="45.97934" lon="4.96602">
        <ele>287.799987793</ele>
        <time>2015-12-22T11:29:05.394Z</time>
      </trkpt>
      <trkpt lat="45.97931" lon="4.96595">
        <ele>288.299987793</ele>
        <time>2015-12-22T11:29:06.353Z</time>
      </trkpt>
      <trkpt lat="45.97927" lon="4.96589">
        <ele>288.5</ele>
        <time>2015-12-22T11:29:07.376Z</time>
      </trkpt>
      <trkpt lat="45.97924" lon="4.96581">
        <ele>289</ele>
        <time>2015-12-22T11:29:08.356Z</time>
      </trkpt>
      <trkpt lat="45.9792" lon="4.96574">
        <ele>288.399993896</ele>
        <time>2015-12-22T11:29:09.374Z</time>
      </trkpt>
      <trkpt lat="45.97916" lon="4.96567">
        <ele>288.299987793</ele>
        <time>2015-12-22T11:29:10.354Z</time>
      </trkpt>
      <trkpt lat="45.97913" lon="4.9656">
        <ele>288.299987793</ele>
        <time>2015-12-22T11:29:11.372Z</time>
      </trkpt>
      <trkpt lat="45.97909" lon="4.96552">
        <ele>288.700012207</ele>
        <time>2015-12-22T11:29:12.353Z</time>
      </trkpt>
      <trkpt lat="45.97906" lon="4.96545">
        <ele>288.799987793</ele>
        <time>2015-12-22T11:29:13.376Z</time>
      </trkpt>
      <trkpt lat="45.97902" lon="4.96537">
        <ele>289</ele>
        <time>2015-12-22T11:29:14.354Z</time>
      </trkpt>
      <trkpt lat="45.97898" lon="4.9653">
        <ele>288.799987793</ele>
        <time>2015-12-22T11:29:15.375Z</time>
      </trkpt>
      <trkpt lat="45.97894" lon="4.96522">
        <ele>288.799987793</ele>
        <time>2015-12-22T11:29:16.353Z</time>
      </trkpt>
      <trkpt lat="45.9789" lon="4.96515">
        <ele>289.100006104</ele>
        <time>2015-12-22T11:29:17.372Z</time>
      </trkpt>
      <trkpt lat="45.97886" lon="4.96507">
        <ele>288.899993896</ele>
        <time>2015-12-22T11:29:18.354Z</time>
      </trkpt>
      <trkpt lat="45.97883" lon="4.96499">
        <ele>288.799987793</ele>
        <time>2015-12-22T11:29:19.379Z</time>
      </trkpt>
      <trkpt lat="45.97879" lon="4.96491">
        <ele>288.600006104</ele>
        <time>2015-12-22T11:29:20.371Z</time>
      </trkpt>
      <trkpt lat="45.97875" lon="4.96484">
        <ele>288.600006104</ele>
        <time>2015-12-22T11:29:21.374Z</time>
      </trkpt>
      <trkpt lat="45.97872" lon="4.96476">
        <ele>288.399993896</ele>
        <time>2015-12-22T11:29:22.355Z</time>
      </trkpt>
      <trkpt lat="45.97868" lon="4.96469">
        <ele>288.200012207</ele>
        <time>2015-12-22T11:29:23.372Z</time>
      </trkpt>
      <trkpt lat="45.97865" lon="4.96461">
        <ele>288.200012207</ele>
        <time>2015-12-22T11:29:24.353Z</time>
      </trkpt>
      <trkpt lat="45.97861" lon="4.96454">
        <ele>288.100006104</ele>
        <time>2015-12-22T11:29:25.377Z</time>
      </trkpt>
      <trkpt lat="45.97858" lon="4.96447">
        <ele>288.100006104</ele>
        <time>2015-12-22T11:29:26.352Z</time>
      </trkpt>
      <trkpt lat="45.97855" lon="4.96439">
        <ele>288.700012207</ele>
        <time>2015-12-22T11:29:27.374Z</time>
      </trkpt>
      <trkpt lat="45.97852" lon="4.96432">
        <ele>289</ele>
        <time>2015-12-22T11:29:28.354Z</time>
      </trkpt>
      <trkpt lat="45.97848" lon="4.96425">
        <ele>289.100006104</ele>
        <time>2015-12-22T11:29:29.372Z</time>
      </trkpt>
      <trkpt lat="45.97845" lon="4.96418">
        <ele>289.399993896</ele>
        <time>2015-12-22T11:29:30.354Z</time>
      </trkpt>
      <trkpt lat="45.97841" lon="4.9641">
        <ele>289.700012207</ele>
        <time>2015-12-22T11:29:31.376Z</time>
      </trkpt>
      <trkpt lat="45.97838" lon="4.96403">
        <ele>289.5</ele>
        <time>2015-12-22T11:29:32.353Z</time>
      </trkpt>
      <trkpt lat="45.97835" lon="4.96396">
        <ele>289.700012207</ele>
        <time>2015-12-22T11:29:33.373Z</time>
      </trkpt>
      <trkpt lat="45.97831" lon="4.96389">
        <ele>289.899993896</ele>
        <time>2015-12-22T11:29:34.353Z</time>
      </trkpt>
      <trkpt lat="45.97828" lon="4.96381">
        <ele>290.100006104</ele>
        <time>2015-12-22T11:29:35.374Z</time>
      </trkpt>
      <trkpt lat="45.97825" lon="4.96374">
        <ele>290.399993896</ele>
        <time>2015-12-22T11:29:36.353Z</time>
      </trkpt>
      <trkpt lat="45.97821" lon="4.96367">
        <ele>290.700012207</ele>
        <time>2015-12-22T11:29:37.375Z</time>
      </trkpt>
      <trkpt lat="45.97818" lon="4.96359">
        <ele>290.700012207</ele>
        <time>2015-12-22T11:29:38.355Z</time>
      </trkpt>
      <trkpt lat="45.97815" lon="4.96352">
        <ele>291</ele>
        <time>2015-12-22T11:29:39.373Z</time>
      </trkpt>
      <trkpt lat="45.97811" lon="4.96345">
        <ele>291.200012207</ele>
        <time>2015-12-22T11:29:40.354Z</time>
      </trkpt>
      <trkpt lat="45.97808" lon="4.96338">
        <ele>291.399993896</ele>
        <time>2015-12-22T11:29:41.399Z</time>
      </trkpt>
      <trkpt lat="45.97804" lon="4.96331">
        <ele>291.5</ele>
        <time>2015-12-22T11:29:42.353Z</time>
      </trkpt>
      <trkpt lat="45.97801" lon="4.96324">
        <ele>291.700012207</ele>
        <time>2015-12-22T11:29:43.376Z</time>
      </trkpt>
      <trkpt lat="45.97798" lon="4.96317">
        <ele>291.600006104</ele>
        <time>2015-12-22T11:29:44.353Z</time>
      </trkpt>
      <trkpt lat="45.97794" lon="4.96309">
        <ele>291.899993896</ele>
        <time>2015-12-22T11:29:45.382Z</time>
      </trkpt>
      <trkpt lat="45.97791" lon="4.96303">
        <ele>292</ele>
        <time>2015-12-22T11:29:46.353Z</time>
      </trkpt>
      <trkpt lat="45.97788" lon="4.96296">
        <ele>292.299987793</ele>
        <time>2015-12-22T11:29:47.387Z</time>
      </trkpt>
      <trkpt lat="45.97784" lon="4.96289">
        <ele>292.5</ele>
        <time>2015-12-22T11:29:48.356Z</time>
      </trkpt>
      <trkpt lat="45.97781" lon="4.96282">
        <ele>292.899993896</ele>
        <time>2015-12-22T11:29:49.379Z</time>
      </trkpt>
      <trkpt lat="45.97777" lon="4.96275">
        <ele>293</ele>
        <time>2015-12-22T11:29:50.394Z</time>
      </trkpt>
      <trkpt lat="45.97774" lon="4.96267">
        <ele>292.899993896</ele>
        <time>2015-12-22T11:29:51.374Z</time>
      </trkpt>
      <trkpt lat="45.97771" lon="4.9626">
        <ele>293.100006104</ele>
        <time>2015-12-22T11:29:52.353Z</time>
      </trkpt>
      <trkpt lat="45.97768" lon="4.96253">
        <ele>293.200012207</ele>
        <time>2015-12-22T11:29:53.372Z</time>
      </trkpt>
      <trkpt lat="45.97764" lon="4.96246">
        <ele>292.899993896</ele>
        <time>2015-12-22T11:29:54.354Z</time>
      </trkpt>
      <trkpt lat="45.9776" lon="4.96239">
        <ele>292.600006104</ele>
        <time>2015-12-22T11:29:55.376Z</time>
      </trkpt>
      <trkpt lat="45.97757" lon="4.96232">
        <ele>292.700012207</ele>
        <time>2015-12-22T11:29:56.353Z</time>
      </trkpt>
      <trkpt lat="45.97754" lon="4.96225">
        <ele>292.5</ele>
        <time>2015-12-22T11:29:57.373Z</time>
      </trkpt>
      <trkpt lat="45.9775" lon="4.96217">
        <ele>292.5</ele>
        <time>2015-12-22T11:29:58.357Z</time>
      </trkpt>
      <trkpt lat="45.97747" lon="4.9621">
        <ele>292.700012207</ele>
        <time>2015-12-22T11:29:59.372Z</time>
      </trkpt>
      <trkpt lat="45.97743" lon="4.96203">
        <ele>292.799987793</ele>
        <time>2015-12-22T11:30:00.345Z</time>
      </trkpt>
      <trkpt lat="45.97739" lon="4.96195">
        <ele>292.399993896</ele>
        <time>2015-12-22T11:30:01.376Z</time>
      </trkpt>
      <trkpt lat="45.97736" lon="4.96188">
        <ele>292.200012207</ele>
        <time>2015-12-22T11:30:02.369Z</time>
      </trkpt>
      <trkpt lat="45.97732" lon="4.96181">
        <ele>292.200012207</ele>
        <time>2015-12-22T11:30:03.373Z</time>
      </trkpt>
      <trkpt lat="45.97729" lon="4.96174">
        <ele>292</ele>
        <time>2015-12-22T11:30:04.353Z</time>
      </trkpt>
      <trkpt lat="45.97725" lon="4.96167">
        <ele>292.100006104</ele>
        <time>2015-12-22T11:30:05.371Z</time>
      </trkpt>
      <trkpt lat="45.97722" lon="4.9616">
        <ele>292.100006104</ele>
        <time>2015-12-22T11:30:06.354Z</time>
      </trkpt>
      <trkpt lat="45.97718" lon="4.96153">
        <ele>291.899993896</ele>
        <time>2015-12-22T11:30:07.376Z</time>
      </trkpt>
      <trkpt lat="45.97715" lon="4.96147">
        <ele>291.399993896</ele>
        <time>2015-12-22T11:30:08.358Z</time>
      </trkpt>
      <trkpt lat="45.97711" lon="4.9614">
        <ele>291.399993896</ele>
        <time>2015-12-22T11:30:09.373Z</time>
      </trkpt>
      <trkpt lat="45.97708" lon="4.96134">
        <ele>291.600006104</ele>
        <time>2015-12-22T11:30:10.354Z</time>
      </trkpt>
      <trkpt lat="45.97704" lon="4.96126">
        <ele>291.399993896</ele>
        <time>2015-12-22T11:30:11.375Z</time>
      </trkpt>
      <trkpt lat="45.97701" lon="4.96119">
        <ele>291.299987793</ele>
        <time>2015-12-22T11:30:12.354Z</time>
      </trkpt>
      <trkpt lat="45.97698" lon="4.96112">
        <ele>291.200012207</ele>
        <time>2015-12-22T11:30:13.386Z</time>
      </trkpt>
      <trkpt lat="45.97694" lon="4.96106">
        <ele>291.100006104</ele>
        <time>2015-12-22T11:30:14.354Z</time>
      </trkpt>
      <trkpt lat="45.97691" lon="4.96099">
        <ele>291.299987793</ele>
        <time>2015-12-22T11:30:15.374Z</time>
      </trkpt>
      <trkpt lat="45.97688" lon="4.96092">
        <ele>291.299987793</ele>
        <time>2015-12-22T11:30:16.353Z</time>
      </trkpt>
      <trkpt lat="45.97684" lon="4.96084">
        <ele>291.399993896</ele>
        <time>2015-12-22T11:30:17.372Z</time>
      </trkpt>
      <trkpt lat="45.97681" lon="4.96077">
        <ele>291.100006104</ele>
        <time>2015-12-22T11:30:18.36Z</time>
      </trkpt>
      <trkpt lat="45.97677" lon="4.9607">
        <ele>290.899993896</ele>
        <time>2015-12-22T11:30:19.376Z</time>
      </trkpt>
      <trkpt lat="45.97673" lon="4.96063">
        <ele>290.700012207</ele>
        <time>2015-12-22T11:30:20.353Z</time>
      </trkpt>
      <trkpt lat="45.9767" lon="4.96056">
        <ele>290.700012207</ele>
        <time>2015-12-22T11:30:21.373Z</time>
      </trkpt>
      <trkpt lat="45.97667" lon="4.96049">
        <ele>290.299987793</ele>
        <time>2015-12-22T11:30:22.353Z</time>
      </trkpt>
      <trkpt lat="45.97663" lon="4.96041">
        <ele>290.200012207</ele>
        <time>2015-12-22T11:30:23.438Z</time>
      </trkpt>
      <trkpt lat="45.9766" lon="4.96035">
        <ele>290.200012207</ele>
        <time>2015-12-22T11:30:24.353Z</time>
      </trkpt>
      <trkpt lat="45.97657" lon="4.96028">
        <ele>290.100006104</ele>
        <time>2015-12-22T11:30:25.376Z</time>
      </trkpt>
      <trkpt lat="45.97654" lon="4.96022">
        <ele>290</ele>
        <time>2015-12-22T11:30:26.353Z</time>
      </trkpt>
      <trkpt lat="45.97651" lon="4.96016">
        <ele>289.799987793</ele>
        <time>2015-12-22T11:30:27.373Z</time>
      </trkpt>
      <trkpt lat="45.97648" lon="4.96009">
        <ele>289.5</ele>
        <time>2015-12-22T11:30:28.361Z</time>
      </trkpt>
      <trkpt lat="45.97645" lon="4.96003">
        <ele>289.5</ele>
        <time>2015-12-22T11:30:29.416Z</time>
      </trkpt>
      <trkpt lat="45.97642" lon="4.95996">
        <ele>289.299987793</ele>
        <time>2015-12-22T11:30:30.353Z</time>
      </trkpt>
      <trkpt lat="45.97639" lon="4.95989">
        <ele>289.100006104</ele>
        <time>2015-12-22T11:30:31.381Z</time>
      </trkpt>
      <trkpt lat="45.97635" lon="4.95982">
        <ele>289.200012207</ele>
        <time>2015-12-22T11:30:32.355Z</time>
      </trkpt>
      <trkpt lat="45.97632" lon="4.95976">
        <ele>289.200012207</ele>
        <time>2015-12-22T11:30:33.373Z</time>
      </trkpt>
      <trkpt lat="45.97629" lon="4.95968">
        <ele>289</ele>
        <time>2015-12-22T11:30:34.352Z</time>
      </trkpt>
      <trkpt lat="45.97625" lon="4.95961">
        <ele>289.100006104</ele>
        <time>2015-12-22T11:30:35.393Z</time>
      </trkpt>
      <trkpt lat="45.97622" lon="4.95954">
        <ele>289.399993896</ele>
        <time>2015-12-22T11:30:36.353Z</time>
      </trkpt>
      <trkpt lat="45.97619" lon="4.95947">
        <ele>289.5</ele>
        <time>2015-12-22T11:30:37.378Z</time>
      </trkpt>
      <trkpt lat="45.97615" lon="4.9594">
        <ele>289.399993896</ele>
        <time>2015-12-22T11:30:38.364Z</time>
      </trkpt>
      <trkpt lat="45.97612" lon="4.95933">
        <ele>289.200012207</ele>
        <time>2015-12-22T11:30:39.389Z</time>
      </trkpt>
      <trkpt lat="45.97609" lon="4.95926">
        <ele>289.200012207</ele>
        <time>2015-12-22T11:30:40.353Z</time>
      </trkpt>
      <trkpt lat="45.97605" lon="4.95919">
        <ele>289.399993896</ele>
        <time>2015-12-22T11:30:41.372Z</time>
      </trkpt>
      <trkpt lat="45.97602" lon="4.95913">
        <ele>289.5</ele>
        <time>2015-12-22T11:30:42.352Z</time>
      </trkpt>
      <trkpt lat="45.97598" lon="4.95906">
        <ele>289.399993896</ele>
        <time>2015-12-22T11:30:43.375Z</time>
      </trkpt>
      <trkpt lat="45.97594" lon="4.95899">
        <ele>289.299987793</ele>
        <time>2015-12-22T11:30:44.352Z</time>
      </trkpt>
      <trkpt lat="45.97591" lon="4.95893">
        <ele>289.200012207</ele>
        <time>2015-12-22T11:30:45.414Z</time>
      </trkpt>
      <trkpt lat="45.97588" lon="4.95886">
        <ele>289.5</ele>
        <time>2015-12-22T11:30:46.352Z</time>
      </trkpt>
      <trkpt lat="45.97585" lon="4.95879">
        <ele>289.600006104</ele>
        <time>2015-12-22T11:30:47.372Z</time>
      </trkpt>
      <trkpt lat="45.97582" lon="4.95873">
        <ele>289.799987793</ele>
        <time>2015-12-22T11:30:48.362Z</time>
      </trkpt>
      <trkpt lat="45.97579" lon="4.95866">
        <ele>290.299987793</ele>
        <time>2015-12-22T11:30:49.378Z</time>
      </trkpt>
      <trkpt lat="45.97576" lon="4.9586">
        <ele>290.5</ele>
        <time>2015-12-22T11:30:50.352Z</time>
      </trkpt>
      <trkpt lat="45.97573" lon="4.95853">
        <ele>290.899993896</ele>
        <time>2015-12-22T11:30:51.375Z</time>
      </trkpt>
      <trkpt lat="45.97569" lon="4.95846">
        <ele>291.600006104</ele>
        <time>2015-12-22T11:30:52.353Z</time>
      </trkpt>
      <trkpt lat="45.97566" lon="4.95839">
        <ele>292</ele>
        <time>2015-12-22T11:30:53.372Z</time>
      </trkpt>
      <trkpt lat="45.97563" lon="4.95832">
        <ele>292.100006104</ele>
        <time>2015-12-22T11:30:54.353Z</time>
      </trkpt>
      <trkpt lat="45.9756" lon="4.95826">
        <ele>292.299987793</ele>
        <time>2015-12-22T11:30:55.391Z</time>
      </trkpt>
      <trkpt lat="45.97556" lon="4.9582">
        <ele>292.5</ele>
        <time>2015-12-22T11:30:56.352Z</time>
      </trkpt>
      <trkpt lat="45.97553" lon="4.95813">
        <ele>293</ele>
        <time>2015-12-22T11:30:57.373Z</time>
      </trkpt>
      <trkpt lat="45.9755" lon="4.95806">
        <ele>293.600006104</ele>
        <time>2015-12-22T11:30:58.364Z</time>
      </trkpt>
      <trkpt lat="45.97547" lon="4.95799">
        <ele>293.899993896</ele>
        <time>2015-12-22T11:30:59.372Z</time>
      </trkpt>
      <trkpt lat="45.97544" lon="4.95793">
        <ele>294.100006104</ele>
        <time>2015-12-22T11:31:00.353Z</time>
      </trkpt>
      <trkpt lat="45.97541" lon="4.95786">
        <ele>294.5</ele>
        <time>2015-12-22T11:31:01.375Z</time>
      </trkpt>
      <trkpt lat="45.97538" lon="4.9578">
        <ele>294.299987793</ele>
        <time>2015-12-22T11:31:02.353Z</time>
      </trkpt>
      <trkpt lat="45.97535" lon="4.95773">
        <ele>294.299987793</ele>
        <time>2015-12-22T11:31:03.376Z</time>
      </trkpt>
      <trkpt lat="45.97532" lon="4.95767">
        <ele>294.200012207</ele>
        <time>2015-12-22T11:31:04.353Z</time>
      </trkpt>
      <trkpt lat="45.97529" lon="4.95761">
        <ele>294.100006104</ele>
        <time>2015-12-22T11:31:05.373Z</time>
      </trkpt>
      <trkpt lat="45.97525" lon="4.95754">
        <ele>293.700012207</ele>
        <time>2015-12-22T11:31:06.353Z</time>
      </trkpt>
      <trkpt lat="45.97523" lon="4.95748">
        <ele>293.5</ele>
        <time>2015-12-22T11:31:07.427Z</time>
      </trkpt>
      <trkpt lat="45.9752" lon="4.95742">
        <ele>293.200012207</ele>
        <time>2015-12-22T11:31:08.369Z</time>
      </trkpt>
      <trkpt lat="45.97516" lon="4.95736">
        <ele>292.899993896</ele>
        <time>2015-12-22T11:31:09.482Z</time>
      </trkpt>
      <trkpt lat="45.97513" lon="4.9573">
        <ele>292.299987793</ele>
        <time>2015-12-22T11:31:10.353Z</time>
      </trkpt>
      <trkpt lat="45.97511" lon="4.95724">
        <ele>292.299987793</ele>
        <time>2015-12-22T11:31:11.387Z</time>
      </trkpt>
      <trkpt lat="45.97508" lon="4.95718">
        <ele>292.399993896</ele>
        <time>2015-12-22T11:31:12.353Z</time>
      </trkpt>
      <trkpt lat="45.97505" lon="4.95712">
        <ele>292.299987793</ele>
        <time>2015-12-22T11:31:13.376Z</time>
      </trkpt>
      <trkpt lat="45.97502" lon="4.95705">
        <ele>292</ele>
        <time>2015-12-22T11:31:14.353Z</time>
      </trkpt>
      <trkpt lat="45.97499" lon="4.95699">
        <ele>292.100006104</ele>
        <time>2015-12-22T11:31:15.373Z</time>
      </trkpt>
      <trkpt lat="45.97497" lon="4.95693">
        <ele>291.899993896</ele>
        <time>2015-12-22T11:31:16.353Z</time>
      </trkpt>
      <trkpt lat="45.97494" lon="4.95686">
        <ele>291.700012207</ele>
        <time>2015-12-22T11:31:17.424Z</time>
      </trkpt>
      <trkpt lat="45.97491" lon="4.9568">
        <ele>292.200012207</ele>
        <time>2015-12-22T11:31:18.37Z</time>
      </trkpt>
      <trkpt lat="45.97488" lon="4.95674">
        <ele>292.100006104</ele>
        <time>2015-12-22T11:31:19.375Z</time>
      </trkpt>
      <trkpt lat="45.97485" lon="4.95668">
        <ele>292.600006104</ele>
        <time>2015-12-22T11:31:20.377Z</time>
      </trkpt>
      <trkpt lat="45.97482" lon="4.95662">
        <ele>292.5</ele>
        <time>2015-12-22T11:31:21.373Z</time>
      </trkpt>
      <trkpt lat="45.97479" lon="4.95656">
        <ele>292.600006104</ele>
        <time>2015-12-22T11:31:22.356Z</time>
      </trkpt>
      <trkpt lat="45.97476" lon="4.95651">
        <ele>292.600006104</ele>
        <time>2015-12-22T11:31:23.372Z</time>
      </trkpt>
      <trkpt lat="45.97473" lon="4.95645">
        <ele>292.899993896</ele>
        <time>2015-12-22T11:31:24.354Z</time>
      </trkpt>
      <trkpt lat="45.9747" lon="4.95639">
        <ele>293.399993896</ele>
        <time>2015-12-22T11:31:25.381Z</time>
      </trkpt>
      <trkpt lat="45.97468" lon="4.95632">
        <ele>293.799987793</ele>
        <time>2015-12-22T11:31:26.353Z</time>
      </trkpt>
      <trkpt lat="45.97465" lon="4.95626">
        <ele>294.299987793</ele>
        <time>2015-12-22T11:31:27.373Z</time>
      </trkpt>
      <trkpt lat="45.97463" lon="4.95619">
        <ele>294.399993896</ele>
        <time>2015-12-22T11:31:28.369Z</time>
      </trkpt>
      <trkpt lat="45.9746" lon="4.95613">
        <ele>294.799987793</ele>
        <time>2015-12-22T11:31:29.375Z</time>
      </trkpt>
      <trkpt lat="45.97457" lon="4.95607">
        <ele>295</ele>
        <time>2015-12-22T11:31:30.346Z</time>
      </trkpt>
      <trkpt lat="45.97453" lon="4.95601">
        <ele>295.200012207</ele>
        <time>2015-12-22T11:31:31.375Z</time>
      </trkpt>
      <trkpt lat="45.97451" lon="4.95595">
        <ele>295.399993896</ele>
        <time>2015-12-22T11:31:32.372Z</time>
      </trkpt>
      <trkpt lat="45.97448" lon="4.95588">
        <ele>295.700012207</ele>
        <time>2015-12-22T11:31:33.391Z</time>
      </trkpt>
      <trkpt lat="45.97445" lon="4.95582">
        <ele>296</ele>
        <time>2015-12-22T11:31:34.354Z</time>
      </trkpt>
      <trkpt lat="45.97442" lon="4.95576">
        <ele>296.299987793</ele>
        <time>2015-12-22T11:31:35.372Z</time>
      </trkpt>
      <trkpt lat="45.97438" lon="4.95569">
        <ele>296.5</ele>
        <time>2015-12-22T11:31:36.353Z</time>
      </trkpt>
      <trkpt lat="45.97435" lon="4.95563">
        <ele>296.799987793</ele>
        <time>2015-12-22T11:31:37.375Z</time>
      </trkpt>
      <trkpt lat="45.97432" lon="4.95557">
        <ele>297.100006104</ele>
        <time>2015-12-22T11:31:38.368Z</time>
      </trkpt>
      <trkpt lat="45.97429" lon="4.95551">
        <ele>297.700012207</ele>
        <time>2015-12-22T11:31:39.376Z</time>
      </trkpt>
      <trkpt lat="45.97426" lon="4.95544">
        <ele>298.100006104</ele>
        <time>2015-12-22T11:31:40.352Z</time>
      </trkpt>
      <trkpt lat="45.97422" lon="4.95538">
        <ele>298.200012207</ele>
        <time>2015-12-22T11:31:41.371Z</time>
      </trkpt>
      <trkpt lat="45.9742" lon="4.95533">
        <ele>298.5</ele>
        <time>2015-12-22T11:31:42.352Z</time>
      </trkpt>
      <trkpt lat="45.97417" lon="4.95526">
        <ele>298.600006104</ele>
        <time>2015-12-22T11:31:43.375Z</time>
      </trkpt>
      <trkpt lat="45.97414" lon="4.9552">
        <ele>298.799987793</ele>
        <time>2015-12-22T11:31:44.354Z</time>
      </trkpt>
      <trkpt lat="45.97411" lon="4.95513">
        <ele>299</ele>
        <time>2015-12-22T11:31:45.513Z</time>
      </trkpt>
      <trkpt lat="45.97408" lon="4.95507">
        <ele>299.200012207</ele>
        <time>2015-12-22T11:31:46.357Z</time>
      </trkpt>
      <trkpt lat="45.97406" lon="4.95501">
        <ele>299.399993896</ele>
        <time>2015-12-22T11:31:47.373Z</time>
      </trkpt>
      <trkpt lat="45.97403" lon="4.95494">
        <ele>299.100006104</ele>
        <time>2015-12-22T11:31:48.373Z</time>
      </trkpt>
      <trkpt lat="45.974" lon="4.95488">
        <ele>298.700012207</ele>
        <time>2015-12-22T11:31:49.378Z</time>
      </trkpt>
      <trkpt lat="45.97397" lon="4.95481">
        <ele>298.700012207</ele>
        <time>2015-12-22T11:31:50.353Z</time>
      </trkpt>
      <trkpt lat="45.97395" lon="4.95475">
        <ele>298.899993896</ele>
        <time>2015-12-22T11:31:51.373Z</time>
      </trkpt>
      <trkpt lat="45.97392" lon="4.95469">
        <ele>299.200012207</ele>
        <time>2015-12-22T11:31:52.353Z</time>
      </trkpt>
      <trkpt lat="45.97389" lon="4.95463">
        <ele>299.200012207</ele>
        <time>2015-12-22T11:31:53.426Z</time>
      </trkpt>
      <trkpt lat="45.97385" lon="4.95456">
        <ele>299</ele>
        <time>2015-12-22T11:31:54.354Z</time>
      </trkpt>
      <trkpt lat="45.97382" lon="4.95449">
        <ele>298.299987793</ele>
        <time>2015-12-22T11:31:55.377Z</time>
      </trkpt>
      <trkpt lat="45.97379" lon="4.95443">
        <ele>297.799987793</ele>
        <time>2015-12-22T11:31:56.352Z</time>
      </trkpt>
      <trkpt lat="45.97375" lon="4.95436">
        <ele>297.200012207</ele>
        <time>2015-12-22T11:31:57.373Z</time>
      </trkpt>
      <trkpt lat="45.97372" lon="4.9543">
        <ele>297.100006104</ele>
        <time>2015-12-22T11:31:58.373Z</time>
      </trkpt>
      <trkpt lat="45.97369" lon="4.95424">
        <ele>296.700012207</ele>
        <time>2015-12-22T11:31:59.372Z</time>
      </trkpt>
      <trkpt lat="45.97366" lon="4.95417">
        <ele>296.399993896</ele>
        <time>2015-12-22T11:32:00.353Z</time>
      </trkpt>
      <trkpt lat="45.97363" lon="4.95411">
        <ele>296.600006104</ele>
        <time>2015-12-22T11:32:01.375Z</time>
      </trkpt>
      <trkpt lat="45.9736" lon="4.95405">
        <ele>296.700012207</ele>
        <time>2015-12-22T11:32:02.352Z</time>
      </trkpt>
      <trkpt lat="45.97357" lon="4.95398">
        <ele>297</ele>
        <time>2015-12-22T11:32:03.372Z</time>
      </trkpt>
      <trkpt lat="45.97354" lon="4.95391">
        <ele>297.100006104</ele>
        <time>2015-12-22T11:32:04.352Z</time>
      </trkpt>
      <trkpt lat="45.97351" lon="4.95385">
        <ele>297.200012207</ele>
        <time>2015-12-22T11:32:05.392Z</time>
      </trkpt>
      <trkpt lat="45.97347" lon="4.95379">
        <ele>297.299987793</ele>
        <time>2015-12-22T11:32:06.354Z</time>
      </trkpt>
      <trkpt lat="45.97344" lon="4.95373">
        <ele>296.899993896</ele>
        <time>2015-12-22T11:32:07.583Z</time>
      </trkpt>
      <trkpt lat="45.97341" lon="4.95366">
        <ele>297.299987793</ele>
        <time>2015-12-22T11:32:08.374Z</time>
      </trkpt>
      <trkpt lat="45.97337" lon="4.9536">
        <ele>297.5</ele>
        <time>2015-12-22T11:32:09.387Z</time>
      </trkpt>
      <trkpt lat="45.97334" lon="4.95353">
        <ele>297.5</ele>
        <time>2015-12-22T11:32:10.352Z</time>
      </trkpt>
      <trkpt lat="45.97331" lon="4.95347">
        <ele>297.799987793</ele>
        <time>2015-12-22T11:32:11.371Z</time>
      </trkpt>
      <trkpt lat="45.97328" lon="4.95342">
        <ele>297.899993896</ele>
        <time>2015-12-22T11:32:12.352Z</time>
      </trkpt>
      <trkpt lat="45.97325" lon="4.95336">
        <ele>298.200012207</ele>
        <time>2015-12-22T11:32:13.375Z</time>
      </trkpt>
      <trkpt lat="45.97322" lon="4.9533">
        <ele>298.299987793</ele>
        <time>2015-12-22T11:32:14.352Z</time>
      </trkpt>
      <trkpt lat="45.97319" lon="4.95325">
        <ele>298.5</ele>
        <time>2015-12-22T11:32:15.372Z</time>
      </trkpt>
      <trkpt lat="45.97316" lon="4.95319">
        <ele>298.600006104</ele>
        <time>2015-12-22T11:32:16.352Z</time>
      </trkpt>
      <trkpt lat="45.97313" lon="4.95313">
        <ele>298.899993896</ele>
        <time>2015-12-22T11:32:17.371Z</time>
      </trkpt>
      <trkpt lat="45.9731" lon="4.95306">
        <ele>298.799987793</ele>
        <time>2015-12-22T11:32:18.375Z</time>
      </trkpt>
      <trkpt lat="45.97307" lon="4.953">
        <ele>299</ele>
        <time>2015-12-22T11:32:19.385Z</time>
      </trkpt>
      <trkpt lat="45.97304" lon="4.95294">
        <ele>299.299987793</ele>
        <time>2015-12-22T11:32:20.367Z</time>
      </trkpt>
      <trkpt lat="45.97301" lon="4.95288">
        <ele>299.100006104</ele>
        <time>2015-12-22T11:32:21.38Z</time>
      </trkpt>
      <trkpt lat="45.97298" lon="4.95282">
        <ele>299.200012207</ele>
        <time>2015-12-22T11:32:22.359Z</time>
      </trkpt>
      <trkpt lat="45.97295" lon="4.95275">
        <ele>299.399993896</ele>
        <time>2015-12-22T11:32:23.667Z</time>
      </trkpt>
      <trkpt lat="45.97293" lon="4.95269">
        <ele>299.5</ele>
        <time>2015-12-22T11:32:24.373Z</time>
      </trkpt>
      <trkpt lat="45.9729" lon="4.95263">
        <ele>299.399993896</ele>
        <time>2015-12-22T11:32:25.423Z</time>
      </trkpt>
      <trkpt lat="45.97287" lon="4.95257">
        <ele>299</ele>
        <time>2015-12-22T11:32:26.359Z</time>
      </trkpt>
      <trkpt lat="45.97284" lon="4.9525">
        <ele>298.600006104</ele>
        <time>2015-12-22T11:32:27.373Z</time>
      </trkpt>
      <trkpt lat="45.97281" lon="4.95245">
        <ele>298.100006104</ele>
        <time>2015-12-22T11:32:28.376Z</time>
      </trkpt>
      <trkpt lat="45.97278" lon="4.95238">
        <ele>298.100006104</ele>
        <time>2015-12-22T11:32:29.481Z</time>
      </trkpt>
      <trkpt lat="45.97275" lon="4.95232">
        <ele>297.799987793</ele>
        <time>2015-12-22T11:32:30.356Z</time>
      </trkpt>
      <trkpt lat="45.97271" lon="4.95226">
        <ele>297.5</ele>
        <time>2015-12-22T11:32:31.413Z</time>
      </trkpt>
      <trkpt lat="45.97268" lon="4.9522">
        <ele>297.5</ele>
        <time>2015-12-22T11:32:32.353Z</time>
      </trkpt>
      <trkpt lat="45.97265" lon="4.95214">
        <ele>297.200012207</ele>
        <time>2015-12-22T11:32:33.375Z</time>
      </trkpt>
      <trkpt lat="45.97262" lon="4.95208">
        <ele>296.600006104</ele>
        <time>2015-12-22T11:32:34.354Z</time>
      </trkpt>
      <trkpt lat="45.97259" lon="4.95202">
        <ele>296.600006104</ele>
        <time>2015-12-22T11:32:35.371Z</time>
      </trkpt>
      <trkpt lat="45.97256" lon="4.95195">
        <ele>296.600006104</ele>
        <time>2015-12-22T11:32:36.352Z</time>
      </trkpt>
      <trkpt lat="45.97253" lon="4.95189">
        <ele>296.200012207</ele>
        <time>2015-12-22T11:32:37.376Z</time>
      </trkpt>
      <trkpt lat="45.9725" lon="4.95183">
        <ele>296</ele>
        <time>2015-12-22T11:32:38.378Z</time>
      </trkpt>
      <trkpt lat="45.97247" lon="4.95176">
        <ele>295.899993896</ele>
        <time>2015-12-22T11:32:39.374Z</time>
      </trkpt>
      <trkpt lat="45.97245" lon="4.9517">
        <ele>296.100006104</ele>
        <time>2015-12-22T11:32:40.352Z</time>
      </trkpt>
      <trkpt lat="45.97242" lon="4.95163">
        <ele>296</ele>
        <time>2015-12-22T11:32:41.506Z</time>
      </trkpt>
      <trkpt lat="45.97239" lon="4.95157">
        <ele>296.100006104</ele>
        <time>2015-12-22T11:32:42.369Z</time>
      </trkpt>
      <trkpt lat="45.97237" lon="4.95151">
        <ele>296.299987793</ele>
        <time>2015-12-22T11:32:43.378Z</time>
      </trkpt>
      <trkpt lat="45.97235" lon="4.95144">
        <ele>296.600006104</ele>
        <time>2015-12-22T11:32:44.354Z</time>
      </trkpt>
      <trkpt lat="45.97232" lon="4.95137">
        <ele>296.799987793</ele>
        <time>2015-12-22T11:32:45.401Z</time>
      </trkpt>
      <trkpt lat="45.97229" lon="4.9513">
        <ele>296.899993896</ele>
        <time>2015-12-22T11:32:46.353Z</time>
      </trkpt>
      <trkpt lat="45.97226" lon="4.95123">
        <ele>297.200012207</ele>
        <time>2015-12-22T11:32:47.432Z</time>
      </trkpt>
      <trkpt lat="45.97224" lon="4.95116">
        <ele>297.299987793</ele>
        <time>2015-12-22T11:32:48.384Z</time>
      </trkpt>
      <trkpt lat="45.97222" lon="4.95109">
        <ele>297.399993896</ele>
        <time>2015-12-22T11:32:49.52Z</time>
      </trkpt>
      <trkpt lat="45.97219" lon="4.95102">
        <ele>297.200012207</ele>
        <time>2015-12-22T11:32:50.376Z</time>
      </trkpt>
      <trkpt lat="45.97216" lon="4.95095">
        <ele>297.200012207</ele>
        <time>2015-12-22T11:32:51.375Z</time>
      </trkpt>
      <trkpt lat="45.97213" lon="4.95088">
        <ele>296.700012207</ele>
        <time>2015-12-22T11:32:52.353Z</time>
      </trkpt>
      <trkpt lat="45.97211" lon="4.95081">
        <ele>296.5</ele>
        <time>2015-12-22T11:32:53.373Z</time>
      </trkpt>
      <trkpt lat="45.97209" lon="4.95074">
        <ele>296.5</ele>
        <time>2015-12-22T11:32:54.353Z</time>
      </trkpt>
      <trkpt lat="45.97206" lon="4.95066">
        <ele>296.600006104</ele>
        <time>2015-12-22T11:32:55.38Z</time>
      </trkpt>
      <trkpt lat="45.97203" lon="4.95059">
        <ele>296.600006104</ele>
        <time>2015-12-22T11:32:56.356Z</time>
      </trkpt>
      <trkpt lat="45.972" lon="4.95051">
        <ele>296.5</ele>
        <time>2015-12-22T11:32:57.373Z</time>
      </trkpt>
      <trkpt lat="45.97197" lon="4.95044">
        <ele>296.399993896</ele>
        <time>2015-12-22T11:32:58.38Z</time>
      </trkpt>
      <trkpt lat="45.97195" lon="4.95036">
        <ele>296.299987793</ele>
        <time>2015-12-22T11:32:59.371Z</time>
      </trkpt>
      <trkpt lat="45.97192" lon="4.95029">
        <ele>295.899993896</ele>
        <time>2015-12-22T11:33:00.354Z</time>
      </trkpt>
      <trkpt lat="45.97189" lon="4.95021">
        <ele>296</ele>
        <time>2015-12-22T11:33:01.376Z</time>
      </trkpt>
      <trkpt lat="45.97186" lon="4.95014">
        <ele>296.399993896</ele>
        <time>2015-12-22T11:33:02.353Z</time>
      </trkpt>
      <trkpt lat="45.97183" lon="4.95006">
        <ele>296.600006104</ele>
        <time>2015-12-22T11:33:03.375Z</time>
      </trkpt>
      <trkpt lat="45.97181" lon="4.94998">
        <ele>296.799987793</ele>
        <time>2015-12-22T11:33:04.352Z</time>
      </trkpt>
      <trkpt lat="45.97178" lon="4.9499">
        <ele>297.100006104</ele>
        <time>2015-12-22T11:33:05.371Z</time>
      </trkpt>
      <trkpt lat="45.97175" lon="4.94982">
        <ele>296.600006104</ele>
        <time>2015-12-22T11:33:06.37Z</time>
      </trkpt>
      <trkpt lat="45.97172" lon="4.94974">
        <ele>296.299987793</ele>
        <time>2015-12-22T11:33:07.375Z</time>
      </trkpt>
      <trkpt lat="45.9717" lon="4.94966">
        <ele>296.100006104</ele>
        <time>2015-12-22T11:33:08.383Z</time>
      </trkpt>
      <trkpt lat="45.97167" lon="4.94959">
        <ele>295.600006104</ele>
        <time>2015-12-22T11:33:09.373Z</time>
      </trkpt>
      <trkpt lat="45.97164" lon="4.94952">
        <ele>295.200012207</ele>
        <time>2015-12-22T11:33:10.352Z</time>
      </trkpt>
      <trkpt lat="45.97162" lon="4.94945">
        <ele>294.899993896</ele>
        <time>2015-12-22T11:33:11.371Z</time>
      </trkpt>
      <trkpt lat="45.97159" lon="4.94938">
        <ele>294.799987793</ele>
        <time>2015-12-22T11:33:12.352Z</time>
      </trkpt>
      <trkpt lat="45.97156" lon="4.9493">
        <ele>295</ele>
        <time>2015-12-22T11:33:13.378Z</time>
      </trkpt>
      <trkpt lat="45.97154" lon="4.94923">
        <ele>295.299987793</ele>
        <time>2015-12-22T11:33:14.353Z</time>
      </trkpt>
      <trkpt lat="45.97151" lon="4.94916">
        <ele>295.700012207</ele>
        <time>2015-12-22T11:33:15.373Z</time>
      </trkpt>
      <trkpt lat="45.97148" lon="4.94908">
        <ele>296.299987793</ele>
        <time>2015-12-22T11:33:16.353Z</time>
      </trkpt>
      <trkpt lat="45.97146" lon="4.949">
        <ele>296.600006104</ele>
        <time>2015-12-22T11:33:17.373Z</time>
      </trkpt>
      <trkpt lat="45.97142" lon="4.94893">
        <ele>296.600006104</ele>
        <time>2015-12-22T11:33:18.384Z</time>
      </trkpt>
      <trkpt lat="45.9714" lon="4.94885">
        <ele>296.799987793</ele>
        <time>2015-12-22T11:33:19.382Z</time>
      </trkpt>
      <trkpt lat="45.97137" lon="4.94877">
        <ele>297.100006104</ele>
        <time>2015-12-22T11:33:20.354Z</time>
      </trkpt>
      <trkpt lat="45.97135" lon="4.9487">
        <ele>297.100006104</ele>
        <time>2015-12-22T11:33:21.374Z</time>
      </trkpt>
      <trkpt lat="45.97132" lon="4.94862">
        <ele>296.799987793</ele>
        <time>2015-12-22T11:33:22.352Z</time>
      </trkpt>
      <trkpt lat="45.97129" lon="4.94854">
        <ele>296.799987793</ele>
        <time>2015-12-22T11:33:23.371Z</time>
      </trkpt>
      <trkpt lat="45.97126" lon="4.94846">
        <ele>296.5</ele>
        <time>2015-12-22T11:33:24.353Z</time>
      </trkpt>
      <trkpt lat="45.97124" lon="4.94839">
        <ele>296.600006104</ele>
        <time>2015-12-22T11:33:25.375Z</time>
      </trkpt>
      <trkpt lat="45.97121" lon="4.94831">
        <ele>296.799987793</ele>
        <time>2015-12-22T11:33:26.352Z</time>
      </trkpt>
      <trkpt lat="45.97118" lon="4.94824">
        <ele>297.100006104</ele>
        <time>2015-12-22T11:33:27.373Z</time>
      </trkpt>
      <trkpt lat="45.97115" lon="4.94817">
        <ele>297.200012207</ele>
        <time>2015-12-22T11:33:28.385Z</time>
      </trkpt>
      <trkpt lat="45.97112" lon="4.94809">
        <ele>297.399993896</ele>
        <time>2015-12-22T11:33:29.371Z</time>
      </trkpt>
      <trkpt lat="45.97109" lon="4.94803">
        <ele>297.399993896</ele>
        <time>2015-12-22T11:33:30.352Z</time>
      </trkpt>
      <trkpt lat="45.97106" lon="4.94796">
        <ele>297.600006104</ele>
        <time>2015-12-22T11:33:31.375Z</time>
      </trkpt>
      <trkpt lat="45.97104" lon="4.94789">
        <ele>297.600006104</ele>
        <time>2015-12-22T11:33:32.372Z</time>
      </trkpt>
      <trkpt lat="45.97101" lon="4.94782">
        <ele>297.700012207</ele>
        <time>2015-12-22T11:33:33.373Z</time>
      </trkpt>
      <trkpt lat="45.97099" lon="4.94776">
        <ele>297.700012207</ele>
        <time>2015-12-22T11:33:34.353Z</time>
      </trkpt>
      <trkpt lat="45.97096" lon="4.94769">
        <ele>297.600006104</ele>
        <time>2015-12-22T11:33:35.393Z</time>
      </trkpt>
      <trkpt lat="45.97093" lon="4.94762">
        <ele>298</ele>
        <time>2015-12-22T11:33:36.352Z</time>
      </trkpt>
      <trkpt lat="45.97091" lon="4.94754">
        <ele>297.799987793</ele>
        <time>2015-12-22T11:33:37.385Z</time>
      </trkpt>
      <trkpt lat="45.97088" lon="4.94748">
        <ele>297.899993896</ele>
        <time>2015-12-22T11:33:38.386Z</time>
      </trkpt>
      <trkpt lat="45.97086" lon="4.94741">
        <ele>298.200012207</ele>
        <time>2015-12-22T11:33:39.376Z</time>
      </trkpt>
      <trkpt lat="45.97084" lon="4.94734">
        <ele>298.399993896</ele>
        <time>2015-12-22T11:33:40.352Z</time>
      </trkpt>
      <trkpt lat="45.97081" lon="4.94727">
        <ele>298.399993896</ele>
        <time>2015-12-22T11:33:41.372Z</time>
      </trkpt>
      <trkpt lat="45.97078" lon="4.9472">
        <ele>298.600006104</ele>
        <time>2015-12-22T11:33:42.352Z</time>
      </trkpt>
      <trkpt lat="45.97075" lon="4.94714">
        <ele>298.700012207</ele>
        <time>2015-12-22T11:33:43.429Z</time>
      </trkpt>
      <trkpt lat="45.97073" lon="4.94706">
        <ele>298.899993896</ele>
        <time>2015-12-22T11:33:44.352Z</time>
      </trkpt>
      <trkpt lat="45.9707" lon="4.94699">
        <ele>299.100006104</ele>
        <time>2015-12-22T11:33:45.374Z</time>
      </trkpt>
      <trkpt lat="45.97068" lon="4.94692">
        <ele>299.100006104</ele>
        <time>2015-12-22T11:33:46.355Z</time>
      </trkpt>
      <trkpt lat="45.97065" lon="4.94684">
        <ele>299.200012207</ele>
        <time>2015-12-22T11:33:47.52Z</time>
      </trkpt>
      <trkpt lat="45.97062" lon="4.94676">
        <ele>299.299987793</ele>
        <time>2015-12-22T11:33:48.387Z</time>
      </trkpt>
      <trkpt lat="45.9706" lon="4.94669">
        <ele>299.700012207</ele>
        <time>2015-12-22T11:33:49.377Z</time>
      </trkpt>
      <trkpt lat="45.97057" lon="4.94662">
        <ele>299.700012207</ele>
        <time>2015-12-22T11:33:50.352Z</time>
      </trkpt>
      <trkpt lat="45.97055" lon="4.94655">
        <ele>300</ele>
        <time>2015-12-22T11:33:51.374Z</time>
      </trkpt>
      <trkpt lat="45.97052" lon="4.94648">
        <ele>300.100006104</ele>
        <time>2015-12-22T11:33:52.352Z</time>
      </trkpt>
      <trkpt lat="45.97049" lon="4.9464">
        <ele>300.200012207</ele>
        <time>2015-12-22T11:33:53.383Z</time>
      </trkpt>
      <trkpt lat="45.97047" lon="4.94634">
        <ele>300.399993896</ele>
        <time>2015-12-22T11:33:54.364Z</time>
      </trkpt>
      <trkpt lat="45.97045" lon="4.94626">
        <ele>300.5</ele>
        <time>2015-12-22T11:33:55.375Z</time>
      </trkpt>
      <trkpt lat="45.97042" lon="4.94619">
        <ele>300.5</ele>
        <time>2015-12-22T11:33:56.352Z</time>
      </trkpt>
      <trkpt lat="45.97039" lon="4.94611">
        <ele>300.399993896</ele>
        <time>2015-12-22T11:33:57.373Z</time>
      </trkpt>
      <trkpt lat="45.97037" lon="4.94604">
        <ele>300.299987793</ele>
        <time>2015-12-22T11:33:58.386Z</time>
      </trkpt>
      <trkpt lat="45.97034" lon="4.94597">
        <ele>299.5</ele>
        <time>2015-12-22T11:33:59.371Z</time>
      </trkpt>
      <trkpt lat="45.97031" lon="4.94589">
        <ele>299.399993896</ele>
        <time>2015-12-22T11:34:00.352Z</time>
      </trkpt>
      <trkpt lat="45.97028" lon="4.94581">
        <ele>299.299987793</ele>
        <time>2015-12-22T11:34:01.375Z</time>
      </trkpt>
      <trkpt lat="45.97026" lon="4.94574">
        <ele>299.200012207</ele>
        <time>2015-12-22T11:34:02.352Z</time>
      </trkpt>
      <trkpt lat="45.97023" lon="4.94566">
        <ele>299.200012207</ele>
        <time>2015-12-22T11:34:03.389Z</time>
      </trkpt>
      <trkpt lat="45.9702" lon="4.94558">
        <ele>298.899993896</ele>
        <time>2015-12-22T11:34:04.354Z</time>
      </trkpt>
      <trkpt lat="45.97017" lon="4.94551">
        <ele>298.799987793</ele>
        <time>2015-12-22T11:34:05.385Z</time>
      </trkpt>
      <trkpt lat="45.97014" lon="4.94544">
        <ele>299</ele>
        <time>2015-12-22T11:34:06.352Z</time>
      </trkpt>
      <trkpt lat="45.97011" lon="4.94536">
        <ele>298.899993896</ele>
        <time>2015-12-22T11:34:07.422Z</time>
      </trkpt>
      <trkpt lat="45.97009" lon="4.94529">
        <ele>298.5</ele>
        <time>2015-12-22T11:34:08.385Z</time>
      </trkpt>
      <trkpt lat="45.97006" lon="4.94522">
        <ele>298.299987793</ele>
        <time>2015-12-22T11:34:09.373Z</time>
      </trkpt>
      <trkpt lat="45.97004" lon="4.94515">
        <ele>298.200012207</ele>
        <time>2015-12-22T11:34:10.353Z</time>
      </trkpt>
      <trkpt lat="45.97001" lon="4.94508">
        <ele>298.200012207</ele>
        <time>2015-12-22T11:34:11.371Z</time>
      </trkpt>
      <trkpt lat="45.96998" lon="4.94501">
        <ele>298.299987793</ele>
        <time>2015-12-22T11:34:12.354Z</time>
      </trkpt>
      <trkpt lat="45.96995" lon="4.94494">
        <ele>298.5</ele>
        <time>2015-12-22T11:34:13.375Z</time>
      </trkpt>
      <trkpt lat="45.96993" lon="4.94487">
        <ele>298.600006104</ele>
        <time>2015-12-22T11:34:14.352Z</time>
      </trkpt>
      <trkpt lat="45.9699" lon="4.94479">
        <ele>298.100006104</ele>
        <time>2015-12-22T11:34:15.372Z</time>
      </trkpt>
      <trkpt lat="45.96987" lon="4.94472">
        <ele>297.799987793</ele>
        <time>2015-12-22T11:34:16.352Z</time>
      </trkpt>
      <trkpt lat="45.96984" lon="4.94464">
        <ele>297.799987793</ele>
        <time>2015-12-22T11:34:17.371Z</time>
      </trkpt>
      <trkpt lat="45.96981" lon="4.94457">
        <ele>298</ele>
        <time>2015-12-22T11:34:18.379Z</time>
      </trkpt>
      <trkpt lat="45.96978" lon="4.94449">
        <ele>298.100006104</ele>
        <time>2015-12-22T11:34:19.39Z</time>
      </trkpt>
      <trkpt lat="45.96976" lon="4.94441">
        <ele>298</ele>
        <time>2015-12-22T11:34:20.419Z</time>
      </trkpt>
      <trkpt lat="45.96973" lon="4.94434">
        <ele>298.100006104</ele>
        <time>2015-12-22T11:34:21.374Z</time>
      </trkpt>
      <trkpt lat="45.9697" lon="4.94426">
        <ele>298.100006104</ele>
        <time>2015-12-22T11:34:22.352Z</time>
      </trkpt>
      <trkpt lat="45.96967" lon="4.94419">
        <ele>298.100006104</ele>
        <time>2015-12-22T11:34:23.373Z</time>
      </trkpt>
      <trkpt lat="45.96965" lon="4.94411">
        <ele>298.100006104</ele>
        <time>2015-12-22T11:34:24.353Z</time>
      </trkpt>
      <trkpt lat="45.96962" lon="4.94403">
        <ele>298.200012207</ele>
        <time>2015-12-22T11:34:25.375Z</time>
      </trkpt>
      <trkpt lat="45.9696" lon="4.94396">
        <ele>298.299987793</ele>
        <time>2015-12-22T11:34:26.352Z</time>
      </trkpt>
      <trkpt lat="45.96957" lon="4.94388">
        <ele>298.399993896</ele>
        <time>2015-12-22T11:34:27.374Z</time>
      </trkpt>
      <trkpt lat="45.96954" lon="4.94381">
        <ele>298.100006104</ele>
        <time>2015-12-22T11:34:28.38Z</time>
      </trkpt>
      <trkpt lat="45.96951" lon="4.94373">
        <ele>297.700012207</ele>
        <time>2015-12-22T11:34:29.371Z</time>
      </trkpt>
      <trkpt lat="45.96948" lon="4.94365">
        <ele>297.399993896</ele>
        <time>2015-12-22T11:34:30.353Z</time>
      </trkpt>
      <trkpt lat="45.96945" lon="4.94357">
        <ele>297.600006104</ele>
        <time>2015-12-22T11:34:31.378Z</time>
      </trkpt>
      <trkpt lat="45.96943" lon="4.94349">
        <ele>297.700012207</ele>
        <time>2015-12-22T11:34:32.352Z</time>
      </trkpt>
      <trkpt lat="45.9694" lon="4.94342">
        <ele>297.899993896</ele>
        <time>2015-12-22T11:34:33.374Z</time>
      </trkpt>
      <trkpt lat="45.96937" lon="4.94335">
        <ele>298</ele>
        <time>2015-12-22T11:34:34.352Z</time>
      </trkpt>
      <trkpt lat="45.96935" lon="4.94327">
        <ele>298</ele>
        <time>2015-12-22T11:34:35.386Z</time>
      </trkpt>
      <trkpt lat="45.96932" lon="4.9432">
        <ele>297.600006104</ele>
        <time>2015-12-22T11:34:36.368Z</time>
      </trkpt>
      <trkpt lat="45.96929" lon="4.94312">
        <ele>297.700012207</ele>
        <time>2015-12-22T11:34:37.377Z</time>
      </trkpt>
      <trkpt lat="45.96927" lon="4.94305">
        <ele>297.700012207</ele>
        <time>2015-12-22T11:34:38.377Z</time>
      </trkpt>
      <trkpt lat="45.96924" lon="4.94298">
        <ele>297.799987793</ele>
        <time>2015-12-22T11:34:39.372Z</time>
      </trkpt>
      <trkpt lat="45.9692" lon="4.9429">
        <ele>297.600006104</ele>
        <time>2015-12-22T11:34:40.352Z</time>
      </trkpt>
      <trkpt lat="45.96917" lon="4.94282">
        <ele>297.5</ele>
        <time>2015-12-22T11:34:41.371Z</time>
      </trkpt>
      <trkpt lat="45.96914" lon="4.94274">
        <ele>297.200012207</ele>
        <time>2015-12-22T11:34:42.352Z</time>
      </trkpt>
      <trkpt lat="45.96911" lon="4.94266">
        <ele>297</ele>
        <time>2015-12-22T11:34:43.517Z</time>
      </trkpt>
      <trkpt lat="45.96908" lon="4.94258">
        <ele>296.899993896</ele>
        <time>2015-12-22T11:34:44.353Z</time>
      </trkpt>
      <trkpt lat="45.96905" lon="4.9425">
        <ele>296.899993896</ele>
        <time>2015-12-22T11:34:45.373Z</time>
      </trkpt>
      <trkpt lat="45.96902" lon="4.94242">
        <ele>296.799987793</ele>
        <time>2015-12-22T11:34:46.352Z</time>
      </trkpt>
      <trkpt lat="45.96899" lon="4.94235">
        <ele>296.899993896</ele>
        <time>2015-12-22T11:34:47.371Z</time>
      </trkpt>
      <trkpt lat="45.96896" lon="4.94228">
        <ele>296.799987793</ele>
        <time>2015-12-22T11:34:48.373Z</time>
      </trkpt>
      <trkpt lat="45.96893" lon="4.94221">
        <ele>296.899993896</ele>
        <time>2015-12-22T11:34:49.378Z</time>
      </trkpt>
      <trkpt lat="45.9689" lon="4.94213">
        <ele>297</ele>
        <time>2015-12-22T11:34:50.352Z</time>
      </trkpt>
      <trkpt lat="45.96888" lon="4.94205">
        <ele>296.899993896</ele>
        <time>2015-12-22T11:34:51.394Z</time>
      </trkpt>
      <trkpt lat="45.96885" lon="4.94197">
        <ele>297.399993896</ele>
        <time>2015-12-22T11:34:52.352Z</time>
      </trkpt>
      <trkpt lat="45.96882" lon="4.94189">
        <ele>297.899993896</ele>
        <time>2015-12-22T11:34:53.385Z</time>
      </trkpt>
      <trkpt lat="45.96879" lon="4.94181">
        <ele>298.100006104</ele>
        <time>2015-12-22T11:34:54.348Z</time>
      </trkpt>
      <trkpt lat="45.96876" lon="4.94174">
        <ele>298.100006104</ele>
        <time>2015-12-22T11:34:55.375Z</time>
      </trkpt>
      <trkpt lat="45.96873" lon="4.94166">
        <ele>298.100006104</ele>
        <time>2015-12-22T11:34:56.352Z</time>
      </trkpt>
      <trkpt lat="45.96871" lon="4.94158">
        <ele>298.200012207</ele>
        <time>2015-12-22T11:34:57.375Z</time>
      </trkpt>
      <trkpt lat="45.96868" lon="4.9415">
        <ele>298.100006104</ele>
        <time>2015-12-22T11:34:58.371Z</time>
      </trkpt>
      <trkpt lat="45.96865" lon="4.94142">
        <ele>297.899993896</ele>
        <time>2015-12-22T11:34:59.373Z</time>
      </trkpt>
      <trkpt lat="45.96862" lon="4.94135">
        <ele>297.899993896</ele>
        <time>2015-12-22T11:35:00.353Z</time>
      </trkpt>
      <trkpt lat="45.96859" lon="4.94127">
        <ele>298.100006104</ele>
        <time>2015-12-22T11:35:01.375Z</time>
      </trkpt>
      <trkpt lat="45.96856" lon="4.9412">
        <ele>298</ele>
        <time>2015-12-22T11:35:02.352Z</time>
      </trkpt>
      <trkpt lat="45.96853" lon="4.94112">
        <ele>297.799987793</ele>
        <time>2015-12-22T11:35:03.375Z</time>
      </trkpt>
      <trkpt lat="45.96851" lon="4.94104">
        <ele>297.600006104</ele>
        <time>2015-12-22T11:35:04.355Z</time>
      </trkpt>
      <trkpt lat="45.96848" lon="4.94096">
        <ele>297.600006104</ele>
        <time>2015-12-22T11:35:05.392Z</time>
      </trkpt>
      <trkpt lat="45.96845" lon="4.94089">
        <ele>297.299987793</ele>
        <time>2015-12-22T11:35:06.352Z</time>
      </trkpt>
      <trkpt lat="45.96842" lon="4.94081">
        <ele>297.399993896</ele>
        <time>2015-12-22T11:35:07.375Z</time>
      </trkpt>
      <trkpt lat="45.96839" lon="4.94073">
        <ele>297.399993896</ele>
        <time>2015-12-22T11:35:08.367Z</time>
      </trkpt>
      <trkpt lat="45.96836" lon="4.94065">
        <ele>297.100006104</ele>
        <time>2015-12-22T11:35:09.373Z</time>
      </trkpt>
      <trkpt lat="45.96833" lon="4.94057">
        <ele>297.200012207</ele>
        <time>2015-12-22T11:35:10.352Z</time>
      </trkpt>
      <trkpt lat="45.9683" lon="4.94049">
        <ele>297.299987793</ele>
        <time>2015-12-22T11:35:11.371Z</time>
      </trkpt>
      <trkpt lat="45.96827" lon="4.94041">
        <ele>297</ele>
        <time>2015-12-22T11:35:12.352Z</time>
      </trkpt>
      <trkpt lat="45.96825" lon="4.94033">
        <ele>296.899993896</ele>
        <time>2015-12-22T11:35:13.387Z</time>
      </trkpt>
      <trkpt lat="45.96822" lon="4.94026">
        <ele>296.799987793</ele>
        <time>2015-12-22T11:35:14.352Z</time>
      </trkpt>
      <trkpt lat="45.96818" lon="4.94019">
        <ele>296.700012207</ele>
        <time>2015-12-22T11:35:15.372Z</time>
      </trkpt>
      <trkpt lat="45.96815" lon="4.94013">
        <ele>297.100006104</ele>
        <time>2015-12-22T11:35:16.352Z</time>
      </trkpt>
      <trkpt lat="45.96812" lon="4.94006">
        <ele>297.200012207</ele>
        <time>2015-12-22T11:35:17.408Z</time>
      </trkpt>
      <trkpt lat="45.96808" lon="4.93999">
        <ele>297.299987793</ele>
        <time>2015-12-22T11:35:18.364Z</time>
      </trkpt>
      <trkpt lat="45.96805" lon="4.93993">
        <ele>297.399993896</ele>
        <time>2015-12-22T11:35:19.375Z</time>
      </trkpt>
      <trkpt lat="45.96801" lon="4.93986">
        <ele>297.5</ele>
        <time>2015-12-22T11:35:20.352Z</time>
      </trkpt>
      <trkpt lat="45.96796" lon="4.9398">
        <ele>297.299987793</ele>
        <time>2015-12-22T11:35:21.374Z</time>
      </trkpt>
      <trkpt lat="45.96791" lon="4.93973">
        <ele>297.299987793</ele>
        <time>2015-12-22T11:35:22.371Z</time>
      </trkpt>
      <trkpt lat="45.96786" lon="4.93966">
        <ele>297.399993896</ele>
        <time>2015-12-22T11:35:23.4Z</time>
      </trkpt>
      <trkpt lat="45.96782" lon="4.9396">
        <ele>297.5</ele>
        <time>2015-12-22T11:35:24.352Z</time>
      </trkpt>
      <trkpt lat="45.96777" lon="4.93953">
        <ele>297.600006104</ele>
        <time>2015-12-22T11:35:25.375Z</time>
      </trkpt>
      <trkpt lat="45.96772" lon="4.93946">
        <ele>297.700012207</ele>
        <time>2015-12-22T11:35:26.352Z</time>
      </trkpt>
      <trkpt lat="45.96767" lon="4.9394">
        <ele>297.799987793</ele>
        <time>2015-12-22T11:35:27.373Z</time>
      </trkpt>
      <trkpt lat="45.96762" lon="4.93934">
        <ele>297.600006104</ele>
        <time>2015-12-22T11:35:28.362Z</time>
      </trkpt>
      <trkpt lat="45.96758" lon="4.93928">
        <ele>297.700012207</ele>
        <time>2015-12-22T11:35:29.371Z</time>
      </trkpt>
      <trkpt lat="45.96754" lon="4.93922">
        <ele>297.700012207</ele>
        <time>2015-12-22T11:35:30.352Z</time>
      </trkpt>
      <trkpt lat="45.96749" lon="4.93916">
        <ele>297.700012207</ele>
        <time>2015-12-22T11:35:31.375Z</time>
      </trkpt>
      <trkpt lat="45.96745" lon="4.93911">
        <ele>297.600006104</ele>
        <time>2015-12-22T11:35:32.352Z</time>
      </trkpt>
      <trkpt lat="45.96741" lon="4.93905">
        <ele>297.799987793</ele>
        <time>2015-12-22T11:35:33.375Z</time>
      </trkpt>
      <trkpt lat="45.96737" lon="4.939">
        <ele>297.899993896</ele>
        <time>2015-12-22T11:35:34.352Z</time>
      </trkpt>
      <trkpt lat="45.96733" lon="4.93895">
        <ele>298</ele>
        <time>2015-12-22T11:35:35.373Z</time>
      </trkpt>
      <trkpt lat="45.96728" lon="4.93889">
        <ele>298.200012207</ele>
        <time>2015-12-22T11:35:36.353Z</time>
      </trkpt>
      <trkpt lat="45.96724" lon="4.93883">
        <ele>298.200012207</ele>
        <time>2015-12-22T11:35:37.375Z</time>
      </trkpt>
      <trkpt lat="45.9672" lon="4.93878">
        <ele>298.100006104</ele>
        <time>2015-12-22T11:35:38.356Z</time>
      </trkpt>
      <trkpt lat="45.96715" lon="4.93873">
        <ele>298.299987793</ele>
        <time>2015-12-22T11:35:39.372Z</time>
      </trkpt>
      <trkpt lat="45.9671" lon="4.93868">
        <ele>298.200012207</ele>
        <time>2015-12-22T11:35:40.349Z</time>
      </trkpt>
      <trkpt lat="45.96705" lon="4.93863">
        <ele>297.700012207</ele>
        <time>2015-12-22T11:35:41.371Z</time>
      </trkpt>
      <trkpt lat="45.96701" lon="4.93857">
        <ele>297.600006104</ele>
        <time>2015-12-22T11:35:42.352Z</time>
      </trkpt>
      <trkpt lat="45.96697" lon="4.93851">
        <ele>297.100006104</ele>
        <time>2015-12-22T11:35:43.389Z</time>
      </trkpt>
      <trkpt lat="45.96694" lon="4.93845">
        <ele>297</ele>
        <time>2015-12-22T11:35:44.352Z</time>
      </trkpt>
      <trkpt lat="45.9669" lon="4.93839">
        <ele>296.799987793</ele>
        <time>2015-12-22T11:35:45.373Z</time>
      </trkpt>
      <trkpt lat="45.96688" lon="4.93832">
        <ele>296.600006104</ele>
        <time>2015-12-22T11:35:46.352Z</time>
      </trkpt>
      <trkpt lat="45.96686" lon="4.93825">
        <ele>296.200012207</ele>
        <time>2015-12-22T11:35:47.373Z</time>
      </trkpt>
      <trkpt lat="45.96685" lon="4.93819">
        <ele>296.200012207</ele>
        <time>2015-12-22T11:35:48.36Z</time>
      </trkpt>
      <trkpt lat="45.96683" lon="4.93807">
        <ele>295.399993896</ele>
        <time>2015-12-22T11:35:50.393Z</time>
      </trkpt>
      <trkpt lat="45.96681" lon="4.93801">
        <ele>295.600006104</ele>
        <time>2015-12-22T11:35:51.354Z</time>
      </trkpt>
      <trkpt lat="45.96677" lon="4.93796">
        <ele>295.700012207</ele>
        <time>2015-12-22T11:35:52.437Z</time>
      </trkpt>
      <trkpt lat="45.96673" lon="4.93792">
        <ele>295.700012207</ele>
        <time>2015-12-22T11:35:53.353Z</time>
      </trkpt>
      <trkpt lat="45.96669" lon="4.93786">
        <ele>295.700012207</ele>
        <time>2015-12-22T11:35:54.392Z</time>
      </trkpt>
      <trkpt lat="45.96665" lon="4.93781">
        <ele>295.799987793</ele>
        <time>2015-12-22T11:35:55.408Z</time>
      </trkpt>
      <trkpt lat="45.96662" lon="4.93774">
        <ele>295.899993896</ele>
        <time>2015-12-22T11:35:56.371Z</time>
      </trkpt>
      <trkpt lat="45.96659" lon="4.93768">
        <ele>296.399993896</ele>
        <time>2015-12-22T11:35:57.353Z</time>
      </trkpt>
      <trkpt lat="45.96655" lon="4.93763">
        <ele>296.399993896</ele>
        <time>2015-12-22T11:35:58.392Z</time>
      </trkpt>
      <trkpt lat="45.96651" lon="4.93757">
        <ele>296.5</ele>
        <time>2015-12-22T11:35:59.355Z</time>
      </trkpt>
      <trkpt lat="45.96646" lon="4.93752">
        <ele>296.600006104</ele>
        <time>2015-12-22T11:36:00.375Z</time>
      </trkpt>
      <trkpt lat="45.96641" lon="4.93747">
        <ele>296.799987793</ele>
        <time>2015-12-22T11:36:01.354Z</time>
      </trkpt>
      <trkpt lat="45.96636" lon="4.93743">
        <ele>296.899993896</ele>
        <time>2015-12-22T11:36:02.371Z</time>
      </trkpt>
      <trkpt lat="45.96632" lon="4.93739">
        <ele>296.899993896</ele>
        <time>2015-12-22T11:36:03.353Z</time>
      </trkpt>
      <trkpt lat="45.96627" lon="4.93734">
        <ele>296.799987793</ele>
        <time>2015-12-22T11:36:04.387Z</time>
      </trkpt>
      <trkpt lat="45.96622" lon="4.93729">
        <ele>296.399993896</ele>
        <time>2015-12-22T11:36:05.354Z</time>
      </trkpt>
      <trkpt lat="45.96617" lon="4.93724">
        <ele>296.299987793</ele>
        <time>2015-12-22T11:36:06.371Z</time>
      </trkpt>
      <trkpt lat="45.96612" lon="4.9372">
        <ele>296.100006104</ele>
        <time>2015-12-22T11:36:07.356Z</time>
      </trkpt>
      <trkpt lat="45.96608" lon="4.93716">
        <ele>296.100006104</ele>
        <time>2015-12-22T11:36:08.406Z</time>
      </trkpt>
      <trkpt lat="45.96603" lon="4.93712">
        <ele>296</ele>
        <time>2015-12-22T11:36:09.353Z</time>
      </trkpt>
      <trkpt lat="45.96599" lon="4.93708">
        <ele>296</ele>
        <time>2015-12-22T11:36:10.372Z</time>
      </trkpt>
      <trkpt lat="45.96595" lon="4.93703">
        <ele>295.899993896</ele>
        <time>2015-12-22T11:36:11.355Z</time>
      </trkpt>
      <trkpt lat="45.96591" lon="4.93698">
        <ele>295.799987793</ele>
        <time>2015-12-22T11:36:12.371Z</time>
      </trkpt>
      <trkpt lat="45.96586" lon="4.93693">
        <ele>295.799987793</ele>
        <time>2015-12-22T11:36:13.356Z</time>
      </trkpt>
      <trkpt lat="45.96582" lon="4.93688">
        <ele>295.899993896</ele>
        <time>2015-12-22T11:36:14.371Z</time>
      </trkpt>
      <trkpt lat="45.96578" lon="4.93682">
        <ele>296.100006104</ele>
        <time>2015-12-22T11:36:15.355Z</time>
      </trkpt>
      <trkpt lat="45.96574" lon="4.93677">
        <ele>296.200012207</ele>
        <time>2015-12-22T11:36:16.373Z</time>
      </trkpt>
      <trkpt lat="45.96569" lon="4.93671">
        <ele>296.200012207</ele>
        <time>2015-12-22T11:36:17.352Z</time>
      </trkpt>
      <trkpt lat="45.96565" lon="4.93666">
        <ele>296.399993896</ele>
        <time>2015-12-22T11:36:18.387Z</time>
      </trkpt>
      <trkpt lat="45.96561" lon="4.9366">
        <ele>296.399993896</ele>
        <time>2015-12-22T11:36:19.356Z</time>
      </trkpt>
      <trkpt lat="45.96558" lon="4.93654">
        <ele>296.5</ele>
        <time>2015-12-22T11:36:20.388Z</time>
      </trkpt>
      <trkpt lat="45.96555" lon="4.93649">
        <ele>296.399993896</ele>
        <time>2015-12-22T11:36:21.353Z</time>
      </trkpt>
      <trkpt lat="45.96551" lon="4.93644">
        <ele>296.399993896</ele>
        <time>2015-12-22T11:36:22.371Z</time>
      </trkpt>
      <trkpt lat="45.96547" lon="4.93639">
        <ele>296.600006104</ele>
        <time>2015-12-22T11:36:23.352Z</time>
      </trkpt>
      <trkpt lat="45.96543" lon="4.93633">
        <ele>296.5</ele>
        <time>2015-12-22T11:36:24.371Z</time>
      </trkpt>
      <trkpt lat="45.96539" lon="4.93628">
        <ele>296.600006104</ele>
        <time>2015-12-22T11:36:25.358Z</time>
      </trkpt>
      <trkpt lat="45.96535" lon="4.93622">
        <ele>296.600006104</ele>
        <time>2015-12-22T11:36:26.374Z</time>
      </trkpt>
      <trkpt lat="45.9653" lon="4.93617">
        <ele>296.600006104</ele>
        <time>2015-12-22T11:36:27.349Z</time>
      </trkpt>
      <trkpt lat="45.96526" lon="4.93611">
        <ele>296.100006104</ele>
        <time>2015-12-22T11:36:28.384Z</time>
      </trkpt>
      <trkpt lat="45.96522" lon="4.93606">
        <ele>296.200012207</ele>
        <time>2015-12-22T11:36:29.353Z</time>
      </trkpt>
      <trkpt lat="45.96519" lon="4.93601">
        <ele>296</ele>
        <time>2015-12-22T11:36:30.371Z</time>
      </trkpt>
      <trkpt lat="45.96515" lon="4.93596">
        <ele>295.700012207</ele>
        <time>2015-12-22T11:36:31.357Z</time>
      </trkpt>
      <trkpt lat="45.96511" lon="4.9359">
        <ele>295.799987793</ele>
        <time>2015-12-22T11:36:32.371Z</time>
      </trkpt>
      <trkpt lat="45.96507" lon="4.93584">
        <ele>295.799987793</ele>
        <time>2015-12-22T11:36:33.353Z</time>
      </trkpt>
      <trkpt lat="45.96503" lon="4.93579">
        <ele>295.899993896</ele>
        <time>2015-12-22T11:36:34.372Z</time>
      </trkpt>
      <trkpt lat="45.96499" lon="4.93573">
        <ele>295.899993896</ele>
        <time>2015-12-22T11:36:35.375Z</time>
      </trkpt>
      <trkpt lat="45.96495" lon="4.93567">
        <ele>296</ele>
        <time>2015-12-22T11:36:36.386Z</time>
      </trkpt>
      <trkpt lat="45.96491" lon="4.93561">
        <ele>296.100006104</ele>
        <time>2015-12-22T11:36:37.356Z</time>
      </trkpt>
      <trkpt lat="45.96487" lon="4.93555">
        <ele>296.200012207</ele>
        <time>2015-12-22T11:36:38.381Z</time>
      </trkpt>
      <trkpt lat="45.96483" lon="4.93549">
        <ele>296.399993896</ele>
        <time>2015-12-22T11:36:39.353Z</time>
      </trkpt>
      <trkpt lat="45.96479" lon="4.93542">
        <ele>296.100006104</ele>
        <time>2015-12-22T11:36:40.376Z</time>
      </trkpt>
      <trkpt lat="45.96474" lon="4.93537">
        <ele>296.200012207</ele>
        <time>2015-12-22T11:36:41.352Z</time>
      </trkpt>
      <trkpt lat="45.9647" lon="4.93532">
        <ele>296.299987793</ele>
        <time>2015-12-22T11:36:42.371Z</time>
      </trkpt>
      <trkpt lat="45.96467" lon="4.93526">
        <ele>296.5</ele>
        <time>2015-12-22T11:36:43.384Z</time>
      </trkpt>
      <trkpt lat="45.96463" lon="4.93521">
        <ele>296.600006104</ele>
        <time>2015-12-22T11:36:44.371Z</time>
      </trkpt>
      <trkpt lat="45.96459" lon="4.93515">
        <ele>296.700012207</ele>
        <time>2015-12-22T11:36:45.353Z</time>
      </trkpt>
      <trkpt lat="45.96456" lon="4.9351">
        <ele>296.899993896</ele>
        <time>2015-12-22T11:36:46.371Z</time>
      </trkpt>
      <trkpt lat="45.96452" lon="4.93504">
        <ele>296.799987793</ele>
        <time>2015-12-22T11:36:47.352Z</time>
      </trkpt>
      <trkpt lat="45.96448" lon="4.93498">
        <ele>296.799987793</ele>
        <time>2015-12-22T11:36:48.38Z</time>
      </trkpt>
      <trkpt lat="45.96444" lon="4.93492">
        <ele>296.600006104</ele>
        <time>2015-12-22T11:36:49.361Z</time>
      </trkpt>
      <trkpt lat="45.9644" lon="4.93486">
        <ele>296.5</ele>
        <time>2015-12-22T11:36:50.373Z</time>
      </trkpt>
      <trkpt lat="45.96436" lon="4.93482">
        <ele>296.299987793</ele>
        <time>2015-12-22T11:36:51.358Z</time>
      </trkpt>
      <trkpt lat="45.96432" lon="4.93476">
        <ele>296.399993896</ele>
        <time>2015-12-22T11:36:52.392Z</time>
      </trkpt>
      <trkpt lat="45.96428" lon="4.93471">
        <ele>296.700012207</ele>
        <time>2015-12-22T11:36:53.354Z</time>
      </trkpt>
      <trkpt lat="45.96424" lon="4.93465">
        <ele>296.700012207</ele>
        <time>2015-12-22T11:36:54.371Z</time>
      </trkpt>
      <trkpt lat="45.9642" lon="4.9346">
        <ele>296.899993896</ele>
        <time>2015-12-22T11:36:55.356Z</time>
      </trkpt>
      <trkpt lat="45.96416" lon="4.93455">
        <ele>296.799987793</ele>
        <time>2015-12-22T11:36:56.371Z</time>
      </trkpt>
      <trkpt lat="45.96412" lon="4.93451">
        <ele>297</ele>
        <time>2015-12-22T11:36:57.354Z</time>
      </trkpt>
      <trkpt lat="45.96408" lon="4.93446">
        <ele>297</ele>
        <time>2015-12-22T11:36:58.38Z</time>
      </trkpt>
      <trkpt lat="45.96403" lon="4.93442">
        <ele>297.200012207</ele>
        <time>2015-12-22T11:36:59.352Z</time>
      </trkpt>
      <trkpt lat="45.96398" lon="4.93438">
        <ele>297.5</ele>
        <time>2015-12-22T11:37:00.371Z</time>
      </trkpt>
      <trkpt lat="45.96393" lon="4.93435">
        <ele>297.700012207</ele>
        <time>2015-12-22T11:37:01.357Z</time>
      </trkpt>
      <trkpt lat="45.96388" lon="4.93431">
        <ele>297.799987793</ele>
        <time>2015-12-22T11:37:02.519Z</time>
      </trkpt>
      <trkpt lat="45.96382" lon="4.93429">
        <ele>298</ele>
        <time>2015-12-22T11:37:03.355Z</time>
      </trkpt>
      <trkpt lat="45.96376" lon="4.93425">
        <ele>298</ele>
        <time>2015-12-22T11:37:04.371Z</time>
      </trkpt>
      <trkpt lat="45.96371" lon="4.93422">
        <ele>297.899993896</ele>
        <time>2015-12-22T11:37:05.352Z</time>
      </trkpt>
      <trkpt lat="45.96366" lon="4.93419">
        <ele>297.5</ele>
        <time>2015-12-22T11:37:06.371Z</time>
      </trkpt>
      <trkpt lat="45.96362" lon="4.93417">
        <ele>297.700012207</ele>
        <time>2015-12-22T11:37:07.356Z</time>
      </trkpt>
      <trkpt lat="45.96357" lon="4.93414">
        <ele>297.799987793</ele>
        <time>2015-12-22T11:37:08.394Z</time>
      </trkpt>
      <trkpt lat="45.96353" lon="4.93411">
        <ele>298.100006104</ele>
        <time>2015-12-22T11:37:09.356Z</time>
      </trkpt>
      <trkpt lat="45.96348" lon="4.93408">
        <ele>298.200012207</ele>
        <time>2015-12-22T11:37:10.371Z</time>
      </trkpt>
      <trkpt lat="45.96343" lon="4.93404">
        <ele>298.299987793</ele>
        <time>2015-12-22T11:37:11.352Z</time>
      </trkpt>
      <trkpt lat="45.96337" lon="4.934">
        <ele>298.399993896</ele>
        <time>2015-12-22T11:37:12.371Z</time>
      </trkpt>
      <trkpt lat="45.96332" lon="4.93397">
        <ele>298.600006104</ele>
        <time>2015-12-22T11:37:13.356Z</time>
      </trkpt>
      <trkpt lat="45.96326" lon="4.93393">
        <ele>298.600006104</ele>
        <time>2015-12-22T11:37:14.409Z</time>
      </trkpt>
      <trkpt lat="45.96321" lon="4.9339">
        <ele>299.100006104</ele>
        <time>2015-12-22T11:37:15.355Z</time>
      </trkpt>
      <trkpt lat="45.96316" lon="4.93386">
        <ele>299.200012207</ele>
        <time>2015-12-22T11:37:16.371Z</time>
      </trkpt>
      <trkpt lat="45.9631" lon="4.93383">
        <ele>299.200012207</ele>
        <time>2015-12-22T11:37:17.355Z</time>
      </trkpt>
      <trkpt lat="45.96305" lon="4.9338">
        <ele>299.200012207</ele>
        <time>2015-12-22T11:37:18.41Z</time>
      </trkpt>
      <trkpt lat="45.96299" lon="4.93377">
        <ele>299.399993896</ele>
        <time>2015-12-22T11:37:19.356Z</time>
      </trkpt>
      <trkpt lat="45.96294" lon="4.93374">
        <ele>299.399993896</ele>
        <time>2015-12-22T11:37:20.393Z</time>
      </trkpt>
      <trkpt lat="45.96289" lon="4.9337">
        <ele>299.700012207</ele>
        <time>2015-12-22T11:37:21.353Z</time>
      </trkpt>
      <trkpt lat="45.96283" lon="4.93366">
        <ele>299.899993896</ele>
        <time>2015-12-22T11:37:22.383Z</time>
      </trkpt>
      <trkpt lat="45.96278" lon="4.93363">
        <ele>300.399993896</ele>
        <time>2015-12-22T11:37:23.353Z</time>
      </trkpt>
      <trkpt lat="45.96273" lon="4.93359">
        <ele>300.799987793</ele>
        <time>2015-12-22T11:37:24.377Z</time>
      </trkpt>
      <trkpt lat="45.96268" lon="4.93354">
        <ele>301.100006104</ele>
        <time>2015-12-22T11:37:25.356Z</time>
      </trkpt>
      <trkpt lat="45.96262" lon="4.9335">
        <ele>301.5</ele>
        <time>2015-12-22T11:37:26.372Z</time>
      </trkpt>
      <trkpt lat="45.96257" lon="4.93345">
        <ele>301.700012207</ele>
        <time>2015-12-22T11:37:27.356Z</time>
      </trkpt>
      <trkpt lat="45.96252" lon="4.93341">
        <ele>301.899993896</ele>
        <time>2015-12-22T11:37:28.389Z</time>
      </trkpt>
      <trkpt lat="45.96247" lon="4.93336">
        <ele>302</ele>
        <time>2015-12-22T11:37:29.354Z</time>
      </trkpt>
      <trkpt lat="45.96241" lon="4.93332">
        <ele>302</ele>
        <time>2015-12-22T11:37:30.373Z</time>
      </trkpt>
      <trkpt lat="45.96237" lon="4.93328">
        <ele>302.100006104</ele>
        <time>2015-12-22T11:37:31.356Z</time>
      </trkpt>
      <trkpt lat="45.96233" lon="4.93323">
        <ele>302.100006104</ele>
        <time>2015-12-22T11:37:32.372Z</time>
      </trkpt>
      <trkpt lat="45.96229" lon="4.93318">
        <ele>302.100006104</ele>
        <time>2015-12-22T11:37:33.354Z</time>
      </trkpt>
      <trkpt lat="45.96225" lon="4.93313">
        <ele>302.399993896</ele>
        <time>2015-12-22T11:37:34.371Z</time>
      </trkpt>
      <trkpt lat="45.96221" lon="4.93307">
        <ele>302.700012207</ele>
        <time>2015-12-22T11:37:35.352Z</time>
      </trkpt>
      <trkpt lat="45.96218" lon="4.93301">
        <ele>302.600006104</ele>
        <time>2015-12-22T11:37:36.372Z</time>
      </trkpt>
      <trkpt lat="45.96214" lon="4.93295">
        <ele>302.700012207</ele>
        <time>2015-12-22T11:37:37.387Z</time>
      </trkpt>
      <trkpt lat="45.96211" lon="4.93288">
        <ele>302.899993896</ele>
        <time>2015-12-22T11:37:38.371Z</time>
      </trkpt>
      <trkpt lat="45.96208" lon="4.93281">
        <ele>302.899993896</ele>
        <time>2015-12-22T11:37:39.357Z</time>
      </trkpt>
      <trkpt lat="45.96205" lon="4.93274">
        <ele>302.899993896</ele>
        <time>2015-12-22T11:37:40.373Z</time>
      </trkpt>
      <trkpt lat="45.96201" lon="4.93266">
        <ele>302.899993896</ele>
        <time>2015-12-22T11:37:41.352Z</time>
      </trkpt>
      <trkpt lat="45.96199" lon="4.93259">
        <ele>302.700012207</ele>
        <time>2015-12-22T11:37:42.371Z</time>
      </trkpt>
      <trkpt lat="45.96196" lon="4.9325">
        <ele>302.700012207</ele>
        <time>2015-12-22T11:37:43.36Z</time>
      </trkpt>
      <trkpt lat="45.96193" lon="4.93241">
        <ele>302.299987793</ele>
        <time>2015-12-22T11:37:44.391Z</time>
      </trkpt>
      <trkpt lat="45.9619" lon="4.93233">
        <ele>302.200012207</ele>
        <time>2015-12-22T11:37:45.353Z</time>
      </trkpt>
      <trkpt lat="45.96187" lon="4.93224">
        <ele>301.899993896</ele>
        <time>2015-12-22T11:37:46.372Z</time>
      </trkpt>
      <trkpt lat="45.96184" lon="4.93215">
        <ele>301.200012207</ele>
        <time>2015-12-22T11:37:47.355Z</time>
      </trkpt>
      <trkpt lat="45.96181" lon="4.93207">
        <ele>300.600006104</ele>
        <time>2015-12-22T11:37:48.372Z</time>
      </trkpt>
      <trkpt lat="45.96178" lon="4.93198">
        <ele>300.600006104</ele>
        <time>2015-12-22T11:37:49.359Z</time>
      </trkpt>
      <trkpt lat="45.96175" lon="4.9319">
        <ele>300.299987793</ele>
        <time>2015-12-22T11:37:50.372Z</time>
      </trkpt>
      <trkpt lat="45.96173" lon="4.93181">
        <ele>300.100006104</ele>
        <time>2015-12-22T11:37:51.356Z</time>
      </trkpt>
      <trkpt lat="45.96171" lon="4.93172">
        <ele>300.100006104</ele>
        <time>2015-12-22T11:37:52.372Z</time>
      </trkpt>
      <trkpt lat="45.96168" lon="4.93164">
        <ele>300.100006104</ele>
        <time>2015-12-22T11:37:53.353Z</time>
      </trkpt>
      <trkpt lat="45.96166" lon="4.93155">
        <ele>300.100006104</ele>
        <time>2015-12-22T11:37:54.371Z</time>
      </trkpt>
      <trkpt lat="45.96163" lon="4.93148">
        <ele>299.899993896</ele>
        <time>2015-12-22T11:37:55.356Z</time>
      </trkpt>
      <trkpt lat="45.9616" lon="4.93139">
        <ele>299.700012207</ele>
        <time>2015-12-22T11:37:56.371Z</time>
      </trkpt>
      <trkpt lat="45.96158" lon="4.93132">
        <ele>299.5</ele>
        <time>2015-12-22T11:37:57.353Z</time>
      </trkpt>
      <trkpt lat="45.96156" lon="4.93123">
        <ele>299.200012207</ele>
        <time>2015-12-22T11:37:58.371Z</time>
      </trkpt>
      <trkpt lat="45.96153" lon="4.93115">
        <ele>298.899993896</ele>
        <time>2015-12-22T11:37:59.352Z</time>
      </trkpt>
      <trkpt lat="45.96151" lon="4.93107">
        <ele>298.600006104</ele>
        <time>2015-12-22T11:38:00.408Z</time>
      </trkpt>
      <trkpt lat="45.96149" lon="4.93099">
        <ele>298.299987793</ele>
        <time>2015-12-22T11:38:01.356Z</time>
      </trkpt>
      <trkpt lat="45.96146" lon="4.93091">
        <ele>297.899993896</ele>
        <time>2015-12-22T11:38:02.372Z</time>
      </trkpt>
      <trkpt lat="45.96144" lon="4.93084">
        <ele>297.600006104</ele>
        <time>2015-12-22T11:38:03.353Z</time>
      </trkpt>
      <trkpt lat="45.96142" lon="4.93076">
        <ele>297.200012207</ele>
        <time>2015-12-22T11:38:04.371Z</time>
      </trkpt>
      <trkpt lat="45.9614" lon="4.93068">
        <ele>297.200012207</ele>
        <time>2015-12-22T11:38:05.376Z</time>
      </trkpt>
      <trkpt lat="45.96137" lon="4.93059">
        <ele>297.100006104</ele>
        <time>2015-12-22T11:38:06.371Z</time>
      </trkpt>
      <trkpt lat="45.96135" lon="4.93051">
        <ele>296.899993896</ele>
        <time>2015-12-22T11:38:07.356Z</time>
      </trkpt>
      <trkpt lat="45.96132" lon="4.93043">
        <ele>297</ele>
        <time>2015-12-22T11:38:08.371Z</time>
      </trkpt>
      <trkpt lat="45.9613" lon="4.93035">
        <ele>296.899993896</ele>
        <time>2015-12-22T11:38:09.356Z</time>
      </trkpt>
      <trkpt lat="45.96128" lon="4.93027">
        <ele>297.100006104</ele>
        <time>2015-12-22T11:38:10.396Z</time>
      </trkpt>
      <trkpt lat="45.96125" lon="4.93019">
        <ele>297.299987793</ele>
        <time>2015-12-22T11:38:11.352Z</time>
      </trkpt>
      <trkpt lat="45.96123" lon="4.93011">
        <ele>296.899993896</ele>
        <time>2015-12-22T11:38:12.371Z</time>
      </trkpt>
      <trkpt lat="45.9612" lon="4.93004">
        <ele>296.899993896</ele>
        <time>2015-12-22T11:38:13.356Z</time>
      </trkpt>
      <trkpt lat="45.96118" lon="4.92997">
        <ele>296.700012207</ele>
        <time>2015-12-22T11:38:14.373Z</time>
      </trkpt>
      <trkpt lat="45.96116" lon="4.9299">
        <ele>296.700012207</ele>
        <time>2015-12-22T11:38:15.353Z</time>
      </trkpt>
      <trkpt lat="45.96114" lon="4.92983">
        <ele>296.399993896</ele>
        <time>2015-12-22T11:38:16.371Z</time>
      </trkpt>
      <trkpt lat="45.96112" lon="4.92975">
        <ele>296.200012207</ele>
        <time>2015-12-22T11:38:17.352Z</time>
      </trkpt>
      <trkpt lat="45.9611" lon="4.92967">
        <ele>296.100006104</ele>
        <time>2015-12-22T11:38:18.371Z</time>
      </trkpt>
      <trkpt lat="45.96108" lon="4.92959">
        <ele>296</ele>
        <time>2015-12-22T11:38:19.356Z</time>
      </trkpt>
      <trkpt lat="45.96105" lon="4.92951">
        <ele>296</ele>
        <time>2015-12-22T11:38:20.371Z</time>
      </trkpt>
      <trkpt lat="45.96102" lon="4.92942">
        <ele>296</ele>
        <time>2015-12-22T11:38:21.398Z</time>
      </trkpt>
      <trkpt lat="45.961" lon="4.92934">
        <ele>295.399993896</ele>
        <time>2015-12-22T11:38:22.37Z</time>
      </trkpt>
      <trkpt lat="45.96097" lon="4.92925">
        <ele>295.299987793</ele>
        <time>2015-12-22T11:38:23.352Z</time>
      </trkpt>
      <trkpt lat="45.96095" lon="4.92917">
        <ele>295.399993896</ele>
        <time>2015-12-22T11:38:24.371Z</time>
      </trkpt>
      <trkpt lat="45.96092" lon="4.92908">
        <ele>295.399993896</ele>
        <time>2015-12-22T11:38:25.357Z</time>
      </trkpt>
      <trkpt lat="45.9609" lon="4.929">
        <ele>295.200012207</ele>
        <time>2015-12-22T11:38:26.389Z</time>
      </trkpt>
      <trkpt lat="45.96087" lon="4.92892">
        <ele>295.399993896</ele>
        <time>2015-12-22T11:38:27.353Z</time>
      </trkpt>
      <trkpt lat="45.96085" lon="4.92883">
        <ele>295.399993896</ele>
        <time>2015-12-22T11:38:28.371Z</time>
      </trkpt>
      <trkpt lat="45.96082" lon="4.92875">
        <ele>295.299987793</ele>
        <time>2015-12-22T11:38:29.352Z</time>
      </trkpt>
      <trkpt lat="45.96079" lon="4.92867">
        <ele>295.200012207</ele>
        <time>2015-12-22T11:38:30.371Z</time>
      </trkpt>
      <trkpt lat="45.96077" lon="4.92859">
        <ele>295</ele>
        <time>2015-12-22T11:38:31.357Z</time>
      </trkpt>
      <trkpt lat="45.96075" lon="4.92851">
        <ele>294.899993896</ele>
        <time>2015-12-22T11:38:32.371Z</time>
      </trkpt>
      <trkpt lat="45.96073" lon="4.92844">
        <ele>294.799987793</ele>
        <time>2015-12-22T11:38:33.354Z</time>
      </trkpt>
      <trkpt lat="45.96071" lon="4.92836">
        <ele>294.5</ele>
        <time>2015-12-22T11:38:34.372Z</time>
      </trkpt>
      <trkpt lat="45.96069" lon="4.92829">
        <ele>294.200012207</ele>
        <time>2015-12-22T11:38:35.354Z</time>
      </trkpt>
      <trkpt lat="45.96067" lon="4.92822">
        <ele>294.100006104</ele>
        <time>2015-12-22T11:38:36.376Z</time>
      </trkpt>
      <trkpt lat="45.96065" lon="4.92814">
        <ele>294.200012207</ele>
        <time>2015-12-22T11:38:37.356Z</time>
      </trkpt>
      <trkpt lat="45.96062" lon="4.92807">
        <ele>294.200012207</ele>
        <time>2015-12-22T11:38:38.372Z</time>
      </trkpt>
      <trkpt lat="45.9606" lon="4.928">
        <ele>294.100006104</ele>
        <time>2015-12-22T11:38:39.353Z</time>
      </trkpt>
      <trkpt lat="45.96058" lon="4.92792">
        <ele>294</ele>
        <time>2015-12-22T11:38:40.371Z</time>
      </trkpt>
      <trkpt lat="45.96055" lon="4.92784">
        <ele>293.799987793</ele>
        <time>2015-12-22T11:38:41.352Z</time>
      </trkpt>
      <trkpt lat="45.96053" lon="4.92777">
        <ele>293.700012207</ele>
        <time>2015-12-22T11:38:42.382Z</time>
      </trkpt>
      <trkpt lat="45.96051" lon="4.9277">
        <ele>293.799987793</ele>
        <time>2015-12-22T11:38:43.355Z</time>
      </trkpt>
      <trkpt lat="45.96049" lon="4.92762">
        <ele>293.899993896</ele>
        <time>2015-12-22T11:38:44.372Z</time>
      </trkpt>
      <trkpt lat="45.96047" lon="4.92755">
        <ele>294</ele>
        <time>2015-12-22T11:38:45.353Z</time>
      </trkpt>
      <trkpt lat="45.96045" lon="4.92748">
        <ele>294.100006104</ele>
        <time>2015-12-22T11:38:46.482Z</time>
      </trkpt>
      <trkpt lat="45.96043" lon="4.9274">
        <ele>294.299987793</ele>
        <time>2015-12-22T11:38:47.365Z</time>
      </trkpt>
      <trkpt lat="45.96041" lon="4.92733">
        <ele>294.399993896</ele>
        <time>2015-12-22T11:38:48.373Z</time>
      </trkpt>
      <trkpt lat="45.96038" lon="4.92725">
        <ele>294.399993896</ele>
        <time>2015-12-22T11:38:49.359Z</time>
      </trkpt>
      <trkpt lat="45.96036" lon="4.92717">
        <ele>294.5</ele>
        <time>2015-12-22T11:38:50.392Z</time>
      </trkpt>
      <trkpt lat="45.96034" lon="4.92709">
        <ele>294.600006104</ele>
        <time>2015-12-22T11:38:51.356Z</time>
      </trkpt>
      <trkpt lat="45.96032" lon="4.92701">
        <ele>294.700012207</ele>
        <time>2015-12-22T11:38:52.371Z</time>
      </trkpt>
      <trkpt lat="45.96029" lon="4.92693">
        <ele>294.799987793</ele>
        <time>2015-12-22T11:38:53.352Z</time>
      </trkpt>
      <trkpt lat="45.96027" lon="4.92685">
        <ele>294.700012207</ele>
        <time>2015-12-22T11:38:54.372Z</time>
      </trkpt>
      <trkpt lat="45.96024" lon="4.92677">
        <ele>294.5</ele>
        <time>2015-12-22T11:38:55.356Z</time>
      </trkpt>
      <trkpt lat="45.96021" lon="4.92668">
        <ele>294.299987793</ele>
        <time>2015-12-22T11:38:56.371Z</time>
      </trkpt>
      <trkpt lat="45.96018" lon="4.9266">
        <ele>293.799987793</ele>
        <time>2015-12-22T11:38:57.353Z</time>
      </trkpt>
      <trkpt lat="45.96016" lon="4.92652">
        <ele>293.799987793</ele>
        <time>2015-12-22T11:38:58.392Z</time>
      </trkpt>
      <trkpt lat="45.96014" lon="4.92645">
        <ele>293.899993896</ele>
        <time>2015-12-22T11:38:59.352Z</time>
      </trkpt>
      <trkpt lat="45.96011" lon="4.92637">
        <ele>293.700012207</ele>
        <time>2015-12-22T11:39:00.371Z</time>
      </trkpt>
      <trkpt lat="45.96009" lon="4.9263">
        <ele>293.600006104</ele>
        <time>2015-12-22T11:39:01.358Z</time>
      </trkpt>
      <trkpt lat="45.96008" lon="4.92623">
        <ele>293.299987793</ele>
        <time>2015-12-22T11:39:02.373Z</time>
      </trkpt>
      <trkpt lat="45.96005" lon="4.92616">
        <ele>293.299987793</ele>
        <time>2015-12-22T11:39:03.353Z</time>
      </trkpt>
      <trkpt lat="45.96004" lon="4.92609">
        <ele>293.299987793</ele>
        <time>2015-12-22T11:39:04.372Z</time>
      </trkpt>
      <trkpt lat="45.96002" lon="4.92602">
        <ele>293.200012207</ele>
        <time>2015-12-22T11:39:05.352Z</time>
      </trkpt>
      <trkpt lat="45.96" lon="4.92594">
        <ele>292.799987793</ele>
        <time>2015-12-22T11:39:06.371Z</time>
      </trkpt>
      <trkpt lat="45.95998" lon="4.92586">
        <ele>292.799987793</ele>
        <time>2015-12-22T11:39:07.355Z</time>
      </trkpt>
      <trkpt lat="45.95996" lon="4.92577">
        <ele>293</ele>
        <time>2015-12-22T11:39:08.429Z</time>
      </trkpt>
      <trkpt lat="45.95994" lon="4.92569">
        <ele>292.899993896</ele>
        <time>2015-12-22T11:39:09.353Z</time>
      </trkpt>
      <trkpt lat="45.95991" lon="4.9256">
        <ele>292.700012207</ele>
        <time>2015-12-22T11:39:10.408Z</time>
      </trkpt>
      <trkpt lat="45.95989" lon="4.92552">
        <ele>292.799987793</ele>
        <time>2015-12-22T11:39:11.352Z</time>
      </trkpt>
      <trkpt lat="45.95987" lon="4.92543">
        <ele>292.799987793</ele>
        <time>2015-12-22T11:39:12.371Z</time>
      </trkpt>
      <trkpt lat="45.95985" lon="4.92535">
        <ele>293</ele>
        <time>2015-12-22T11:39:13.356Z</time>
      </trkpt>
      <trkpt lat="45.95983" lon="4.92526">
        <ele>293.299987793</ele>
        <time>2015-12-22T11:39:14.371Z</time>
      </trkpt>
      <trkpt lat="45.95981" lon="4.92517">
        <ele>293.399993896</ele>
        <time>2015-12-22T11:39:15.353Z</time>
      </trkpt>
      <trkpt lat="45.95979" lon="4.92509">
        <ele>293.5</ele>
        <time>2015-12-22T11:39:16.372Z</time>
      </trkpt>
      <trkpt lat="45.95977" lon="4.925">
        <ele>293.5</ele>
        <time>2015-12-22T11:39:17.352Z</time>
      </trkpt>
      <trkpt lat="45.95976" lon="4.92491">
        <ele>293.600006104</ele>
        <time>2015-12-22T11:39:18.371Z</time>
      </trkpt>
      <trkpt lat="45.95974" lon="4.92483">
        <ele>293.700012207</ele>
        <time>2015-12-22T11:39:19.357Z</time>
      </trkpt>
      <trkpt lat="45.95973" lon="4.92475">
        <ele>293.600006104</ele>
        <time>2015-12-22T11:39:20.371Z</time>
      </trkpt>
      <trkpt lat="45.95971" lon="4.92466">
        <ele>293.299987793</ele>
        <time>2015-12-22T11:39:21.353Z</time>
      </trkpt>
      <trkpt lat="45.95969" lon="4.92458">
        <ele>293.200012207</ele>
        <time>2015-12-22T11:39:22.371Z</time>
      </trkpt>
      <trkpt lat="45.95968" lon="4.92449">
        <ele>293.399993896</ele>
        <time>2015-12-22T11:39:23.352Z</time>
      </trkpt>
      <trkpt lat="45.95966" lon="4.92441">
        <ele>293.5</ele>
        <time>2015-12-22T11:39:24.384Z</time>
      </trkpt>
      <trkpt lat="45.95965" lon="4.92432">
        <ele>293.700012207</ele>
        <time>2015-12-22T11:39:25.356Z</time>
      </trkpt>
      <trkpt lat="45.95963" lon="4.92423">
        <ele>293.399993896</ele>
        <time>2015-12-22T11:39:26.376Z</time>
      </trkpt>
      <trkpt lat="45.95962" lon="4.92414">
        <ele>293.200012207</ele>
        <time>2015-12-22T11:39:27.355Z</time>
      </trkpt>
      <trkpt lat="45.95959" lon="4.92405">
        <ele>292.700012207</ele>
        <time>2015-12-22T11:39:28.376Z</time>
      </trkpt>
      <trkpt lat="45.95958" lon="4.92397">
        <ele>292.399993896</ele>
        <time>2015-12-22T11:39:29.352Z</time>
      </trkpt>
      <trkpt lat="45.95957" lon="4.92389">
        <ele>292</ele>
        <time>2015-12-22T11:39:30.371Z</time>
      </trkpt>
      <trkpt lat="45.95955" lon="4.92381">
        <ele>292.100006104</ele>
        <time>2015-12-22T11:39:31.355Z</time>
      </trkpt>
      <trkpt lat="45.95953" lon="4.92374">
        <ele>291.899993896</ele>
        <time>2015-12-22T11:39:32.37Z</time>
      </trkpt>
      <trkpt lat="45.95951" lon="4.92367">
        <ele>291.700012207</ele>
        <time>2015-12-22T11:39:33.353Z</time>
      </trkpt>
      <trkpt lat="45.9595" lon="4.9236">
        <ele>291.700012207</ele>
        <time>2015-12-22T11:39:34.386Z</time>
      </trkpt>
      <trkpt lat="45.95949" lon="4.92352">
        <ele>291.600006104</ele>
        <time>2015-12-22T11:39:35.376Z</time>
      </trkpt>
      <trkpt lat="45.95948" lon="4.92344">
        <ele>291.5</ele>
        <time>2015-12-22T11:39:36.372Z</time>
      </trkpt>
      <trkpt lat="45.95947" lon="4.92336">
        <ele>291.600006104</ele>
        <time>2015-12-22T11:39:37.355Z</time>
      </trkpt>
      <trkpt lat="45.95946" lon="4.92328">
        <ele>291.799987793</ele>
        <time>2015-12-22T11:39:38.371Z</time>
      </trkpt>
      <trkpt lat="45.95944" lon="4.9232">
        <ele>291.700012207</ele>
        <time>2015-12-22T11:39:39.353Z</time>
      </trkpt>
      <trkpt lat="45.95943" lon="4.92311">
        <ele>291.399993896</ele>
        <time>2015-12-22T11:39:40.39Z</time>
      </trkpt>
      <trkpt lat="45.95941" lon="4.92303">
        <ele>291.399993896</ele>
        <time>2015-12-22T11:39:41.353Z</time>
      </trkpt>
      <trkpt lat="45.9594" lon="4.92295">
        <ele>291.399993896</ele>
        <time>2015-12-22T11:39:42.371Z</time>
      </trkpt>
      <trkpt lat="45.95939" lon="4.92287">
        <ele>291.600006104</ele>
        <time>2015-12-22T11:39:43.356Z</time>
      </trkpt>
      <trkpt lat="45.95937" lon="4.92279">
        <ele>291.399993896</ele>
        <time>2015-12-22T11:39:44.371Z</time>
      </trkpt>
      <trkpt lat="45.95936" lon="4.92272">
        <ele>291.600006104</ele>
        <time>2015-12-22T11:39:45.353Z</time>
      </trkpt>
      <trkpt lat="45.95934" lon="4.92264">
        <ele>292</ele>
        <time>2015-12-22T11:39:46.371Z</time>
      </trkpt>
      <trkpt lat="45.95933" lon="4.92257">
        <ele>292.100006104</ele>
        <time>2015-12-22T11:39:47.355Z</time>
      </trkpt>
      <trkpt lat="45.95931" lon="4.92249">
        <ele>292</ele>
        <time>2015-12-22T11:39:48.373Z</time>
      </trkpt>
      <trkpt lat="45.9593" lon="4.92241">
        <ele>292</ele>
        <time>2015-12-22T11:39:49.358Z</time>
      </trkpt>
      <trkpt lat="45.95929" lon="4.92233">
        <ele>292.200012207</ele>
        <time>2015-12-22T11:39:50.372Z</time>
      </trkpt>
      <trkpt lat="45.95927" lon="4.92225">
        <ele>292.200012207</ele>
        <time>2015-12-22T11:39:51.353Z</time>
      </trkpt>
      <trkpt lat="45.95926" lon="4.92216">
        <ele>292.5</ele>
        <time>2015-12-22T11:39:52.37Z</time>
      </trkpt>
      <trkpt lat="45.95924" lon="4.92208">
        <ele>293</ele>
        <time>2015-12-22T11:39:53.354Z</time>
      </trkpt>
      <trkpt lat="45.95923" lon="4.922">
        <ele>293.200012207</ele>
        <time>2015-12-22T11:39:54.373Z</time>
      </trkpt>
      <trkpt lat="45.95922" lon="4.92193">
        <ele>293.5</ele>
        <time>2015-12-22T11:39:55.358Z</time>
      </trkpt>
      <trkpt lat="45.9592" lon="4.92185">
        <ele>293.399993896</ele>
        <time>2015-12-22T11:39:56.439Z</time>
      </trkpt>
      <trkpt lat="45.9592" lon="4.92177">
        <ele>293.399993896</ele>
        <time>2015-12-22T11:39:57.353Z</time>
      </trkpt>
      <trkpt lat="45.95918" lon="4.92169">
        <ele>293.600006104</ele>
        <time>2015-12-22T11:39:58.371Z</time>
      </trkpt>
      <trkpt lat="45.95917" lon="4.92161">
        <ele>293.700012207</ele>
        <time>2015-12-22T11:39:59.352Z</time>
      </trkpt>
      <trkpt lat="45.95916" lon="4.92154">
        <ele>293.700012207</ele>
        <time>2015-12-22T11:40:00.371Z</time>
      </trkpt>
      <trkpt lat="45.95915" lon="4.92147">
        <ele>293.5</ele>
        <time>2015-12-22T11:40:01.357Z</time>
      </trkpt>
      <trkpt lat="45.95913" lon="4.92141">
        <ele>293.5</ele>
        <time>2015-12-22T11:40:02.37Z</time>
      </trkpt>
      <trkpt lat="45.95912" lon="4.92134">
        <ele>293.200012207</ele>
        <time>2015-12-22T11:40:03.354Z</time>
      </trkpt>
      <trkpt lat="45.95911" lon="4.92127">
        <ele>292.899993896</ele>
        <time>2015-12-22T11:40:04.37Z</time>
      </trkpt>
      <trkpt lat="45.9591" lon="4.9212">
        <ele>292.700012207</ele>
        <time>2015-12-22T11:40:05.352Z</time>
      </trkpt>
      <trkpt lat="45.95908" lon="4.92113">
        <ele>292.799987793</ele>
        <time>2015-12-22T11:40:06.37Z</time>
      </trkpt>
      <trkpt lat="45.95907" lon="4.92106">
        <ele>292.600006104</ele>
        <time>2015-12-22T11:40:07.355Z</time>
      </trkpt>
      <trkpt lat="45.95905" lon="4.92099">
        <ele>292.100006104</ele>
        <time>2015-12-22T11:40:08.37Z</time>
      </trkpt>
      <trkpt lat="45.95904" lon="4.92092">
        <ele>292</ele>
        <time>2015-12-22T11:40:09.354Z</time>
      </trkpt>
      <trkpt lat="45.95902" lon="4.92086">
        <ele>292.100006104</ele>
        <time>2015-12-22T11:40:10.372Z</time>
      </trkpt>
      <trkpt lat="45.95901" lon="4.92079">
        <ele>292.299987793</ele>
        <time>2015-12-22T11:40:11.354Z</time>
      </trkpt>
      <trkpt lat="45.959" lon="4.92072">
        <ele>292.399993896</ele>
        <time>2015-12-22T11:40:12.42Z</time>
      </trkpt>
      <trkpt lat="45.95899" lon="4.92065">
        <ele>292.600006104</ele>
        <time>2015-12-22T11:40:13.355Z</time>
      </trkpt>
      <trkpt lat="45.95898" lon="4.92058">
        <ele>292.600006104</ele>
        <time>2015-12-22T11:40:14.371Z</time>
      </trkpt>
      <trkpt lat="45.95897" lon="4.92051">
        <ele>292.700012207</ele>
        <time>2015-12-22T11:40:15.352Z</time>
      </trkpt>
      <trkpt lat="45.95895" lon="4.92043">
        <ele>292.700012207</ele>
        <time>2015-12-22T11:40:16.37Z</time>
      </trkpt>
      <trkpt lat="45.95894" lon="4.92036">
        <ele>292.799987793</ele>
        <time>2015-12-22T11:40:17.353Z</time>
      </trkpt>
      <trkpt lat="45.95893" lon="4.92028">
        <ele>292.799987793</ele>
        <time>2015-12-22T11:40:18.37Z</time>
      </trkpt>
      <trkpt lat="45.95891" lon="4.9202">
        <ele>292.600006104</ele>
        <time>2015-12-22T11:40:19.358Z</time>
      </trkpt>
      <trkpt lat="45.9589" lon="4.92012">
        <ele>292.600006104</ele>
        <time>2015-12-22T11:40:20.395Z</time>
      </trkpt>
      <trkpt lat="45.95888" lon="4.92004">
        <ele>292.700012207</ele>
        <time>2015-12-22T11:40:21.388Z</time>
      </trkpt>
      <trkpt lat="45.95887" lon="4.91996">
        <ele>292.799987793</ele>
        <time>2015-12-22T11:40:22.371Z</time>
      </trkpt>
      <trkpt lat="45.95886" lon="4.91989">
        <ele>293.100006104</ele>
        <time>2015-12-22T11:40:23.352Z</time>
      </trkpt>
      <trkpt lat="45.95885" lon="4.91981">
        <ele>293.299987793</ele>
        <time>2015-12-22T11:40:24.371Z</time>
      </trkpt>
      <trkpt lat="45.95884" lon="4.91974">
        <ele>293.399993896</ele>
        <time>2015-12-22T11:40:25.355Z</time>
      </trkpt>
      <trkpt lat="45.95883" lon="4.91967">
        <ele>293.399993896</ele>
        <time>2015-12-22T11:40:26.371Z</time>
      </trkpt>
      <trkpt lat="45.95882" lon="4.9196">
        <ele>293.5</ele>
        <time>2015-12-22T11:40:27.353Z</time>
      </trkpt>
      <trkpt lat="45.9588" lon="4.91953">
        <ele>293.799987793</ele>
        <time>2015-12-22T11:40:28.386Z</time>
      </trkpt>
      <trkpt lat="45.95879" lon="4.91946">
        <ele>293.899993896</ele>
        <time>2015-12-22T11:40:29.352Z</time>
      </trkpt>
      <trkpt lat="45.95879" lon="4.91938">
        <ele>294.200012207</ele>
        <time>2015-12-22T11:40:30.371Z</time>
      </trkpt>
      <trkpt lat="45.95877" lon="4.9193">
        <ele>294.299987793</ele>
        <time>2015-12-22T11:40:31.357Z</time>
      </trkpt>
      <trkpt lat="45.95876" lon="4.91922">
        <ele>294.299987793</ele>
        <time>2015-12-22T11:40:32.371Z</time>
      </trkpt>
      <trkpt lat="45.95874" lon="4.91914">
        <ele>294.100006104</ele>
        <time>2015-12-22T11:40:33.353Z</time>
      </trkpt>
      <trkpt lat="45.95873" lon="4.91906">
        <ele>294</ele>
        <time>2015-12-22T11:40:34.371Z</time>
      </trkpt>
      <trkpt lat="45.95872" lon="4.91899">
        <ele>294.100006104</ele>
        <time>2015-12-22T11:40:35.351Z</time>
      </trkpt>
      <trkpt lat="45.9587" lon="4.91892">
        <ele>294.100006104</ele>
        <time>2015-12-22T11:40:36.371Z</time>
      </trkpt>
      <trkpt lat="45.95869" lon="4.91885">
        <ele>294.5</ele>
        <time>2015-12-22T11:40:37.357Z</time>
      </trkpt>
      <trkpt lat="45.95868" lon="4.91877">
        <ele>294.200012207</ele>
        <time>2015-12-22T11:40:38.371Z</time>
      </trkpt>
      <trkpt lat="45.95866" lon="4.9187">
        <ele>294.299987793</ele>
        <time>2015-12-22T11:40:39.352Z</time>
      </trkpt>
      <trkpt lat="45.95865" lon="4.91863">
        <ele>294.100006104</ele>
        <time>2015-12-22T11:40:40.37Z</time>
      </trkpt>
      <trkpt lat="45.95863" lon="4.91856">
        <ele>293.799987793</ele>
        <time>2015-12-22T11:40:41.352Z</time>
      </trkpt>
      <trkpt lat="45.95861" lon="4.91848">
        <ele>293.5</ele>
        <time>2015-12-22T11:40:42.378Z</time>
      </trkpt>
      <trkpt lat="45.9586" lon="4.9184">
        <ele>293.799987793</ele>
        <time>2015-12-22T11:40:43.356Z</time>
      </trkpt>
      <trkpt lat="45.95858" lon="4.91832">
        <ele>293.899993896</ele>
        <time>2015-12-22T11:40:44.444Z</time>
      </trkpt>
      <trkpt lat="45.95857" lon="4.91824">
        <ele>294.200012207</ele>
        <time>2015-12-22T11:40:45.355Z</time>
      </trkpt>
      <trkpt lat="45.95855" lon="4.91817">
        <ele>294.600006104</ele>
        <time>2015-12-22T11:40:46.376Z</time>
      </trkpt>
      <trkpt lat="45.95854" lon="4.91809">
        <ele>294.700012207</ele>
        <time>2015-12-22T11:40:47.351Z</time>
      </trkpt>
      <trkpt lat="45.95853" lon="4.91801">
        <ele>294.799987793</ele>
        <time>2015-12-22T11:40:48.371Z</time>
      </trkpt>
      <trkpt lat="45.95852" lon="4.91793">
        <ele>294.899993896</ele>
        <time>2015-12-22T11:40:49.358Z</time>
      </trkpt>
      <trkpt lat="45.95851" lon="4.91785">
        <ele>295.200012207</ele>
        <time>2015-12-22T11:40:50.371Z</time>
      </trkpt>
      <trkpt lat="45.95849" lon="4.91778">
        <ele>295.399993896</ele>
        <time>2015-12-22T11:40:51.352Z</time>
      </trkpt>
      <trkpt lat="45.95848" lon="4.9177">
        <ele>295.5</ele>
        <time>2015-12-22T11:40:52.37Z</time>
      </trkpt>
      <trkpt lat="45.95846" lon="4.91763">
        <ele>295.799987793</ele>
        <time>2015-12-22T11:40:53.351Z</time>
      </trkpt>
      <trkpt lat="45.95845" lon="4.91755">
        <ele>296.100006104</ele>
        <time>2015-12-22T11:40:54.384Z</time>
      </trkpt>
      <trkpt lat="45.95844" lon="4.91747">
        <ele>296.399993896</ele>
        <time>2015-12-22T11:40:55.357Z</time>
      </trkpt>
      <trkpt lat="45.95843" lon="4.9174">
        <ele>296.600006104</ele>
        <time>2015-12-22T11:40:56.372Z</time>
      </trkpt>
      <trkpt lat="45.95843" lon="4.91733">
        <ele>296.700012207</ele>
        <time>2015-12-22T11:40:57.352Z</time>
      </trkpt>
      <trkpt lat="45.95842" lon="4.91725">
        <ele>296.899993896</ele>
        <time>2015-12-22T11:40:58.372Z</time>
      </trkpt>
      <trkpt lat="45.95842" lon="4.91718">
        <ele>297.100006104</ele>
        <time>2015-12-22T11:40:59.351Z</time>
      </trkpt>
      <trkpt lat="45.95841" lon="4.9171">
        <ele>297.200012207</ele>
        <time>2015-12-22T11:41:00.385Z</time>
      </trkpt>
      <trkpt lat="45.9584" lon="4.91701">
        <ele>297.5</ele>
        <time>2015-12-22T11:41:01.355Z</time>
      </trkpt>
      <trkpt lat="45.9584" lon="4.91693">
        <ele>297.299987793</ele>
        <time>2015-12-22T11:41:02.371Z</time>
      </trkpt>
      <trkpt lat="45.95841" lon="4.91684">
        <ele>297.100006104</ele>
        <time>2015-12-22T11:41:03.352Z</time>
      </trkpt>
      <trkpt lat="45.95841" lon="4.91676">
        <ele>296.799987793</ele>
        <time>2015-12-22T11:41:04.505Z</time>
      </trkpt>
      <trkpt lat="45.95841" lon="4.91667">
        <ele>296.399993896</ele>
        <time>2015-12-22T11:41:05.375Z</time>
      </trkpt>
      <trkpt lat="45.95841" lon="4.91658">
        <ele>296.100006104</ele>
        <time>2015-12-22T11:41:06.372Z</time>
      </trkpt>
      <trkpt lat="45.95841" lon="4.91649">
        <ele>295.799987793</ele>
        <time>2015-12-22T11:41:07.357Z</time>
      </trkpt>
      <trkpt lat="45.95841" lon="4.91639">
        <ele>295.899993896</ele>
        <time>2015-12-22T11:41:08.371Z</time>
      </trkpt>
      <trkpt lat="45.95841" lon="4.9163">
        <ele>295.899993896</ele>
        <time>2015-12-22T11:41:09.353Z</time>
      </trkpt>
      <trkpt lat="45.95842" lon="4.91619">
        <ele>296</ele>
        <time>2015-12-22T11:41:10.375Z</time>
      </trkpt>
      <trkpt lat="45.95842" lon="4.91609">
        <ele>295.799987793</ele>
        <time>2015-12-22T11:41:11.354Z</time>
      </trkpt>
      <trkpt lat="45.95843" lon="4.91599">
        <ele>295.600006104</ele>
        <time>2015-12-22T11:41:12.38Z</time>
      </trkpt>
      <trkpt lat="45.95843" lon="4.91589">
        <ele>295.299987793</ele>
        <time>2015-12-22T11:41:13.353Z</time>
      </trkpt>
      <trkpt lat="45.95843" lon="4.9158">
        <ele>295.100006104</ele>
        <time>2015-12-22T11:41:14.37Z</time>
      </trkpt>
      <trkpt lat="45.95843" lon="4.9157">
        <ele>294.899993896</ele>
        <time>2015-12-22T11:41:15.352Z</time>
      </trkpt>
      <trkpt lat="45.95843" lon="4.9156">
        <ele>295</ele>
        <time>2015-12-22T11:41:16.372Z</time>
      </trkpt>
      <trkpt lat="45.95844" lon="4.9155">
        <ele>294.700012207</ele>
        <time>2015-12-22T11:41:17.5Z</time>
      </trkpt>
      <trkpt lat="45.95845" lon="4.91541">
        <ele>294.600006104</ele>
        <time>2015-12-22T11:41:18.372Z</time>
      </trkpt>
      <trkpt lat="45.95846" lon="4.91533">
        <ele>294.399993896</ele>
        <time>2015-12-22T11:41:19.355Z</time>
      </trkpt>
      <trkpt lat="45.95846" lon="4.91524">
        <ele>294.100006104</ele>
        <time>2015-12-22T11:41:20.381Z</time>
      </trkpt>
      <trkpt lat="45.95847" lon="4.91516">
        <ele>294.100006104</ele>
        <time>2015-12-22T11:41:21.354Z</time>
      </trkpt>
      <trkpt lat="45.95848" lon="4.91508">
        <ele>293.700012207</ele>
        <time>2015-12-22T11:41:22.371Z</time>
      </trkpt>
      <trkpt lat="45.95848" lon="4.915">
        <ele>293.799987793</ele>
        <time>2015-12-22T11:41:23.353Z</time>
      </trkpt>
      <trkpt lat="45.95849" lon="4.91492">
        <ele>293.899993896</ele>
        <time>2015-12-22T11:41:24.37Z</time>
      </trkpt>
      <trkpt lat="45.95849" lon="4.91483">
        <ele>293.899993896</ele>
        <time>2015-12-22T11:41:25.355Z</time>
      </trkpt>
      <trkpt lat="45.95849" lon="4.91474">
        <ele>293.899993896</ele>
        <time>2015-12-22T11:41:26.389Z</time>
      </trkpt>
      <trkpt lat="45.95849" lon="4.91466">
        <ele>294.200012207</ele>
        <time>2015-12-22T11:41:27.356Z</time>
      </trkpt>
      <trkpt lat="45.95849" lon="4.91458">
        <ele>294.5</ele>
        <time>2015-12-22T11:41:28.371Z</time>
      </trkpt>
      <trkpt lat="45.95849" lon="4.91449">
        <ele>294.799987793</ele>
        <time>2015-12-22T11:41:29.356Z</time>
      </trkpt>
      <trkpt lat="45.95849" lon="4.9144">
        <ele>294.700012207</ele>
        <time>2015-12-22T11:41:30.419Z</time>
      </trkpt>
      <trkpt lat="45.95849" lon="4.91431">
        <ele>294.799987793</ele>
        <time>2015-12-22T11:41:31.357Z</time>
      </trkpt>
      <trkpt lat="45.95849" lon="4.91422">
        <ele>294.899993896</ele>
        <time>2015-12-22T11:41:32.371Z</time>
      </trkpt>
      <trkpt lat="45.95849" lon="4.91413">
        <ele>294.700012207</ele>
        <time>2015-12-22T11:41:33.352Z</time>
      </trkpt>
      <trkpt lat="45.95849" lon="4.91404">
        <ele>294.600006104</ele>
        <time>2015-12-22T11:41:34.372Z</time>
      </trkpt>
      <trkpt lat="45.95849" lon="4.91395">
        <ele>294.299987793</ele>
        <time>2015-12-22T11:41:35.351Z</time>
      </trkpt>
      <trkpt lat="45.9585" lon="4.91386">
        <ele>294.5</ele>
        <time>2015-12-22T11:41:36.371Z</time>
      </trkpt>
      <trkpt lat="45.9585" lon="4.91378">
        <ele>294.399993896</ele>
        <time>2015-12-22T11:41:37.358Z</time>
      </trkpt>
      <trkpt lat="45.95851" lon="4.91369">
        <ele>294.100006104</ele>
        <time>2015-12-22T11:41:38.375Z</time>
      </trkpt>
      <trkpt lat="45.95851" lon="4.9136">
        <ele>293.700012207</ele>
        <time>2015-12-22T11:41:39.356Z</time>
      </trkpt>
      <trkpt lat="45.95852" lon="4.91352">
        <ele>293.600006104</ele>
        <time>2015-12-22T11:41:40.371Z</time>
      </trkpt>
      <trkpt lat="45.95852" lon="4.91344">
        <ele>293.5</ele>
        <time>2015-12-22T11:41:41.351Z</time>
      </trkpt>
      <trkpt lat="45.95852" lon="4.91335">
        <ele>293.200012207</ele>
        <time>2015-12-22T11:41:42.386Z</time>
      </trkpt>
      <trkpt lat="45.95852" lon="4.91327">
        <ele>292.799987793</ele>
        <time>2015-12-22T11:41:43.355Z</time>
      </trkpt>
      <trkpt lat="45.95853" lon="4.91319">
        <ele>292.5</ele>
        <time>2015-12-22T11:41:44.37Z</time>
      </trkpt>
      <trkpt lat="45.95854" lon="4.91311">
        <ele>292.399993896</ele>
        <time>2015-12-22T11:41:45.352Z</time>
      </trkpt>
      <trkpt lat="45.95854" lon="4.91302">
        <ele>292.399993896</ele>
        <time>2015-12-22T11:41:46.371Z</time>
      </trkpt>
      <trkpt lat="45.95854" lon="4.91293">
        <ele>292.200012207</ele>
        <time>2015-12-22T11:41:47.353Z</time>
      </trkpt>
      <trkpt lat="45.95855" lon="4.91283">
        <ele>292</ele>
        <time>2015-12-22T11:41:48.535Z</time>
      </trkpt>
      <trkpt lat="45.95855" lon="4.91274">
        <ele>292</ele>
        <time>2015-12-22T11:41:49.358Z</time>
      </trkpt>
      <trkpt lat="45.95855" lon="4.91265">
        <ele>291.799987793</ele>
        <time>2015-12-22T11:41:50.392Z</time>
      </trkpt>
      <trkpt lat="45.95855" lon="4.91256">
        <ele>291.5</ele>
        <time>2015-12-22T11:41:51.346Z</time>
      </trkpt>
      <trkpt lat="45.95855" lon="4.91248">
        <ele>291.200012207</ele>
        <time>2015-12-22T11:41:52.385Z</time>
      </trkpt>
      <trkpt lat="45.95856" lon="4.91239">
        <ele>291</ele>
        <time>2015-12-22T11:41:53.353Z</time>
      </trkpt>
      <trkpt lat="45.95856" lon="4.9123">
        <ele>290.799987793</ele>
        <time>2015-12-22T11:41:54.373Z</time>
      </trkpt>
      <trkpt lat="45.95856" lon="4.91221">
        <ele>290.600006104</ele>
        <time>2015-12-22T11:41:55.357Z</time>
      </trkpt>
      <trkpt lat="45.95856" lon="4.91211">
        <ele>290.700012207</ele>
        <time>2015-12-22T11:41:56.372Z</time>
      </trkpt>
      <trkpt lat="45.95856" lon="4.91202">
        <ele>290.5</ele>
        <time>2015-12-22T11:41:57.355Z</time>
      </trkpt>
      <trkpt lat="45.95857" lon="4.91193">
        <ele>290.600006104</ele>
        <time>2015-12-22T11:41:58.374Z</time>
      </trkpt>
      <trkpt lat="45.95857" lon="4.91184">
        <ele>290.799987793</ele>
        <time>2015-12-22T11:41:59.351Z</time>
      </trkpt>
      <trkpt lat="45.95857" lon="4.91175">
        <ele>291</ele>
        <time>2015-12-22T11:42:00.371Z</time>
      </trkpt>
      <trkpt lat="45.95857" lon="4.91167">
        <ele>291.200012207</ele>
        <time>2015-12-22T11:42:01.356Z</time>
      </trkpt>
      <trkpt lat="45.95857" lon="4.91158">
        <ele>291.399993896</ele>
        <time>2015-12-22T11:42:02.37Z</time>
      </trkpt>
      <trkpt lat="45.95858" lon="4.9115">
        <ele>291.399993896</ele>
        <time>2015-12-22T11:42:03.355Z</time>
      </trkpt>
      <trkpt lat="45.95858" lon="4.91142">
        <ele>291.5</ele>
        <time>2015-12-22T11:42:04.375Z</time>
      </trkpt>
      <trkpt lat="45.95859" lon="4.91133">
        <ele>291.399993896</ele>
        <time>2015-12-22T11:42:05.351Z</time>
      </trkpt>
      <trkpt lat="45.95859" lon="4.91125">
        <ele>291.299987793</ele>
        <time>2015-12-22T11:42:06.37Z</time>
      </trkpt>
      <trkpt lat="45.95859" lon="4.91116">
        <ele>291.299987793</ele>
        <time>2015-12-22T11:42:07.355Z</time>
      </trkpt>
      <trkpt lat="45.95859" lon="4.91108">
        <ele>291.200012207</ele>
        <time>2015-12-22T11:42:08.385Z</time>
      </trkpt>
      <trkpt lat="45.95859" lon="4.91099">
        <ele>291.299987793</ele>
        <time>2015-12-22T11:42:09.352Z</time>
      </trkpt>
      <trkpt lat="45.9586" lon="4.91092">
        <ele>291.399993896</ele>
        <time>2015-12-22T11:42:10.439Z</time>
      </trkpt>
      <trkpt lat="45.95861" lon="4.91084">
        <ele>291.5</ele>
        <time>2015-12-22T11:42:11.351Z</time>
      </trkpt>
      <trkpt lat="45.95861" lon="4.91076">
        <ele>291.5</ele>
        <time>2015-12-22T11:42:12.371Z</time>
      </trkpt>
      <trkpt lat="45.95861" lon="4.91067">
        <ele>291.399993896</ele>
        <time>2015-12-22T11:42:13.355Z</time>
      </trkpt>
      <trkpt lat="45.95862" lon="4.91058">
        <ele>291.299987793</ele>
        <time>2015-12-22T11:42:14.371Z</time>
      </trkpt>
      <trkpt lat="45.95863" lon="4.91048">
        <ele>291.100006104</ele>
        <time>2015-12-22T11:42:15.354Z</time>
      </trkpt>
      <trkpt lat="45.95863" lon="4.91039">
        <ele>291</ele>
        <time>2015-12-22T11:42:16.371Z</time>
      </trkpt>
      <trkpt lat="45.95864" lon="4.91029">
        <ele>291.299987793</ele>
        <time>2015-12-22T11:42:17.352Z</time>
      </trkpt>
      <trkpt lat="45.95865" lon="4.9102">
        <ele>291.100006104</ele>
        <time>2015-12-22T11:42:18.37Z</time>
      </trkpt>
      <trkpt lat="45.95865" lon="4.91011">
        <ele>291</ele>
        <time>2015-12-22T11:42:19.355Z</time>
      </trkpt>
      <trkpt lat="45.95865" lon="4.91002">
        <ele>290.899993896</ele>
        <time>2015-12-22T11:42:20.371Z</time>
      </trkpt>
      <trkpt lat="45.95866" lon="4.90994">
        <ele>290.799987793</ele>
        <time>2015-12-22T11:42:21.352Z</time>
      </trkpt>
      <trkpt lat="45.95866" lon="4.90985">
        <ele>290.700012207</ele>
        <time>2015-12-22T11:42:22.372Z</time>
      </trkpt>
      <trkpt lat="45.95866" lon="4.90977">
        <ele>290.299987793</ele>
        <time>2015-12-22T11:42:23.352Z</time>
      </trkpt>
      <trkpt lat="45.95867" lon="4.90968">
        <ele>289.899993896</ele>
        <time>2015-12-22T11:42:24.387Z</time>
      </trkpt>
      <trkpt lat="45.95867" lon="4.90959">
        <ele>289.600006104</ele>
        <time>2015-12-22T11:42:25.356Z</time>
      </trkpt>
      <trkpt lat="45.95867" lon="4.9095">
        <ele>289.299987793</ele>
        <time>2015-12-22T11:42:26.384Z</time>
      </trkpt>
      <trkpt lat="45.95868" lon="4.90941">
        <ele>289.200012207</ele>
        <time>2015-12-22T11:42:27.354Z</time>
      </trkpt>
      <trkpt lat="45.95868" lon="4.90933">
        <ele>289.399993896</ele>
        <time>2015-12-22T11:42:28.371Z</time>
      </trkpt>
      <trkpt lat="45.95868" lon="4.90924">
        <ele>289.299987793</ele>
        <time>2015-12-22T11:42:29.354Z</time>
      </trkpt>
      <trkpt lat="45.95868" lon="4.90916">
        <ele>289.100006104</ele>
        <time>2015-12-22T11:42:30.374Z</time>
      </trkpt>
      <trkpt lat="45.95868" lon="4.90907">
        <ele>289.200012207</ele>
        <time>2015-12-22T11:42:31.355Z</time>
      </trkpt>
      <trkpt lat="45.95869" lon="4.90898">
        <ele>289.299987793</ele>
        <time>2015-12-22T11:42:32.37Z</time>
      </trkpt>
      <trkpt lat="45.95868" lon="4.90889">
        <ele>289.399993896</ele>
        <time>2015-12-22T11:42:33.352Z</time>
      </trkpt>
      <trkpt lat="45.95869" lon="4.9088">
        <ele>289.5</ele>
        <time>2015-12-22T11:42:34.438Z</time>
      </trkpt>
      <trkpt lat="45.95869" lon="4.90871">
        <ele>289.5</ele>
        <time>2015-12-22T11:42:35.376Z</time>
      </trkpt>
      <trkpt lat="45.9587" lon="4.90862">
        <ele>289.399993896</ele>
        <time>2015-12-22T11:42:36.371Z</time>
      </trkpt>
      <trkpt lat="45.9587" lon="4.90853">
        <ele>289.5</ele>
        <time>2015-12-22T11:42:37.357Z</time>
      </trkpt>
      <trkpt lat="45.9587" lon="4.90844">
        <ele>289.200012207</ele>
        <time>2015-12-22T11:42:38.406Z</time>
      </trkpt>
      <trkpt lat="45.9587" lon="4.90835">
        <ele>289.100006104</ele>
        <time>2015-12-22T11:42:39.356Z</time>
      </trkpt>
      <trkpt lat="45.9587" lon="4.90826">
        <ele>289.200012207</ele>
        <time>2015-12-22T11:42:40.378Z</time>
      </trkpt>
      <trkpt lat="45.95871" lon="4.90816">
        <ele>289.200012207</ele>
        <time>2015-12-22T11:42:41.351Z</time>
      </trkpt>
      <trkpt lat="45.95871" lon="4.90807">
        <ele>289.100006104</ele>
        <time>2015-12-22T11:42:42.482Z</time>
      </trkpt>
      <trkpt lat="45.95871" lon="4.90798">
        <ele>289.299987793</ele>
        <time>2015-12-22T11:42:43.4Z</time>
      </trkpt>
      <trkpt lat="45.95872" lon="4.90789">
        <ele>289.100006104</ele>
        <time>2015-12-22T11:42:44.371Z</time>
      </trkpt>
      <trkpt lat="45.95872" lon="4.90781">
        <ele>289</ele>
        <time>2015-12-22T11:42:45.356Z</time>
      </trkpt>
      <trkpt lat="45.95872" lon="4.90772">
        <ele>289.100006104</ele>
        <time>2015-12-22T11:42:46.372Z</time>
      </trkpt>
      <trkpt lat="45.95873" lon="4.90765">
        <ele>289.299987793</ele>
        <time>2015-12-22T11:42:47.351Z</time>
      </trkpt>
      <trkpt lat="45.95873" lon="4.90757">
        <ele>289.200012207</ele>
        <time>2015-12-22T11:42:48.371Z</time>
      </trkpt>
      <trkpt lat="45.95873" lon="4.90749">
        <ele>289.200012207</ele>
        <time>2015-12-22T11:42:49.359Z</time>
      </trkpt>
      <trkpt lat="45.95873" lon="4.90742">
        <ele>289.200012207</ele>
        <time>2015-12-22T11:42:50.386Z</time>
      </trkpt>
      <trkpt lat="45.95873" lon="4.90734">
        <ele>289</ele>
        <time>2015-12-22T11:42:51.352Z</time>
      </trkpt>
      <trkpt lat="45.95874" lon="4.90726">
        <ele>288.799987793</ele>
        <time>2015-12-22T11:42:52.445Z</time>
      </trkpt>
      <trkpt lat="45.95874" lon="4.90718">
        <ele>288.799987793</ele>
        <time>2015-12-22T11:42:53.351Z</time>
      </trkpt>
      <trkpt lat="45.95874" lon="4.9071">
        <ele>288.600006104</ele>
        <time>2015-12-22T11:42:54.381Z</time>
      </trkpt>
      <trkpt lat="45.95874" lon="4.90702">
        <ele>288.5</ele>
        <time>2015-12-22T11:42:55.357Z</time>
      </trkpt>
      <trkpt lat="45.95874" lon="4.90694">
        <ele>288.399993896</ele>
        <time>2015-12-22T11:42:56.375Z</time>
      </trkpt>
      <trkpt lat="45.95874" lon="4.90686">
        <ele>288.100006104</ele>
        <time>2015-12-22T11:42:57.353Z</time>
      </trkpt>
      <trkpt lat="45.95875" lon="4.90678">
        <ele>288.200012207</ele>
        <time>2015-12-22T11:42:58.37Z</time>
      </trkpt>
      <trkpt lat="45.95876" lon="4.90669">
        <ele>288.100006104</ele>
        <time>2015-12-22T11:42:59.398Z</time>
      </trkpt>
      <trkpt lat="45.95876" lon="4.90661">
        <ele>288</ele>
        <time>2015-12-22T11:43:00.371Z</time>
      </trkpt>
      <trkpt lat="45.95876" lon="4.90652">
        <ele>288</ele>
        <time>2015-12-22T11:43:01.35Z</time>
      </trkpt>
      <trkpt lat="45.95876" lon="4.90644">
        <ele>288.100006104</ele>
        <time>2015-12-22T11:43:02.37Z</time>
      </trkpt>
      <trkpt lat="45.95877" lon="4.90635">
        <ele>288.200012207</ele>
        <time>2015-12-22T11:43:03.353Z</time>
      </trkpt>
      <trkpt lat="45.95878" lon="4.90626">
        <ele>288.200012207</ele>
        <time>2015-12-22T11:43:04.37Z</time>
      </trkpt>
      <trkpt lat="45.95878" lon="4.90617">
        <ele>288.200012207</ele>
        <time>2015-12-22T11:43:05.352Z</time>
      </trkpt>
      <trkpt lat="45.95879" lon="4.90608">
        <ele>288.200012207</ele>
        <time>2015-12-22T11:43:06.52Z</time>
      </trkpt>
      <trkpt lat="45.95879" lon="4.90599">
        <ele>288.200012207</ele>
        <time>2015-12-22T11:43:07.355Z</time>
      </trkpt>
      <trkpt lat="45.95879" lon="4.9059">
        <ele>288.299987793</ele>
        <time>2015-12-22T11:43:08.371Z</time>
      </trkpt>
      <trkpt lat="45.95879" lon="4.90581">
        <ele>288.299987793</ele>
        <time>2015-12-22T11:43:09.353Z</time>
      </trkpt>
      <trkpt lat="45.9588" lon="4.90573">
        <ele>288.100006104</ele>
        <time>2015-12-22T11:43:10.37Z</time>
      </trkpt>
      <trkpt lat="45.9588" lon="4.90564">
        <ele>288</ele>
        <time>2015-12-22T11:43:11.358Z</time>
      </trkpt>
      <trkpt lat="45.95881" lon="4.90556">
        <ele>287.700012207</ele>
        <time>2015-12-22T11:43:12.371Z</time>
      </trkpt>
      <trkpt lat="45.95881" lon="4.90548">
        <ele>287.600006104</ele>
        <time>2015-12-22T11:43:13.355Z</time>
      </trkpt>
      <trkpt lat="45.95881" lon="4.90539">
        <ele>287.5</ele>
        <time>2015-12-22T11:43:14.371Z</time>
      </trkpt>
      <trkpt lat="45.95881" lon="4.90531">
        <ele>287.399993896</ele>
        <time>2015-12-22T11:43:15.353Z</time>
      </trkpt>
      <trkpt lat="45.95882" lon="4.90522">
        <ele>287.200012207</ele>
        <time>2015-12-22T11:43:16.37Z</time>
      </trkpt>
      <trkpt lat="45.95882" lon="4.90513">
        <ele>287.299987793</ele>
        <time>2015-12-22T11:43:17.382Z</time>
      </trkpt>
      <trkpt lat="45.95882" lon="4.90504">
        <ele>287.299987793</ele>
        <time>2015-12-22T11:43:18.37Z</time>
      </trkpt>
      <trkpt lat="45.95883" lon="4.90496">
        <ele>287.299987793</ele>
        <time>2015-12-22T11:43:19.358Z</time>
      </trkpt>
      <trkpt lat="45.95883" lon="4.90487">
        <ele>287.399993896</ele>
        <time>2015-12-22T11:43:20.393Z</time>
      </trkpt>
      <trkpt lat="45.95883" lon="4.90479">
        <ele>287.399993896</ele>
        <time>2015-12-22T11:43:21.372Z</time>
      </trkpt>
      <trkpt lat="45.95884" lon="4.9047">
        <ele>287.399993896</ele>
        <time>2015-12-22T11:43:22.394Z</time>
      </trkpt>
      <trkpt lat="45.95884" lon="4.90461">
        <ele>287.5</ele>
        <time>2015-12-22T11:43:23.352Z</time>
      </trkpt>
      <trkpt lat="45.95885" lon="4.90452">
        <ele>287.5</ele>
        <time>2015-12-22T11:43:24.371Z</time>
      </trkpt>
      <trkpt lat="45.95885" lon="4.90443">
        <ele>287.799987793</ele>
        <time>2015-12-22T11:43:25.355Z</time>
      </trkpt>
      <trkpt lat="45.95885" lon="4.90435">
        <ele>287.700012207</ele>
        <time>2015-12-22T11:43:26.371Z</time>
      </trkpt>
      <trkpt lat="45.95885" lon="4.90427">
        <ele>287.600006104</ele>
        <time>2015-12-22T11:43:27.353Z</time>
      </trkpt>
      <trkpt lat="45.95886" lon="4.90418">
        <ele>287.700012207</ele>
        <time>2015-12-22T11:43:28.371Z</time>
      </trkpt>
      <trkpt lat="45.95886" lon="4.90409">
        <ele>287.5</ele>
        <time>2015-12-22T11:43:29.352Z</time>
      </trkpt>
      <trkpt lat="45.95886" lon="4.904">
        <ele>287.200012207</ele>
        <time>2015-12-22T11:43:30.379Z</time>
      </trkpt>
      <trkpt lat="45.95887" lon="4.90391">
        <ele>287.200012207</ele>
        <time>2015-12-22T11:43:31.357Z</time>
      </trkpt>
      <trkpt lat="45.95887" lon="4.90382">
        <ele>287.299987793</ele>
        <time>2015-12-22T11:43:32.371Z</time>
      </trkpt>
      <trkpt lat="45.95888" lon="4.90373">
        <ele>287.100006104</ele>
        <time>2015-12-22T11:43:33.353Z</time>
      </trkpt>
      <trkpt lat="45.95888" lon="4.90364">
        <ele>287.200012207</ele>
        <time>2015-12-22T11:43:34.371Z</time>
      </trkpt>
      <trkpt lat="45.95888" lon="4.90354">
        <ele>287.100006104</ele>
        <time>2015-12-22T11:43:35.353Z</time>
      </trkpt>
      <trkpt lat="45.95888" lon="4.90344">
        <ele>286.899993896</ele>
        <time>2015-12-22T11:43:36.372Z</time>
      </trkpt>
      <trkpt lat="45.95888" lon="4.90334">
        <ele>286.899993896</ele>
        <time>2015-12-22T11:43:37.357Z</time>
      </trkpt>
      <trkpt lat="45.95888" lon="4.90324">
        <ele>286.799987793</ele>
        <time>2015-12-22T11:43:38.371Z</time>
      </trkpt>
      <trkpt lat="45.95888" lon="4.90315">
        <ele>286.600006104</ele>
        <time>2015-12-22T11:43:39.353Z</time>
      </trkpt>
      <trkpt lat="45.95889" lon="4.90307">
        <ele>286.399993896</ele>
        <time>2015-12-22T11:43:40.409Z</time>
      </trkpt>
      <trkpt lat="45.95889" lon="4.90299">
        <ele>286.5</ele>
        <time>2015-12-22T11:43:41.351Z</time>
      </trkpt>
      <trkpt lat="45.95889" lon="4.9029">
        <ele>286.5</ele>
        <time>2015-12-22T11:43:42.385Z</time>
      </trkpt>
      <trkpt lat="45.95889" lon="4.90283">
        <ele>286.799987793</ele>
        <time>2015-12-22T11:43:43.407Z</time>
      </trkpt>
      <trkpt lat="45.95889" lon="4.90274">
        <ele>287.299987793</ele>
        <time>2015-12-22T11:43:44.371Z</time>
      </trkpt>
      <trkpt lat="45.9589" lon="4.90265">
        <ele>287.600006104</ele>
        <time>2015-12-22T11:43:45.356Z</time>
      </trkpt>
      <trkpt lat="45.9589" lon="4.90256">
        <ele>288</ele>
        <time>2015-12-22T11:43:46.417Z</time>
      </trkpt>
      <trkpt lat="45.9589" lon="4.90247">
        <ele>288.100006104</ele>
        <time>2015-12-22T11:43:47.354Z</time>
      </trkpt>
      <trkpt lat="45.95891" lon="4.90238">
        <ele>288.100006104</ele>
        <time>2015-12-22T11:43:48.376Z</time>
      </trkpt>
      <trkpt lat="45.95891" lon="4.90228">
        <ele>288</ele>
        <time>2015-12-22T11:43:49.359Z</time>
      </trkpt>
      <trkpt lat="45.95892" lon="4.90219">
        <ele>288.200012207</ele>
        <time>2015-12-22T11:43:50.371Z</time>
      </trkpt>
      <trkpt lat="45.95892" lon="4.9021">
        <ele>288.5</ele>
        <time>2015-12-22T11:43:51.352Z</time>
      </trkpt>
      <trkpt lat="45.95893" lon="4.90202">
        <ele>288.600006104</ele>
        <time>2015-12-22T11:43:52.371Z</time>
      </trkpt>
      <trkpt lat="45.95893" lon="4.90193">
        <ele>288.799987793</ele>
        <time>2015-12-22T11:43:53.35Z</time>
      </trkpt>
      <trkpt lat="45.95894" lon="4.90185">
        <ele>288.899993896</ele>
        <time>2015-12-22T11:43:54.483Z</time>
      </trkpt>
      <trkpt lat="45.95894" lon="4.90176">
        <ele>289</ele>
        <time>2015-12-22T11:43:55.355Z</time>
      </trkpt>
      <trkpt lat="45.95894" lon="4.90167">
        <ele>289.200012207</ele>
        <time>2015-12-22T11:43:56.371Z</time>
      </trkpt>
      <trkpt lat="45.95894" lon="4.90159">
        <ele>289.200012207</ele>
        <time>2015-12-22T11:43:57.353Z</time>
      </trkpt>
      <trkpt lat="45.95894" lon="4.90151">
        <ele>289</ele>
        <time>2015-12-22T11:43:58.385Z</time>
      </trkpt>
      <trkpt lat="45.95894" lon="4.90142">
        <ele>288.899993896</ele>
        <time>2015-12-22T11:43:59.351Z</time>
      </trkpt>
      <trkpt lat="45.95894" lon="4.90133">
        <ele>289</ele>
        <time>2015-12-22T11:44:00.371Z</time>
      </trkpt>
      <trkpt lat="45.95894" lon="4.90123">
        <ele>288.899993896</ele>
        <time>2015-12-22T11:44:01.354Z</time>
      </trkpt>
      <trkpt lat="45.95894" lon="4.90114">
        <ele>288.799987793</ele>
        <time>2015-12-22T11:44:02.37Z</time>
      </trkpt>
      <trkpt lat="45.95894" lon="4.90104">
        <ele>288.899993896</ele>
        <time>2015-12-22T11:44:03.397Z</time>
      </trkpt>
      <trkpt lat="45.95894" lon="4.90095">
        <ele>288.5</ele>
        <time>2015-12-22T11:44:04.407Z</time>
      </trkpt>
      <trkpt lat="45.95894" lon="4.90086">
        <ele>288.600006104</ele>
        <time>2015-12-22T11:44:05.376Z</time>
      </trkpt>
      <trkpt lat="45.95893" lon="4.90076">
        <ele>288.700012207</ele>
        <time>2015-12-22T11:44:06.371Z</time>
      </trkpt>
      <trkpt lat="45.95893" lon="4.90067">
        <ele>288.600006104</ele>
        <time>2015-12-22T11:44:07.355Z</time>
      </trkpt>
      <trkpt lat="45.95894" lon="4.90059">
        <ele>288.600006104</ele>
        <time>2015-12-22T11:44:08.371Z</time>
      </trkpt>
      <trkpt lat="45.95893" lon="4.90051">
        <ele>288.799987793</ele>
        <time>2015-12-22T11:44:09.353Z</time>
      </trkpt>
      <trkpt lat="45.95894" lon="4.90042">
        <ele>288.899993896</ele>
        <time>2015-12-22T11:44:10.375Z</time>
      </trkpt>
      <trkpt lat="45.95894" lon="4.90033">
        <ele>289</ele>
        <time>2015-12-22T11:44:11.381Z</time>
      </trkpt>
      <trkpt lat="45.95894" lon="4.90025">
        <ele>289</ele>
        <time>2015-12-22T11:44:12.395Z</time>
      </trkpt>
      <trkpt lat="45.95894" lon="4.90016">
        <ele>289.200012207</ele>
        <time>2015-12-22T11:44:13.358Z</time>
      </trkpt>
      <trkpt lat="45.95893" lon="4.90007">
        <ele>289.200012207</ele>
        <time>2015-12-22T11:44:14.39Z</time>
      </trkpt>
      <trkpt lat="45.95893" lon="4.89998">
        <ele>289.299987793</ele>
        <time>2015-12-22T11:44:15.352Z</time>
      </trkpt>
      <trkpt lat="45.95893" lon="4.89989">
        <ele>289.399993896</ele>
        <time>2015-12-22T11:44:16.37Z</time>
      </trkpt>
      <trkpt lat="45.95893" lon="4.8998">
        <ele>289.600006104</ele>
        <time>2015-12-22T11:44:17.353Z</time>
      </trkpt>
      <trkpt lat="45.95893" lon="4.89971">
        <ele>289.600006104</ele>
        <time>2015-12-22T11:44:18.371Z</time>
      </trkpt>
      <trkpt lat="45.95894" lon="4.89962">
        <ele>289.899993896</ele>
        <time>2015-12-22T11:44:19.355Z</time>
      </trkpt>
      <trkpt lat="45.95894" lon="4.89952">
        <ele>290.299987793</ele>
        <time>2015-12-22T11:44:20.37Z</time>
      </trkpt>
      <trkpt lat="45.95894" lon="4.89943">
        <ele>290.200012207</ele>
        <time>2015-12-22T11:44:21.353Z</time>
      </trkpt>
      <trkpt lat="45.95893" lon="4.89934">
        <ele>290.299987793</ele>
        <time>2015-12-22T11:44:22.37Z</time>
      </trkpt>
      <trkpt lat="45.95893" lon="4.89924">
        <ele>290.399993896</ele>
        <time>2015-12-22T11:44:23.351Z</time>
      </trkpt>
      <trkpt lat="45.95893" lon="4.89914">
        <ele>290.5</ele>
        <time>2015-12-22T11:44:24.371Z</time>
      </trkpt>
      <trkpt lat="45.95893" lon="4.89905">
        <ele>290.600006104</ele>
        <time>2015-12-22T11:44:25.355Z</time>
      </trkpt>
      <trkpt lat="45.95892" lon="4.89896">
        <ele>290.5</ele>
        <time>2015-12-22T11:44:26.37Z</time>
      </trkpt>
      <trkpt lat="45.95892" lon="4.89887">
        <ele>290.5</ele>
        <time>2015-12-22T11:44:27.353Z</time>
      </trkpt>
      <trkpt lat="45.95892" lon="4.89879">
        <ele>290.399993896</ele>
        <time>2015-12-22T11:44:28.37Z</time>
      </trkpt>
      <trkpt lat="45.95892" lon="4.8987">
        <ele>290.200012207</ele>
        <time>2015-12-22T11:44:29.351Z</time>
      </trkpt>
      <trkpt lat="45.95892" lon="4.89862">
        <ele>289.899993896</ele>
        <time>2015-12-22T11:44:30.385Z</time>
      </trkpt>
      <trkpt lat="45.95892" lon="4.89854">
        <ele>289.399993896</ele>
        <time>2015-12-22T11:44:31.354Z</time>
      </trkpt>
      <trkpt lat="45.95892" lon="4.89846">
        <ele>289.299987793</ele>
        <time>2015-12-22T11:44:32.392Z</time>
      </trkpt>
      <trkpt lat="45.95891" lon="4.89838">
        <ele>289</ele>
        <time>2015-12-22T11:44:33.356Z</time>
      </trkpt>
      <trkpt lat="45.95891" lon="4.8983">
        <ele>288.399993896</ele>
        <time>2015-12-22T11:44:34.371Z</time>
      </trkpt>
      <trkpt lat="45.95891" lon="4.89821">
        <ele>288.399993896</ele>
        <time>2015-12-22T11:44:35.352Z</time>
      </trkpt>
      <trkpt lat="45.95891" lon="4.89812">
        <ele>288.100006104</ele>
        <time>2015-12-22T11:44:36.371Z</time>
      </trkpt>
      <trkpt lat="45.95891" lon="4.89803">
        <ele>287.700012207</ele>
        <time>2015-12-22T11:44:37.356Z</time>
      </trkpt>
      <trkpt lat="45.95891" lon="4.89794">
        <ele>287.299987793</ele>
        <time>2015-12-22T11:44:38.489Z</time>
      </trkpt>
      <trkpt lat="45.95891" lon="4.89784">
        <ele>287</ele>
        <time>2015-12-22T11:44:39.355Z</time>
      </trkpt>
      <trkpt lat="45.9589" lon="4.89775">
        <ele>286.700012207</ele>
        <time>2015-12-22T11:44:40.374Z</time>
      </trkpt>
      <trkpt lat="45.9589" lon="4.89766">
        <ele>286.600006104</ele>
        <time>2015-12-22T11:44:41.351Z</time>
      </trkpt>
      <trkpt lat="45.9589" lon="4.89756">
        <ele>286.399993896</ele>
        <time>2015-12-22T11:44:42.37Z</time>
      </trkpt>
      <trkpt lat="45.9589" lon="4.89747">
        <ele>286.399993896</ele>
        <time>2015-12-22T11:44:43.354Z</time>
      </trkpt>
      <trkpt lat="45.9589" lon="4.89738">
        <ele>286.200012207</ele>
        <time>2015-12-22T11:44:44.37Z</time>
      </trkpt>
      <trkpt lat="45.9589" lon="4.89729">
        <ele>286.200012207</ele>
        <time>2015-12-22T11:44:45.352Z</time>
      </trkpt>
      <trkpt lat="45.95889" lon="4.8972">
        <ele>286.299987793</ele>
        <time>2015-12-22T11:44:46.387Z</time>
      </trkpt>
      <trkpt lat="45.95889" lon="4.8971">
        <ele>286.100006104</ele>
        <time>2015-12-22T11:44:47.351Z</time>
      </trkpt>
      <trkpt lat="45.95888" lon="4.89701">
        <ele>285.700012207</ele>
        <time>2015-12-22T11:44:48.371Z</time>
      </trkpt>
      <trkpt lat="45.95888" lon="4.89691">
        <ele>285.399993896</ele>
        <time>2015-12-22T11:44:49.407Z</time>
      </trkpt>
      <trkpt lat="45.95888" lon="4.89682">
        <ele>285.200012207</ele>
        <time>2015-12-22T11:44:50.43Z</time>
      </trkpt>
      <trkpt lat="45.95888" lon="4.89672">
        <ele>285.200012207</ele>
        <time>2015-12-22T11:44:51.355Z</time>
      </trkpt>
      <trkpt lat="45.95888" lon="4.89662">
        <ele>285</ele>
        <time>2015-12-22T11:44:52.372Z</time>
      </trkpt>
      <trkpt lat="45.95888" lon="4.89652">
        <ele>285</ele>
        <time>2015-12-22T11:44:53.351Z</time>
      </trkpt>
      <trkpt lat="45.95888" lon="4.89643">
        <ele>284.899993896</ele>
        <time>2015-12-22T11:44:54.382Z</time>
      </trkpt>
      <trkpt lat="45.95888" lon="4.89633">
        <ele>284.799987793</ele>
        <time>2015-12-22T11:44:55.358Z</time>
      </trkpt>
      <trkpt lat="45.95888" lon="4.89624">
        <ele>284.899993896</ele>
        <time>2015-12-22T11:44:56.37Z</time>
      </trkpt>
      <trkpt lat="45.95888" lon="4.89614">
        <ele>284.899993896</ele>
        <time>2015-12-22T11:44:57.352Z</time>
      </trkpt>
      <trkpt lat="45.95888" lon="4.89605">
        <ele>284.700012207</ele>
        <time>2015-12-22T11:44:58.384Z</time>
      </trkpt>
      <trkpt lat="45.95887" lon="4.89595">
        <ele>284.5</ele>
        <time>2015-12-22T11:44:59.351Z</time>
      </trkpt>
      <trkpt lat="45.95887" lon="4.89585">
        <ele>284.399993896</ele>
        <time>2015-12-22T11:45:00.371Z</time>
      </trkpt>
      <trkpt lat="45.95887" lon="4.89575">
        <ele>284.299987793</ele>
        <time>2015-12-22T11:45:01.355Z</time>
      </trkpt>
      <trkpt lat="45.95887" lon="4.89566">
        <ele>284.200012207</ele>
        <time>2015-12-22T11:45:02.378Z</time>
      </trkpt>
      <trkpt lat="45.95887" lon="4.89555">
        <ele>284.200012207</ele>
        <time>2015-12-22T11:45:03.355Z</time>
      </trkpt>
      <trkpt lat="45.95887" lon="4.89545">
        <ele>284</ele>
        <time>2015-12-22T11:45:04.372Z</time>
      </trkpt>
      <trkpt lat="45.95887" lon="4.89534">
        <ele>284</ele>
        <time>2015-12-22T11:45:05.354Z</time>
      </trkpt>
      <trkpt lat="45.95887" lon="4.89524">
        <ele>283.899993896</ele>
        <time>2015-12-22T11:45:06.375Z</time>
      </trkpt>
      <trkpt lat="45.95886" lon="4.89514">
        <ele>283.700012207</ele>
        <time>2015-12-22T11:45:07.357Z</time>
      </trkpt>
      <trkpt lat="45.95886" lon="4.89503">
        <ele>283.600006104</ele>
        <time>2015-12-22T11:45:08.371Z</time>
      </trkpt>
      <trkpt lat="45.95886" lon="4.89492">
        <ele>283.700012207</ele>
        <time>2015-12-22T11:45:09.352Z</time>
      </trkpt>
      <trkpt lat="45.95886" lon="4.89481">
        <ele>283.5</ele>
        <time>2015-12-22T11:45:10.37Z</time>
      </trkpt>
      <trkpt lat="45.95886" lon="4.8947">
        <ele>283.600006104</ele>
        <time>2015-12-22T11:45:11.352Z</time>
      </trkpt>
      <trkpt lat="45.95886" lon="4.8946">
        <ele>283.799987793</ele>
        <time>2015-12-22T11:45:12.389Z</time>
      </trkpt>
      <trkpt lat="45.95886" lon="4.8945">
        <ele>284.200012207</ele>
        <time>2015-12-22T11:45:13.397Z</time>
      </trkpt>
      <trkpt lat="45.95886" lon="4.8944">
        <ele>284.100006104</ele>
        <time>2015-12-22T11:45:14.371Z</time>
      </trkpt>
      <trkpt lat="45.95886" lon="4.89431">
        <ele>283.700012207</ele>
        <time>2015-12-22T11:45:15.352Z</time>
      </trkpt>
      <trkpt lat="45.95886" lon="4.89422">
        <ele>283.100006104</ele>
        <time>2015-12-22T11:45:16.372Z</time>
      </trkpt>
      <trkpt lat="45.95886" lon="4.89413">
        <ele>283.100006104</ele>
        <time>2015-12-22T11:45:17.351Z</time>
      </trkpt>
      <trkpt lat="45.95886" lon="4.89405">
        <ele>283.200012207</ele>
        <time>2015-12-22T11:45:18.37Z</time>
      </trkpt>
      <trkpt lat="45.95885" lon="4.89397">
        <ele>283.200012207</ele>
        <time>2015-12-22T11:45:19.358Z</time>
      </trkpt>
      <trkpt lat="45.95885" lon="4.89389">
        <ele>283.200012207</ele>
        <time>2015-12-22T11:45:20.392Z</time>
      </trkpt>
      <trkpt lat="45.95885" lon="4.89381">
        <ele>283.100006104</ele>
        <time>2015-12-22T11:45:21.352Z</time>
      </trkpt>
      <trkpt lat="45.95885" lon="4.89373">
        <ele>283.100006104</ele>
        <time>2015-12-22T11:45:22.371Z</time>
      </trkpt>
      <trkpt lat="45.95885" lon="4.89364">
        <ele>283</ele>
        <time>2015-12-22T11:45:23.353Z</time>
      </trkpt>
      <trkpt lat="45.95885" lon="4.89356">
        <ele>283.200012207</ele>
        <time>2015-12-22T11:45:24.371Z</time>
      </trkpt>
      <trkpt lat="45.95885" lon="4.89348">
        <ele>283.299987793</ele>
        <time>2015-12-22T11:45:25.355Z</time>
      </trkpt>
      <trkpt lat="45.95885" lon="4.89339">
        <ele>283.600006104</ele>
        <time>2015-12-22T11:45:26.372Z</time>
      </trkpt>
      <trkpt lat="45.95885" lon="4.89331">
        <ele>283.600006104</ele>
        <time>2015-12-22T11:45:27.352Z</time>
      </trkpt>
      <trkpt lat="45.95885" lon="4.89322">
        <ele>283.799987793</ele>
        <time>2015-12-22T11:45:28.385Z</time>
      </trkpt>
      <trkpt lat="45.95885" lon="4.89314">
        <ele>284</ele>
        <time>2015-12-22T11:45:29.351Z</time>
      </trkpt>
      <trkpt lat="45.95886" lon="4.89305">
        <ele>284.200012207</ele>
        <time>2015-12-22T11:45:30.37Z</time>
      </trkpt>
      <trkpt lat="45.95886" lon="4.89296">
        <ele>284.299987793</ele>
        <time>2015-12-22T11:45:31.356Z</time>
      </trkpt>
      <trkpt lat="45.95886" lon="4.89287">
        <ele>284.5</ele>
        <time>2015-12-22T11:45:32.374Z</time>
      </trkpt>
      <trkpt lat="45.95885" lon="4.89279">
        <ele>284.799987793</ele>
        <time>2015-12-22T11:45:33.352Z</time>
      </trkpt>
      <trkpt lat="45.95885" lon="4.8927">
        <ele>284.899993896</ele>
        <time>2015-12-22T11:45:34.372Z</time>
      </trkpt>
      <trkpt lat="45.95885" lon="4.89261">
        <ele>285</ele>
        <time>2015-12-22T11:45:35.353Z</time>
      </trkpt>
      <trkpt lat="45.95885" lon="4.89252">
        <ele>285.200012207</ele>
        <time>2015-12-22T11:45:36.372Z</time>
      </trkpt>
      <trkpt lat="45.95885" lon="4.89243">
        <ele>285.299987793</ele>
        <time>2015-12-22T11:45:37.356Z</time>
      </trkpt>
      <trkpt lat="45.95885" lon="4.89234">
        <ele>285.299987793</ele>
        <time>2015-12-22T11:45:38.372Z</time>
      </trkpt>
      <trkpt lat="45.95885" lon="4.89225">
        <ele>285.399993896</ele>
        <time>2015-12-22T11:45:39.352Z</time>
      </trkpt>
      <trkpt lat="45.95884" lon="4.89216">
        <ele>285.700012207</ele>
        <time>2015-12-22T11:45:40.371Z</time>
      </trkpt>
      <trkpt lat="45.95884" lon="4.89207">
        <ele>285.799987793</ele>
        <time>2015-12-22T11:45:41.351Z</time>
      </trkpt>
      <trkpt lat="45.95884" lon="4.89198">
        <ele>285.799987793</ele>
        <time>2015-12-22T11:45:42.37Z</time>
      </trkpt>
      <trkpt lat="45.95883" lon="4.89189">
        <ele>286</ele>
        <time>2015-12-22T11:45:43.357Z</time>
      </trkpt>
      <trkpt lat="45.95882" lon="4.8918">
        <ele>286</ele>
        <time>2015-12-22T11:45:44.385Z</time>
      </trkpt>
      <trkpt lat="45.95881" lon="4.89171">
        <ele>286</ele>
        <time>2015-12-22T11:45:45.352Z</time>
      </trkpt>
      <trkpt lat="45.9588" lon="4.89162">
        <ele>286</ele>
        <time>2015-12-22T11:45:46.371Z</time>
      </trkpt>
      <trkpt lat="45.9588" lon="4.89154">
        <ele>285.799987793</ele>
        <time>2015-12-22T11:45:47.351Z</time>
      </trkpt>
      <trkpt lat="45.95879" lon="4.89146">
        <ele>285.899993896</ele>
        <time>2015-12-22T11:45:48.37Z</time>
      </trkpt>
      <trkpt lat="45.95879" lon="4.89139">
        <ele>285.899993896</ele>
        <time>2015-12-22T11:45:49.375Z</time>
      </trkpt>
      <trkpt lat="45.9588" lon="4.89132">
        <ele>285.799987793</ele>
        <time>2015-12-22T11:45:50.378Z</time>
      </trkpt>
      <trkpt lat="45.95882" lon="4.89126">
        <ele>285.399993896</ele>
        <time>2015-12-22T11:45:51.355Z</time>
      </trkpt>
      <trkpt lat="45.95886" lon="4.89117">
        <ele>284.899993896</ele>
        <time>2015-12-22T11:45:53.371Z</time>
      </trkpt>
      <trkpt lat="45.95888" lon="4.89114">
        <ele>284.700012207</ele>
        <time>2015-12-22T11:45:54.352Z</time>
      </trkpt>
      <trkpt lat="45.95892" lon="4.89106">
        <ele>284.5</ele>
        <time>2015-12-22T11:45:56.37Z</time>
      </trkpt>
      <trkpt lat="45.95894" lon="4.89102">
        <ele>284.399993896</ele>
        <time>2015-12-22T11:45:57.358Z</time>
      </trkpt>
      <trkpt lat="45.95897" lon="4.89092">
        <ele>284.299987793</ele>
        <time>2015-12-22T11:45:59.371Z</time>
      </trkpt>
      <trkpt lat="45.95899" lon="4.89087">
        <ele>284.299987793</ele>
        <time>2015-12-22T11:46:00.352Z</time>
      </trkpt>
      <trkpt lat="45.95901" lon="4.89074">
        <ele>283.799987793</ele>
        <time>2015-12-22T11:46:02.37Z</time>
      </trkpt>
      <trkpt lat="45.95901" lon="4.89068">
        <ele>283.799987793</ele>
        <time>2015-12-22T11:46:03.352Z</time>
      </trkpt>
      <trkpt lat="45.959" lon="4.89061">
        <ele>284</ele>
        <time>2015-12-22T11:46:04.371Z</time>
      </trkpt>
      <trkpt lat="45.959" lon="4.89054">
        <ele>284.299987793</ele>
        <time>2015-12-22T11:46:05.351Z</time>
      </trkpt>
      <trkpt lat="45.95899" lon="4.89047">
        <ele>284.399993896</ele>
        <time>2015-12-22T11:46:06.372Z</time>
      </trkpt>
      <trkpt lat="45.95898" lon="4.8904">
        <ele>284.399993896</ele>
        <time>2015-12-22T11:46:07.357Z</time>
      </trkpt>
      <trkpt lat="45.95897" lon="4.89033">
        <ele>284.399993896</ele>
        <time>2015-12-22T11:46:08.371Z</time>
      </trkpt>
      <trkpt lat="45.95895" lon="4.89026">
        <ele>284.5</ele>
        <time>2015-12-22T11:46:09.352Z</time>
      </trkpt>
      <trkpt lat="45.95894" lon="4.89019">
        <ele>284.899993896</ele>
        <time>2015-12-22T11:46:10.385Z</time>
      </trkpt>
      <trkpt lat="45.95892" lon="4.89012">
        <ele>284.799987793</ele>
        <time>2015-12-22T11:46:11.351Z</time>
      </trkpt>
      <trkpt lat="45.9589" lon="4.89006">
        <ele>284.700012207</ele>
        <time>2015-12-22T11:46:12.432Z</time>
      </trkpt>
      <trkpt lat="45.95888" lon="4.88998">
        <ele>284.899993896</ele>
        <time>2015-12-22T11:46:13.355Z</time>
      </trkpt>
      <trkpt lat="45.95887" lon="4.88991">
        <ele>284.5</ele>
        <time>2015-12-22T11:46:14.37Z</time>
      </trkpt>
      <trkpt lat="45.95886" lon="4.88983">
        <ele>284.799987793</ele>
        <time>2015-12-22T11:46:15.355Z</time>
      </trkpt>
      <trkpt lat="45.95885" lon="4.88975">
        <ele>284.700012207</ele>
        <time>2015-12-22T11:46:16.37Z</time>
      </trkpt>
      <trkpt lat="45.95884" lon="4.88967">
        <ele>284.700012207</ele>
        <time>2015-12-22T11:46:17.351Z</time>
      </trkpt>
      <trkpt lat="45.95884" lon="4.8896">
        <ele>284.399993896</ele>
        <time>2015-12-22T11:46:18.37Z</time>
      </trkpt>
      <trkpt lat="45.95883" lon="4.88952">
        <ele>284.5</ele>
        <time>2015-12-22T11:46:19.377Z</time>
      </trkpt>
      <trkpt lat="45.95883" lon="4.88944">
        <ele>284.399993896</ele>
        <time>2015-12-22T11:46:20.372Z</time>
      </trkpt>
      <trkpt lat="45.95882" lon="4.88936">
        <ele>284.600006104</ele>
        <time>2015-12-22T11:46:21.352Z</time>
      </trkpt>
      <trkpt lat="45.95882" lon="4.88927">
        <ele>284.799987793</ele>
        <time>2015-12-22T11:46:22.371Z</time>
      </trkpt>
      <trkpt lat="45.95882" lon="4.88919">
        <ele>285.5</ele>
        <time>2015-12-22T11:46:23.35Z</time>
      </trkpt>
      <trkpt lat="45.95882" lon="4.88911">
        <ele>285.5</ele>
        <time>2015-12-22T11:46:24.379Z</time>
      </trkpt>
      <trkpt lat="45.95881" lon="4.88903">
        <ele>285.100006104</ele>
        <time>2015-12-22T11:46:25.354Z</time>
      </trkpt>
      <trkpt lat="45.95881" lon="4.88895">
        <ele>285.5</ele>
        <time>2015-12-22T11:46:26.385Z</time>
      </trkpt>
      <trkpt lat="45.95881" lon="4.88887">
        <ele>285.600006104</ele>
        <time>2015-12-22T11:46:27.352Z</time>
      </trkpt>
      <trkpt lat="45.95881" lon="4.88879">
        <ele>285.5</ele>
        <time>2015-12-22T11:46:28.37Z</time>
      </trkpt>
      <trkpt lat="45.95882" lon="4.8887">
        <ele>285.600006104</ele>
        <time>2015-12-22T11:46:29.353Z</time>
      </trkpt>
      <trkpt lat="45.95882" lon="4.88862">
        <ele>285.5</ele>
        <time>2015-12-22T11:46:30.371Z</time>
      </trkpt>
      <trkpt lat="45.95882" lon="4.88854">
        <ele>285.5</ele>
        <time>2015-12-22T11:46:31.357Z</time>
      </trkpt>
      <trkpt lat="45.95881" lon="4.88846">
        <ele>285.5</ele>
        <time>2015-12-22T11:46:32.383Z</time>
      </trkpt>
      <trkpt lat="45.95881" lon="4.88837">
        <ele>285.5</ele>
        <time>2015-12-22T11:46:33.352Z</time>
      </trkpt>
      <trkpt lat="45.9588" lon="4.88829">
        <ele>285.399993896</ele>
        <time>2015-12-22T11:46:34.372Z</time>
      </trkpt>
      <trkpt lat="45.95879" lon="4.8882">
        <ele>285.200012207</ele>
        <time>2015-12-22T11:46:35.352Z</time>
      </trkpt>
      <trkpt lat="45.95879" lon="4.88812">
        <ele>285.200012207</ele>
        <time>2015-12-22T11:46:36.37Z</time>
      </trkpt>
      <trkpt lat="45.95879" lon="4.88803">
        <ele>285.200012207</ele>
        <time>2015-12-22T11:46:37.354Z</time>
      </trkpt>
      <trkpt lat="45.95879" lon="4.88794">
        <ele>285.200012207</ele>
        <time>2015-12-22T11:46:38.37Z</time>
      </trkpt>
      <trkpt lat="45.95879" lon="4.88785">
        <ele>285</ele>
        <time>2015-12-22T11:46:39.353Z</time>
      </trkpt>
      <trkpt lat="45.95878" lon="4.88777">
        <ele>284.799987793</ele>
        <time>2015-12-22T11:46:40.37Z</time>
      </trkpt>
      <trkpt lat="45.95878" lon="4.88768">
        <ele>284.700012207</ele>
        <time>2015-12-22T11:46:41.351Z</time>
      </trkpt>
      <trkpt lat="45.95878" lon="4.88759">
        <ele>284.600006104</ele>
        <time>2015-12-22T11:46:42.385Z</time>
      </trkpt>
      <trkpt lat="45.95878" lon="4.8875">
        <ele>284.5</ele>
        <time>2015-12-22T11:46:43.354Z</time>
      </trkpt>
      <trkpt lat="45.95877" lon="4.88742">
        <ele>284.5</ele>
        <time>2015-12-22T11:46:44.37Z</time>
      </trkpt>
      <trkpt lat="45.95877" lon="4.88733">
        <ele>284.200012207</ele>
        <time>2015-12-22T11:46:45.352Z</time>
      </trkpt>
      <trkpt lat="45.95876" lon="4.88724">
        <ele>283.899993896</ele>
        <time>2015-12-22T11:46:46.37Z</time>
      </trkpt>
      <trkpt lat="45.95876" lon="4.88715">
        <ele>283.899993896</ele>
        <time>2015-12-22T11:46:47.351Z</time>
      </trkpt>
      <trkpt lat="45.95875" lon="4.88705">
        <ele>283.799987793</ele>
        <time>2015-12-22T11:46:48.37Z</time>
      </trkpt>
      <trkpt lat="45.95875" lon="4.88696">
        <ele>283.399993896</ele>
        <time>2015-12-22T11:46:49.361Z</time>
      </trkpt>
      <trkpt lat="45.95875" lon="4.88687">
        <ele>283.299987793</ele>
        <time>2015-12-22T11:46:50.375Z</time>
      </trkpt>
      <trkpt lat="45.95874" lon="4.88677">
        <ele>283.100006104</ele>
        <time>2015-12-22T11:46:51.352Z</time>
      </trkpt>
      <trkpt lat="45.95874" lon="4.88668">
        <ele>283.100006104</ele>
        <time>2015-12-22T11:46:52.37Z</time>
      </trkpt>
      <trkpt lat="45.95874" lon="4.88659">
        <ele>282.799987793</ele>
        <time>2015-12-22T11:46:53.351Z</time>
      </trkpt>
      <trkpt lat="45.95874" lon="4.8865">
        <ele>282.600006104</ele>
        <time>2015-12-22T11:46:54.371Z</time>
      </trkpt>
      <trkpt lat="45.95873" lon="4.8864">
        <ele>282.5</ele>
        <time>2015-12-22T11:46:55.354Z</time>
      </trkpt>
      <trkpt lat="45.95873" lon="4.88631">
        <ele>282.299987793</ele>
        <time>2015-12-22T11:46:56.37Z</time>
      </trkpt>
      <trkpt lat="45.95872" lon="4.88622">
        <ele>282.299987793</ele>
        <time>2015-12-22T11:46:57.352Z</time>
      </trkpt>
      <trkpt lat="45.95872" lon="4.88612">
        <ele>282.299987793</ele>
        <time>2015-12-22T11:46:58.37Z</time>
      </trkpt>
      <trkpt lat="45.95871" lon="4.88603">
        <ele>282.299987793</ele>
        <time>2015-12-22T11:46:59.353Z</time>
      </trkpt>
      <trkpt lat="45.95871" lon="4.88593">
        <ele>282.299987793</ele>
        <time>2015-12-22T11:47:00.447Z</time>
      </trkpt>
      <trkpt lat="45.9587" lon="4.88583">
        <ele>282.200012207</ele>
        <time>2015-12-22T11:47:01.358Z</time>
      </trkpt>
      <trkpt lat="45.9587" lon="4.88574">
        <ele>282.200012207</ele>
        <time>2015-12-22T11:47:02.373Z</time>
      </trkpt>
      <trkpt lat="45.9587" lon="4.88564">
        <ele>282.100006104</ele>
        <time>2015-12-22T11:47:03.354Z</time>
      </trkpt>
      <trkpt lat="45.95869" lon="4.88554">
        <ele>282</ele>
        <time>2015-12-22T11:47:04.392Z</time>
      </trkpt>
      <trkpt lat="45.95869" lon="4.88545">
        <ele>282</ele>
        <time>2015-12-22T11:47:05.351Z</time>
      </trkpt>
      <trkpt lat="45.95868" lon="4.88536">
        <ele>281.899993896</ele>
        <time>2015-12-22T11:47:06.37Z</time>
      </trkpt>
      <trkpt lat="45.95868" lon="4.88527">
        <ele>282</ele>
        <time>2015-12-22T11:47:07.357Z</time>
      </trkpt>
      <trkpt lat="45.95867" lon="4.88518">
        <ele>281.899993896</ele>
        <time>2015-12-22T11:47:08.39Z</time>
      </trkpt>
      <trkpt lat="45.95867" lon="4.88509">
        <ele>282.200012207</ele>
        <time>2015-12-22T11:47:09.352Z</time>
      </trkpt>
      <trkpt lat="45.95866" lon="4.885">
        <ele>282.200012207</ele>
        <time>2015-12-22T11:47:10.37Z</time>
      </trkpt>
      <trkpt lat="45.95866" lon="4.8849">
        <ele>282.299987793</ele>
        <time>2015-12-22T11:47:11.397Z</time>
      </trkpt>
      <trkpt lat="45.95866" lon="4.88481">
        <ele>282.299987793</ele>
        <time>2015-12-22T11:47:12.37Z</time>
      </trkpt>
      <trkpt lat="45.95865" lon="4.88471">
        <ele>282.299987793</ele>
        <time>2015-12-22T11:47:13.355Z</time>
      </trkpt>
      <trkpt lat="45.95864" lon="4.88461">
        <ele>282.399993896</ele>
        <time>2015-12-22T11:47:14.37Z</time>
      </trkpt>
      <trkpt lat="45.95864" lon="4.88452">
        <ele>282.399993896</ele>
        <time>2015-12-22T11:47:15.355Z</time>
      </trkpt>
      <trkpt lat="45.95864" lon="4.88442">
        <ele>282.399993896</ele>
        <time>2015-12-22T11:47:16.374Z</time>
      </trkpt>
      <trkpt lat="45.95863" lon="4.88433">
        <ele>282.399993896</ele>
        <time>2015-12-22T11:47:17.351Z</time>
      </trkpt>
      <trkpt lat="45.95863" lon="4.88423">
        <ele>282.399993896</ele>
        <time>2015-12-22T11:47:18.37Z</time>
      </trkpt>
      <trkpt lat="45.95862" lon="4.88414">
        <ele>282.200012207</ele>
        <time>2015-12-22T11:47:19.355Z</time>
      </trkpt>
      <trkpt lat="45.95862" lon="4.88404">
        <ele>282.100006104</ele>
        <time>2015-12-22T11:47:20.37Z</time>
      </trkpt>
      <trkpt lat="45.95862" lon="4.88395">
        <ele>282.100006104</ele>
        <time>2015-12-22T11:47:21.352Z</time>
      </trkpt>
      <trkpt lat="45.95861" lon="4.88387">
        <ele>282</ele>
        <time>2015-12-22T11:47:22.487Z</time>
      </trkpt>
      <trkpt lat="45.95861" lon="4.88378">
        <ele>281.700012207</ele>
        <time>2015-12-22T11:47:23.351Z</time>
      </trkpt>
      <trkpt lat="45.95861" lon="4.8837">
        <ele>281.899993896</ele>
        <time>2015-12-22T11:47:24.386Z</time>
      </trkpt>
      <trkpt lat="45.95861" lon="4.88362">
        <ele>282.200012207</ele>
        <time>2015-12-22T11:47:25.488Z</time>
      </trkpt>
      <trkpt lat="45.9586" lon="4.88355">
        <ele>282.399993896</ele>
        <time>2015-12-22T11:47:26.388Z</time>
      </trkpt>
      <trkpt lat="45.95859" lon="4.88348">
        <ele>282.600006104</ele>
        <time>2015-12-22T11:47:27.361Z</time>
      </trkpt>
      <trkpt lat="45.95859" lon="4.8834">
        <ele>283</ele>
        <time>2015-12-22T11:47:28.388Z</time>
      </trkpt>
      <trkpt lat="45.95859" lon="4.88333">
        <ele>283.100006104</ele>
        <time>2015-12-22T11:47:29.359Z</time>
      </trkpt>
      <trkpt lat="45.95859" lon="4.88325">
        <ele>283</ele>
        <time>2015-12-22T11:47:30.382Z</time>
      </trkpt>
      <trkpt lat="45.95858" lon="4.88317">
        <ele>283</ele>
        <time>2015-12-22T11:47:31.363Z</time>
      </trkpt>
      <trkpt lat="45.95858" lon="4.88309">
        <ele>282.799987793</ele>
        <time>2015-12-22T11:47:32.382Z</time>
      </trkpt>
      <trkpt lat="45.95858" lon="4.883">
        <ele>282.5</ele>
        <time>2015-12-22T11:47:33.35Z</time>
      </trkpt>
      <trkpt lat="45.95858" lon="4.88292">
        <ele>282.399993896</ele>
        <time>2015-12-22T11:47:34.377Z</time>
      </trkpt>
      <trkpt lat="45.95858" lon="4.88283">
        <ele>282.5</ele>
        <time>2015-12-22T11:47:35.355Z</time>
      </trkpt>
      <trkpt lat="45.95857" lon="4.88275">
        <ele>282.700012207</ele>
        <time>2015-12-22T11:47:36.385Z</time>
      </trkpt>
      <trkpt lat="45.95857" lon="4.88266">
        <ele>282.799987793</ele>
        <time>2015-12-22T11:47:37.358Z</time>
      </trkpt>
      <trkpt lat="45.95857" lon="4.88257">
        <ele>282.899993896</ele>
        <time>2015-12-22T11:47:38.38Z</time>
      </trkpt>
      <trkpt lat="45.95856" lon="4.88249">
        <ele>283.100006104</ele>
        <time>2015-12-22T11:47:39.358Z</time>
      </trkpt>
      <trkpt lat="45.95856" lon="4.8824">
        <ele>283.299987793</ele>
        <time>2015-12-22T11:47:40.376Z</time>
      </trkpt>
      <trkpt lat="45.95855" lon="4.88232">
        <ele>283.299987793</ele>
        <time>2015-12-22T11:47:41.357Z</time>
      </trkpt>
      <trkpt lat="45.95855" lon="4.88223">
        <ele>283.299987793</ele>
        <time>2015-12-22T11:47:42.379Z</time>
      </trkpt>
      <trkpt lat="45.95854" lon="4.88215">
        <ele>283.299987793</ele>
        <time>2015-12-22T11:47:43.358Z</time>
      </trkpt>
      <trkpt lat="45.95854" lon="4.88207">
        <ele>283.399993896</ele>
        <time>2015-12-22T11:47:44.477Z</time>
      </trkpt>
      <trkpt lat="45.95853" lon="4.88198">
        <ele>283.200012207</ele>
        <time>2015-12-22T11:47:45.358Z</time>
      </trkpt>
      <trkpt lat="45.95853" lon="4.88189">
        <ele>283.200012207</ele>
        <time>2015-12-22T11:47:46.377Z</time>
      </trkpt>
      <trkpt lat="45.95853" lon="4.88181">
        <ele>282.899993896</ele>
        <time>2015-12-22T11:47:47.354Z</time>
      </trkpt>
      <trkpt lat="45.95852" lon="4.88173">
        <ele>282.899993896</ele>
        <time>2015-12-22T11:47:48.374Z</time>
      </trkpt>
      <trkpt lat="45.95852" lon="4.88165">
        <ele>282.700012207</ele>
        <time>2015-12-22T11:47:49.359Z</time>
      </trkpt>
      <trkpt lat="45.95852" lon="4.88157">
        <ele>282.700012207</ele>
        <time>2015-12-22T11:47:50.376Z</time>
      </trkpt>
      <trkpt lat="45.95851" lon="4.8815">
        <ele>282.5</ele>
        <time>2015-12-22T11:47:51.357Z</time>
      </trkpt>
      <trkpt lat="45.95851" lon="4.88142">
        <ele>282.5</ele>
        <time>2015-12-22T11:47:52.375Z</time>
      </trkpt>
      <trkpt lat="45.95851" lon="4.88135">
        <ele>282.700012207</ele>
        <time>2015-12-22T11:47:53.353Z</time>
      </trkpt>
      <trkpt lat="45.9585" lon="4.88128">
        <ele>282.899993896</ele>
        <time>2015-12-22T11:47:54.373Z</time>
      </trkpt>
      <trkpt lat="45.9585" lon="4.8812">
        <ele>283.100006104</ele>
        <time>2015-12-22T11:47:55.374Z</time>
      </trkpt>
      <trkpt lat="45.9585" lon="4.88113">
        <ele>283.100006104</ele>
        <time>2015-12-22T11:47:56.375Z</time>
      </trkpt>
      <trkpt lat="45.95849" lon="4.88105">
        <ele>283.100006104</ele>
        <time>2015-12-22T11:47:57.356Z</time>
      </trkpt>
      <trkpt lat="45.95849" lon="4.88097">
        <ele>283</ele>
        <time>2015-12-22T11:47:58.372Z</time>
      </trkpt>
      <trkpt lat="45.95848" lon="4.88089">
        <ele>282.799987793</ele>
        <time>2015-12-22T11:47:59.356Z</time>
      </trkpt>
      <trkpt lat="45.95848" lon="4.88081">
        <ele>282.799987793</ele>
        <time>2015-12-22T11:48:00.375Z</time>
      </trkpt>
      <trkpt lat="45.95848" lon="4.88073">
        <ele>282.899993896</ele>
        <time>2015-12-22T11:48:01.357Z</time>
      </trkpt>
      <trkpt lat="45.95848" lon="4.88065">
        <ele>282.799987793</ele>
        <time>2015-12-22T11:48:02.375Z</time>
      </trkpt>
      <trkpt lat="45.95847" lon="4.88057">
        <ele>283</ele>
        <time>2015-12-22T11:48:03.354Z</time>
      </trkpt>
      <trkpt lat="45.95847" lon="4.88049">
        <ele>283.100006104</ele>
        <time>2015-12-22T11:48:04.374Z</time>
      </trkpt>
      <trkpt lat="45.95846" lon="4.88041">
        <ele>283.200012207</ele>
        <time>2015-12-22T11:48:05.353Z</time>
      </trkpt>
      <trkpt lat="45.95846" lon="4.88033">
        <ele>283.299987793</ele>
        <time>2015-12-22T11:48:06.403Z</time>
      </trkpt>
      <trkpt lat="45.95846" lon="4.88025">
        <ele>283.600006104</ele>
        <time>2015-12-22T11:48:07.369Z</time>
      </trkpt>
      <trkpt lat="45.95846" lon="4.88016">
        <ele>283.799987793</ele>
        <time>2015-12-22T11:48:08.438Z</time>
      </trkpt>
      <trkpt lat="45.95845" lon="4.88008">
        <ele>284.200012207</ele>
        <time>2015-12-22T11:48:09.354Z</time>
      </trkpt>
      <trkpt lat="45.95845" lon="4.87999">
        <ele>284.200012207</ele>
        <time>2015-12-22T11:48:10.374Z</time>
      </trkpt>
      <trkpt lat="45.95845" lon="4.8799">
        <ele>284.100006104</ele>
        <time>2015-12-22T11:48:11.353Z</time>
      </trkpt>
      <trkpt lat="45.95844" lon="4.87981">
        <ele>284.200012207</ele>
        <time>2015-12-22T11:48:12.376Z</time>
      </trkpt>
      <trkpt lat="45.95844" lon="4.87971">
        <ele>284.399993896</ele>
        <time>2015-12-22T11:48:13.356Z</time>
      </trkpt>
      <trkpt lat="45.95843" lon="4.87962">
        <ele>284.5</ele>
        <time>2015-12-22T11:48:14.375Z</time>
      </trkpt>
      <trkpt lat="45.95843" lon="4.87952">
        <ele>284.899993896</ele>
        <time>2015-12-22T11:48:15.357Z</time>
      </trkpt>
      <trkpt lat="45.95843" lon="4.87943">
        <ele>285</ele>
        <time>2015-12-22T11:48:16.418Z</time>
      </trkpt>
      <trkpt lat="45.95842" lon="4.87934">
        <ele>285.100006104</ele>
        <time>2015-12-22T11:48:17.353Z</time>
      </trkpt>
      <trkpt lat="45.95842" lon="4.87925">
        <ele>285.200012207</ele>
        <time>2015-12-22T11:48:18.374Z</time>
      </trkpt>
      <trkpt lat="45.95841" lon="4.87916">
        <ele>285.200012207</ele>
        <time>2015-12-22T11:48:19.357Z</time>
      </trkpt>
      <trkpt lat="45.95841" lon="4.87907">
        <ele>285.399993896</ele>
        <time>2015-12-22T11:48:20.373Z</time>
      </trkpt>
      <trkpt lat="45.9584" lon="4.87898">
        <ele>285.5</ele>
        <time>2015-12-22T11:48:21.356Z</time>
      </trkpt>
      <trkpt lat="45.9584" lon="4.87888">
        <ele>285.5</ele>
        <time>2015-12-22T11:48:22.374Z</time>
      </trkpt>
      <trkpt lat="45.95839" lon="4.87878">
        <ele>285.399993896</ele>
        <time>2015-12-22T11:48:23.353Z</time>
      </trkpt>
      <trkpt lat="45.95839" lon="4.87869">
        <ele>285.299987793</ele>
        <time>2015-12-22T11:48:24.378Z</time>
      </trkpt>
      <trkpt lat="45.95838" lon="4.87858">
        <ele>285</ele>
        <time>2015-12-22T11:48:25.356Z</time>
      </trkpt>
      <trkpt lat="45.95837" lon="4.87848">
        <ele>284.5</ele>
        <time>2015-12-22T11:48:26.374Z</time>
      </trkpt>
      <trkpt lat="45.95837" lon="4.87839">
        <ele>284.299987793</ele>
        <time>2015-12-22T11:48:27.353Z</time>
      </trkpt>
      <trkpt lat="45.95836" lon="4.87829">
        <ele>284</ele>
        <time>2015-12-22T11:48:28.49Z</time>
      </trkpt>
      <trkpt lat="45.95834" lon="4.87818">
        <ele>284.200012207</ele>
        <time>2015-12-22T11:48:29.355Z</time>
      </trkpt>
      <trkpt lat="45.95833" lon="4.87808">
        <ele>283.899993896</ele>
        <time>2015-12-22T11:48:30.376Z</time>
      </trkpt>
      <trkpt lat="45.95832" lon="4.87798">
        <ele>283.899993896</ele>
        <time>2015-12-22T11:48:31.359Z</time>
      </trkpt>
      <trkpt lat="45.95831" lon="4.87787">
        <ele>283.799987793</ele>
        <time>2015-12-22T11:48:32.39Z</time>
      </trkpt>
      <trkpt lat="45.95829" lon="4.87777">
        <ele>283.700012207</ele>
        <time>2015-12-22T11:48:33.381Z</time>
      </trkpt>
      <trkpt lat="45.95828" lon="4.87766">
        <ele>283.799987793</ele>
        <time>2015-12-22T11:48:34.377Z</time>
      </trkpt>
      <trkpt lat="45.95826" lon="4.87755">
        <ele>283.299987793</ele>
        <time>2015-12-22T11:48:35.353Z</time>
      </trkpt>
      <trkpt lat="45.95824" lon="4.87744">
        <ele>283.100006104</ele>
        <time>2015-12-22T11:48:36.375Z</time>
      </trkpt>
      <trkpt lat="45.95822" lon="4.87732">
        <ele>283</ele>
        <time>2015-12-22T11:48:37.357Z</time>
      </trkpt>
      <trkpt lat="45.95819" lon="4.87722">
        <ele>283</ele>
        <time>2015-12-22T11:48:38.371Z</time>
      </trkpt>
      <trkpt lat="45.95818" lon="4.87711">
        <ele>283.100006104</ele>
        <time>2015-12-22T11:48:39.397Z</time>
      </trkpt>
      <trkpt lat="45.95815" lon="4.877">
        <ele>283</ele>
        <time>2015-12-22T11:48:40.374Z</time>
      </trkpt>
      <trkpt lat="45.95813" lon="4.8769">
        <ele>282.899993896</ele>
        <time>2015-12-22T11:48:41.353Z</time>
      </trkpt>
      <trkpt lat="45.9581" lon="4.87679">
        <ele>282.5</ele>
        <time>2015-12-22T11:48:42.374Z</time>
      </trkpt>
      <trkpt lat="45.95808" lon="4.87668">
        <ele>282.200012207</ele>
        <time>2015-12-22T11:48:43.349Z</time>
      </trkpt>
      <trkpt lat="45.95805" lon="4.87659">
        <ele>281.799987793</ele>
        <time>2015-12-22T11:48:44.371Z</time>
      </trkpt>
      <trkpt lat="45.95801" lon="4.87649">
        <ele>281.5</ele>
        <time>2015-12-22T11:48:45.355Z</time>
      </trkpt>
      <trkpt lat="45.95797" lon="4.87639">
        <ele>281.100006104</ele>
        <time>2015-12-22T11:48:46.371Z</time>
      </trkpt>
      <trkpt lat="45.95792" lon="4.87629">
        <ele>280.799987793</ele>
        <time>2015-12-22T11:48:47.352Z</time>
      </trkpt>
      <trkpt lat="45.95788" lon="4.8762">
        <ele>280.5</ele>
        <time>2015-12-22T11:48:48.372Z</time>
      </trkpt>
      <trkpt lat="45.95783" lon="4.8761">
        <ele>280.100006104</ele>
        <time>2015-12-22T11:48:49.36Z</time>
      </trkpt>
      <trkpt lat="45.95778" lon="4.876">
        <ele>279.899993896</ele>
        <time>2015-12-22T11:48:50.482Z</time>
      </trkpt>
      <trkpt lat="45.95772" lon="4.8759">
        <ele>279.799987793</ele>
        <time>2015-12-22T11:48:51.353Z</time>
      </trkpt>
      <trkpt lat="45.95767" lon="4.8758">
        <ele>279.5</ele>
        <time>2015-12-22T11:48:52.373Z</time>
      </trkpt>
      <trkpt lat="45.95762" lon="4.8757">
        <ele>279.299987793</ele>
        <time>2015-12-22T11:48:53.352Z</time>
      </trkpt>
      <trkpt lat="45.95762" lon="4.8757">
        <ele>279.299987793</ele>
        <time>2015-12-22T11:48:53.43Z</time>
      </trkpt>
      <trkpt lat="45.95757" lon="4.87559">
        <ele>279.200012207</ele>
        <time>2015-12-22T11:48:54.354Z</time>
      </trkpt>
      <trkpt lat="45.95757" lon="4.87559">
        <ele>279.200012207</ele>
        <time>2015-12-22T11:48:54.386Z</time>
      </trkpt>
      <trkpt lat="45.95752" lon="4.87548">
        <ele>278.799987793</ele>
        <time>2015-12-22T11:48:55.358Z</time>
      </trkpt>
      <trkpt lat="45.95747" lon="4.87538">
        <ele>278.399993896</ele>
        <time>2015-12-22T11:48:56.373Z</time>
      </trkpt>
      <trkpt lat="45.95742" lon="4.87527">
        <ele>278.200012207</ele>
        <time>2015-12-22T11:48:57.352Z</time>
      </trkpt>
      <trkpt lat="45.95742" lon="4.87527">
        <ele>278.200012207</ele>
        <time>2015-12-22T11:48:57.383Z</time>
      </trkpt>
      <trkpt lat="45.95736" lon="4.87516">
        <ele>277.799987793</ele>
        <time>2015-12-22T11:48:58.368Z</time>
      </trkpt>
      <trkpt lat="45.95736" lon="4.87516">
        <ele>277.799987793</ele>
        <time>2015-12-22T11:48:58.403Z</time>
      </trkpt>
      <trkpt lat="45.95731" lon="4.87505">
        <ele>277.399993896</ele>
        <time>2015-12-22T11:48:59.355Z</time>
      </trkpt>
      <trkpt lat="45.95731" lon="4.87505">
        <ele>277.399993896</ele>
        <time>2015-12-22T11:48:59.39Z</time>
      </trkpt>
      <trkpt lat="45.95726" lon="4.87494">
        <ele>276.5</ele>
        <time>2015-12-22T11:49:00.387Z</time>
      </trkpt>
      <trkpt lat="45.95726" lon="4.87494">
        <ele>276.5</ele>
        <time>2015-12-22T11:49:00.621Z</time>
      </trkpt>
      <trkpt lat="45.9572" lon="4.87483">
        <ele>276.299987793</ele>
        <time>2015-12-22T11:49:01.358Z</time>
      </trkpt>
      <trkpt lat="45.9572" lon="4.87483">
        <ele>276.299987793</ele>
        <time>2015-12-22T11:49:01.384Z</time>
      </trkpt>
      <trkpt lat="45.95715" lon="4.87473">
        <ele>275.899993896</ele>
        <time>2015-12-22T11:49:02.355Z</time>
      </trkpt>
      <trkpt lat="45.9571" lon="4.87462">
        <ele>275.600006104</ele>
        <time>2015-12-22T11:49:03.411Z</time>
      </trkpt>
      <trkpt lat="45.95705" lon="4.87452">
        <ele>275.5</ele>
        <time>2015-12-22T11:49:04.352Z</time>
      </trkpt>
      <trkpt lat="45.957" lon="4.87442">
        <ele>275.5</ele>
        <time>2015-12-22T11:49:05.373Z</time>
      </trkpt>
      <trkpt lat="45.95695" lon="4.87433">
        <ele>275.200012207</ele>
        <time>2015-12-22T11:49:06.35Z</time>
      </trkpt>
      <trkpt lat="45.95691" lon="4.87423">
        <ele>275.100006104</ele>
        <time>2015-12-22T11:49:07.377Z</time>
      </trkpt>
      <trkpt lat="45.95686" lon="4.87414">
        <ele>274.899993896</ele>
        <time>2015-12-22T11:49:08.352Z</time>
      </trkpt>
      <trkpt lat="45.95682" lon="4.87405">
        <ele>274.399993896</ele>
        <time>2015-12-22T11:49:09.375Z</time>
      </trkpt>
      <trkpt lat="45.95678" lon="4.87396">
        <ele>274.200012207</ele>
        <time>2015-12-22T11:49:10.353Z</time>
      </trkpt>
      <trkpt lat="45.95674" lon="4.87387">
        <ele>273.899993896</ele>
        <time>2015-12-22T11:49:11.373Z</time>
      </trkpt>
      <trkpt lat="45.9567" lon="4.87379">
        <ele>274</ele>
        <time>2015-12-22T11:49:12.353Z</time>
      </trkpt>
      <trkpt lat="45.95666" lon="4.87371">
        <ele>274.100006104</ele>
        <time>2015-12-22T11:49:13.39Z</time>
      </trkpt>
      <trkpt lat="45.95662" lon="4.87362">
        <ele>274</ele>
        <time>2015-12-22T11:49:14.352Z</time>
      </trkpt>
      <trkpt lat="45.95658" lon="4.87354">
        <ele>273.600006104</ele>
        <time>2015-12-22T11:49:15.373Z</time>
      </trkpt>
      <trkpt lat="45.95653" lon="4.87346">
        <ele>273.600006104</ele>
        <time>2015-12-22T11:49:16.353Z</time>
      </trkpt>
      <trkpt lat="45.95649" lon="4.87338">
        <ele>273.5</ele>
        <time>2015-12-22T11:49:17.372Z</time>
      </trkpt>
      <trkpt lat="45.95645" lon="4.8733">
        <ele>273.5</ele>
        <time>2015-12-22T11:49:18.376Z</time>
      </trkpt>
      <trkpt lat="45.95641" lon="4.87321">
        <ele>273.200012207</ele>
        <time>2015-12-22T11:49:19.377Z</time>
      </trkpt>
      <trkpt lat="45.95637" lon="4.87313">
        <ele>273.100006104</ele>
        <time>2015-12-22T11:49:20.353Z</time>
      </trkpt>
      <trkpt lat="45.95632" lon="4.87304">
        <ele>273.100006104</ele>
        <time>2015-12-22T11:49:21.375Z</time>
      </trkpt>
      <trkpt lat="45.95628" lon="4.87295">
        <ele>273.100006104</ele>
        <time>2015-12-22T11:49:22.353Z</time>
      </trkpt>
      <trkpt lat="45.95624" lon="4.87287">
        <ele>272.5</ele>
        <time>2015-12-22T11:49:23.407Z</time>
      </trkpt>
      <trkpt lat="45.95619" lon="4.87278">
        <ele>272.100006104</ele>
        <time>2015-12-22T11:49:24.354Z</time>
      </trkpt>
      <trkpt lat="45.95614" lon="4.87269">
        <ele>271.899993896</ele>
        <time>2015-12-22T11:49:25.38Z</time>
      </trkpt>
      <trkpt lat="45.9561" lon="4.87259">
        <ele>271.299987793</ele>
        <time>2015-12-22T11:49:26.353Z</time>
      </trkpt>
      <trkpt lat="45.95605" lon="4.87249">
        <ele>270.799987793</ele>
        <time>2015-12-22T11:49:27.372Z</time>
      </trkpt>
      <trkpt lat="45.956" lon="4.87239">
        <ele>270.600006104</ele>
        <time>2015-12-22T11:49:28.352Z</time>
      </trkpt>
      <trkpt lat="45.95595" lon="4.87229">
        <ele>270.100006104</ele>
        <time>2015-12-22T11:49:29.388Z</time>
      </trkpt>
      <trkpt lat="45.9559" lon="4.87219">
        <ele>270</ele>
        <time>2015-12-22T11:49:30.352Z</time>
      </trkpt>
      <trkpt lat="45.95586" lon="4.87209">
        <ele>269.799987793</ele>
        <time>2015-12-22T11:49:31.425Z</time>
      </trkpt>
      <trkpt lat="45.9558" lon="4.87199">
        <ele>269.700012207</ele>
        <time>2015-12-22T11:49:32.352Z</time>
      </trkpt>
      <trkpt lat="45.95576" lon="4.87189">
        <ele>269.5</ele>
        <time>2015-12-22T11:49:33.374Z</time>
      </trkpt>
      <trkpt lat="45.95571" lon="4.8718">
        <ele>269.200012207</ele>
        <time>2015-12-22T11:49:34.353Z</time>
      </trkpt>
      <trkpt lat="45.95567" lon="4.8717">
        <ele>268.899993896</ele>
        <time>2015-12-22T11:49:35.372Z</time>
      </trkpt>
      <trkpt lat="45.95562" lon="4.87161">
        <ele>268.5</ele>
        <time>2015-12-22T11:49:36.354Z</time>
      </trkpt>
      <trkpt lat="45.95557" lon="4.87153">
        <ele>268.299987793</ele>
        <time>2015-12-22T11:49:37.377Z</time>
      </trkpt>
      <trkpt lat="45.95553" lon="4.87144">
        <ele>268.100006104</ele>
        <time>2015-12-22T11:49:38.352Z</time>
      </trkpt>
      <trkpt lat="45.95549" lon="4.87136">
        <ele>267.799987793</ele>
        <time>2015-12-22T11:49:39.376Z</time>
      </trkpt>
      <trkpt lat="45.95544" lon="4.87128">
        <ele>267.5</ele>
        <time>2015-12-22T11:49:40.352Z</time>
      </trkpt>
      <trkpt lat="45.9554" lon="4.87119">
        <ele>267.299987793</ele>
        <time>2015-12-22T11:49:41.373Z</time>
      </trkpt>
      <trkpt lat="45.95536" lon="4.87111">
        <ele>266.899993896</ele>
        <time>2015-12-22T11:49:42.353Z</time>
      </trkpt>
      <trkpt lat="45.95532" lon="4.87102">
        <ele>266.799987793</ele>
        <time>2015-12-22T11:49:43.427Z</time>
      </trkpt>
      <trkpt lat="45.95528" lon="4.87094">
        <ele>266.5</ele>
        <time>2015-12-22T11:49:44.353Z</time>
      </trkpt>
      <trkpt lat="45.95524" lon="4.87085">
        <ele>266.399993896</ele>
        <time>2015-12-22T11:49:45.395Z</time>
      </trkpt>
      <trkpt lat="45.9552" lon="4.87077">
        <ele>266.299987793</ele>
        <time>2015-12-22T11:49:46.352Z</time>
      </trkpt>
      <trkpt lat="45.95516" lon="4.87069">
        <ele>266.600006104</ele>
        <time>2015-12-22T11:49:47.373Z</time>
      </trkpt>
      <trkpt lat="45.95511" lon="4.8706">
        <ele>266.799987793</ele>
        <time>2015-12-22T11:49:48.352Z</time>
      </trkpt>
      <trkpt lat="45.95507" lon="4.87052">
        <ele>266.600006104</ele>
        <time>2015-12-22T11:49:49.381Z</time>
      </trkpt>
      <trkpt lat="45.95503" lon="4.87045">
        <ele>266.799987793</ele>
        <time>2015-12-22T11:49:50.353Z</time>
      </trkpt>
      <trkpt lat="45.955" lon="4.87036">
        <ele>266.899993896</ele>
        <time>2015-12-22T11:49:51.377Z</time>
      </trkpt>
      <trkpt lat="45.95496" lon="4.87029">
        <ele>267</ele>
        <time>2015-12-22T11:49:52.356Z</time>
      </trkpt>
      <trkpt lat="45.95492" lon="4.87021">
        <ele>266.799987793</ele>
        <time>2015-12-22T11:49:53.414Z</time>
      </trkpt>
      <trkpt lat="45.95489" lon="4.87012">
        <ele>267</ele>
        <time>2015-12-22T11:49:54.353Z</time>
      </trkpt>
      <trkpt lat="45.95485" lon="4.87005">
        <ele>266.899993896</ele>
        <time>2015-12-22T11:49:55.377Z</time>
      </trkpt>
      <trkpt lat="45.95481" lon="4.86997">
        <ele>267</ele>
        <time>2015-12-22T11:49:56.352Z</time>
      </trkpt>
      <trkpt lat="45.95477" lon="4.86989">
        <ele>266.899993896</ele>
        <time>2015-12-22T11:49:57.372Z</time>
      </trkpt>
      <trkpt lat="45.95474" lon="4.8698">
        <ele>266.799987793</ele>
        <time>2015-12-22T11:49:58.353Z</time>
      </trkpt>
      <trkpt lat="45.9547" lon="4.86971">
        <ele>266.899993896</ele>
        <time>2015-12-22T11:49:59.375Z</time>
      </trkpt>
      <trkpt lat="45.95466" lon="4.86963">
        <ele>266.5</ele>
        <time>2015-12-22T11:50:00.352Z</time>
      </trkpt>
      <trkpt lat="45.95462" lon="4.86955">
        <ele>266.700012207</ele>
        <time>2015-12-22T11:50:01.403Z</time>
      </trkpt>
      <trkpt lat="45.95458" lon="4.86946">
        <ele>266.299987793</ele>
        <time>2015-12-22T11:50:02.359Z</time>
      </trkpt>
      <trkpt lat="45.95454" lon="4.86938">
        <ele>266</ele>
        <time>2015-12-22T11:50:03.394Z</time>
      </trkpt>
      <trkpt lat="45.95449" lon="4.86929">
        <ele>265.5</ele>
        <time>2015-12-22T11:50:04.352Z</time>
      </trkpt>
      <trkpt lat="45.95445" lon="4.8692">
        <ele>265.100006104</ele>
        <time>2015-12-22T11:50:05.372Z</time>
      </trkpt>
      <trkpt lat="45.95441" lon="4.86912">
        <ele>265.100006104</ele>
        <time>2015-12-22T11:50:06.354Z</time>
      </trkpt>
      <trkpt lat="45.95437" lon="4.86904">
        <ele>264.700012207</ele>
        <time>2015-12-22T11:50:07.376Z</time>
      </trkpt>
      <trkpt lat="45.95434" lon="4.86897">
        <ele>264.600006104</ele>
        <time>2015-12-22T11:50:08.352Z</time>
      </trkpt>
      <trkpt lat="45.9543" lon="4.86889">
        <ele>264.5</ele>
        <time>2015-12-22T11:50:09.387Z</time>
      </trkpt>
      <trkpt lat="45.95426" lon="4.86881">
        <ele>264.299987793</ele>
        <time>2015-12-22T11:50:10.351Z</time>
      </trkpt>
      <trkpt lat="45.95422" lon="4.86874">
        <ele>264.299987793</ele>
        <time>2015-12-22T11:50:11.377Z</time>
      </trkpt>
      <trkpt lat="45.95419" lon="4.86866">
        <ele>264.200012207</ele>
        <time>2015-12-22T11:50:12.351Z</time>
      </trkpt>
      <trkpt lat="45.95415" lon="4.86859">
        <ele>264.100006104</ele>
        <time>2015-12-22T11:50:13.376Z</time>
      </trkpt>
      <trkpt lat="45.95411" lon="4.86852">
        <ele>263.799987793</ele>
        <time>2015-12-22T11:50:14.352Z</time>
      </trkpt>
      <trkpt lat="45.95407" lon="4.86844">
        <ele>264</ele>
        <time>2015-12-22T11:50:15.372Z</time>
      </trkpt>
      <trkpt lat="45.95404" lon="4.86837">
        <ele>264.100006104</ele>
        <time>2015-12-22T11:50:16.352Z</time>
      </trkpt>
      <trkpt lat="45.954" lon="4.86829">
        <ele>264.5</ele>
        <time>2015-12-22T11:50:17.375Z</time>
      </trkpt>
      <trkpt lat="45.95396" lon="4.86822">
        <ele>264.600006104</ele>
        <time>2015-12-22T11:50:18.353Z</time>
      </trkpt>
      <trkpt lat="45.95393" lon="4.86815">
        <ele>264.5</ele>
        <time>2015-12-22T11:50:19.38Z</time>
      </trkpt>
      <trkpt lat="45.95389" lon="4.86808">
        <ele>264.399993896</ele>
        <time>2015-12-22T11:50:20.353Z</time>
      </trkpt>
      <trkpt lat="45.95386" lon="4.868">
        <ele>264.200012207</ele>
        <time>2015-12-22T11:50:21.373Z</time>
      </trkpt>
      <trkpt lat="45.95382" lon="4.86793">
        <ele>264.200012207</ele>
        <time>2015-12-22T11:50:22.369Z</time>
      </trkpt>
      <trkpt lat="45.95379" lon="4.86786">
        <ele>264.100006104</ele>
        <time>2015-12-22T11:50:23.372Z</time>
      </trkpt>
      <trkpt lat="45.95375" lon="4.86778">
        <ele>264.100006104</ele>
        <time>2015-12-22T11:50:24.351Z</time>
      </trkpt>
      <trkpt lat="45.95371" lon="4.86771">
        <ele>263.899993896</ele>
        <time>2015-12-22T11:50:25.375Z</time>
      </trkpt>
      <trkpt lat="45.95368" lon="4.86764">
        <ele>264</ele>
        <time>2015-12-22T11:50:26.407Z</time>
      </trkpt>
      <trkpt lat="45.95364" lon="4.86757">
        <ele>264.399993896</ele>
        <time>2015-12-22T11:50:27.373Z</time>
      </trkpt>
      <trkpt lat="45.95361" lon="4.8675">
        <ele>264.799987793</ele>
        <time>2015-12-22T11:50:28.353Z</time>
      </trkpt>
      <trkpt lat="45.95357" lon="4.86743">
        <ele>264.799987793</ele>
        <time>2015-12-22T11:50:29.375Z</time>
      </trkpt>
      <trkpt lat="45.95353" lon="4.86735">
        <ele>264.5</ele>
        <time>2015-12-22T11:50:30.365Z</time>
      </trkpt>
      <trkpt lat="45.9535" lon="4.86729">
        <ele>264.600006104</ele>
        <time>2015-12-22T11:50:31.375Z</time>
      </trkpt>
      <trkpt lat="45.95346" lon="4.86722">
        <ele>264.600006104</ele>
        <time>2015-12-22T11:50:32.352Z</time>
      </trkpt>
      <trkpt lat="45.95343" lon="4.86715">
        <ele>264.399993896</ele>
        <time>2015-12-22T11:50:33.373Z</time>
      </trkpt>
      <trkpt lat="45.95339" lon="4.86708">
        <ele>264.700012207</ele>
        <time>2015-12-22T11:50:34.351Z</time>
      </trkpt>
      <trkpt lat="45.95335" lon="4.86701">
        <ele>264.5</ele>
        <time>2015-12-22T11:50:35.373Z</time>
      </trkpt>
      <trkpt lat="45.95332" lon="4.86694">
        <ele>264.200012207</ele>
        <time>2015-12-22T11:50:36.352Z</time>
      </trkpt>
      <trkpt lat="45.95328" lon="4.86686">
        <ele>264.200012207</ele>
        <time>2015-12-22T11:50:37.376Z</time>
      </trkpt>
      <trkpt lat="45.95325" lon="4.86679">
        <ele>264.399993896</ele>
        <time>2015-12-22T11:50:38.351Z</time>
      </trkpt>
      <trkpt lat="45.95322" lon="4.86672">
        <ele>264.700012207</ele>
        <time>2015-12-22T11:50:39.378Z</time>
      </trkpt>
      <trkpt lat="45.95319" lon="4.86664">
        <ele>264.299987793</ele>
        <time>2015-12-22T11:50:40.346Z</time>
      </trkpt>
      <trkpt lat="45.95315" lon="4.86657">
        <ele>264.200012207</ele>
        <time>2015-12-22T11:50:41.371Z</time>
      </trkpt>
      <trkpt lat="45.95311" lon="4.8665">
        <ele>264.100006104</ele>
        <time>2015-12-22T11:50:42.352Z</time>
      </trkpt>
      <trkpt lat="45.95308" lon="4.86643">
        <ele>264.399993896</ele>
        <time>2015-12-22T11:50:43.409Z</time>
      </trkpt>
      <trkpt lat="45.95304" lon="4.86635">
        <ele>264.600006104</ele>
        <time>2015-12-22T11:50:44.353Z</time>
      </trkpt>
      <trkpt lat="45.95301" lon="4.86627">
        <ele>264.399993896</ele>
        <time>2015-12-22T11:50:45.373Z</time>
      </trkpt>
      <trkpt lat="45.95297" lon="4.8662">
        <ele>264.100006104</ele>
        <time>2015-12-22T11:50:46.352Z</time>
      </trkpt>
      <trkpt lat="45.95293" lon="4.86612">
        <ele>263.899993896</ele>
        <time>2015-12-22T11:50:47.372Z</time>
      </trkpt>
      <trkpt lat="45.95289" lon="4.86604">
        <ele>263.399993896</ele>
        <time>2015-12-22T11:50:48.335Z</time>
      </trkpt>
      <trkpt lat="45.95285" lon="4.86596">
        <ele>262.799987793</ele>
        <time>2015-12-22T11:50:49.382Z</time>
      </trkpt>
      <trkpt lat="45.95281" lon="4.86589">
        <ele>262.399993896</ele>
        <time>2015-12-22T11:50:50.354Z</time>
      </trkpt>
      <trkpt lat="45.95276" lon="4.86581">
        <ele>262</ele>
        <time>2015-12-22T11:50:51.373Z</time>
      </trkpt>
      <trkpt lat="45.95272" lon="4.86575">
        <ele>261.399993896</ele>
        <time>2015-12-22T11:50:52.351Z</time>
      </trkpt>
      <trkpt lat="45.95267" lon="4.86568">
        <ele>261.299987793</ele>
        <time>2015-12-22T11:50:53.387Z</time>
      </trkpt>
      <trkpt lat="45.95262" lon="4.86561">
        <ele>261.200012207</ele>
        <time>2015-12-22T11:50:54.352Z</time>
      </trkpt>
      <trkpt lat="45.95257" lon="4.86555">
        <ele>260.799987793</ele>
        <time>2015-12-22T11:50:55.381Z</time>
      </trkpt>
      <trkpt lat="45.95253" lon="4.86548">
        <ele>260.5</ele>
        <time>2015-12-22T11:50:56.361Z</time>
      </trkpt>
      <trkpt lat="45.95248" lon="4.86542">
        <ele>260.200012207</ele>
        <time>2015-12-22T11:50:57.373Z</time>
      </trkpt>
      <trkpt lat="45.95243" lon="4.86536">
        <ele>259.899993896</ele>
        <time>2015-12-22T11:50:58.352Z</time>
      </trkpt>
      <trkpt lat="45.95239" lon="4.8653">
        <ele>259.600006104</ele>
        <time>2015-12-22T11:50:59.402Z</time>
      </trkpt>
      <trkpt lat="45.95234" lon="4.86524">
        <ele>259.299987793</ele>
        <time>2015-12-22T11:51:00.353Z</time>
      </trkpt>
      <trkpt lat="45.9523" lon="4.86519">
        <ele>259.200012207</ele>
        <time>2015-12-22T11:51:01.377Z</time>
      </trkpt>
      <trkpt lat="45.95226" lon="4.86513">
        <ele>259.200012207</ele>
        <time>2015-12-22T11:51:02.353Z</time>
      </trkpt>
      <trkpt lat="45.95221" lon="4.86508">
        <ele>259.200012207</ele>
        <time>2015-12-22T11:51:03.411Z</time>
      </trkpt>
      <trkpt lat="45.95216" lon="4.86503">
        <ele>259.299987793</ele>
        <time>2015-12-22T11:51:04.352Z</time>
      </trkpt>
      <trkpt lat="45.95212" lon="4.86498">
        <ele>259.799987793</ele>
        <time>2015-12-22T11:51:05.371Z</time>
      </trkpt>
      <trkpt lat="45.95208" lon="4.86493">
        <ele>260.399993896</ele>
        <time>2015-12-22T11:51:06.352Z</time>
      </trkpt>
      <trkpt lat="45.95204" lon="4.86488">
        <ele>260.899993896</ele>
        <time>2015-12-22T11:51:07.376Z</time>
      </trkpt>
      <trkpt lat="45.952" lon="4.86484">
        <ele>261.100006104</ele>
        <time>2015-12-22T11:51:08.353Z</time>
      </trkpt>
      <trkpt lat="45.95196" lon="4.86479">
        <ele>261.600006104</ele>
        <time>2015-12-22T11:51:09.38Z</time>
      </trkpt>
      <trkpt lat="45.95192" lon="4.86475">
        <ele>261.799987793</ele>
        <time>2015-12-22T11:51:10.353Z</time>
      </trkpt>
      <trkpt lat="45.95186" lon="4.86467">
        <ele>262.299987793</ele>
        <time>2015-12-22T11:51:12.372Z</time>
      </trkpt>
      <trkpt lat="45.95182" lon="4.86462">
        <ele>262.600006104</ele>
        <time>2015-12-22T11:51:13.355Z</time>
      </trkpt>
      <trkpt lat="45.95176" lon="4.86454">
        <ele>263.299987793</ele>
        <time>2015-12-22T11:51:15.387Z</time>
      </trkpt>
      <trkpt lat="45.95173" lon="4.8645">
        <ele>263.700012207</ele>
        <time>2015-12-22T11:51:16.353Z</time>
      </trkpt>
      <trkpt lat="45.95167" lon="4.86443">
        <ele>264.600006104</ele>
        <time>2015-12-22T11:51:18.37Z</time>
      </trkpt>
      <trkpt lat="45.95164" lon="4.86439">
        <ele>264.899993896</ele>
        <time>2015-12-22T11:51:19.359Z</time>
      </trkpt>
      <trkpt lat="45.95158" lon="4.86431">
        <ele>265</ele>
        <time>2015-12-22T11:51:21.372Z</time>
      </trkpt>
      <trkpt lat="45.95154" lon="4.86427">
        <ele>265.100006104</ele>
        <time>2015-12-22T11:51:22.351Z</time>
      </trkpt>
      <trkpt lat="45.95147" lon="4.8642">
        <ele>265.200012207</ele>
        <time>2015-12-22T11:51:24.372Z</time>
      </trkpt>
      <trkpt lat="45.95144" lon="4.86416">
        <ele>265.299987793</ele>
        <time>2015-12-22T11:51:25.355Z</time>
      </trkpt>
      <trkpt lat="45.9514" lon="4.86412">
        <ele>265.100006104</ele>
        <time>2015-12-22T11:51:26.378Z</time>
      </trkpt>
      <trkpt lat="45.95137" lon="4.86407">
        <ele>264.799987793</ele>
        <time>2015-12-22T11:51:27.353Z</time>
      </trkpt>
      <trkpt lat="45.95134" lon="4.86403">
        <ele>265.100006104</ele>
        <time>2015-12-22T11:51:28.378Z</time>
      </trkpt>
      <trkpt lat="45.9513" lon="4.86399">
        <ele>265.200012207</ele>
        <time>2015-12-22T11:51:29.354Z</time>
      </trkpt>
      <trkpt lat="45.95123" lon="4.86391">
        <ele>265.299987793</ele>
        <time>2015-12-22T11:51:31.482Z</time>
      </trkpt>
      <trkpt lat="45.9512" lon="4.86388">
        <ele>265.399993896</ele>
        <time>2015-12-22T11:51:32.359Z</time>
      </trkpt>
      <trkpt lat="45.95113" lon="4.8638">
        <ele>265.399993896</ele>
        <time>2015-12-22T11:51:34.372Z</time>
      </trkpt>
      <trkpt lat="45.9511" lon="4.86376">
        <ele>265.5</ele>
        <time>2015-12-22T11:51:35.354Z</time>
      </trkpt>
      <trkpt lat="45.95107" lon="4.86372">
        <ele>265.799987793</ele>
        <time>2015-12-22T11:51:36.391Z</time>
      </trkpt>
      <trkpt lat="45.95103" lon="4.86368">
        <ele>266.200012207</ele>
        <time>2015-12-22T11:51:37.355Z</time>
      </trkpt>
      <trkpt lat="45.95096" lon="4.8636">
        <ele>266.700012207</ele>
        <time>2015-12-22T11:51:39.377Z</time>
      </trkpt>
      <trkpt lat="45.95092" lon="4.86356">
        <ele>267</ele>
        <time>2015-12-22T11:51:40.352Z</time>
      </trkpt>
      <trkpt lat="45.95089" lon="4.86351">
        <ele>267.100006104</ele>
        <time>2015-12-22T11:51:41.373Z</time>
      </trkpt>
      <trkpt lat="45.95085" lon="4.86347">
        <ele>267.200012207</ele>
        <time>2015-12-22T11:51:42.351Z</time>
      </trkpt>
      <trkpt lat="45.95082" lon="4.86343">
        <ele>267.399993896</ele>
        <time>2015-12-22T11:51:43.374Z</time>
      </trkpt>
      <trkpt lat="45.95078" lon="4.86339">
        <ele>267.200012207</ele>
        <time>2015-12-22T11:51:44.351Z</time>
      </trkpt>
      <trkpt lat="45.95072" lon="4.8633">
        <ele>267.299987793</ele>
        <time>2015-12-22T11:51:46.372Z</time>
      </trkpt>
      <trkpt lat="45.95068" lon="4.86326">
        <ele>267.5</ele>
        <time>2015-12-22T11:51:47.351Z</time>
      </trkpt>
      <trkpt lat="45.95062" lon="4.86317">
        <ele>268</ele>
        <time>2015-12-22T11:51:49.381Z</time>
      </trkpt>
      <trkpt lat="45.95058" lon="4.86314">
        <ele>268.200012207</ele>
        <time>2015-12-22T11:51:50.399Z</time>
      </trkpt>
      <trkpt lat="45.95051" lon="4.86306">
        <ele>268.5</ele>
        <time>2015-12-22T11:51:52.371Z</time>
      </trkpt>
      <trkpt lat="45.95048" lon="4.86302">
        <ele>268.5</ele>
        <time>2015-12-22T11:51:53.356Z</time>
      </trkpt>
      <trkpt lat="45.95041" lon="4.86294">
        <ele>269.100006104</ele>
        <time>2015-12-22T11:51:55.374Z</time>
      </trkpt>
      <trkpt lat="45.95037" lon="4.8629">
        <ele>269.299987793</ele>
        <time>2015-12-22T11:51:56.351Z</time>
      </trkpt>
      <trkpt lat="45.95031" lon="4.86281">
        <ele>269.600006104</ele>
        <time>2015-12-22T11:51:58.371Z</time>
      </trkpt>
      <trkpt lat="45.95027" lon="4.86277">
        <ele>269.600006104</ele>
        <time>2015-12-22T11:51:59.354Z</time>
      </trkpt>
      <trkpt lat="45.95021" lon="4.86269">
        <ele>269.899993896</ele>
        <time>2015-12-22T11:52:01.378Z</time>
      </trkpt>
      <trkpt lat="45.95018" lon="4.86265">
        <ele>270</ele>
        <time>2015-12-22T11:52:02.373Z</time>
      </trkpt>
      <trkpt lat="45.95011" lon="4.86257">
        <ele>270.200012207</ele>
        <time>2015-12-22T11:52:04.373Z</time>
      </trkpt>
      <trkpt lat="45.95008" lon="4.86253">
        <ele>270.200012207</ele>
        <time>2015-12-22T11:52:05.357Z</time>
      </trkpt>
      <trkpt lat="45.95002" lon="4.86246">
        <ele>270.600006104</ele>
        <time>2015-12-22T11:52:07.376Z</time>
      </trkpt>
      <trkpt lat="45.94999" lon="4.86242">
        <ele>270.799987793</ele>
        <time>2015-12-22T11:52:08.356Z</time>
      </trkpt>
      <trkpt lat="45.94993" lon="4.86234">
        <ele>270.700012207</ele>
        <time>2015-12-22T11:52:10.371Z</time>
      </trkpt>
      <trkpt lat="45.9499" lon="4.8623">
        <ele>270.799987793</ele>
        <time>2015-12-22T11:52:11.351Z</time>
      </trkpt>
      <trkpt lat="45.94984" lon="4.86223">
        <ele>271.200012207</ele>
        <time>2015-12-22T11:52:13.374Z</time>
      </trkpt>
      <trkpt lat="45.94981" lon="4.86219">
        <ele>271.399993896</ele>
        <time>2015-12-22T11:52:14.351Z</time>
      </trkpt>
      <trkpt lat="45.94975" lon="4.86211">
        <ele>271.600006104</ele>
        <time>2015-12-22T11:52:16.371Z</time>
      </trkpt>
      <trkpt lat="45.94972" lon="4.86207">
        <ele>271.299987793</ele>
        <time>2015-12-22T11:52:17.351Z</time>
      </trkpt>
      <trkpt lat="45.94965" lon="4.862">
        <ele>271.399993896</ele>
        <time>2015-12-22T11:52:19.379Z</time>
      </trkpt>
      <trkpt lat="45.94962" lon="4.86196">
        <ele>271.100006104</ele>
        <time>2015-12-22T11:52:20.353Z</time>
      </trkpt>
      <trkpt lat="45.94955" lon="4.86188">
        <ele>271.200012207</ele>
        <time>2015-12-22T11:52:22.372Z</time>
      </trkpt>
      <trkpt lat="45.94952" lon="4.86185">
        <ele>271.200012207</ele>
        <time>2015-12-22T11:52:23.351Z</time>
      </trkpt>
      <trkpt lat="45.94946" lon="4.86177">
        <ele>271.299987793</ele>
        <time>2015-12-22T11:52:25.375Z</time>
      </trkpt>
      <trkpt lat="45.94942" lon="4.86173">
        <ele>271.600006104</ele>
        <time>2015-12-22T11:52:26.352Z</time>
      </trkpt>
      <trkpt lat="45.94936" lon="4.86165">
        <ele>271.5</ele>
        <time>2015-12-22T11:52:28.391Z</time>
      </trkpt>
      <trkpt lat="45.94933" lon="4.86161">
        <ele>271.700012207</ele>
        <time>2015-12-22T11:52:29.353Z</time>
      </trkpt>
      <trkpt lat="45.94927" lon="4.86152">
        <ele>271.799987793</ele>
        <time>2015-12-22T11:52:31.374Z</time>
      </trkpt>
      <trkpt lat="45.94924" lon="4.86147">
        <ele>271.700012207</ele>
        <time>2015-12-22T11:52:32.351Z</time>
      </trkpt>
      <trkpt lat="45.94918" lon="4.86138">
        <ele>272.200012207</ele>
        <time>2015-12-22T11:52:34.371Z</time>
      </trkpt>
      <trkpt lat="45.94916" lon="4.86133">
        <ele>272.200012207</ele>
        <time>2015-12-22T11:52:35.351Z</time>
      </trkpt>
      <trkpt lat="45.9491" lon="4.86124">
        <ele>272.600006104</ele>
        <time>2015-12-22T11:52:37.373Z</time>
      </trkpt>
      <trkpt lat="45.94907" lon="4.86119">
        <ele>272.799987793</ele>
        <time>2015-12-22T11:52:38.351Z</time>
      </trkpt>
      <trkpt lat="45.94903" lon="4.86109">
        <ele>273</ele>
        <time>2015-12-22T11:52:40.371Z</time>
      </trkpt>
      <trkpt lat="45.94901" lon="4.86103">
        <ele>273.100006104</ele>
        <time>2015-12-22T11:52:41.351Z</time>
      </trkpt>
      <trkpt lat="45.94897" lon="4.86093">
        <ele>273.200012207</ele>
        <time>2015-12-22T11:52:43.376Z</time>
      </trkpt>
      <trkpt lat="45.94895" lon="4.86088">
        <ele>273.100006104</ele>
        <time>2015-12-22T11:52:44.353Z</time>
      </trkpt>
      <trkpt lat="45.94892" lon="4.86076">
        <ele>272.899993896</ele>
        <time>2015-12-22T11:52:46.371Z</time>
      </trkpt>
      <trkpt lat="45.9489" lon="4.8607">
        <ele>273</ele>
        <time>2015-12-22T11:52:47.355Z</time>
      </trkpt>
      <trkpt lat="45.94887" lon="4.86059">
        <ele>273.200012207</ele>
        <time>2015-12-22T11:52:49.401Z</time>
      </trkpt>
      <trkpt lat="45.94885" lon="4.86052">
        <ele>272.899993896</ele>
        <time>2015-12-22T11:52:50.352Z</time>
      </trkpt>
      <trkpt lat="45.94883" lon="4.86046">
        <ele>272.700012207</ele>
        <time>2015-12-22T11:52:51.372Z</time>
      </trkpt>
      <trkpt lat="45.94882" lon="4.8604">
        <ele>272.700012207</ele>
        <time>2015-12-22T11:52:52.382Z</time>
      </trkpt>
      <trkpt lat="45.9488" lon="4.86033">
        <ele>272.600006104</ele>
        <time>2015-12-22T11:52:53.373Z</time>
      </trkpt>
      <trkpt lat="45.94878" lon="4.86027">
        <ele>272.5</ele>
        <time>2015-12-22T11:52:54.354Z</time>
      </trkpt>
      <trkpt lat="45.94877" lon="4.86021">
        <ele>272.5</ele>
        <time>2015-12-22T11:52:55.374Z</time>
      </trkpt>
      <trkpt lat="45.94875" lon="4.86014">
        <ele>272.600006104</ele>
        <time>2015-12-22T11:52:56.351Z</time>
      </trkpt>
      <trkpt lat="45.94873" lon="4.86007">
        <ele>272.5</ele>
        <time>2015-12-22T11:52:57.373Z</time>
      </trkpt>
      <trkpt lat="45.94871" lon="4.86">
        <ele>272.399993896</ele>
        <time>2015-12-22T11:52:58.351Z</time>
      </trkpt>
      <trkpt lat="45.94869" lon="4.85993">
        <ele>272.200012207</ele>
        <time>2015-12-22T11:52:59.375Z</time>
      </trkpt>
      <trkpt lat="45.94867" lon="4.85987">
        <ele>272</ele>
        <time>2015-12-22T11:53:00.353Z</time>
      </trkpt>
      <trkpt lat="45.94866" lon="4.8598">
        <ele>272.100006104</ele>
        <time>2015-12-22T11:53:01.381Z</time>
      </trkpt>
      <trkpt lat="45.94864" lon="4.85973">
        <ele>272.200012207</ele>
        <time>2015-12-22T11:53:02.351Z</time>
      </trkpt>
      <trkpt lat="45.94863" lon="4.85967">
        <ele>272.299987793</ele>
        <time>2015-12-22T11:53:03.417Z</time>
      </trkpt>
      <trkpt lat="45.94861" lon="4.8596">
        <ele>272.299987793</ele>
        <time>2015-12-22T11:53:04.352Z</time>
      </trkpt>
      <trkpt lat="45.9486" lon="4.85954">
        <ele>272.200012207</ele>
        <time>2015-12-22T11:53:05.371Z</time>
      </trkpt>
      <trkpt lat="45.94858" lon="4.85948">
        <ele>272.299987793</ele>
        <time>2015-12-22T11:53:06.351Z</time>
      </trkpt>
      <trkpt lat="45.94856" lon="4.85941">
        <ele>272.399993896</ele>
        <time>2015-12-22T11:53:07.375Z</time>
      </trkpt>
      <trkpt lat="45.94855" lon="4.85935">
        <ele>272.700012207</ele>
        <time>2015-12-22T11:53:08.352Z</time>
      </trkpt>
      <trkpt lat="45.94853" lon="4.85928">
        <ele>273</ele>
        <time>2015-12-22T11:53:09.377Z</time>
      </trkpt>
      <trkpt lat="45.94852" lon="4.85922">
        <ele>273.200012207</ele>
        <time>2015-12-22T11:53:10.351Z</time>
      </trkpt>
      <trkpt lat="45.9485" lon="4.85916">
        <ele>273.100006104</ele>
        <time>2015-12-22T11:53:11.371Z</time>
      </trkpt>
      <trkpt lat="45.94848" lon="4.8591">
        <ele>273.200012207</ele>
        <time>2015-12-22T11:53:12.351Z</time>
      </trkpt>
      <trkpt lat="45.94846" lon="4.85904">
        <ele>273</ele>
        <time>2015-12-22T11:53:13.381Z</time>
      </trkpt>
      <trkpt lat="45.94845" lon="4.85897">
        <ele>273.100006104</ele>
        <time>2015-12-22T11:53:14.352Z</time>
      </trkpt>
      <trkpt lat="45.94843" lon="4.85891">
        <ele>273.200012207</ele>
        <time>2015-12-22T11:53:15.386Z</time>
      </trkpt>
      <trkpt lat="45.94841" lon="4.85885">
        <ele>273.200012207</ele>
        <time>2015-12-22T11:53:16.351Z</time>
      </trkpt>
      <trkpt lat="45.9484" lon="4.85878">
        <ele>273.299987793</ele>
        <time>2015-12-22T11:53:17.371Z</time>
      </trkpt>
      <trkpt lat="45.94838" lon="4.85872">
        <ele>273.200012207</ele>
        <time>2015-12-22T11:53:18.351Z</time>
      </trkpt>
      <trkpt lat="45.94836" lon="4.85866">
        <ele>273.200012207</ele>
        <time>2015-12-22T11:53:19.38Z</time>
      </trkpt>
      <trkpt lat="45.94834" lon="4.8586">
        <ele>273.399993896</ele>
        <time>2015-12-22T11:53:20.352Z</time>
      </trkpt>
      <trkpt lat="45.94833" lon="4.85854">
        <ele>273.299987793</ele>
        <time>2015-12-22T11:53:21.372Z</time>
      </trkpt>
      <trkpt lat="45.94832" lon="4.85847">
        <ele>273.399993896</ele>
        <time>2015-12-22T11:53:22.351Z</time>
      </trkpt>
      <trkpt lat="45.9483" lon="4.8584">
        <ele>273.399993896</ele>
        <time>2015-12-22T11:53:23.385Z</time>
      </trkpt>
      <trkpt lat="45.94829" lon="4.85834">
        <ele>273.5</ele>
        <time>2015-12-22T11:53:24.351Z</time>
      </trkpt>
      <trkpt lat="45.94827" lon="4.85827">
        <ele>273.299987793</ele>
        <time>2015-12-22T11:53:25.374Z</time>
      </trkpt>
      <trkpt lat="45.94825" lon="4.85821">
        <ele>273.399993896</ele>
        <time>2015-12-22T11:53:26.351Z</time>
      </trkpt>
      <trkpt lat="45.94823" lon="4.85814">
        <ele>273.299987793</ele>
        <time>2015-12-22T11:53:27.372Z</time>
      </trkpt>
      <trkpt lat="45.94821" lon="4.85808">
        <ele>273.399993896</ele>
        <time>2015-12-22T11:53:28.351Z</time>
      </trkpt>
      <trkpt lat="45.94819" lon="4.85801">
        <ele>273.399993896</ele>
        <time>2015-12-22T11:53:29.377Z</time>
      </trkpt>
      <trkpt lat="45.94817" lon="4.85795">
        <ele>273.600006104</ele>
        <time>2015-12-22T11:53:30.351Z</time>
      </trkpt>
      <trkpt lat="45.94815" lon="4.85788">
        <ele>273.700012207</ele>
        <time>2015-12-22T11:53:31.39Z</time>
      </trkpt>
      <trkpt lat="45.94814" lon="4.85782">
        <ele>273.700012207</ele>
        <time>2015-12-22T11:53:32.352Z</time>
      </trkpt>
      <trkpt lat="45.94812" lon="4.85775">
        <ele>273.899993896</ele>
        <time>2015-12-22T11:53:33.371Z</time>
      </trkpt>
      <trkpt lat="45.9481" lon="4.85768">
        <ele>274</ele>
        <time>2015-12-22T11:53:34.351Z</time>
      </trkpt>
      <trkpt lat="45.94808" lon="4.85762">
        <ele>273.799987793</ele>
        <time>2015-12-22T11:53:35.37Z</time>
      </trkpt>
      <trkpt lat="45.94807" lon="4.85755">
        <ele>273.799987793</ele>
        <time>2015-12-22T11:53:36.351Z</time>
      </trkpt>
      <trkpt lat="45.94805" lon="4.85749">
        <ele>273.899993896</ele>
        <time>2015-12-22T11:53:37.374Z</time>
      </trkpt>
      <trkpt lat="45.94804" lon="4.85743">
        <ele>274.399993896</ele>
        <time>2015-12-22T11:53:38.351Z</time>
      </trkpt>
      <trkpt lat="45.948" lon="4.85731">
        <ele>274.700012207</ele>
        <time>2015-12-22T11:53:40.371Z</time>
      </trkpt>
      <trkpt lat="45.94799" lon="4.85725">
        <ele>274.899993896</ele>
        <time>2015-12-22T11:53:41.352Z</time>
      </trkpt>
      <trkpt lat="45.94797" lon="4.85719">
        <ele>275.200012207</ele>
        <time>2015-12-22T11:53:42.372Z</time>
      </trkpt>
      <trkpt lat="45.94795" lon="4.85713">
        <ele>275.200012207</ele>
        <time>2015-12-22T11:53:43.357Z</time>
      </trkpt>
      <trkpt lat="45.94793" lon="4.85706">
        <ele>275.299987793</ele>
        <time>2015-12-22T11:53:44.371Z</time>
      </trkpt>
      <trkpt lat="45.94792" lon="4.857">
        <ele>274.600006104</ele>
        <time>2015-12-22T11:53:45.354Z</time>
      </trkpt>
      <trkpt lat="45.94791" lon="4.85693">
        <ele>274.899993896</ele>
        <time>2015-12-22T11:53:46.408Z</time>
      </trkpt>
      <trkpt lat="45.94789" lon="4.85687">
        <ele>275.100006104</ele>
        <time>2015-12-22T11:53:47.473Z</time>
      </trkpt>
      <trkpt lat="45.94787" lon="4.8568">
        <ele>274.799987793</ele>
        <time>2015-12-22T11:53:48.394Z</time>
      </trkpt>
      <trkpt lat="45.94785" lon="4.85674">
        <ele>274.899993896</ele>
        <time>2015-12-22T11:53:49.365Z</time>
      </trkpt>
      <trkpt lat="45.94783" lon="4.85667">
        <ele>274.799987793</ele>
        <time>2015-12-22T11:53:50.371Z</time>
      </trkpt>
      <trkpt lat="45.94782" lon="4.8566">
        <ele>274.799987793</ele>
        <time>2015-12-22T11:53:51.353Z</time>
      </trkpt>
      <trkpt lat="45.9478" lon="4.85653">
        <ele>275</ele>
        <time>2015-12-22T11:53:52.372Z</time>
      </trkpt>
      <trkpt lat="45.94779" lon="4.85645">
        <ele>274.899993896</ele>
        <time>2015-12-22T11:53:53.355Z</time>
      </trkpt>
      <trkpt lat="45.94777" lon="4.85639">
        <ele>274.899993896</ele>
        <time>2015-12-22T11:53:54.392Z</time>
      </trkpt>
      <trkpt lat="45.94775" lon="4.85631">
        <ele>274.899993896</ele>
        <time>2015-12-22T11:53:55.357Z</time>
      </trkpt>
      <trkpt lat="45.94773" lon="4.85623">
        <ele>274.700012207</ele>
        <time>2015-12-22T11:53:56.375Z</time>
      </trkpt>
      <trkpt lat="45.94772" lon="4.85615">
        <ele>274.799987793</ele>
        <time>2015-12-22T11:53:57.369Z</time>
      </trkpt>
      <trkpt lat="45.9477" lon="4.85607">
        <ele>274.899993896</ele>
        <time>2015-12-22T11:53:58.371Z</time>
      </trkpt>
      <trkpt lat="45.94768" lon="4.85598">
        <ele>274.899993896</ele>
        <time>2015-12-22T11:53:59.356Z</time>
      </trkpt>
      <trkpt lat="45.94767" lon="4.85589">
        <ele>275</ele>
        <time>2015-12-22T11:54:00.373Z</time>
      </trkpt>
      <trkpt lat="45.94765" lon="4.8558">
        <ele>275.100006104</ele>
        <time>2015-12-22T11:54:01.357Z</time>
      </trkpt>
      <trkpt lat="45.94763" lon="4.8557">
        <ele>275.100006104</ele>
        <time>2015-12-22T11:54:02.372Z</time>
      </trkpt>
      <trkpt lat="45.94762" lon="4.8556">
        <ele>274.700012207</ele>
        <time>2015-12-22T11:54:03.354Z</time>
      </trkpt>
      <trkpt lat="45.9476" lon="4.8555">
        <ele>274.700012207</ele>
        <time>2015-12-22T11:54:04.371Z</time>
      </trkpt>
      <trkpt lat="45.94758" lon="4.85539">
        <ele>274.700012207</ele>
        <time>2015-12-22T11:54:05.351Z</time>
      </trkpt>
      <trkpt lat="45.94757" lon="4.85528">
        <ele>274.5</ele>
        <time>2015-12-22T11:54:06.371Z</time>
      </trkpt>
      <trkpt lat="45.94755" lon="4.85516">
        <ele>274.200012207</ele>
        <time>2015-12-22T11:54:07.359Z</time>
      </trkpt>
      <trkpt lat="45.94753" lon="4.85504">
        <ele>273.799987793</ele>
        <time>2015-12-22T11:54:08.372Z</time>
      </trkpt>
      <trkpt lat="45.94752" lon="4.85492">
        <ele>273.600006104</ele>
        <time>2015-12-22T11:54:09.359Z</time>
      </trkpt>
      <trkpt lat="45.9475" lon="4.85479">
        <ele>273</ele>
        <time>2015-12-22T11:54:10.51Z</time>
      </trkpt>
      <trkpt lat="45.94748" lon="4.85467">
        <ele>272.5</ele>
        <time>2015-12-22T11:54:11.352Z</time>
      </trkpt>
      <trkpt lat="45.94748" lon="4.85467">
        <ele>272.5</ele>
        <time>2015-12-22T11:54:11.373Z</time>
      </trkpt>
      <trkpt lat="45.94747" lon="4.85454">
        <ele>272</ele>
        <time>2015-12-22T11:54:12.352Z</time>
      </trkpt>
      <trkpt lat="45.94747" lon="4.85454">
        <ele>272</ele>
        <time>2015-12-22T11:54:12.376Z</time>
      </trkpt>
      <trkpt lat="45.94746" lon="4.85441">
        <ele>271.700012207</ele>
        <time>2015-12-22T11:54:13.357Z</time>
      </trkpt>
      <trkpt lat="45.94746" lon="4.85441">
        <ele>271.700012207</ele>
        <time>2015-12-22T11:54:13.39Z</time>
      </trkpt>
      <trkpt lat="45.94744" lon="4.85428">
        <ele>271.5</ele>
        <time>2015-12-22T11:54:14.352Z</time>
      </trkpt>
      <trkpt lat="45.94744" lon="4.85428">
        <ele>271.5</ele>
        <time>2015-12-22T11:54:14.372Z</time>
      </trkpt>
      <trkpt lat="45.94743" lon="4.85415">
        <ele>271.299987793</ele>
        <time>2015-12-22T11:54:15.398Z</time>
      </trkpt>
      <trkpt lat="45.94743" lon="4.85415">
        <ele>271.299987793</ele>
        <time>2015-12-22T11:54:15.417Z</time>
      </trkpt>
      <trkpt lat="45.94741" lon="4.85402">
        <ele>271.200012207</ele>
        <time>2015-12-22T11:54:16.351Z</time>
      </trkpt>
      <trkpt lat="45.9474" lon="4.8539">
        <ele>271.200012207</ele>
        <time>2015-12-22T11:54:17.372Z</time>
      </trkpt>
      <trkpt lat="45.94738" lon="4.85378">
        <ele>270.899993896</ele>
        <time>2015-12-22T11:54:18.367Z</time>
      </trkpt>
      <trkpt lat="45.94737" lon="4.85366">
        <ele>270.200012207</ele>
        <time>2015-12-22T11:54:19.383Z</time>
      </trkpt>
      <trkpt lat="45.94735" lon="4.85354">
        <ele>269.299987793</ele>
        <time>2015-12-22T11:54:20.351Z</time>
      </trkpt>
      <trkpt lat="45.94734" lon="4.85342">
        <ele>269.399993896</ele>
        <time>2015-12-22T11:54:21.373Z</time>
      </trkpt>
      <trkpt lat="45.94733" lon="4.85331">
        <ele>269.5</ele>
        <time>2015-12-22T11:54:22.357Z</time>
      </trkpt>
      <trkpt lat="45.94732" lon="4.8532">
        <ele>269</ele>
        <time>2015-12-22T11:54:23.384Z</time>
      </trkpt>
      <trkpt lat="45.94731" lon="4.8531">
        <ele>268.399993896</ele>
        <time>2015-12-22T11:54:24.352Z</time>
      </trkpt>
      <trkpt lat="45.9473" lon="4.85299">
        <ele>268.100006104</ele>
        <time>2015-12-22T11:54:25.376Z</time>
      </trkpt>
      <trkpt lat="45.94728" lon="4.85289">
        <ele>268.100006104</ele>
        <time>2015-12-22T11:54:26.351Z</time>
      </trkpt>
      <trkpt lat="45.94728" lon="4.85279">
        <ele>268.100006104</ele>
        <time>2015-12-22T11:54:27.372Z</time>
      </trkpt>
      <trkpt lat="45.94727" lon="4.85269">
        <ele>267.799987793</ele>
        <time>2015-12-22T11:54:28.351Z</time>
      </trkpt>
      <trkpt lat="45.94726" lon="4.85259">
        <ele>267.5</ele>
        <time>2015-12-22T11:54:29.382Z</time>
      </trkpt>
      <trkpt lat="45.94725" lon="4.85249">
        <ele>267.299987793</ele>
        <time>2015-12-22T11:54:30.351Z</time>
      </trkpt>
      <trkpt lat="45.94723" lon="4.85239">
        <ele>267.200012207</ele>
        <time>2015-12-22T11:54:31.375Z</time>
      </trkpt>
      <trkpt lat="45.94722" lon="4.85228">
        <ele>267</ele>
        <time>2015-12-22T11:54:32.355Z</time>
      </trkpt>
      <trkpt lat="45.94721" lon="4.85219">
        <ele>266.600006104</ele>
        <time>2015-12-22T11:54:33.373Z</time>
      </trkpt>
      <trkpt lat="45.9472" lon="4.85209">
        <ele>266.299987793</ele>
        <time>2015-12-22T11:54:34.352Z</time>
      </trkpt>
      <trkpt lat="45.94719" lon="4.852">
        <ele>265.899993896</ele>
        <time>2015-12-22T11:54:35.371Z</time>
      </trkpt>
      <trkpt lat="45.94718" lon="4.8519">
        <ele>265.700012207</ele>
        <time>2015-12-22T11:54:36.352Z</time>
      </trkpt>
      <trkpt lat="45.94717" lon="4.85181">
        <ele>265.700012207</ele>
        <time>2015-12-22T11:54:37.376Z</time>
      </trkpt>
      <trkpt lat="45.94716" lon="4.85171">
        <ele>265.600006104</ele>
        <time>2015-12-22T11:54:38.352Z</time>
      </trkpt>
      <trkpt lat="45.94715" lon="4.85162">
        <ele>265.5</ele>
        <time>2015-12-22T11:54:39.407Z</time>
      </trkpt>
      <trkpt lat="45.94714" lon="4.85153">
        <ele>265.399993896</ele>
        <time>2015-12-22T11:54:40.352Z</time>
      </trkpt>
      <trkpt lat="45.94713" lon="4.85143">
        <ele>265.5</ele>
        <time>2015-12-22T11:54:41.372Z</time>
      </trkpt>
      <trkpt lat="45.94712" lon="4.85134">
        <ele>265.5</ele>
        <time>2015-12-22T11:54:42.352Z</time>
      </trkpt>
      <trkpt lat="45.94711" lon="4.85125">
        <ele>265.5</ele>
        <time>2015-12-22T11:54:43.375Z</time>
      </trkpt>
      <trkpt lat="45.9471" lon="4.85115">
        <ele>265.600006104</ele>
        <time>2015-12-22T11:54:44.351Z</time>
      </trkpt>
      <trkpt lat="45.94709" lon="4.85106">
        <ele>265.600006104</ele>
        <time>2015-12-22T11:54:45.373Z</time>
      </trkpt>
      <trkpt lat="45.94708" lon="4.85097">
        <ele>265.799987793</ele>
        <time>2015-12-22T11:54:46.352Z</time>
      </trkpt>
      <trkpt lat="45.94707" lon="4.85088">
        <ele>265.899993896</ele>
        <time>2015-12-22T11:54:47.371Z</time>
      </trkpt>
      <trkpt lat="45.94706" lon="4.85079">
        <ele>266.100006104</ele>
        <time>2015-12-22T11:54:48.355Z</time>
      </trkpt>
      <trkpt lat="45.94705" lon="4.8507">
        <ele>266</ele>
        <time>2015-12-22T11:54:49.394Z</time>
      </trkpt>
      <trkpt lat="45.94704" lon="4.85061">
        <ele>265.899993896</ele>
        <time>2015-12-22T11:54:50.351Z</time>
      </trkpt>
      <trkpt lat="45.94703" lon="4.85051">
        <ele>265.799987793</ele>
        <time>2015-12-22T11:54:51.372Z</time>
      </trkpt>
      <trkpt lat="45.94702" lon="4.85042">
        <ele>265.799987793</ele>
        <time>2015-12-22T11:54:52.352Z</time>
      </trkpt>
      <trkpt lat="45.94701" lon="4.85033">
        <ele>266.100006104</ele>
        <time>2015-12-22T11:54:53.371Z</time>
      </trkpt>
      <trkpt lat="45.947" lon="4.85023">
        <ele>266.299987793</ele>
        <time>2015-12-22T11:54:54.351Z</time>
      </trkpt>
      <trkpt lat="45.94699" lon="4.85014">
        <ele>266.5</ele>
        <time>2015-12-22T11:54:55.389Z</time>
      </trkpt>
      <trkpt lat="45.94699" lon="4.85005">
        <ele>266.600006104</ele>
        <time>2015-12-22T11:54:56.345Z</time>
      </trkpt>
      <trkpt lat="45.94698" lon="4.84995">
        <ele>266.299987793</ele>
        <time>2015-12-22T11:54:57.372Z</time>
      </trkpt>
      <trkpt lat="45.94697" lon="4.84987">
        <ele>266.200012207</ele>
        <time>2015-12-22T11:54:58.352Z</time>
      </trkpt>
      <trkpt lat="45.94695" lon="4.84979">
        <ele>266.299987793</ele>
        <time>2015-12-22T11:54:59.386Z</time>
      </trkpt>
      <trkpt lat="45.94695" lon="4.84971">
        <ele>266.399993896</ele>
        <time>2015-12-22T11:55:00.353Z</time>
      </trkpt>
      <trkpt lat="45.94694" lon="4.84962">
        <ele>266.799987793</ele>
        <time>2015-12-22T11:55:01.383Z</time>
      </trkpt>
      <trkpt lat="45.94693" lon="4.84954">
        <ele>266.700012207</ele>
        <time>2015-12-22T11:55:02.489Z</time>
      </trkpt>
      <trkpt lat="45.94692" lon="4.84945">
        <ele>266.899993896</ele>
        <time>2015-12-22T11:55:03.372Z</time>
      </trkpt>
      <trkpt lat="45.94691" lon="4.84937">
        <ele>267</ele>
        <time>2015-12-22T11:55:04.353Z</time>
      </trkpt>
      <trkpt lat="45.9469" lon="4.84928">
        <ele>267</ele>
        <time>2015-12-22T11:55:05.371Z</time>
      </trkpt>
      <trkpt lat="45.94689" lon="4.8492">
        <ele>266.600006104</ele>
        <time>2015-12-22T11:55:06.351Z</time>
      </trkpt>
      <trkpt lat="45.94688" lon="4.84911">
        <ele>266.600006104</ele>
        <time>2015-12-22T11:55:07.511Z</time>
      </trkpt>
      <trkpt lat="45.94687" lon="4.84903">
        <ele>266.799987793</ele>
        <time>2015-12-22T11:55:08.352Z</time>
      </trkpt>
      <trkpt lat="45.94686" lon="4.84894">
        <ele>266.799987793</ele>
        <time>2015-12-22T11:55:09.388Z</time>
      </trkpt>
      <trkpt lat="45.94685" lon="4.84885">
        <ele>267.200012207</ele>
        <time>2015-12-22T11:55:10.352Z</time>
      </trkpt>
      <trkpt lat="45.94685" lon="4.84876">
        <ele>267.399993896</ele>
        <time>2015-12-22T11:55:11.371Z</time>
      </trkpt>
      <trkpt lat="45.94683" lon="4.84868">
        <ele>267.5</ele>
        <time>2015-12-22T11:55:12.352Z</time>
      </trkpt>
      <trkpt lat="45.94683" lon="4.84859">
        <ele>267.200012207</ele>
        <time>2015-12-22T11:55:13.374Z</time>
      </trkpt>
      <trkpt lat="45.94682" lon="4.8485">
        <ele>266.899993896</ele>
        <time>2015-12-22T11:55:14.355Z</time>
      </trkpt>
      <trkpt lat="45.94681" lon="4.84842">
        <ele>266.799987793</ele>
        <time>2015-12-22T11:55:15.379Z</time>
      </trkpt>
      <trkpt lat="45.9468" lon="4.84834">
        <ele>266.799987793</ele>
        <time>2015-12-22T11:55:16.353Z</time>
      </trkpt>
      <trkpt lat="45.9468" lon="4.84826">
        <ele>266.700012207</ele>
        <time>2015-12-22T11:55:17.392Z</time>
      </trkpt>
      <trkpt lat="45.94679" lon="4.84818">
        <ele>266.700012207</ele>
        <time>2015-12-22T11:55:18.351Z</time>
      </trkpt>
      <trkpt lat="45.94679" lon="4.8481">
        <ele>266.5</ele>
        <time>2015-12-22T11:55:19.431Z</time>
      </trkpt>
      <trkpt lat="45.94678" lon="4.84802">
        <ele>266.600006104</ele>
        <time>2015-12-22T11:55:20.352Z</time>
      </trkpt>
      <trkpt lat="45.94678" lon="4.84794">
        <ele>266.600006104</ele>
        <time>2015-12-22T11:55:21.373Z</time>
      </trkpt>
      <trkpt lat="45.94677" lon="4.84785">
        <ele>266.600006104</ele>
        <time>2015-12-22T11:55:22.352Z</time>
      </trkpt>
      <trkpt lat="45.94677" lon="4.84777">
        <ele>266.700012207</ele>
        <time>2015-12-22T11:55:23.372Z</time>
      </trkpt>
      <trkpt lat="45.94676" lon="4.84768">
        <ele>266.700012207</ele>
        <time>2015-12-22T11:55:24.352Z</time>
      </trkpt>
      <trkpt lat="45.94675" lon="4.84759">
        <ele>266.600006104</ele>
        <time>2015-12-22T11:55:25.375Z</time>
      </trkpt>
      <trkpt lat="45.94675" lon="4.8475">
        <ele>266.299987793</ele>
        <time>2015-12-22T11:55:26.352Z</time>
      </trkpt>
      <trkpt lat="45.94674" lon="4.84742">
        <ele>265.799987793</ele>
        <time>2015-12-22T11:55:27.385Z</time>
      </trkpt>
      <trkpt lat="45.94673" lon="4.84734">
        <ele>266</ele>
        <time>2015-12-22T11:55:28.352Z</time>
      </trkpt>
      <trkpt lat="45.94673" lon="4.84726">
        <ele>266.399993896</ele>
        <time>2015-12-22T11:55:29.386Z</time>
      </trkpt>
      <trkpt lat="45.94673" lon="4.84717">
        <ele>266.600006104</ele>
        <time>2015-12-22T11:55:30.352Z</time>
      </trkpt>
      <trkpt lat="45.94672" lon="4.84708">
        <ele>266.600006104</ele>
        <time>2015-12-22T11:55:31.393Z</time>
      </trkpt>
      <trkpt lat="45.94672" lon="4.847">
        <ele>266.700012207</ele>
        <time>2015-12-22T11:55:32.353Z</time>
      </trkpt>
      <trkpt lat="45.94671" lon="4.8469">
        <ele>266.700012207</ele>
        <time>2015-12-22T11:55:33.386Z</time>
      </trkpt>
      <trkpt lat="45.94671" lon="4.84681">
        <ele>266.5</ele>
        <time>2015-12-22T11:55:34.352Z</time>
      </trkpt>
      <trkpt lat="45.94671" lon="4.84672">
        <ele>266.399993896</ele>
        <time>2015-12-22T11:55:35.371Z</time>
      </trkpt>
      <trkpt lat="45.94671" lon="4.84663">
        <ele>266.200012207</ele>
        <time>2015-12-22T11:55:36.352Z</time>
      </trkpt>
      <trkpt lat="45.94671" lon="4.84655">
        <ele>266</ele>
        <time>2015-12-22T11:55:37.375Z</time>
      </trkpt>
      <trkpt lat="45.9467" lon="4.84647">
        <ele>265.5</ele>
        <time>2015-12-22T11:55:38.351Z</time>
      </trkpt>
      <trkpt lat="45.9467" lon="4.84639">
        <ele>265.399993896</ele>
        <time>2015-12-22T11:55:39.393Z</time>
      </trkpt>
      <trkpt lat="45.94669" lon="4.84632">
        <ele>265.700012207</ele>
        <time>2015-12-22T11:55:40.356Z</time>
      </trkpt>
      <trkpt lat="45.94668" lon="4.84624">
        <ele>265.5</ele>
        <time>2015-12-22T11:55:41.373Z</time>
      </trkpt>
      <trkpt lat="45.94668" lon="4.84617">
        <ele>265.600006104</ele>
        <time>2015-12-22T11:55:42.377Z</time>
      </trkpt>
      <trkpt lat="45.94668" lon="4.84608">
        <ele>265.600006104</ele>
        <time>2015-12-22T11:55:43.389Z</time>
      </trkpt>
      <trkpt lat="45.94667" lon="4.846">
        <ele>265.700012207</ele>
        <time>2015-12-22T11:55:44.352Z</time>
      </trkpt>
      <trkpt lat="45.94667" lon="4.84592">
        <ele>265.899993896</ele>
        <time>2015-12-22T11:55:45.378Z</time>
      </trkpt>
      <trkpt lat="45.94667" lon="4.84583">
        <ele>266</ele>
        <time>2015-12-22T11:55:46.353Z</time>
      </trkpt>
      <trkpt lat="45.94666" lon="4.84575">
        <ele>266.399993896</ele>
        <time>2015-12-22T11:55:47.372Z</time>
      </trkpt>
      <trkpt lat="45.94666" lon="4.84567">
        <ele>266.5</ele>
        <time>2015-12-22T11:55:48.351Z</time>
      </trkpt>
      <trkpt lat="45.94665" lon="4.84559">
        <ele>266.5</ele>
        <time>2015-12-22T11:55:49.401Z</time>
      </trkpt>
      <trkpt lat="45.94664" lon="4.8455">
        <ele>266.5</ele>
        <time>2015-12-22T11:55:50.351Z</time>
      </trkpt>
      <trkpt lat="45.94664" lon="4.84542">
        <ele>266.600006104</ele>
        <time>2015-12-22T11:55:51.392Z</time>
      </trkpt>
      <trkpt lat="45.94663" lon="4.84533">
        <ele>266.5</ele>
        <time>2015-12-22T11:55:52.367Z</time>
      </trkpt>
      <trkpt lat="45.94662" lon="4.84525">
        <ele>266.700012207</ele>
        <time>2015-12-22T11:55:53.371Z</time>
      </trkpt>
      <trkpt lat="45.94661" lon="4.84517">
        <ele>266.700012207</ele>
        <time>2015-12-22T11:55:54.352Z</time>
      </trkpt>
      <trkpt lat="45.94661" lon="4.84508">
        <ele>266.700012207</ele>
        <time>2015-12-22T11:55:55.374Z</time>
      </trkpt>
      <trkpt lat="45.9466" lon="4.84501">
        <ele>266.899993896</ele>
        <time>2015-12-22T11:55:56.352Z</time>
      </trkpt>
      <trkpt lat="45.94659" lon="4.84493">
        <ele>267</ele>
        <time>2015-12-22T11:55:57.374Z</time>
      </trkpt>
      <trkpt lat="45.94658" lon="4.84486">
        <ele>267</ele>
        <time>2015-12-22T11:55:58.352Z</time>
      </trkpt>
      <trkpt lat="45.94657" lon="4.84479">
        <ele>266.600006104</ele>
        <time>2015-12-22T11:55:59.39Z</time>
      </trkpt>
      <trkpt lat="45.94656" lon="4.84472">
        <ele>266.5</ele>
        <time>2015-12-22T11:56:00.353Z</time>
      </trkpt>
      <trkpt lat="45.94655" lon="4.84465">
        <ele>266.799987793</ele>
        <time>2015-12-22T11:56:01.375Z</time>
      </trkpt>
      <trkpt lat="45.94655" lon="4.84458">
        <ele>267</ele>
        <time>2015-12-22T11:56:02.422Z</time>
      </trkpt>
      <trkpt lat="45.94654" lon="4.8445">
        <ele>267.100006104</ele>
        <time>2015-12-22T11:56:03.372Z</time>
      </trkpt>
      <trkpt lat="45.94653" lon="4.84443">
        <ele>267.200012207</ele>
        <time>2015-12-22T11:56:04.352Z</time>
      </trkpt>
      <trkpt lat="45.94653" lon="4.84435">
        <ele>267.5</ele>
        <time>2015-12-22T11:56:05.371Z</time>
      </trkpt>
      <trkpt lat="45.94652" lon="4.84427">
        <ele>267.600006104</ele>
        <time>2015-12-22T11:56:06.355Z</time>
      </trkpt>
      <trkpt lat="45.94652" lon="4.84418">
        <ele>267.799987793</ele>
        <time>2015-12-22T11:56:07.376Z</time>
      </trkpt>
      <trkpt lat="45.94651" lon="4.8441">
        <ele>268</ele>
        <time>2015-12-22T11:56:08.351Z</time>
      </trkpt>
      <trkpt lat="45.9465" lon="4.84402">
        <ele>268.200012207</ele>
        <time>2015-12-22T11:56:09.393Z</time>
      </trkpt>
      <trkpt lat="45.94649" lon="4.84394">
        <ele>268.600006104</ele>
        <time>2015-12-22T11:56:10.351Z</time>
      </trkpt>
      <trkpt lat="45.94648" lon="4.84385">
        <ele>268.600006104</ele>
        <time>2015-12-22T11:56:11.371Z</time>
      </trkpt>
      <trkpt lat="45.94647" lon="4.84376">
        <ele>268.600006104</ele>
        <time>2015-12-22T11:56:12.353Z</time>
      </trkpt>
      <trkpt lat="45.94646" lon="4.84368">
        <ele>268.700012207</ele>
        <time>2015-12-22T11:56:13.392Z</time>
      </trkpt>
      <trkpt lat="45.94645" lon="4.8436">
        <ele>268.299987793</ele>
        <time>2015-12-22T11:56:14.351Z</time>
      </trkpt>
      <trkpt lat="45.94644" lon="4.84352">
        <ele>268</ele>
        <time>2015-12-22T11:56:15.371Z</time>
      </trkpt>
      <trkpt lat="45.94643" lon="4.84345">
        <ele>268</ele>
        <time>2015-12-22T11:56:16.352Z</time>
      </trkpt>
      <trkpt lat="45.94642" lon="4.84338">
        <ele>267.899993896</ele>
        <time>2015-12-22T11:56:17.372Z</time>
      </trkpt>
      <trkpt lat="45.94641" lon="4.8433">
        <ele>267.799987793</ele>
        <time>2015-12-22T11:56:18.351Z</time>
      </trkpt>
      <trkpt lat="45.9464" lon="4.84322">
        <ele>268</ele>
        <time>2015-12-22T11:56:19.401Z</time>
      </trkpt>
      <trkpt lat="45.94639" lon="4.84314">
        <ele>267.899993896</ele>
        <time>2015-12-22T11:56:20.351Z</time>
      </trkpt>
      <trkpt lat="45.94638" lon="4.84306">
        <ele>267.899993896</ele>
        <time>2015-12-22T11:56:21.372Z</time>
      </trkpt>
      <trkpt lat="45.94638" lon="4.84298">
        <ele>268</ele>
        <time>2015-12-22T11:56:22.351Z</time>
      </trkpt>
      <trkpt lat="45.94637" lon="4.84289">
        <ele>268.100006104</ele>
        <time>2015-12-22T11:56:23.37Z</time>
      </trkpt>
      <trkpt lat="45.94636" lon="4.84281">
        <ele>268.200012207</ele>
        <time>2015-12-22T11:56:24.351Z</time>
      </trkpt>
      <trkpt lat="45.94635" lon="4.84272">
        <ele>268.5</ele>
        <time>2015-12-22T11:56:25.375Z</time>
      </trkpt>
      <trkpt lat="45.94633" lon="4.84264">
        <ele>268.5</ele>
        <time>2015-12-22T11:56:26.351Z</time>
      </trkpt>
      <trkpt lat="45.94632" lon="4.84255">
        <ele>268.5</ele>
        <time>2015-12-22T11:56:27.372Z</time>
      </trkpt>
      <trkpt lat="45.94631" lon="4.84246">
        <ele>268.200012207</ele>
        <time>2015-12-22T11:56:28.351Z</time>
      </trkpt>
      <trkpt lat="45.9463" lon="4.84238">
        <ele>268.100006104</ele>
        <time>2015-12-22T11:56:29.454Z</time>
      </trkpt>
      <trkpt lat="45.94628" lon="4.84229">
        <ele>268.200012207</ele>
        <time>2015-12-22T11:56:30.351Z</time>
      </trkpt>
      <trkpt lat="45.94627" lon="4.8422">
        <ele>267.799987793</ele>
        <time>2015-12-22T11:56:31.375Z</time>
      </trkpt>
      <trkpt lat="45.94626" lon="4.84211">
        <ele>267.600006104</ele>
        <time>2015-12-22T11:56:32.357Z</time>
      </trkpt>
      <trkpt lat="45.94624" lon="4.84202">
        <ele>267.600006104</ele>
        <time>2015-12-22T11:56:33.373Z</time>
      </trkpt>
      <trkpt lat="45.94623" lon="4.84194">
        <ele>267.399993896</ele>
        <time>2015-12-22T11:56:34.35Z</time>
      </trkpt>
      <trkpt lat="45.94622" lon="4.84185">
        <ele>267.399993896</ele>
        <time>2015-12-22T11:56:35.371Z</time>
      </trkpt>
      <trkpt lat="45.94621" lon="4.84176">
        <ele>267.600006104</ele>
        <time>2015-12-22T11:56:36.351Z</time>
      </trkpt>
      <trkpt lat="45.9462" lon="4.84167">
        <ele>267.5</ele>
        <time>2015-12-22T11:56:37.377Z</time>
      </trkpt>
      <trkpt lat="45.94618" lon="4.84158">
        <ele>267.399993896</ele>
        <time>2015-12-22T11:56:38.35Z</time>
      </trkpt>
      <trkpt lat="45.94617" lon="4.84149">
        <ele>267.100006104</ele>
        <time>2015-12-22T11:56:39.4Z</time>
      </trkpt>
      <trkpt lat="45.94616" lon="4.8414">
        <ele>266.600006104</ele>
        <time>2015-12-22T11:56:40.351Z</time>
      </trkpt>
      <trkpt lat="45.94614" lon="4.84131">
        <ele>266.600006104</ele>
        <time>2015-12-22T11:56:41.371Z</time>
      </trkpt>
      <trkpt lat="45.94613" lon="4.84122">
        <ele>266.700012207</ele>
        <time>2015-12-22T11:56:42.352Z</time>
      </trkpt>
      <trkpt lat="45.94611" lon="4.84113">
        <ele>266.600006104</ele>
        <time>2015-12-22T11:56:43.375Z</time>
      </trkpt>
      <trkpt lat="45.9461" lon="4.84105">
        <ele>266.5</ele>
        <time>2015-12-22T11:56:44.351Z</time>
      </trkpt>
      <trkpt lat="45.94608" lon="4.84096">
        <ele>266.399993896</ele>
        <time>2015-12-22T11:56:45.371Z</time>
      </trkpt>
      <trkpt lat="45.94607" lon="4.84087">
        <ele>266.200012207</ele>
        <time>2015-12-22T11:56:46.351Z</time>
      </trkpt>
      <trkpt lat="45.94605" lon="4.84078">
        <ele>265.899993896</ele>
        <time>2015-12-22T11:56:47.391Z</time>
      </trkpt>
      <trkpt lat="45.94604" lon="4.84069">
        <ele>266</ele>
        <time>2015-12-22T11:56:48.351Z</time>
      </trkpt>
      <trkpt lat="45.94602" lon="4.8406">
        <ele>265.899993896</ele>
        <time>2015-12-22T11:56:49.403Z</time>
      </trkpt>
      <trkpt lat="45.94601" lon="4.84051">
        <ele>265.799987793</ele>
        <time>2015-12-22T11:56:50.367Z</time>
      </trkpt>
      <trkpt lat="45.94599" lon="4.84042">
        <ele>265.399993896</ele>
        <time>2015-12-22T11:56:51.504Z</time>
      </trkpt>
      <trkpt lat="45.94598" lon="4.84034">
        <ele>265.5</ele>
        <time>2015-12-22T11:56:52.351Z</time>
      </trkpt>
      <trkpt lat="45.94597" lon="4.84026">
        <ele>265.600006104</ele>
        <time>2015-12-22T11:56:53.371Z</time>
      </trkpt>
      <trkpt lat="45.94596" lon="4.84018">
        <ele>265.5</ele>
        <time>2015-12-22T11:56:54.351Z</time>
      </trkpt>
      <trkpt lat="45.94595" lon="4.8401">
        <ele>265.299987793</ele>
        <time>2015-12-22T11:56:55.374Z</time>
      </trkpt>
      <trkpt lat="45.94594" lon="4.84002">
        <ele>265.100006104</ele>
        <time>2015-12-22T11:56:56.351Z</time>
      </trkpt>
      <trkpt lat="45.94593" lon="4.83995">
        <ele>265.299987793</ele>
        <time>2015-12-22T11:56:57.372Z</time>
      </trkpt>
      <trkpt lat="45.94591" lon="4.83987">
        <ele>265.399993896</ele>
        <time>2015-12-22T11:56:58.356Z</time>
      </trkpt>
      <trkpt lat="45.9459" lon="4.83979">
        <ele>265.5</ele>
        <time>2015-12-22T11:56:59.403Z</time>
      </trkpt>
      <trkpt lat="45.94588" lon="4.83971">
        <ele>265.5</ele>
        <time>2015-12-22T11:57:00.351Z</time>
      </trkpt>
      <trkpt lat="45.94587" lon="4.83962">
        <ele>265.299987793</ele>
        <time>2015-12-22T11:57:01.38Z</time>
      </trkpt>
      <trkpt lat="45.94585" lon="4.83953">
        <ele>265</ele>
        <time>2015-12-22T11:57:02.351Z</time>
      </trkpt>
      <trkpt lat="45.94584" lon="4.83944">
        <ele>265</ele>
        <time>2015-12-22T11:57:03.373Z</time>
      </trkpt>
      <trkpt lat="45.94582" lon="4.83935">
        <ele>264.899993896</ele>
        <time>2015-12-22T11:57:04.351Z</time>
      </trkpt>
      <trkpt lat="45.94581" lon="4.83925">
        <ele>264.5</ele>
        <time>2015-12-22T11:57:05.372Z</time>
      </trkpt>
      <trkpt lat="45.94579" lon="4.83915">
        <ele>264.200012207</ele>
        <time>2015-12-22T11:57:06.351Z</time>
      </trkpt>
      <trkpt lat="45.94577" lon="4.83905">
        <ele>263.899993896</ele>
        <time>2015-12-22T11:57:07.375Z</time>
      </trkpt>
      <trkpt lat="45.94575" lon="4.83895">
        <ele>263.5</ele>
        <time>2015-12-22T11:57:08.351Z</time>
      </trkpt>
      <trkpt lat="45.94573" lon="4.83885">
        <ele>263</ele>
        <time>2015-12-22T11:57:09.376Z</time>
      </trkpt>
      <trkpt lat="45.94571" lon="4.83875">
        <ele>262.399993896</ele>
        <time>2015-12-22T11:57:10.356Z</time>
      </trkpt>
      <trkpt lat="45.94569" lon="4.83865">
        <ele>261.899993896</ele>
        <time>2015-12-22T11:57:11.386Z</time>
      </trkpt>
      <trkpt lat="45.94568" lon="4.83854">
        <ele>261.399993896</ele>
        <time>2015-12-22T11:57:12.355Z</time>
      </trkpt>
      <trkpt lat="45.94566" lon="4.83843">
        <ele>260.600006104</ele>
        <time>2015-12-22T11:57:13.375Z</time>
      </trkpt>
      <trkpt lat="45.94565" lon="4.83832">
        <ele>260</ele>
        <time>2015-12-22T11:57:14.354Z</time>
      </trkpt>
      <trkpt lat="45.94563" lon="4.83821">
        <ele>259.200012207</ele>
        <time>2015-12-22T11:57:15.386Z</time>
      </trkpt>
      <trkpt lat="45.94561" lon="4.8381">
        <ele>258.700012207</ele>
        <time>2015-12-22T11:57:16.351Z</time>
      </trkpt>
      <trkpt lat="45.9456" lon="4.83799">
        <ele>258.5</ele>
        <time>2015-12-22T11:57:17.371Z</time>
      </trkpt>
      <trkpt lat="45.94558" lon="4.83788">
        <ele>258.200012207</ele>
        <time>2015-12-22T11:57:18.351Z</time>
      </trkpt>
      <trkpt lat="45.94556" lon="4.83777">
        <ele>258</ele>
        <time>2015-12-22T11:57:19.4Z</time>
      </trkpt>
      <trkpt lat="45.94555" lon="4.83766">
        <ele>257.799987793</ele>
        <time>2015-12-22T11:57:20.351Z</time>
      </trkpt>
      <trkpt lat="45.94553" lon="4.83756">
        <ele>257.600006104</ele>
        <time>2015-12-22T11:57:21.373Z</time>
      </trkpt>
      <trkpt lat="45.94552" lon="4.83746">
        <ele>257.299987793</ele>
        <time>2015-12-22T11:57:22.35Z</time>
      </trkpt>
      <trkpt lat="45.9455" lon="4.83736">
        <ele>257.200012207</ele>
        <time>2015-12-22T11:57:23.37Z</time>
      </trkpt>
      <trkpt lat="45.94549" lon="4.83726">
        <ele>257</ele>
        <time>2015-12-22T11:57:24.352Z</time>
      </trkpt>
      <trkpt lat="45.94547" lon="4.83717">
        <ele>256.5</ele>
        <time>2015-12-22T11:57:25.375Z</time>
      </trkpt>
      <trkpt lat="45.94545" lon="4.83707">
        <ele>256.399993896</ele>
        <time>2015-12-22T11:57:26.399Z</time>
      </trkpt>
      <trkpt lat="45.94544" lon="4.83698">
        <ele>256.299987793</ele>
        <time>2015-12-22T11:57:27.372Z</time>
      </trkpt>
      <trkpt lat="45.94542" lon="4.8369">
        <ele>256.200012207</ele>
        <time>2015-12-22T11:57:28.351Z</time>
      </trkpt>
      <trkpt lat="45.94541" lon="4.83681">
        <ele>256.200012207</ele>
        <time>2015-12-22T11:57:29.395Z</time>
      </trkpt>
      <trkpt lat="45.9454" lon="4.83672">
        <ele>256.299987793</ele>
        <time>2015-12-22T11:57:30.351Z</time>
      </trkpt>
      <trkpt lat="45.94539" lon="4.83665">
        <ele>256.100006104</ele>
        <time>2015-12-22T11:57:31.376Z</time>
      </trkpt>
      <trkpt lat="45.94538" lon="4.83656">
        <ele>255.899993896</ele>
        <time>2015-12-22T11:57:32.39Z</time>
      </trkpt>
      <trkpt lat="45.94536" lon="4.83648">
        <ele>255.899993896</ele>
        <time>2015-12-22T11:57:33.373Z</time>
      </trkpt>
      <trkpt lat="45.94535" lon="4.8364">
        <ele>255.800003052</ele>
        <time>2015-12-22T11:57:34.355Z</time>
      </trkpt>
      <trkpt lat="45.94533" lon="4.83632">
        <ele>255.899993896</ele>
        <time>2015-12-22T11:57:35.375Z</time>
      </trkpt>
      <trkpt lat="45.94532" lon="4.83623">
        <ele>255.899993896</ele>
        <time>2015-12-22T11:57:36.35Z</time>
      </trkpt>
      <trkpt lat="45.9453" lon="4.83615">
        <ele>256</ele>
        <time>2015-12-22T11:57:37.467Z</time>
      </trkpt>
      <trkpt lat="45.94528" lon="4.83606">
        <ele>255.899993896</ele>
        <time>2015-12-22T11:57:38.351Z</time>
      </trkpt>
      <trkpt lat="45.94527" lon="4.83598">
        <ele>255.699996948</ele>
        <time>2015-12-22T11:57:39.436Z</time>
      </trkpt>
      <trkpt lat="45.94524" lon="4.83589">
        <ele>255.5</ele>
        <time>2015-12-22T11:57:40.351Z</time>
      </trkpt>
      <trkpt lat="45.94522" lon="4.83581">
        <ele>255.199996948</ele>
        <time>2015-12-22T11:57:41.37Z</time>
      </trkpt>
      <trkpt lat="45.94519" lon="4.83573">
        <ele>255</ele>
        <time>2015-12-22T11:57:42.354Z</time>
      </trkpt>
      <trkpt lat="45.94516" lon="4.83565">
        <ele>255</ele>
        <time>2015-12-22T11:57:43.374Z</time>
      </trkpt>
      <trkpt lat="45.94513" lon="4.83558">
        <ele>254.899993896</ele>
        <time>2015-12-22T11:57:44.351Z</time>
      </trkpt>
      <trkpt lat="45.94509" lon="4.83551">
        <ele>254.699996948</ele>
        <time>2015-12-22T11:57:45.371Z</time>
      </trkpt>
      <trkpt lat="45.94505" lon="4.83544">
        <ele>254.399993896</ele>
        <time>2015-12-22T11:57:46.351Z</time>
      </trkpt>
      <trkpt lat="45.94501" lon="4.83538">
        <ele>254.300003052</ele>
        <time>2015-12-22T11:57:47.376Z</time>
      </trkpt>
      <trkpt lat="45.94497" lon="4.83531">
        <ele>254.100006104</ele>
        <time>2015-12-22T11:57:48.351Z</time>
      </trkpt>
      <trkpt lat="45.94493" lon="4.83525">
        <ele>254.199996948</ele>
        <time>2015-12-22T11:57:49.4Z</time>
      </trkpt>
      <trkpt lat="45.94489" lon="4.83518">
        <ele>254.100006104</ele>
        <time>2015-12-22T11:57:50.402Z</time>
      </trkpt>
      <trkpt lat="45.94485" lon="4.83511">
        <ele>253.899993896</ele>
        <time>2015-12-22T11:57:51.372Z</time>
      </trkpt>
      <trkpt lat="45.94481" lon="4.83505">
        <ele>254.100006104</ele>
        <time>2015-12-22T11:57:52.351Z</time>
      </trkpt>
      <trkpt lat="45.94477" lon="4.83498">
        <ele>253.899993896</ele>
        <time>2015-12-22T11:57:53.387Z</time>
      </trkpt>
      <trkpt lat="45.94473" lon="4.83492">
        <ele>253.899993896</ele>
        <time>2015-12-22T11:57:54.35Z</time>
      </trkpt>
      <trkpt lat="45.94469" lon="4.83485">
        <ele>254.100006104</ele>
        <time>2015-12-22T11:57:55.374Z</time>
      </trkpt>
      <trkpt lat="45.94465" lon="4.83479">
        <ele>254.399993896</ele>
        <time>2015-12-22T11:57:56.351Z</time>
      </trkpt>
      <trkpt lat="45.94462" lon="4.83472">
        <ele>254.699996948</ele>
        <time>2015-12-22T11:57:57.371Z</time>
      </trkpt>
      <trkpt lat="45.94459" lon="4.83465">
        <ele>255</ele>
        <time>2015-12-22T11:57:58.352Z</time>
      </trkpt>
      <trkpt lat="45.94455" lon="4.83458">
        <ele>254.899993896</ele>
        <time>2015-12-22T11:57:59.393Z</time>
      </trkpt>
      <trkpt lat="45.94452" lon="4.83452">
        <ele>254.699996948</ele>
        <time>2015-12-22T11:58:00.354Z</time>
      </trkpt>
      <trkpt lat="45.94448" lon="4.83445">
        <ele>254.5</ele>
        <time>2015-12-22T11:58:01.378Z</time>
      </trkpt>
      <trkpt lat="45.94444" lon="4.83439">
        <ele>254.399993896</ele>
        <time>2015-12-22T11:58:02.383Z</time>
      </trkpt>
      <trkpt lat="45.94441" lon="4.83432">
        <ele>254.899993896</ele>
        <time>2015-12-22T11:58:03.386Z</time>
      </trkpt>
      <trkpt lat="45.94438" lon="4.83426">
        <ele>255.199996948</ele>
        <time>2015-12-22T11:58:04.351Z</time>
      </trkpt>
      <trkpt lat="45.94435" lon="4.8342">
        <ele>255.699996948</ele>
        <time>2015-12-22T11:58:05.372Z</time>
      </trkpt>
      <trkpt lat="45.94431" lon="4.83414">
        <ele>255.899993896</ele>
        <time>2015-12-22T11:58:06.351Z</time>
      </trkpt>
      <trkpt lat="45.94428" lon="4.83407">
        <ele>256.200012207</ele>
        <time>2015-12-22T11:58:07.376Z</time>
      </trkpt>
      <trkpt lat="45.94425" lon="4.83401">
        <ele>256.600006104</ele>
        <time>2015-12-22T11:58:08.351Z</time>
      </trkpt>
      <trkpt lat="45.94422" lon="4.83395">
        <ele>257</ele>
        <time>2015-12-22T11:58:09.399Z</time>
      </trkpt>
      <trkpt lat="45.94419" lon="4.83388">
        <ele>257.299987793</ele>
        <time>2015-12-22T11:58:10.351Z</time>
      </trkpt>
      <trkpt lat="45.94417" lon="4.83382">
        <ele>257.5</ele>
        <time>2015-12-22T11:58:11.37Z</time>
      </trkpt>
      <trkpt lat="45.94413" lon="4.83375">
        <ele>257.5</ele>
        <time>2015-12-22T11:58:12.354Z</time>
      </trkpt>
      <trkpt lat="45.94411" lon="4.83368">
        <ele>257.600006104</ele>
        <time>2015-12-22T11:58:13.421Z</time>
      </trkpt>
      <trkpt lat="45.94408" lon="4.83361">
        <ele>257.799987793</ele>
        <time>2015-12-22T11:58:14.353Z</time>
      </trkpt>
      <trkpt lat="45.94406" lon="4.83353">
        <ele>257.899993896</ele>
        <time>2015-12-22T11:58:15.372Z</time>
      </trkpt>
      <trkpt lat="45.94403" lon="4.83346">
        <ele>258.100006104</ele>
        <time>2015-12-22T11:58:16.351Z</time>
      </trkpt>
      <trkpt lat="45.94401" lon="4.8334">
        <ele>258.299987793</ele>
        <time>2015-12-22T11:58:17.391Z</time>
      </trkpt>
      <trkpt lat="45.94398" lon="4.83333">
        <ele>258.399993896</ele>
        <time>2015-12-22T11:58:18.351Z</time>
      </trkpt>
      <trkpt lat="45.94396" lon="4.83326">
        <ele>258.399993896</ele>
        <time>2015-12-22T11:58:19.48Z</time>
      </trkpt>
      <trkpt lat="45.94393" lon="4.83319">
        <ele>258.5</ele>
        <time>2015-12-22T11:58:20.351Z</time>
      </trkpt>
      <trkpt lat="45.94391" lon="4.83312">
        <ele>258.899993896</ele>
        <time>2015-12-22T11:58:21.373Z</time>
      </trkpt>
      <trkpt lat="45.94388" lon="4.83306">
        <ele>258.899993896</ele>
        <time>2015-12-22T11:58:22.35Z</time>
      </trkpt>
      <trkpt lat="45.94386" lon="4.83299">
        <ele>259.100006104</ele>
        <time>2015-12-22T11:58:23.371Z</time>
      </trkpt>
      <trkpt lat="45.94383" lon="4.83292">
        <ele>259</ele>
        <time>2015-12-22T11:58:24.351Z</time>
      </trkpt>
      <trkpt lat="45.94381" lon="4.83285">
        <ele>259.200012207</ele>
        <time>2015-12-22T11:58:25.375Z</time>
      </trkpt>
      <trkpt lat="45.94378" lon="4.83279">
        <ele>259.5</ele>
        <time>2015-12-22T11:58:26.356Z</time>
      </trkpt>
      <trkpt lat="45.94376" lon="4.83272">
        <ele>259.600006104</ele>
        <time>2015-12-22T11:58:27.375Z</time>
      </trkpt>
      <trkpt lat="45.94374" lon="4.83265">
        <ele>259.600006104</ele>
        <time>2015-12-22T11:58:28.351Z</time>
      </trkpt>
      <trkpt lat="45.94372" lon="4.83258">
        <ele>259.399993896</ele>
        <time>2015-12-22T11:58:29.399Z</time>
      </trkpt>
      <trkpt lat="45.94369" lon="4.83251">
        <ele>259.100006104</ele>
        <time>2015-12-22T11:58:30.351Z</time>
      </trkpt>
      <trkpt lat="45.94367" lon="4.83244">
        <ele>259</ele>
        <time>2015-12-22T11:58:31.374Z</time>
      </trkpt>
      <trkpt lat="45.94364" lon="4.83238">
        <ele>259.200012207</ele>
        <time>2015-12-22T11:58:32.351Z</time>
      </trkpt>
      <trkpt lat="45.94362" lon="4.83231">
        <ele>259.399993896</ele>
        <time>2015-12-22T11:58:33.377Z</time>
      </trkpt>
      <trkpt lat="45.9436" lon="4.83225">
        <ele>259.700012207</ele>
        <time>2015-12-22T11:58:34.35Z</time>
      </trkpt>
      <trkpt lat="45.94358" lon="4.83219">
        <ele>259.700012207</ele>
        <time>2015-12-22T11:58:35.385Z</time>
      </trkpt>
      <trkpt lat="45.94355" lon="4.83212">
        <ele>259.5</ele>
        <time>2015-12-22T11:58:36.351Z</time>
      </trkpt>
      <trkpt lat="45.94353" lon="4.83205">
        <ele>259.799987793</ele>
        <time>2015-12-22T11:58:37.419Z</time>
      </trkpt>
      <trkpt lat="45.94351" lon="4.83198">
        <ele>260</ele>
        <time>2015-12-22T11:58:38.351Z</time>
      </trkpt>
      <trkpt lat="45.94348" lon="4.83191">
        <ele>260.200012207</ele>
        <time>2015-12-22T11:58:39.395Z</time>
      </trkpt>
      <trkpt lat="45.94346" lon="4.83185">
        <ele>260.399993896</ele>
        <time>2015-12-22T11:58:40.35Z</time>
      </trkpt>
      <trkpt lat="45.94343" lon="4.83178">
        <ele>260.799987793</ele>
        <time>2015-12-22T11:58:41.37Z</time>
      </trkpt>
      <trkpt lat="45.94341" lon="4.83171">
        <ele>261.200012207</ele>
        <time>2015-12-22T11:58:42.35Z</time>
      </trkpt>
      <trkpt lat="45.94339" lon="4.83165">
        <ele>261.600006104</ele>
        <time>2015-12-22T11:58:43.374Z</time>
      </trkpt>
      <trkpt lat="45.94336" lon="4.83158">
        <ele>261.700012207</ele>
        <time>2015-12-22T11:58:44.351Z</time>
      </trkpt>
      <trkpt lat="45.94334" lon="4.83151">
        <ele>262</ele>
        <time>2015-12-22T11:58:45.371Z</time>
      </trkpt>
      <trkpt lat="45.94331" lon="4.83144">
        <ele>262.399993896</ele>
        <time>2015-12-22T11:58:46.35Z</time>
      </trkpt>
      <trkpt lat="45.94329" lon="4.83137">
        <ele>262.600006104</ele>
        <time>2015-12-22T11:58:47.482Z</time>
      </trkpt>
      <trkpt lat="45.94327" lon="4.8313">
        <ele>262.700012207</ele>
        <time>2015-12-22T11:58:48.351Z</time>
      </trkpt>
      <trkpt lat="45.94325" lon="4.83123">
        <ele>263</ele>
        <time>2015-12-22T11:58:49.439Z</time>
      </trkpt>
      <trkpt lat="45.94322" lon="4.83116">
        <ele>263</ele>
        <time>2015-12-22T11:58:50.351Z</time>
      </trkpt>
      <trkpt lat="45.9432" lon="4.83108">
        <ele>262.799987793</ele>
        <time>2015-12-22T11:58:51.385Z</time>
      </trkpt>
      <trkpt lat="45.94317" lon="4.83101">
        <ele>262.600006104</ele>
        <time>2015-12-22T11:58:52.355Z</time>
      </trkpt>
      <trkpt lat="45.94315" lon="4.83094">
        <ele>262.200012207</ele>
        <time>2015-12-22T11:58:53.374Z</time>
      </trkpt>
      <trkpt lat="45.94313" lon="4.83088">
        <ele>262.100006104</ele>
        <time>2015-12-22T11:58:54.35Z</time>
      </trkpt>
      <trkpt lat="45.94312" lon="4.83081">
        <ele>262.299987793</ele>
        <time>2015-12-22T11:58:55.374Z</time>
      </trkpt>
      <trkpt lat="45.9431" lon="4.83074">
        <ele>262.100006104</ele>
        <time>2015-12-22T11:58:56.351Z</time>
      </trkpt>
      <trkpt lat="45.94308" lon="4.83067">
        <ele>262</ele>
        <time>2015-12-22T11:58:57.371Z</time>
      </trkpt>
      <trkpt lat="45.94306" lon="4.8306">
        <ele>262.200012207</ele>
        <time>2015-12-22T11:58:58.35Z</time>
      </trkpt>
      <trkpt lat="45.94305" lon="4.83053">
        <ele>262.600006104</ele>
        <time>2015-12-22T11:58:59.45Z</time>
      </trkpt>
      <trkpt lat="45.94303" lon="4.83046">
        <ele>262.600006104</ele>
        <time>2015-12-22T11:59:00.351Z</time>
      </trkpt>
      <trkpt lat="45.94301" lon="4.83039">
        <ele>262.600006104</ele>
        <time>2015-12-22T11:59:01.375Z</time>
      </trkpt>
      <trkpt lat="45.943" lon="4.83031">
        <ele>262.700012207</ele>
        <time>2015-12-22T11:59:02.374Z</time>
      </trkpt>
      <trkpt lat="45.94298" lon="4.83024">
        <ele>262.799987793</ele>
        <time>2015-12-22T11:59:03.387Z</time>
      </trkpt>
      <trkpt lat="45.94297" lon="4.83016">
        <ele>262.700012207</ele>
        <time>2015-12-22T11:59:04.351Z</time>
      </trkpt>
      <trkpt lat="45.94295" lon="4.83008">
        <ele>262.799987793</ele>
        <time>2015-12-22T11:59:05.37Z</time>
      </trkpt>
      <trkpt lat="45.94294" lon="4.83001">
        <ele>262.799987793</ele>
        <time>2015-12-22T11:59:06.35Z</time>
      </trkpt>
      <trkpt lat="45.94292" lon="4.82993">
        <ele>263.100006104</ele>
        <time>2015-12-22T11:59:07.379Z</time>
      </trkpt>
      <trkpt lat="45.9429" lon="4.82986">
        <ele>263.299987793</ele>
        <time>2015-12-22T11:59:08.35Z</time>
      </trkpt>
      <trkpt lat="45.94287" lon="4.82979">
        <ele>263.399993896</ele>
        <time>2015-12-22T11:59:09.385Z</time>
      </trkpt>
      <trkpt lat="45.94284" lon="4.82972">
        <ele>263.5</ele>
        <time>2015-12-22T11:59:10.351Z</time>
      </trkpt>
      <trkpt lat="45.94282" lon="4.82965">
        <ele>263.799987793</ele>
        <time>2015-12-22T11:59:11.371Z</time>
      </trkpt>
      <trkpt lat="45.9428" lon="4.82957">
        <ele>263.399993896</ele>
        <time>2015-12-22T11:59:12.36Z</time>
      </trkpt>
      <trkpt lat="45.94281" lon="4.82949">
        <ele>262.700012207</ele>
        <time>2015-12-22T11:59:13.375Z</time>
      </trkpt>
      <trkpt lat="45.94282" lon="4.82941">
        <ele>262.600006104</ele>
        <time>2015-12-22T11:59:14.351Z</time>
      </trkpt>
      <trkpt lat="45.94284" lon="4.82933">
        <ele>262.399993896</ele>
        <time>2015-12-22T11:59:15.371Z</time>
      </trkpt>
      <trkpt lat="45.94285" lon="4.82925">
        <ele>262.200012207</ele>
        <time>2015-12-22T11:59:16.35Z</time>
      </trkpt>
      <trkpt lat="45.94287" lon="4.82916">
        <ele>262.100006104</ele>
        <time>2015-12-22T11:59:17.371Z</time>
      </trkpt>
      <trkpt lat="45.94288" lon="4.82908">
        <ele>261.799987793</ele>
        <time>2015-12-22T11:59:18.353Z</time>
      </trkpt>
      <trkpt lat="45.94289" lon="4.829">
        <ele>261.600006104</ele>
        <time>2015-12-22T11:59:19.407Z</time>
      </trkpt>
      <trkpt lat="45.9429" lon="4.82891">
        <ele>261.399993896</ele>
        <time>2015-12-22T11:59:20.354Z</time>
      </trkpt>
      <trkpt lat="45.9429" lon="4.82882">
        <ele>261.100006104</ele>
        <time>2015-12-22T11:59:21.486Z</time>
      </trkpt>
      <trkpt lat="45.94291" lon="4.82874">
        <ele>261.200012207</ele>
        <time>2015-12-22T11:59:22.35Z</time>
      </trkpt>
      <trkpt lat="45.94291" lon="4.82865">
        <ele>261.399993896</ele>
        <time>2015-12-22T11:59:23.385Z</time>
      </trkpt>
      <trkpt lat="45.94291" lon="4.82856">
        <ele>261.299987793</ele>
        <time>2015-12-22T11:59:24.398Z</time>
      </trkpt>
      <trkpt lat="45.94291" lon="4.82847">
        <ele>261.5</ele>
        <time>2015-12-22T11:59:25.381Z</time>
      </trkpt>
      <trkpt lat="45.94292" lon="4.82838">
        <ele>261.799987793</ele>
        <time>2015-12-22T11:59:26.35Z</time>
      </trkpt>
      <trkpt lat="45.94292" lon="4.8283">
        <ele>262.100006104</ele>
        <time>2015-12-22T11:59:27.371Z</time>
      </trkpt>
      <trkpt lat="45.94292" lon="4.82821">
        <ele>262.299987793</ele>
        <time>2015-12-22T11:59:28.361Z</time>
      </trkpt>
      <trkpt lat="45.94292" lon="4.82812">
        <ele>261.899993896</ele>
        <time>2015-12-22T11:59:29.376Z</time>
      </trkpt>
      <trkpt lat="45.94292" lon="4.82804">
        <ele>261.899993896</ele>
        <time>2015-12-22T11:59:30.35Z</time>
      </trkpt>
      <trkpt lat="45.94292" lon="4.82795">
        <ele>261.700012207</ele>
        <time>2015-12-22T11:59:31.374Z</time>
      </trkpt>
      <trkpt lat="45.94292" lon="4.82786">
        <ele>261.5</ele>
        <time>2015-12-22T11:59:32.35Z</time>
      </trkpt>
      <trkpt lat="45.94292" lon="4.82778">
        <ele>261.5</ele>
        <time>2015-12-22T11:59:33.371Z</time>
      </trkpt>
      <trkpt lat="45.94292" lon="4.82769">
        <ele>261.5</ele>
        <time>2015-12-22T11:59:34.351Z</time>
      </trkpt>
      <trkpt lat="45.94292" lon="4.8276">
        <ele>261.600006104</ele>
        <time>2015-12-22T11:59:35.371Z</time>
      </trkpt>
      <trkpt lat="45.94292" lon="4.82752">
        <ele>261.5</ele>
        <time>2015-12-22T11:59:36.351Z</time>
      </trkpt>
      <trkpt lat="45.94293" lon="4.82743">
        <ele>261.5</ele>
        <time>2015-12-22T11:59:37.375Z</time>
      </trkpt>
      <trkpt lat="45.94293" lon="4.82735">
        <ele>261.100006104</ele>
        <time>2015-12-22T11:59:38.35Z</time>
      </trkpt>
      <trkpt lat="45.94293" lon="4.82727">
        <ele>260.799987793</ele>
        <time>2015-12-22T11:59:39.407Z</time>
      </trkpt>
      <trkpt lat="45.94293" lon="4.82719">
        <ele>260.799987793</ele>
        <time>2015-12-22T11:59:40.351Z</time>
      </trkpt>
      <trkpt lat="45.94293" lon="4.82711">
        <ele>260.899993896</ele>
        <time>2015-12-22T11:59:41.37Z</time>
      </trkpt>
      <trkpt lat="45.94293" lon="4.82703">
        <ele>260.899993896</ele>
        <time>2015-12-22T11:59:42.35Z</time>
      </trkpt>
      <trkpt lat="45.94293" lon="4.82696">
        <ele>260.899993896</ele>
        <time>2015-12-22T11:59:43.374Z</time>
      </trkpt>
      <trkpt lat="45.94293" lon="4.82687">
        <ele>261</ele>
        <time>2015-12-22T11:59:44.353Z</time>
      </trkpt>
      <trkpt lat="45.94293" lon="4.82679">
        <ele>261</ele>
        <time>2015-12-22T11:59:45.374Z</time>
      </trkpt>
      <trkpt lat="45.94293" lon="4.8267">
        <ele>261.100006104</ele>
        <time>2015-12-22T11:59:46.351Z</time>
      </trkpt>
      <trkpt lat="45.94293" lon="4.82662">
        <ele>260.799987793</ele>
        <time>2015-12-22T11:59:47.401Z</time>
      </trkpt>
      <trkpt lat="45.94293" lon="4.82653">
        <ele>260.799987793</ele>
        <time>2015-12-22T11:59:48.351Z</time>
      </trkpt>
      <trkpt lat="45.94293" lon="4.82645">
        <ele>260.799987793</ele>
        <time>2015-12-22T11:59:49.387Z</time>
      </trkpt>
      <trkpt lat="45.94293" lon="4.82636">
        <ele>260.600006104</ele>
        <time>2015-12-22T11:59:50.351Z</time>
      </trkpt>
      <trkpt lat="45.94293" lon="4.82627">
        <ele>260.600006104</ele>
        <time>2015-12-22T11:59:51.37Z</time>
      </trkpt>
      <trkpt lat="45.94293" lon="4.82618">
        <ele>260.700012207</ele>
        <time>2015-12-22T11:59:52.35Z</time>
      </trkpt>
      <trkpt lat="45.94293" lon="4.82609">
        <ele>261</ele>
        <time>2015-12-22T11:59:53.369Z</time>
      </trkpt>
      <trkpt lat="45.94294" lon="4.826">
        <ele>261</ele>
        <time>2015-12-22T11:59:54.351Z</time>
      </trkpt>
      <trkpt lat="45.94294" lon="4.82591">
        <ele>261</ele>
        <time>2015-12-22T11:59:55.496Z</time>
      </trkpt>
      <trkpt lat="45.94294" lon="4.82582">
        <ele>261.100006104</ele>
        <time>2015-12-22T11:59:56.351Z</time>
      </trkpt>
      <trkpt lat="45.94294" lon="4.82574">
        <ele>261.299987793</ele>
        <time>2015-12-22T11:59:57.372Z</time>
      </trkpt>
      <trkpt lat="45.94294" lon="4.82566">
        <ele>261.5</ele>
        <time>2015-12-22T11:59:58.351Z</time>
      </trkpt>
      <trkpt lat="45.94295" lon="4.82557">
        <ele>261.399993896</ele>
        <time>2015-12-22T11:59:59.43Z</time>
      </trkpt>
      <trkpt lat="45.94294" lon="4.82549">
        <ele>261.200012207</ele>
        <time>2015-12-22T12:00:00.35Z</time>
      </trkpt>
      <trkpt lat="45.94295" lon="4.8254">
        <ele>261.100006104</ele>
        <time>2015-12-22T12:00:01.374Z</time>
      </trkpt>
      <trkpt lat="45.94295" lon="4.82532">
        <ele>261.600006104</ele>
        <time>2015-12-22T12:00:02.351Z</time>
      </trkpt>
      <trkpt lat="45.94295" lon="4.82523">
        <ele>261.5</ele>
        <time>2015-12-22T12:00:03.371Z</time>
      </trkpt>
      <trkpt lat="45.94295" lon="4.82514">
        <ele>261.600006104</ele>
        <time>2015-12-22T12:00:04.35Z</time>
      </trkpt>
      <trkpt lat="45.94295" lon="4.82505">
        <ele>261.600006104</ele>
        <time>2015-12-22T12:00:05.376Z</time>
      </trkpt>
      <trkpt lat="45.94295" lon="4.82495">
        <ele>261.5</ele>
        <time>2015-12-22T12:00:06.351Z</time>
      </trkpt>
      <trkpt lat="45.94295" lon="4.82486">
        <ele>261.399993896</ele>
        <time>2015-12-22T12:00:07.374Z</time>
      </trkpt>
      <trkpt lat="45.94294" lon="4.82476">
        <ele>261.600006104</ele>
        <time>2015-12-22T12:00:08.351Z</time>
      </trkpt>
      <trkpt lat="45.94294" lon="4.82466">
        <ele>261.399993896</ele>
        <time>2015-12-22T12:00:09.376Z</time>
      </trkpt>
      <trkpt lat="45.94294" lon="4.82456">
        <ele>261.200012207</ele>
        <time>2015-12-22T12:00:10.372Z</time>
      </trkpt>
      <trkpt lat="45.94294" lon="4.82447">
        <ele>261.100006104</ele>
        <time>2015-12-22T12:00:11.374Z</time>
      </trkpt>
      <trkpt lat="45.94293" lon="4.82438">
        <ele>260.799987793</ele>
        <time>2015-12-22T12:00:12.35Z</time>
      </trkpt>
      <trkpt lat="45.94293" lon="4.82429">
        <ele>260.899993896</ele>
        <time>2015-12-22T12:00:13.374Z</time>
      </trkpt>
      <trkpt lat="45.94293" lon="4.8242">
        <ele>260.5</ele>
        <time>2015-12-22T12:00:14.35Z</time>
      </trkpt>
      <trkpt lat="45.94292" lon="4.82411">
        <ele>260.200012207</ele>
        <time>2015-12-22T12:00:15.37Z</time>
      </trkpt>
      <trkpt lat="45.94292" lon="4.82403">
        <ele>260.200012207</ele>
        <time>2015-12-22T12:00:16.35Z</time>
      </trkpt>
      <trkpt lat="45.94291" lon="4.82394">
        <ele>260.100006104</ele>
        <time>2015-12-22T12:00:17.37Z</time>
      </trkpt>
      <trkpt lat="45.94291" lon="4.82385">
        <ele>260.399993896</ele>
        <time>2015-12-22T12:00:18.35Z</time>
      </trkpt>
      <trkpt lat="45.94291" lon="4.82377">
        <ele>260.299987793</ele>
        <time>2015-12-22T12:00:19.374Z</time>
      </trkpt>
      <trkpt lat="45.9429" lon="4.82368">
        <ele>260.200012207</ele>
        <time>2015-12-22T12:00:20.351Z</time>
      </trkpt>
      <trkpt lat="45.9429" lon="4.82359">
        <ele>260.200012207</ele>
        <time>2015-12-22T12:00:21.374Z</time>
      </trkpt>
      <trkpt lat="45.94289" lon="4.8235">
        <ele>260.100006104</ele>
        <time>2015-12-22T12:00:22.346Z</time>
      </trkpt>
      <trkpt lat="45.94288" lon="4.8234">
        <ele>259.799987793</ele>
        <time>2015-12-22T12:00:23.37Z</time>
      </trkpt>
      <trkpt lat="45.94288" lon="4.82331">
        <ele>259.799987793</ele>
        <time>2015-12-22T12:00:24.35Z</time>
      </trkpt>
      <trkpt lat="45.94288" lon="4.82322">
        <ele>259.899993896</ele>
        <time>2015-12-22T12:00:25.375Z</time>
      </trkpt>
      <trkpt lat="45.94287" lon="4.82312">
        <ele>259.700012207</ele>
        <time>2015-12-22T12:00:26.35Z</time>
      </trkpt>
      <trkpt lat="45.94287" lon="4.82303">
        <ele>259.700012207</ele>
        <time>2015-12-22T12:00:27.37Z</time>
      </trkpt>
      <trkpt lat="45.94286" lon="4.82293">
        <ele>259.700012207</ele>
        <time>2015-12-22T12:00:28.35Z</time>
      </trkpt>
      <trkpt lat="45.94285" lon="4.82282">
        <ele>259.5</ele>
        <time>2015-12-22T12:00:29.37Z</time>
      </trkpt>
      <trkpt lat="45.94285" lon="4.82273">
        <ele>259.100006104</ele>
        <time>2015-12-22T12:00:30.351Z</time>
      </trkpt>
      <trkpt lat="45.94284" lon="4.82263">
        <ele>258.700012207</ele>
        <time>2015-12-22T12:00:31.389Z</time>
      </trkpt>
      <trkpt lat="45.94283" lon="4.82254">
        <ele>259</ele>
        <time>2015-12-22T12:00:32.391Z</time>
      </trkpt>
      <trkpt lat="45.94283" lon="4.82245">
        <ele>259.100006104</ele>
        <time>2015-12-22T12:00:33.384Z</time>
      </trkpt>
      <trkpt lat="45.94283" lon="4.82236">
        <ele>259.100006104</ele>
        <time>2015-12-22T12:00:34.365Z</time>
      </trkpt>
      <trkpt lat="45.94282" lon="4.82227">
        <ele>259.299987793</ele>
        <time>2015-12-22T12:00:35.39Z</time>
      </trkpt>
      <trkpt lat="45.94282" lon="4.82219">
        <ele>259.399993896</ele>
        <time>2015-12-22T12:00:36.521Z</time>
      </trkpt>
      <trkpt lat="45.94281" lon="4.82211">
        <ele>259.200012207</ele>
        <time>2015-12-22T12:00:37.45Z</time>
      </trkpt>
      <trkpt lat="45.94279" lon="4.82202">
        <ele>259.299987793</ele>
        <time>2015-12-22T12:00:38.388Z</time>
      </trkpt>
      <trkpt lat="45.94278" lon="4.82193">
        <ele>259.399993896</ele>
        <time>2015-12-22T12:00:39.48Z</time>
      </trkpt>
      <trkpt lat="45.94277" lon="4.82185">
        <ele>259.299987793</ele>
        <time>2015-12-22T12:00:40.398Z</time>
      </trkpt>
      <trkpt lat="45.94275" lon="4.82176">
        <ele>259.5</ele>
        <time>2015-12-22T12:00:41.421Z</time>
      </trkpt>
      <trkpt lat="45.94274" lon="4.82168">
        <ele>259.799987793</ele>
        <time>2015-12-22T12:00:42.386Z</time>
      </trkpt>
      <trkpt lat="45.94273" lon="4.82159">
        <ele>260</ele>
        <time>2015-12-22T12:00:43.428Z</time>
      </trkpt>
      <trkpt lat="45.94271" lon="4.82151">
        <ele>260</ele>
        <time>2015-12-22T12:00:44.382Z</time>
      </trkpt>
      <trkpt lat="45.94269" lon="4.82143">
        <ele>260.200012207</ele>
        <time>2015-12-22T12:00:45.442Z</time>
      </trkpt>
      <trkpt lat="45.94268" lon="4.82135">
        <ele>260.399993896</ele>
        <time>2015-12-22T12:00:46.38Z</time>
      </trkpt>
      <trkpt lat="45.94266" lon="4.82126">
        <ele>260.799987793</ele>
        <time>2015-12-22T12:00:47.371Z</time>
      </trkpt>
      <trkpt lat="45.94264" lon="4.82118">
        <ele>260.700012207</ele>
        <time>2015-12-22T12:00:48.35Z</time>
      </trkpt>
      <trkpt lat="45.94263" lon="4.8211">
        <ele>260.700012207</ele>
        <time>2015-12-22T12:00:49.377Z</time>
      </trkpt>
      <trkpt lat="45.94261" lon="4.82101">
        <ele>260.600006104</ele>
        <time>2015-12-22T12:00:50.35Z</time>
      </trkpt>
      <trkpt lat="45.9426" lon="4.82093">
        <ele>260.5</ele>
        <time>2015-12-22T12:00:51.37Z</time>
      </trkpt>
      <trkpt lat="45.94258" lon="4.82085">
        <ele>260.600006104</ele>
        <time>2015-12-22T12:00:52.367Z</time>
      </trkpt>
      <trkpt lat="45.94256" lon="4.82077">
        <ele>260.799987793</ele>
        <time>2015-12-22T12:00:53.369Z</time>
      </trkpt>
      <trkpt lat="45.94255" lon="4.82068">
        <ele>260.799987793</ele>
        <time>2015-12-22T12:00:54.35Z</time>
      </trkpt>
      <trkpt lat="45.94253" lon="4.8206">
        <ele>260.700012207</ele>
        <time>2015-12-22T12:00:55.374Z</time>
      </trkpt>
      <trkpt lat="45.94252" lon="4.82052">
        <ele>260.700012207</ele>
        <time>2015-12-22T12:00:56.354Z</time>
      </trkpt>
      <trkpt lat="45.9425" lon="4.82044">
        <ele>260.799987793</ele>
        <time>2015-12-22T12:00:57.373Z</time>
      </trkpt>
      <trkpt lat="45.94248" lon="4.82035">
        <ele>260.799987793</ele>
        <time>2015-12-22T12:00:58.351Z</time>
      </trkpt>
      <trkpt lat="45.94247" lon="4.82027">
        <ele>260.799987793</ele>
        <time>2015-12-22T12:00:59.369Z</time>
      </trkpt>
      <trkpt lat="45.94245" lon="4.82018">
        <ele>260.899993896</ele>
        <time>2015-12-22T12:01:00.351Z</time>
      </trkpt>
      <trkpt lat="45.94243" lon="4.82009">
        <ele>260.899993896</ele>
        <time>2015-12-22T12:01:01.42Z</time>
      </trkpt>
      <trkpt lat="45.94241" lon="4.82">
        <ele>260.899993896</ele>
        <time>2015-12-22T12:01:02.365Z</time>
      </trkpt>
      <trkpt lat="45.9424" lon="4.81991">
        <ele>261</ele>
        <time>2015-12-22T12:01:03.37Z</time>
      </trkpt>
      <trkpt lat="45.94238" lon="4.81983">
        <ele>261</ele>
        <time>2015-12-22T12:01:04.35Z</time>
      </trkpt>
      <trkpt lat="45.94236" lon="4.81975">
        <ele>261.100006104</ele>
        <time>2015-12-22T12:01:05.37Z</time>
      </trkpt>
      <trkpt lat="45.94234" lon="4.81967">
        <ele>261.299987793</ele>
        <time>2015-12-22T12:01:06.35Z</time>
      </trkpt>
      <trkpt lat="45.94233" lon="4.81959">
        <ele>261.5</ele>
        <time>2015-12-22T12:01:07.374Z</time>
      </trkpt>
      <trkpt lat="45.94231" lon="4.81952">
        <ele>261.5</ele>
        <time>2015-12-22T12:01:08.35Z</time>
      </trkpt>
      <trkpt lat="45.9423" lon="4.81943">
        <ele>261.600006104</ele>
        <time>2015-12-22T12:01:09.371Z</time>
      </trkpt>
      <trkpt lat="45.94228" lon="4.81935">
        <ele>261.600006104</ele>
        <time>2015-12-22T12:01:10.35Z</time>
      </trkpt>
      <trkpt lat="45.94227" lon="4.81927">
        <ele>261.799987793</ele>
        <time>2015-12-22T12:01:11.373Z</time>
      </trkpt>
      <trkpt lat="45.94225" lon="4.81919">
        <ele>262</ele>
        <time>2015-12-22T12:01:12.35Z</time>
      </trkpt>
      <trkpt lat="45.94223" lon="4.8191">
        <ele>262.200012207</ele>
        <time>2015-12-22T12:01:13.389Z</time>
      </trkpt>
      <trkpt lat="45.94221" lon="4.81902">
        <ele>262.5</ele>
        <time>2015-12-22T12:01:14.35Z</time>
      </trkpt>
      <trkpt lat="45.94219" lon="4.81894">
        <ele>262.799987793</ele>
        <time>2015-12-22T12:01:15.37Z</time>
      </trkpt>
      <trkpt lat="45.94218" lon="4.81885">
        <ele>263.100006104</ele>
        <time>2015-12-22T12:01:16.35Z</time>
      </trkpt>
      <trkpt lat="45.94215" lon="4.81876">
        <ele>263.100006104</ele>
        <time>2015-12-22T12:01:17.392Z</time>
      </trkpt>
      <trkpt lat="45.94213" lon="4.81868">
        <ele>263.299987793</ele>
        <time>2015-12-22T12:01:18.35Z</time>
      </trkpt>
      <trkpt lat="45.94211" lon="4.8186">
        <ele>263.399993896</ele>
        <time>2015-12-22T12:01:19.376Z</time>
      </trkpt>
      <trkpt lat="45.9421" lon="4.81851">
        <ele>263.399993896</ele>
        <time>2015-12-22T12:01:20.353Z</time>
      </trkpt>
      <trkpt lat="45.94208" lon="4.81843">
        <ele>263.600006104</ele>
        <time>2015-12-22T12:01:21.378Z</time>
      </trkpt>
      <trkpt lat="45.94206" lon="4.81835">
        <ele>263.600006104</ele>
        <time>2015-12-22T12:01:22.35Z</time>
      </trkpt>
      <trkpt lat="45.94205" lon="4.81827">
        <ele>263.5</ele>
        <time>2015-12-22T12:01:23.382Z</time>
      </trkpt>
      <trkpt lat="45.94204" lon="4.81818">
        <ele>263.200012207</ele>
        <time>2015-12-22T12:01:24.351Z</time>
      </trkpt>
      <trkpt lat="45.94203" lon="4.8181">
        <ele>262.799987793</ele>
        <time>2015-12-22T12:01:25.373Z</time>
      </trkpt>
      <trkpt lat="45.94204" lon="4.81801">
        <ele>262.5</ele>
        <time>2015-12-22T12:01:26.35Z</time>
      </trkpt>
      <trkpt lat="45.94205" lon="4.81794">
        <ele>262.100006104</ele>
        <time>2015-12-22T12:01:27.512Z</time>
      </trkpt>
      <trkpt lat="45.94207" lon="4.81786">
        <ele>262.399993896</ele>
        <time>2015-12-22T12:01:28.353Z</time>
      </trkpt>
      <trkpt lat="45.94209" lon="4.81778">
        <ele>261.799987793</ele>
        <time>2015-12-22T12:01:29.37Z</time>
      </trkpt>
      <trkpt lat="45.94211" lon="4.81771">
        <ele>261.899993896</ele>
        <time>2015-12-22T12:01:30.35Z</time>
      </trkpt>
      <trkpt lat="45.94214" lon="4.81764">
        <ele>261.5</ele>
        <time>2015-12-22T12:01:31.374Z</time>
      </trkpt>
      <trkpt lat="45.94217" lon="4.81757">
        <ele>261.299987793</ele>
        <time>2015-12-22T12:01:32.348Z</time>
      </trkpt>
      <trkpt lat="45.9422" lon="4.8175">
        <ele>261</ele>
        <time>2015-12-22T12:01:33.371Z</time>
      </trkpt>
      <trkpt lat="45.94222" lon="4.81742">
        <ele>261</ele>
        <time>2015-12-22T12:01:34.351Z</time>
      </trkpt>
      <trkpt lat="45.94223" lon="4.81734">
        <ele>260.799987793</ele>
        <time>2015-12-22T12:01:35.369Z</time>
      </trkpt>
      <trkpt lat="45.94222" lon="4.81726">
        <ele>260.899993896</ele>
        <time>2015-12-22T12:01:36.35Z</time>
      </trkpt>
      <trkpt lat="45.9422" lon="4.81719">
        <ele>260.799987793</ele>
        <time>2015-12-22T12:01:37.373Z</time>
      </trkpt>
      <trkpt lat="45.94216" lon="4.81713">
        <ele>261.200012207</ele>
        <time>2015-12-22T12:01:38.35Z</time>
      </trkpt>
      <trkpt lat="45.9421" lon="4.81708">
        <ele>261</ele>
        <time>2015-12-22T12:01:39.387Z</time>
      </trkpt>
      <trkpt lat="45.94204" lon="4.81705">
        <ele>260.700012207</ele>
        <time>2015-12-22T12:01:40.35Z</time>
      </trkpt>
      <trkpt lat="45.94199" lon="4.81702">
        <ele>260.700012207</ele>
        <time>2015-12-22T12:01:41.369Z</time>
      </trkpt>
      <trkpt lat="45.94193" lon="4.81698">
        <ele>260.299987793</ele>
        <time>2015-12-22T12:01:42.354Z</time>
      </trkpt>
      <trkpt lat="45.94188" lon="4.81692">
        <ele>260.100006104</ele>
        <time>2015-12-22T12:01:43.387Z</time>
      </trkpt>
      <trkpt lat="45.94184" lon="4.81685">
        <ele>259.799987793</ele>
        <time>2015-12-22T12:01:44.353Z</time>
      </trkpt>
      <trkpt lat="45.9418" lon="4.81676">
        <ele>259.5</ele>
        <time>2015-12-22T12:01:45.372Z</time>
      </trkpt>
      <trkpt lat="45.94177" lon="4.81667">
        <ele>259.200012207</ele>
        <time>2015-12-22T12:01:46.351Z</time>
      </trkpt>
      <trkpt lat="45.94174" lon="4.81657">
        <ele>259</ele>
        <time>2015-12-22T12:01:47.37Z</time>
      </trkpt>
      <trkpt lat="45.94173" lon="4.81646">
        <ele>258.5</ele>
        <time>2015-12-22T12:01:48.351Z</time>
      </trkpt>
      <trkpt lat="45.9417" lon="4.81635">
        <ele>258.399993896</ele>
        <time>2015-12-22T12:01:49.38Z</time>
      </trkpt>
      <trkpt lat="45.94168" lon="4.81623">
        <ele>258.299987793</ele>
        <time>2015-12-22T12:01:50.353Z</time>
      </trkpt>
      <trkpt lat="45.94165" lon="4.81611">
        <ele>257.899993896</ele>
        <time>2015-12-22T12:01:51.372Z</time>
      </trkpt>
      <trkpt lat="45.94163" lon="4.81599">
        <ele>257.399993896</ele>
        <time>2015-12-22T12:01:52.354Z</time>
      </trkpt>
      <trkpt lat="45.94161" lon="4.81588">
        <ele>257.200012207</ele>
        <time>2015-12-22T12:01:53.371Z</time>
      </trkpt>
      <trkpt lat="45.94159" lon="4.81577">
        <ele>257.200012207</ele>
        <time>2015-12-22T12:01:54.35Z</time>
      </trkpt>
      <trkpt lat="45.94158" lon="4.81565">
        <ele>257</ele>
        <time>2015-12-22T12:01:55.373Z</time>
      </trkpt>
      <trkpt lat="45.94157" lon="4.81552">
        <ele>256.899993896</ele>
        <time>2015-12-22T12:01:56.354Z</time>
      </trkpt>
      <trkpt lat="45.94157" lon="4.8154">
        <ele>256.799987793</ele>
        <time>2015-12-22T12:01:57.372Z</time>
      </trkpt>
      <trkpt lat="45.94157" lon="4.81527">
        <ele>256.899993896</ele>
        <time>2015-12-22T12:01:58.351Z</time>
      </trkpt>
      <trkpt lat="45.94157" lon="4.81527">
        <ele>256.899993896</ele>
        <time>2015-12-22T12:01:58.372Z</time>
      </trkpt>
      <trkpt lat="45.94158" lon="4.81514">
        <ele>256.799987793</ele>
        <time>2015-12-22T12:01:59.35Z</time>
      </trkpt>
      <trkpt lat="45.94158" lon="4.81514">
        <ele>256.799987793</ele>
        <time>2015-12-22T12:01:59.371Z</time>
      </trkpt>
      <trkpt lat="45.94158" lon="4.815">
        <ele>256.5</ele>
        <time>2015-12-22T12:02:00.35Z</time>
      </trkpt>
      <trkpt lat="45.94158" lon="4.815">
        <ele>256.5</ele>
        <time>2015-12-22T12:02:00.374Z</time>
      </trkpt>
      <trkpt lat="45.94158" lon="4.81486">
        <ele>256.299987793</ele>
        <time>2015-12-22T12:02:01.357Z</time>
      </trkpt>
      <trkpt lat="45.94158" lon="4.81486">
        <ele>256.299987793</ele>
        <time>2015-12-22T12:02:01.384Z</time>
      </trkpt>
      <trkpt lat="45.94159" lon="4.81472">
        <ele>256.299987793</ele>
        <time>2015-12-22T12:02:02.412Z</time>
      </trkpt>
      <trkpt lat="45.94159" lon="4.81472">
        <ele>256.299987793</ele>
        <time>2015-12-22T12:02:02.432Z</time>
      </trkpt>
      <trkpt lat="45.94161" lon="4.81458">
        <ele>256.100006104</ele>
        <time>2015-12-22T12:02:03.354Z</time>
      </trkpt>
      <trkpt lat="45.94161" lon="4.81458">
        <ele>256.100006104</ele>
        <time>2015-12-22T12:02:03.378Z</time>
      </trkpt>
      <trkpt lat="45.94163" lon="4.81444">
        <ele>255.800003052</ele>
        <time>2015-12-22T12:02:04.354Z</time>
      </trkpt>
      <trkpt lat="45.94163" lon="4.81444">
        <ele>255.800003052</ele>
        <time>2015-12-22T12:02:04.373Z</time>
      </trkpt>
      <trkpt lat="45.94164" lon="4.8143">
        <ele>255.399993896</ele>
        <time>2015-12-22T12:02:05.354Z</time>
      </trkpt>
      <trkpt lat="45.94164" lon="4.8143">
        <ele>255.399993896</ele>
        <time>2015-12-22T12:02:05.382Z</time>
      </trkpt>
      <trkpt lat="45.94165" lon="4.81415">
        <ele>255</ele>
        <time>2015-12-22T12:02:06.353Z</time>
      </trkpt>
      <trkpt lat="45.94165" lon="4.81415">
        <ele>255</ele>
        <time>2015-12-22T12:02:06.372Z</time>
      </trkpt>
      <trkpt lat="45.94165" lon="4.81402">
        <ele>254.800003052</ele>
        <time>2015-12-22T12:02:07.354Z</time>
      </trkpt>
      <trkpt lat="45.94165" lon="4.81402">
        <ele>254.800003052</ele>
        <time>2015-12-22T12:02:07.4Z</time>
      </trkpt>
      <trkpt lat="45.94166" lon="4.81388">
        <ele>254.5</ele>
        <time>2015-12-22T12:02:08.353Z</time>
      </trkpt>
      <trkpt lat="45.94166" lon="4.81388">
        <ele>254.5</ele>
        <time>2015-12-22T12:02:08.377Z</time>
      </trkpt>
      <trkpt lat="45.94168" lon="4.81374">
        <ele>254.399993896</ele>
        <time>2015-12-22T12:02:09.352Z</time>
      </trkpt>
      <trkpt lat="45.94168" lon="4.81374">
        <ele>254.399993896</ele>
        <time>2015-12-22T12:02:09.382Z</time>
      </trkpt>
      <trkpt lat="45.94169" lon="4.8136">
        <ele>254.100006104</ele>
        <time>2015-12-22T12:02:10.374Z</time>
      </trkpt>
      <trkpt lat="45.94169" lon="4.8136">
        <ele>254.100006104</ele>
        <time>2015-12-22T12:02:10.402Z</time>
      </trkpt>
      <trkpt lat="45.94169" lon="4.81346">
        <ele>254</ele>
        <time>2015-12-22T12:02:11.35Z</time>
      </trkpt>
      <trkpt lat="45.94169" lon="4.81346">
        <ele>254</ele>
        <time>2015-12-22T12:02:11.373Z</time>
      </trkpt>
      <trkpt lat="45.9417" lon="4.8133">
        <ele>253.800003052</ele>
        <time>2015-12-22T12:02:12.35Z</time>
      </trkpt>
      <trkpt lat="45.9417" lon="4.8133">
        <ele>253.800003052</ele>
        <time>2015-12-22T12:02:12.372Z</time>
      </trkpt>
      <trkpt lat="45.9417" lon="4.81315">
        <ele>253.5</ele>
        <time>2015-12-22T12:02:13.354Z</time>
      </trkpt>
      <trkpt lat="45.9417" lon="4.81315">
        <ele>253.5</ele>
        <time>2015-12-22T12:02:13.381Z</time>
      </trkpt>
      <trkpt lat="45.9417" lon="4.813">
        <ele>253.199996948</ele>
        <time>2015-12-22T12:02:14.352Z</time>
      </trkpt>
      <trkpt lat="45.9417" lon="4.813">
        <ele>253.199996948</ele>
        <time>2015-12-22T12:02:14.38Z</time>
      </trkpt>
      <trkpt lat="45.94169" lon="4.81284">
        <ele>252.800003052</ele>
        <time>2015-12-22T12:02:15.358Z</time>
      </trkpt>
      <trkpt lat="45.94169" lon="4.81284">
        <ele>252.800003052</ele>
        <time>2015-12-22T12:02:15.384Z</time>
      </trkpt>
      <trkpt lat="45.94168" lon="4.81269">
        <ele>252.600006104</ele>
        <time>2015-12-22T12:02:16.356Z</time>
      </trkpt>
      <trkpt lat="45.94168" lon="4.81269">
        <ele>252.600006104</ele>
        <time>2015-12-22T12:02:16.386Z</time>
      </trkpt>
      <trkpt lat="45.94166" lon="4.81254">
        <ele>252.300003052</ele>
        <time>2015-12-22T12:02:17.352Z</time>
      </trkpt>
      <trkpt lat="45.94166" lon="4.81254">
        <ele>252.300003052</ele>
        <time>2015-12-22T12:02:17.377Z</time>
      </trkpt>
      <trkpt lat="45.94164" lon="4.81239">
        <ele>251.899993896</ele>
        <time>2015-12-22T12:02:18.352Z</time>
      </trkpt>
      <trkpt lat="45.94164" lon="4.81239">
        <ele>251.899993896</ele>
        <time>2015-12-22T12:02:18.379Z</time>
      </trkpt>
      <trkpt lat="45.94162" lon="4.81223">
        <ele>251.699996948</ele>
        <time>2015-12-22T12:02:19.357Z</time>
      </trkpt>
      <trkpt lat="45.94162" lon="4.81223">
        <ele>251.699996948</ele>
        <time>2015-12-22T12:02:19.378Z</time>
      </trkpt>
      <trkpt lat="45.94158" lon="4.81208">
        <ele>251.399993896</ele>
        <time>2015-12-22T12:02:20.377Z</time>
      </trkpt>
      <trkpt lat="45.94158" lon="4.81208">
        <ele>251.399993896</ele>
        <time>2015-12-22T12:02:20.396Z</time>
      </trkpt>
      <trkpt lat="45.94153" lon="4.81193">
        <ele>250.899993896</ele>
        <time>2015-12-22T12:02:21.353Z</time>
      </trkpt>
      <trkpt lat="45.94153" lon="4.81193">
        <ele>250.899993896</ele>
        <time>2015-12-22T12:02:21.376Z</time>
      </trkpt>
      <trkpt lat="45.94148" lon="4.81178">
        <ele>250.100006104</ele>
        <time>2015-12-22T12:02:22.354Z</time>
      </trkpt>
      <trkpt lat="45.94148" lon="4.81178">
        <ele>250.100006104</ele>
        <time>2015-12-22T12:02:22.375Z</time>
      </trkpt>
      <trkpt lat="45.94142" lon="4.81163">
        <ele>249.600006104</ele>
        <time>2015-12-22T12:02:23.353Z</time>
      </trkpt>
      <trkpt lat="45.94142" lon="4.81163">
        <ele>249.600006104</ele>
        <time>2015-12-22T12:02:23.373Z</time>
      </trkpt>
      <trkpt lat="45.94136" lon="4.81149">
        <ele>248.899993896</ele>
        <time>2015-12-22T12:02:24.351Z</time>
      </trkpt>
      <trkpt lat="45.94136" lon="4.81149">
        <ele>248.899993896</ele>
        <time>2015-12-22T12:02:24.373Z</time>
      </trkpt>
      <trkpt lat="45.9413" lon="4.81136">
        <ele>248.5</ele>
        <time>2015-12-22T12:02:25.355Z</time>
      </trkpt>
      <trkpt lat="45.9413" lon="4.81136">
        <ele>248.5</ele>
        <time>2015-12-22T12:02:25.385Z</time>
      </trkpt>
      <trkpt lat="45.94124" lon="4.81124">
        <ele>247.699996948</ele>
        <time>2015-12-22T12:02:26.352Z</time>
      </trkpt>
      <trkpt lat="45.94124" lon="4.81124">
        <ele>247.699996948</ele>
        <time>2015-12-22T12:02:26.376Z</time>
      </trkpt>
      <trkpt lat="45.94117" lon="4.81112">
        <ele>247.100006104</ele>
        <time>2015-12-22T12:02:27.355Z</time>
      </trkpt>
      <trkpt lat="45.94117" lon="4.81112">
        <ele>247.100006104</ele>
        <time>2015-12-22T12:02:27.376Z</time>
      </trkpt>
      <trkpt lat="45.94111" lon="4.811">
        <ele>246.600006104</ele>
        <time>2015-12-22T12:02:28.351Z</time>
      </trkpt>
      <trkpt lat="45.94111" lon="4.811">
        <ele>246.600006104</ele>
        <time>2015-12-22T12:02:28.375Z</time>
      </trkpt>
      <trkpt lat="45.94105" lon="4.81089">
        <ele>245.899993896</ele>
        <time>2015-12-22T12:02:29.354Z</time>
      </trkpt>
      <trkpt lat="45.94105" lon="4.81089">
        <ele>245.899993896</ele>
        <time>2015-12-22T12:02:29.375Z</time>
      </trkpt>
      <trkpt lat="45.94099" lon="4.81076">
        <ele>245.600006104</ele>
        <time>2015-12-22T12:02:30.35Z</time>
      </trkpt>
      <trkpt lat="45.94099" lon="4.81076">
        <ele>245.600006104</ele>
        <time>2015-12-22T12:02:30.375Z</time>
      </trkpt>
      <trkpt lat="45.94093" lon="4.81063">
        <ele>244.800003052</ele>
        <time>2015-12-22T12:02:31.354Z</time>
      </trkpt>
      <trkpt lat="45.94093" lon="4.81063">
        <ele>244.800003052</ele>
        <time>2015-12-22T12:02:31.376Z</time>
      </trkpt>
      <trkpt lat="45.94088" lon="4.8105">
        <ele>244.199996948</ele>
        <time>2015-12-22T12:02:32.351Z</time>
      </trkpt>
      <trkpt lat="45.94088" lon="4.8105">
        <ele>244.199996948</ele>
        <time>2015-12-22T12:02:32.375Z</time>
      </trkpt>
      <trkpt lat="45.94083" lon="4.81038">
        <ele>243.5</ele>
        <time>2015-12-22T12:02:33.469Z</time>
      </trkpt>
      <trkpt lat="45.94083" lon="4.81038">
        <ele>243.5</ele>
        <time>2015-12-22T12:02:33.482Z</time>
      </trkpt>
      <trkpt lat="45.94079" lon="4.81025">
        <ele>242.699996948</ele>
        <time>2015-12-22T12:02:34.351Z</time>
      </trkpt>
      <trkpt lat="45.94079" lon="4.81025">
        <ele>242.699996948</ele>
        <time>2015-12-22T12:02:34.376Z</time>
      </trkpt>
      <trkpt lat="45.94076" lon="4.81011">
        <ele>242.199996948</ele>
        <time>2015-12-22T12:02:35.352Z</time>
      </trkpt>
      <trkpt lat="45.94076" lon="4.81011">
        <ele>242.199996948</ele>
        <time>2015-12-22T12:02:35.375Z</time>
      </trkpt>
      <trkpt lat="45.94073" lon="4.80998">
        <ele>241.5</ele>
        <time>2015-12-22T12:02:36.365Z</time>
      </trkpt>
      <trkpt lat="45.94073" lon="4.80998">
        <ele>241.5</ele>
        <time>2015-12-22T12:02:36.393Z</time>
      </trkpt>
      <trkpt lat="45.94071" lon="4.80983">
        <ele>240.5</ele>
        <time>2015-12-22T12:02:37.354Z</time>
      </trkpt>
      <trkpt lat="45.94071" lon="4.80983">
        <ele>240.5</ele>
        <time>2015-12-22T12:02:37.378Z</time>
      </trkpt>
      <trkpt lat="45.9407" lon="4.80969">
        <ele>239.600006104</ele>
        <time>2015-12-22T12:02:38.354Z</time>
      </trkpt>
      <trkpt lat="45.9407" lon="4.80969">
        <ele>239.600006104</ele>
        <time>2015-12-22T12:02:38.38Z</time>
      </trkpt>
      <trkpt lat="45.94068" lon="4.80955">
        <ele>238.699996948</ele>
        <time>2015-12-22T12:02:39.352Z</time>
      </trkpt>
      <trkpt lat="45.94068" lon="4.80955">
        <ele>238.699996948</ele>
        <time>2015-12-22T12:02:39.375Z</time>
      </trkpt>
      <trkpt lat="45.94067" lon="4.8094">
        <ele>238.100006104</ele>
        <time>2015-12-22T12:02:40.352Z</time>
      </trkpt>
      <trkpt lat="45.94067" lon="4.8094">
        <ele>238.100006104</ele>
        <time>2015-12-22T12:02:40.381Z</time>
      </trkpt>
      <trkpt lat="45.94065" lon="4.80926">
        <ele>237.300003052</ele>
        <time>2015-12-22T12:02:41.35Z</time>
      </trkpt>
      <trkpt lat="45.94065" lon="4.80926">
        <ele>237.300003052</ele>
        <time>2015-12-22T12:02:41.381Z</time>
      </trkpt>
      <trkpt lat="45.94063" lon="4.80911">
        <ele>236.600006104</ele>
        <time>2015-12-22T12:02:42.397Z</time>
      </trkpt>
      <trkpt lat="45.94063" lon="4.80911">
        <ele>236.600006104</ele>
        <time>2015-12-22T12:02:42.574Z</time>
      </trkpt>
      <trkpt lat="45.94061" lon="4.80897">
        <ele>236</ele>
        <time>2015-12-22T12:02:43.359Z</time>
      </trkpt>
      <trkpt lat="45.94061" lon="4.80897">
        <ele>236</ele>
        <time>2015-12-22T12:02:43.378Z</time>
      </trkpt>
      <trkpt lat="45.94059" lon="4.80882">
        <ele>235</ele>
        <time>2015-12-22T12:02:44.355Z</time>
      </trkpt>
      <trkpt lat="45.94059" lon="4.80882">
        <ele>235</ele>
        <time>2015-12-22T12:02:44.376Z</time>
      </trkpt>
      <trkpt lat="45.94057" lon="4.80868">
        <ele>234.5</ele>
        <time>2015-12-22T12:02:45.357Z</time>
      </trkpt>
      <trkpt lat="45.94057" lon="4.80868">
        <ele>234.5</ele>
        <time>2015-12-22T12:02:45.377Z</time>
      </trkpt>
      <trkpt lat="45.94055" lon="4.80853">
        <ele>233.5</ele>
        <time>2015-12-22T12:02:46.382Z</time>
      </trkpt>
      <trkpt lat="45.94055" lon="4.80853">
        <ele>233.5</ele>
        <time>2015-12-22T12:02:46.409Z</time>
      </trkpt>
      <trkpt lat="45.94053" lon="4.80838">
        <ele>232.899993896</ele>
        <time>2015-12-22T12:02:47.374Z</time>
      </trkpt>
      <trkpt lat="45.94053" lon="4.80838">
        <ele>232.899993896</ele>
        <time>2015-12-22T12:02:47.395Z</time>
      </trkpt>
      <trkpt lat="45.94052" lon="4.80824">
        <ele>232</ele>
        <time>2015-12-22T12:02:48.35Z</time>
      </trkpt>
      <trkpt lat="45.94052" lon="4.80824">
        <ele>232</ele>
        <time>2015-12-22T12:02:48.373Z</time>
      </trkpt>
      <trkpt lat="45.9405" lon="4.8081">
        <ele>231</ele>
        <time>2015-12-22T12:02:49.358Z</time>
      </trkpt>
      <trkpt lat="45.9405" lon="4.8081">
        <ele>231</ele>
        <time>2015-12-22T12:02:49.386Z</time>
      </trkpt>
      <trkpt lat="45.94048" lon="4.80795">
        <ele>230.100006104</ele>
        <time>2015-12-22T12:02:50.354Z</time>
      </trkpt>
      <trkpt lat="45.94048" lon="4.80795">
        <ele>230.100006104</ele>
        <time>2015-12-22T12:02:50.381Z</time>
      </trkpt>
      <trkpt lat="45.94047" lon="4.8078">
        <ele>228.899993896</ele>
        <time>2015-12-22T12:02:51.393Z</time>
      </trkpt>
      <trkpt lat="45.94047" lon="4.8078">
        <ele>228.899993896</ele>
        <time>2015-12-22T12:02:51.568Z</time>
      </trkpt>
      <trkpt lat="45.94045" lon="4.80765">
        <ele>227.899993896</ele>
        <time>2015-12-22T12:02:52.357Z</time>
      </trkpt>
      <trkpt lat="45.94045" lon="4.80765">
        <ele>227.899993896</ele>
        <time>2015-12-22T12:02:52.383Z</time>
      </trkpt>
      <trkpt lat="45.94043" lon="4.80751">
        <ele>226.899993896</ele>
        <time>2015-12-22T12:02:53.35Z</time>
      </trkpt>
      <trkpt lat="45.94043" lon="4.80751">
        <ele>226.899993896</ele>
        <time>2015-12-22T12:02:53.402Z</time>
      </trkpt>
      <trkpt lat="45.94042" lon="4.80736">
        <ele>225.800003052</ele>
        <time>2015-12-22T12:02:54.35Z</time>
      </trkpt>
      <trkpt lat="45.94042" lon="4.80736">
        <ele>225.800003052</ele>
        <time>2015-12-22T12:02:54.373Z</time>
      </trkpt>
      <trkpt lat="45.94041" lon="4.80721">
        <ele>225.199996948</ele>
        <time>2015-12-22T12:02:55.354Z</time>
      </trkpt>
      <trkpt lat="45.94041" lon="4.80721">
        <ele>225.199996948</ele>
        <time>2015-12-22T12:02:55.384Z</time>
      </trkpt>
      <trkpt lat="45.9404" lon="4.80707">
        <ele>224</ele>
        <time>2015-12-22T12:02:56.35Z</time>
      </trkpt>
      <trkpt lat="45.9404" lon="4.80707">
        <ele>224</ele>
        <time>2015-12-22T12:02:56.381Z</time>
      </trkpt>
      <trkpt lat="45.94039" lon="4.80692">
        <ele>223.399993896</ele>
        <time>2015-12-22T12:02:57.351Z</time>
      </trkpt>
      <trkpt lat="45.94039" lon="4.80692">
        <ele>223.399993896</ele>
        <time>2015-12-22T12:02:57.374Z</time>
      </trkpt>
      <trkpt lat="45.94037" lon="4.80678">
        <ele>222.600006104</ele>
        <time>2015-12-22T12:02:58.354Z</time>
      </trkpt>
      <trkpt lat="45.94037" lon="4.80678">
        <ele>222.600006104</ele>
        <time>2015-12-22T12:02:58.378Z</time>
      </trkpt>
      <trkpt lat="45.94035" lon="4.80663">
        <ele>221.800003052</ele>
        <time>2015-12-22T12:02:59.353Z</time>
      </trkpt>
      <trkpt lat="45.94035" lon="4.80663">
        <ele>221.800003052</ele>
        <time>2015-12-22T12:02:59.374Z</time>
      </trkpt>
      <trkpt lat="45.94034" lon="4.80649">
        <ele>221.399993896</ele>
        <time>2015-12-22T12:03:00.35Z</time>
      </trkpt>
      <trkpt lat="45.94034" lon="4.80649">
        <ele>221.399993896</ele>
        <time>2015-12-22T12:03:00.371Z</time>
      </trkpt>
      <trkpt lat="45.94032" lon="4.80634">
        <ele>221</ele>
        <time>2015-12-22T12:03:01.356Z</time>
      </trkpt>
      <trkpt lat="45.94032" lon="4.80634">
        <ele>221</ele>
        <time>2015-12-22T12:03:01.504Z</time>
      </trkpt>
      <trkpt lat="45.9403" lon="4.8062">
        <ele>220.5</ele>
        <time>2015-12-22T12:03:02.369Z</time>
      </trkpt>
      <trkpt lat="45.9403" lon="4.8062">
        <ele>220.5</ele>
        <time>2015-12-22T12:03:02.392Z</time>
      </trkpt>
      <trkpt lat="45.94028" lon="4.80605">
        <ele>219.600006104</ele>
        <time>2015-12-22T12:03:03.351Z</time>
      </trkpt>
      <trkpt lat="45.94028" lon="4.80605">
        <ele>219.600006104</ele>
        <time>2015-12-22T12:03:03.375Z</time>
      </trkpt>
      <trkpt lat="45.94027" lon="4.8059">
        <ele>218.800003052</ele>
        <time>2015-12-22T12:03:04.354Z</time>
      </trkpt>
      <trkpt lat="45.94027" lon="4.8059">
        <ele>218.800003052</ele>
        <time>2015-12-22T12:03:04.378Z</time>
      </trkpt>
      <trkpt lat="45.94025" lon="4.80576">
        <ele>218</ele>
        <time>2015-12-22T12:03:05.347Z</time>
      </trkpt>
      <trkpt lat="45.94025" lon="4.80576">
        <ele>218</ele>
        <time>2015-12-22T12:03:05.446Z</time>
      </trkpt>
      <trkpt lat="45.94024" lon="4.80561">
        <ele>217.5</ele>
        <time>2015-12-22T12:03:06.353Z</time>
      </trkpt>
      <trkpt lat="45.94024" lon="4.80561">
        <ele>217.5</ele>
        <time>2015-12-22T12:03:06.375Z</time>
      </trkpt>
      <trkpt lat="45.94024" lon="4.80547">
        <ele>216.800003052</ele>
        <time>2015-12-22T12:03:07.353Z</time>
      </trkpt>
      <trkpt lat="45.94024" lon="4.80547">
        <ele>216.800003052</ele>
        <time>2015-12-22T12:03:07.414Z</time>
      </trkpt>
      <trkpt lat="45.94024" lon="4.80532">
        <ele>215.899993896</ele>
        <time>2015-12-22T12:03:08.353Z</time>
      </trkpt>
      <trkpt lat="45.94024" lon="4.80532">
        <ele>215.899993896</ele>
        <time>2015-12-22T12:03:08.391Z</time>
      </trkpt>
      <trkpt lat="45.94024" lon="4.80518">
        <ele>215.199996948</ele>
        <time>2015-12-22T12:03:09.351Z</time>
      </trkpt>
      <trkpt lat="45.94024" lon="4.80518">
        <ele>215.199996948</ele>
        <time>2015-12-22T12:03:09.418Z</time>
      </trkpt>
      <trkpt lat="45.94024" lon="4.80503">
        <ele>214.5</ele>
        <time>2015-12-22T12:03:10.35Z</time>
      </trkpt>
      <trkpt lat="45.94024" lon="4.80503">
        <ele>214.5</ele>
        <time>2015-12-22T12:03:10.381Z</time>
      </trkpt>
      <trkpt lat="45.94022" lon="4.80489">
        <ele>213.699996948</ele>
        <time>2015-12-22T12:03:11.35Z</time>
      </trkpt>
      <trkpt lat="45.94022" lon="4.80489">
        <ele>213.699996948</ele>
        <time>2015-12-22T12:03:11.512Z</time>
      </trkpt>
      <trkpt lat="45.94022" lon="4.80475">
        <ele>213</ele>
        <time>2015-12-22T12:03:12.35Z</time>
      </trkpt>
      <trkpt lat="45.94022" lon="4.80475">
        <ele>213</ele>
        <time>2015-12-22T12:03:12.371Z</time>
      </trkpt>
      <trkpt lat="45.94021" lon="4.8046">
        <ele>212.399993896</ele>
        <time>2015-12-22T12:03:13.357Z</time>
      </trkpt>
      <trkpt lat="45.94021" lon="4.8046">
        <ele>212.399993896</ele>
        <time>2015-12-22T12:03:13.384Z</time>
      </trkpt>
      <trkpt lat="45.94019" lon="4.80446">
        <ele>212.199996948</ele>
        <time>2015-12-22T12:03:14.35Z</time>
      </trkpt>
      <trkpt lat="45.94019" lon="4.80446">
        <ele>212.199996948</ele>
        <time>2015-12-22T12:03:14.38Z</time>
      </trkpt>
      <trkpt lat="45.94017" lon="4.80431">
        <ele>211.5</ele>
        <time>2015-12-22T12:03:15.351Z</time>
      </trkpt>
      <trkpt lat="45.94017" lon="4.80431">
        <ele>211.5</ele>
        <time>2015-12-22T12:03:15.373Z</time>
      </trkpt>
      <trkpt lat="45.94014" lon="4.80416">
        <ele>210.600006104</ele>
        <time>2015-12-22T12:03:16.35Z</time>
      </trkpt>
      <trkpt lat="45.94014" lon="4.80416">
        <ele>210.600006104</ele>
        <time>2015-12-22T12:03:16.371Z</time>
      </trkpt>
      <trkpt lat="45.9401" lon="4.80401">
        <ele>209.899993896</ele>
        <time>2015-12-22T12:03:17.353Z</time>
      </trkpt>
      <trkpt lat="45.9401" lon="4.80401">
        <ele>209.899993896</ele>
        <time>2015-12-22T12:03:17.382Z</time>
      </trkpt>
      <trkpt lat="45.94006" lon="4.80387">
        <ele>209.199996948</ele>
        <time>2015-12-22T12:03:18.357Z</time>
      </trkpt>
      <trkpt lat="45.94006" lon="4.80387">
        <ele>209.199996948</ele>
        <time>2015-12-22T12:03:18.382Z</time>
      </trkpt>
      <trkpt lat="45.94002" lon="4.80372">
        <ele>208.899993896</ele>
        <time>2015-12-22T12:03:19.353Z</time>
      </trkpt>
      <trkpt lat="45.94002" lon="4.80372">
        <ele>208.899993896</ele>
        <time>2015-12-22T12:03:19.379Z</time>
      </trkpt>
      <trkpt lat="45.93998" lon="4.80358">
        <ele>208.300003052</ele>
        <time>2015-12-22T12:03:20.35Z</time>
      </trkpt>
      <trkpt lat="45.93998" lon="4.80358">
        <ele>208.300003052</ele>
        <time>2015-12-22T12:03:20.373Z</time>
      </trkpt>
      <trkpt lat="45.93994" lon="4.80344">
        <ele>207.800003052</ele>
        <time>2015-12-22T12:03:21.351Z</time>
      </trkpt>
      <trkpt lat="45.93994" lon="4.80344">
        <ele>207.800003052</ele>
        <time>2015-12-22T12:03:21.377Z</time>
      </trkpt>
      <trkpt lat="45.9399" lon="4.8033">
        <ele>207.100006104</ele>
        <time>2015-12-22T12:03:22.35Z</time>
      </trkpt>
      <trkpt lat="45.9399" lon="4.8033">
        <ele>207.100006104</ele>
        <time>2015-12-22T12:03:22.371Z</time>
      </trkpt>
      <trkpt lat="45.93986" lon="4.80316">
        <ele>206.5</ele>
        <time>2015-12-22T12:03:23.35Z</time>
      </trkpt>
      <trkpt lat="45.93986" lon="4.80316">
        <ele>206.5</ele>
        <time>2015-12-22T12:03:23.393Z</time>
      </trkpt>
      <trkpt lat="45.93981" lon="4.80301">
        <ele>205.699996948</ele>
        <time>2015-12-22T12:03:24.354Z</time>
      </trkpt>
      <trkpt lat="45.93981" lon="4.80301">
        <ele>205.699996948</ele>
        <time>2015-12-22T12:03:24.38Z</time>
      </trkpt>
      <trkpt lat="45.93977" lon="4.80287">
        <ele>205.100006104</ele>
        <time>2015-12-22T12:03:25.357Z</time>
      </trkpt>
      <trkpt lat="45.93977" lon="4.80287">
        <ele>205.100006104</ele>
        <time>2015-12-22T12:03:25.384Z</time>
      </trkpt>
      <trkpt lat="45.93973" lon="4.80273">
        <ele>204.199996948</ele>
        <time>2015-12-22T12:03:26.35Z</time>
      </trkpt>
      <trkpt lat="45.93973" lon="4.80273">
        <ele>204.199996948</ele>
        <time>2015-12-22T12:03:26.381Z</time>
      </trkpt>
      <trkpt lat="45.9397" lon="4.80259">
        <ele>203.800003052</ele>
        <time>2015-12-22T12:03:27.354Z</time>
      </trkpt>
      <trkpt lat="45.9397" lon="4.80259">
        <ele>203.800003052</ele>
        <time>2015-12-22T12:03:27.382Z</time>
      </trkpt>
      <trkpt lat="45.93966" lon="4.80246">
        <ele>203.300003052</ele>
        <time>2015-12-22T12:03:28.368Z</time>
      </trkpt>
      <trkpt lat="45.93966" lon="4.80246">
        <ele>203.300003052</ele>
        <time>2015-12-22T12:03:28.398Z</time>
      </trkpt>
      <trkpt lat="45.93962" lon="4.80233">
        <ele>203</ele>
        <time>2015-12-22T12:03:29.354Z</time>
      </trkpt>
      <trkpt lat="45.93959" lon="4.80221">
        <ele>202.199996948</ele>
        <time>2015-12-22T12:03:30.371Z</time>
      </trkpt>
      <trkpt lat="45.93956" lon="4.80209">
        <ele>202</ele>
        <time>2015-12-22T12:03:31.355Z</time>
      </trkpt>
      <trkpt lat="45.93953" lon="4.80198">
        <ele>201.899993896</ele>
        <time>2015-12-22T12:03:32.493Z</time>
      </trkpt>
      <trkpt lat="45.93951" lon="4.80187">
        <ele>201.899993896</ele>
        <time>2015-12-22T12:03:33.353Z</time>
      </trkpt>
      <trkpt lat="45.93949" lon="4.80177">
        <ele>201.899993896</ele>
        <time>2015-12-22T12:03:34.381Z</time>
      </trkpt>
      <trkpt lat="45.93947" lon="4.80167">
        <ele>201.800003052</ele>
        <time>2015-12-22T12:03:35.351Z</time>
      </trkpt>
      <trkpt lat="45.93946" lon="4.80157">
        <ele>201.5</ele>
        <time>2015-12-22T12:03:36.37Z</time>
      </trkpt>
      <trkpt lat="45.93944" lon="4.80148">
        <ele>201.300003052</ele>
        <time>2015-12-22T12:03:37.353Z</time>
      </trkpt>
      <trkpt lat="45.93943" lon="4.80138">
        <ele>201.199996948</ele>
        <time>2015-12-22T12:03:38.369Z</time>
      </trkpt>
      <trkpt lat="45.93942" lon="4.80128">
        <ele>201.5</ele>
        <time>2015-12-22T12:03:39.355Z</time>
      </trkpt>
      <trkpt lat="45.93941" lon="4.80118">
        <ele>201.600006104</ele>
        <time>2015-12-22T12:03:40.371Z</time>
      </trkpt>
      <trkpt lat="45.9394" lon="4.80108">
        <ele>201.699996948</ele>
        <time>2015-12-22T12:03:41.353Z</time>
      </trkpt>
      <trkpt lat="45.93939" lon="4.80099">
        <ele>202.100006104</ele>
        <time>2015-12-22T12:03:42.371Z</time>
      </trkpt>
      <trkpt lat="45.93939" lon="4.80089">
        <ele>202.399993896</ele>
        <time>2015-12-22T12:03:43.354Z</time>
      </trkpt>
      <trkpt lat="45.93939" lon="4.80079">
        <ele>202.699996948</ele>
        <time>2015-12-22T12:03:44.371Z</time>
      </trkpt>
      <trkpt lat="45.9394" lon="4.8007">
        <ele>202.899993896</ele>
        <time>2015-12-22T12:03:45.352Z</time>
      </trkpt>
      <trkpt lat="45.9394" lon="4.8006">
        <ele>203.100006104</ele>
        <time>2015-12-22T12:03:46.37Z</time>
      </trkpt>
      <trkpt lat="45.93941" lon="4.8005">
        <ele>203.300003052</ele>
        <time>2015-12-22T12:03:47.353Z</time>
      </trkpt>
      <trkpt lat="45.93941" lon="4.80041">
        <ele>203.300003052</ele>
        <time>2015-12-22T12:03:48.369Z</time>
      </trkpt>
      <trkpt lat="45.93942" lon="4.80032">
        <ele>203.300003052</ele>
        <time>2015-12-22T12:03:49.358Z</time>
      </trkpt>
      <trkpt lat="45.93943" lon="4.80023">
        <ele>203.5</ele>
        <time>2015-12-22T12:03:50.37Z</time>
      </trkpt>
      <trkpt lat="45.93944" lon="4.80014">
        <ele>203.600006104</ele>
        <time>2015-12-22T12:03:51.351Z</time>
      </trkpt>
      <trkpt lat="45.93945" lon="4.80004">
        <ele>203.300003052</ele>
        <time>2015-12-22T12:03:52.37Z</time>
      </trkpt>
      <trkpt lat="45.93946" lon="4.79994">
        <ele>203.300003052</ele>
        <time>2015-12-22T12:03:53.35Z</time>
      </trkpt>
      <trkpt lat="45.93947" lon="4.79984">
        <ele>202.899993896</ele>
        <time>2015-12-22T12:03:54.506Z</time>
      </trkpt>
      <trkpt lat="45.93949" lon="4.79975">
        <ele>203.100006104</ele>
        <time>2015-12-22T12:03:55.354Z</time>
      </trkpt>
      <trkpt lat="45.9395" lon="4.79965">
        <ele>203.199996948</ele>
        <time>2015-12-22T12:03:56.391Z</time>
      </trkpt>
      <trkpt lat="45.93951" lon="4.79955">
        <ele>203.100006104</ele>
        <time>2015-12-22T12:03:57.352Z</time>
      </trkpt>
      <trkpt lat="45.93952" lon="4.79945">
        <ele>203.199996948</ele>
        <time>2015-12-22T12:03:58.371Z</time>
      </trkpt>
      <trkpt lat="45.93953" lon="4.79936">
        <ele>203.199996948</ele>
        <time>2015-12-22T12:03:59.371Z</time>
      </trkpt>
      <trkpt lat="45.93955" lon="4.79926">
        <ele>202.199996948</ele>
        <time>2015-12-22T12:04:00.371Z</time>
      </trkpt>
      <trkpt lat="45.93957" lon="4.79916">
        <ele>202.300003052</ele>
        <time>2015-12-22T12:04:01.354Z</time>
      </trkpt>
      <trkpt lat="45.93959" lon="4.79906">
        <ele>202.600006104</ele>
        <time>2015-12-22T12:04:02.369Z</time>
      </trkpt>
      <trkpt lat="45.9396" lon="4.79896">
        <ele>202.699996948</ele>
        <time>2015-12-22T12:04:03.351Z</time>
      </trkpt>
      <trkpt lat="45.93962" lon="4.79886">
        <ele>202.600006104</ele>
        <time>2015-12-22T12:04:04.37Z</time>
      </trkpt>
      <trkpt lat="45.93963" lon="4.79875">
        <ele>202.5</ele>
        <time>2015-12-22T12:04:05.353Z</time>
      </trkpt>
      <trkpt lat="45.93964" lon="4.79864">
        <ele>202.300003052</ele>
        <time>2015-12-22T12:04:06.37Z</time>
      </trkpt>
      <trkpt lat="45.93965" lon="4.79854">
        <ele>202.199996948</ele>
        <time>2015-12-22T12:04:07.357Z</time>
      </trkpt>
      <trkpt lat="45.93967" lon="4.79844">
        <ele>202.300003052</ele>
        <time>2015-12-22T12:04:08.37Z</time>
      </trkpt>
      <trkpt lat="45.93969" lon="4.79834">
        <ele>202.399993896</ele>
        <time>2015-12-22T12:04:09.353Z</time>
      </trkpt>
      <trkpt lat="45.93971" lon="4.79824">
        <ele>202.5</ele>
        <time>2015-12-22T12:04:10.369Z</time>
      </trkpt>
      <trkpt lat="45.93972" lon="4.79814">
        <ele>202.399993896</ele>
        <time>2015-12-22T12:04:11.35Z</time>
      </trkpt>
      <trkpt lat="45.93974" lon="4.79804">
        <ele>202.800003052</ele>
        <time>2015-12-22T12:04:12.386Z</time>
      </trkpt>
      <trkpt lat="45.93974" lon="4.79795">
        <ele>203.300003052</ele>
        <time>2015-12-22T12:04:13.353Z</time>
      </trkpt>
      <trkpt lat="45.93974" lon="4.79785">
        <ele>203.699996948</ele>
        <time>2015-12-22T12:04:14.37Z</time>
      </trkpt>
      <trkpt lat="45.93974" lon="4.79775">
        <ele>204.100006104</ele>
        <time>2015-12-22T12:04:15.354Z</time>
      </trkpt>
      <trkpt lat="45.93974" lon="4.79765">
        <ele>204.5</ele>
        <time>2015-12-22T12:04:16.369Z</time>
      </trkpt>
      <trkpt lat="45.93972" lon="4.79756">
        <ele>204.600006104</ele>
        <time>2015-12-22T12:04:17.373Z</time>
      </trkpt>
      <trkpt lat="45.93972" lon="4.79747">
        <ele>204.199996948</ele>
        <time>2015-12-22T12:04:18.37Z</time>
      </trkpt>
      <trkpt lat="45.93971" lon="4.79738">
        <ele>204.399993896</ele>
        <time>2015-12-22T12:04:19.354Z</time>
      </trkpt>
      <trkpt lat="45.9397" lon="4.79729">
        <ele>204.399993896</ele>
        <time>2015-12-22T12:04:20.387Z</time>
      </trkpt>
      <trkpt lat="45.93969" lon="4.7972">
        <ele>203.5</ele>
        <time>2015-12-22T12:04:21.354Z</time>
      </trkpt>
      <trkpt lat="45.93968" lon="4.7971">
        <ele>203.300003052</ele>
        <time>2015-12-22T12:04:22.37Z</time>
      </trkpt>
      <trkpt lat="45.93967" lon="4.79701">
        <ele>203.199996948</ele>
        <time>2015-12-22T12:04:23.35Z</time>
      </trkpt>
      <trkpt lat="45.93967" lon="4.79692">
        <ele>202.899993896</ele>
        <time>2015-12-22T12:04:24.377Z</time>
      </trkpt>
      <trkpt lat="45.93966" lon="4.79682">
        <ele>202.699996948</ele>
        <time>2015-12-22T12:04:25.353Z</time>
      </trkpt>
      <trkpt lat="45.93965" lon="4.79672">
        <ele>202.300003052</ele>
        <time>2015-12-22T12:04:26.371Z</time>
      </trkpt>
      <trkpt lat="45.93964" lon="4.79663">
        <ele>202.300003052</ele>
        <time>2015-12-22T12:04:27.352Z</time>
      </trkpt>
      <trkpt lat="45.93964" lon="4.79654">
        <ele>202.199996948</ele>
        <time>2015-12-22T12:04:28.37Z</time>
      </trkpt>
      <trkpt lat="45.93963" lon="4.79645">
        <ele>201.899993896</ele>
        <time>2015-12-22T12:04:29.354Z</time>
      </trkpt>
      <trkpt lat="45.93962" lon="4.79636">
        <ele>201.699996948</ele>
        <time>2015-12-22T12:04:30.371Z</time>
      </trkpt>
      <trkpt lat="45.93962" lon="4.79627">
        <ele>201.600006104</ele>
        <time>2015-12-22T12:04:31.355Z</time>
      </trkpt>
      <trkpt lat="45.93961" lon="4.79619">
        <ele>201.399993896</ele>
        <time>2015-12-22T12:04:32.371Z</time>
      </trkpt>
      <trkpt lat="45.9396" lon="4.7961">
        <ele>201.199996948</ele>
        <time>2015-12-22T12:04:33.353Z</time>
      </trkpt>
      <trkpt lat="45.9396" lon="4.79602">
        <ele>201.100006104</ele>
        <time>2015-12-22T12:04:34.383Z</time>
      </trkpt>
      <trkpt lat="45.93959" lon="4.79593">
        <ele>200.899993896</ele>
        <time>2015-12-22T12:04:35.35Z</time>
      </trkpt>
      <trkpt lat="45.93958" lon="4.79585">
        <ele>200.899993896</ele>
        <time>2015-12-22T12:04:36.386Z</time>
      </trkpt>
      <trkpt lat="45.93958" lon="4.79575">
        <ele>200.699996948</ele>
        <time>2015-12-22T12:04:37.353Z</time>
      </trkpt>
      <trkpt lat="45.93958" lon="4.79566">
        <ele>200.699996948</ele>
        <time>2015-12-22T12:04:38.407Z</time>
      </trkpt>
      <trkpt lat="45.93957" lon="4.79556">
        <ele>200.5</ele>
        <time>2015-12-22T12:04:39.352Z</time>
      </trkpt>
      <trkpt lat="45.93957" lon="4.79546">
        <ele>200.399993896</ele>
        <time>2015-12-22T12:04:40.523Z</time>
      </trkpt>
      <trkpt lat="45.93956" lon="4.79536">
        <ele>200.5</ele>
        <time>2015-12-22T12:04:41.35Z</time>
      </trkpt>
      <trkpt lat="45.93956" lon="4.79526">
        <ele>200.600006104</ele>
        <time>2015-12-22T12:04:42.371Z</time>
      </trkpt>
      <trkpt lat="45.93956" lon="4.79515">
        <ele>200.899993896</ele>
        <time>2015-12-22T12:04:43.398Z</time>
      </trkpt>
      <trkpt lat="45.93955" lon="4.79504">
        <ele>201</ele>
        <time>2015-12-22T12:04:44.371Z</time>
      </trkpt>
      <trkpt lat="45.93955" lon="4.79493">
        <ele>201</ele>
        <time>2015-12-22T12:04:45.353Z</time>
      </trkpt>
      <trkpt lat="45.93954" lon="4.79482">
        <ele>200.800003052</ele>
        <time>2015-12-22T12:04:46.372Z</time>
      </trkpt>
      <trkpt lat="45.93954" lon="4.79471">
        <ele>200.800003052</ele>
        <time>2015-12-22T12:04:47.352Z</time>
      </trkpt>
      <trkpt lat="45.93954" lon="4.79461">
        <ele>200.600006104</ele>
        <time>2015-12-22T12:04:48.371Z</time>
      </trkpt>
      <trkpt lat="45.93954" lon="4.7945">
        <ele>200.300003052</ele>
        <time>2015-12-22T12:04:49.356Z</time>
      </trkpt>
      <trkpt lat="45.93954" lon="4.79439">
        <ele>199.699996948</ele>
        <time>2015-12-22T12:04:50.37Z</time>
      </trkpt>
      <trkpt lat="45.93954" lon="4.79428">
        <ele>199.399993896</ele>
        <time>2015-12-22T12:04:51.351Z</time>
      </trkpt>
      <trkpt lat="45.93954" lon="4.79418">
        <ele>199.300003052</ele>
        <time>2015-12-22T12:04:52.385Z</time>
      </trkpt>
      <trkpt lat="45.93954" lon="4.79407">
        <ele>199.199996948</ele>
        <time>2015-12-22T12:04:53.354Z</time>
      </trkpt>
      <trkpt lat="45.93953" lon="4.79397">
        <ele>199.5</ele>
        <time>2015-12-22T12:04:54.37Z</time>
      </trkpt>
      <trkpt lat="45.93953" lon="4.79386">
        <ele>199.300003052</ele>
        <time>2015-12-22T12:04:55.355Z</time>
      </trkpt>
      <trkpt lat="45.93953" lon="4.79375">
        <ele>199.100006104</ele>
        <time>2015-12-22T12:04:56.371Z</time>
      </trkpt>
      <trkpt lat="45.93953" lon="4.79364">
        <ele>199.100006104</ele>
        <time>2015-12-22T12:04:57.353Z</time>
      </trkpt>
      <trkpt lat="45.93953" lon="4.79353">
        <ele>198.899993896</ele>
        <time>2015-12-22T12:04:58.371Z</time>
      </trkpt>
      <trkpt lat="45.93953" lon="4.79342">
        <ele>199.199996948</ele>
        <time>2015-12-22T12:04:59.352Z</time>
      </trkpt>
      <trkpt lat="45.93953" lon="4.79331">
        <ele>199.199996948</ele>
        <time>2015-12-22T12:05:00.371Z</time>
      </trkpt>
      <trkpt lat="45.93953" lon="4.7932">
        <ele>198.800003052</ele>
        <time>2015-12-22T12:05:01.345Z</time>
      </trkpt>
      <trkpt lat="45.93953" lon="4.79309">
        <ele>198.699996948</ele>
        <time>2015-12-22T12:05:02.392Z</time>
      </trkpt>
      <trkpt lat="45.93952" lon="4.79298">
        <ele>198.300003052</ele>
        <time>2015-12-22T12:05:03.353Z</time>
      </trkpt>
      <trkpt lat="45.93952" lon="4.79286">
        <ele>198.100006104</ele>
        <time>2015-12-22T12:05:04.479Z</time>
      </trkpt>
      <trkpt lat="45.93952" lon="4.79275">
        <ele>197.800003052</ele>
        <time>2015-12-22T12:05:05.354Z</time>
      </trkpt>
      <trkpt lat="45.93952" lon="4.79264">
        <ele>197.800003052</ele>
        <time>2015-12-22T12:05:06.371Z</time>
      </trkpt>
      <trkpt lat="45.93951" lon="4.79252">
        <ele>197.199996948</ele>
        <time>2015-12-22T12:05:07.355Z</time>
      </trkpt>
      <trkpt lat="45.9395" lon="4.79242">
        <ele>197</ele>
        <time>2015-12-22T12:05:08.415Z</time>
      </trkpt>
      <trkpt lat="45.9395" lon="4.79231">
        <ele>196.600006104</ele>
        <time>2015-12-22T12:05:09.353Z</time>
      </trkpt>
      <trkpt lat="45.9395" lon="4.79219">
        <ele>196.800003052</ele>
        <time>2015-12-22T12:05:10.37Z</time>
      </trkpt>
      <trkpt lat="45.9395" lon="4.79208">
        <ele>196.300003052</ele>
        <time>2015-12-22T12:05:11.35Z</time>
      </trkpt>
      <trkpt lat="45.93949" lon="4.79197">
        <ele>196.199996948</ele>
        <time>2015-12-22T12:05:12.372Z</time>
      </trkpt>
      <trkpt lat="45.93949" lon="4.79186">
        <ele>196.199996948</ele>
        <time>2015-12-22T12:05:13.356Z</time>
      </trkpt>
      <trkpt lat="45.93948" lon="4.79174">
        <ele>196.199996948</ele>
        <time>2015-12-22T12:05:14.371Z</time>
      </trkpt>
      <trkpt lat="45.93948" lon="4.79163">
        <ele>196.300003052</ele>
        <time>2015-12-22T12:05:15.471Z</time>
      </trkpt>
      <trkpt lat="45.93947" lon="4.79152">
        <ele>196.300003052</ele>
        <time>2015-12-22T12:05:16.371Z</time>
      </trkpt>
      <trkpt lat="45.93947" lon="4.79142">
        <ele>196.199996948</ele>
        <time>2015-12-22T12:05:17.352Z</time>
      </trkpt>
      <trkpt lat="45.93947" lon="4.79132">
        <ele>196.300003052</ele>
        <time>2015-12-22T12:05:18.386Z</time>
      </trkpt>
      <trkpt lat="45.93947" lon="4.79122">
        <ele>196.100006104</ele>
        <time>2015-12-22T12:05:19.355Z</time>
      </trkpt>
      <trkpt lat="45.93947" lon="4.79112">
        <ele>195.899993896</ele>
        <time>2015-12-22T12:05:20.371Z</time>
      </trkpt>
      <trkpt lat="45.93947" lon="4.79102">
        <ele>195.800003052</ele>
        <time>2015-12-22T12:05:21.352Z</time>
      </trkpt>
      <trkpt lat="45.93946" lon="4.79092">
        <ele>195.600006104</ele>
        <time>2015-12-22T12:05:22.38Z</time>
      </trkpt>
      <trkpt lat="45.93945" lon="4.79082">
        <ele>195.600006104</ele>
        <time>2015-12-22T12:05:23.35Z</time>
      </trkpt>
      <trkpt lat="45.93945" lon="4.79072">
        <ele>195.5</ele>
        <time>2015-12-22T12:05:24.371Z</time>
      </trkpt>
      <trkpt lat="45.93945" lon="4.79062">
        <ele>195.699996948</ele>
        <time>2015-12-22T12:05:25.353Z</time>
      </trkpt>
      <trkpt lat="45.93945" lon="4.79052">
        <ele>195.800003052</ele>
        <time>2015-12-22T12:05:26.52Z</time>
      </trkpt>
      <trkpt lat="45.93944" lon="4.79042">
        <ele>195.600006104</ele>
        <time>2015-12-22T12:05:27.353Z</time>
      </trkpt>
      <trkpt lat="45.93944" lon="4.79032">
        <ele>195.5</ele>
        <time>2015-12-22T12:05:28.37Z</time>
      </trkpt>
      <trkpt lat="45.93944" lon="4.79022">
        <ele>195.5</ele>
        <time>2015-12-22T12:05:29.351Z</time>
      </trkpt>
      <trkpt lat="45.93944" lon="4.79011">
        <ele>195.5</ele>
        <time>2015-12-22T12:05:30.37Z</time>
      </trkpt>
      <trkpt lat="45.93943" lon="4.79001">
        <ele>195.600006104</ele>
        <time>2015-12-22T12:05:31.354Z</time>
      </trkpt>
      <trkpt lat="45.93943" lon="4.7899">
        <ele>195.5</ele>
        <time>2015-12-22T12:05:32.371Z</time>
      </trkpt>
      <trkpt lat="45.93943" lon="4.7898">
        <ele>195.399993896</ele>
        <time>2015-12-22T12:05:33.352Z</time>
      </trkpt>
      <trkpt lat="45.93943" lon="4.7897">
        <ele>195.199996948</ele>
        <time>2015-12-22T12:05:34.37Z</time>
      </trkpt>
      <trkpt lat="45.93942" lon="4.78959">
        <ele>195</ele>
        <time>2015-12-22T12:05:35.35Z</time>
      </trkpt>
      <trkpt lat="45.93942" lon="4.78949">
        <ele>194.899993896</ele>
        <time>2015-12-22T12:05:36.37Z</time>
      </trkpt>
      <trkpt lat="45.93942" lon="4.78938">
        <ele>194.899993896</ele>
        <time>2015-12-22T12:05:37.355Z</time>
      </trkpt>
      <trkpt lat="45.93941" lon="4.78927">
        <ele>194.399993896</ele>
        <time>2015-12-22T12:05:38.374Z</time>
      </trkpt>
      <trkpt lat="45.93941" lon="4.78916">
        <ele>194.399993896</ele>
        <time>2015-12-22T12:05:39.353Z</time>
      </trkpt>
      <trkpt lat="45.93941" lon="4.78904">
        <ele>193.800003052</ele>
        <time>2015-12-22T12:05:40.37Z</time>
      </trkpt>
      <trkpt lat="45.93942" lon="4.78893">
        <ele>193.800003052</ele>
        <time>2015-12-22T12:05:41.354Z</time>
      </trkpt>
      <trkpt lat="45.93942" lon="4.78882">
        <ele>193.5</ele>
        <time>2015-12-22T12:05:42.425Z</time>
      </trkpt>
      <trkpt lat="45.93941" lon="4.78872">
        <ele>193.199996948</ele>
        <time>2015-12-22T12:05:43.353Z</time>
      </trkpt>
      <trkpt lat="45.93941" lon="4.78861">
        <ele>192.899993896</ele>
        <time>2015-12-22T12:05:44.37Z</time>
      </trkpt>
      <trkpt lat="45.9394" lon="4.7885">
        <ele>192.800003052</ele>
        <time>2015-12-22T12:05:45.352Z</time>
      </trkpt>
      <trkpt lat="45.9394" lon="4.78839">
        <ele>193.300003052</ele>
        <time>2015-12-22T12:05:46.371Z</time>
      </trkpt>
      <trkpt lat="45.93939" lon="4.78828">
        <ele>193.199996948</ele>
        <time>2015-12-22T12:05:47.373Z</time>
      </trkpt>
      <trkpt lat="45.93939" lon="4.78817">
        <ele>193</ele>
        <time>2015-12-22T12:05:48.408Z</time>
      </trkpt>
      <trkpt lat="45.93939" lon="4.78806">
        <ele>192.5</ele>
        <time>2015-12-22T12:05:49.373Z</time>
      </trkpt>
      <trkpt lat="45.93939" lon="4.78795">
        <ele>192.600006104</ele>
        <time>2015-12-22T12:05:50.502Z</time>
      </trkpt>
      <trkpt lat="45.93938" lon="4.78785">
        <ele>192.800003052</ele>
        <time>2015-12-22T12:05:51.353Z</time>
      </trkpt>
      <trkpt lat="45.93938" lon="4.78775">
        <ele>193</ele>
        <time>2015-12-22T12:05:52.376Z</time>
      </trkpt>
      <trkpt lat="45.93939" lon="4.78766">
        <ele>193.300003052</ele>
        <time>2015-12-22T12:05:53.35Z</time>
      </trkpt>
      <trkpt lat="45.93938" lon="4.78756">
        <ele>193.699996948</ele>
        <time>2015-12-22T12:05:54.371Z</time>
      </trkpt>
      <trkpt lat="45.93939" lon="4.78747">
        <ele>193.899993896</ele>
        <time>2015-12-22T12:05:55.354Z</time>
      </trkpt>
      <trkpt lat="45.93939" lon="4.78738">
        <ele>194</ele>
        <time>2015-12-22T12:05:56.371Z</time>
      </trkpt>
      <trkpt lat="45.93939" lon="4.78729">
        <ele>194.399993896</ele>
        <time>2015-12-22T12:05:57.353Z</time>
      </trkpt>
      <trkpt lat="45.93939" lon="4.7872">
        <ele>194.699996948</ele>
        <time>2015-12-22T12:05:58.371Z</time>
      </trkpt>
      <trkpt lat="45.93938" lon="4.78712">
        <ele>195.100006104</ele>
        <time>2015-12-22T12:05:59.351Z</time>
      </trkpt>
      <trkpt lat="45.93938" lon="4.78703">
        <ele>195</ele>
        <time>2015-12-22T12:06:00.371Z</time>
      </trkpt>
      <trkpt lat="45.93938" lon="4.78694">
        <ele>195.399993896</ele>
        <time>2015-12-22T12:06:01.354Z</time>
      </trkpt>
      <trkpt lat="45.93938" lon="4.78686">
        <ele>195.600006104</ele>
        <time>2015-12-22T12:06:02.371Z</time>
      </trkpt>
      <trkpt lat="45.93938" lon="4.78677">
        <ele>195.699996948</ele>
        <time>2015-12-22T12:06:03.355Z</time>
      </trkpt>
      <trkpt lat="45.93938" lon="4.78668">
        <ele>195.800003052</ele>
        <time>2015-12-22T12:06:04.374Z</time>
      </trkpt>
      <trkpt lat="45.93938" lon="4.78659">
        <ele>196</ele>
        <time>2015-12-22T12:06:05.354Z</time>
      </trkpt>
      <trkpt lat="45.93938" lon="4.78651">
        <ele>195.699996948</ele>
        <time>2015-12-22T12:06:06.37Z</time>
      </trkpt>
      <trkpt lat="45.93938" lon="4.78643">
        <ele>195.699996948</ele>
        <time>2015-12-22T12:06:07.355Z</time>
      </trkpt>
      <trkpt lat="45.93938" lon="4.78636">
        <ele>195.699996948</ele>
        <time>2015-12-22T12:06:08.372Z</time>
      </trkpt>
      <trkpt lat="45.93938" lon="4.78629">
        <ele>195.899993896</ele>
        <time>2015-12-22T12:06:09.355Z</time>
      </trkpt>
      <trkpt lat="45.93937" lon="4.78622">
        <ele>195.699996948</ele>
        <time>2015-12-22T12:06:10.386Z</time>
      </trkpt>
      <trkpt lat="45.93937" lon="4.78615">
        <ele>195.699996948</ele>
        <time>2015-12-22T12:06:11.352Z</time>
      </trkpt>
      <trkpt lat="45.93937" lon="4.78609">
        <ele>195.600006104</ele>
        <time>2015-12-22T12:06:12.496Z</time>
      </trkpt>
      <trkpt lat="45.93936" lon="4.78602">
        <ele>195.699996948</ele>
        <time>2015-12-22T12:06:13.354Z</time>
      </trkpt>
      <trkpt lat="45.93936" lon="4.78595">
        <ele>195.600006104</ele>
        <time>2015-12-22T12:06:14.371Z</time>
      </trkpt>
      <trkpt lat="45.93936" lon="4.78588">
        <ele>195.899993896</ele>
        <time>2015-12-22T12:06:15.353Z</time>
      </trkpt>
      <trkpt lat="45.93936" lon="4.78575">
        <ele>195.899993896</ele>
        <time>2015-12-22T12:06:17.371Z</time>
      </trkpt>
      <trkpt lat="45.93935" lon="4.7857">
        <ele>195.399993896</ele>
        <time>2015-12-22T12:06:18.352Z</time>
      </trkpt>
      <trkpt lat="45.93932" lon="4.7856">
        <ele>194.5</ele>
        <time>2015-12-22T12:06:21.373Z</time>
      </trkpt>
      <trkpt lat="45.93931" lon="4.78557">
        <ele>194.600006104</ele>
        <time>2015-12-22T12:06:22.351Z</time>
      </trkpt>
      <trkpt lat="45.93934" lon="4.78544">
        <ele>194.699996948</ele>
        <time>2015-12-22T12:06:25.428Z</time>
      </trkpt>
      <trkpt lat="45.93935" lon="4.78539">
        <ele>195.100006104</ele>
        <time>2015-12-22T12:06:26.368Z</time>
      </trkpt>
      <trkpt lat="45.93936" lon="4.78528">
        <ele>195.600006104</ele>
        <time>2015-12-22T12:06:28.37Z</time>
      </trkpt>
      <trkpt lat="45.93937" lon="4.78522">
        <ele>196.100006104</ele>
        <time>2015-12-22T12:06:29.352Z</time>
      </trkpt>
      <trkpt lat="45.93938" lon="4.78511">
        <ele>196.800003052</ele>
        <time>2015-12-22T12:06:31.378Z</time>
      </trkpt>
      <trkpt lat="45.93939" lon="4.78505">
        <ele>196.899993896</ele>
        <time>2015-12-22T12:06:32.332Z</time>
      </trkpt>
      <trkpt lat="45.93941" lon="4.78493">
        <ele>197.699996948</ele>
        <time>2015-12-22T12:06:34.371Z</time>
      </trkpt>
      <trkpt lat="45.93942" lon="4.78487">
        <ele>198.100006104</ele>
        <time>2015-12-22T12:06:35.352Z</time>
      </trkpt>
      <trkpt lat="45.93943" lon="4.78481">
        <ele>198.199996948</ele>
        <time>2015-12-22T12:06:36.37Z</time>
      </trkpt>
      <trkpt lat="45.93944" lon="4.78474">
        <ele>198.199996948</ele>
        <time>2015-12-22T12:06:37.355Z</time>
      </trkpt>
      <trkpt lat="45.93944" lon="4.78468">
        <ele>198.199996948</ele>
        <time>2015-12-22T12:06:38.371Z</time>
      </trkpt>
      <trkpt lat="45.93945" lon="4.78461">
        <ele>198.300003052</ele>
        <time>2015-12-22T12:06:39.353Z</time>
      </trkpt>
      <trkpt lat="45.93946" lon="4.78455">
        <ele>198.600006104</ele>
        <time>2015-12-22T12:06:40.37Z</time>
      </trkpt>
      <trkpt lat="45.93947" lon="4.78448">
        <ele>198.699996948</ele>
        <time>2015-12-22T12:06:41.354Z</time>
      </trkpt>
      <trkpt lat="45.93948" lon="4.78441">
        <ele>198.699996948</ele>
        <time>2015-12-22T12:06:42.377Z</time>
      </trkpt>
      <trkpt lat="45.93947" lon="4.78433">
        <ele>198.300003052</ele>
        <time>2015-12-22T12:06:43.354Z</time>
      </trkpt>
      <trkpt lat="45.93947" lon="4.78425">
        <ele>198</ele>
        <time>2015-12-22T12:06:44.372Z</time>
      </trkpt>
      <trkpt lat="45.93948" lon="4.78418">
        <ele>197.899993896</ele>
        <time>2015-12-22T12:06:45.352Z</time>
      </trkpt>
      <trkpt lat="45.93949" lon="4.7841">
        <ele>198</ele>
        <time>2015-12-22T12:06:46.371Z</time>
      </trkpt>
      <trkpt lat="45.9395" lon="4.78402">
        <ele>198.399993896</ele>
        <time>2015-12-22T12:06:47.354Z</time>
      </trkpt>
      <trkpt lat="45.93952" lon="4.78394">
        <ele>198.800003052</ele>
        <time>2015-12-22T12:06:48.374Z</time>
      </trkpt>
      <trkpt lat="45.93953" lon="4.78386">
        <ele>199.399993896</ele>
        <time>2015-12-22T12:06:49.358Z</time>
      </trkpt>
      <trkpt lat="45.93954" lon="4.78379">
        <ele>200</ele>
        <time>2015-12-22T12:06:50.37Z</time>
      </trkpt>
      <trkpt lat="45.93955" lon="4.78372">
        <ele>200.100006104</ele>
        <time>2015-12-22T12:06:51.353Z</time>
      </trkpt>
      <trkpt lat="45.93956" lon="4.78365">
        <ele>200.199996948</ele>
        <time>2015-12-22T12:06:52.385Z</time>
      </trkpt>
      <trkpt lat="45.93957" lon="4.78358">
        <ele>200.399993896</ele>
        <time>2015-12-22T12:06:53.351Z</time>
      </trkpt>
      <trkpt lat="45.93958" lon="4.78351">
        <ele>200.399993896</ele>
        <time>2015-12-22T12:06:54.37Z</time>
      </trkpt>
      <trkpt lat="45.93959" lon="4.78345">
        <ele>200.699996948</ele>
        <time>2015-12-22T12:06:55.353Z</time>
      </trkpt>
      <trkpt lat="45.9396" lon="4.78338">
        <ele>200.800003052</ele>
        <time>2015-12-22T12:06:56.374Z</time>
      </trkpt>
      <trkpt lat="45.93961" lon="4.78332">
        <ele>201.100006104</ele>
        <time>2015-12-22T12:06:57.357Z</time>
      </trkpt>
      <trkpt lat="45.93962" lon="4.78325">
        <ele>201.199996948</ele>
        <time>2015-12-22T12:06:58.411Z</time>
      </trkpt>
      <trkpt lat="45.93963" lon="4.78319">
        <ele>201.199996948</ele>
        <time>2015-12-22T12:06:59.352Z</time>
      </trkpt>
      <trkpt lat="45.93964" lon="4.78313">
        <ele>201.300003052</ele>
        <time>2015-12-22T12:07:00.37Z</time>
      </trkpt>
      <trkpt lat="45.93965" lon="4.78306">
        <ele>201.300003052</ele>
        <time>2015-12-22T12:07:01.355Z</time>
      </trkpt>
      <trkpt lat="45.93965" lon="4.783">
        <ele>201.300003052</ele>
        <time>2015-12-22T12:07:02.37Z</time>
      </trkpt>
      <trkpt lat="45.93966" lon="4.78293">
        <ele>201.399993896</ele>
        <time>2015-12-22T12:07:03.352Z</time>
      </trkpt>
      <trkpt lat="45.93967" lon="4.78287">
        <ele>201.399993896</ele>
        <time>2015-12-22T12:07:04.419Z</time>
      </trkpt>
      <trkpt lat="45.93968" lon="4.78279">
        <ele>201.600006104</ele>
        <time>2015-12-22T12:07:05.351Z</time>
      </trkpt>
      <trkpt lat="45.93968" lon="4.78271">
        <ele>201.699996948</ele>
        <time>2015-12-22T12:07:06.371Z</time>
      </trkpt>
      <trkpt lat="45.93969" lon="4.78265">
        <ele>201.800003052</ele>
        <time>2015-12-22T12:07:07.355Z</time>
      </trkpt>
      <trkpt lat="45.93971" lon="4.78257">
        <ele>201.699996948</ele>
        <time>2015-12-22T12:07:08.37Z</time>
      </trkpt>
      <trkpt lat="45.93972" lon="4.7825">
        <ele>201.800003052</ele>
        <time>2015-12-22T12:07:09.354Z</time>
      </trkpt>
      <trkpt lat="45.93973" lon="4.78243">
        <ele>201.800003052</ele>
        <time>2015-12-22T12:07:10.37Z</time>
      </trkpt>
      <trkpt lat="45.93974" lon="4.78236">
        <ele>201.100006104</ele>
        <time>2015-12-22T12:07:11.354Z</time>
      </trkpt>
      <trkpt lat="45.93975" lon="4.78229">
        <ele>201.100006104</ele>
        <time>2015-12-22T12:07:12.371Z</time>
      </trkpt>
      <trkpt lat="45.93974" lon="4.78221">
        <ele>201.800003052</ele>
        <time>2015-12-22T12:07:13.372Z</time>
      </trkpt>
      <trkpt lat="45.93975" lon="4.78214">
        <ele>202.199996948</ele>
        <time>2015-12-22T12:07:14.371Z</time>
      </trkpt>
      <trkpt lat="45.93976" lon="4.78207">
        <ele>202.300003052</ele>
        <time>2015-12-22T12:07:15.353Z</time>
      </trkpt>
      <trkpt lat="45.93977" lon="4.782">
        <ele>202.399993896</ele>
        <time>2015-12-22T12:07:16.371Z</time>
      </trkpt>
      <trkpt lat="45.93978" lon="4.78194">
        <ele>202.399993896</ele>
        <time>2015-12-22T12:07:17.375Z</time>
      </trkpt>
      <trkpt lat="45.9398" lon="4.78187">
        <ele>202.5</ele>
        <time>2015-12-22T12:07:18.371Z</time>
      </trkpt>
      <trkpt lat="45.93983" lon="4.78181">
        <ele>203.100006104</ele>
        <time>2015-12-22T12:07:19.356Z</time>
      </trkpt>
      <trkpt lat="45.93987" lon="4.78171">
        <ele>204</ele>
        <time>2015-12-22T12:07:21.411Z</time>
      </trkpt>
      <trkpt lat="45.93989" lon="4.78165">
        <ele>204.100006104</ele>
        <time>2015-12-22T12:07:22.357Z</time>
      </trkpt>
      <trkpt lat="45.93991" lon="4.78159">
        <ele>204.300003052</ele>
        <time>2015-12-22T12:07:23.376Z</time>
      </trkpt>
      <trkpt lat="45.93991" lon="4.78152">
        <ele>204.600006104</ele>
        <time>2015-12-22T12:07:24.352Z</time>
      </trkpt>
      <trkpt lat="45.93992" lon="4.78145">
        <ele>204.600006104</ele>
        <time>2015-12-22T12:07:25.373Z</time>
      </trkpt>
      <trkpt lat="45.93993" lon="4.78139">
        <ele>205</ele>
        <time>2015-12-22T12:07:26.352Z</time>
      </trkpt>
      <trkpt lat="45.93994" lon="4.78131">
        <ele>205.899993896</ele>
        <time>2015-12-22T12:07:27.372Z</time>
      </trkpt>
      <trkpt lat="45.93995" lon="4.78123">
        <ele>206.699996948</ele>
        <time>2015-12-22T12:07:28.354Z</time>
      </trkpt>
      <trkpt lat="45.93997" lon="4.78115">
        <ele>207</ele>
        <time>2015-12-22T12:07:29.392Z</time>
      </trkpt>
      <trkpt lat="45.93999" lon="4.78107">
        <ele>207.5</ele>
        <time>2015-12-22T12:07:30.352Z</time>
      </trkpt>
      <trkpt lat="45.94" lon="4.78098">
        <ele>207.600006104</ele>
        <time>2015-12-22T12:07:31.374Z</time>
      </trkpt>
      <trkpt lat="45.94001" lon="4.7809">
        <ele>207.899993896</ele>
        <time>2015-12-22T12:07:32.351Z</time>
      </trkpt>
      <trkpt lat="45.94003" lon="4.78081">
        <ele>207.800003052</ele>
        <time>2015-12-22T12:07:33.371Z</time>
      </trkpt>
      <trkpt lat="45.94004" lon="4.78073">
        <ele>207.699996948</ele>
        <time>2015-12-22T12:07:34.354Z</time>
      </trkpt>
      <trkpt lat="45.94006" lon="4.78065">
        <ele>207.5</ele>
        <time>2015-12-22T12:07:35.374Z</time>
      </trkpt>
      <trkpt lat="45.94007" lon="4.78058">
        <ele>207.600006104</ele>
        <time>2015-12-22T12:07:36.352Z</time>
      </trkpt>
      <trkpt lat="45.9401" lon="4.7805">
        <ele>207.5</ele>
        <time>2015-12-22T12:07:37.374Z</time>
      </trkpt>
      <trkpt lat="45.94011" lon="4.78043">
        <ele>207.699996948</ele>
        <time>2015-12-22T12:07:38.351Z</time>
      </trkpt>
      <trkpt lat="45.94013" lon="4.78036">
        <ele>207.100006104</ele>
        <time>2015-12-22T12:07:39.386Z</time>
      </trkpt>
      <trkpt lat="45.94014" lon="4.78028">
        <ele>206.5</ele>
        <time>2015-12-22T12:07:40.35Z</time>
      </trkpt>
      <trkpt lat="45.94015" lon="4.7802">
        <ele>205.699996948</ele>
        <time>2015-12-22T12:07:41.37Z</time>
      </trkpt>
      <trkpt lat="45.94016" lon="4.78012">
        <ele>205.300003052</ele>
        <time>2015-12-22T12:07:42.35Z</time>
      </trkpt>
      <trkpt lat="45.94015" lon="4.78004">
        <ele>204.600006104</ele>
        <time>2015-12-22T12:07:43.379Z</time>
      </trkpt>
      <trkpt lat="45.94016" lon="4.77995">
        <ele>204</ele>
        <time>2015-12-22T12:07:44.351Z</time>
      </trkpt>
      <trkpt lat="45.94017" lon="4.77986">
        <ele>203.399993896</ele>
        <time>2015-12-22T12:07:45.371Z</time>
      </trkpt>
      <trkpt lat="45.94019" lon="4.77978">
        <ele>203.199996948</ele>
        <time>2015-12-22T12:07:46.352Z</time>
      </trkpt>
      <trkpt lat="45.9402" lon="4.77969">
        <ele>202.899993896</ele>
        <time>2015-12-22T12:07:47.37Z</time>
      </trkpt>
      <trkpt lat="45.94021" lon="4.77961">
        <ele>202.100006104</ele>
        <time>2015-12-22T12:07:48.353Z</time>
      </trkpt>
      <trkpt lat="45.94024" lon="4.77954">
        <ele>201.100006104</ele>
        <time>2015-12-22T12:07:49.38Z</time>
      </trkpt>
      <trkpt lat="45.94026" lon="4.77946">
        <ele>200.899993896</ele>
        <time>2015-12-22T12:07:50.354Z</time>
      </trkpt>
      <trkpt lat="45.94027" lon="4.77934">
        <ele>201.300003052</ele>
        <time>2015-12-22T12:07:52.415Z</time>
      </trkpt>
      <trkpt lat="45.94024" lon="4.77928">
        <ele>201.699996948</ele>
        <time>2015-12-22T12:07:53.354Z</time>
      </trkpt>
      <trkpt lat="45.9402" lon="4.77925">
        <ele>201.699996948</ele>
        <time>2015-12-22T12:07:54.382Z</time>
      </trkpt>
      <trkpt lat="45.94015" lon="4.77925">
        <ele>201.699996948</ele>
        <time>2015-12-22T12:07:55.371Z</time>
      </trkpt>
      <trkpt lat="45.94008" lon="4.77925">
        <ele>201.699996948</ele>
        <time>2015-12-22T12:07:56.371Z</time>
      </trkpt>
      <trkpt lat="45.94003" lon="4.77925">
        <ele>201.699996948</ele>
        <time>2015-12-22T12:07:57.353Z</time>
      </trkpt>
      <trkpt lat="45.93995" lon="4.77925">
        <ele>200.600006104</ele>
        <time>2015-12-22T12:07:58.369Z</time>
      </trkpt>
      <trkpt lat="45.93988" lon="4.77929">
        <ele>200.399993896</ele>
        <time>2015-12-22T12:07:59.351Z</time>
      </trkpt>
      <trkpt lat="45.93981" lon="4.77934">
        <ele>200.5</ele>
        <time>2015-12-22T12:08:00.372Z</time>
      </trkpt>
      <trkpt lat="45.93973" lon="4.77939">
        <ele>200.399993896</ele>
        <time>2015-12-22T12:08:01.355Z</time>
      </trkpt>
      <trkpt lat="45.93966" lon="4.77945">
        <ele>200.399993896</ele>
        <time>2015-12-22T12:08:02.413Z</time>
      </trkpt>
      <trkpt lat="45.93959" lon="4.77951">
        <ele>200.199996948</ele>
        <time>2015-12-22T12:08:03.353Z</time>
      </trkpt>
      <trkpt lat="45.93959" lon="4.77951">
        <ele>200.199996948</ele>
        <time>2015-12-22T12:08:03.377Z</time>
      </trkpt>
      <trkpt lat="45.9395" lon="4.77957">
        <ele>200.100006104</ele>
        <time>2015-12-22T12:08:04.354Z</time>
      </trkpt>
      <trkpt lat="45.9395" lon="4.77957">
        <ele>200.100006104</ele>
        <time>2015-12-22T12:08:04.373Z</time>
      </trkpt>
      <trkpt lat="45.93942" lon="4.77963">
        <ele>200</ele>
        <time>2015-12-22T12:08:05.352Z</time>
      </trkpt>
      <trkpt lat="45.93942" lon="4.77963">
        <ele>200</ele>
        <time>2015-12-22T12:08:05.372Z</time>
      </trkpt>
      <trkpt lat="45.93933" lon="4.77968">
        <ele>199.800003052</ele>
        <time>2015-12-22T12:08:06.354Z</time>
      </trkpt>
      <trkpt lat="45.93925" lon="4.77974">
        <ele>199.699996948</ele>
        <time>2015-12-22T12:08:07.375Z</time>
      </trkpt>
      <trkpt lat="45.93917" lon="4.77979">
        <ele>199.5</ele>
        <time>2015-12-22T12:08:08.354Z</time>
      </trkpt>
      <trkpt lat="45.9391" lon="4.77986">
        <ele>199.199996948</ele>
        <time>2015-12-22T12:08:09.372Z</time>
      </trkpt>
      <trkpt lat="45.93901" lon="4.77992">
        <ele>197.800003052</ele>
        <time>2015-12-22T12:08:10.352Z</time>
      </trkpt>
      <trkpt lat="45.93894" lon="4.77999">
        <ele>196.5</ele>
        <time>2015-12-22T12:08:11.369Z</time>
      </trkpt>
      <trkpt lat="45.93888" lon="4.78005">
        <ele>195.5</ele>
        <time>2015-12-22T12:08:12.351Z</time>
      </trkpt>
      <trkpt lat="45.93882" lon="4.78011">
        <ele>194.699996948</ele>
        <time>2015-12-22T12:08:13.384Z</time>
      </trkpt>
      <trkpt lat="45.93875" lon="4.78012">
        <ele>193.699996948</ele>
        <time>2015-12-22T12:08:14.357Z</time>
      </trkpt>
      <trkpt lat="45.93869" lon="4.78012">
        <ele>193.100006104</ele>
        <time>2015-12-22T12:08:15.376Z</time>
      </trkpt>
      <trkpt lat="45.93864" lon="4.78009">
        <ele>192.699996948</ele>
        <time>2015-12-22T12:08:16.411Z</time>
      </trkpt>
      <trkpt lat="45.93859" lon="4.78003">
        <ele>192.199996948</ele>
        <time>2015-12-22T12:08:17.371Z</time>
      </trkpt>
      <trkpt lat="45.93854" lon="4.77998">
        <ele>191.699996948</ele>
        <time>2015-12-22T12:08:18.352Z</time>
      </trkpt>
      <trkpt lat="45.93849" lon="4.77993">
        <ele>191.300003052</ele>
        <time>2015-12-22T12:08:19.373Z</time>
      </trkpt>
      <trkpt lat="45.93843" lon="4.77989">
        <ele>190.800003052</ele>
        <time>2015-12-22T12:08:20.353Z</time>
      </trkpt>
      <trkpt lat="45.93837" lon="4.77984">
        <ele>190</ele>
        <time>2015-12-22T12:08:21.386Z</time>
      </trkpt>
      <trkpt lat="45.93834" lon="4.7798">
        <ele>187.600006104</ele>
        <time>2015-12-22T12:08:22.35Z</time>
      </trkpt>
      <trkpt lat="45.9383" lon="4.77974">
        <ele>186.399993896</ele>
        <time>2015-12-22T12:08:23.384Z</time>
      </trkpt>
      <trkpt lat="45.93827" lon="4.77968">
        <ele>184.699996948</ele>
        <time>2015-12-22T12:08:24.35Z</time>
      </trkpt>
      <trkpt lat="45.93822" lon="4.77962">
        <ele>183.600006104</ele>
        <time>2015-12-22T12:08:25.374Z</time>
      </trkpt>
      <trkpt lat="45.93819" lon="4.77956">
        <ele>182.100006104</ele>
        <time>2015-12-22T12:08:26.354Z</time>
      </trkpt>
      <trkpt lat="45.93815" lon="4.77949">
        <ele>181.100006104</ele>
        <time>2015-12-22T12:08:27.372Z</time>
      </trkpt>
      <trkpt lat="45.9381" lon="4.77943">
        <ele>180</ele>
        <time>2015-12-22T12:08:28.35Z</time>
      </trkpt>
      <trkpt lat="45.93806" lon="4.77937">
        <ele>178.699996948</ele>
        <time>2015-12-22T12:08:29.378Z</time>
      </trkpt>
      <trkpt lat="45.93801" lon="4.77932">
        <ele>178.100006104</ele>
        <time>2015-12-22T12:08:30.352Z</time>
      </trkpt>
      <trkpt lat="45.93797" lon="4.77926">
        <ele>177.800003052</ele>
        <time>2015-12-22T12:08:31.411Z</time>
      </trkpt>
      <trkpt lat="45.93793" lon="4.7792">
        <ele>177.199996948</ele>
        <time>2015-12-22T12:08:32.352Z</time>
      </trkpt>
      <trkpt lat="45.93788" lon="4.77914">
        <ele>176.5</ele>
        <time>2015-12-22T12:08:33.371Z</time>
      </trkpt>
      <trkpt lat="45.93784" lon="4.77908">
        <ele>176.100006104</ele>
        <time>2015-12-22T12:08:34.351Z</time>
      </trkpt>
      <trkpt lat="45.9378" lon="4.77903">
        <ele>176</ele>
        <time>2015-12-22T12:08:35.37Z</time>
      </trkpt>
      <trkpt lat="45.93775" lon="4.77897">
        <ele>175.600006104</ele>
        <time>2015-12-22T12:08:36.351Z</time>
      </trkpt>
      <trkpt lat="45.93771" lon="4.77891">
        <ele>175.399993896</ele>
        <time>2015-12-22T12:08:37.374Z</time>
      </trkpt>
      <trkpt lat="45.93766" lon="4.77886">
        <ele>175</ele>
        <time>2015-12-22T12:08:38.354Z</time>
      </trkpt>
      <trkpt lat="45.93762" lon="4.7788">
        <ele>175</ele>
        <time>2015-12-22T12:08:39.372Z</time>
      </trkpt>
      <trkpt lat="45.93758" lon="4.77874">
        <ele>174.800003052</ele>
        <time>2015-12-22T12:08:40.353Z</time>
      </trkpt>
      <trkpt lat="45.93753" lon="4.77868">
        <ele>174.5</ele>
        <time>2015-12-22T12:08:41.424Z</time>
      </trkpt>
      <trkpt lat="45.93748" lon="4.77861">
        <ele>174.5</ele>
        <time>2015-12-22T12:08:42.375Z</time>
      </trkpt>
      <trkpt lat="45.93743" lon="4.77854">
        <ele>174.199996948</ele>
        <time>2015-12-22T12:08:43.373Z</time>
      </trkpt>
      <trkpt lat="45.93738" lon="4.77848">
        <ele>173.899993896</ele>
        <time>2015-12-22T12:08:44.35Z</time>
      </trkpt>
      <trkpt lat="45.93734" lon="4.77842">
        <ele>173.800003052</ele>
        <time>2015-12-22T12:08:45.393Z</time>
      </trkpt>
      <trkpt lat="45.93729" lon="4.77836">
        <ele>173.5</ele>
        <time>2015-12-22T12:08:46.351Z</time>
      </trkpt>
      <trkpt lat="45.93725" lon="4.7783">
        <ele>173.100006104</ele>
        <time>2015-12-22T12:08:47.37Z</time>
      </trkpt>
      <trkpt lat="45.9372" lon="4.77824">
        <ele>173</ele>
        <time>2015-12-22T12:08:48.351Z</time>
      </trkpt>
      <trkpt lat="45.93715" lon="4.77818">
        <ele>172.699996948</ele>
        <time>2015-12-22T12:08:49.377Z</time>
      </trkpt>
      <trkpt lat="45.9371" lon="4.77811">
        <ele>172.5</ele>
        <time>2015-12-22T12:08:50.351Z</time>
      </trkpt>
      <trkpt lat="45.93705" lon="4.77805">
        <ele>172.300003052</ele>
        <time>2015-12-22T12:08:51.372Z</time>
      </trkpt>
      <trkpt lat="45.93699" lon="4.77798">
        <ele>172.300003052</ele>
        <time>2015-12-22T12:08:52.352Z</time>
      </trkpt>
      <trkpt lat="45.93694" lon="4.77791">
        <ele>171.899993896</ele>
        <time>2015-12-22T12:08:53.372Z</time>
      </trkpt>
      <trkpt lat="45.93689" lon="4.77784">
        <ele>171.800003052</ele>
        <time>2015-12-22T12:08:54.351Z</time>
      </trkpt>
      <trkpt lat="45.93684" lon="4.77777">
        <ele>171.399993896</ele>
        <time>2015-12-22T12:08:55.373Z</time>
      </trkpt>
      <trkpt lat="45.93678" lon="4.77769">
        <ele>170.699996948</ele>
        <time>2015-12-22T12:08:56.351Z</time>
      </trkpt>
      <trkpt lat="45.93673" lon="4.77762">
        <ele>170.300003052</ele>
        <time>2015-12-22T12:08:57.373Z</time>
      </trkpt>
      <trkpt lat="45.93668" lon="4.77754">
        <ele>169.199996948</ele>
        <time>2015-12-22T12:08:58.351Z</time>
      </trkpt>
      <trkpt lat="45.93663" lon="4.77745">
        <ele>168.800003052</ele>
        <time>2015-12-22T12:08:59.377Z</time>
      </trkpt>
      <trkpt lat="45.93657" lon="4.77737">
        <ele>168.5</ele>
        <time>2015-12-22T12:09:00.351Z</time>
      </trkpt>
      <trkpt lat="45.93652" lon="4.77728">
        <ele>168.5</ele>
        <time>2015-12-22T12:09:01.381Z</time>
      </trkpt>
      <trkpt lat="45.93647" lon="4.77719">
        <ele>167.600006104</ele>
        <time>2015-12-22T12:09:02.354Z</time>
      </trkpt>
      <trkpt lat="45.93642" lon="4.77709">
        <ele>167.399993896</ele>
        <time>2015-12-22T12:09:03.386Z</time>
      </trkpt>
      <trkpt lat="45.93636" lon="4.77699">
        <ele>166.899993896</ele>
        <time>2015-12-22T12:09:04.354Z</time>
      </trkpt>
      <trkpt lat="45.93632" lon="4.77689">
        <ele>166.300003052</ele>
        <time>2015-12-22T12:09:05.369Z</time>
      </trkpt>
      <trkpt lat="45.93627" lon="4.77679">
        <ele>166</ele>
        <time>2015-12-22T12:09:06.356Z</time>
      </trkpt>
      <trkpt lat="45.93622" lon="4.77669">
        <ele>165.899993896</ele>
        <time>2015-12-22T12:09:07.38Z</time>
      </trkpt>
      <trkpt lat="45.93618" lon="4.77659">
        <ele>165.699996948</ele>
        <time>2015-12-22T12:09:08.354Z</time>
      </trkpt>
      <trkpt lat="45.93613" lon="4.77649">
        <ele>165.600006104</ele>
        <time>2015-12-22T12:09:09.372Z</time>
      </trkpt>
      <trkpt lat="45.93609" lon="4.7764">
        <ele>165.300003052</ele>
        <time>2015-12-22T12:09:10.351Z</time>
      </trkpt>
      <trkpt lat="45.93606" lon="4.7763">
        <ele>165</ele>
        <time>2015-12-22T12:09:11.37Z</time>
      </trkpt>
      <trkpt lat="45.93602" lon="4.77621">
        <ele>165</ele>
        <time>2015-12-22T12:09:12.35Z</time>
      </trkpt>
      <trkpt lat="45.93599" lon="4.77613">
        <ele>165</ele>
        <time>2015-12-22T12:09:13.374Z</time>
      </trkpt>
      <trkpt lat="45.93596" lon="4.77604">
        <ele>165.100006104</ele>
        <time>2015-12-22T12:09:14.35Z</time>
      </trkpt>
      <trkpt lat="45.93593" lon="4.77595">
        <ele>165.300003052</ele>
        <time>2015-12-22T12:09:15.371Z</time>
      </trkpt>
      <trkpt lat="45.93589" lon="4.77586">
        <ele>165.199996948</ele>
        <time>2015-12-22T12:09:16.354Z</time>
      </trkpt>
      <trkpt lat="45.93586" lon="4.77578">
        <ele>165.199996948</ele>
        <time>2015-12-22T12:09:17.378Z</time>
      </trkpt>
      <trkpt lat="45.93583" lon="4.77569">
        <ele>165.300003052</ele>
        <time>2015-12-22T12:09:18.351Z</time>
      </trkpt>
      <trkpt lat="45.93581" lon="4.7756">
        <ele>165.199996948</ele>
        <time>2015-12-22T12:09:19.374Z</time>
      </trkpt>
      <trkpt lat="45.93579" lon="4.77551">
        <ele>165.300003052</ele>
        <time>2015-12-22T12:09:20.351Z</time>
      </trkpt>
      <trkpt lat="45.93577" lon="4.77541">
        <ele>165.5</ele>
        <time>2015-12-22T12:09:21.371Z</time>
      </trkpt>
      <trkpt lat="45.93575" lon="4.77532">
        <ele>165.100006104</ele>
        <time>2015-12-22T12:09:22.35Z</time>
      </trkpt>
      <trkpt lat="45.93573" lon="4.77524">
        <ele>165</ele>
        <time>2015-12-22T12:09:23.371Z</time>
      </trkpt>
      <trkpt lat="45.9357" lon="4.77515">
        <ele>165</ele>
        <time>2015-12-22T12:09:24.354Z</time>
      </trkpt>
      <trkpt lat="45.93568" lon="4.77507">
        <ele>165.199996948</ele>
        <time>2015-12-22T12:09:25.374Z</time>
      </trkpt>
      <trkpt lat="45.93566" lon="4.77498">
        <ele>165.399993896</ele>
        <time>2015-12-22T12:09:26.35Z</time>
      </trkpt>
      <trkpt lat="45.93564" lon="4.77489">
        <ele>165.600006104</ele>
        <time>2015-12-22T12:09:27.371Z</time>
      </trkpt>
      <trkpt lat="45.93563" lon="4.7748">
        <ele>166</ele>
        <time>2015-12-22T12:09:28.351Z</time>
      </trkpt>
      <trkpt lat="45.93561" lon="4.77471">
        <ele>166.300003052</ele>
        <time>2015-12-22T12:09:29.385Z</time>
      </trkpt>
      <trkpt lat="45.93559" lon="4.77463">
        <ele>166.399993896</ele>
        <time>2015-12-22T12:09:30.351Z</time>
      </trkpt>
      <trkpt lat="45.93557" lon="4.77454">
        <ele>166.5</ele>
        <time>2015-12-22T12:09:31.396Z</time>
      </trkpt>
      <trkpt lat="45.93555" lon="4.77445">
        <ele>166.600006104</ele>
        <time>2015-12-22T12:09:32.353Z</time>
      </trkpt>
      <trkpt lat="45.93553" lon="4.77437">
        <ele>166.800003052</ele>
        <time>2015-12-22T12:09:33.375Z</time>
      </trkpt>
      <trkpt lat="45.93552" lon="4.77429">
        <ele>166.899993896</ele>
        <time>2015-12-22T12:09:34.35Z</time>
      </trkpt>
      <trkpt lat="45.9355" lon="4.77422">
        <ele>166.800003052</ele>
        <time>2015-12-22T12:09:35.37Z</time>
      </trkpt>
      <trkpt lat="45.93548" lon="4.77414">
        <ele>166.899993896</ele>
        <time>2015-12-22T12:09:36.35Z</time>
      </trkpt>
      <trkpt lat="45.93547" lon="4.77407">
        <ele>167</ele>
        <time>2015-12-22T12:09:37.373Z</time>
      </trkpt>
      <trkpt lat="45.93546" lon="4.77399">
        <ele>166.899993896</ele>
        <time>2015-12-22T12:09:38.353Z</time>
      </trkpt>
      <trkpt lat="45.93544" lon="4.77392">
        <ele>167.300003052</ele>
        <time>2015-12-22T12:09:39.371Z</time>
      </trkpt>
      <trkpt lat="45.93542" lon="4.77384">
        <ele>167.5</ele>
        <time>2015-12-22T12:09:40.352Z</time>
      </trkpt>
      <trkpt lat="45.93541" lon="4.77377">
        <ele>167.600006104</ele>
        <time>2015-12-22T12:09:41.407Z</time>
      </trkpt>
      <trkpt lat="45.93539" lon="4.77369">
        <ele>168</ele>
        <time>2015-12-22T12:09:42.351Z</time>
      </trkpt>
      <trkpt lat="45.93537" lon="4.77361">
        <ele>168</ele>
        <time>2015-12-22T12:09:43.384Z</time>
      </trkpt>
      <trkpt lat="45.93535" lon="4.77353">
        <ele>168.100006104</ele>
        <time>2015-12-22T12:09:44.354Z</time>
      </trkpt>
      <trkpt lat="45.93534" lon="4.77345">
        <ele>168.300003052</ele>
        <time>2015-12-22T12:09:45.39Z</time>
      </trkpt>
      <trkpt lat="45.93532" lon="4.77337">
        <ele>168.5</ele>
        <time>2015-12-22T12:09:46.35Z</time>
      </trkpt>
      <trkpt lat="45.93531" lon="4.77329">
        <ele>168.600006104</ele>
        <time>2015-12-22T12:09:47.37Z</time>
      </trkpt>
      <trkpt lat="45.93529" lon="4.77321">
        <ele>168.5</ele>
        <time>2015-12-22T12:09:48.35Z</time>
      </trkpt>
      <trkpt lat="45.93527" lon="4.77313">
        <ele>168.5</ele>
        <time>2015-12-22T12:09:49.417Z</time>
      </trkpt>
      <trkpt lat="45.93525" lon="4.77305">
        <ele>168.600006104</ele>
        <time>2015-12-22T12:09:50.351Z</time>
      </trkpt>
      <trkpt lat="45.93523" lon="4.77297">
        <ele>168.600006104</ele>
        <time>2015-12-22T12:09:51.387Z</time>
      </trkpt>
      <trkpt lat="45.93521" lon="4.77289">
        <ele>168.600006104</ele>
        <time>2015-12-22T12:09:52.351Z</time>
      </trkpt>
      <trkpt lat="45.9352" lon="4.7728">
        <ele>168.699996948</ele>
        <time>2015-12-22T12:09:53.371Z</time>
      </trkpt>
      <trkpt lat="45.93518" lon="4.77273">
        <ele>168.699996948</ele>
        <time>2015-12-22T12:09:54.35Z</time>
      </trkpt>
      <trkpt lat="45.93516" lon="4.77265">
        <ele>168.300003052</ele>
        <time>2015-12-22T12:09:55.372Z</time>
      </trkpt>
      <trkpt lat="45.93514" lon="4.77256">
        <ele>168.399993896</ele>
        <time>2015-12-22T12:09:56.35Z</time>
      </trkpt>
      <trkpt lat="45.93513" lon="4.77248">
        <ele>168.199996948</ele>
        <time>2015-12-22T12:09:57.37Z</time>
      </trkpt>
      <trkpt lat="45.93511" lon="4.7724">
        <ele>168.5</ele>
        <time>2015-12-22T12:09:58.354Z</time>
      </trkpt>
      <trkpt lat="45.9351" lon="4.77232">
        <ele>168.300003052</ele>
        <time>2015-12-22T12:09:59.382Z</time>
      </trkpt>
      <trkpt lat="45.93508" lon="4.77225">
        <ele>168.199996948</ele>
        <time>2015-12-22T12:10:00.351Z</time>
      </trkpt>
      <trkpt lat="45.93507" lon="4.77217">
        <ele>168.300003052</ele>
        <time>2015-12-22T12:10:01.373Z</time>
      </trkpt>
      <trkpt lat="45.93505" lon="4.7721">
        <ele>168.300003052</ele>
        <time>2015-12-22T12:10:02.35Z</time>
      </trkpt>
      <trkpt lat="45.93504" lon="4.77203">
        <ele>168.399993896</ele>
        <time>2015-12-22T12:10:03.372Z</time>
      </trkpt>
      <trkpt lat="45.93502" lon="4.77196">
        <ele>168.399993896</ele>
        <time>2015-12-22T12:10:04.344Z</time>
      </trkpt>
      <trkpt lat="45.93501" lon="4.77189">
        <ele>168.300003052</ele>
        <time>2015-12-22T12:10:05.369Z</time>
      </trkpt>
      <trkpt lat="45.93499" lon="4.77182">
        <ele>168.100006104</ele>
        <time>2015-12-22T12:10:06.35Z</time>
      </trkpt>
      <trkpt lat="45.93498" lon="4.77175">
        <ele>168.300003052</ele>
        <time>2015-12-22T12:10:07.373Z</time>
      </trkpt>
      <trkpt lat="45.93496" lon="4.77167">
        <ele>168.600006104</ele>
        <time>2015-12-22T12:10:08.35Z</time>
      </trkpt>
      <trkpt lat="45.93495" lon="4.7716">
        <ele>168.800003052</ele>
        <time>2015-12-22T12:10:09.371Z</time>
      </trkpt>
      <trkpt lat="45.93493" lon="4.77152">
        <ele>169</ele>
        <time>2015-12-22T12:10:10.35Z</time>
      </trkpt>
      <trkpt lat="45.93492" lon="4.77145">
        <ele>168.899993896</ele>
        <time>2015-12-22T12:10:11.384Z</time>
      </trkpt>
      <trkpt lat="45.9349" lon="4.77137">
        <ele>169</ele>
        <time>2015-12-22T12:10:12.351Z</time>
      </trkpt>
      <trkpt lat="45.93488" lon="4.7713">
        <ele>169.100006104</ele>
        <time>2015-12-22T12:10:13.373Z</time>
      </trkpt>
      <trkpt lat="45.93487" lon="4.77122">
        <ele>169.100006104</ele>
        <time>2015-12-22T12:10:14.398Z</time>
      </trkpt>
      <trkpt lat="45.93485" lon="4.77114">
        <ele>169.100006104</ele>
        <time>2015-12-22T12:10:15.371Z</time>
      </trkpt>
      <trkpt lat="45.93484" lon="4.77106">
        <ele>169.199996948</ele>
        <time>2015-12-22T12:10:16.333Z</time>
      </trkpt>
      <trkpt lat="45.93482" lon="4.77098">
        <ele>169.300003052</ele>
        <time>2015-12-22T12:10:17.37Z</time>
      </trkpt>
      <trkpt lat="45.9348" lon="4.77089">
        <ele>169.199996948</ele>
        <time>2015-12-22T12:10:18.351Z</time>
      </trkpt>
      <trkpt lat="45.93479" lon="4.77081">
        <ele>168.699996948</ele>
        <time>2015-12-22T12:10:19.373Z</time>
      </trkpt>
      <trkpt lat="45.93477" lon="4.77073">
        <ele>168.399993896</ele>
        <time>2015-12-22T12:10:20.35Z</time>
      </trkpt>
      <trkpt lat="45.93476" lon="4.77065">
        <ele>168.300003052</ele>
        <time>2015-12-22T12:10:21.371Z</time>
      </trkpt>
      <trkpt lat="45.93474" lon="4.77057">
        <ele>168.100006104</ele>
        <time>2015-12-22T12:10:22.354Z</time>
      </trkpt>
      <trkpt lat="45.93472" lon="4.77049">
        <ele>168</ele>
        <time>2015-12-22T12:10:23.369Z</time>
      </trkpt>
      <trkpt lat="45.93471" lon="4.77042">
        <ele>167.699996948</ele>
        <time>2015-12-22T12:10:24.353Z</time>
      </trkpt>
      <trkpt lat="45.9347" lon="4.77034">
        <ele>168</ele>
        <time>2015-12-22T12:10:25.376Z</time>
      </trkpt>
      <trkpt lat="45.93469" lon="4.77027">
        <ele>167.800003052</ele>
        <time>2015-12-22T12:10:26.35Z</time>
      </trkpt>
      <trkpt lat="45.93467" lon="4.77019">
        <ele>167.699996948</ele>
        <time>2015-12-22T12:10:27.371Z</time>
      </trkpt>
      <trkpt lat="45.93466" lon="4.7701">
        <ele>167.199996948</ele>
        <time>2015-12-22T12:10:28.35Z</time>
      </trkpt>
      <trkpt lat="45.93464" lon="4.77002">
        <ele>167.100006104</ele>
        <time>2015-12-22T12:10:29.37Z</time>
      </trkpt>
      <trkpt lat="45.93463" lon="4.76994">
        <ele>167.199996948</ele>
        <time>2015-12-22T12:10:30.351Z</time>
      </trkpt>
      <trkpt lat="45.93462" lon="4.76985">
        <ele>167.399993896</ele>
        <time>2015-12-22T12:10:31.373Z</time>
      </trkpt>
      <trkpt lat="45.93461" lon="4.76977">
        <ele>167.600006104</ele>
        <time>2015-12-22T12:10:32.367Z</time>
      </trkpt>
      <trkpt lat="45.9346" lon="4.76969">
        <ele>167.600006104</ele>
        <time>2015-12-22T12:10:33.371Z</time>
      </trkpt>
      <trkpt lat="45.93459" lon="4.76961">
        <ele>167.600006104</ele>
        <time>2015-12-22T12:10:34.352Z</time>
      </trkpt>
      <trkpt lat="45.93457" lon="4.76953">
        <ele>167.600006104</ele>
        <time>2015-12-22T12:10:35.37Z</time>
      </trkpt>
      <trkpt lat="45.93456" lon="4.76945">
        <ele>167.399993896</ele>
        <time>2015-12-22T12:10:36.35Z</time>
      </trkpt>
      <trkpt lat="45.93455" lon="4.76937">
        <ele>167.399993896</ele>
        <time>2015-12-22T12:10:37.374Z</time>
      </trkpt>
      <trkpt lat="45.93453" lon="4.76929">
        <ele>167.300003052</ele>
        <time>2015-12-22T12:10:38.354Z</time>
      </trkpt>
      <trkpt lat="45.93452" lon="4.76921">
        <ele>167.199996948</ele>
        <time>2015-12-22T12:10:39.372Z</time>
      </trkpt>
      <trkpt lat="45.9345" lon="4.76913">
        <ele>167.100006104</ele>
        <time>2015-12-22T12:10:40.354Z</time>
      </trkpt>
      <trkpt lat="45.93448" lon="4.76905">
        <ele>166.800003052</ele>
        <time>2015-12-22T12:10:41.37Z</time>
      </trkpt>
      <trkpt lat="45.93445" lon="4.76897">
        <ele>166.800003052</ele>
        <time>2015-12-22T12:10:42.353Z</time>
      </trkpt>
      <trkpt lat="45.93443" lon="4.76889">
        <ele>166.399993896</ele>
        <time>2015-12-22T12:10:43.372Z</time>
      </trkpt>
      <trkpt lat="45.9344" lon="4.76881">
        <ele>166.399993896</ele>
        <time>2015-12-22T12:10:44.354Z</time>
      </trkpt>
      <trkpt lat="45.93438" lon="4.76874">
        <ele>166.399993896</ele>
        <time>2015-12-22T12:10:45.372Z</time>
      </trkpt>
      <trkpt lat="45.93435" lon="4.76866">
        <ele>166.100006104</ele>
        <time>2015-12-22T12:10:46.35Z</time>
      </trkpt>
      <trkpt lat="45.93432" lon="4.7686">
        <ele>166</ele>
        <time>2015-12-22T12:10:47.379Z</time>
      </trkpt>
      <trkpt lat="45.93429" lon="4.76853">
        <ele>165.899993896</ele>
        <time>2015-12-22T12:10:48.35Z</time>
      </trkpt>
      <trkpt lat="45.93425" lon="4.76846">
        <ele>165.699996948</ele>
        <time>2015-12-22T12:10:49.377Z</time>
      </trkpt>
      <trkpt lat="45.93422" lon="4.7684">
        <ele>165.5</ele>
        <time>2015-12-22T12:10:50.353Z</time>
      </trkpt>
      <trkpt lat="45.93418" lon="4.76833">
        <ele>165.300003052</ele>
        <time>2015-12-22T12:10:51.411Z</time>
      </trkpt>
      <trkpt lat="45.93415" lon="4.76826">
        <ele>165</ele>
        <time>2015-12-22T12:10:52.35Z</time>
      </trkpt>
      <trkpt lat="45.93411" lon="4.7682">
        <ele>165</ele>
        <time>2015-12-22T12:10:53.384Z</time>
      </trkpt>
      <trkpt lat="45.93407" lon="4.76814">
        <ele>164.399993896</ele>
        <time>2015-12-22T12:10:54.35Z</time>
      </trkpt>
      <trkpt lat="45.93403" lon="4.76808">
        <ele>164.300003052</ele>
        <time>2015-12-22T12:10:55.373Z</time>
      </trkpt>
      <trkpt lat="45.93399" lon="4.76802">
        <ele>164</ele>
        <time>2015-12-22T12:10:56.35Z</time>
      </trkpt>
      <trkpt lat="45.93394" lon="4.76797">
        <ele>164.199996948</ele>
        <time>2015-12-22T12:10:57.371Z</time>
      </trkpt>
      <trkpt lat="45.9339" lon="4.76791">
        <ele>164.100006104</ele>
        <time>2015-12-22T12:10:58.35Z</time>
      </trkpt>
      <trkpt lat="45.93385" lon="4.76786">
        <ele>163.899993896</ele>
        <time>2015-12-22T12:10:59.37Z</time>
      </trkpt>
      <trkpt lat="45.9338" lon="4.76781">
        <ele>163.5</ele>
        <time>2015-12-22T12:11:00.35Z</time>
      </trkpt>
      <trkpt lat="45.93374" lon="4.76775">
        <ele>163.199996948</ele>
        <time>2015-12-22T12:11:01.393Z</time>
      </trkpt>
      <trkpt lat="45.93369" lon="4.7677">
        <ele>163.100006104</ele>
        <time>2015-12-22T12:11:02.354Z</time>
      </trkpt>
      <trkpt lat="45.93363" lon="4.76765">
        <ele>163.300003052</ele>
        <time>2015-12-22T12:11:03.384Z</time>
      </trkpt>
      <trkpt lat="45.93358" lon="4.76759">
        <ele>163.399993896</ele>
        <time>2015-12-22T12:11:04.35Z</time>
      </trkpt>
      <trkpt lat="45.93352" lon="4.76754">
        <ele>163.399993896</ele>
        <time>2015-12-22T12:11:05.507Z</time>
      </trkpt>
      <trkpt lat="45.93347" lon="4.76749">
        <ele>163.300003052</ele>
        <time>2015-12-22T12:11:06.351Z</time>
      </trkpt>
      <trkpt lat="45.93342" lon="4.76744">
        <ele>163.5</ele>
        <time>2015-12-22T12:11:07.373Z</time>
      </trkpt>
      <trkpt lat="45.93337" lon="4.76739">
        <ele>163.699996948</ele>
        <time>2015-12-22T12:11:08.35Z</time>
      </trkpt>
      <trkpt lat="45.93332" lon="4.76734">
        <ele>163.899993896</ele>
        <time>2015-12-22T12:11:09.371Z</time>
      </trkpt>
      <trkpt lat="45.93328" lon="4.76729">
        <ele>163.899993896</ele>
        <time>2015-12-22T12:11:10.35Z</time>
      </trkpt>
      <trkpt lat="45.93324" lon="4.76724">
        <ele>163.699996948</ele>
        <time>2015-12-22T12:11:11.369Z</time>
      </trkpt>
      <trkpt lat="45.93319" lon="4.76719">
        <ele>163.899993896</ele>
        <time>2015-12-22T12:11:12.35Z</time>
      </trkpt>
      <trkpt lat="45.93315" lon="4.76715">
        <ele>163.600006104</ele>
        <time>2015-12-22T12:11:13.386Z</time>
      </trkpt>
      <trkpt lat="45.9331" lon="4.76711">
        <ele>163.5</ele>
        <time>2015-12-22T12:11:14.347Z</time>
      </trkpt>
      <trkpt lat="45.93305" lon="4.76706">
        <ele>163.699996948</ele>
        <time>2015-12-22T12:11:15.371Z</time>
      </trkpt>
      <trkpt lat="45.93301" lon="4.76702">
        <ele>163.699996948</ele>
        <time>2015-12-22T12:11:16.352Z</time>
      </trkpt>
      <trkpt lat="45.93296" lon="4.76697">
        <ele>163.5</ele>
        <time>2015-12-22T12:11:17.374Z</time>
      </trkpt>
      <trkpt lat="45.93292" lon="4.76692">
        <ele>163.600006104</ele>
        <time>2015-12-22T12:11:18.352Z</time>
      </trkpt>
      <trkpt lat="45.93287" lon="4.76688">
        <ele>163.899993896</ele>
        <time>2015-12-22T12:11:19.394Z</time>
      </trkpt>
      <trkpt lat="45.93282" lon="4.76682">
        <ele>164</ele>
        <time>2015-12-22T12:11:20.35Z</time>
      </trkpt>
      <trkpt lat="45.93277" lon="4.76678">
        <ele>164</ele>
        <time>2015-12-22T12:11:21.37Z</time>
      </trkpt>
      <trkpt lat="45.93272" lon="4.76673">
        <ele>164.300003052</ele>
        <time>2015-12-22T12:11:22.35Z</time>
      </trkpt>
      <trkpt lat="45.93268" lon="4.76668">
        <ele>164.600006104</ele>
        <time>2015-12-22T12:11:23.37Z</time>
      </trkpt>
      <trkpt lat="45.93263" lon="4.76664">
        <ele>165</ele>
        <time>2015-12-22T12:11:24.35Z</time>
      </trkpt>
      <trkpt lat="45.93258" lon="4.76659">
        <ele>165</ele>
        <time>2015-12-22T12:11:25.422Z</time>
      </trkpt>
      <trkpt lat="45.93253" lon="4.76654">
        <ele>165.100006104</ele>
        <time>2015-12-22T12:11:26.35Z</time>
      </trkpt>
      <trkpt lat="45.93249" lon="4.7665">
        <ele>165.300003052</ele>
        <time>2015-12-22T12:11:27.465Z</time>
      </trkpt>
      <trkpt lat="45.93244" lon="4.76645">
        <ele>165.899993896</ele>
        <time>2015-12-22T12:11:28.351Z</time>
      </trkpt>
      <trkpt lat="45.93239" lon="4.76641">
        <ele>165.899993896</ele>
        <time>2015-12-22T12:11:29.37Z</time>
      </trkpt>
      <trkpt lat="45.93235" lon="4.76637">
        <ele>166.5</ele>
        <time>2015-12-22T12:11:30.351Z</time>
      </trkpt>
      <trkpt lat="45.93231" lon="4.76632">
        <ele>166.899993896</ele>
        <time>2015-12-22T12:11:31.379Z</time>
      </trkpt>
      <trkpt lat="45.93227" lon="4.76627">
        <ele>166.800003052</ele>
        <time>2015-12-22T12:11:32.35Z</time>
      </trkpt>
      <trkpt lat="45.93223" lon="4.76622">
        <ele>166.800003052</ele>
        <time>2015-12-22T12:11:33.37Z</time>
      </trkpt>
      <trkpt lat="45.93218" lon="4.76618">
        <ele>167</ele>
        <time>2015-12-22T12:11:34.351Z</time>
      </trkpt>
      <trkpt lat="45.93214" lon="4.76613">
        <ele>166.899993896</ele>
        <time>2015-12-22T12:11:35.388Z</time>
      </trkpt>
      <trkpt lat="45.93209" lon="4.76608">
        <ele>167</ele>
        <time>2015-12-22T12:11:36.354Z</time>
      </trkpt>
      <trkpt lat="45.93204" lon="4.76603">
        <ele>166.899993896</ele>
        <time>2015-12-22T12:11:37.373Z</time>
      </trkpt>
      <trkpt lat="45.93199" lon="4.76599">
        <ele>166.800003052</ele>
        <time>2015-12-22T12:11:38.35Z</time>
      </trkpt>
      <trkpt lat="45.93194" lon="4.76594">
        <ele>166.5</ele>
        <time>2015-12-22T12:11:39.37Z</time>
      </trkpt>
      <trkpt lat="45.93189" lon="4.76589">
        <ele>166.899993896</ele>
        <time>2015-12-22T12:11:40.35Z</time>
      </trkpt>
      <trkpt lat="45.93184" lon="4.76584">
        <ele>166.699996948</ele>
        <time>2015-12-22T12:11:41.371Z</time>
      </trkpt>
      <trkpt lat="45.93179" lon="4.76579">
        <ele>166.699996948</ele>
        <time>2015-12-22T12:11:42.356Z</time>
      </trkpt>
      <trkpt lat="45.93174" lon="4.76574">
        <ele>166.300003052</ele>
        <time>2015-12-22T12:11:43.376Z</time>
      </trkpt>
      <trkpt lat="45.93169" lon="4.7657">
        <ele>166</ele>
        <time>2015-12-22T12:11:44.35Z</time>
      </trkpt>
      <trkpt lat="45.93164" lon="4.76565">
        <ele>166.199996948</ele>
        <time>2015-12-22T12:11:45.423Z</time>
      </trkpt>
      <trkpt lat="45.9316" lon="4.76561">
        <ele>166.300003052</ele>
        <time>2015-12-22T12:11:46.375Z</time>
      </trkpt>
      <trkpt lat="45.93155" lon="4.76557">
        <ele>165.899993896</ele>
        <time>2015-12-22T12:11:47.37Z</time>
      </trkpt>
      <trkpt lat="45.93151" lon="4.76553">
        <ele>165.800003052</ele>
        <time>2015-12-22T12:11:48.353Z</time>
      </trkpt>
      <trkpt lat="45.93146" lon="4.76549">
        <ele>165.699996948</ele>
        <time>2015-12-22T12:11:49.655Z</time>
      </trkpt>
      <trkpt lat="45.93141" lon="4.76545">
        <ele>165.399993896</ele>
        <time>2015-12-22T12:11:50.35Z</time>
      </trkpt>
      <trkpt lat="45.93136" lon="4.7654">
        <ele>165.100006104</ele>
        <time>2015-12-22T12:11:51.377Z</time>
      </trkpt>
      <trkpt lat="45.93131" lon="4.76535">
        <ele>165</ele>
        <time>2015-12-22T12:11:52.354Z</time>
      </trkpt>
      <trkpt lat="45.93126" lon="4.7653">
        <ele>164.5</ele>
        <time>2015-12-22T12:11:53.37Z</time>
      </trkpt>
      <trkpt lat="45.93121" lon="4.76525">
        <ele>164.300003052</ele>
        <time>2015-12-22T12:11:54.35Z</time>
      </trkpt>
      <trkpt lat="45.93116" lon="4.7652">
        <ele>164.800003052</ele>
        <time>2015-12-22T12:11:55.374Z</time>
      </trkpt>
      <trkpt lat="45.93111" lon="4.76515">
        <ele>164.800003052</ele>
        <time>2015-12-22T12:11:56.35Z</time>
      </trkpt>
      <trkpt lat="45.93106" lon="4.7651">
        <ele>164.699996948</ele>
        <time>2015-12-22T12:11:57.37Z</time>
      </trkpt>
      <trkpt lat="45.93101" lon="4.76504">
        <ele>164.699996948</ele>
        <time>2015-12-22T12:11:58.35Z</time>
      </trkpt>
      <trkpt lat="45.93096" lon="4.76499">
        <ele>164.899993896</ele>
        <time>2015-12-22T12:11:59.37Z</time>
      </trkpt>
      <trkpt lat="45.93091" lon="4.76494">
        <ele>164.800003052</ele>
        <time>2015-12-22T12:12:00.398Z</time>
      </trkpt>
      <trkpt lat="45.93087" lon="4.76489">
        <ele>164.899993896</ele>
        <time>2015-12-22T12:12:01.387Z</time>
      </trkpt>
      <trkpt lat="45.93081" lon="4.76484">
        <ele>164.600006104</ele>
        <time>2015-12-22T12:12:02.354Z</time>
      </trkpt>
      <trkpt lat="45.93076" lon="4.76479">
        <ele>164.399993896</ele>
        <time>2015-12-22T12:12:03.379Z</time>
      </trkpt>
      <trkpt lat="45.93071" lon="4.76473">
        <ele>164.399993896</ele>
        <time>2015-12-22T12:12:04.35Z</time>
      </trkpt>
      <trkpt lat="45.93066" lon="4.76468">
        <ele>164.699996948</ele>
        <time>2015-12-22T12:12:05.37Z</time>
      </trkpt>
      <trkpt lat="45.93062" lon="4.76464">
        <ele>164.899993896</ele>
        <time>2015-12-22T12:12:06.35Z</time>
      </trkpt>
      <trkpt lat="45.93058" lon="4.76459">
        <ele>165.5</ele>
        <time>2015-12-22T12:12:07.373Z</time>
      </trkpt>
      <trkpt lat="45.93054" lon="4.76454">
        <ele>166.100006104</ele>
        <time>2015-12-22T12:12:08.353Z</time>
      </trkpt>
      <trkpt lat="45.9305" lon="4.7645">
        <ele>166.199996948</ele>
        <time>2015-12-22T12:12:09.375Z</time>
      </trkpt>
      <trkpt lat="45.93045" lon="4.76446">
        <ele>166</ele>
        <time>2015-12-22T12:12:10.35Z</time>
      </trkpt>
      <trkpt lat="45.93041" lon="4.76442">
        <ele>166.100006104</ele>
        <time>2015-12-22T12:12:11.37Z</time>
      </trkpt>
      <trkpt lat="45.93037" lon="4.76438">
        <ele>166.300003052</ele>
        <time>2015-12-22T12:12:12.35Z</time>
      </trkpt>
      <trkpt lat="45.93032" lon="4.76434">
        <ele>166.100006104</ele>
        <time>2015-12-22T12:12:13.389Z</time>
      </trkpt>
      <trkpt lat="45.93028" lon="4.7643">
        <ele>166.399993896</ele>
        <time>2015-12-22T12:12:14.35Z</time>
      </trkpt>
      <trkpt lat="45.93023" lon="4.76425">
        <ele>166.5</ele>
        <time>2015-12-22T12:12:15.371Z</time>
      </trkpt>
      <trkpt lat="45.93019" lon="4.7642">
        <ele>166.199996948</ele>
        <time>2015-12-22T12:12:16.35Z</time>
      </trkpt>
      <trkpt lat="45.93014" lon="4.76416">
        <ele>165.899993896</ele>
        <time>2015-12-22T12:12:17.375Z</time>
      </trkpt>
      <trkpt lat="45.9301" lon="4.76411">
        <ele>166.199996948</ele>
        <time>2015-12-22T12:12:18.35Z</time>
      </trkpt>
      <trkpt lat="45.93005" lon="4.76407">
        <ele>166.100006104</ele>
        <time>2015-12-22T12:12:19.373Z</time>
      </trkpt>
      <trkpt lat="45.93" lon="4.76402">
        <ele>166.100006104</ele>
        <time>2015-12-22T12:12:20.353Z</time>
      </trkpt>
      <trkpt lat="45.92996" lon="4.76398">
        <ele>166.100006104</ele>
        <time>2015-12-22T12:12:21.37Z</time>
      </trkpt>
      <trkpt lat="45.9299" lon="4.76394">
        <ele>166</ele>
        <time>2015-12-22T12:12:22.368Z</time>
      </trkpt>
      <trkpt lat="45.92986" lon="4.76389">
        <ele>166</ele>
        <time>2015-12-22T12:12:23.386Z</time>
      </trkpt>
      <trkpt lat="45.9298" lon="4.76384">
        <ele>166</ele>
        <time>2015-12-22T12:12:24.345Z</time>
      </trkpt>
      <trkpt lat="45.92975" lon="4.76379">
        <ele>165.899993896</ele>
        <time>2015-12-22T12:12:25.375Z</time>
      </trkpt>
      <trkpt lat="45.9297" lon="4.76374">
        <ele>165.899993896</ele>
        <time>2015-12-22T12:12:26.352Z</time>
      </trkpt>
      <trkpt lat="45.92965" lon="4.7637">
        <ele>165.899993896</ele>
        <time>2015-12-22T12:12:27.372Z</time>
      </trkpt>
      <trkpt lat="45.9296" lon="4.76364">
        <ele>166.199996948</ele>
        <time>2015-12-22T12:12:28.352Z</time>
      </trkpt>
      <trkpt lat="45.92955" lon="4.76359">
        <ele>166.100006104</ele>
        <time>2015-12-22T12:12:29.37Z</time>
      </trkpt>
      <trkpt lat="45.92951" lon="4.76355">
        <ele>166.300003052</ele>
        <time>2015-12-22T12:12:30.35Z</time>
      </trkpt>
      <trkpt lat="45.92946" lon="4.7635">
        <ele>166.699996948</ele>
        <time>2015-12-22T12:12:31.373Z</time>
      </trkpt>
      <trkpt lat="45.92942" lon="4.76345">
        <ele>166.899993896</ele>
        <time>2015-12-22T12:12:32.35Z</time>
      </trkpt>
      <trkpt lat="45.92937" lon="4.76341">
        <ele>167</ele>
        <time>2015-12-22T12:12:33.382Z</time>
      </trkpt>
      <trkpt lat="45.92933" lon="4.76336">
        <ele>167.199996948</ele>
        <time>2015-12-22T12:12:34.352Z</time>
      </trkpt>
      <trkpt lat="45.92928" lon="4.76332">
        <ele>167.5</ele>
        <time>2015-12-22T12:12:35.517Z</time>
      </trkpt>
      <trkpt lat="45.92924" lon="4.76327">
        <ele>167.5</ele>
        <time>2015-12-22T12:12:36.35Z</time>
      </trkpt>
      <trkpt lat="45.92919" lon="4.76323">
        <ele>167.600006104</ele>
        <time>2015-12-22T12:12:37.373Z</time>
      </trkpt>
      <trkpt lat="45.92915" lon="4.76318">
        <ele>168</ele>
        <time>2015-12-22T12:12:38.35Z</time>
      </trkpt>
      <trkpt lat="45.92911" lon="4.76314">
        <ele>168.199996948</ele>
        <time>2015-12-22T12:12:39.372Z</time>
      </trkpt>
      <trkpt lat="45.92906" lon="4.7631">
        <ele>168.300003052</ele>
        <time>2015-12-22T12:12:40.354Z</time>
      </trkpt>
      <trkpt lat="45.92902" lon="4.76305">
        <ele>168.699996948</ele>
        <time>2015-12-22T12:12:41.37Z</time>
      </trkpt>
      <trkpt lat="45.92897" lon="4.763">
        <ele>168.600006104</ele>
        <time>2015-12-22T12:12:42.373Z</time>
      </trkpt>
      <trkpt lat="45.92892" lon="4.76296">
        <ele>168.399993896</ele>
        <time>2015-12-22T12:12:43.389Z</time>
      </trkpt>
      <trkpt lat="45.92888" lon="4.7629">
        <ele>168.199996948</ele>
        <time>2015-12-22T12:12:44.35Z</time>
      </trkpt>
      <trkpt lat="45.92883" lon="4.76285">
        <ele>168.5</ele>
        <time>2015-12-22T12:12:45.398Z</time>
      </trkpt>
      <trkpt lat="45.92878" lon="4.76281">
        <ele>168.199996948</ele>
        <time>2015-12-22T12:12:46.365Z</time>
      </trkpt>
      <trkpt lat="45.92873" lon="4.76277">
        <ele>167.800003052</ele>
        <time>2015-12-22T12:12:47.424Z</time>
      </trkpt>
      <trkpt lat="45.92868" lon="4.76272">
        <ele>167.600006104</ele>
        <time>2015-12-22T12:12:48.348Z</time>
      </trkpt>
      <trkpt lat="45.92864" lon="4.76267">
        <ele>167.199996948</ele>
        <time>2015-12-22T12:12:49.379Z</time>
      </trkpt>
      <trkpt lat="45.9286" lon="4.76263">
        <ele>166.899993896</ele>
        <time>2015-12-22T12:12:50.365Z</time>
      </trkpt>
      <trkpt lat="45.92855" lon="4.76258">
        <ele>166.899993896</ele>
        <time>2015-12-22T12:12:51.404Z</time>
      </trkpt>
      <trkpt lat="45.92851" lon="4.76254">
        <ele>166.600006104</ele>
        <time>2015-12-22T12:12:52.348Z</time>
      </trkpt>
      <trkpt lat="45.92847" lon="4.7625">
        <ele>166.300003052</ele>
        <time>2015-12-22T12:12:53.374Z</time>
      </trkpt>
      <trkpt lat="45.92842" lon="4.76246">
        <ele>166.199996948</ele>
        <time>2015-12-22T12:12:54.357Z</time>
      </trkpt>
      <trkpt lat="45.92838" lon="4.76242">
        <ele>166</ele>
        <time>2015-12-22T12:12:55.373Z</time>
      </trkpt>
      <trkpt lat="45.92833" lon="4.76238">
        <ele>165.600006104</ele>
        <time>2015-12-22T12:12:56.351Z</time>
      </trkpt>
      <trkpt lat="45.92829" lon="4.76233">
        <ele>165.5</ele>
        <time>2015-12-22T12:12:57.378Z</time>
      </trkpt>
      <trkpt lat="45.92824" lon="4.76229">
        <ele>165.600006104</ele>
        <time>2015-12-22T12:12:58.35Z</time>
      </trkpt>
      <trkpt lat="45.92819" lon="4.76224">
        <ele>165.399993896</ele>
        <time>2015-12-22T12:12:59.37Z</time>
      </trkpt>
      <trkpt lat="45.92815" lon="4.7622">
        <ele>165.199996948</ele>
        <time>2015-12-22T12:13:00.354Z</time>
      </trkpt>
      <trkpt lat="45.9281" lon="4.76216">
        <ele>165.100006104</ele>
        <time>2015-12-22T12:13:01.378Z</time>
      </trkpt>
      <trkpt lat="45.92805" lon="4.76211">
        <ele>164.699996948</ele>
        <time>2015-12-22T12:13:02.35Z</time>
      </trkpt>
      <trkpt lat="45.92801" lon="4.76206">
        <ele>164.300003052</ele>
        <time>2015-12-22T12:13:03.371Z</time>
      </trkpt>
      <trkpt lat="45.92796" lon="4.76202">
        <ele>164.199996948</ele>
        <time>2015-12-22T12:13:04.367Z</time>
      </trkpt>
      <trkpt lat="45.92791" lon="4.76197">
        <ele>164.100006104</ele>
        <time>2015-12-22T12:13:05.369Z</time>
      </trkpt>
      <trkpt lat="45.92787" lon="4.76192">
        <ele>164.100006104</ele>
        <time>2015-12-22T12:13:06.35Z</time>
      </trkpt>
      <trkpt lat="45.92783" lon="4.76188">
        <ele>164.399993896</ele>
        <time>2015-12-22T12:13:07.372Z</time>
      </trkpt>
      <trkpt lat="45.92778" lon="4.76184">
        <ele>164.399993896</ele>
        <time>2015-12-22T12:13:08.351Z</time>
      </trkpt>
      <trkpt lat="45.92774" lon="4.7618">
        <ele>163.800003052</ele>
        <time>2015-12-22T12:13:09.371Z</time>
      </trkpt>
      <trkpt lat="45.9277" lon="4.76176">
        <ele>163.600006104</ele>
        <time>2015-12-22T12:13:10.352Z</time>
      </trkpt>
      <trkpt lat="45.92766" lon="4.76172">
        <ele>163.600006104</ele>
        <time>2015-12-22T12:13:11.37Z</time>
      </trkpt>
      <trkpt lat="45.92761" lon="4.76168">
        <ele>163.100006104</ele>
        <time>2015-12-22T12:13:12.351Z</time>
      </trkpt>
      <trkpt lat="45.92756" lon="4.76164">
        <ele>163.100006104</ele>
        <time>2015-12-22T12:13:13.417Z</time>
      </trkpt>
      <trkpt lat="45.92752" lon="4.7616">
        <ele>163.100006104</ele>
        <time>2015-12-22T12:13:14.351Z</time>
      </trkpt>
      <trkpt lat="45.92747" lon="4.76156">
        <ele>162.899993896</ele>
        <time>2015-12-22T12:13:15.392Z</time>
      </trkpt>
      <trkpt lat="45.92742" lon="4.76152">
        <ele>162.699996948</ele>
        <time>2015-12-22T12:13:16.351Z</time>
      </trkpt>
      <trkpt lat="45.92737" lon="4.76149">
        <ele>162.800003052</ele>
        <time>2015-12-22T12:13:17.371Z</time>
      </trkpt>
      <trkpt lat="45.92732" lon="4.76145">
        <ele>162.600006104</ele>
        <time>2015-12-22T12:13:18.35Z</time>
      </trkpt>
      <trkpt lat="45.92727" lon="4.76141">
        <ele>162.800003052</ele>
        <time>2015-12-22T12:13:19.386Z</time>
      </trkpt>
      <trkpt lat="45.92723" lon="4.76137">
        <ele>162.899993896</ele>
        <time>2015-12-22T12:13:20.351Z</time>
      </trkpt>
      <trkpt lat="45.92718" lon="4.76134">
        <ele>162.600006104</ele>
        <time>2015-12-22T12:13:21.372Z</time>
      </trkpt>
      <trkpt lat="45.92713" lon="4.7613">
        <ele>162.399993896</ele>
        <time>2015-12-22T12:13:22.35Z</time>
      </trkpt>
      <trkpt lat="45.92708" lon="4.76126">
        <ele>162.399993896</ele>
        <time>2015-12-22T12:13:23.371Z</time>
      </trkpt>
      <trkpt lat="45.92703" lon="4.76122">
        <ele>163.300003052</ele>
        <time>2015-12-22T12:13:24.35Z</time>
      </trkpt>
      <trkpt lat="45.92699" lon="4.76118">
        <ele>163.600006104</ele>
        <time>2015-12-22T12:13:25.372Z</time>
      </trkpt>
      <trkpt lat="45.92694" lon="4.76114">
        <ele>163.899993896</ele>
        <time>2015-12-22T12:13:26.353Z</time>
      </trkpt>
      <trkpt lat="45.92689" lon="4.76111">
        <ele>164.100006104</ele>
        <time>2015-12-22T12:13:27.374Z</time>
      </trkpt>
      <trkpt lat="45.92684" lon="4.76108">
        <ele>164.600006104</ele>
        <time>2015-12-22T12:13:28.35Z</time>
      </trkpt>
      <trkpt lat="45.92679" lon="4.76104">
        <ele>165.100006104</ele>
        <time>2015-12-22T12:13:29.371Z</time>
      </trkpt>
      <trkpt lat="45.92675" lon="4.76101">
        <ele>165.399993896</ele>
        <time>2015-12-22T12:13:30.351Z</time>
      </trkpt>
      <trkpt lat="45.92671" lon="4.76097">
        <ele>165.600006104</ele>
        <time>2015-12-22T12:13:31.374Z</time>
      </trkpt>
      <trkpt lat="45.92667" lon="4.76093">
        <ele>165.699996948</ele>
        <time>2015-12-22T12:13:32.35Z</time>
      </trkpt>
      <trkpt lat="45.92663" lon="4.7609">
        <ele>165.699996948</ele>
        <time>2015-12-22T12:13:33.377Z</time>
      </trkpt>
      <trkpt lat="45.92659" lon="4.76086">
        <ele>165.899993896</ele>
        <time>2015-12-22T12:13:34.346Z</time>
      </trkpt>
      <trkpt lat="45.92655" lon="4.76083">
        <ele>166</ele>
        <time>2015-12-22T12:13:35.458Z</time>
      </trkpt>
      <trkpt lat="45.92651" lon="4.7608">
        <ele>166.300003052</ele>
        <time>2015-12-22T12:13:36.354Z</time>
      </trkpt>
      <trkpt lat="45.92647" lon="4.76077">
        <ele>166.300003052</ele>
        <time>2015-12-22T12:13:37.374Z</time>
      </trkpt>
      <trkpt lat="45.92643" lon="4.76074">
        <ele>166.699996948</ele>
        <time>2015-12-22T12:13:38.351Z</time>
      </trkpt>
      <trkpt lat="45.92635" lon="4.76069">
        <ele>167.199996948</ele>
        <time>2015-12-22T12:13:40.369Z</time>
      </trkpt>
      <trkpt lat="45.92631" lon="4.76066">
        <ele>167.199996948</ele>
        <time>2015-12-22T12:13:41.35Z</time>
      </trkpt>
      <trkpt lat="45.92624" lon="4.7606">
        <ele>167.5</ele>
        <time>2015-12-22T12:13:43.372Z</time>
      </trkpt>
      <trkpt lat="45.9262" lon="4.76057">
        <ele>167.800003052</ele>
        <time>2015-12-22T12:13:44.35Z</time>
      </trkpt>
      <trkpt lat="45.92612" lon="4.76052">
        <ele>168.300003052</ele>
        <time>2015-12-22T12:13:46.384Z</time>
      </trkpt>
      <trkpt lat="45.92608" lon="4.7605">
        <ele>168.600006104</ele>
        <time>2015-12-22T12:13:47.354Z</time>
      </trkpt>
      <trkpt lat="45.926" lon="4.76044">
        <ele>169.399993896</ele>
        <time>2015-12-22T12:13:49.376Z</time>
      </trkpt>
      <trkpt lat="45.92596" lon="4.76041">
        <ele>169.699996948</ele>
        <time>2015-12-22T12:13:50.35Z</time>
      </trkpt>
      <trkpt lat="45.92589" lon="4.76035">
        <ele>170.199996948</ele>
        <time>2015-12-22T12:13:52.372Z</time>
      </trkpt>
      <trkpt lat="45.92585" lon="4.76032">
        <ele>170.5</ele>
        <time>2015-12-22T12:13:53.353Z</time>
      </trkpt>
      <trkpt lat="45.92581" lon="4.76029">
        <ele>170.699996948</ele>
        <time>2015-12-22T12:13:54.371Z</time>
      </trkpt>
      <trkpt lat="45.92576" lon="4.76027">
        <ele>170.899993896</ele>
        <time>2015-12-22T12:13:55.353Z</time>
      </trkpt>
      <trkpt lat="45.92572" lon="4.76024">
        <ele>170.699996948</ele>
        <time>2015-12-22T12:13:56.369Z</time>
      </trkpt>
      <trkpt lat="45.92568" lon="4.76021">
        <ele>170.899993896</ele>
        <time>2015-12-22T12:13:57.351Z</time>
      </trkpt>
      <trkpt lat="45.9256" lon="4.76015">
        <ele>171</ele>
        <time>2015-12-22T12:13:59.369Z</time>
      </trkpt>
      <trkpt lat="45.92556" lon="4.76012">
        <ele>171.199996948</ele>
        <time>2015-12-22T12:14:00.333Z</time>
      </trkpt>
      <trkpt lat="45.92552" lon="4.76009">
        <ele>171.199996948</ele>
        <time>2015-12-22T12:14:01.373Z</time>
      </trkpt>
      <trkpt lat="45.92547" lon="4.76006">
        <ele>171.199996948</ele>
        <time>2015-12-22T12:14:02.35Z</time>
      </trkpt>
      <trkpt lat="45.92543" lon="4.76003">
        <ele>171.199996948</ele>
        <time>2015-12-22T12:14:03.371Z</time>
      </trkpt>
      <trkpt lat="45.92539" lon="4.76">
        <ele>171.199996948</ele>
        <time>2015-12-22T12:14:04.35Z</time>
      </trkpt>
      <trkpt lat="45.92534" lon="4.75996">
        <ele>171.399993896</ele>
        <time>2015-12-22T12:14:05.371Z</time>
      </trkpt>
      <trkpt lat="45.9253" lon="4.75993">
        <ele>171.199996948</ele>
        <time>2015-12-22T12:14:06.35Z</time>
      </trkpt>
      <trkpt lat="45.92525" lon="4.7599">
        <ele>171.100006104</ele>
        <time>2015-12-22T12:14:07.373Z</time>
      </trkpt>
      <trkpt lat="45.92521" lon="4.75987">
        <ele>171.399993896</ele>
        <time>2015-12-22T12:14:08.397Z</time>
      </trkpt>
      <trkpt lat="45.92516" lon="4.75983">
        <ele>171.300003052</ele>
        <time>2015-12-22T12:14:09.371Z</time>
      </trkpt>
      <trkpt lat="45.92511" lon="4.7598">
        <ele>171</ele>
        <time>2015-12-22T12:14:10.35Z</time>
      </trkpt>
      <trkpt lat="45.92506" lon="4.75977">
        <ele>170.899993896</ele>
        <time>2015-12-22T12:14:11.372Z</time>
      </trkpt>
      <trkpt lat="45.92501" lon="4.75973">
        <ele>170.699996948</ele>
        <time>2015-12-22T12:14:12.367Z</time>
      </trkpt>
      <trkpt lat="45.92496" lon="4.7597">
        <ele>170.5</ele>
        <time>2015-12-22T12:14:13.372Z</time>
      </trkpt>
      <trkpt lat="45.92491" lon="4.75966">
        <ele>170.399993896</ele>
        <time>2015-12-22T12:14:14.35Z</time>
      </trkpt>
      <trkpt lat="45.92486" lon="4.75963">
        <ele>170.399993896</ele>
        <time>2015-12-22T12:14:15.371Z</time>
      </trkpt>
      <trkpt lat="45.92481" lon="4.75959">
        <ele>170.5</ele>
        <time>2015-12-22T12:14:16.35Z</time>
      </trkpt>
      <trkpt lat="45.92475" lon="4.75956">
        <ele>170.399993896</ele>
        <time>2015-12-22T12:14:17.369Z</time>
      </trkpt>
      <trkpt lat="45.9247" lon="4.75952">
        <ele>170.199996948</ele>
        <time>2015-12-22T12:14:18.349Z</time>
      </trkpt>
      <trkpt lat="45.92464" lon="4.75948">
        <ele>169.800003052</ele>
        <time>2015-12-22T12:14:19.492Z</time>
      </trkpt>
      <trkpt lat="45.92458" lon="4.75945">
        <ele>169.600006104</ele>
        <time>2015-12-22T12:14:20.353Z</time>
      </trkpt>
      <trkpt lat="45.92452" lon="4.75941">
        <ele>169.399993896</ele>
        <time>2015-12-22T12:14:21.37Z</time>
      </trkpt>
      <trkpt lat="45.92447" lon="4.75937">
        <ele>169.199996948</ele>
        <time>2015-12-22T12:14:22.354Z</time>
      </trkpt>
      <trkpt lat="45.92441" lon="4.75933">
        <ele>168.899993896</ele>
        <time>2015-12-22T12:14:23.37Z</time>
      </trkpt>
      <trkpt lat="45.92435" lon="4.75929">
        <ele>168.399993896</ele>
        <time>2015-12-22T12:14:24.35Z</time>
      </trkpt>
      <trkpt lat="45.92429" lon="4.75925">
        <ele>167.899993896</ele>
        <time>2015-12-22T12:14:25.372Z</time>
      </trkpt>
      <trkpt lat="45.92423" lon="4.75922">
        <ele>167.600006104</ele>
        <time>2015-12-22T12:14:26.35Z</time>
      </trkpt>
      <trkpt lat="45.92417" lon="4.75918">
        <ele>167.300003052</ele>
        <time>2015-12-22T12:14:27.422Z</time>
      </trkpt>
      <trkpt lat="45.9241" lon="4.75914">
        <ele>166.899993896</ele>
        <time>2015-12-22T12:14:28.349Z</time>
      </trkpt>
      <trkpt lat="45.92404" lon="4.75909">
        <ele>166.600006104</ele>
        <time>2015-12-22T12:14:29.373Z</time>
      </trkpt>
      <trkpt lat="45.92399" lon="4.75905">
        <ele>166.399993896</ele>
        <time>2015-12-22T12:14:30.349Z</time>
      </trkpt>
      <trkpt lat="45.92393" lon="4.75901">
        <ele>166.199996948</ele>
        <time>2015-12-22T12:14:31.373Z</time>
      </trkpt>
      <trkpt lat="45.92387" lon="4.75896">
        <ele>166</ele>
        <time>2015-12-22T12:14:32.354Z</time>
      </trkpt>
      <trkpt lat="45.92382" lon="4.75892">
        <ele>166</ele>
        <time>2015-12-22T12:14:33.37Z</time>
      </trkpt>
      <trkpt lat="45.92376" lon="4.75888">
        <ele>166</ele>
        <time>2015-12-22T12:14:34.35Z</time>
      </trkpt>
      <trkpt lat="45.92371" lon="4.75884">
        <ele>165.899993896</ele>
        <time>2015-12-22T12:14:35.37Z</time>
      </trkpt>
      <trkpt lat="45.92365" lon="4.75881">
        <ele>166</ele>
        <time>2015-12-22T12:14:36.353Z</time>
      </trkpt>
      <trkpt lat="45.9236" lon="4.75877">
        <ele>166</ele>
        <time>2015-12-22T12:14:37.381Z</time>
      </trkpt>
      <trkpt lat="45.92355" lon="4.75874">
        <ele>166.199996948</ele>
        <time>2015-12-22T12:14:38.358Z</time>
      </trkpt>
      <trkpt lat="45.9235" lon="4.7587">
        <ele>166.199996948</ele>
        <time>2015-12-22T12:14:39.372Z</time>
      </trkpt>
      <trkpt lat="45.92344" lon="4.75867">
        <ele>166.300003052</ele>
        <time>2015-12-22T12:14:40.349Z</time>
      </trkpt>
      <trkpt lat="45.92339" lon="4.75864">
        <ele>166.800003052</ele>
        <time>2015-12-22T12:14:41.468Z</time>
      </trkpt>
      <trkpt lat="45.92333" lon="4.7586">
        <ele>166.800003052</ele>
        <time>2015-12-22T12:14:42.354Z</time>
      </trkpt>
      <trkpt lat="45.92328" lon="4.75857">
        <ele>166.899993896</ele>
        <time>2015-12-22T12:14:43.402Z</time>
      </trkpt>
      <trkpt lat="45.92323" lon="4.75854">
        <ele>167</ele>
        <time>2015-12-22T12:14:44.344Z</time>
      </trkpt>
      <trkpt lat="45.92318" lon="4.7585">
        <ele>167.100006104</ele>
        <time>2015-12-22T12:14:45.392Z</time>
      </trkpt>
      <trkpt lat="45.92314" lon="4.75847">
        <ele>167.100006104</ele>
        <time>2015-12-22T12:14:46.35Z</time>
      </trkpt>
      <trkpt lat="45.92309" lon="4.75844">
        <ele>167.5</ele>
        <time>2015-12-22T12:14:47.369Z</time>
      </trkpt>
      <trkpt lat="45.92304" lon="4.75841">
        <ele>167.699996948</ele>
        <time>2015-12-22T12:14:48.353Z</time>
      </trkpt>
      <trkpt lat="45.92299" lon="4.75839">
        <ele>167.399993896</ele>
        <time>2015-12-22T12:14:49.383Z</time>
      </trkpt>
      <trkpt lat="45.92294" lon="4.75836">
        <ele>167.300003052</ele>
        <time>2015-12-22T12:14:50.353Z</time>
      </trkpt>
      <trkpt lat="45.92289" lon="4.75833">
        <ele>167.100006104</ele>
        <time>2015-12-22T12:14:51.371Z</time>
      </trkpt>
      <trkpt lat="45.92284" lon="4.7583">
        <ele>166.800003052</ele>
        <time>2015-12-22T12:14:52.487Z</time>
      </trkpt>
      <trkpt lat="45.9228" lon="4.75826">
        <ele>166.699996948</ele>
        <time>2015-12-22T12:14:53.37Z</time>
      </trkpt>
      <trkpt lat="45.92275" lon="4.75822">
        <ele>166.800003052</ele>
        <time>2015-12-22T12:14:54.351Z</time>
      </trkpt>
      <trkpt lat="45.92272" lon="4.75817">
        <ele>166.800003052</ele>
        <time>2015-12-22T12:14:55.377Z</time>
      </trkpt>
      <trkpt lat="45.92268" lon="4.75811">
        <ele>167.199996948</ele>
        <time>2015-12-22T12:14:56.353Z</time>
      </trkpt>
      <trkpt lat="45.92265" lon="4.75805">
        <ele>167.300003052</ele>
        <time>2015-12-22T12:14:57.37Z</time>
      </trkpt>
      <trkpt lat="45.92262" lon="4.75798">
        <ele>167.5</ele>
        <time>2015-12-22T12:14:58.351Z</time>
      </trkpt>
      <trkpt lat="45.9226" lon="4.75791">
        <ele>167.100006104</ele>
        <time>2015-12-22T12:14:59.385Z</time>
      </trkpt>
      <trkpt lat="45.92259" lon="4.75784">
        <ele>167.600006104</ele>
        <time>2015-12-22T12:15:00.35Z</time>
      </trkpt>
      <trkpt lat="45.92257" lon="4.75777">
        <ele>168</ele>
        <time>2015-12-22T12:15:01.374Z</time>
      </trkpt>
      <trkpt lat="45.92256" lon="4.7577">
        <ele>168</ele>
        <time>2015-12-22T12:15:02.352Z</time>
      </trkpt>
      <trkpt lat="45.92255" lon="4.75762">
        <ele>168.100006104</ele>
        <time>2015-12-22T12:15:03.414Z</time>
      </trkpt>
      <trkpt lat="45.92254" lon="4.75755">
        <ele>168.5</ele>
        <time>2015-12-22T12:15:04.481Z</time>
      </trkpt>
      <trkpt lat="45.92252" lon="4.75747">
        <ele>169</ele>
        <time>2015-12-22T12:15:05.37Z</time>
      </trkpt>
      <trkpt lat="45.92251" lon="4.75739">
        <ele>169.199996948</ele>
        <time>2015-12-22T12:15:06.351Z</time>
      </trkpt>
      <trkpt lat="45.92249" lon="4.75732">
        <ele>169.5</ele>
        <time>2015-12-22T12:15:07.41Z</time>
      </trkpt>
      <trkpt lat="45.92247" lon="4.75725">
        <ele>169.699996948</ele>
        <time>2015-12-22T12:15:08.35Z</time>
      </trkpt>
      <trkpt lat="45.92245" lon="4.75718">
        <ele>169.699996948</ele>
        <time>2015-12-22T12:15:09.371Z</time>
      </trkpt>
      <trkpt lat="45.92241" lon="4.75711">
        <ele>169.899993896</ele>
        <time>2015-12-22T12:15:10.351Z</time>
      </trkpt>
      <trkpt lat="45.92237" lon="4.75705">
        <ele>169.800003052</ele>
        <time>2015-12-22T12:15:11.369Z</time>
      </trkpt>
      <trkpt lat="45.92233" lon="4.75699">
        <ele>170</ele>
        <time>2015-12-22T12:15:12.35Z</time>
      </trkpt>
      <trkpt lat="45.92228" lon="4.75694">
        <ele>170</ele>
        <time>2015-12-22T12:15:13.372Z</time>
      </trkpt>
      <trkpt lat="45.92223" lon="4.75689">
        <ele>169.699996948</ele>
        <time>2015-12-22T12:15:14.349Z</time>
      </trkpt>
      <trkpt lat="45.92218" lon="4.75684">
        <ele>169.600006104</ele>
        <time>2015-12-22T12:15:15.521Z</time>
      </trkpt>
      <trkpt lat="45.92213" lon="4.75679">
        <ele>169.399993896</ele>
        <time>2015-12-22T12:15:16.354Z</time>
      </trkpt>
      <trkpt lat="45.92207" lon="4.75673">
        <ele>169.300003052</ele>
        <time>2015-12-22T12:15:17.369Z</time>
      </trkpt>
      <trkpt lat="45.92202" lon="4.75668">
        <ele>169.199996948</ele>
        <time>2015-12-22T12:15:18.352Z</time>
      </trkpt>
      <trkpt lat="45.92197" lon="4.75664">
        <ele>168.899993896</ele>
        <time>2015-12-22T12:15:19.373Z</time>
      </trkpt>
      <trkpt lat="45.92192" lon="4.75659">
        <ele>169</ele>
        <time>2015-12-22T12:15:20.35Z</time>
      </trkpt>
      <trkpt lat="45.92187" lon="4.75654">
        <ele>168.800003052</ele>
        <time>2015-12-22T12:15:21.379Z</time>
      </trkpt>
      <trkpt lat="45.92183" lon="4.75649">
        <ele>168.699996948</ele>
        <time>2015-12-22T12:15:22.351Z</time>
      </trkpt>
      <trkpt lat="45.92178" lon="4.75645">
        <ele>168.600006104</ele>
        <time>2015-12-22T12:15:23.37Z</time>
      </trkpt>
      <trkpt lat="45.92173" lon="4.75641">
        <ele>168.699996948</ele>
        <time>2015-12-22T12:15:24.35Z</time>
      </trkpt>
      <trkpt lat="45.92169" lon="4.75636">
        <ele>168.899993896</ele>
        <time>2015-12-22T12:15:25.373Z</time>
      </trkpt>
      <trkpt lat="45.92165" lon="4.75632">
        <ele>168.899993896</ele>
        <time>2015-12-22T12:15:26.353Z</time>
      </trkpt>
      <trkpt lat="45.9216" lon="4.75628">
        <ele>169</ele>
        <time>2015-12-22T12:15:27.393Z</time>
      </trkpt>
      <trkpt lat="45.92155" lon="4.75624">
        <ele>168.899993896</ele>
        <time>2015-12-22T12:15:28.35Z</time>
      </trkpt>
      <trkpt lat="45.9215" lon="4.7562">
        <ele>168.600006104</ele>
        <time>2015-12-22T12:15:29.37Z</time>
      </trkpt>
      <trkpt lat="45.92146" lon="4.75614">
        <ele>168.899993896</ele>
        <time>2015-12-22T12:15:30.373Z</time>
      </trkpt>
      <trkpt lat="45.92141" lon="4.75609">
        <ele>169.300003052</ele>
        <time>2015-12-22T12:15:31.388Z</time>
      </trkpt>
      <trkpt lat="45.92137" lon="4.75604">
        <ele>169.5</ele>
        <time>2015-12-22T12:15:32.35Z</time>
      </trkpt>
      <trkpt lat="45.92132" lon="4.75599">
        <ele>169.699996948</ele>
        <time>2015-12-22T12:15:33.371Z</time>
      </trkpt>
      <trkpt lat="45.92128" lon="4.75595">
        <ele>169.899993896</ele>
        <time>2015-12-22T12:15:34.35Z</time>
      </trkpt>
      <trkpt lat="45.92124" lon="4.7559">
        <ele>169.800003052</ele>
        <time>2015-12-22T12:15:35.409Z</time>
      </trkpt>
      <trkpt lat="45.9212" lon="4.75585">
        <ele>169.699996948</ele>
        <time>2015-12-22T12:15:36.353Z</time>
      </trkpt>
      <trkpt lat="45.92116" lon="4.75575">
        <ele>169.699996948</ele>
        <time>2015-12-22T12:15:38.371Z</time>
      </trkpt>
      <trkpt lat="45.92116" lon="4.75569">
        <ele>169.899993896</ele>
        <time>2015-12-22T12:15:39.355Z</time>
      </trkpt>
      <trkpt lat="45.92119" lon="4.75558">
        <ele>170.300003052</ele>
        <time>2015-12-22T12:15:41.369Z</time>
      </trkpt>
      <trkpt lat="45.92122" lon="4.75553">
        <ele>170.399993896</ele>
        <time>2015-12-22T12:15:42.35Z</time>
      </trkpt>
      <trkpt lat="45.92125" lon="4.75547">
        <ele>170.600006104</ele>
        <time>2015-12-22T12:15:43.386Z</time>
      </trkpt>
      <trkpt lat="45.92129" lon="4.75542">
        <ele>170.899993896</ele>
        <time>2015-12-22T12:15:44.35Z</time>
      </trkpt>
      <trkpt lat="45.92132" lon="4.75536">
        <ele>171.100006104</ele>
        <time>2015-12-22T12:15:45.37Z</time>
      </trkpt>
      <trkpt lat="45.92135" lon="4.75531">
        <ele>171.300003052</ele>
        <time>2015-12-22T12:15:46.349Z</time>
      </trkpt>
      <trkpt lat="45.92138" lon="4.75525">
        <ele>171.899993896</ele>
        <time>2015-12-22T12:15:47.372Z</time>
      </trkpt>
      <trkpt lat="45.92141" lon="4.75519">
        <ele>171.899993896</ele>
        <time>2015-12-22T12:15:48.35Z</time>
      </trkpt>
      <trkpt lat="45.92144" lon="4.75512">
        <ele>171.899993896</ele>
        <time>2015-12-22T12:15:49.375Z</time>
      </trkpt>
      <trkpt lat="45.92147" lon="4.75506">
        <ele>172.300003052</ele>
        <time>2015-12-22T12:15:50.349Z</time>
      </trkpt>
      <trkpt lat="45.9215" lon="4.75499">
        <ele>172.100006104</ele>
        <time>2015-12-22T12:15:51.417Z</time>
      </trkpt>
      <trkpt lat="45.92152" lon="4.75493">
        <ele>172.199996948</ele>
        <time>2015-12-22T12:15:52.367Z</time>
      </trkpt>
      <trkpt lat="45.92154" lon="4.75486">
        <ele>172.300003052</ele>
        <time>2015-12-22T12:15:53.385Z</time>
      </trkpt>
      <trkpt lat="45.92157" lon="4.7548">
        <ele>172.300003052</ele>
        <time>2015-12-22T12:15:54.35Z</time>
      </trkpt>
      <trkpt lat="45.92159" lon="4.75473">
        <ele>172.399993896</ele>
        <time>2015-12-22T12:15:55.373Z</time>
      </trkpt>
      <trkpt lat="45.92162" lon="4.75466">
        <ele>172.399993896</ele>
        <time>2015-12-22T12:15:56.35Z</time>
      </trkpt>
      <trkpt lat="45.92164" lon="4.75459">
        <ele>172.600006104</ele>
        <time>2015-12-22T12:15:57.371Z</time>
      </trkpt>
      <trkpt lat="45.92166" lon="4.75452">
        <ele>172.600006104</ele>
        <time>2015-12-22T12:15:58.35Z</time>
      </trkpt>
      <trkpt lat="45.92169" lon="4.75445">
        <ele>172.899993896</ele>
        <time>2015-12-22T12:15:59.37Z</time>
      </trkpt>
      <trkpt lat="45.92172" lon="4.75439">
        <ele>173</ele>
        <time>2015-12-22T12:16:00.351Z</time>
      </trkpt>
      <trkpt lat="45.92174" lon="4.75432">
        <ele>173.199996948</ele>
        <time>2015-12-22T12:16:01.372Z</time>
      </trkpt>
      <trkpt lat="45.92177" lon="4.75425">
        <ele>173.5</ele>
        <time>2015-12-22T12:16:02.354Z</time>
      </trkpt>
      <trkpt lat="45.9218" lon="4.75418">
        <ele>173.600006104</ele>
        <time>2015-12-22T12:16:03.371Z</time>
      </trkpt>
      <trkpt lat="45.92182" lon="4.7541">
        <ele>174.199996948</ele>
        <time>2015-12-22T12:16:04.35Z</time>
      </trkpt>
      <trkpt lat="45.92184" lon="4.75404">
        <ele>174.199996948</ele>
        <time>2015-12-22T12:16:05.369Z</time>
      </trkpt>
      <trkpt lat="45.92186" lon="4.75397">
        <ele>174.5</ele>
        <time>2015-12-22T12:16:06.351Z</time>
      </trkpt>
      <trkpt lat="45.92189" lon="4.75391">
        <ele>174.600006104</ele>
        <time>2015-12-22T12:16:07.372Z</time>
      </trkpt>
      <trkpt lat="45.92191" lon="4.75386">
        <ele>174.899993896</ele>
        <time>2015-12-22T12:16:08.353Z</time>
      </trkpt>
      <trkpt lat="45.92193" lon="4.75379">
        <ele>174.800003052</ele>
        <time>2015-12-22T12:16:09.371Z</time>
      </trkpt>
      <trkpt lat="45.92195" lon="4.75373">
        <ele>174.899993896</ele>
        <time>2015-12-22T12:16:10.35Z</time>
      </trkpt>
      <trkpt lat="45.92197" lon="4.75367">
        <ele>175.100006104</ele>
        <time>2015-12-22T12:16:11.369Z</time>
      </trkpt>
      <trkpt lat="45.92199" lon="4.7536">
        <ele>175.100006104</ele>
        <time>2015-12-22T12:16:12.351Z</time>
      </trkpt>
      <trkpt lat="45.92202" lon="4.75354">
        <ele>175.199996948</ele>
        <time>2015-12-22T12:16:13.524Z</time>
      </trkpt>
      <trkpt lat="45.92204" lon="4.75347">
        <ele>175.300003052</ele>
        <time>2015-12-22T12:16:14.401Z</time>
      </trkpt>
      <trkpt lat="45.92206" lon="4.7534">
        <ele>175.300003052</ele>
        <time>2015-12-22T12:16:15.391Z</time>
      </trkpt>
      <trkpt lat="45.92208" lon="4.75333">
        <ele>174.600006104</ele>
        <time>2015-12-22T12:16:16.35Z</time>
      </trkpt>
      <trkpt lat="45.92209" lon="4.75325">
        <ele>174</ele>
        <time>2015-12-22T12:16:17.369Z</time>
      </trkpt>
      <trkpt lat="45.9221" lon="4.75317">
        <ele>174.100006104</ele>
        <time>2015-12-22T12:16:18.351Z</time>
      </trkpt>
      <trkpt lat="45.92211" lon="4.75309">
        <ele>174.199996948</ele>
        <time>2015-12-22T12:16:19.372Z</time>
      </trkpt>
      <trkpt lat="45.92212" lon="4.75301">
        <ele>173.899993896</ele>
        <time>2015-12-22T12:16:20.35Z</time>
      </trkpt>
      <trkpt lat="45.92212" lon="4.75293">
        <ele>173.100006104</ele>
        <time>2015-12-22T12:16:21.37Z</time>
      </trkpt>
      <trkpt lat="45.92212" lon="4.75284">
        <ele>172.399993896</ele>
        <time>2015-12-22T12:16:22.35Z</time>
      </trkpt>
      <trkpt lat="45.92212" lon="4.75276">
        <ele>172.199996948</ele>
        <time>2015-12-22T12:16:23.368Z</time>
      </trkpt>
      <trkpt lat="45.92212" lon="4.75268">
        <ele>172.100006104</ele>
        <time>2015-12-22T12:16:24.35Z</time>
      </trkpt>
      <trkpt lat="45.92213" lon="4.75259">
        <ele>171.699996948</ele>
        <time>2015-12-22T12:16:25.372Z</time>
      </trkpt>
      <trkpt lat="45.92213" lon="4.75251">
        <ele>171.300003052</ele>
        <time>2015-12-22T12:16:26.35Z</time>
      </trkpt>
      <trkpt lat="45.92214" lon="4.75242">
        <ele>170.600006104</ele>
        <time>2015-12-22T12:16:27.37Z</time>
      </trkpt>
      <trkpt lat="45.92214" lon="4.75234">
        <ele>170.199996948</ele>
        <time>2015-12-22T12:16:28.35Z</time>
      </trkpt>
      <trkpt lat="45.92215" lon="4.75225">
        <ele>170.300003052</ele>
        <time>2015-12-22T12:16:29.37Z</time>
      </trkpt>
      <trkpt lat="45.92216" lon="4.75216">
        <ele>170</ele>
        <time>2015-12-22T12:16:30.35Z</time>
      </trkpt>
      <trkpt lat="45.92218" lon="4.75208">
        <ele>169.899993896</ele>
        <time>2015-12-22T12:16:31.372Z</time>
      </trkpt>
      <trkpt lat="45.92219" lon="4.752">
        <ele>169.800003052</ele>
        <time>2015-12-22T12:16:32.349Z</time>
      </trkpt>
      <trkpt lat="45.92222" lon="4.75191">
        <ele>169.800003052</ele>
        <time>2015-12-22T12:16:33.371Z</time>
      </trkpt>
      <trkpt lat="45.92224" lon="4.75184">
        <ele>169.600006104</ele>
        <time>2015-12-22T12:16:34.349Z</time>
      </trkpt>
      <trkpt lat="45.92227" lon="4.75176">
        <ele>169.300003052</ele>
        <time>2015-12-22T12:16:35.368Z</time>
      </trkpt>
      <trkpt lat="45.9223" lon="4.75168">
        <ele>168.800003052</ele>
        <time>2015-12-22T12:16:36.349Z</time>
      </trkpt>
      <trkpt lat="45.92233" lon="4.75161">
        <ele>168.699996948</ele>
        <time>2015-12-22T12:16:37.372Z</time>
      </trkpt>
      <trkpt lat="45.92236" lon="4.75155">
        <ele>168.699996948</ele>
        <time>2015-12-22T12:16:38.397Z</time>
      </trkpt>
      <trkpt lat="45.92239" lon="4.75148">
        <ele>168.600006104</ele>
        <time>2015-12-22T12:16:39.373Z</time>
      </trkpt>
      <trkpt lat="45.92243" lon="4.75142">
        <ele>168.300003052</ele>
        <time>2015-12-22T12:16:40.35Z</time>
      </trkpt>
      <trkpt lat="45.92247" lon="4.75136">
        <ele>168</ele>
        <time>2015-12-22T12:16:41.408Z</time>
      </trkpt>
      <trkpt lat="45.92252" lon="4.7513">
        <ele>167.699996948</ele>
        <time>2015-12-22T12:16:42.353Z</time>
      </trkpt>
      <trkpt lat="45.92256" lon="4.75124">
        <ele>167.399993896</ele>
        <time>2015-12-22T12:16:43.371Z</time>
      </trkpt>
      <trkpt lat="45.92261" lon="4.75119">
        <ele>167</ele>
        <time>2015-12-22T12:16:44.367Z</time>
      </trkpt>
      <trkpt lat="45.92265" lon="4.75114">
        <ele>167</ele>
        <time>2015-12-22T12:16:45.369Z</time>
      </trkpt>
      <trkpt lat="45.9227" lon="4.75109">
        <ele>167</ele>
        <time>2015-12-22T12:16:46.349Z</time>
      </trkpt>
      <trkpt lat="45.92275" lon="4.75103">
        <ele>166.800003052</ele>
        <time>2015-12-22T12:16:47.368Z</time>
      </trkpt>
      <trkpt lat="45.92279" lon="4.75097">
        <ele>166.399993896</ele>
        <time>2015-12-22T12:16:48.349Z</time>
      </trkpt>
      <trkpt lat="45.92284" lon="4.75092">
        <ele>166.5</ele>
        <time>2015-12-22T12:16:49.374Z</time>
      </trkpt>
      <trkpt lat="45.92289" lon="4.75087">
        <ele>166.199996948</ele>
        <time>2015-12-22T12:16:50.35Z</time>
      </trkpt>
      <trkpt lat="45.92294" lon="4.75081">
        <ele>165.800003052</ele>
        <time>2015-12-22T12:16:51.371Z</time>
      </trkpt>
      <trkpt lat="45.92299" lon="4.75076">
        <ele>165.399993896</ele>
        <time>2015-12-22T12:16:52.35Z</time>
      </trkpt>
      <trkpt lat="45.92303" lon="4.75071">
        <ele>165.199996948</ele>
        <time>2015-12-22T12:16:53.369Z</time>
      </trkpt>
      <trkpt lat="45.92308" lon="4.75066">
        <ele>164.899993896</ele>
        <time>2015-12-22T12:16:54.35Z</time>
      </trkpt>
      <trkpt lat="45.92312" lon="4.75061">
        <ele>164.5</ele>
        <time>2015-12-22T12:16:55.372Z</time>
      </trkpt>
      <trkpt lat="45.92316" lon="4.75055">
        <ele>164.399993896</ele>
        <time>2015-12-22T12:16:56.349Z</time>
      </trkpt>
      <trkpt lat="45.92321" lon="4.75048">
        <ele>164.399993896</ele>
        <time>2015-12-22T12:16:57.369Z</time>
      </trkpt>
      <trkpt lat="45.92324" lon="4.75042">
        <ele>164.199996948</ele>
        <time>2015-12-22T12:16:58.349Z</time>
      </trkpt>
      <trkpt lat="45.92329" lon="4.75035">
        <ele>164.199996948</ele>
        <time>2015-12-22T12:16:59.368Z</time>
      </trkpt>
      <trkpt lat="45.92332" lon="4.75028">
        <ele>164.800003052</ele>
        <time>2015-12-22T12:17:00.374Z</time>
      </trkpt>
      <trkpt lat="45.92335" lon="4.7502">
        <ele>164.899993896</ele>
        <time>2015-12-22T12:17:01.373Z</time>
      </trkpt>
      <trkpt lat="45.92338" lon="4.75014">
        <ele>165</ele>
        <time>2015-12-22T12:17:02.35Z</time>
      </trkpt>
      <trkpt lat="45.92342" lon="4.75007">
        <ele>165.399993896</ele>
        <time>2015-12-22T12:17:03.37Z</time>
      </trkpt>
      <trkpt lat="45.92344" lon="4.75">
        <ele>165.5</ele>
        <time>2015-12-22T12:17:04.35Z</time>
      </trkpt>
      <trkpt lat="45.92347" lon="4.74992">
        <ele>165.300003052</ele>
        <time>2015-12-22T12:17:05.378Z</time>
      </trkpt>
      <trkpt lat="45.9235" lon="4.74985">
        <ele>165.5</ele>
        <time>2015-12-22T12:17:06.35Z</time>
      </trkpt>
      <trkpt lat="45.92353" lon="4.74978">
        <ele>165.5</ele>
        <time>2015-12-22T12:17:07.378Z</time>
      </trkpt>
      <trkpt lat="45.92356" lon="4.7497">
        <ele>165.800003052</ele>
        <time>2015-12-22T12:17:08.353Z</time>
      </trkpt>
      <trkpt lat="45.92359" lon="4.74963">
        <ele>166.300003052</ele>
        <time>2015-12-22T12:17:09.376Z</time>
      </trkpt>
      <trkpt lat="45.92362" lon="4.74955">
        <ele>166.199996948</ele>
        <time>2015-12-22T12:17:10.368Z</time>
      </trkpt>
      <trkpt lat="45.92365" lon="4.74947">
        <ele>166.300003052</ele>
        <time>2015-12-22T12:17:11.37Z</time>
      </trkpt>
      <trkpt lat="45.92368" lon="4.7494">
        <ele>166.100006104</ele>
        <time>2015-12-22T12:17:12.35Z</time>
      </trkpt>
      <trkpt lat="45.92371" lon="4.74932">
        <ele>166.699996948</ele>
        <time>2015-12-22T12:17:13.372Z</time>
      </trkpt>
      <trkpt lat="45.92374" lon="4.74925">
        <ele>166.5</ele>
        <time>2015-12-22T12:17:14.35Z</time>
      </trkpt>
      <trkpt lat="45.92376" lon="4.74918">
        <ele>166.600006104</ele>
        <time>2015-12-22T12:17:15.37Z</time>
      </trkpt>
      <trkpt lat="45.92379" lon="4.74911">
        <ele>166.600006104</ele>
        <time>2015-12-22T12:17:16.349Z</time>
      </trkpt>
      <trkpt lat="45.92382" lon="4.74905">
        <ele>166.800003052</ele>
        <time>2015-12-22T12:17:17.368Z</time>
      </trkpt>
      <trkpt lat="45.92385" lon="4.74898">
        <ele>167</ele>
        <time>2015-12-22T12:17:18.349Z</time>
      </trkpt>
      <trkpt lat="45.92387" lon="4.74891">
        <ele>167</ele>
        <time>2015-12-22T12:17:19.371Z</time>
      </trkpt>
      <trkpt lat="45.9239" lon="4.74884">
        <ele>167.199996948</ele>
        <time>2015-12-22T12:17:20.349Z</time>
      </trkpt>
      <trkpt lat="45.92392" lon="4.74877">
        <ele>167.100006104</ele>
        <time>2015-12-22T12:17:21.37Z</time>
      </trkpt>
      <trkpt lat="45.92395" lon="4.7487">
        <ele>167.199996948</ele>
        <time>2015-12-22T12:17:22.35Z</time>
      </trkpt>
      <trkpt lat="45.92397" lon="4.74863">
        <ele>167.100006104</ele>
        <time>2015-12-22T12:17:23.37Z</time>
      </trkpt>
      <trkpt lat="45.92399" lon="4.74856">
        <ele>167</ele>
        <time>2015-12-22T12:17:24.349Z</time>
      </trkpt>
      <trkpt lat="45.92402" lon="4.7485">
        <ele>167.100006104</ele>
        <time>2015-12-22T12:17:25.613Z</time>
      </trkpt>
      <trkpt lat="45.92404" lon="4.74843">
        <ele>167.300003052</ele>
        <time>2015-12-22T12:17:26.35Z</time>
      </trkpt>
      <trkpt lat="45.92405" lon="4.74836">
        <ele>167.600006104</ele>
        <time>2015-12-22T12:17:27.416Z</time>
      </trkpt>
      <trkpt lat="45.92407" lon="4.74829">
        <ele>167.699996948</ele>
        <time>2015-12-22T12:17:28.351Z</time>
      </trkpt>
      <trkpt lat="45.92409" lon="4.74822">
        <ele>168</ele>
        <time>2015-12-22T12:17:29.371Z</time>
      </trkpt>
      <trkpt lat="45.9241" lon="4.74815">
        <ele>168</ele>
        <time>2015-12-22T12:17:30.351Z</time>
      </trkpt>
      <trkpt lat="45.92411" lon="4.74808">
        <ele>168.300003052</ele>
        <time>2015-12-22T12:17:31.378Z</time>
      </trkpt>
      <trkpt lat="45.92413" lon="4.748">
        <ele>168.5</ele>
        <time>2015-12-22T12:17:32.351Z</time>
      </trkpt>
      <trkpt lat="45.92415" lon="4.74792">
        <ele>168.800003052</ele>
        <time>2015-12-22T12:17:33.377Z</time>
      </trkpt>
      <trkpt lat="45.92417" lon="4.74785">
        <ele>169.199996948</ele>
        <time>2015-12-22T12:17:34.353Z</time>
      </trkpt>
      <trkpt lat="45.92419" lon="4.74778">
        <ele>169.5</ele>
        <time>2015-12-22T12:17:35.369Z</time>
      </trkpt>
      <trkpt lat="45.9242" lon="4.7477">
        <ele>169.800003052</ele>
        <time>2015-12-22T12:17:36.349Z</time>
      </trkpt>
      <trkpt lat="45.92422" lon="4.74763">
        <ele>170</ele>
        <time>2015-12-22T12:17:37.372Z</time>
      </trkpt>
      <trkpt lat="45.92423" lon="4.74756">
        <ele>170.199996948</ele>
        <time>2015-12-22T12:17:38.35Z</time>
      </trkpt>
      <trkpt lat="45.92425" lon="4.74749">
        <ele>170.300003052</ele>
        <time>2015-12-22T12:17:39.371Z</time>
      </trkpt>
      <trkpt lat="45.92428" lon="4.74742">
        <ele>170.5</ele>
        <time>2015-12-22T12:17:40.35Z</time>
      </trkpt>
      <trkpt lat="45.9243" lon="4.74735">
        <ele>171.199996948</ele>
        <time>2015-12-22T12:17:41.383Z</time>
      </trkpt>
      <trkpt lat="45.92432" lon="4.74728">
        <ele>171.199996948</ele>
        <time>2015-12-22T12:17:42.35Z</time>
      </trkpt>
      <trkpt lat="45.92435" lon="4.74721">
        <ele>171.300003052</ele>
        <time>2015-12-22T12:17:43.372Z</time>
      </trkpt>
      <trkpt lat="45.92438" lon="4.74714">
        <ele>171.399993896</ele>
        <time>2015-12-22T12:17:44.353Z</time>
      </trkpt>
      <trkpt lat="45.9244" lon="4.74708">
        <ele>171.199996948</ele>
        <time>2015-12-22T12:17:45.391Z</time>
      </trkpt>
      <trkpt lat="45.92443" lon="4.74701">
        <ele>171.100006104</ele>
        <time>2015-12-22T12:17:46.359Z</time>
      </trkpt>
      <trkpt lat="45.92446" lon="4.74695">
        <ele>170.899993896</ele>
        <time>2015-12-22T12:17:47.37Z</time>
      </trkpt>
      <trkpt lat="45.92449" lon="4.74688">
        <ele>171</ele>
        <time>2015-12-22T12:17:48.349Z</time>
      </trkpt>
      <trkpt lat="45.92452" lon="4.74681">
        <ele>171.199996948</ele>
        <time>2015-12-22T12:17:49.376Z</time>
      </trkpt>
      <trkpt lat="45.92454" lon="4.74675">
        <ele>171.300003052</ele>
        <time>2015-12-22T12:17:50.353Z</time>
      </trkpt>
      <trkpt lat="45.92457" lon="4.74668">
        <ele>171.300003052</ele>
        <time>2015-12-22T12:17:51.371Z</time>
      </trkpt>
      <trkpt lat="45.92461" lon="4.74662">
        <ele>171.300003052</ele>
        <time>2015-12-22T12:17:52.352Z</time>
      </trkpt>
      <trkpt lat="45.92464" lon="4.74656">
        <ele>171.399993896</ele>
        <time>2015-12-22T12:17:53.369Z</time>
      </trkpt>
      <trkpt lat="45.92467" lon="4.74649">
        <ele>171.5</ele>
        <time>2015-12-22T12:17:54.35Z</time>
      </trkpt>
      <trkpt lat="45.92471" lon="4.74644">
        <ele>171.5</ele>
        <time>2015-12-22T12:17:55.373Z</time>
      </trkpt>
      <trkpt lat="45.92475" lon="4.74637">
        <ele>171.5</ele>
        <time>2015-12-22T12:17:56.353Z</time>
      </trkpt>
      <trkpt lat="45.9248" lon="4.74632">
        <ele>171.300003052</ele>
        <time>2015-12-22T12:17:57.374Z</time>
      </trkpt>
      <trkpt lat="45.92485" lon="4.74626">
        <ele>171</ele>
        <time>2015-12-22T12:17:58.35Z</time>
      </trkpt>
      <trkpt lat="45.9249" lon="4.74621">
        <ele>170.899993896</ele>
        <time>2015-12-22T12:17:59.369Z</time>
      </trkpt>
      <trkpt lat="45.92495" lon="4.74615">
        <ele>170.899993896</ele>
        <time>2015-12-22T12:18:00.349Z</time>
      </trkpt>
      <trkpt lat="45.92499" lon="4.7461">
        <ele>171</ele>
        <time>2015-12-22T12:18:01.371Z</time>
      </trkpt>
      <trkpt lat="45.92503" lon="4.74604">
        <ele>170.899993896</ele>
        <time>2015-12-22T12:18:02.366Z</time>
      </trkpt>
      <trkpt lat="45.92509" lon="4.74598">
        <ele>171.399993896</ele>
        <time>2015-12-22T12:18:03.37Z</time>
      </trkpt>
      <trkpt lat="45.92514" lon="4.74592">
        <ele>171.399993896</ele>
        <time>2015-12-22T12:18:04.349Z</time>
      </trkpt>
      <trkpt lat="45.92518" lon="4.74586">
        <ele>171.100006104</ele>
        <time>2015-12-22T12:18:05.368Z</time>
      </trkpt>
      <trkpt lat="45.92522" lon="4.74581">
        <ele>171</ele>
        <time>2015-12-22T12:18:06.349Z</time>
      </trkpt>
      <trkpt lat="45.92527" lon="4.74576">
        <ele>170.899993896</ele>
        <time>2015-12-22T12:18:07.371Z</time>
      </trkpt>
      <trkpt lat="45.92531" lon="4.7457">
        <ele>170.800003052</ele>
        <time>2015-12-22T12:18:08.35Z</time>
      </trkpt>
      <trkpt lat="45.92535" lon="4.74564">
        <ele>170.899993896</ele>
        <time>2015-12-22T12:18:09.369Z</time>
      </trkpt>
      <trkpt lat="45.9254" lon="4.74557">
        <ele>170.800003052</ele>
        <time>2015-12-22T12:18:10.349Z</time>
      </trkpt>
      <trkpt lat="45.92544" lon="4.74551">
        <ele>170.800003052</ele>
        <time>2015-12-22T12:18:11.369Z</time>
      </trkpt>
      <trkpt lat="45.92548" lon="4.74544">
        <ele>170.699996948</ele>
        <time>2015-12-22T12:18:12.349Z</time>
      </trkpt>
      <trkpt lat="45.92552" lon="4.74537">
        <ele>170.699996948</ele>
        <time>2015-12-22T12:18:13.437Z</time>
      </trkpt>
      <trkpt lat="45.92556" lon="4.7453">
        <ele>170.399993896</ele>
        <time>2015-12-22T12:18:14.349Z</time>
      </trkpt>
      <trkpt lat="45.9256" lon="4.74523">
        <ele>170.5</ele>
        <time>2015-12-22T12:18:15.371Z</time>
      </trkpt>
      <trkpt lat="45.92564" lon="4.74517">
        <ele>170.399993896</ele>
        <time>2015-12-22T12:18:16.349Z</time>
      </trkpt>
      <trkpt lat="45.92568" lon="4.7451">
        <ele>170.399993896</ele>
        <time>2015-12-22T12:18:17.368Z</time>
      </trkpt>
      <trkpt lat="45.92571" lon="4.74504">
        <ele>170.399993896</ele>
        <time>2015-12-22T12:18:18.349Z</time>
      </trkpt>
      <trkpt lat="45.92574" lon="4.74497">
        <ele>170.5</ele>
        <time>2015-12-22T12:18:19.372Z</time>
      </trkpt>
      <trkpt lat="45.92577" lon="4.74491">
        <ele>170.399993896</ele>
        <time>2015-12-22T12:18:20.349Z</time>
      </trkpt>
      <trkpt lat="45.9258" lon="4.74485">
        <ele>170.300003052</ele>
        <time>2015-12-22T12:18:21.37Z</time>
      </trkpt>
      <trkpt lat="45.92584" lon="4.74479">
        <ele>170.199996948</ele>
        <time>2015-12-22T12:18:22.349Z</time>
      </trkpt>
      <trkpt lat="45.92587" lon="4.74473">
        <ele>170.100006104</ele>
        <time>2015-12-22T12:18:23.392Z</time>
      </trkpt>
      <trkpt lat="45.9259" lon="4.74466">
        <ele>169.699996948</ele>
        <time>2015-12-22T12:18:24.349Z</time>
      </trkpt>
      <trkpt lat="45.92594" lon="4.7446">
        <ele>169.5</ele>
        <time>2015-12-22T12:18:25.371Z</time>
      </trkpt>
      <trkpt lat="45.92597" lon="4.74454">
        <ele>169.199996948</ele>
        <time>2015-12-22T12:18:26.362Z</time>
      </trkpt>
      <trkpt lat="45.926" lon="4.74447">
        <ele>169.100006104</ele>
        <time>2015-12-22T12:18:27.371Z</time>
      </trkpt>
      <trkpt lat="45.92604" lon="4.74441">
        <ele>168.899993896</ele>
        <time>2015-12-22T12:18:28.349Z</time>
      </trkpt>
      <trkpt lat="45.92607" lon="4.74435">
        <ele>168.800003052</ele>
        <time>2015-12-22T12:18:29.368Z</time>
      </trkpt>
      <trkpt lat="45.92611" lon="4.74428">
        <ele>168.600006104</ele>
        <time>2015-12-22T12:18:30.372Z</time>
      </trkpt>
      <trkpt lat="45.92615" lon="4.74421">
        <ele>168.600006104</ele>
        <time>2015-12-22T12:18:31.372Z</time>
      </trkpt>
      <trkpt lat="45.92618" lon="4.74415">
        <ele>168.600006104</ele>
        <time>2015-12-22T12:18:32.349Z</time>
      </trkpt>
      <trkpt lat="45.92622" lon="4.74408">
        <ele>168.600006104</ele>
        <time>2015-12-22T12:18:33.382Z</time>
      </trkpt>
      <trkpt lat="45.92626" lon="4.74402">
        <ele>168.600006104</ele>
        <time>2015-12-22T12:18:34.349Z</time>
      </trkpt>
      <trkpt lat="45.92629" lon="4.74396">
        <ele>168.399993896</ele>
        <time>2015-12-22T12:18:35.373Z</time>
      </trkpt>
      <trkpt lat="45.92633" lon="4.74389">
        <ele>168.399993896</ele>
        <time>2015-12-22T12:18:36.345Z</time>
      </trkpt>
      <trkpt lat="45.92637" lon="4.74383">
        <ele>168.399993896</ele>
        <time>2015-12-22T12:18:37.371Z</time>
      </trkpt>
      <trkpt lat="45.9264" lon="4.74376">
        <ele>168.300003052</ele>
        <time>2015-12-22T12:18:38.352Z</time>
      </trkpt>
      <trkpt lat="45.92644" lon="4.7437">
        <ele>168.199996948</ele>
        <time>2015-12-22T12:18:39.369Z</time>
      </trkpt>
      <trkpt lat="45.92647" lon="4.74363">
        <ele>168.199996948</ele>
        <time>2015-12-22T12:18:40.349Z</time>
      </trkpt>
      <trkpt lat="45.92651" lon="4.74356">
        <ele>168.300003052</ele>
        <time>2015-12-22T12:18:41.377Z</time>
      </trkpt>
      <trkpt lat="45.92654" lon="4.7435">
        <ele>168.5</ele>
        <time>2015-12-22T12:18:42.352Z</time>
      </trkpt>
      <trkpt lat="45.92657" lon="4.74344">
        <ele>168.600006104</ele>
        <time>2015-12-22T12:18:43.371Z</time>
      </trkpt>
      <trkpt lat="45.92661" lon="4.74337">
        <ele>168.399993896</ele>
        <time>2015-12-22T12:18:44.349Z</time>
      </trkpt>
      <trkpt lat="45.92664" lon="4.74331">
        <ele>168.100006104</ele>
        <time>2015-12-22T12:18:45.369Z</time>
      </trkpt>
      <trkpt lat="45.92667" lon="4.74325">
        <ele>168.100006104</ele>
        <time>2015-12-22T12:18:46.349Z</time>
      </trkpt>
      <trkpt lat="45.9267" lon="4.74319">
        <ele>168</ele>
        <time>2015-12-22T12:18:47.369Z</time>
      </trkpt>
      <trkpt lat="45.92674" lon="4.74313">
        <ele>168</ele>
        <time>2015-12-22T12:18:48.349Z</time>
      </trkpt>
      <trkpt lat="45.92677" lon="4.74307">
        <ele>167.899993896</ele>
        <time>2015-12-22T12:18:49.392Z</time>
      </trkpt>
      <trkpt lat="45.9268" lon="4.743">
        <ele>167.800003052</ele>
        <time>2015-12-22T12:18:50.35Z</time>
      </trkpt>
      <trkpt lat="45.92683" lon="4.74294">
        <ele>167.600006104</ele>
        <time>2015-12-22T12:18:51.369Z</time>
      </trkpt>
      <trkpt lat="45.92687" lon="4.74287">
        <ele>167.600006104</ele>
        <time>2015-12-22T12:18:52.349Z</time>
      </trkpt>
      <trkpt lat="45.9269" lon="4.74281">
        <ele>167.600006104</ele>
        <time>2015-12-22T12:18:53.368Z</time>
      </trkpt>
      <trkpt lat="45.92694" lon="4.74275">
        <ele>167.699996948</ele>
        <time>2015-12-22T12:18:54.349Z</time>
      </trkpt>
      <trkpt lat="45.92697" lon="4.74269">
        <ele>167.800003052</ele>
        <time>2015-12-22T12:18:55.371Z</time>
      </trkpt>
      <trkpt lat="45.92701" lon="4.74262">
        <ele>167.800003052</ele>
        <time>2015-12-22T12:18:56.349Z</time>
      </trkpt>
      <trkpt lat="45.92705" lon="4.74256">
        <ele>167.899993896</ele>
        <time>2015-12-22T12:18:57.387Z</time>
      </trkpt>
      <trkpt lat="45.92708" lon="4.7425">
        <ele>167.800003052</ele>
        <time>2015-12-22T12:18:58.349Z</time>
      </trkpt>
      <trkpt lat="45.92712" lon="4.74243">
        <ele>168.199996948</ele>
        <time>2015-12-22T12:18:59.521Z</time>
      </trkpt>
      <trkpt lat="45.92716" lon="4.74237">
        <ele>168.100006104</ele>
        <time>2015-12-22T12:19:00.35Z</time>
      </trkpt>
      <trkpt lat="45.9272" lon="4.74232">
        <ele>168.100006104</ele>
        <time>2015-12-22T12:19:01.371Z</time>
      </trkpt>
      <trkpt lat="45.92723" lon="4.74226">
        <ele>167.899993896</ele>
        <time>2015-12-22T12:19:02.349Z</time>
      </trkpt>
      <trkpt lat="45.92727" lon="4.7422">
        <ele>167.800003052</ele>
        <time>2015-12-22T12:19:03.368Z</time>
      </trkpt>
      <trkpt lat="45.92731" lon="4.74215">
        <ele>167.699996948</ele>
        <time>2015-12-22T12:19:04.349Z</time>
      </trkpt>
      <trkpt lat="45.92735" lon="4.7421">
        <ele>167.600006104</ele>
        <time>2015-12-22T12:19:05.368Z</time>
      </trkpt>
      <trkpt lat="45.92739" lon="4.74204">
        <ele>167.399993896</ele>
        <time>2015-12-22T12:19:06.348Z</time>
      </trkpt>
      <trkpt lat="45.92743" lon="4.74199">
        <ele>167.399993896</ele>
        <time>2015-12-22T12:19:07.371Z</time>
      </trkpt>
      <trkpt lat="45.92747" lon="4.74194">
        <ele>167.399993896</ele>
        <time>2015-12-22T12:19:08.349Z</time>
      </trkpt>
      <trkpt lat="45.92751" lon="4.74188">
        <ele>167.300003052</ele>
        <time>2015-12-22T12:19:09.429Z</time>
      </trkpt>
      <trkpt lat="45.92756" lon="4.74183">
        <ele>167.100006104</ele>
        <time>2015-12-22T12:19:10.349Z</time>
      </trkpt>
      <trkpt lat="45.9276" lon="4.74177">
        <ele>167.100006104</ele>
        <time>2015-12-22T12:19:11.368Z</time>
      </trkpt>
      <trkpt lat="45.92765" lon="4.74172">
        <ele>167.100006104</ele>
        <time>2015-12-22T12:19:12.349Z</time>
      </trkpt>
      <trkpt lat="45.9277" lon="4.74167">
        <ele>166.699996948</ele>
        <time>2015-12-22T12:19:13.388Z</time>
      </trkpt>
      <trkpt lat="45.92774" lon="4.74162">
        <ele>167.199996948</ele>
        <time>2015-12-22T12:19:14.349Z</time>
      </trkpt>
      <trkpt lat="45.92778" lon="4.74157">
        <ele>167.399993896</ele>
        <time>2015-12-22T12:19:15.407Z</time>
      </trkpt>
      <trkpt lat="45.92783" lon="4.74153">
        <ele>167.600006104</ele>
        <time>2015-12-22T12:19:16.349Z</time>
      </trkpt>
      <trkpt lat="45.92787" lon="4.74149">
        <ele>167.600006104</ele>
        <time>2015-12-22T12:19:17.369Z</time>
      </trkpt>
      <trkpt lat="45.92791" lon="4.74144">
        <ele>167.5</ele>
        <time>2015-12-22T12:19:18.349Z</time>
      </trkpt>
      <trkpt lat="45.92795" lon="4.7414">
        <ele>167.899993896</ele>
        <time>2015-12-22T12:19:19.371Z</time>
      </trkpt>
      <trkpt lat="45.92799" lon="4.74136">
        <ele>167.699996948</ele>
        <time>2015-12-22T12:19:20.348Z</time>
      </trkpt>
      <trkpt lat="45.92803" lon="4.74131">
        <ele>167.800003052</ele>
        <time>2015-12-22T12:19:21.369Z</time>
      </trkpt>
      <trkpt lat="45.92807" lon="4.74127">
        <ele>167.800003052</ele>
        <time>2015-12-22T12:19:22.349Z</time>
      </trkpt>
      <trkpt lat="45.92812" lon="4.74123">
        <ele>167.800003052</ele>
        <time>2015-12-22T12:19:23.38Z</time>
      </trkpt>
      <trkpt lat="45.92816" lon="4.74119">
        <ele>167.899993896</ele>
        <time>2015-12-22T12:19:24.349Z</time>
      </trkpt>
      <trkpt lat="45.9282" lon="4.74114">
        <ele>168</ele>
        <time>2015-12-22T12:19:25.372Z</time>
      </trkpt>
      <trkpt lat="45.92824" lon="4.74109">
        <ele>168.100006104</ele>
        <time>2015-12-22T12:19:26.349Z</time>
      </trkpt>
      <trkpt lat="45.92829" lon="4.74105">
        <ele>168.399993896</ele>
        <time>2015-12-22T12:19:27.37Z</time>
      </trkpt>
      <trkpt lat="45.92833" lon="4.741">
        <ele>168.5</ele>
        <time>2015-12-22T12:19:28.349Z</time>
      </trkpt>
      <trkpt lat="45.92837" lon="4.74095">
        <ele>168.699996948</ele>
        <time>2015-12-22T12:19:29.368Z</time>
      </trkpt>
      <trkpt lat="45.92841" lon="4.7409">
        <ele>168.699996948</ele>
        <time>2015-12-22T12:19:30.349Z</time>
      </trkpt>
      <trkpt lat="45.92846" lon="4.74085">
        <ele>168.5</ele>
        <time>2015-12-22T12:19:31.385Z</time>
      </trkpt>
      <trkpt lat="45.9285" lon="4.7408">
        <ele>168.399993896</ele>
        <time>2015-12-22T12:19:32.348Z</time>
      </trkpt>
      <trkpt lat="45.92854" lon="4.74075">
        <ele>168.699996948</ele>
        <time>2015-12-22T12:19:33.379Z</time>
      </trkpt>
      <trkpt lat="45.92859" lon="4.7407">
        <ele>168.800003052</ele>
        <time>2015-12-22T12:19:34.348Z</time>
      </trkpt>
      <trkpt lat="45.92863" lon="4.74064">
        <ele>168.699996948</ele>
        <time>2015-12-22T12:19:35.368Z</time>
      </trkpt>
      <trkpt lat="45.92868" lon="4.74059">
        <ele>168.800003052</ele>
        <time>2015-12-22T12:19:36.353Z</time>
      </trkpt>
      <trkpt lat="45.92871" lon="4.74054">
        <ele>168.800003052</ele>
        <time>2015-12-22T12:19:37.371Z</time>
      </trkpt>
      <trkpt lat="45.92876" lon="4.7405">
        <ele>169.100006104</ele>
        <time>2015-12-22T12:19:38.349Z</time>
      </trkpt>
      <trkpt lat="45.92881" lon="4.74047">
        <ele>169.300003052</ele>
        <time>2015-12-22T12:19:39.374Z</time>
      </trkpt>
      <trkpt lat="45.92886" lon="4.74047">
        <ele>169.5</ele>
        <time>2015-12-22T12:19:40.349Z</time>
      </trkpt>
      <trkpt lat="45.92891" lon="4.74047">
        <ele>169.399993896</ele>
        <time>2015-12-22T12:19:41.371Z</time>
      </trkpt>
      <trkpt lat="45.92896" lon="4.74048">
        <ele>169.800003052</ele>
        <time>2015-12-22T12:19:42.349Z</time>
      </trkpt>
      <trkpt lat="45.92901" lon="4.74048">
        <ele>170.100006104</ele>
        <time>2015-12-22T12:19:43.371Z</time>
      </trkpt>
      <trkpt lat="45.92906" lon="4.74046">
        <ele>170.100006104</ele>
        <time>2015-12-22T12:19:44.349Z</time>
      </trkpt>
      <trkpt lat="45.92911" lon="4.74042">
        <ele>170</ele>
        <time>2015-12-22T12:19:45.518Z</time>
      </trkpt>
      <trkpt lat="45.92915" lon="4.74037">
        <ele>169.899993896</ele>
        <time>2015-12-22T12:19:46.349Z</time>
      </trkpt>
      <trkpt lat="45.92918" lon="4.74031">
        <ele>169.899993896</ele>
        <time>2015-12-22T12:19:47.368Z</time>
      </trkpt>
      <trkpt lat="45.9292" lon="4.74023">
        <ele>170</ele>
        <time>2015-12-22T12:19:48.349Z</time>
      </trkpt>
      <trkpt lat="45.9292" lon="4.74016">
        <ele>170.199996948</ele>
        <time>2015-12-22T12:19:49.432Z</time>
      </trkpt>
      <trkpt lat="45.9292" lon="4.74008">
        <ele>170.100006104</ele>
        <time>2015-12-22T12:19:50.349Z</time>
      </trkpt>
      <trkpt lat="45.92918" lon="4.74">
        <ele>169.699996948</ele>
        <time>2015-12-22T12:19:51.369Z</time>
      </trkpt>
      <trkpt lat="45.92914" lon="4.73994">
        <ele>169.699996948</ele>
        <time>2015-12-22T12:19:52.365Z</time>
      </trkpt>
      <trkpt lat="45.92909" lon="4.73989">
        <ele>169.5</ele>
        <time>2015-12-22T12:19:53.368Z</time>
      </trkpt>
      <trkpt lat="45.92904" lon="4.73986">
        <ele>169.199996948</ele>
        <time>2015-12-22T12:19:54.348Z</time>
      </trkpt>
      <trkpt lat="45.92899" lon="4.73982">
        <ele>168.5</ele>
        <time>2015-12-22T12:19:55.371Z</time>
      </trkpt>
      <trkpt lat="45.92894" lon="4.73977">
        <ele>168.399993896</ele>
        <time>2015-12-22T12:19:56.348Z</time>
      </trkpt>
      <trkpt lat="45.92891" lon="4.73971">
        <ele>167.899993896</ele>
        <time>2015-12-22T12:19:57.371Z</time>
      </trkpt>
      <trkpt lat="45.92889" lon="4.73962">
        <ele>167.899993896</ele>
        <time>2015-12-22T12:19:58.349Z</time>
      </trkpt>
      <trkpt lat="45.92888" lon="4.73953">
        <ele>167.600006104</ele>
        <time>2015-12-22T12:19:59.368Z</time>
      </trkpt>
      <trkpt lat="45.92887" lon="4.73944">
        <ele>167.5</ele>
        <time>2015-12-22T12:20:00.372Z</time>
      </trkpt>
      <trkpt lat="45.92886" lon="4.73935">
        <ele>167.399993896</ele>
        <time>2015-12-22T12:20:01.379Z</time>
      </trkpt>
      <trkpt lat="45.92885" lon="4.73925">
        <ele>166.5</ele>
        <time>2015-12-22T12:20:02.353Z</time>
      </trkpt>
      <trkpt lat="45.92884" lon="4.73916">
        <ele>166.199996948</ele>
        <time>2015-12-22T12:20:03.369Z</time>
      </trkpt>
      <trkpt lat="45.92883" lon="4.73907">
        <ele>166.100006104</ele>
        <time>2015-12-22T12:20:04.352Z</time>
      </trkpt>
      <trkpt lat="45.92882" lon="4.73898">
        <ele>165.699996948</ele>
        <time>2015-12-22T12:20:05.374Z</time>
      </trkpt>
      <trkpt lat="45.9288" lon="4.73889">
        <ele>165.699996948</ele>
        <time>2015-12-22T12:20:06.348Z</time>
      </trkpt>
      <trkpt lat="45.92878" lon="4.73879">
        <ele>165.800003052</ele>
        <time>2015-12-22T12:20:07.375Z</time>
      </trkpt>
      <trkpt lat="45.92876" lon="4.7387">
        <ele>165.800003052</ele>
        <time>2015-12-22T12:20:08.352Z</time>
      </trkpt>
      <trkpt lat="45.92873" lon="4.7386">
        <ele>165.699996948</ele>
        <time>2015-12-22T12:20:09.429Z</time>
      </trkpt>
      <trkpt lat="45.9287" lon="4.73851">
        <ele>165.5</ele>
        <time>2015-12-22T12:20:10.352Z</time>
      </trkpt>
      <trkpt lat="45.92867" lon="4.73842">
        <ele>165.5</ele>
        <time>2015-12-22T12:20:11.369Z</time>
      </trkpt>
      <trkpt lat="45.92864" lon="4.73835">
        <ele>165.199996948</ele>
        <time>2015-12-22T12:20:12.352Z</time>
      </trkpt>
      <trkpt lat="45.92862" lon="4.73827">
        <ele>165</ele>
        <time>2015-12-22T12:20:13.387Z</time>
      </trkpt>
      <trkpt lat="45.9286" lon="4.73819">
        <ele>165</ele>
        <time>2015-12-22T12:20:14.352Z</time>
      </trkpt>
      <trkpt lat="45.92858" lon="4.73812">
        <ele>164.899993896</ele>
        <time>2015-12-22T12:20:15.369Z</time>
      </trkpt>
      <trkpt lat="45.92856" lon="4.73805">
        <ele>164.699996948</ele>
        <time>2015-12-22T12:20:16.348Z</time>
      </trkpt>
      <trkpt lat="45.92853" lon="4.73799">
        <ele>164.300003052</ele>
        <time>2015-12-22T12:20:17.368Z</time>
      </trkpt>
      <trkpt lat="45.92849" lon="4.73793">
        <ele>164.100006104</ele>
        <time>2015-12-22T12:20:18.349Z</time>
      </trkpt>
      <trkpt lat="45.92844" lon="4.73789">
        <ele>163.800003052</ele>
        <time>2015-12-22T12:20:19.371Z</time>
      </trkpt>
      <trkpt lat="45.92839" lon="4.73786">
        <ele>163.399993896</ele>
        <time>2015-12-22T12:20:20.349Z</time>
      </trkpt>
      <trkpt lat="45.92834" lon="4.73783">
        <ele>163.5</ele>
        <time>2015-12-22T12:20:21.37Z</time>
      </trkpt>
      <trkpt lat="45.92829" lon="4.73781">
        <ele>163.699996948</ele>
        <time>2015-12-22T12:20:22.352Z</time>
      </trkpt>
      <trkpt lat="45.92824" lon="4.73777">
        <ele>164.399993896</ele>
        <time>2015-12-22T12:20:23.381Z</time>
      </trkpt>
      <trkpt lat="45.9282" lon="4.73774">
        <ele>165</ele>
        <time>2015-12-22T12:20:24.352Z</time>
      </trkpt>
      <trkpt lat="45.92815" lon="4.7377">
        <ele>164.899993896</ele>
        <time>2015-12-22T12:20:25.378Z</time>
      </trkpt>
      <trkpt lat="45.92811" lon="4.73767">
        <ele>165.100006104</ele>
        <time>2015-12-22T12:20:26.348Z</time>
      </trkpt>
      <trkpt lat="45.92806" lon="4.73765">
        <ele>165.600006104</ele>
        <time>2015-12-22T12:20:27.369Z</time>
      </trkpt>
      <trkpt lat="45.92801" lon="4.73762">
        <ele>165.899993896</ele>
        <time>2015-12-22T12:20:28.351Z</time>
      </trkpt>
      <trkpt lat="45.92797" lon="4.7376">
        <ele>166</ele>
        <time>2015-12-22T12:20:29.403Z</time>
      </trkpt>
      <trkpt lat="45.92792" lon="4.73756">
        <ele>166</ele>
        <time>2015-12-22T12:20:30.349Z</time>
      </trkpt>
      <trkpt lat="45.92788" lon="4.73753">
        <ele>166.399993896</ele>
        <time>2015-12-22T12:20:31.48Z</time>
      </trkpt>
      <trkpt lat="45.92785" lon="4.73748">
        <ele>167.100006104</ele>
        <time>2015-12-22T12:20:32.352Z</time>
      </trkpt>
      <trkpt lat="45.92781" lon="4.73743">
        <ele>167.300003052</ele>
        <time>2015-12-22T12:20:33.372Z</time>
      </trkpt>
      <trkpt lat="45.92778" lon="4.73737">
        <ele>167.399993896</ele>
        <time>2015-12-22T12:20:34.367Z</time>
      </trkpt>
      <trkpt lat="45.92773" lon="4.73734">
        <ele>167.699996948</ele>
        <time>2015-12-22T12:20:35.369Z</time>
      </trkpt>
      <trkpt lat="45.92768" lon="4.73732">
        <ele>168.199996948</ele>
        <time>2015-12-22T12:20:36.348Z</time>
      </trkpt>
      <trkpt lat="45.92763" lon="4.73729">
        <ele>168.399993896</ele>
        <time>2015-12-22T12:20:37.372Z</time>
      </trkpt>
      <trkpt lat="45.92757" lon="4.73728">
        <ele>168.699996948</ele>
        <time>2015-12-22T12:20:38.352Z</time>
      </trkpt>
      <trkpt lat="45.92751" lon="4.73726">
        <ele>168.800003052</ele>
        <time>2015-12-22T12:20:39.37Z</time>
      </trkpt>
      <trkpt lat="45.92745" lon="4.73725">
        <ele>168.300003052</ele>
        <time>2015-12-22T12:20:40.352Z</time>
      </trkpt>
      <trkpt lat="45.9274" lon="4.73724">
        <ele>168.199996948</ele>
        <time>2015-12-22T12:20:41.368Z</time>
      </trkpt>
      <trkpt lat="45.92734" lon="4.73723">
        <ele>168.100006104</ele>
        <time>2015-12-22T12:20:42.349Z</time>
      </trkpt>
      <trkpt lat="45.92729" lon="4.73722">
        <ele>167.800003052</ele>
        <time>2015-12-22T12:20:43.372Z</time>
      </trkpt>
      <trkpt lat="45.92724" lon="4.73721">
        <ele>167.399993896</ele>
        <time>2015-12-22T12:20:44.352Z</time>
      </trkpt>
      <trkpt lat="45.92719" lon="4.73719">
        <ele>167.5</ele>
        <time>2015-12-22T12:20:45.393Z</time>
      </trkpt>
      <trkpt lat="45.92714" lon="4.73718">
        <ele>167.5</ele>
        <time>2015-12-22T12:20:46.35Z</time>
      </trkpt>
      <trkpt lat="45.92709" lon="4.73717">
        <ele>167.100006104</ele>
        <time>2015-12-22T12:20:47.369Z</time>
      </trkpt>
      <trkpt lat="45.92704" lon="4.73716">
        <ele>166.699996948</ele>
        <time>2015-12-22T12:20:48.348Z</time>
      </trkpt>
      <trkpt lat="45.927" lon="4.73714">
        <ele>166.600006104</ele>
        <time>2015-12-22T12:20:49.374Z</time>
      </trkpt>
      <trkpt lat="45.92695" lon="4.73712">
        <ele>166.5</ele>
        <time>2015-12-22T12:20:50.348Z</time>
      </trkpt>
      <trkpt lat="45.92691" lon="4.7371">
        <ele>166.600006104</ele>
        <time>2015-12-22T12:20:51.369Z</time>
      </trkpt>
      <trkpt lat="45.92686" lon="4.73709">
        <ele>166.399993896</ele>
        <time>2015-12-22T12:20:52.348Z</time>
      </trkpt>
      <trkpt lat="45.9268" lon="4.73707">
        <ele>166.100006104</ele>
        <time>2015-12-22T12:20:53.367Z</time>
      </trkpt>
      <trkpt lat="45.92675" lon="4.73706">
        <ele>166.199996948</ele>
        <time>2015-12-22T12:20:54.348Z</time>
      </trkpt>
      <trkpt lat="45.9267" lon="4.73704">
        <ele>166.199996948</ele>
        <time>2015-12-22T12:20:55.517Z</time>
      </trkpt>
      <trkpt lat="45.92665" lon="4.73702">
        <ele>166.300003052</ele>
        <time>2015-12-22T12:20:56.349Z</time>
      </trkpt>
      <trkpt lat="45.92661" lon="4.737">
        <ele>166.399993896</ele>
        <time>2015-12-22T12:20:57.369Z</time>
      </trkpt>
      <trkpt lat="45.92656" lon="4.73697">
        <ele>166.199996948</ele>
        <time>2015-12-22T12:20:58.348Z</time>
      </trkpt>
      <trkpt lat="45.92652" lon="4.73693">
        <ele>166.199996948</ele>
        <time>2015-12-22T12:20:59.371Z</time>
      </trkpt>
      <trkpt lat="45.92648" lon="4.73689">
        <ele>166.100006104</ele>
        <time>2015-12-22T12:21:00.348Z</time>
      </trkpt>
      <trkpt lat="45.92644" lon="4.73684">
        <ele>166.300003052</ele>
        <time>2015-12-22T12:21:01.374Z</time>
      </trkpt>
      <trkpt lat="45.92641" lon="4.73678">
        <ele>166.699996948</ele>
        <time>2015-12-22T12:21:02.348Z</time>
      </trkpt>
      <trkpt lat="45.92638" lon="4.73672">
        <ele>167.199996948</ele>
        <time>2015-12-22T12:21:03.372Z</time>
      </trkpt>
      <trkpt lat="45.92634" lon="4.73668">
        <ele>167.600006104</ele>
        <time>2015-12-22T12:21:04.351Z</time>
      </trkpt>
      <trkpt lat="45.92632" lon="4.73662">
        <ele>167.899993896</ele>
        <time>2015-12-22T12:21:05.368Z</time>
      </trkpt>
      <trkpt lat="45.92629" lon="4.73656">
        <ele>168.399993896</ele>
        <time>2015-12-22T12:21:06.349Z</time>
      </trkpt>
      <trkpt lat="45.92626" lon="4.73649">
        <ele>168.600006104</ele>
        <time>2015-12-22T12:21:07.371Z</time>
      </trkpt>
      <trkpt lat="45.92623" lon="4.73642">
        <ele>168.800003052</ele>
        <time>2015-12-22T12:21:08.348Z</time>
      </trkpt>
      <trkpt lat="45.92619" lon="4.73638">
        <ele>168.899993896</ele>
        <time>2015-12-22T12:21:09.37Z</time>
      </trkpt>
      <trkpt lat="45.92614" lon="4.73634">
        <ele>168.800003052</ele>
        <time>2015-12-22T12:21:10.349Z</time>
      </trkpt>
      <trkpt lat="45.92609" lon="4.7363">
        <ele>169</ele>
        <time>2015-12-22T12:21:11.387Z</time>
      </trkpt>
      <trkpt lat="45.92605" lon="4.73628">
        <ele>168.800003052</ele>
        <time>2015-12-22T12:21:12.348Z</time>
      </trkpt>
      <trkpt lat="45.92601" lon="4.73626">
        <ele>168.699996948</ele>
        <time>2015-12-22T12:21:13.37Z</time>
      </trkpt>
      <trkpt lat="45.92596" lon="4.73625">
        <ele>168.600006104</ele>
        <time>2015-12-22T12:21:14.348Z</time>
      </trkpt>
      <trkpt lat="45.9259" lon="4.73624">
        <ele>168.5</ele>
        <time>2015-12-22T12:21:15.37Z</time>
      </trkpt>
      <trkpt lat="45.92585" lon="4.73624">
        <ele>168.300003052</ele>
        <time>2015-12-22T12:21:16.351Z</time>
      </trkpt>
      <trkpt lat="45.9258" lon="4.73625">
        <ele>168.300003052</ele>
        <time>2015-12-22T12:21:17.368Z</time>
      </trkpt>
      <trkpt lat="45.92574" lon="4.73625">
        <ele>168.5</ele>
        <time>2015-12-22T12:21:18.352Z</time>
      </trkpt>
      <trkpt lat="45.92569" lon="4.73626">
        <ele>168.800003052</ele>
        <time>2015-12-22T12:21:19.409Z</time>
      </trkpt>
      <trkpt lat="45.92564" lon="4.73627">
        <ele>169</ele>
        <time>2015-12-22T12:21:20.397Z</time>
      </trkpt>
      <trkpt lat="45.9256" lon="4.73628">
        <ele>169.600006104</ele>
        <time>2015-12-22T12:21:21.368Z</time>
      </trkpt>
      <trkpt lat="45.92554" lon="4.7363">
        <ele>170</ele>
        <time>2015-12-22T12:21:22.351Z</time>
      </trkpt>
      <trkpt lat="45.92548" lon="4.7363">
        <ele>170.399993896</ele>
        <time>2015-12-22T12:21:23.369Z</time>
      </trkpt>
      <trkpt lat="45.92543" lon="4.73631">
        <ele>170.199996948</ele>
        <time>2015-12-22T12:21:24.352Z</time>
      </trkpt>
      <trkpt lat="45.92537" lon="4.73632">
        <ele>170.399993896</ele>
        <time>2015-12-22T12:21:25.375Z</time>
      </trkpt>
      <trkpt lat="45.92532" lon="4.73632">
        <ele>169.899993896</ele>
        <time>2015-12-22T12:21:26.351Z</time>
      </trkpt>
      <trkpt lat="45.92527" lon="4.73633">
        <ele>169.100006104</ele>
        <time>2015-12-22T12:21:27.37Z</time>
      </trkpt>
      <trkpt lat="45.92523" lon="4.73633">
        <ele>168.899993896</ele>
        <time>2015-12-22T12:21:28.351Z</time>
      </trkpt>
      <trkpt lat="45.92518" lon="4.73634">
        <ele>168.800003052</ele>
        <time>2015-12-22T12:21:29.428Z</time>
      </trkpt>
      <trkpt lat="45.92513" lon="4.73635">
        <ele>168.699996948</ele>
        <time>2015-12-22T12:21:30.373Z</time>
      </trkpt>
      <trkpt lat="45.92509" lon="4.73636">
        <ele>168.699996948</ele>
        <time>2015-12-22T12:21:31.372Z</time>
      </trkpt>
      <trkpt lat="45.92504" lon="4.73637">
        <ele>169.100006104</ele>
        <time>2015-12-22T12:21:32.366Z</time>
      </trkpt>
      <trkpt lat="45.92495" lon="4.73636">
        <ele>169</ele>
        <time>2015-12-22T12:21:34.369Z</time>
      </trkpt>
      <trkpt lat="45.92491" lon="4.73636">
        <ele>168.899993896</ele>
        <time>2015-12-22T12:21:35.352Z</time>
      </trkpt>
      <trkpt lat="45.92483" lon="4.73638">
        <ele>168.699996948</ele>
        <time>2015-12-22T12:21:37.372Z</time>
      </trkpt>
      <trkpt lat="45.92479" lon="4.7364">
        <ele>168.399993896</ele>
        <time>2015-12-22T12:21:38.352Z</time>
      </trkpt>
      <trkpt lat="45.92472" lon="4.73646">
        <ele>168.199996948</ele>
        <time>2015-12-22T12:21:40.368Z</time>
      </trkpt>
      <trkpt lat="45.92469" lon="4.73651">
        <ele>168.199996948</ele>
        <time>2015-12-22T12:21:41.351Z</time>
      </trkpt>
      <trkpt lat="45.92468" lon="4.73662">
        <ele>168.300003052</ele>
        <time>2015-12-22T12:21:43.372Z</time>
      </trkpt>
      <trkpt lat="45.92468" lon="4.73668">
        <ele>168.199996948</ele>
        <time>2015-12-22T12:21:44.352Z</time>
      </trkpt>
      <trkpt lat="45.92468" lon="4.73678">
        <ele>167.399993896</ele>
        <time>2015-12-22T12:21:46.37Z</time>
      </trkpt>
      <trkpt lat="45.92468" lon="4.73684">
        <ele>167.199996948</ele>
        <time>2015-12-22T12:21:47.351Z</time>
      </trkpt>
      <trkpt lat="45.92467" lon="4.73693">
        <ele>167.199996948</ele>
        <time>2015-12-22T12:21:49.376Z</time>
      </trkpt>
      <trkpt lat="45.92466" lon="4.73698">
        <ele>167.199996948</ele>
        <time>2015-12-22T12:21:50.349Z</time>
      </trkpt>
      <trkpt lat="45.92465" lon="4.73704">
        <ele>168.399993896</ele>
        <time>2015-12-22T12:22:00.368Z</time>
      </trkpt>
      <trkpt lat="45.92464" lon="4.73704">
        <ele>168.699996948</ele>
        <time>2015-12-22T12:22:01.354Z</time>
      </trkpt>
      <trkpt lat="45.92464" lon="4.73705">
        <ele>168.699996948</ele>
        <time>2015-12-22T12:22:02.37Z</time>
      </trkpt>
      <trkpt lat="45.92464" lon="4.73706">
        <ele>168.699996948</ele>
        <time>2015-12-22T12:22:03.35Z</time>
      </trkpt>
      <trkpt lat="45.92463" lon="4.73707">
        <ele>168.800003052</ele>
        <time>2015-12-22T12:22:34.356Z</time>
      </trkpt>
    </trkseg>
  </trk>
</gpx>